<?xml version='1.0' encoding='UTF-8'?><gpx version="1.1" creator="JPX - https://github.com/jenetics/jpx" xmlns="http://www.topografix.com/GPX/1/1"><trk><trkseg><trkpt lat="45.50192280513074" lon="8.209871387224782"><ele>210.0</ele><time>2026-04-11T07:55:43.666Z</time></trkpt><trkpt lat="45.50168005354468" lon="8.209989168358026"><ele>210.0</ele><time>2026-04-11T07:55:45.566Z</time></trkpt><trkpt lat="45.50155299072637" lon="8.210055947252906"><ele>210.0</ele><time>2026-04-11T07:55:46.516Z</time></trkpt><trkpt lat="45.501412414399226" lon="8.210134201064683"><ele>210.33333333333331</ele><time>2026-04-11T07:55:47.466Z</time></trkpt><trkpt lat="45.5012451512116" lon="8.210223412005819"><ele>210.66666666666666</ele><time>2026-04-11T07:55:48.416Z</time></trkpt><trkpt lat="45.50107797762048" lon="8.210305516402917"><ele>211.0</ele><time>2026-04-11T07:55:49.366Z</time></trkpt><trkpt lat="45.50091886892649" lon="8.210390265693814"><ele>211.0</ele><time>2026-04-11T07:55:50.316Z</time></trkpt><trkpt lat="45.50076278129171" lon="8.210475075668848"><ele>211.0</ele><time>2026-04-11T07:55:51.266Z</time></trkpt><trkpt lat="45.50061348579257" lon="8.21055738143818"><ele>211.0</ele><time>2026-04-11T07:55:52.216Z</time></trkpt><trkpt lat="45.5004506669485" lon="8.210638133797396"><ele>210.33333333333331</ele><time>2026-04-11T07:55:53.166Z</time></trkpt><trkpt lat="45.50028516889617" lon="8.210713485728059"><ele>209.66666666666669</ele><time>2026-04-11T07:55:54.116Z</time></trkpt><trkpt lat="45.50012119592589" lon="8.210797666262144"><ele>209.0</ele><time>2026-04-11T07:55:55.066Z</time></trkpt><trkpt lat="45.499949591495444" lon="8.210887583547159"><ele>209.0</ele><time>2026-04-11T07:55:56.016Z</time></trkpt><trkpt lat="45.49976973858398" lon="8.210980390528668"><ele>209.0</ele><time>2026-04-11T07:55:57Z</time></trkpt><trkpt lat="45.49958202892298" lon="8.211079606585926"><ele>209.0</ele><time>2026-04-11T07:55:58Z</time></trkpt><trkpt lat="45.499395273615065" lon="8.211177364366234"><ele>208.66666666666669</ele><time>2026-04-11T07:55:59Z</time></trkpt><trkpt lat="45.499208438088694" lon="8.211269899920342"><ele>208.33333333333331</ele><time>2026-04-11T07:56:00Z</time></trkpt><trkpt lat="45.49901387318261" lon="8.211364736719387"><ele>208.0</ele><time>2026-04-11T07:56:01Z</time></trkpt><trkpt lat="45.49881566179014" lon="8.211464171936067"><ele>208.0</ele><time>2026-04-11T07:56:02Z</time></trkpt><trkpt lat="45.498611913584966" lon="8.21156723888864"><ele>208.0</ele><time>2026-04-11T07:56:03Z</time></trkpt><trkpt lat="45.49841717123368" lon="8.211664647767453"><ele>208.0</ele><time>2026-04-11T07:56:04Z</time></trkpt><trkpt lat="45.49823359549966" lon="8.211754430952716"><ele>208.0</ele><time>2026-04-11T07:56:05Z</time></trkpt><trkpt lat="45.4980316143451" lon="8.211846994406834"><ele>208.0</ele><time>2026-04-11T07:56:06Z</time></trkpt><trkpt lat="45.49783919321268" lon="8.211942032289675"><ele>208.0</ele><time>2026-04-11T07:56:07Z</time></trkpt><trkpt lat="45.49764726686717" lon="8.212035202827703"><ele>208.33333333333331</ele><time>2026-04-11T07:56:08Z</time></trkpt><trkpt lat="45.497449951669815" lon="8.212138697407749"><ele>208.66666666666669</ele><time>2026-04-11T07:56:09Z</time></trkpt><trkpt lat="45.49724488942922" lon="8.212231512114766"><ele>209.0</ele><time>2026-04-11T07:56:10Z</time></trkpt><trkpt lat="45.49704337031721" lon="8.212329230840389"><ele>209.0</ele><time>2026-04-11T07:56:11Z</time></trkpt><trkpt lat="45.4968379249706" lon="8.212434758753506"><ele>209.0</ele><time>2026-04-11T07:56:12Z</time></trkpt><trkpt lat="45.49662888010121" lon="8.212544785301029"><ele>209.0</ele><time>2026-04-11T07:56:13Z</time></trkpt><trkpt lat="45.496415968973764" lon="8.212652305827763"><ele>208.5</ele><time>2026-04-11T07:56:14Z</time></trkpt><trkpt lat="45.49620226211391" lon="8.212761196627554"><ele>208.0</ele><time>2026-04-11T07:56:15Z</time></trkpt><trkpt lat="45.495986370930325" lon="8.212869978504218"><ele>208.0</ele><time>2026-04-11T07:56:16Z</time></trkpt><trkpt lat="45.49576597844264" lon="8.212978209205911"><ele>208.0</ele><time>2026-04-11T07:56:17Z</time></trkpt><trkpt lat="45.49554345264569" lon="8.21309217596272"><ele>206.0</ele><time>2026-04-11T07:56:18Z</time></trkpt><trkpt lat="45.495321962846376" lon="8.213211758202926"><ele>204.0</ele><time>2026-04-11T07:56:19Z</time></trkpt><trkpt lat="45.49511627144331" lon="8.213314056654358"><ele>204.0</ele><time>2026-04-11T07:56:20Z</time></trkpt><trkpt lat="45.49491981885121" lon="8.213406239612434"><ele>204.0</ele><time>2026-04-11T07:56:21Z</time></trkpt><trkpt lat="45.494721612043406" lon="8.213506928704941"><ele>204.0</ele><time>2026-04-11T07:56:22Z</time></trkpt><trkpt lat="45.49451518845232" lon="8.213613223156656"><ele>204.33333333333331</ele><time>2026-04-11T07:56:23Z</time></trkpt><trkpt lat="45.494307990149814" lon="8.21372125064277"><ele>204.66666666666666</ele><time>2026-04-11T07:56:24Z</time></trkpt><trkpt lat="45.4940949484531" lon="8.21383427892554"><ele>205.0</ele><time>2026-04-11T07:56:25Z</time></trkpt><trkpt lat="45.49388381905261" lon="8.213943451570863"><ele>205.0</ele><time>2026-04-11T07:56:26Z</time></trkpt><trkpt lat="45.493680968777085" lon="8.214043505931041"><ele>205.0</ele><time>2026-04-11T07:56:27Z</time></trkpt><trkpt lat="45.49348007160717" lon="8.214147755355892"><ele>205.0</ele><time>2026-04-11T07:56:28Z</time></trkpt><trkpt lat="45.49328790680498" lon="8.214247491351232"><ele>205.0</ele><time>2026-04-11T07:56:29Z</time></trkpt><trkpt lat="45.49310313219321" lon="8.214336639214538"><ele>205.0</ele><time>2026-04-11T07:56:30Z</time></trkpt><trkpt lat="45.49292322249372" lon="8.214431473355228"><ele>205.0</ele><time>2026-04-11T07:56:31Z</time></trkpt><trkpt lat="45.49275526100659" lon="8.214533612728385"><ele>204.66666666666666</ele><time>2026-04-11T07:56:32Z</time></trkpt><trkpt lat="45.49260642678143" lon="8.214653778922983"><ele>204.33333333333331</ele><time>2026-04-11T07:56:32.999Z</time></trkpt><trkpt lat="45.492474468301054" lon="8.214784251786593"><ele>204.0</ele><time>2026-04-11T07:56:33.999Z</time></trkpt><trkpt lat="45.49234794471335" lon="8.214926812315326"><ele>204.0</ele><time>2026-04-11T07:56:34.999Z</time></trkpt><trkpt lat="45.49225531515603" lon="8.215084179015562"><ele>204.0</ele><time>2026-04-11T07:56:35.999Z</time></trkpt><trkpt lat="45.49217457755747" lon="8.215228590222674"><ele>204.0</ele><time>2026-04-11T07:56:36.999Z</time></trkpt><trkpt lat="45.4921036848026" lon="8.2153637481571"><ele>204.0</ele><time>2026-04-11T07:56:37.999Z</time></trkpt><trkpt lat="45.49202751880059" lon="8.215468513979776"><ele>203.75</ele><time>2026-04-11T07:56:38.999Z</time></trkpt><trkpt lat="45.49195626326883" lon="8.2155391228119"><ele>203.5</ele><time>2026-04-11T07:56:39.999Z</time></trkpt><trkpt lat="45.49181879497616" lon="8.215392817016918"><ele>203.25</ele><time>2026-04-11T07:56:40.999Z</time></trkpt><trkpt lat="45.49172574614362" lon="8.215468066430352"><ele>203.0</ele><time>2026-04-11T07:56:42.999Z</time></trkpt><trkpt lat="45.49163142381695" lon="8.215541808209485"><ele>203.0</ele><time>2026-04-11T07:56:44.999Z</time></trkpt><trkpt lat="45.49153819791349" lon="8.215593507463131"><ele>203.0</ele><time>2026-04-11T07:56:45.999Z</time></trkpt><trkpt lat="45.49142897575201" lon="8.215633975261206"><ele>203.0</ele><time>2026-04-11T07:56:46.999Z</time></trkpt><trkpt lat="45.491300251994375" lon="8.215661734053514"><ele>203.0</ele><time>2026-04-11T07:56:47.999Z</time></trkpt><trkpt lat="45.491160895342034" lon="8.215666733684417"><ele>202.0</ele><time>2026-04-11T07:56:48.999Z</time></trkpt><trkpt lat="45.49101827414515" lon="8.2156451512871"><ele>201.0</ele><time>2026-04-11T07:56:49.999Z</time></trkpt><trkpt lat="45.4909346033151" lon="8.21554914926931"><ele>200.0</ele><time>2026-04-11T07:56:50.999Z</time></trkpt><trkpt lat="45.49079367013613" lon="8.215496058486394"><ele>199.0</ele><time>2026-04-11T07:56:51.999Z</time></trkpt><trkpt lat="45.49070802983274" lon="8.215387963388714"><ele>196.0</ele><time>2026-04-11T07:56:52.999Z</time></trkpt><trkpt lat="45.4903304659813" lon="8.21599179920805"><ele>196.0</ele><time>2026-04-11T07:56:53.999Z</time></trkpt><trkpt lat="45.49012863425323" lon="8.216034132333148"><ele>196.0</ele><time>2026-04-11T07:56:54.999Z</time></trkpt><trkpt lat="45.48991528102517" lon="8.216077036939637"><ele>196.0</ele><time>2026-04-11T07:56:55.999Z</time></trkpt><trkpt lat="45.489714822122856" lon="8.216123583403597"><ele>196.33333333333331</ele><time>2026-04-11T07:56:56.999Z</time></trkpt><trkpt lat="45.48951778604019" lon="8.216162786037685"><ele>196.66666666666669</ele><time>2026-04-11T07:56:57.999Z</time></trkpt><trkpt lat="45.48932077459736" lon="8.216200683419068"><ele>197.0</ele><time>2026-04-11T07:56:58.999Z</time></trkpt><trkpt lat="45.48911522659893" lon="8.216245792739153"><ele>197.0</ele><time>2026-04-11T07:56:59.999Z</time></trkpt><trkpt lat="45.488910984558885" lon="8.216285424557865"><ele>197.0</ele><time>2026-04-11T07:57:00.999Z</time></trkpt><trkpt lat="45.48870598692373" lon="8.216324890524728"><ele>197.0</ele><time>2026-04-11T07:57:01.999Z</time></trkpt><trkpt lat="45.48849659085677" lon="8.216367734379833"><ele>196.66666666666669</ele><time>2026-04-11T07:57:02.999Z</time></trkpt><trkpt lat="45.48828946862708" lon="8.21640857081658"><ele>196.33333333333331</ele><time>2026-04-11T07:57:03.999Z</time></trkpt><trkpt lat="45.488073250633974" lon="8.21645528198349"><ele>196.0</ele><time>2026-04-11T07:57:04.999Z</time></trkpt><trkpt lat="45.487850666006864" lon="8.216496778412063"><ele>196.0</ele><time>2026-04-11T07:57:05.999Z</time></trkpt><trkpt lat="45.48762460968353" lon="8.216542383828498"><ele>196.0</ele><time>2026-04-11T07:57:06.999Z</time></trkpt><trkpt lat="45.487389550910045" lon="8.216594243914374"><ele>196.0</ele><time>2026-04-11T07:57:07.999Z</time></trkpt><trkpt lat="45.487166842798786" lon="8.216639852613236"><ele>196.0</ele><time>2026-04-11T07:57:08.999Z</time></trkpt><trkpt lat="45.486951836314724" lon="8.216687042976709"><ele>196.0</ele><time>2026-04-11T07:57:09.999Z</time></trkpt><trkpt lat="45.48673525126935" lon="8.216734312999103"><ele>196.33333333333331</ele><time>2026-04-11T07:57:10.999Z</time></trkpt><trkpt lat="45.48651784406883" lon="8.216779532148715"><ele>196.66666666666669</ele><time>2026-04-11T07:57:11.999Z</time></trkpt><trkpt lat="45.48629567119162" lon="8.216825614747846"><ele>197.0</ele><time>2026-04-11T07:57:12.999Z</time></trkpt><trkpt lat="45.48607620973598" lon="8.216871657798778"><ele>197.33333333333334</ele><time>2026-04-11T07:57:13.999Z</time></trkpt><trkpt lat="45.485854888606646" lon="8.216919364360162"><ele>197.66666666666669</ele><time>2026-04-11T07:57:14.999Z</time></trkpt><trkpt lat="45.485633752541354" lon="8.216967156369524"><ele>198.0</ele><time>2026-04-11T07:57:15.999Z</time></trkpt><trkpt lat="45.485412870378205" lon="8.217015912465579"><ele>198.33333333333331</ele><time>2026-04-11T07:57:16.999Z</time></trkpt><trkpt lat="45.48518951557165" lon="8.21705779801867"><ele>198.66666666666666</ele><time>2026-04-11T07:57:17.999Z</time></trkpt><trkpt lat="45.48496950104249" lon="8.217102979578367"><ele>199.0</ele><time>2026-04-11T07:57:18.998Z</time></trkpt><trkpt lat="45.48474944306179" lon="8.21714665126587"><ele>198.66666666666666</ele><time>2026-04-11T07:57:19.998Z</time></trkpt><trkpt lat="45.48453115480099" lon="8.217189524435705"><ele>198.33333333333331</ele><time>2026-04-11T07:57:20.998Z</time></trkpt><trkpt lat="45.484311354308645" lon="8.217233256254149"><ele>198.0</ele><time>2026-04-11T07:57:21.998Z</time></trkpt><trkpt lat="45.48408881213498" lon="8.21727867661736"><ele>198.33333333333331</ele><time>2026-04-11T07:57:22.998Z</time></trkpt><trkpt lat="45.48387116085326" lon="8.217322867788102"><ele>198.66666666666666</ele><time>2026-04-11T07:57:23.998Z</time></trkpt><trkpt lat="45.48366066142536" lon="8.217367277933505"><ele>199.0</ele><time>2026-04-11T07:57:24.998Z</time></trkpt><trkpt lat="45.48345220573753" lon="8.217411249107945"><ele>199.0</ele><time>2026-04-11T07:57:25.998Z</time></trkpt><trkpt lat="45.48324067752214" lon="8.217451622023015"><ele>199.0</ele><time>2026-04-11T07:57:26.998Z</time></trkpt><trkpt lat="45.48302808852756" lon="8.217492967210639"><ele>199.0</ele><time>2026-04-11T07:57:27.998Z</time></trkpt><trkpt lat="45.482813300351225" lon="8.217533882921364"><ele>199.33333333333331</ele><time>2026-04-11T07:57:28.998Z</time></trkpt><trkpt lat="45.48259515504414" lon="8.217580497057149"><ele>199.66666666666669</ele><time>2026-04-11T07:57:29.998Z</time></trkpt><trkpt lat="45.48237265544892" lon="8.217628284124551"><ele>200.0</ele><time>2026-04-11T07:57:30.998Z</time></trkpt><trkpt lat="45.48214739255836" lon="8.217683391647919"><ele>199.5</ele><time>2026-04-11T07:57:31.998Z</time></trkpt><trkpt lat="45.48191431374864" lon="8.217739130944903"><ele>199.0</ele><time>2026-04-11T07:57:32.998Z</time></trkpt><trkpt lat="45.481673035845795" lon="8.217788377820483"><ele>199.0</ele><time>2026-04-11T07:57:33.998Z</time></trkpt><trkpt lat="45.48141720956451" lon="8.2178295129146"><ele>199.0</ele><time>2026-04-11T07:57:34.998Z</time></trkpt><trkpt lat="45.481147447900945" lon="8.21786862141794"><ele>199.5</ele><time>2026-04-11T07:57:35.998Z</time></trkpt><trkpt lat="45.48087617219658" lon="8.217912325178578"><ele>200.0</ele><time>2026-04-11T07:57:36.998Z</time></trkpt><trkpt lat="45.48060495485673" lon="8.21796822555745"><ele>200.0</ele><time>2026-04-11T07:57:37.998Z</time></trkpt><trkpt lat="45.48033991375496" lon="8.218022367385494"><ele>200.0</ele><time>2026-04-11T07:57:38.998Z</time></trkpt><trkpt lat="45.4800837134701" lon="8.218073171135513"><ele>200.0</ele><time>2026-04-11T07:57:39.998Z</time></trkpt><trkpt lat="45.47983114013473" lon="8.218128353148106"><ele>200.0</ele><time>2026-04-11T07:57:40.998Z</time></trkpt><trkpt lat="45.479586773715354" lon="8.21818076140421"><ele>200.0</ele><time>2026-04-11T07:57:41.998Z</time></trkpt><trkpt lat="45.479352514312254" lon="8.218228492086624"><ele>200.0</ele><time>2026-04-11T07:57:42.998Z</time></trkpt><trkpt lat="45.47912112628076" lon="8.21827398302004"><ele>200.0</ele><time>2026-04-11T07:57:43.998Z</time></trkpt><trkpt lat="45.47889570147923" lon="8.218317582574503"><ele>200.0</ele><time>2026-04-11T07:57:44.998Z</time></trkpt><trkpt lat="45.478671524820584" lon="8.218361836633774"><ele>199.0</ele><time>2026-04-11T07:57:45.998Z</time></trkpt><trkpt lat="45.47844641444087" lon="8.218408665186312"><ele>198.0</ele><time>2026-04-11T07:57:46.998Z</time></trkpt><trkpt lat="45.47822227921937" lon="8.218456361379726"><ele>198.0</ele><time>2026-04-11T07:57:47.998Z</time></trkpt><trkpt lat="45.47799637639427" lon="8.21850348718053"><ele>198.0</ele><time>2026-04-11T07:57:48.998Z</time></trkpt><trkpt lat="45.477770345940584" lon="8.218547394958595"><ele>197.0</ele><time>2026-04-11T07:57:49.998Z</time></trkpt><trkpt lat="45.47754899314958" lon="8.218593931287836"><ele>196.0</ele><time>2026-04-11T07:57:50.998Z</time></trkpt><trkpt lat="45.4773449597134" lon="8.218633935193067"><ele>195.0</ele><time>2026-04-11T07:57:51.998Z</time></trkpt><trkpt lat="45.47714993312517" lon="8.218675735597794"><ele>194.0</ele><time>2026-04-11T07:57:52.998Z</time></trkpt><trkpt lat="45.4769608612878" lon="8.218715975438464"><ele>193.0</ele><time>2026-04-11T07:57:53.998Z</time></trkpt><trkpt lat="45.47677386071334" lon="8.218753852761209"><ele>192.0</ele><time>2026-04-11T07:57:54.998Z</time></trkpt><trkpt lat="45.47659165184165" lon="8.218790874520204"><ele>192.0</ele><time>2026-04-11T07:57:55.998Z</time></trkpt><trkpt lat="45.476406150312684" lon="8.218826313494247"><ele>192.0</ele><time>2026-04-11T07:57:56.998Z</time></trkpt><trkpt lat="45.47621187696167" lon="8.218862238477811"><ele>192.0</ele><time>2026-04-11T07:57:57.998Z</time></trkpt><trkpt lat="45.476009113311456" lon="8.21889768429378"><ele>191.0</ele><time>2026-04-11T07:57:58.998Z</time></trkpt><trkpt lat="45.475801859611614" lon="8.218925673057024"><ele>190.0</ele><time>2026-04-11T07:57:59.998Z</time></trkpt><trkpt lat="45.47559629350244" lon="8.218936926315694"><ele>189.0</ele><time>2026-04-11T07:58:00.998Z</time></trkpt><trkpt lat="45.47539405311961" lon="8.218905417380265"><ele>189.0</ele><time>2026-04-11T07:58:01.998Z</time></trkpt><trkpt lat="45.47519278691726" lon="8.218872624705014"><ele>189.0</ele><time>2026-04-11T07:58:02.998Z</time></trkpt><trkpt lat="45.47498964528467" lon="8.218822113028931"><ele>189.0</ele><time>2026-04-11T07:58:03.998Z</time></trkpt><trkpt lat="45.474783914271804" lon="8.218754068854265"><ele>189.33333333333334</ele><time>2026-04-11T07:58:04.997Z</time></trkpt><trkpt lat="45.474586174857684" lon="8.218680651902337"><ele>189.66666666666669</ele><time>2026-04-11T07:58:05.997Z</time></trkpt><trkpt lat="45.47439796738636" lon="8.218634621374775"><ele>190.0</ele><time>2026-04-11T07:58:06.997Z</time></trkpt><trkpt lat="45.47419936993445" lon="8.218560785365955"><ele>190.0</ele><time>2026-04-11T07:58:07.997Z</time></trkpt><trkpt lat="45.473977446346034" lon="8.218453291986377"><ele>190.0</ele><time>2026-04-11T07:58:08.997Z</time></trkpt><trkpt lat="45.473733458208294" lon="8.218361028872563"><ele>190.0</ele><time>2026-04-11T07:58:09.997Z</time></trkpt><trkpt lat="45.47347567798737" lon="8.218266178897409"><ele>190.0</ele><time>2026-04-11T07:58:10.997Z</time></trkpt><trkpt lat="45.47320726472574" lon="8.218165444512493"><ele>190.0</ele><time>2026-04-11T07:58:11.997Z</time></trkpt><trkpt lat="45.4729202939098" lon="8.218073971597308"><ele>190.0</ele><time>2026-04-11T07:58:12.997Z</time></trkpt><trkpt lat="45.472639746035476" lon="8.217935507477454"><ele>190.0</ele><time>2026-04-11T07:58:13.997Z</time></trkpt><trkpt lat="45.47237815956848" lon="8.217755288376893"><ele>190.0</ele><time>2026-04-11T07:58:14.997Z</time></trkpt><trkpt lat="45.47212873653919" lon="8.217574862322529"><ele>190.5</ele><time>2026-04-11T07:58:15.997Z</time></trkpt><trkpt lat="45.471877716289505" lon="8.217407831229414"><ele>191.0</ele><time>2026-04-11T07:58:16.997Z</time></trkpt><trkpt lat="45.47164198524794" lon="8.217224979340847"><ele>191.0</ele><time>2026-04-11T07:58:17.997Z</time></trkpt><trkpt lat="45.471411844057215" lon="8.217052136276823"><ele>191.0</ele><time>2026-04-11T07:58:18.997Z</time></trkpt><trkpt lat="45.47118980255608" lon="8.216888376675128"><ele>191.0</ele><time>2026-04-11T07:58:19.997Z</time></trkpt><trkpt lat="45.470970174404904" lon="8.216727074700254"><ele>191.0</ele><time>2026-04-11T07:58:20.997Z</time></trkpt><trkpt lat="45.47075637534651" lon="8.21656444708332"><ele>191.5</ele><time>2026-04-11T07:58:21.997Z</time></trkpt><trkpt lat="45.47054404267251" lon="8.216407813273635"><ele>192.0</ele><time>2026-04-11T07:58:22.997Z</time></trkpt><trkpt lat="45.470335442715715" lon="8.216253990940354"><ele>192.0</ele><time>2026-04-11T07:58:23.997Z</time></trkpt><trkpt lat="45.4701288484618" lon="8.216099925395639"><ele>192.0</ele><time>2026-04-11T07:58:24.997Z</time></trkpt><trkpt lat="45.46992515190291" lon="8.215945746414816"><ele>192.0</ele><time>2026-04-11T07:58:25.997Z</time></trkpt><trkpt lat="45.46972573704282" lon="8.21579398218163"><ele>192.0</ele><time>2026-04-11T07:58:26.997Z</time></trkpt><trkpt lat="45.4695396404787" lon="8.215653925631761"><ele>192.0</ele><time>2026-04-11T07:58:27.997Z</time></trkpt><trkpt lat="45.46936627399757" lon="8.215525983097058"><ele>192.0</ele><time>2026-04-11T07:58:28.997Z</time></trkpt><trkpt lat="45.46919962483299" lon="8.215400059083668"><ele>192.0</ele><time>2026-04-11T07:58:29.997Z</time></trkpt><trkpt lat="45.469042449392475" lon="8.215279031142476"><ele>192.0</ele><time>2026-04-11T07:58:30.997Z</time></trkpt><trkpt lat="45.46889445263933" lon="8.215170224104973"><ele>192.0</ele><time>2026-04-11T07:58:31.997Z</time></trkpt><trkpt lat="45.46875736425446" lon="8.215066452300414"><ele>192.0</ele><time>2026-04-11T07:58:32.997Z</time></trkpt><trkpt lat="45.46863884894533" lon="8.214969923695973"><ele>192.0</ele><time>2026-04-11T07:58:33.997Z</time></trkpt><trkpt lat="45.46854180393899" lon="8.21488331707263"><ele>192.0</ele><time>2026-04-11T07:58:34.997Z</time></trkpt><trkpt lat="45.46846452977656" lon="8.21478350228942"><ele>192.0</ele><time>2026-04-11T07:58:35.997Z</time></trkpt><trkpt lat="45.46839602545868" lon="8.214708805538955"><ele>192.0</ele><time>2026-04-11T07:58:36.997Z</time></trkpt><trkpt lat="45.468355880959436" lon="8.21457006360167"><ele>192.0</ele><time>2026-04-11T07:58:37.997Z</time></trkpt><trkpt lat="45.46828626059929" lon="8.214490743203795"><ele>192.0</ele><time>2026-04-11T07:58:38.997Z</time></trkpt><trkpt lat="45.46821696450975" lon="8.214409226176102"><ele>192.0</ele><time>2026-04-11T07:58:39.997Z</time></trkpt><trkpt lat="45.468130683574444" lon="8.21437346856157"><ele>192.0</ele><time>2026-04-11T07:58:40.997Z</time></trkpt><trkpt lat="45.468045965392044" lon="8.214400305825821"><ele>192.0</ele><time>2026-04-11T07:58:41.997Z</time></trkpt><trkpt lat="45.467969890150314" lon="8.214474538506265"><ele>192.0</ele><time>2026-04-11T07:58:42.997Z</time></trkpt><trkpt lat="45.467908873499255" lon="8.214590254381063"><ele>192.0</ele><time>2026-04-11T07:58:43.997Z</time></trkpt><trkpt lat="45.46784713515426" lon="8.214730562117982"><ele>192.0</ele><time>2026-04-11T07:58:44.997Z</time></trkpt><trkpt lat="45.46775420911002" lon="8.21485345658711"><ele>191.66666666666666</ele><time>2026-04-11T07:58:45.997Z</time></trkpt><trkpt lat="45.46763176239099" lon="8.214950030288282"><ele>191.33333333333331</ele><time>2026-04-11T07:58:46.997Z</time></trkpt><trkpt lat="45.46749520357724" lon="8.21504961233302"><ele>191.0</ele><time>2026-04-11T07:58:47.997Z</time></trkpt><trkpt lat="45.46735421711882" lon="8.215158722672323"><ele>191.0</ele><time>2026-04-11T07:58:48.997Z</time></trkpt><trkpt lat="45.46721078358465" lon="8.215272935144784"><ele>191.0</ele><time>2026-04-11T07:58:49.996Z</time></trkpt><trkpt lat="45.467060296280685" lon="8.215391182844849"><ele>191.0</ele><time>2026-04-11T07:58:50.996Z</time></trkpt><trkpt lat="45.46690278795982" lon="8.215517858617853"><ele>191.33333333333331</ele><time>2026-04-11T07:58:51.996Z</time></trkpt><trkpt lat="45.46674644059081" lon="8.215645557309259"><ele>191.66666666666666</ele><time>2026-04-11T07:58:52.996Z</time></trkpt><trkpt lat="45.46660006879082" lon="8.215766904658237"><ele>192.0</ele><time>2026-04-11T07:58:53.996Z</time></trkpt><trkpt lat="45.46644011369546" lon="8.215901791963036"><ele>191.33333333333334</ele><time>2026-04-11T07:58:54.996Z</time></trkpt><trkpt lat="45.4662673312672" lon="8.216045602218035"><ele>190.66666666666669</ele><time>2026-04-11T07:58:55.996Z</time></trkpt><trkpt lat="45.46608627627236" lon="8.216193622670618"><ele>190.0</ele><time>2026-04-11T07:58:56.996Z</time></trkpt><trkpt lat="45.465897893277074" lon="8.21634517587259"><ele>190.0</ele><time>2026-04-11T07:58:57.996Z</time></trkpt><trkpt lat="45.46570494432913" lon="8.216496878890707"><ele>190.0</ele><time>2026-04-11T07:58:58.996Z</time></trkpt><trkpt lat="45.46552415857246" lon="8.216637222469739"><ele>190.0</ele><time>2026-04-11T07:58:59.996Z</time></trkpt><trkpt lat="45.46534387407237" lon="8.216777260823624"><ele>190.0</ele><time>2026-04-11T07:59:00.996Z</time></trkpt><trkpt lat="45.46515570500896" lon="8.21692307053617"><ele>190.0</ele><time>2026-04-11T07:59:01.996Z</time></trkpt><trkpt lat="45.46496651402525" lon="8.217077002063444"><ele>190.0</ele><time>2026-04-11T07:59:02.996Z</time></trkpt><trkpt lat="45.464773063315576" lon="8.217237219351016"><ele>189.5</ele><time>2026-04-11T07:59:03.996Z</time></trkpt><trkpt lat="45.464578918854386" lon="8.21739796022588"><ele>189.0</ele><time>2026-04-11T07:59:04.996Z</time></trkpt><trkpt lat="45.46438015852048" lon="8.217562565425455"><ele>189.0</ele><time>2026-04-11T07:59:05.996Z</time></trkpt><trkpt lat="45.464183565130476" lon="8.217720934107767"><ele>189.0</ele><time>2026-04-11T07:59:06.996Z</time></trkpt><trkpt lat="45.46399895590496" lon="8.217869510433223"><ele>189.0</ele><time>2026-04-11T07:59:07.996Z</time></trkpt><trkpt lat="45.463815525507925" lon="8.218019963920607"><ele>189.0</ele><time>2026-04-11T07:59:08.996Z</time></trkpt><trkpt lat="45.46362779998232" lon="8.218174359243346"><ele>189.0</ele><time>2026-04-11T07:59:09.996Z</time></trkpt><trkpt lat="45.46343651197817" lon="8.21832966400264"><ele>189.0</ele><time>2026-04-11T07:59:10.996Z</time></trkpt><trkpt lat="45.46323882268683" lon="8.218487985677903"><ele>189.0</ele><time>2026-04-11T07:59:11.996Z</time></trkpt><trkpt lat="45.463042350096416" lon="8.218649229500057"><ele>189.0</ele><time>2026-04-11T07:59:12.996Z</time></trkpt><trkpt lat="45.46284264662654" lon="8.218813698725112"><ele>189.0</ele><time>2026-04-11T07:59:13.996Z</time></trkpt><trkpt lat="45.46264084054097" lon="8.21897697973886"><ele>189.0</ele><time>2026-04-11T07:59:14.996Z</time></trkpt><trkpt lat="45.46243717699141" lon="8.219140774652075"><ele>189.0</ele><time>2026-04-11T07:59:15.996Z</time></trkpt><trkpt lat="45.46223578015809" lon="8.219305346979928"><ele>189.0</ele><time>2026-04-11T07:59:16.996Z</time></trkpt><trkpt lat="45.46203473653685" lon="8.219468497360468"><ele>189.0</ele><time>2026-04-11T07:59:17.996Z</time></trkpt><trkpt lat="45.4618345868819" lon="8.21963140728856"><ele>189.0</ele><time>2026-04-11T07:59:18.996Z</time></trkpt><trkpt lat="45.46163486029602" lon="8.21979234011663"><ele>189.0</ele><time>2026-04-11T07:59:19.996Z</time></trkpt><trkpt lat="45.46143471434628" lon="8.219958992069898"><ele>189.0</ele><time>2026-04-11T07:59:20.996Z</time></trkpt><trkpt lat="45.461235486030915" lon="8.220119782473509"><ele>189.0</ele><time>2026-04-11T07:59:21.996Z</time></trkpt><trkpt lat="45.461037183200176" lon="8.220279593886307"><ele>189.0</ele><time>2026-04-11T07:59:22.996Z</time></trkpt><trkpt lat="45.460839313341005" lon="8.220441189901731"><ele>189.0</ele><time>2026-04-11T07:59:23.996Z</time></trkpt><trkpt lat="45.460640663939394" lon="8.220600557639736"><ele>189.0</ele><time>2026-04-11T07:59:24.996Z</time></trkpt><trkpt lat="45.46044408638744" lon="8.220757596511492"><ele>188.33333333333334</ele><time>2026-04-11T07:59:25.996Z</time></trkpt><trkpt lat="45.46025008979089" lon="8.22091192734682"><ele>187.66666666666669</ele><time>2026-04-11T07:59:26.996Z</time></trkpt><trkpt lat="45.46005960042424" lon="8.221065952096177"><ele>187.0</ele><time>2026-04-11T07:59:27.996Z</time></trkpt><trkpt lat="45.45987056504303" lon="8.221220631038399"><ele>187.0</ele><time>2026-04-11T07:59:28.996Z</time></trkpt><trkpt lat="45.459682978492566" lon="8.221370776191593"><ele>187.0</ele><time>2026-04-11T07:59:29.996Z</time></trkpt><trkpt lat="45.45949694442202" lon="8.221521743411591"><ele>187.0</ele><time>2026-04-11T07:59:30.996Z</time></trkpt><trkpt lat="45.45931056393212" lon="8.221675364578322"><ele>186.33333333333334</ele><time>2026-04-11T07:59:31.996Z</time></trkpt><trkpt lat="45.45912340536712" lon="8.221830749022947"><ele>185.66666666666666</ele><time>2026-04-11T07:59:32.996Z</time></trkpt><trkpt lat="45.45893242792415" lon="8.221986965151102"><ele>185.0</ele><time>2026-04-11T07:59:33.996Z</time></trkpt><trkpt lat="45.45873647984981" lon="8.222145961867037"><ele>185.0</ele><time>2026-04-11T07:59:34.995Z</time></trkpt><trkpt lat="45.45853750145622" lon="8.22230815414427"><ele>185.0</ele><time>2026-04-11T07:59:35.995Z</time></trkpt><trkpt lat="45.458337047609184" lon="8.222472274944685"><ele>185.5</ele><time>2026-04-11T07:59:36.995Z</time></trkpt><trkpt lat="45.45813137815466" lon="8.22264669466215"><ele>186.0</ele><time>2026-04-11T07:59:37.995Z</time></trkpt><trkpt lat="45.45791109876522" lon="8.222839528316143"><ele>186.5</ele><time>2026-04-11T07:59:38.995Z</time></trkpt><trkpt lat="45.457679178656235" lon="8.223032198884924"><ele>187.0</ele><time>2026-04-11T07:59:39.995Z</time></trkpt><trkpt lat="45.457433467909915" lon="8.223222630771973"><ele>187.0</ele><time>2026-04-11T07:59:40.995Z</time></trkpt><trkpt lat="45.457194091057204" lon="8.223404092783587"><ele>187.0</ele><time>2026-04-11T07:59:41.995Z</time></trkpt><trkpt lat="45.4569666967281" lon="8.223581193838857"><ele>186.5</ele><time>2026-04-11T07:59:42.995Z</time></trkpt><trkpt lat="45.45675045598028" lon="8.223750843993672"><ele>186.0</ele><time>2026-04-11T07:59:43.995Z</time></trkpt><trkpt lat="45.45654969595946" lon="8.223909221168814"><ele>185.66666666666666</ele><time>2026-04-11T07:59:44.995Z</time></trkpt><trkpt lat="45.45636385512389" lon="8.224059953085524"><ele>185.33333333333331</ele><time>2026-04-11T07:59:45.995Z</time></trkpt><trkpt lat="45.45618656653229" lon="8.224202892819449"><ele>185.0</ele><time>2026-04-11T07:59:46.995Z</time></trkpt><trkpt lat="45.4560192642392" lon="8.224342253800796"><ele>184.66666666666666</ele><time>2026-04-11T07:59:47.995Z</time></trkpt><trkpt lat="45.455852133017125" lon="8.224479035640591"><ele>184.33333333333334</ele><time>2026-04-11T07:59:48.995Z</time></trkpt><trkpt lat="45.45568089142205" lon="8.224620504444749"><ele>184.0</ele><time>2026-04-11T07:59:49.995Z</time></trkpt><trkpt lat="45.455508791504386" lon="8.22476240300335"><ele>184.0</ele><time>2026-04-11T07:59:50.995Z</time></trkpt><trkpt lat="45.45533472589326" lon="8.22490667288322"><ele>184.0</ele><time>2026-04-11T07:59:51.995Z</time></trkpt><trkpt lat="45.45515523481797" lon="8.225052726697065"><ele>184.0</ele><time>2026-04-11T07:59:52.995Z</time></trkpt><trkpt lat="45.454973088700335" lon="8.2251991407558"><ele>184.0</ele><time>2026-04-11T07:59:53.995Z</time></trkpt><trkpt lat="45.45478938186637" lon="8.22535200053226"><ele>184.0</ele><time>2026-04-11T07:59:54.995Z</time></trkpt><trkpt lat="45.454604765647474" lon="8.225504921914899"><ele>184.0</ele><time>2026-04-11T07:59:55.995Z</time></trkpt><trkpt lat="45.45441981897036" lon="8.225655767933578"><ele>183.66666666666669</ele><time>2026-04-11T07:59:56.995Z</time></trkpt><trkpt lat="45.45423534410401" lon="8.225800454342352"><ele>183.33333333333334</ele><time>2026-04-11T07:59:57.995Z</time></trkpt><trkpt lat="45.45405284651876" lon="8.225946089314371"><ele>183.0</ele><time>2026-04-11T07:59:58.995Z</time></trkpt><trkpt lat="45.453870881240675" lon="8.226087854932029"><ele>183.0</ele><time>2026-04-11T07:59:59.995Z</time></trkpt><trkpt lat="45.45368861049521" lon="8.226232233574606"><ele>183.0</ele><time>2026-04-11T08:00:00.995Z</time></trkpt><trkpt lat="45.45350679699514" lon="8.22638156347004"><ele>183.0</ele><time>2026-04-11T08:00:01.995Z</time></trkpt><trkpt lat="45.453324908983646" lon="8.226526785127025"><ele>183.0</ele><time>2026-04-11T08:00:02.995Z</time></trkpt><trkpt lat="45.45313825954619" lon="8.226668974159331"><ele>183.0</ele><time>2026-04-11T08:00:03.995Z</time></trkpt><trkpt lat="45.45295252355048" lon="8.226814606007004"><ele>183.0</ele><time>2026-04-11T08:00:04.995Z</time></trkpt><trkpt lat="45.452768280087795" lon="8.22695853001697"><ele>183.0</ele><time>2026-04-11T08:00:05.995Z</time></trkpt><trkpt lat="45.45258404804915" lon="8.227107211278486"><ele>183.0</ele><time>2026-04-11T08:00:06.995Z</time></trkpt><trkpt lat="45.45240078498388" lon="8.22725933597475"><ele>183.0</ele><time>2026-04-11T08:00:07.995Z</time></trkpt><trkpt lat="45.45221603454004" lon="8.227408294262574"><ele>183.0</ele><time>2026-04-11T08:00:08.995Z</time></trkpt><trkpt lat="45.45203290833438" lon="8.227555543435502"><ele>183.0</ele><time>2026-04-11T08:00:09.995Z</time></trkpt><trkpt lat="45.45185147418391" lon="8.227701154935462"><ele>183.0</ele><time>2026-04-11T08:00:10.995Z</time></trkpt><trkpt lat="45.45167440077664" lon="8.22784598474611"><ele>183.0</ele><time>2026-04-11T08:00:11.995Z</time></trkpt><trkpt lat="45.451498880582015" lon="8.227989193720939"><ele>183.0</ele><time>2026-04-11T08:00:12.995Z</time></trkpt><trkpt lat="45.451320543708405" lon="8.228128003366313"><ele>183.0</ele><time>2026-04-11T08:00:13.995Z</time></trkpt><trkpt lat="45.45114235566935" lon="8.228266934418075"><ele>183.0</ele><time>2026-04-11T08:00:14.995Z</time></trkpt><trkpt lat="45.45096688445824" lon="8.228411204274819"><ele>183.0</ele><time>2026-04-11T08:00:15.995Z</time></trkpt><trkpt lat="45.45078925842845" lon="8.22855215917911"><ele>183.0</ele><time>2026-04-11T08:00:16.995Z</time></trkpt><trkpt lat="45.45061726677698" lon="8.22869968396206"><ele>183.0</ele><time>2026-04-11T08:00:17.995Z</time></trkpt><trkpt lat="45.45044477302088" lon="8.228838234171494"><ele>183.0</ele><time>2026-04-11T08:00:18.995Z</time></trkpt><trkpt lat="45.45027310583748" lon="8.228982471517556"><ele>183.0</ele><time>2026-04-11T08:00:19.994Z</time></trkpt><trkpt lat="45.45009793620975" lon="8.229121245181194"><ele>182.66666666666666</ele><time>2026-04-11T08:00:20.994Z</time></trkpt><trkpt lat="45.44992174483783" lon="8.229262699347748"><ele>182.33333333333331</ele><time>2026-04-11T08:00:21.994Z</time></trkpt><trkpt lat="45.44974872260833" lon="8.229405444419111"><ele>182.0</ele><time>2026-04-11T08:00:22.994Z</time></trkpt><trkpt lat="45.44957395956837" lon="8.229550384591464"><ele>182.0</ele><time>2026-04-11T08:00:23.994Z</time></trkpt><trkpt lat="45.449399093472344" lon="8.229696422745219"><ele>182.0</ele><time>2026-04-11T08:00:24.994Z</time></trkpt><trkpt lat="45.449223932621344" lon="8.229838308814898"><ele>182.0</ele><time>2026-04-11T08:00:25.994Z</time></trkpt><trkpt lat="45.44905072571989" lon="8.229978676882281"><ele>182.0</ele><time>2026-04-11T08:00:26.994Z</time></trkpt><trkpt lat="45.44887840206473" lon="8.2301182020639"><ele>182.0</ele><time>2026-04-11T08:00:27.994Z</time></trkpt><trkpt lat="45.44870655575262" lon="8.23025881042763"><ele>182.0</ele><time>2026-04-11T08:00:28.994Z</time></trkpt><trkpt lat="45.44853800697045" lon="8.230395718957288"><ele>181.66666666666666</ele><time>2026-04-11T08:00:29.994Z</time></trkpt><trkpt lat="45.44837274565025" lon="8.230527940536964"><ele>181.33333333333334</ele><time>2026-04-11T08:00:30.994Z</time></trkpt><trkpt lat="45.44820999032347" lon="8.230657300862932"><ele>181.0</ele><time>2026-04-11T08:00:31.994Z</time></trkpt><trkpt lat="45.44805307172828" lon="8.230785281659848"><ele>181.0</ele><time>2026-04-11T08:00:32.994Z</time></trkpt><trkpt lat="45.44790560830872" lon="8.230906576361805"><ele>181.0</ele><time>2026-04-11T08:00:33.994Z</time></trkpt><trkpt lat="45.447765286386115" lon="8.231021208047903"><ele>181.0</ele><time>2026-04-11T08:00:34.994Z</time></trkpt><trkpt lat="45.4476313070427" lon="8.231128984338604"><ele>181.0</ele><time>2026-04-11T08:00:35.994Z</time></trkpt><trkpt lat="45.447501592868335" lon="8.231233958311272"><ele>181.0</ele><time>2026-04-11T08:00:36.994Z</time></trkpt><trkpt lat="45.447379553621566" lon="8.231333209183845"><ele>181.0</ele><time>2026-04-11T08:00:37.994Z</time></trkpt><trkpt lat="45.44726646717246" lon="8.231424924477691"><ele>181.0</ele><time>2026-04-11T08:00:38.994Z</time></trkpt><trkpt lat="45.44716273256699" lon="8.231509166137522"><ele>181.0</ele><time>2026-04-11T08:00:39.994Z</time></trkpt><trkpt lat="45.4470637147046" lon="8.231589985562723"><ele>181.0</ele><time>2026-04-11T08:00:40.994Z</time></trkpt><trkpt lat="45.44696733559702" lon="8.231667888442809"><ele>181.0</ele><time>2026-04-11T08:00:41.994Z</time></trkpt><trkpt lat="45.44687128642368" lon="8.231744648808165"><ele>181.0</ele><time>2026-04-11T08:00:42.994Z</time></trkpt><trkpt lat="45.44678232025626" lon="8.231817436228328"><ele>181.0</ele><time>2026-04-11T08:00:43.994Z</time></trkpt><trkpt lat="45.44671037840747" lon="8.23187171150855"><ele>181.0</ele><time>2026-04-11T08:00:44.994Z</time></trkpt><trkpt lat="45.44661500034082" lon="8.231939955953196"><ele>181.0</ele><time>2026-04-11T08:00:46.994Z</time></trkpt><trkpt lat="45.446556183895716" lon="8.231978013520385"><ele>181.0</ele><time>2026-04-11T08:00:49.994Z</time></trkpt><trkpt lat="45.44649486599547" lon="8.232017588244608"><ele>181.0</ele><time>2026-04-11T08:00:51.994Z</time></trkpt><trkpt lat="45.44641894782722" lon="8.23202666803236"><ele>181.0</ele><time>2026-04-11T08:00:53.994Z</time></trkpt><trkpt lat="45.44634865026507" lon="8.232026081999349"><ele>181.0</ele><time>2026-04-11T08:00:55.994Z</time></trkpt><trkpt lat="45.44623184139484" lon="8.23205054601604"><ele>181.16666666666669</ele><time>2026-04-11T08:00:57.994Z</time></trkpt><trkpt lat="45.44615928139196" lon="8.232055531219833"><ele>181.33333333333334</ele><time>2026-04-11T08:00:58.994Z</time></trkpt><trkpt lat="45.446091224004185" lon="8.232028923798465"><ele>181.5</ele><time>2026-04-11T08:00:59.994Z</time></trkpt><trkpt lat="45.44602810119905" lon="8.231989930539601"><ele>181.66666666666666</ele><time>2026-04-11T08:01:00.994Z</time></trkpt><trkpt lat="45.445964251905245" lon="8.231926598552713"><ele>181.83333333333331</ele><time>2026-04-11T08:01:01.994Z</time></trkpt><trkpt lat="45.44589920853807" lon="8.231853603485904"><ele>182.0</ele><time>2026-04-11T08:01:02.994Z</time></trkpt><trkpt lat="45.44583036491991" lon="8.231788583538645"><ele>182.0</ele><time>2026-04-11T08:01:03.994Z</time></trkpt><trkpt lat="45.445767792914545" lon="8.231716869537127"><ele>182.0</ele><time>2026-04-11T08:01:04.994Z</time></trkpt><trkpt lat="45.44570870691244" lon="8.23164741255209"><ele>182.0</ele><time>2026-04-11T08:01:05.993Z</time></trkpt><trkpt lat="45.445651164120186" lon="8.231576212251436"><ele>182.0</ele><time>2026-04-11T08:01:06.993Z</time></trkpt><trkpt lat="45.44558513123564" lon="8.231500359116142"><ele>182.0</ele><time>2026-04-11T08:01:07.993Z</time></trkpt><trkpt lat="45.445513447233154" lon="8.231417530553944"><ele>182.0</ele><time>2026-04-11T08:01:08.993Z</time></trkpt><trkpt lat="45.445435744641586" lon="8.231324949837441"><ele>182.2</ele><time>2026-04-11T08:01:09.993Z</time></trkpt><trkpt lat="45.44535846384572" lon="8.23123088651968"><ele>182.39999999999998</ele><time>2026-04-11T08:01:10.993Z</time></trkpt><trkpt lat="45.44528624062336" lon="8.231142009111291"><ele>182.60000000000002</ele><time>2026-04-11T08:01:11.993Z</time></trkpt><trkpt lat="45.44521172330582" lon="8.231056013591443"><ele>182.8</ele><time>2026-04-11T08:01:12.993Z</time></trkpt><trkpt lat="45.44512534553498" lon="8.230955451669985"><ele>183.0</ele><time>2026-04-11T08:01:13.993Z</time></trkpt><trkpt lat="45.445032609981986" lon="8.230841185609794"><ele>183.0</ele><time>2026-04-11T08:01:14.993Z</time></trkpt><trkpt lat="45.4449331699301" lon="8.230719496702129"><ele>183.0</ele><time>2026-04-11T08:01:15.993Z</time></trkpt><trkpt lat="45.444832238478156" lon="8.230597641516749"><ele>183.0</ele><time>2026-04-11T08:01:16.993Z</time></trkpt><trkpt lat="45.44472996867117" lon="8.230473384341256"><ele>183.0</ele><time>2026-04-11T08:01:17.993Z</time></trkpt><trkpt lat="45.444630786642634" lon="8.230349434340036"><ele>183.0</ele><time>2026-04-11T08:01:18.993Z</time></trkpt><trkpt lat="45.444530689064855" lon="8.230228034421245"><ele>183.0</ele><time>2026-04-11T08:01:19.993Z</time></trkpt><trkpt lat="45.444431122762914" lon="8.230108762327601"><ele>183.0</ele><time>2026-04-11T08:01:20.993Z</time></trkpt><trkpt lat="45.444333298646875" lon="8.229991429438071"><ele>183.0</ele><time>2026-04-11T08:01:21.993Z</time></trkpt><trkpt lat="45.444236445182185" lon="8.229872315512834"><ele>182.75</ele><time>2026-04-11T08:01:22.993Z</time></trkpt><trkpt lat="45.44413726638933" lon="8.229758142426387"><ele>182.5</ele><time>2026-04-11T08:01:23.993Z</time></trkpt><trkpt lat="45.44404756295395" lon="8.229633625413818"><ele>182.25</ele><time>2026-04-11T08:01:24.993Z</time></trkpt><trkpt lat="45.44394845222542" lon="8.229514092334622"><ele>182.0</ele><time>2026-04-11T08:01:25.993Z</time></trkpt><trkpt lat="45.443849944008136" lon="8.229396024430606"><ele>182.0</ele><time>2026-04-11T08:01:26.993Z</time></trkpt><trkpt lat="45.44375988333388" lon="8.229267373620829"><ele>182.0</ele><time>2026-04-11T08:01:27.993Z</time></trkpt><trkpt lat="45.443657518606486" lon="8.22914547468978"><ele>182.0</ele><time>2026-04-11T08:01:28.993Z</time></trkpt><trkpt lat="45.44355465327933" lon="8.229021625573186"><ele>182.0</ele><time>2026-04-11T08:01:29.993Z</time></trkpt><trkpt lat="45.44344909998407" lon="8.228894188607388"><ele>182.0</ele><time>2026-04-11T08:01:30.993Z</time></trkpt><trkpt lat="45.44333769978765" lon="8.228760338918686"><ele>182.0</ele><time>2026-04-11T08:01:31.993Z</time></trkpt><trkpt lat="45.44322056302013" lon="8.22861767061982"><ele>182.0</ele><time>2026-04-11T08:01:32.993Z</time></trkpt><trkpt lat="45.443106931315256" lon="8.22848092012113"><ele>182.0</ele><time>2026-04-11T08:01:33.993Z</time></trkpt><trkpt lat="45.44298704793706" lon="8.228335129058992"><ele>182.0</ele><time>2026-04-11T08:01:34.993Z</time></trkpt><trkpt lat="45.44286269245887" lon="8.228181163050689"><ele>182.0</ele><time>2026-04-11T08:01:35.993Z</time></trkpt><trkpt lat="45.44273282959161" lon="8.228020643267119"><ele>182.0</ele><time>2026-04-11T08:01:36.993Z</time></trkpt><trkpt lat="45.44260278429647" lon="8.227861427966857"><ele>181.66666666666666</ele><time>2026-04-11T08:01:37.993Z</time></trkpt><trkpt lat="45.442468859065926" lon="8.227703105203256"><ele>181.33333333333334</ele><time>2026-04-11T08:01:38.993Z</time></trkpt><trkpt lat="45.442337743648594" lon="8.227545996379407"><ele>181.0</ele><time>2026-04-11T08:01:39.993Z</time></trkpt><trkpt lat="45.442201136081444" lon="8.227388923155578"><ele>181.33333333333334</ele><time>2026-04-11T08:01:40.993Z</time></trkpt><trkpt lat="45.44205703718318" lon="8.227232231443944"><ele>181.66666666666666</ele><time>2026-04-11T08:01:41.993Z</time></trkpt><trkpt lat="45.441905948662416" lon="8.227068226410342"><ele>182.0</ele><time>2026-04-11T08:01:42.993Z</time></trkpt><trkpt lat="45.44174784600939" lon="8.226904657177117"><ele>182.0</ele><time>2026-04-11T08:01:43.993Z</time></trkpt><trkpt lat="45.4415843031006" lon="8.226738386319749"><ele>182.0</ele><time>2026-04-11T08:01:44.993Z</time></trkpt><trkpt lat="45.441417396283384" lon="8.226572179813143"><ele>182.0</ele><time>2026-04-11T08:01:45.993Z</time></trkpt><trkpt lat="45.44125185554317" lon="8.226407531832452"><ele>182.0</ele><time>2026-04-11T08:01:46.993Z</time></trkpt><trkpt lat="45.441089231720355" lon="8.226244116067377"><ele>182.0</ele><time>2026-04-11T08:01:47.993Z</time></trkpt><trkpt lat="45.44092939455286" lon="8.22608344848738"><ele>182.0</ele><time>2026-04-11T08:01:48.993Z</time></trkpt><trkpt lat="45.44077054753141" lon="8.22592382090404"><ele>182.0</ele><time>2026-04-11T08:01:49.993Z</time></trkpt><trkpt lat="45.44061524413673" lon="8.225765539029664"><ele>182.0</ele><time>2026-04-11T08:01:50.992Z</time></trkpt><trkpt lat="45.440466537118056" lon="8.22561312691075"><ele>182.0</ele><time>2026-04-11T08:01:51.992Z</time></trkpt><trkpt lat="45.440323231358384" lon="8.225467277360949"><ele>182.0</ele><time>2026-04-11T08:01:52.992Z</time></trkpt><trkpt lat="45.4401868312499" lon="8.225328889187326"><ele>182.0</ele><time>2026-04-11T08:01:53.992Z</time></trkpt><trkpt lat="45.44005328769556" lon="8.225194093495034"><ele>182.0</ele><time>2026-04-11T08:01:54.992Z</time></trkpt><trkpt lat="45.43992243323593" lon="8.225058335278478"><ele>182.0</ele><time>2026-04-11T08:01:55.992Z</time></trkpt><trkpt lat="45.43979192332347" lon="8.224922246850717"><ele>182.0</ele><time>2026-04-11T08:01:56.992Z</time></trkpt><trkpt lat="45.43966159557262" lon="8.224786277896698"><ele>182.0</ele><time>2026-04-11T08:01:57.992Z</time></trkpt><trkpt lat="45.43952480094132" lon="8.224648391470126"><ele>182.66666666666666</ele><time>2026-04-11T08:01:58.992Z</time></trkpt><trkpt lat="45.439381781983826" lon="8.224506374030017"><ele>183.33333333333334</ele><time>2026-04-11T08:01:59.992Z</time></trkpt><trkpt lat="45.439232447343755" lon="8.224357091255849"><ele>184.0</ele><time>2026-04-11T08:02:00.992Z</time></trkpt><trkpt lat="45.43907772840058" lon="8.22420071841823"><ele>184.0</ele><time>2026-04-11T08:02:01.992Z</time></trkpt><trkpt lat="45.43891671178389" lon="8.224041638792334"><ele>184.0</ele><time>2026-04-11T08:02:02.992Z</time></trkpt><trkpt lat="45.4387468514724" lon="8.223883648917802"><ele>184.0</ele><time>2026-04-11T08:02:03.992Z</time></trkpt><trkpt lat="45.438571817002654" lon="8.223723002622902"><ele>184.0</ele><time>2026-04-11T08:02:04.992Z</time></trkpt><trkpt lat="45.43839299457244" lon="8.223557048596417"><ele>184.0</ele><time>2026-04-11T08:02:05.992Z</time></trkpt><trkpt lat="45.43821426333129" lon="8.223386716560086"><ele>184.0</ele><time>2026-04-11T08:02:06.992Z</time></trkpt><trkpt lat="45.43804545127715" lon="8.223221651176514"><ele>184.0</ele><time>2026-04-11T08:02:07.992Z</time></trkpt><trkpt lat="45.43788442041602" lon="8.22305977395597"><ele>184.0</ele><time>2026-04-11T08:02:08.992Z</time></trkpt><trkpt lat="45.43772540464292" lon="8.222897511882204"><ele>184.0</ele><time>2026-04-11T08:02:09.992Z</time></trkpt><trkpt lat="45.437566872138206" lon="8.222737474632174"><ele>184.0</ele><time>2026-04-11T08:02:10.992Z</time></trkpt><trkpt lat="45.43740927494725" lon="8.222579683031983"><ele>184.0</ele><time>2026-04-11T08:02:11.992Z</time></trkpt><trkpt lat="45.43725369462296" lon="8.22242765842536"><ele>184.0</ele><time>2026-04-11T08:02:12.992Z</time></trkpt><trkpt lat="45.437096364792644" lon="8.222287882288144"><ele>184.33333333333334</ele><time>2026-04-11T08:02:13.992Z</time></trkpt><trkpt lat="45.43694000035488" lon="8.222154667738854"><ele>184.66666666666666</ele><time>2026-04-11T08:02:14.992Z</time></trkpt><trkpt lat="45.436783520801136" lon="8.222029840992272"><ele>185.0</ele><time>2026-04-11T08:02:15.992Z</time></trkpt><trkpt lat="45.43662892402604" lon="8.221907346336089"><ele>185.0</ele><time>2026-04-11T08:02:16.992Z</time></trkpt><trkpt lat="45.43647850747248" lon="8.221790192418572"><ele>185.0</ele><time>2026-04-11T08:02:17.992Z</time></trkpt><trkpt lat="45.436327537797595" lon="8.221675274189055"><ele>185.0</ele><time>2026-04-11T08:02:18.992Z</time></trkpt><trkpt lat="45.43617360999284" lon="8.221559935553827"><ele>185.66666666666666</ele><time>2026-04-11T08:02:19.992Z</time></trkpt><trkpt lat="45.436019547213974" lon="8.221445130920163"><ele>186.33333333333334</ele><time>2026-04-11T08:02:20.992Z</time></trkpt><trkpt lat="45.43586159821621" lon="8.221331271418077"><ele>187.0</ele><time>2026-04-11T08:02:21.992Z</time></trkpt><trkpt lat="45.43570140890125" lon="8.22121512612017"><ele>187.0</ele><time>2026-04-11T08:02:22.992Z</time></trkpt><trkpt lat="45.4355403986617" lon="8.221101254981662"><ele>187.0</ele><time>2026-04-11T08:02:23.992Z</time></trkpt><trkpt lat="45.435379320009154" lon="8.220976423035498"><ele>187.0</ele><time>2026-04-11T08:02:24.992Z</time></trkpt><trkpt lat="45.43521650782929" lon="8.220847438220659"><ele>187.0</ele><time>2026-04-11T08:02:25.992Z</time></trkpt><trkpt lat="45.43505893271613" lon="8.220709051532154"><ele>187.0</ele><time>2026-04-11T08:02:26.992Z</time></trkpt><trkpt lat="45.43490527920656" lon="8.220563323894"><ele>187.0</ele><time>2026-04-11T08:02:27.992Z</time></trkpt><trkpt lat="45.43475544937062" lon="8.22040952428148"><ele>186.33333333333334</ele><time>2026-04-11T08:02:28.992Z</time></trkpt><trkpt lat="45.434604258315495" lon="8.22024909262928"><ele>185.66666666666666</ele><time>2026-04-11T08:02:29.992Z</time></trkpt><trkpt lat="45.43445388930256" lon="8.220085938577533"><ele>185.0</ele><time>2026-04-11T08:02:30.992Z</time></trkpt><trkpt lat="45.43430236017294" lon="8.219923668328066"><ele>185.0</ele><time>2026-04-11T08:02:31.992Z</time></trkpt><trkpt lat="45.43416106996432" lon="8.219741570077582"><ele>185.0</ele><time>2026-04-11T08:02:32.992Z</time></trkpt><trkpt lat="45.4340113252369" lon="8.219575475404511"><ele>185.0</ele><time>2026-04-11T08:02:33.992Z</time></trkpt><trkpt lat="45.433862539934985" lon="8.21941103027923"><ele>185.0</ele><time>2026-04-11T08:02:34.992Z</time></trkpt><trkpt lat="45.433709109760684" lon="8.219243371527115"><ele>185.0</ele><time>2026-04-11T08:02:35.991Z</time></trkpt><trkpt lat="45.4335545779841" lon="8.219074102408998"><ele>185.0</ele><time>2026-04-11T08:02:36.991Z</time></trkpt><trkpt lat="45.43340070994871" lon="8.218905560417166"><ele>185.0</ele><time>2026-04-11T08:02:37.991Z</time></trkpt><trkpt lat="45.43324688212003" lon="8.218737062349838"><ele>185.0</ele><time>2026-04-11T08:02:38.991Z</time></trkpt><trkpt lat="45.4330943593421" lon="8.218569994064936"><ele>185.0</ele><time>2026-04-11T08:02:39.991Z</time></trkpt><trkpt lat="45.43293914849353" lon="8.218399980995079"><ele>185.0</ele><time>2026-04-11T08:02:40.991Z</time></trkpt><trkpt lat="45.43278068772268" lon="8.218226248716464"><ele>185.0</ele><time>2026-04-11T08:02:41.991Z</time></trkpt><trkpt lat="45.432620398485696" lon="8.21805030900071"><ele>185.0</ele><time>2026-04-11T08:02:42.991Z</time></trkpt><trkpt lat="45.43245426231548" lon="8.217867951397476"><ele>185.33333333333331</ele><time>2026-04-11T08:02:43.991Z</time></trkpt><trkpt lat="45.43228146020407" lon="8.217678206812982"><ele>185.66666666666666</ele><time>2026-04-11T08:02:44.991Z</time></trkpt><trkpt lat="45.432103813288606" lon="8.217483035799809"><ele>186.0</ele><time>2026-04-11T08:02:45.991Z</time></trkpt><trkpt lat="45.43192021261177" lon="8.217281324268562"><ele>186.0</ele><time>2026-04-11T08:02:46.991Z</time></trkpt><trkpt lat="45.43173650195621" lon="8.217079490762378"><ele>186.0</ele><time>2026-04-11T08:02:47.991Z</time></trkpt><trkpt lat="45.431552332279516" lon="8.216877153032177"><ele>186.0</ele><time>2026-04-11T08:02:48.991Z</time></trkpt><trkpt lat="45.43136839274234" lon="8.216675589293581"><ele>186.0</ele><time>2026-04-11T08:02:49.991Z</time></trkpt><trkpt lat="45.43117643447129" lon="8.216495397332636"><ele>186.0</ele><time>2026-04-11T08:02:50.991Z</time></trkpt><trkpt lat="45.43099630292673" lon="8.21630576994468"><ele>186.0</ele><time>2026-04-11T08:02:51.991Z</time></trkpt><trkpt lat="45.43082008681947" lon="8.216125548218708"><ele>186.0</ele><time>2026-04-11T08:02:52.991Z</time></trkpt><trkpt lat="45.43065024843845" lon="8.215958134364797"><ele>186.0</ele><time>2026-04-11T08:02:53.991Z</time></trkpt><trkpt lat="45.43049300636041" lon="8.215807615795683"><ele>186.0</ele><time>2026-04-11T08:02:54.991Z</time></trkpt><trkpt lat="45.430349478766246" lon="8.215666992424271"><ele>186.0</ele><time>2026-04-11T08:02:55.991Z</time></trkpt><trkpt lat="45.43022026593104" lon="8.215534351404001"><ele>186.0</ele><time>2026-04-11T08:02:56.991Z</time></trkpt><trkpt lat="45.43010224667262" lon="8.215406289171955"><ele>186.0</ele><time>2026-04-11T08:02:57.991Z</time></trkpt><trkpt lat="45.4299949585461" lon="8.215290114777295"><ele>186.0</ele><time>2026-04-11T08:02:58.991Z</time></trkpt><trkpt lat="45.42990158904447" lon="8.215189520593293"><ele>186.0</ele><time>2026-04-11T08:02:59.991Z</time></trkpt><trkpt lat="45.429823504568375" lon="8.2151011226152"><ele>186.0</ele><time>2026-04-11T08:03:00.991Z</time></trkpt><trkpt lat="45.429765525080605" lon="8.21500412329199"><ele>186.0</ele><time>2026-04-11T08:03:01.991Z</time></trkpt><trkpt lat="45.429724402749706" lon="8.214884264236106"><ele>186.0</ele><time>2026-04-11T08:03:02.991Z</time></trkpt><trkpt lat="45.42970715399704" lon="8.214731249560266"><ele>186.0</ele><time>2026-04-11T08:03:03.991Z</time></trkpt><trkpt lat="45.429712262168316" lon="8.21458604080509"><ele>186.0</ele><time>2026-04-11T08:03:04.991Z</time></trkpt><trkpt lat="45.42968430921501" lon="8.214455841334846"><ele>186.20000000000002</ele><time>2026-04-11T08:03:05.991Z</time></trkpt><trkpt lat="45.42962581693967" lon="8.214342552080252"><ele>186.4</ele><time>2026-04-11T08:03:06.991Z</time></trkpt><trkpt lat="45.42955845869155" lon="8.214259488579751"><ele>186.6</ele><time>2026-04-11T08:03:07.991Z</time></trkpt><trkpt lat="45.42946300956833" lon="8.214193808236287"><ele>186.8</ele><time>2026-04-11T08:03:08.991Z</time></trkpt><trkpt lat="45.42934561908918" lon="8.214155052748936"><ele>187.0</ele><time>2026-04-11T08:03:09.991Z</time></trkpt><trkpt lat="45.429214911766564" lon="8.21420458831666"><ele>187.0</ele><time>2026-04-11T08:03:10.991Z</time></trkpt><trkpt lat="45.429099231582406" lon="8.214259884348431"><ele>187.0</ele><time>2026-04-11T08:03:11.991Z</time></trkpt><trkpt lat="45.42899984992948" lon="8.21432141147566"><ele>187.0</ele><time>2026-04-11T08:03:12.991Z</time></trkpt><trkpt lat="45.42889971102553" lon="8.214332245104865"><ele>187.0</ele><time>2026-04-11T08:03:13.991Z</time></trkpt><trkpt lat="45.42878901798656" lon="8.214277902108758"><ele>187.0</ele><time>2026-04-11T08:03:14.991Z</time></trkpt><trkpt lat="45.42866969983755" lon="8.214142637086724"><ele>186.66666666666669</ele><time>2026-04-11T08:03:15.991Z</time></trkpt><trkpt lat="45.42854063589347" lon="8.213954005828592"><ele>186.33333333333334</ele><time>2026-04-11T08:03:16.991Z</time></trkpt><trkpt lat="45.42839445383524" lon="8.213741737755177"><ele>186.0</ele><time>2026-04-11T08:03:17.991Z</time></trkpt><trkpt lat="45.42823766788337" lon="8.213566864689392"><ele>186.0</ele><time>2026-04-11T08:03:18.991Z</time></trkpt><trkpt lat="45.42806236583447" lon="8.21339554851219"><ele>186.0</ele><time>2026-04-11T08:03:19.991Z</time></trkpt><trkpt lat="45.42786838059509" lon="8.213238568728524"><ele>186.0</ele><time>2026-04-11T08:03:20.99Z</time></trkpt><trkpt lat="45.427647655580216" lon="8.21312257620048"><ele>186.0</ele><time>2026-04-11T08:03:21.99Z</time></trkpt><trkpt lat="45.42740512966417" lon="8.213038849423185"><ele>186.0</ele><time>2026-04-11T08:03:22.99Z</time></trkpt><trkpt lat="45.42717115255348" lon="8.212957614861741"><ele>185.0</ele><time>2026-04-11T08:03:23.99Z</time></trkpt><trkpt lat="45.4269526834959" lon="8.212878637900067"><ele>184.0</ele><time>2026-04-11T08:03:24.99Z</time></trkpt><trkpt lat="45.426732216836584" lon="8.212797163977417"><ele>184.0</ele><time>2026-04-11T08:03:25.99Z</time></trkpt><trkpt lat="45.42650275752419" lon="8.212713193224866"><ele>184.0</ele><time>2026-04-11T08:03:26.99Z</time></trkpt><trkpt lat="45.426265044631656" lon="8.212629464131618"><ele>185.0</ele><time>2026-04-11T08:03:27.99Z</time></trkpt><trkpt lat="45.42602282666496" lon="8.212542681048784"><ele>186.0</ele><time>2026-04-11T08:03:28.99Z</time></trkpt><trkpt lat="45.425795715020485" lon="8.212461305988722"><ele>186.0</ele><time>2026-04-11T08:03:29.99Z</time></trkpt><trkpt lat="45.42557500206321" lon="8.212382727224323"><ele>186.0</ele><time>2026-04-11T08:03:30.99Z</time></trkpt><trkpt lat="45.42535286043337" lon="8.212301874013566"><ele>185.5</ele><time>2026-04-11T08:03:31.99Z</time></trkpt><trkpt lat="45.425131791440236" lon="8.212219957741265"><ele>185.0</ele><time>2026-04-11T08:03:32.99Z</time></trkpt><trkpt lat="45.42491122627093" lon="8.212139154778232"><ele>185.0</ele><time>2026-04-11T08:03:33.99Z</time></trkpt><trkpt lat="45.42469065294708" lon="8.212058286234118"><ele>185.0</ele><time>2026-04-11T08:03:34.99Z</time></trkpt><trkpt lat="45.42446902426833" lon="8.211978711601812"><ele>184.5</ele><time>2026-04-11T08:03:35.99Z</time></trkpt><trkpt lat="45.42424492314337" lon="8.21189689542865"><ele>184.0</ele><time>2026-04-11T08:03:36.99Z</time></trkpt><trkpt lat="45.424017299487566" lon="8.211815862116898"><ele>183.5</ele><time>2026-04-11T08:03:37.99Z</time></trkpt><trkpt lat="45.42378609641763" lon="8.21173251270506"><ele>183.0</ele><time>2026-04-11T08:03:38.99Z</time></trkpt><trkpt lat="45.42355188204986" lon="8.211647970702629"><ele>183.0</ele><time>2026-04-11T08:03:39.99Z</time></trkpt><trkpt lat="45.423314107373244" lon="8.21156120685754"><ele>183.0</ele><time>2026-04-11T08:03:40.99Z</time></trkpt><trkpt lat="45.42307178941926" lon="8.211473504789467"><ele>182.5</ele><time>2026-04-11T08:03:41.99Z</time></trkpt><trkpt lat="45.42282898292465" lon="8.211383472405828"><ele>182.0</ele><time>2026-04-11T08:03:42.99Z</time></trkpt><trkpt lat="45.42259069799086" lon="8.211298128794452"><ele>182.0</ele><time>2026-04-11T08:03:43.99Z</time></trkpt><trkpt lat="45.42235532483681" lon="8.211212542735032"><ele>182.0</ele><time>2026-04-11T08:03:44.99Z</time></trkpt><trkpt lat="45.42212376610076" lon="8.211110779233804"><ele>180.5</ele><time>2026-04-11T08:03:45.99Z</time></trkpt><trkpt lat="45.42190295569007" lon="8.2109684362241"><ele>179.0</ele><time>2026-04-11T08:03:46.99Z</time></trkpt><trkpt lat="45.42169480730633" lon="8.2107780552988"><ele>179.0</ele><time>2026-04-11T08:03:47.99Z</time></trkpt><trkpt lat="45.42150090504208" lon="8.210544460675067"><ele>179.0</ele><time>2026-04-11T08:03:48.99Z</time></trkpt><trkpt lat="45.42130884244292" lon="8.210290770866546"><ele>179.0</ele><time>2026-04-11T08:03:49.99Z</time></trkpt><trkpt lat="45.42111076832691" lon="8.210036891852468"><ele>179.0</ele><time>2026-04-11T08:03:50.99Z</time></trkpt><trkpt lat="45.42090889677356" lon="8.209788996448733"><ele>179.5</ele><time>2026-04-11T08:03:51.99Z</time></trkpt><trkpt lat="45.42070629454851" lon="8.209542774412842"><ele>180.0</ele><time>2026-04-11T08:03:52.99Z</time></trkpt><trkpt lat="45.42050631690628" lon="8.209301885806147"><ele>180.5</ele><time>2026-04-11T08:03:53.99Z</time></trkpt><trkpt lat="45.420311667929596" lon="8.209061543191707"><ele>181.0</ele><time>2026-04-11T08:03:54.99Z</time></trkpt><trkpt lat="45.42011707064329" lon="8.208830552534996"><ele>181.0</ele><time>2026-04-11T08:03:55.99Z</time></trkpt><trkpt lat="45.41991926586662" lon="8.208616664153194"><ele>181.0</ele><time>2026-04-11T08:03:56.99Z</time></trkpt><trkpt lat="45.41972144210926" lon="8.208411096505413"><ele>181.0</ele><time>2026-04-11T08:03:57.99Z</time></trkpt><trkpt lat="45.41952549843877" lon="8.208215548321151"><ele>181.0</ele><time>2026-04-11T08:03:58.99Z</time></trkpt><trkpt lat="45.41933161841839" lon="8.208027450542591"><ele>182.0</ele><time>2026-04-11T08:03:59.99Z</time></trkpt><trkpt lat="45.419139741297364" lon="8.207840787712872"><ele>183.0</ele><time>2026-04-11T08:04:00.99Z</time></trkpt><trkpt lat="45.41895607354322" lon="8.207631089146219"><ele>181.5</ele><time>2026-04-11T08:04:01.99Z</time></trkpt><trkpt lat="45.418760521274116" lon="8.207433799540013"><ele>180.0</ele><time>2026-04-11T08:04:02.99Z</time></trkpt><trkpt lat="45.41856093051421" lon="8.20723243545627"><ele>180.0</ele><time>2026-04-11T08:04:03.99Z</time></trkpt><trkpt lat="45.41834801421107" lon="8.207046973582488"><ele>180.0</ele><time>2026-04-11T08:04:04.99Z</time></trkpt><trkpt lat="45.418145099502546" lon="8.206839380452315"><ele>181.5</ele><time>2026-04-11T08:04:05.99Z</time></trkpt><trkpt lat="45.41794123623122" lon="8.20663675290445"><ele>183.0</ele><time>2026-04-11T08:04:06.989Z</time></trkpt><trkpt lat="45.41774220288136" lon="8.206432374692609"><ele>183.5</ele><time>2026-04-11T08:04:07.989Z</time></trkpt><trkpt lat="45.41754463878897" lon="8.206228184786557"><ele>184.0</ele><time>2026-04-11T08:04:08.989Z</time></trkpt><trkpt lat="45.41735200972227" lon="8.206029570362402"><ele>184.0</ele><time>2026-04-11T08:04:09.989Z</time></trkpt><trkpt lat="45.41715916021276" lon="8.205832430648648"><ele>184.0</ele><time>2026-04-11T08:04:10.989Z</time></trkpt><trkpt lat="45.416969194033165" lon="8.205636916764941"><ele>182.0</ele><time>2026-04-11T08:04:11.989Z</time></trkpt><trkpt lat="45.41678044430834" lon="8.205447334480915"><ele>180.0</ele><time>2026-04-11T08:04:12.989Z</time></trkpt><trkpt lat="45.416592604472704" lon="8.205259144553722"><ele>180.0</ele><time>2026-04-11T08:04:13.989Z</time></trkpt><trkpt lat="45.41640816978297" lon="8.205072649311495"><ele>180.0</ele><time>2026-04-11T08:04:14.989Z</time></trkpt><trkpt lat="45.416224131226365" lon="8.204885101148774"><ele>180.0</ele><time>2026-04-11T08:04:15.989Z</time></trkpt><trkpt lat="45.416039887904255" lon="8.20470467669823"><ele>180.0</ele><time>2026-04-11T08:04:16.989Z</time></trkpt><trkpt lat="45.41586092703028" lon="8.204528077593737"><ele>180.0</ele><time>2026-04-11T08:04:17.989Z</time></trkpt><trkpt lat="45.41569311497316" lon="8.204360469740996"><ele>180.0</ele><time>2026-04-11T08:04:18.989Z</time></trkpt><trkpt lat="45.415534926585046" lon="8.204205762320434"><ele>180.0</ele><time>2026-04-11T08:04:19.989Z</time></trkpt><trkpt lat="45.415385071595196" lon="8.204061021921412"><ele>180.0</ele><time>2026-04-11T08:04:20.989Z</time></trkpt><trkpt lat="45.415251842862524" lon="8.203910834103059"><ele>180.33333333333334</ele><time>2026-04-11T08:04:21.989Z</time></trkpt><trkpt lat="45.41511098218896" lon="8.203772957776975"><ele>180.66666666666669</ele><time>2026-04-11T08:04:22.989Z</time></trkpt><trkpt lat="45.41496832128897" lon="8.203635692371888"><ele>181.0</ele><time>2026-04-11T08:04:23.989Z</time></trkpt><trkpt lat="45.41482700387325" lon="8.203501035477204"><ele>181.0</ele><time>2026-04-11T08:04:24.989Z</time></trkpt><trkpt lat="45.414688177300036" lon="8.203369359856849"><ele>181.0</ele><time>2026-04-11T08:04:25.989Z</time></trkpt><trkpt lat="45.41454658959387" lon="8.20323639893729"><ele>181.0</ele><time>2026-04-11T08:04:26.989Z</time></trkpt><trkpt lat="45.41440374847131" lon="8.203096275144931"><ele>181.66666666666669</ele><time>2026-04-11T08:04:27.989Z</time></trkpt><trkpt lat="45.41425978757849" lon="8.20296524235261"><ele>182.33333333333334</ele><time>2026-04-11T08:04:28.989Z</time></trkpt><trkpt lat="45.41411868938884" lon="8.202838329711726"><ele>183.0</ele><time>2026-04-11T08:04:29.989Z</time></trkpt><trkpt lat="45.41398410160469" lon="8.202718369866748"><ele>183.0</ele><time>2026-04-11T08:04:30.989Z</time></trkpt><trkpt lat="45.41385879414181" lon="8.202606139990381"><ele>183.0</ele><time>2026-04-11T08:04:31.989Z</time></trkpt><trkpt lat="45.413736576060046" lon="8.20249904879271"><ele>183.0</ele><time>2026-04-11T08:04:32.989Z</time></trkpt><trkpt lat="45.41361277278889" lon="8.202390519262904"><ele>183.0</ele><time>2026-04-11T08:04:33.989Z</time></trkpt><trkpt lat="45.41348477254762" lon="8.202279818450947"><ele>183.33333333333334</ele><time>2026-04-11T08:04:34.989Z</time></trkpt><trkpt lat="45.4133518167203" lon="8.202165933986576"><ele>183.66666666666669</ele><time>2026-04-11T08:04:35.989Z</time></trkpt><trkpt lat="45.4132151313759" lon="8.202053449748334"><ele>184.0</ele><time>2026-04-11T08:04:36.989Z</time></trkpt><trkpt lat="45.4130776001248" lon="8.201940588096464"><ele>183.33333333333334</ele><time>2026-04-11T08:04:37.989Z</time></trkpt><trkpt lat="45.412940289838126" lon="8.201821744069749"><ele>182.66666666666666</ele><time>2026-04-11T08:04:38.989Z</time></trkpt><trkpt lat="45.412798805482375" lon="8.20170020920056"><ele>182.0</ele><time>2026-04-11T08:04:39.989Z</time></trkpt><trkpt lat="45.41265490961496" lon="8.201579563113784"><ele>181.66666666666666</ele><time>2026-04-11T08:04:40.989Z</time></trkpt><trkpt lat="45.41251340884895" lon="8.201459243140098"><ele>181.33333333333334</ele><time>2026-04-11T08:04:41.989Z</time></trkpt><trkpt lat="45.41237256725195" lon="8.201335493667933"><ele>181.0</ele><time>2026-04-11T08:04:42.989Z</time></trkpt><trkpt lat="45.41223257256695" lon="8.20121199694064"><ele>181.66666666666669</ele><time>2026-04-11T08:04:43.989Z</time></trkpt><trkpt lat="45.41209367310872" lon="8.20109314833168"><ele>182.33333333333334</ele><time>2026-04-11T08:04:44.989Z</time></trkpt><trkpt lat="45.411956444685586" lon="8.200977059811505"><ele>183.0</ele><time>2026-04-11T08:04:45.989Z</time></trkpt><trkpt lat="45.411821562469754" lon="8.200861899836905"><ele>183.0</ele><time>2026-04-11T08:04:46.989Z</time></trkpt><trkpt lat="45.411692274667146" lon="8.200749528682397"><ele>183.0</ele><time>2026-04-11T08:04:47.989Z</time></trkpt><trkpt lat="45.411563039035094" lon="8.200637535530761"><ele>183.0</ele><time>2026-04-11T08:04:48.989Z</time></trkpt><trkpt lat="45.41143142073598" lon="8.200522043034079"><ele>182.66666666666666</ele><time>2026-04-11T08:04:49.989Z</time></trkpt><trkpt lat="45.41129684337665" lon="8.200403710120522"><ele>182.33333333333331</ele><time>2026-04-11T08:04:50.989Z</time></trkpt><trkpt lat="45.41115874551542" lon="8.200286842468115"><ele>182.0</ele><time>2026-04-11T08:04:51.988Z</time></trkpt><trkpt lat="45.41101591862834" lon="8.200167823455727"><ele>182.0</ele><time>2026-04-11T08:04:52.988Z</time></trkpt><trkpt lat="45.410869095842756" lon="8.20004737067685"><ele>182.0</ele><time>2026-04-11T08:04:53.988Z</time></trkpt><trkpt lat="45.41071754472875" lon="8.199921268998411"><ele>182.0</ele><time>2026-04-11T08:04:54.988Z</time></trkpt><trkpt lat="45.41056635951121" lon="8.199790185691015"><ele>182.0</ele><time>2026-04-11T08:04:55.988Z</time></trkpt><trkpt lat="45.41041332060869" lon="8.199662011113489"><ele>182.0</ele><time>2026-04-11T08:04:56.988Z</time></trkpt><trkpt lat="45.41026306696864" lon="8.199530070197083"><ele>182.0</ele><time>2026-04-11T08:04:57.988Z</time></trkpt><trkpt lat="45.41011548560831" lon="8.199401928251296"><ele>182.0</ele><time>2026-04-11T08:04:58.988Z</time></trkpt><trkpt lat="45.40997460919537" lon="8.199279628838939"><ele>182.0</ele><time>2026-04-11T08:04:59.988Z</time></trkpt><trkpt lat="45.40983855257697" lon="8.199163538628012"><ele>182.0</ele><time>2026-04-11T08:05:00.988Z</time></trkpt><trkpt lat="45.40970640485413" lon="8.19904820481857"><ele>182.33333333333331</ele><time>2026-04-11T08:05:01.988Z</time></trkpt><trkpt lat="45.40957156385298" lon="8.198933377491137"><ele>182.66666666666666</ele><time>2026-04-11T08:05:02.988Z</time></trkpt><trkpt lat="45.40943323690714" lon="8.198818313832525"><ele>183.0</ele><time>2026-04-11T08:05:03.988Z</time></trkpt><trkpt lat="45.40929131721645" lon="8.198706429725922"><ele>183.0</ele><time>2026-04-11T08:05:04.988Z</time></trkpt><trkpt lat="45.40915666259947" lon="8.198593685742793"><ele>183.0</ele><time>2026-04-11T08:05:05.988Z</time></trkpt><trkpt lat="45.409029635071306" lon="8.198482816790381"><ele>183.0</ele><time>2026-04-11T08:05:06.988Z</time></trkpt><trkpt lat="45.408908045307896" lon="8.198378399833901"><ele>183.0</ele><time>2026-04-11T08:05:07.988Z</time></trkpt><trkpt lat="45.408787253738595" lon="8.198291966012999"><ele>183.75</ele><time>2026-04-11T08:05:08.988Z</time></trkpt><trkpt lat="45.40866092226162" lon="8.198228402551631"><ele>184.5</ele><time>2026-04-11T08:05:09.988Z</time></trkpt><trkpt lat="45.408549972206146" lon="8.198228942971967"><ele>185.25</ele><time>2026-04-11T08:05:10.988Z</time></trkpt><trkpt lat="45.40844387947053" lon="8.198266717652498"><ele>186.0</ele><time>2026-04-11T08:05:11.988Z</time></trkpt><trkpt lat="45.40834539410991" lon="8.198327587029162"><ele>186.0</ele><time>2026-04-11T08:05:12.988Z</time></trkpt><trkpt lat="45.40825924045849" lon="8.198377025129519"><ele>186.0</ele><time>2026-04-11T08:05:13.988Z</time></trkpt><trkpt lat="45.4081833569728" lon="8.19840575740524"><ele>186.0</ele><time>2026-04-11T08:05:14.988Z</time></trkpt><trkpt lat="45.40811822047707" lon="8.198396897247108"><ele>186.0</ele><time>2026-04-11T08:05:15.988Z</time></trkpt><trkpt lat="45.40806131243474" lon="8.198352291381047"><ele>186.0</ele><time>2026-04-11T08:05:16.988Z</time></trkpt><trkpt lat="45.40800866794237" lon="8.19824238826301"><ele>186.0</ele><time>2026-04-11T08:05:17.988Z</time></trkpt><trkpt lat="45.407940559899764" lon="8.198106285300856"><ele>186.25</ele><time>2026-04-11T08:05:18.988Z</time></trkpt><trkpt lat="45.40786982610659" lon="8.19793604527224"><ele>186.5</ele><time>2026-04-11T08:05:19.988Z</time></trkpt><trkpt lat="45.40779401535005" lon="8.197754821563587"><ele>186.75</ele><time>2026-04-11T08:05:20.988Z</time></trkpt><trkpt lat="45.40773516038617" lon="8.197575193461004"><ele>187.0</ele><time>2026-04-11T08:05:21.988Z</time></trkpt><trkpt lat="45.407674426841794" lon="8.19741267625237"><ele>187.5</ele><time>2026-04-11T08:05:22.988Z</time></trkpt><trkpt lat="45.40760477404746" lon="8.197257502776544"><ele>188.0</ele><time>2026-04-11T08:05:23.988Z</time></trkpt><trkpt lat="45.40753699558658" lon="8.19712634316123"><ele>188.5</ele><time>2026-04-11T08:05:24.988Z</time></trkpt><trkpt lat="45.40745848023822" lon="8.197028925913406"><ele>189.0</ele><time>2026-04-11T08:05:25.988Z</time></trkpt><trkpt lat="45.407366920676424" lon="8.196948104733353"><ele>189.0</ele><time>2026-04-11T08:05:26.988Z</time></trkpt><trkpt lat="45.40723994635081" lon="8.196898352987924"><ele>189.0</ele><time>2026-04-11T08:05:27.988Z</time></trkpt><trkpt lat="45.40708268917984" lon="8.196851774905635"><ele>189.0</ele><time>2026-04-11T08:05:28.988Z</time></trkpt><trkpt lat="45.406921941941654" lon="8.196801576911998"><ele>191.33333333333331</ele><time>2026-04-11T08:05:29.988Z</time></trkpt><trkpt lat="45.406755316209846" lon="8.196752869061207"><ele>193.66666666666666</ele><time>2026-04-11T08:05:30.988Z</time></trkpt><trkpt lat="45.406585071167356" lon="8.196695749043712"><ele>196.0</ele><time>2026-04-11T08:05:31.988Z</time></trkpt><trkpt lat="45.40640980848298" lon="8.196635924844221"><ele>198.66666666666666</ele><time>2026-04-11T08:05:32.988Z</time></trkpt><trkpt lat="45.40623770380562" lon="8.196580039275917"><ele>201.33333333333331</ele><time>2026-04-11T08:05:33.988Z</time></trkpt><trkpt lat="45.40607771588308" lon="8.196522974536709"><ele>204.0</ele><time>2026-04-11T08:05:34.988Z</time></trkpt><trkpt lat="45.40593344724792" lon="8.196448607239933"><ele>205.33333333333331</ele><time>2026-04-11T08:05:35.988Z</time></trkpt><trkpt lat="45.40579767703878" lon="8.19633575701128"><ele>206.66666666666666</ele><time>2026-04-11T08:05:36.987Z</time></trkpt><trkpt lat="45.40568802182091" lon="8.196156380022465"><ele>208.0</ele><time>2026-04-11T08:05:37.987Z</time></trkpt><trkpt lat="45.40556650431066" lon="8.19596483436882"><ele>207.0</ele><time>2026-04-11T08:05:38.987Z</time></trkpt><trkpt lat="45.4054233277674" lon="8.19577433335363"><ele>206.0</ele><time>2026-04-11T08:05:39.987Z</time></trkpt><trkpt lat="45.405306478837694" lon="8.19552837482152"><ele>205.0</ele><time>2026-04-11T08:05:40.987Z</time></trkpt><trkpt lat="45.40515639558237" lon="8.195293736788729"><ele>205.0</ele><time>2026-04-11T08:05:41.987Z</time></trkpt><trkpt lat="45.40501432471822" lon="8.19506611695827"><ele>205.0</ele><time>2026-04-11T08:05:42.987Z</time></trkpt><trkpt lat="45.40487995093766" lon="8.194855830250004"><ele>205.0</ele><time>2026-04-11T08:05:43.987Z</time></trkpt><trkpt lat="45.40473480779582" lon="8.194649969962724"><ele>203.33333333333331</ele><time>2026-04-11T08:05:44.987Z</time></trkpt><trkpt lat="45.40458693403005" lon="8.194433096862824"><ele>201.66666666666669</ele><time>2026-04-11T08:05:45.987Z</time></trkpt><trkpt lat="45.404435378812806" lon="8.194201428242492"><ele>200.0</ele><time>2026-04-11T08:05:46.987Z</time></trkpt><trkpt lat="45.404285012546744" lon="8.193966919844325"><ele>199.66666666666669</ele><time>2026-04-11T08:05:47.987Z</time></trkpt><trkpt lat="45.40414389324916" lon="8.193745895552404"><ele>199.33333333333331</ele><time>2026-04-11T08:05:48.987Z</time></trkpt><trkpt lat="45.4040037368358" lon="8.193522505602235"><ele>199.0</ele><time>2026-04-11T08:05:49.987Z</time></trkpt><trkpt lat="45.4038571037338" lon="8.193294201595947"><ele>198.66666666666666</ele><time>2026-04-11T08:05:50.987Z</time></trkpt><trkpt lat="45.40370856997599" lon="8.19306278313737"><ele>198.33333333333331</ele><time>2026-04-11T08:05:51.987Z</time></trkpt><trkpt lat="45.40355721090733" lon="8.192821940009477"><ele>198.0</ele><time>2026-04-11T08:05:52.987Z</time></trkpt><trkpt lat="45.4034009918405" lon="8.192579503848764"><ele>198.5</ele><time>2026-04-11T08:05:53.987Z</time></trkpt><trkpt lat="45.40324228487941" lon="8.192331418364498"><ele>199.0</ele><time>2026-04-11T08:05:54.987Z</time></trkpt><trkpt lat="45.40307784646392" lon="8.192079251846051"><ele>200.0</ele><time>2026-04-11T08:05:55.987Z</time></trkpt><trkpt lat="45.40291419120031" lon="8.191829210293836"><ele>201.0</ele><time>2026-04-11T08:05:56.987Z</time></trkpt><trkpt lat="45.40274924017454" lon="8.191578289100146"><ele>202.0</ele><time>2026-04-11T08:05:57.987Z</time></trkpt><trkpt lat="45.402588410337316" lon="8.191329679397771"><ele>203.0</ele><time>2026-04-11T08:05:58.987Z</time></trkpt><trkpt lat="45.40243179849716" lon="8.191084383731004"><ele>203.0</ele><time>2026-04-11T08:05:59.987Z</time></trkpt><trkpt lat="45.40227613009645" lon="8.190844939023753"><ele>203.0</ele><time>2026-04-11T08:06:00.987Z</time></trkpt><trkpt lat="45.40212256503268" lon="8.190609388711184"><ele>203.5</ele><time>2026-04-11T08:06:01.987Z</time></trkpt><trkpt lat="45.40196929530131" lon="8.190373777068164"><ele>204.0</ele><time>2026-04-11T08:06:02.987Z</time></trkpt><trkpt lat="45.40181849579071" lon="8.1901373488424"><ele>204.0</ele><time>2026-04-11T08:06:03.987Z</time></trkpt><trkpt lat="45.401666735636866" lon="8.189899735162841"><ele>204.0</ele><time>2026-04-11T08:06:04.987Z</time></trkpt><trkpt lat="45.40151675657995" lon="8.189665342266341"><ele>204.0</ele><time>2026-04-11T08:06:05.987Z</time></trkpt><trkpt lat="45.401368129851384" lon="8.189425625331264"><ele>201.0</ele><time>2026-04-11T08:06:06.987Z</time></trkpt><trkpt lat="45.401217581232174" lon="8.189182474416027"><ele>198.0</ele><time>2026-04-11T08:06:07.987Z</time></trkpt><trkpt lat="45.401066599025896" lon="8.188941883757959"><ele>197.33333333333331</ele><time>2026-04-11T08:06:08.987Z</time></trkpt><trkpt lat="45.40093880015628" lon="8.188692488282419"><ele>196.66666666666666</ele><time>2026-04-11T08:06:09.987Z</time></trkpt><trkpt lat="45.40078601056495" lon="8.188461025009602"><ele>196.0</ele><time>2026-04-11T08:06:10.987Z</time></trkpt><trkpt lat="45.40065158306591" lon="8.188224484955057"><ele>193.33333333333331</ele><time>2026-04-11T08:06:11.987Z</time></trkpt><trkpt lat="45.400462710758006" lon="8.188055637785824"><ele>190.66666666666666</ele><time>2026-04-11T08:06:12.987Z</time></trkpt><trkpt lat="45.40027362408972" lon="8.187894257688537"><ele>188.0</ele><time>2026-04-11T08:06:13.987Z</time></trkpt><trkpt lat="45.40005942761292" lon="8.187772439860362"><ele>188.0</ele><time>2026-04-11T08:06:14.987Z</time></trkpt><trkpt lat="45.39983335017084" lon="8.1876718422621"><ele>188.0</ele><time>2026-04-11T08:06:15.987Z</time></trkpt><trkpt lat="45.39959582929636" lon="8.187592826821385"><ele>186.5</ele><time>2026-04-11T08:06:16.987Z</time></trkpt><trkpt lat="45.399357403957744" lon="8.187509651466774"><ele>185.0</ele><time>2026-04-11T08:06:17.987Z</time></trkpt><trkpt lat="45.39911585404389" lon="8.187418021600278"><ele>186.0</ele><time>2026-04-11T08:06:18.987Z</time></trkpt><trkpt lat="45.39887413432449" lon="8.187321794899418"><ele>187.0</ele><time>2026-04-11T08:06:19.987Z</time></trkpt><trkpt lat="45.39863155510591" lon="8.1872278857036"><ele>183.0</ele><time>2026-04-11T08:06:20.987Z</time></trkpt><trkpt lat="45.39838775650853" lon="8.1871369498466"><ele>179.0</ele><time>2026-04-11T08:06:21.986Z</time></trkpt><trkpt lat="45.39814024613361" lon="8.18704101328103"><ele>179.5</ele><time>2026-04-11T08:06:22.986Z</time></trkpt><trkpt lat="45.39789353046362" lon="8.186945376203953"><ele>180.0</ele><time>2026-04-11T08:06:23.986Z</time></trkpt><trkpt lat="45.39764612815458" lon="8.186848403646929"><ele>180.0</ele><time>2026-04-11T08:06:24.986Z</time></trkpt><trkpt lat="45.397396604011824" lon="8.18675270597891"><ele>180.0</ele><time>2026-04-11T08:06:25.986Z</time></trkpt><trkpt lat="45.397146690224375" lon="8.186653771811566"><ele>180.0</ele><time>2026-04-11T08:06:26.986Z</time></trkpt><trkpt lat="45.39690063727864" lon="8.186554738047603"><ele>180.0</ele><time>2026-04-11T08:06:27.986Z</time></trkpt><trkpt lat="45.39665511372564" lon="8.18645664496343"><ele>179.5</ele><time>2026-04-11T08:06:28.986Z</time></trkpt><trkpt lat="45.39641026364102" lon="8.186360030880204"><ele>179.0</ele><time>2026-04-11T08:06:29.986Z</time></trkpt><trkpt lat="45.396167034663236" lon="8.186265946703765"><ele>180.0</ele><time>2026-04-11T08:06:30.986Z</time></trkpt><trkpt lat="45.395922570838266" lon="8.186171679625653"><ele>181.0</ele><time>2026-04-11T08:06:31.986Z</time></trkpt><trkpt lat="45.39568077923115" lon="8.186078608743212"><ele>181.0</ele><time>2026-04-11T08:06:32.986Z</time></trkpt><trkpt lat="45.39544159092621" lon="8.185989563633195"><ele>181.0</ele><time>2026-04-11T08:06:33.986Z</time></trkpt><trkpt lat="45.39520513165739" lon="8.185896314395064"><ele>181.0</ele><time>2026-04-11T08:06:34.986Z</time></trkpt><trkpt lat="45.39497086681262" lon="8.185800546272446"><ele>181.0</ele><time>2026-04-11T08:06:35.986Z</time></trkpt><trkpt lat="45.39474005177463" lon="8.185707418840787"><ele>179.5</ele><time>2026-04-11T08:06:36.986Z</time></trkpt><trkpt lat="45.39450925430349" lon="8.185617173764198"><ele>178.0</ele><time>2026-04-11T08:06:37.986Z</time></trkpt><trkpt lat="45.39428108878425" lon="8.185529936007484"><ele>178.0</ele><time>2026-04-11T08:06:38.986Z</time></trkpt><trkpt lat="45.39405392094935" lon="8.185443256300895"><ele>178.0</ele><time>2026-04-11T08:06:39.986Z</time></trkpt><trkpt lat="45.393825686739255" lon="8.185355873311627"><ele>178.0</ele><time>2026-04-11T08:06:40.986Z</time></trkpt><trkpt lat="45.393596817918464" lon="8.185266022153863"><ele>178.0</ele><time>2026-04-11T08:06:41.986Z</time></trkpt><trkpt lat="45.3933686713872" lon="8.185176967484168"><ele>178.0</ele><time>2026-04-11T08:06:42.986Z</time></trkpt><trkpt lat="45.393139626828216" lon="8.185087570128733"><ele>178.0</ele><time>2026-04-11T08:06:43.986Z</time></trkpt><trkpt lat="45.39290968367184" lon="8.184998881631861"><ele>178.5</ele><time>2026-04-11T08:06:44.986Z</time></trkpt><trkpt lat="45.39268053044628" lon="8.184907673064608"><ele>179.0</ele><time>2026-04-11T08:06:45.986Z</time></trkpt><trkpt lat="45.39245038711752" lon="8.18481796290128"><ele>179.0</ele><time>2026-04-11T08:06:46.986Z</time></trkpt><trkpt lat="45.392219406508126" lon="8.184727481041586"><ele>179.0</ele><time>2026-04-11T08:06:47.986Z</time></trkpt><trkpt lat="45.39198891299831" lon="8.184635478743829"><ele>179.5</ele><time>2026-04-11T08:06:48.986Z</time></trkpt><trkpt lat="45.39175757222595" lon="8.18454321773197"><ele>180.0</ele><time>2026-04-11T08:06:49.986Z</time></trkpt><trkpt lat="45.39152582771114" lon="8.184451552940782"><ele>180.0</ele><time>2026-04-11T08:06:50.986Z</time></trkpt><trkpt lat="45.39129403270499" lon="8.184359117425215"><ele>180.0</ele><time>2026-04-11T08:06:51.986Z</time></trkpt><trkpt lat="45.39106200574017" lon="8.184267066560516"><ele>180.0</ele><time>2026-04-11T08:06:52.986Z</time></trkpt><trkpt lat="45.39082938968679" lon="8.184176216953452"><ele>180.0</ele><time>2026-04-11T08:06:53.986Z</time></trkpt><trkpt lat="45.390596712629325" lon="8.18408399534097"><ele>180.0</ele><time>2026-04-11T08:06:54.986Z</time></trkpt><trkpt lat="45.39036426702814" lon="8.183992179354854"><ele>180.0</ele><time>2026-04-11T08:06:55.986Z</time></trkpt><trkpt lat="45.390129776046095" lon="8.183900316883044"><ele>180.0</ele><time>2026-04-11T08:06:56.986Z</time></trkpt><trkpt lat="45.38989453995007" lon="8.183807157429259"><ele>180.0</ele><time>2026-04-11T08:06:57.986Z</time></trkpt><trkpt lat="45.38965837652542" lon="8.18371139474103"><ele>179.5</ele><time>2026-04-11T08:06:58.986Z</time></trkpt><trkpt lat="45.38942085237386" lon="8.183617296195541"><ele>179.0</ele><time>2026-04-11T08:06:59.986Z</time></trkpt><trkpt lat="45.38918273017555" lon="8.18352197296986"><ele>179.0</ele><time>2026-04-11T08:07:00.986Z</time></trkpt><trkpt lat="45.38894317488005" lon="8.183427078962634"><ele>179.0</ele><time>2026-04-11T08:07:01.986Z</time></trkpt><trkpt lat="45.38870194965209" lon="8.183331991055647"><ele>179.5</ele><time>2026-04-11T08:07:02.986Z</time></trkpt><trkpt lat="45.388460384143976" lon="8.183237209773676"><ele>180.0</ele><time>2026-04-11T08:07:03.986Z</time></trkpt><trkpt lat="45.388218395169446" lon="8.183139625307698"><ele>179.5</ele><time>2026-04-11T08:07:04.986Z</time></trkpt><trkpt lat="45.38797392860224" lon="8.183043376793387"><ele>179.0</ele><time>2026-04-11T08:07:05.986Z</time></trkpt><trkpt lat="45.387729625979404" lon="8.18294748850653"><ele>179.0</ele><time>2026-04-11T08:07:06.985Z</time></trkpt><trkpt lat="45.3874851016719" lon="8.182850714761386"><ele>179.0</ele><time>2026-04-11T08:07:07.985Z</time></trkpt><trkpt lat="45.38724144480818" lon="8.182757603295562"><ele>178.5</ele><time>2026-04-11T08:07:08.985Z</time></trkpt><trkpt lat="45.38700073143607" lon="8.182667773328724"><ele>178.0</ele><time>2026-04-11T08:07:09.985Z</time></trkpt><trkpt lat="45.386765210318394" lon="8.182585343039921"><ele>178.0</ele><time>2026-04-11T08:07:10.985Z</time></trkpt><trkpt lat="45.38653319809173" lon="8.1825070472535"><ele>178.0</ele><time>2026-04-11T08:07:11.985Z</time></trkpt><trkpt lat="45.38630255862044" lon="8.182427803735878"><ele>180.0</ele><time>2026-04-11T08:07:12.985Z</time></trkpt><trkpt lat="45.386071627110624" lon="8.182346939804646"><ele>182.0</ele><time>2026-04-11T08:07:13.985Z</time></trkpt><trkpt lat="45.385841415410574" lon="8.1822703148647"><ele>182.0</ele><time>2026-04-11T08:07:14.985Z</time></trkpt><trkpt lat="45.38561176013449" lon="8.182183355929185"><ele>182.0</ele><time>2026-04-11T08:07:15.985Z</time></trkpt><trkpt lat="45.385385446335256" lon="8.182074627914274"><ele>182.0</ele><time>2026-04-11T08:07:16.985Z</time></trkpt><trkpt lat="45.38515713752045" lon="8.18196191023562"><ele>182.0</ele><time>2026-04-11T08:07:17.985Z</time></trkpt><trkpt lat="45.38492551920121" lon="8.181851907075774"><ele>182.0</ele><time>2026-04-11T08:07:18.985Z</time></trkpt><trkpt lat="45.38469000953138" lon="8.181744139045932"><ele>182.0</ele><time>2026-04-11T08:07:19.985Z</time></trkpt><trkpt lat="45.38445354794024" lon="8.18163329136232"><ele>181.5</ele><time>2026-04-11T08:07:20.985Z</time></trkpt><trkpt lat="45.38421820318317" lon="8.181517889266381"><ele>181.0</ele><time>2026-04-11T08:07:21.985Z</time></trkpt><trkpt lat="45.38398521913767" lon="8.181403073352671"><ele>181.0</ele><time>2026-04-11T08:07:22.985Z</time></trkpt><trkpt lat="45.38375764726402" lon="8.181290895571776"><ele>181.0</ele><time>2026-04-11T08:07:23.985Z</time></trkpt><trkpt lat="45.38353906669643" lon="8.18118163930969"><ele>181.0</ele><time>2026-04-11T08:07:24.985Z</time></trkpt><trkpt lat="45.383324699524024" lon="8.181075824150026"><ele>181.0</ele><time>2026-04-11T08:07:25.985Z</time></trkpt><trkpt lat="45.383110125265986" lon="8.180969360247808"><ele>181.5</ele><time>2026-04-11T08:07:26.985Z</time></trkpt><trkpt lat="45.382896348066794" lon="8.180863600215963"><ele>182.0</ele><time>2026-04-11T08:07:27.985Z</time></trkpt><trkpt lat="45.38268017571119" lon="8.180757379571048"><ele>181.5</ele><time>2026-04-11T08:07:28.985Z</time></trkpt><trkpt lat="45.38246099958848" lon="8.180647194295311"><ele>181.0</ele><time>2026-04-11T08:07:29.985Z</time></trkpt><trkpt lat="45.38223760000273" lon="8.18053530243281"><ele>181.0</ele><time>2026-04-11T08:07:30.985Z</time></trkpt><trkpt lat="45.38201791555431" lon="8.180427594186552"><ele>181.0</ele><time>2026-04-11T08:07:31.985Z</time></trkpt><trkpt lat="45.38180931223079" lon="8.180326547361085"><ele>181.0</ele><time>2026-04-11T08:07:32.985Z</time></trkpt><trkpt lat="45.3816086549585" lon="8.18022794236009"><ele>181.0</ele><time>2026-04-11T08:07:33.985Z</time></trkpt><trkpt lat="45.38141198645471" lon="8.180130407435033"><ele>181.0</ele><time>2026-04-11T08:07:34.985Z</time></trkpt><trkpt lat="45.38121334909016" lon="8.180031522285539"><ele>181.0</ele><time>2026-04-11T08:07:35.985Z</time></trkpt><trkpt lat="45.38101473973244" lon="8.17993135356152"><ele>181.0</ele><time>2026-04-11T08:07:36.985Z</time></trkpt><trkpt lat="45.38081460838774" lon="8.17983048479249"><ele>181.0</ele><time>2026-04-11T08:07:37.985Z</time></trkpt><trkpt lat="45.38061413375591" lon="8.179729584080757"><ele>181.33333333333334</ele><time>2026-04-11T08:07:38.985Z</time></trkpt><trkpt lat="45.38041356713974" lon="8.179627489625762"><ele>181.66666666666666</ele><time>2026-04-11T08:07:39.985Z</time></trkpt><trkpt lat="45.38021354325185" lon="8.179527619053895"><ele>182.0</ele><time>2026-04-11T08:07:40.985Z</time></trkpt><trkpt lat="45.380015429992966" lon="8.179430699500635"><ele>182.0</ele><time>2026-04-11T08:07:41.985Z</time></trkpt><trkpt lat="45.379816917199825" lon="8.179332969077862"><ele>182.0</ele><time>2026-04-11T08:07:42.985Z</time></trkpt><trkpt lat="45.379620792042594" lon="8.17923588902149"><ele>182.0</ele><time>2026-04-11T08:07:43.985Z</time></trkpt><trkpt lat="45.37943429843178" lon="8.179145434562647"><ele>182.0</ele><time>2026-04-11T08:07:44.985Z</time></trkpt><trkpt lat="45.37925916220873" lon="8.179057626703079"><ele>182.0</ele><time>2026-04-11T08:07:45.985Z</time></trkpt><trkpt lat="45.37909309783637" lon="8.178975928452052"><ele>182.0</ele><time>2026-04-11T08:07:46.985Z</time></trkpt><trkpt lat="45.37893453856361" lon="8.178897268302249"><ele>181.66666666666666</ele><time>2026-04-11T08:07:47.985Z</time></trkpt><trkpt lat="45.378770982039455" lon="8.17881707579123"><ele>181.33333333333334</ele><time>2026-04-11T08:07:48.985Z</time></trkpt><trkpt lat="45.378605126617956" lon="8.178731655853982"><ele>181.0</ele><time>2026-04-11T08:07:49.985Z</time></trkpt><trkpt lat="45.37843329539662" lon="8.178646522070249"><ele>181.0</ele><time>2026-04-11T08:07:50.985Z</time></trkpt><trkpt lat="45.37825665231784" lon="8.178558844314374"><ele>181.0</ele><time>2026-04-11T08:07:51.985Z</time></trkpt><trkpt lat="45.37807394078183" lon="8.17846630641721"><ele>181.0</ele><time>2026-04-11T08:07:52.984Z</time></trkpt><trkpt lat="45.3778860105587" lon="8.178369288052316"><ele>180.66666666666669</ele><time>2026-04-11T08:07:53.984Z</time></trkpt><trkpt lat="45.37769115365904" lon="8.17827498946172"><ele>180.33333333333334</ele><time>2026-04-11T08:07:54.984Z</time></trkpt><trkpt lat="45.37748979633942" lon="8.178180091830596"><ele>180.0</ele><time>2026-04-11T08:07:55.984Z</time></trkpt><trkpt lat="45.37728589264618" lon="8.178080836765826"><ele>180.33333333333334</ele><time>2026-04-11T08:07:56.984Z</time></trkpt><trkpt lat="45.37708810674267" lon="8.177963405734072"><ele>180.66666666666669</ele><time>2026-04-11T08:07:57.984Z</time></trkpt><trkpt lat="45.3768871610308" lon="8.177864404816166"><ele>181.0</ele><time>2026-04-11T08:07:58.984Z</time></trkpt><trkpt lat="45.376686653486935" lon="8.17776539096044"><ele>181.0</ele><time>2026-04-11T08:07:59.984Z</time></trkpt><trkpt lat="45.37648260999164" lon="8.1776644785327"><ele>181.0</ele><time>2026-04-11T08:08:00.984Z</time></trkpt><trkpt lat="45.3762748332249" lon="8.177559986865424"><ele>181.0</ele><time>2026-04-11T08:08:01.984Z</time></trkpt><trkpt lat="45.37606331105562" lon="8.177452483482632"><ele>181.33333333333334</ele><time>2026-04-11T08:08:02.984Z</time></trkpt><trkpt lat="45.375850809051684" lon="8.177345860050584"><ele>181.66666666666666</ele><time>2026-04-11T08:08:03.984Z</time></trkpt><trkpt lat="45.3756441961526" lon="8.177244727874255"><ele>182.0</ele><time>2026-04-11T08:08:04.984Z</time></trkpt><trkpt lat="45.37544384763629" lon="8.177146176043085"><ele>182.0</ele><time>2026-04-11T08:08:05.984Z</time></trkpt><trkpt lat="45.375251999856935" lon="8.177051669327621"><ele>182.0</ele><time>2026-04-11T08:08:06.984Z</time></trkpt><trkpt lat="45.37506339678552" lon="8.176959788990892"><ele>182.0</ele><time>2026-04-11T08:08:07.984Z</time></trkpt><trkpt lat="45.37487432919032" lon="8.176867040025062"><ele>182.33333333333331</ele><time>2026-04-11T08:08:08.984Z</time></trkpt><trkpt lat="45.374683403706655" lon="8.176773754740829"><ele>182.66666666666666</ele><time>2026-04-11T08:08:09.984Z</time></trkpt><trkpt lat="45.37449828730667" lon="8.176683090543436"><ele>183.0</ele><time>2026-04-11T08:08:10.984Z</time></trkpt><trkpt lat="45.37432045069905" lon="8.176595757998774"><ele>183.0</ele><time>2026-04-11T08:08:11.984Z</time></trkpt><trkpt lat="45.37414761722605" lon="8.176511642699584"><ele>183.0</ele><time>2026-04-11T08:08:12.984Z</time></trkpt><trkpt lat="45.37397868252214" lon="8.176427949923264"><ele>183.0</ele><time>2026-04-11T08:08:13.984Z</time></trkpt><trkpt lat="45.37381053395772" lon="8.176343734071178"><ele>183.0</ele><time>2026-04-11T08:08:14.984Z</time></trkpt><trkpt lat="45.373650217997756" lon="8.176263653505139"><ele>183.0</ele><time>2026-04-11T08:08:15.984Z</time></trkpt><trkpt lat="45.37349731980829" lon="8.176185798176947"><ele>183.0</ele><time>2026-04-11T08:08:16.984Z</time></trkpt><trkpt lat="45.37334939048348" lon="8.176115459949703"><ele>183.0</ele><time>2026-04-11T08:08:17.984Z</time></trkpt><trkpt lat="45.373205020622194" lon="8.176049134091773"><ele>183.0</ele><time>2026-04-11T08:08:18.984Z</time></trkpt><trkpt lat="45.37306609996553" lon="8.175981552958362"><ele>183.0</ele><time>2026-04-11T08:08:19.984Z</time></trkpt><trkpt lat="45.372937812177156" lon="8.175916172966827"><ele>183.0</ele><time>2026-04-11T08:08:20.984Z</time></trkpt><trkpt lat="45.372816909590746" lon="8.175855806226703"><ele>183.2</ele><time>2026-04-11T08:08:21.984Z</time></trkpt><trkpt lat="45.37270722957855" lon="8.175799875789334"><ele>183.4</ele><time>2026-04-11T08:08:22.984Z</time></trkpt><trkpt lat="45.37260322990813" lon="8.175747651517879"><ele>183.6</ele><time>2026-04-11T08:08:23.984Z</time></trkpt><trkpt lat="45.372506908605615" lon="8.175703625001622"><ele>183.79999999999998</ele><time>2026-04-11T08:08:24.984Z</time></trkpt><trkpt lat="45.37241863614017" lon="8.175661394772684"><ele>184.0</ele><time>2026-04-11T08:08:25.984Z</time></trkpt><trkpt lat="45.372338442403844" lon="8.175620827034377"><ele>184.16666666666669</ele><time>2026-04-11T08:08:26.984Z</time></trkpt><trkpt lat="45.372264476094436" lon="8.175581591849546"><ele>184.33333333333334</ele><time>2026-04-11T08:08:27.984Z</time></trkpt><trkpt lat="45.372193799502284" lon="8.175543094266223"><ele>184.5</ele><time>2026-04-11T08:08:28.984Z</time></trkpt><trkpt lat="45.372113977334" lon="8.175503057942906"><ele>184.66666666666666</ele><time>2026-04-11T08:08:29.984Z</time></trkpt><trkpt lat="45.372025675617344" lon="8.175455029044377"><ele>184.83333333333331</ele><time>2026-04-11T08:08:30.984Z</time></trkpt><trkpt lat="45.37192942512296" lon="8.175402772492957"><ele>185.0</ele><time>2026-04-11T08:08:31.984Z</time></trkpt><trkpt lat="45.37182939003095" lon="8.175348899759783"><ele>185.2</ele><time>2026-04-11T08:08:32.984Z</time></trkpt><trkpt lat="45.371732492219465" lon="8.17530146937215"><ele>185.4</ele><time>2026-04-11T08:08:33.984Z</time></trkpt><trkpt lat="45.371640745713215" lon="8.175252867681639"><ele>185.60000000000002</ele><time>2026-04-11T08:08:34.984Z</time></trkpt><trkpt lat="45.37155419710789" lon="8.175206393555762"><ele>185.8</ele><time>2026-04-11T08:08:35.984Z</time></trkpt><trkpt lat="45.37147476325863" lon="8.175144947043872"><ele>186.0</ele><time>2026-04-11T08:08:36.984Z</time></trkpt><trkpt lat="45.37140720689298" lon="8.175064812069614"><ele>186.0</ele><time>2026-04-11T08:08:37.983Z</time></trkpt><trkpt lat="45.37136368146103" lon="8.17496601333325"><ele>186.0</ele><time>2026-04-11T08:08:38.983Z</time></trkpt><trkpt lat="45.37136492060666" lon="8.174869666364042"><ele>186.0</ele><time>2026-04-11T08:08:39.983Z</time></trkpt><trkpt lat="45.371383669494335" lon="8.17474408291801"><ele>186.0</ele><time>2026-04-11T08:08:40.983Z</time></trkpt><trkpt lat="45.37142258789454" lon="8.174590662821897"><ele>186.0</ele><time>2026-04-11T08:08:41.983Z</time></trkpt><trkpt lat="45.37146793242944" lon="8.17441646736862"><ele>186.33333333333334</ele><time>2026-04-11T08:08:42.983Z</time></trkpt><trkpt lat="45.37153360821516" lon="8.174231016256751"><ele>186.66666666666669</ele><time>2026-04-11T08:08:43.983Z</time></trkpt><trkpt lat="45.3715874189936" lon="8.174023167069535"><ele>187.0</ele><time>2026-04-11T08:08:44.983Z</time></trkpt><trkpt lat="45.37164339522629" lon="8.173805473158241"><ele>186.33333333333334</ele><time>2026-04-11T08:08:45.983Z</time></trkpt><trkpt lat="45.37169642173216" lon="8.173586799870725"><ele>185.66666666666666</ele><time>2026-04-11T08:08:46.983Z</time></trkpt><trkpt lat="45.37174320888929" lon="8.173379858022969"><ele>185.0</ele><time>2026-04-11T08:08:47.983Z</time></trkpt><trkpt lat="45.37178638087339" lon="8.173188905867264"><ele>185.0</ele><time>2026-04-11T08:08:48.983Z</time></trkpt><trkpt lat="45.37182510397588" lon="8.173016076013818"><ele>185.0</ele><time>2026-04-11T08:08:49.983Z</time></trkpt><trkpt lat="45.371858467366" lon="8.17286539971683"><ele>185.0</ele><time>2026-04-11T08:08:50.983Z</time></trkpt><trkpt lat="45.37188370104876" lon="8.172720869866028"><ele>185.0</ele><time>2026-04-11T08:08:51.983Z</time></trkpt><trkpt lat="45.37193991306563" lon="8.172610977242828"><ele>185.0</ele><time>2026-04-11T08:08:52.983Z</time></trkpt><trkpt lat="45.372002590515166" lon="8.172523692603898"><ele>185.0</ele><time>2026-04-11T08:08:53.983Z</time></trkpt><trkpt lat="45.37207072031215" lon="8.172458570481103"><ele>185.0</ele><time>2026-04-11T08:08:54.983Z</time></trkpt><trkpt lat="45.372082451019246" lon="8.1723356433545"><ele>185.0</ele><time>2026-04-11T08:08:55.983Z</time></trkpt><trkpt lat="45.37208298181076" lon="8.172225297393878"><ele>185.0</ele><time>2026-04-11T08:08:56.983Z</time></trkpt><trkpt lat="45.372066849655376" lon="8.172103283314522"><ele>185.0</ele><time>2026-04-11T08:08:57.983Z</time></trkpt><trkpt lat="45.372066210485926" lon="8.171952498645954"><ele>185.0</ele><time>2026-04-11T08:08:58.983Z</time></trkpt><trkpt lat="45.37208775841753" lon="8.171786258756686"><ele>185.25</ele><time>2026-04-11T08:08:59.983Z</time></trkpt><trkpt lat="45.3721216383569" lon="8.1716054634793"><ele>185.5</ele><time>2026-04-11T08:09:00.983Z</time></trkpt><trkpt lat="45.372164472231354" lon="8.171408565123553"><ele>185.75</ele><time>2026-04-11T08:09:01.983Z</time></trkpt><trkpt lat="45.372210822848956" lon="8.171197869402782"><ele>186.0</ele><time>2026-04-11T08:09:02.983Z</time></trkpt><trkpt lat="45.37225995610402" lon="8.170974811220793"><ele>186.66666666666666</ele><time>2026-04-11T08:09:03.983Z</time></trkpt><trkpt lat="45.37230313645986" lon="8.17073361668874"><ele>187.33333333333331</ele><time>2026-04-11T08:09:04.983Z</time></trkpt><trkpt lat="45.37235270896933" lon="8.17047893877155"><ele>188.0</ele><time>2026-04-11T08:09:05.983Z</time></trkpt><trkpt lat="45.37240965448016" lon="8.170211771131042"><ele>188.0</ele><time>2026-04-11T08:09:06.983Z</time></trkpt><trkpt lat="45.37247155645898" lon="8.169934623434926"><ele>188.0</ele><time>2026-04-11T08:09:07.983Z</time></trkpt><trkpt lat="45.37255133951644" lon="8.169654660830576"><ele>188.0</ele><time>2026-04-11T08:09:08.983Z</time></trkpt><trkpt lat="45.37261090520126" lon="8.169379407640797"><ele>187.33333333333331</ele><time>2026-04-11T08:09:09.983Z</time></trkpt><trkpt lat="45.3726681155242" lon="8.169115038686547"><ele>186.66666666666666</ele><time>2026-04-11T08:09:10.983Z</time></trkpt><trkpt lat="45.37272793922975" lon="8.168838593599926"><ele>186.0</ele><time>2026-04-11T08:09:11.983Z</time></trkpt><trkpt lat="45.37279049715792" lon="8.168549513309378"><ele>186.0</ele><time>2026-04-11T08:09:12.983Z</time></trkpt><trkpt lat="45.372854437514725" lon="8.168254044975816"><ele>186.0</ele><time>2026-04-11T08:09:13.983Z</time></trkpt><trkpt lat="45.372919643458246" lon="8.167952226577837"><ele>186.0</ele><time>2026-04-11T08:09:14.983Z</time></trkpt><trkpt lat="45.37298570083096" lon="8.167645523624524"><ele>186.5</ele><time>2026-04-11T08:09:15.983Z</time></trkpt><trkpt lat="45.373053707645305" lon="8.167329763439435"><ele>187.0</ele><time>2026-04-11T08:09:16.983Z</time></trkpt><trkpt lat="45.37312292353235" lon="8.167008383693117"><ele>187.0</ele><time>2026-04-11T08:09:17.983Z</time></trkpt><trkpt lat="45.37318749952062" lon="8.166708547670101"><ele>187.0</ele><time>2026-04-11T08:09:18.983Z</time></trkpt><trkpt lat="45.373249296338706" lon="8.166422902055333"><ele>187.0</ele><time>2026-04-11T08:09:19.983Z</time></trkpt><trkpt lat="45.37331322853656" lon="8.166125864069814"><ele>187.0</ele><time>2026-04-11T08:09:20.983Z</time></trkpt><trkpt lat="45.37337844297853" lon="8.16582303949463"><ele>187.0</ele><time>2026-04-11T08:09:21.983Z</time></trkpt><trkpt lat="45.37344440662514" lon="8.165519429166483"><ele>187.0</ele><time>2026-04-11T08:09:22.982Z</time></trkpt><trkpt lat="45.3735105441942" lon="8.165215018715156"><ele>187.0</ele><time>2026-04-11T08:09:23.982Z</time></trkpt><trkpt lat="45.37357557815676" lon="8.164915687909573"><ele>187.0</ele><time>2026-04-11T08:09:24.982Z</time></trkpt><trkpt lat="45.373635041033666" lon="8.16464200640138"><ele>187.0</ele><time>2026-04-11T08:09:25.982Z</time></trkpt><trkpt lat="45.3736736177908" lon="8.164374047401653"><ele>187.66666666666669</ele><time>2026-04-11T08:09:26.982Z</time></trkpt><trkpt lat="45.373728920112605" lon="8.164123733006775"><ele>188.33333333333334</ele><time>2026-04-11T08:09:27.982Z</time></trkpt><trkpt lat="45.37378557578608" lon="8.163885965709946"><ele>189.0</ele><time>2026-04-11T08:09:28.982Z</time></trkpt><trkpt lat="45.3738398005398" lon="8.163650745056584"><ele>189.66666666666666</ele><time>2026-04-11T08:09:29.982Z</time></trkpt><trkpt lat="45.37389003002247" lon="8.163416491453946"><ele>190.33333333333331</ele><time>2026-04-11T08:09:30.982Z</time></trkpt><trkpt lat="45.37393687189407" lon="8.163180195318551"><ele>191.0</ele><time>2026-04-11T08:09:31.982Z</time></trkpt><trkpt lat="45.373998414542044" lon="8.162969581514796"><ele>191.33333333333331</ele><time>2026-04-11T08:09:32.982Z</time></trkpt><trkpt lat="45.37404663446093" lon="8.1627470690111"><ele>191.66666666666666</ele><time>2026-04-11T08:09:33.982Z</time></trkpt><trkpt lat="45.3741010507004" lon="8.16249586761861"><ele>192.0</ele><time>2026-04-11T08:09:34.982Z</time></trkpt><trkpt lat="45.37415880425056" lon="8.16222935686217"><ele>191.0</ele><time>2026-04-11T08:09:35.982Z</time></trkpt><trkpt lat="45.374220874066324" lon="8.161942924391315"><ele>190.0</ele><time>2026-04-11T08:09:36.982Z</time></trkpt><trkpt lat="45.37428567942864" lon="8.16164386826591"><ele>189.0</ele><time>2026-04-11T08:09:37.982Z</time></trkpt><trkpt lat="45.37435193261569" lon="8.161338130960258"><ele>189.0</ele><time>2026-04-11T08:09:38.982Z</time></trkpt><trkpt lat="45.37441960335712" lon="8.161025852049843"><ele>189.0</ele><time>2026-04-11T08:09:39.982Z</time></trkpt><trkpt lat="45.37448812615561" lon="8.160707865866764"><ele>188.0</ele><time>2026-04-11T08:09:40.982Z</time></trkpt><trkpt lat="45.37455821716497" lon="8.160381969321806"><ele>187.0</ele><time>2026-04-11T08:09:41.982Z</time></trkpt><trkpt lat="45.37462857221502" lon="8.160054844949254"><ele>187.5</ele><time>2026-04-11T08:09:42.982Z</time></trkpt><trkpt lat="45.374699683051055" lon="8.159724206403139"><ele>188.0</ele><time>2026-04-11T08:09:43.982Z</time></trkpt><trkpt lat="45.374771763764464" lon="8.159389058587005"><ele>188.0</ele><time>2026-04-11T08:09:44.982Z</time></trkpt><trkpt lat="45.374843434387195" lon="8.1590558172655"><ele>188.0</ele><time>2026-04-11T08:09:45.982Z</time></trkpt><trkpt lat="45.37491367078945" lon="8.15872924458925"><ele>188.0</ele><time>2026-04-11T08:09:46.982Z</time></trkpt><trkpt lat="45.37498462615029" lon="8.158399329148267"><ele>188.0</ele><time>2026-04-11T08:09:47.982Z</time></trkpt><trkpt lat="45.3750537104067" lon="8.158078113754136"><ele>189.33333333333331</ele><time>2026-04-11T08:09:48.982Z</time></trkpt><trkpt lat="45.37511670006892" lon="8.157785235335671"><ele>190.66666666666666</ele><time>2026-04-11T08:09:49.982Z</time></trkpt><trkpt lat="45.37517679786127" lon="8.157505807212523"><ele>192.0</ele><time>2026-04-11T08:09:50.982Z</time></trkpt><trkpt lat="45.375236644529004" lon="8.157230110911872"><ele>192.33333333333331</ele><time>2026-04-11T08:09:51.982Z</time></trkpt><trkpt lat="45.37529074429973" lon="8.156980451387446"><ele>192.66666666666666</ele><time>2026-04-11T08:09:52.982Z</time></trkpt><trkpt lat="45.37534510966311" lon="8.15672271397792"><ele>193.0</ele><time>2026-04-11T08:09:53.982Z</time></trkpt><trkpt lat="45.37539805422158" lon="8.156464270797178"><ele>193.0</ele><time>2026-04-11T08:09:54.982Z</time></trkpt><trkpt lat="45.375448553623585" lon="8.156189358760114"><ele>193.0</ele><time>2026-04-11T08:09:55.982Z</time></trkpt><trkpt lat="45.37549431148187" lon="8.155919338528461"><ele>193.0</ele><time>2026-04-11T08:09:56.982Z</time></trkpt><trkpt lat="45.37553665290576" lon="8.155652643911449"><ele>199.0</ele><time>2026-04-11T08:09:57.982Z</time></trkpt><trkpt lat="45.375657526673805" lon="8.154772639728586"><ele>199.0</ele><time>2026-04-11T08:09:58.982Z</time></trkpt><trkpt lat="45.37570572470578" lon="8.154443187577014"><ele>199.0</ele><time>2026-04-11T08:09:59.982Z</time></trkpt><trkpt lat="45.3757509250549" lon="8.15412275215678"><ele>198.33333333333331</ele><time>2026-04-11T08:10:00.982Z</time></trkpt><trkpt lat="45.375793136042766" lon="8.153814461507535"><ele>197.66666666666669</ele><time>2026-04-11T08:10:01.982Z</time></trkpt><trkpt lat="45.3758335405096" lon="8.15352674570445"><ele>197.0</ele><time>2026-04-11T08:10:02.982Z</time></trkpt><trkpt lat="45.37587100677416" lon="8.153251998622874"><ele>196.66666666666669</ele><time>2026-04-11T08:10:03.982Z</time></trkpt><trkpt lat="45.375907615288774" lon="8.152990918732788"><ele>196.33333333333331</ele><time>2026-04-11T08:10:04.982Z</time></trkpt><trkpt lat="45.375943504360684" lon="8.152745542040831"><ele>196.0</ele><time>2026-04-11T08:10:05.982Z</time></trkpt><trkpt lat="45.37597752371111" lon="8.15251439847987"><ele>196.0</ele><time>2026-04-11T08:10:06.982Z</time></trkpt><trkpt lat="45.376009208490956" lon="8.152299634063153"><ele>196.0</ele><time>2026-04-11T08:10:07.981Z</time></trkpt><trkpt lat="45.376041159169795" lon="8.152106676598331"><ele>196.0</ele><time>2026-04-11T08:10:08.981Z</time></trkpt><trkpt lat="45.37607378624479" lon="8.151929202837131"><ele>196.0</ele><time>2026-04-11T08:10:09.981Z</time></trkpt><trkpt lat="45.37610437212417" lon="8.151772697572612"><ele>195.99999999999997</ele><time>2026-04-11T08:10:10.981Z</time></trkpt><trkpt lat="45.37612825259288" lon="8.15164699820844"><ele>196.0</ele><time>2026-04-11T08:10:11.981Z</time></trkpt><trkpt lat="45.37615586239173" lon="8.151541282409186"><ele>196.0</ele><time>2026-04-11T08:10:12.981Z</time></trkpt><trkpt lat="45.37619878757501" lon="8.151455561147262"><ele>196.0</ele><time>2026-04-11T08:10:13.981Z</time></trkpt><trkpt lat="45.37624418902813" lon="8.151381967027309"><ele>195.99999999999997</ele><time>2026-04-11T08:10:14.981Z</time></trkpt><trkpt lat="45.37627854999886" lon="8.151296646646111"><ele>196.0</ele><time>2026-04-11T08:10:15.981Z</time></trkpt><trkpt lat="45.37628725529751" lon="8.151185834233372"><ele>196.20000000000002</ele><time>2026-04-11T08:10:16.981Z</time></trkpt><trkpt lat="45.376263927844235" lon="8.151084461030853"><ele>196.4</ele><time>2026-04-11T08:10:17.981Z</time></trkpt><trkpt lat="45.376202327761874" lon="8.151008950926096"><ele>196.6</ele><time>2026-04-11T08:10:18.981Z</time></trkpt><trkpt lat="45.37612119486756" lon="8.150981713623423"><ele>196.8</ele><time>2026-04-11T08:10:19.981Z</time></trkpt><trkpt lat="45.376031146190684" lon="8.150989598839281"><ele>197.0</ele><time>2026-04-11T08:10:20.981Z</time></trkpt><trkpt lat="45.37589578622214" lon="8.15107519646594"><ele>197.0</ele><time>2026-04-11T08:10:21.981Z</time></trkpt><trkpt lat="45.37577606759032" lon="8.151093098374895"><ele>197.0</ele><time>2026-04-11T08:10:22.981Z</time></trkpt><trkpt lat="45.37564177279031" lon="8.151088533940335"><ele>197.0</ele><time>2026-04-11T08:10:23.981Z</time></trkpt><trkpt lat="45.375491966136856" lon="8.151070293689589"><ele>197.0</ele><time>2026-04-11T08:10:24.98Z</time></trkpt><trkpt lat="45.375334548414976" lon="8.151052121727247"><ele>196.66666666666669</ele><time>2026-04-11T08:10:25.98Z</time></trkpt><trkpt lat="45.375185023790344" lon="8.151033411379071"><ele>196.33333333333331</ele><time>2026-04-11T08:10:26.979Z</time></trkpt><trkpt lat="45.37503908675935" lon="8.151017726603259"><ele>196.0</ele><time>2026-04-11T08:10:27.979Z</time></trkpt><trkpt lat="45.37488643049825" lon="8.150996975898577"><ele>196.0</ele><time>2026-04-11T08:10:28.978Z</time></trkpt><trkpt lat="45.374724793890856" lon="8.150975308992717"><ele>196.0</ele><time>2026-04-11T08:10:29.978Z</time></trkpt><trkpt lat="45.3745530376492" lon="8.150953946535235"><ele>196.0</ele><time>2026-04-11T08:10:30.978Z</time></trkpt><trkpt lat="45.37437528326839" lon="8.150942389986504"><ele>196.0</ele><time>2026-04-11T08:10:31.977Z</time></trkpt><trkpt lat="45.37419846064465" lon="8.150924642934312"><ele>196.0</ele><time>2026-04-11T08:10:32.977Z</time></trkpt><trkpt lat="45.37402339347553" lon="8.150901264525443"><ele>196.0</ele><time>2026-04-11T08:10:33.977Z</time></trkpt><trkpt lat="45.373853591050796" lon="8.150880092722629"><ele>196.0</ele><time>2026-04-11T08:10:34.976Z</time></trkpt><trkpt lat="45.37369479459483" lon="8.150859045129044"><ele>196.0</ele><time>2026-04-11T08:10:35.976Z</time></trkpt><trkpt lat="45.37355300135787" lon="8.150841582986997"><ele>196.0</ele><time>2026-04-11T08:10:36.976Z</time></trkpt><trkpt lat="45.37341500608324" lon="8.15082138180943"><ele>196.0</ele><time>2026-04-11T08:10:37.975Z</time></trkpt><trkpt lat="45.37327674376283" lon="8.150805588518727"><ele>196.0</ele><time>2026-04-11T08:10:38.975Z</time></trkpt><trkpt lat="45.373144904396256" lon="8.15079560157477"><ele>196.0</ele><time>2026-04-11T08:10:39.975Z</time></trkpt><trkpt lat="45.37302173880227" lon="8.150776261080553"><ele>196.0</ele><time>2026-04-11T08:10:40.975Z</time></trkpt><trkpt lat="45.37290279887999" lon="8.150760634016912"><ele>196.0</ele><time>2026-04-11T08:10:41.975Z</time></trkpt><trkpt lat="45.37279331990178" lon="8.150749808606449"><ele>195.8</ele><time>2026-04-11T08:10:42.974Z</time></trkpt><trkpt lat="45.372694212696864" lon="8.150737015423854"><ele>195.60000000000002</ele><time>2026-04-11T08:10:43.974Z</time></trkpt><trkpt lat="45.372594528432074" lon="8.150720814809135"><ele>195.4</ele><time>2026-04-11T08:10:44.974Z</time></trkpt><trkpt lat="45.37249933288031" lon="8.150705408632946"><ele>195.2</ele><time>2026-04-11T08:10:45.974Z</time></trkpt><trkpt lat="45.3724059963978" lon="8.15069141402115"><ele>195.0</ele><time>2026-04-11T08:10:46.974Z</time></trkpt><trkpt lat="45.372319758945416" lon="8.150680278970324"><ele>195.0</ele><time>2026-04-11T08:10:47.974Z</time></trkpt><trkpt lat="45.372245404647764" lon="8.150666350587741"><ele>195.0</ele><time>2026-04-11T08:10:48.973Z</time></trkpt><trkpt lat="45.37217453825957" lon="8.150642159206848"><ele>195.0</ele><time>2026-04-11T08:10:49.973Z</time></trkpt><trkpt lat="45.37210807523197" lon="8.150596181371949"><ele>195.0</ele><time>2026-04-11T08:10:50.973Z</time></trkpt><trkpt lat="45.37204367821934" lon="8.150512589905581"><ele>195.0</ele><time>2026-04-11T08:10:51.973Z</time></trkpt><trkpt lat="45.371989041977066" lon="8.150411936031182"><ele>195.0</ele><time>2026-04-11T08:10:52.973Z</time></trkpt><trkpt lat="45.37195767846901" lon="8.150293439392668"><ele>195.2</ele><time>2026-04-11T08:10:53.973Z</time></trkpt><trkpt lat="45.37195196077096" lon="8.150155273530459"><ele>195.4</ele><time>2026-04-11T08:10:54.973Z</time></trkpt><trkpt lat="45.37196172123228" lon="8.150007058463958"><ele>195.60000000000002</ele><time>2026-04-11T08:10:55.973Z</time></trkpt><trkpt lat="45.3719700821497" lon="8.14984893383147"><ele>195.8</ele><time>2026-04-11T08:10:56.973Z</time></trkpt><trkpt lat="45.37198638049482" lon="8.149674009942018"><ele>196.0</ele><time>2026-04-11T08:10:57.972Z</time></trkpt><trkpt lat="45.371998205363305" lon="8.149488869138462"><ele>196.0</ele><time>2026-04-11T08:10:58.972Z</time></trkpt><trkpt lat="45.37200648976322" lon="8.149317293518667"><ele>196.0</ele><time>2026-04-11T08:10:59.972Z</time></trkpt><trkpt lat="45.3720133830308" lon="8.149145597458086"><ele>196.0</ele><time>2026-04-11T08:11:00.972Z</time></trkpt><trkpt lat="45.372015588465764" lon="8.148969784674719"><ele>196.0</ele><time>2026-04-11T08:11:01.972Z</time></trkpt><trkpt lat="45.37201748602994" lon="8.14879930123159"><ele>196.0</ele><time>2026-04-11T08:11:02.972Z</time></trkpt><trkpt lat="45.37201654967578" lon="8.148630829059247"><ele>196.0</ele><time>2026-04-11T08:11:03.972Z</time></trkpt><trkpt lat="45.37201699561797" lon="8.148454000788542"><ele>196.0</ele><time>2026-04-11T08:11:04.972Z</time></trkpt><trkpt lat="45.372017712060725" lon="8.148271831236432"><ele>196.0</ele><time>2026-04-11T08:11:05.972Z</time></trkpt><trkpt lat="45.372013708017974" lon="8.148083916500745"><ele>196.0</ele><time>2026-04-11T08:11:06.972Z</time></trkpt><trkpt lat="45.37200914188135" lon="8.147892585786774"><ele>196.0</ele><time>2026-04-11T08:11:07.972Z</time></trkpt><trkpt lat="45.37199812217299" lon="8.147698356984884"><ele>196.0</ele><time>2026-04-11T08:11:08.972Z</time></trkpt><trkpt lat="45.37198489953051" lon="8.14749796529495"><ele>196.0</ele><time>2026-04-11T08:11:09.972Z</time></trkpt><trkpt lat="45.371992700800995" lon="8.14728971702032"><ele>196.66666666666666</ele><time>2026-04-11T08:11:10.972Z</time></trkpt><trkpt lat="45.37197440038061" lon="8.147081377109096"><ele>197.33333333333331</ele><time>2026-04-11T08:11:11.971Z</time></trkpt><trkpt lat="45.37195119005593" lon="8.146869634735971"><ele>198.0</ele><time>2026-04-11T08:11:12.971Z</time></trkpt><trkpt lat="45.37192184202347" lon="8.14664943021361"><ele>197.66666666666669</ele><time>2026-04-11T08:11:13.971Z</time></trkpt><trkpt lat="45.3718862663509" lon="8.14640193378957"><ele>197.33333333333334</ele><time>2026-04-11T08:11:14.971Z</time></trkpt><trkpt lat="45.37184195342474" lon="8.14613185129155"><ele>197.0</ele><time>2026-04-11T08:11:15.971Z</time></trkpt><trkpt lat="45.37178698364546" lon="8.145837122291633"><ele>197.0</ele><time>2026-04-11T08:11:16.971Z</time></trkpt><trkpt lat="45.3717195003731" lon="8.145525756807672"><ele>197.0</ele><time>2026-04-11T08:11:17.971Z</time></trkpt><trkpt lat="45.37163982487541" lon="8.145215883509918"><ele>197.5</ele><time>2026-04-11T08:11:18.971Z</time></trkpt><trkpt lat="45.37153288506617" lon="8.144877707142994"><ele>198.0</ele><time>2026-04-11T08:11:19.971Z</time></trkpt><trkpt lat="45.37142370810992" lon="8.144523341510705"><ele>198.0</ele><time>2026-04-11T08:11:20.971Z</time></trkpt><trkpt lat="45.37130713820407" lon="8.144193277342923"><ele>198.0</ele><time>2026-04-11T08:11:21.971Z</time></trkpt><trkpt lat="45.371181839420984" lon="8.143874346826484"><ele>198.0</ele><time>2026-04-11T08:11:22.971Z</time></trkpt><trkpt lat="45.371047363082525" lon="8.14354766847463"><ele>198.0</ele><time>2026-04-11T08:11:23.971Z</time></trkpt><trkpt lat="45.3709045923117" lon="8.143216017308932"><ele>198.5</ele><time>2026-04-11T08:11:24.971Z</time></trkpt><trkpt lat="45.3707365611521" lon="8.142888234447692"><ele>199.0</ele><time>2026-04-11T08:11:25.971Z</time></trkpt><trkpt lat="45.37057146536358" lon="8.142571450815346"><ele>200.0</ele><time>2026-04-11T08:11:26.971Z</time></trkpt><trkpt lat="45.370413017340596" lon="8.142276070637116"><ele>201.0</ele><time>2026-04-11T08:11:27.971Z</time></trkpt><trkpt lat="45.37025658993631" lon="8.141985037454086"><ele>201.0</ele><time>2026-04-11T08:11:28.971Z</time></trkpt><trkpt lat="45.37009707573887" lon="8.141686500589296"><ele>201.0</ele><time>2026-04-11T08:11:29.971Z</time></trkpt><trkpt lat="45.36993531896728" lon="8.141388760626915"><ele>201.0</ele><time>2026-04-11T08:11:30.971Z</time></trkpt><trkpt lat="45.36977542245838" lon="8.141093367274928"><ele>201.0</ele><time>2026-04-11T08:11:31.971Z</time></trkpt><trkpt lat="45.36961502172204" lon="8.140797466618839"><ele>201.5</ele><time>2026-04-11T08:11:32.971Z</time></trkpt><trkpt lat="45.3694535150234" lon="8.140503681104153"><ele>202.0</ele><time>2026-04-11T08:11:33.97Z</time></trkpt><trkpt lat="45.3692934054896" lon="8.140209837417396"><ele>202.0</ele><time>2026-04-11T08:11:34.97Z</time></trkpt><trkpt lat="45.36913459331261" lon="8.139913410151507"><ele>202.0</ele><time>2026-04-11T08:11:35.97Z</time></trkpt><trkpt lat="45.3689772588322" lon="8.139622077356655"><ele>202.5</ele><time>2026-04-11T08:11:36.97Z</time></trkpt><trkpt lat="45.36882091843475" lon="8.13932937461152"><ele>203.0</ele><time>2026-04-11T08:11:37.97Z</time></trkpt><trkpt lat="45.3686683539718" lon="8.139041437258363"><ele>203.0</ele><time>2026-04-11T08:11:38.97Z</time></trkpt><trkpt lat="45.368512633147574" lon="8.138757817330756"><ele>203.0</ele><time>2026-04-11T08:11:39.97Z</time></trkpt><trkpt lat="45.368357022025045" lon="8.138470559151783"><ele>203.0</ele><time>2026-04-11T08:11:40.97Z</time></trkpt><trkpt lat="45.36820039524609" lon="8.138191342272187"><ele>203.0</ele><time>2026-04-11T08:11:41.97Z</time></trkpt><trkpt lat="45.36805504332531" lon="8.137916471592643"><ele>202.33333333333334</ele><time>2026-04-11T08:11:42.97Z</time></trkpt><trkpt lat="45.36791805561698" lon="8.137666320639008"><ele>201.66666666666669</ele><time>2026-04-11T08:11:43.97Z</time></trkpt><trkpt lat="45.367788981327365" lon="8.137428072858357"><ele>201.0</ele><time>2026-04-11T08:11:44.97Z</time></trkpt><trkpt lat="45.367663275472715" lon="8.137192261217866"><ele>200.66666666666669</ele><time>2026-04-11T08:11:45.97Z</time></trkpt><trkpt lat="45.367533748522035" lon="8.136946359660895"><ele>200.33333333333334</ele><time>2026-04-11T08:11:46.97Z</time></trkpt><trkpt lat="45.367400996804186" lon="8.13669547624061"><ele>200.0</ele><time>2026-04-11T08:11:47.97Z</time></trkpt><trkpt lat="45.36726865469581" lon="8.136447997747457"><ele>198.66666666666669</ele><time>2026-04-11T08:11:48.97Z</time></trkpt><trkpt lat="45.36713995482311" lon="8.13620876673323"><ele>197.33333333333331</ele><time>2026-04-11T08:11:49.97Z</time></trkpt><trkpt lat="45.36701338796355" lon="8.135982849305883"><ele>196.0</ele><time>2026-04-11T08:11:50.97Z</time></trkpt><trkpt lat="45.36690571387439" lon="8.135750799066898"><ele>196.33333333333331</ele><time>2026-04-11T08:11:51.97Z</time></trkpt><trkpt lat="45.366796987134855" lon="8.135547376744828"><ele>196.66666666666669</ele><time>2026-04-11T08:11:52.97Z</time></trkpt><trkpt lat="45.36670336961914" lon="8.135373324117234"><ele>197.0</ele><time>2026-04-11T08:11:53.97Z</time></trkpt><trkpt lat="45.36661577614477" lon="8.135210471379615"><ele>197.0</ele><time>2026-04-11T08:11:54.97Z</time></trkpt><trkpt lat="45.366538562435224" lon="8.135066916587853"><ele>197.0</ele><time>2026-04-11T08:11:55.97Z</time></trkpt><trkpt lat="45.366460970588605" lon="8.134922658836999"><ele>197.0</ele><time>2026-04-11T08:11:56.97Z</time></trkpt><trkpt lat="45.366382804560075" lon="8.13477733318508"><ele>197.0</ele><time>2026-04-11T08:11:57.97Z</time></trkpt><trkpt lat="45.36629756779373" lon="8.134618863272124"><ele>195.66666666666669</ele><time>2026-04-11T08:11:58.97Z</time></trkpt><trkpt lat="45.36620062201163" lon="8.134450684563678"><ele>194.33333333333331</ele><time>2026-04-11T08:11:59.97Z</time></trkpt><trkpt lat="45.36610336264082" lon="8.134257568163274"><ele>193.0</ele><time>2026-04-11T08:12:00.97Z</time></trkpt><trkpt lat="45.36600421215445" lon="8.134060824548818"><ele>195.33333333333331</ele><time>2026-04-11T08:12:01.97Z</time></trkpt><trkpt lat="45.36589286558711" lon="8.13386452378724"><ele>197.66666666666669</ele><time>2026-04-11T08:12:02.97Z</time></trkpt><trkpt lat="45.36578562050689" lon="8.13366982475176"><ele>200.0</ele><time>2026-04-11T08:12:03.969Z</time></trkpt><trkpt lat="45.36567706890043" lon="8.13347349765082"><ele>200.0</ele><time>2026-04-11T08:12:04.969Z</time></trkpt><trkpt lat="45.365569582457" lon="8.133278233113733"><ele>200.0</ele><time>2026-04-11T08:12:05.969Z</time></trkpt><trkpt lat="45.36545930063534" lon="8.133074742990145"><ele>200.0</ele><time>2026-04-11T08:12:06.969Z</time></trkpt><trkpt lat="45.36534524093607" lon="8.13286477910207"><ele>200.0</ele><time>2026-04-11T08:12:07.969Z</time></trkpt><trkpt lat="45.36522812581211" lon="8.13264601879123"><ele>200.0</ele><time>2026-04-11T08:12:08.969Z</time></trkpt><trkpt lat="45.365111594590964" lon="8.132425734888173"><ele>200.0</ele><time>2026-04-11T08:12:09.969Z</time></trkpt><trkpt lat="45.364991038691" lon="8.132202469905302"><ele>200.66666666666669</ele><time>2026-04-11T08:12:10.969Z</time></trkpt><trkpt lat="45.364860432042754" lon="8.131965559043696"><ele>201.33333333333331</ele><time>2026-04-11T08:12:11.969Z</time></trkpt><trkpt lat="45.3647251323043" lon="8.1316993801748"><ele>202.0</ele><time>2026-04-11T08:12:12.969Z</time></trkpt><trkpt lat="45.36456206336824" lon="8.131414164419855"><ele>202.0</ele><time>2026-04-11T08:12:13.969Z</time></trkpt><trkpt lat="45.36439799566414" lon="8.131105505603394"><ele>202.0</ele><time>2026-04-11T08:12:14.969Z</time></trkpt><trkpt lat="45.364239772528755" lon="8.130784360456095"><ele>202.0</ele><time>2026-04-11T08:12:15.969Z</time></trkpt><trkpt lat="45.3640801359612" lon="8.130467100968712"><ele>202.0</ele><time>2026-04-11T08:12:16.969Z</time></trkpt><trkpt lat="45.3639129961966" lon="8.130158025520625"><ele>202.5</ele><time>2026-04-11T08:12:17.969Z</time></trkpt><trkpt lat="45.36375468597301" lon="8.12987344675546"><ele>203.0</ele><time>2026-04-11T08:12:18.969Z</time></trkpt><trkpt lat="45.36360290645005" lon="8.129599479620374"><ele>203.0</ele><time>2026-04-11T08:12:19.969Z</time></trkpt><trkpt lat="45.36345461564292" lon="8.129331604950615"><ele>203.0</ele><time>2026-04-11T08:12:20.969Z</time></trkpt><trkpt lat="45.3633084465966" lon="8.12906395749179"><ele>203.0</ele><time>2026-04-11T08:12:21.969Z</time></trkpt><trkpt lat="45.363163834046276" lon="8.128794253897032"><ele>203.0</ele><time>2026-04-11T08:12:22.969Z</time></trkpt><trkpt lat="45.363020555132856" lon="8.128523613229696"><ele>203.0</ele><time>2026-04-11T08:12:23.969Z</time></trkpt><trkpt lat="45.36287712492913" lon="8.128253299498592"><ele>203.0</ele><time>2026-04-11T08:12:24.969Z</time></trkpt><trkpt lat="45.36273187346075" lon="8.127985492193307"><ele>203.0</ele><time>2026-04-11T08:12:25.969Z</time></trkpt><trkpt lat="45.36258959655323" lon="8.127717286905419"><ele>203.0</ele><time>2026-04-11T08:12:26.969Z</time></trkpt><trkpt lat="45.3624490571652" lon="8.127446145678745"><ele>202.5</ele><time>2026-04-11T08:12:27.969Z</time></trkpt><trkpt lat="45.3623171353052" lon="8.127173012985407"><ele>202.0</ele><time>2026-04-11T08:12:28.969Z</time></trkpt><trkpt lat="45.36218993082974" lon="8.126895845741872"><ele>203.5</ele><time>2026-04-11T08:12:29.969Z</time></trkpt><trkpt lat="45.36207209796883" lon="8.126610306441194"><ele>205.0</ele><time>2026-04-11T08:12:30.969Z</time></trkpt><trkpt lat="45.36196566760514" lon="8.12631197959694"><ele>204.5</ele><time>2026-04-11T08:12:31.969Z</time></trkpt><trkpt lat="45.361858664365826" lon="8.126009742462802"><ele>204.0</ele><time>2026-04-11T08:12:32.969Z</time></trkpt><trkpt lat="45.36175736612532" lon="8.12569917725992"><ele>204.0</ele><time>2026-04-11T08:12:33.969Z</time></trkpt><trkpt lat="45.36166461398706" lon="8.125378391022902"><ele>204.0</ele><time>2026-04-11T08:12:34.968Z</time></trkpt><trkpt lat="45.36157954855055" lon="8.125059681994157"><ele>203.5</ele><time>2026-04-11T08:12:35.968Z</time></trkpt><trkpt lat="45.36150332407821" lon="8.124743765150184"><ele>203.0</ele><time>2026-04-11T08:12:36.968Z</time></trkpt><trkpt lat="45.361439733213054" lon="8.12443306273678"><ele>203.0</ele><time>2026-04-11T08:12:37.968Z</time></trkpt><trkpt lat="45.361384787828314" lon="8.124126850674353"><ele>203.0</ele><time>2026-04-11T08:12:38.968Z</time></trkpt><trkpt lat="45.36133425436" lon="8.123827818553561"><ele>203.0</ele><time>2026-04-11T08:12:39.968Z</time></trkpt><trkpt lat="45.361287648039564" lon="8.123536121501898"><ele>203.33333333333334</ele><time>2026-04-11T08:12:40.968Z</time></trkpt><trkpt lat="45.361248500727534" lon="8.123249902913075"><ele>203.66666666666669</ele><time>2026-04-11T08:12:41.968Z</time></trkpt><trkpt lat="45.36122024082714" lon="8.122959789597044"><ele>204.0</ele><time>2026-04-11T08:12:42.968Z</time></trkpt><trkpt lat="45.36120014354846" lon="8.12266470856521"><ele>204.33333333333331</ele><time>2026-04-11T08:12:43.968Z</time></trkpt><trkpt lat="45.36118589929395" lon="8.122367551777826"><ele>204.66666666666666</ele><time>2026-04-11T08:12:44.968Z</time></trkpt><trkpt lat="45.36117992059732" lon="8.122071338616738"><ele>205.0</ele><time>2026-04-11T08:12:45.968Z</time></trkpt><trkpt lat="45.361177805784" lon="8.121792119925477"><ele>206.0</ele><time>2026-04-11T08:12:46.968Z</time></trkpt><trkpt lat="45.361198557187976" lon="8.121525075216807"><ele>207.0</ele><time>2026-04-11T08:12:47.968Z</time></trkpt><trkpt lat="45.36121148937218" lon="8.121248263206157"><ele>208.0</ele><time>2026-04-11T08:12:48.968Z</time></trkpt><trkpt lat="45.36122814341061" lon="8.120967358347201"><ele>207.66666666666666</ele><time>2026-04-11T08:12:49.968Z</time></trkpt><trkpt lat="45.36124582170016" lon="8.12067486203236"><ele>207.33333333333331</ele><time>2026-04-11T08:12:50.968Z</time></trkpt><trkpt lat="45.361282581799884" lon="8.12038153315482"><ele>207.0</ele><time>2026-04-11T08:12:51.968Z</time></trkpt><trkpt lat="45.36130490623673" lon="8.120080675662964"><ele>207.0</ele><time>2026-04-11T08:12:52.968Z</time></trkpt><trkpt lat="45.361326852567984" lon="8.119787972211286"><ele>207.0</ele><time>2026-04-11T08:12:53.968Z</time></trkpt><trkpt lat="45.36133558404193" lon="8.119504031450367"><ele>207.0</ele><time>2026-04-11T08:12:54.968Z</time></trkpt><trkpt lat="45.361361951846234" lon="8.119178909459771"><ele>207.5</ele><time>2026-04-11T08:12:55.968Z</time></trkpt><trkpt lat="45.361401476996924" lon="8.118825368020712"><ele>208.0</ele><time>2026-04-11T08:12:56.968Z</time></trkpt><trkpt lat="45.36143902907146" lon="8.11847940992593"><ele>208.5</ele><time>2026-04-11T08:12:57.968Z</time></trkpt><trkpt lat="45.36149003449589" lon="8.118146863381327"><ele>209.0</ele><time>2026-04-11T08:12:58.968Z</time></trkpt><trkpt lat="45.36153924529388" lon="8.117823164378889"><ele>209.0</ele><time>2026-04-11T08:12:59.968Z</time></trkpt><trkpt lat="45.36158575517726" lon="8.117508528767429"><ele>209.0</ele><time>2026-04-11T08:13:00.968Z</time></trkpt><trkpt lat="45.361628272531746" lon="8.1171994272919"><ele>209.0</ele><time>2026-04-11T08:13:01.968Z</time></trkpt><trkpt lat="45.36167036634446" lon="8.116889878701496"><ele>209.33333333333334</ele><time>2026-04-11T08:13:02.968Z</time></trkpt><trkpt lat="45.36171075203941" lon="8.116588992748122"><ele>209.66666666666669</ele><time>2026-04-11T08:13:03.968Z</time></trkpt><trkpt lat="45.36175277427568" lon="8.11629129587038"><ele>210.0</ele><time>2026-04-11T08:13:04.968Z</time></trkpt><trkpt lat="45.36179024417827" lon="8.116001992087853"><ele>209.66666666666669</ele><time>2026-04-11T08:13:05.968Z</time></trkpt><trkpt lat="45.36183456595164" lon="8.115713314529495"><ele>209.33333333333334</ele><time>2026-04-11T08:13:06.967Z</time></trkpt><trkpt lat="45.361862993425795" lon="8.11543690805412"><ele>209.0</ele><time>2026-04-11T08:13:07.967Z</time></trkpt><trkpt lat="45.361879215352275" lon="8.115166305322814"><ele>208.66666666666669</ele><time>2026-04-11T08:13:08.967Z</time></trkpt><trkpt lat="45.361898949105736" lon="8.114890251077098"><ele>208.33333333333331</ele><time>2026-04-11T08:13:09.967Z</time></trkpt><trkpt lat="45.36191973969484" lon="8.114609781148127"><ele>208.0</ele><time>2026-04-11T08:13:10.967Z</time></trkpt><trkpt lat="45.361940096846624" lon="8.114320959278405"><ele>208.33333333333331</ele><time>2026-04-11T08:13:11.967Z</time></trkpt><trkpt lat="45.361966298402635" lon="8.114028152837443"><ele>208.66666666666669</ele><time>2026-04-11T08:13:12.967Z</time></trkpt><trkpt lat="45.36199817135485" lon="8.113732513064285"><ele>209.0</ele><time>2026-04-11T08:13:13.967Z</time></trkpt><trkpt lat="45.362033410998656" lon="8.113433765963176"><ele>209.66666666666669</ele><time>2026-04-11T08:13:14.967Z</time></trkpt><trkpt lat="45.362068469215" lon="8.113130863556451"><ele>210.33333333333331</ele><time>2026-04-11T08:13:15.967Z</time></trkpt><trkpt lat="45.362102186395624" lon="8.112826905854286"><ele>211.0</ele><time>2026-04-11T08:13:16.967Z</time></trkpt><trkpt lat="45.36213787038656" lon="8.112523858366444"><ele>211.66666666666666</ele><time>2026-04-11T08:13:17.967Z</time></trkpt><trkpt lat="45.36217195028179" lon="8.112221409122471"><ele>212.33333333333331</ele><time>2026-04-11T08:13:18.967Z</time></trkpt><trkpt lat="45.3622063728178" lon="8.111917261705297"><ele>213.0</ele><time>2026-04-11T08:13:19.967Z</time></trkpt><trkpt lat="45.36224012024842" lon="8.111613799915967"><ele>213.0</ele><time>2026-04-11T08:13:20.967Z</time></trkpt><trkpt lat="45.36227301311745" lon="8.111306955403192"><ele>213.0</ele><time>2026-04-11T08:13:21.967Z</time></trkpt><trkpt lat="45.36230673359456" lon="8.111000563214168"><ele>213.0</ele><time>2026-04-11T08:13:22.967Z</time></trkpt><trkpt lat="45.362342285989605" lon="8.11069229981986"><ele>213.0</ele><time>2026-04-11T08:13:23.967Z</time></trkpt><trkpt lat="45.36237833783777" lon="8.110382793334404"><ele>213.0</ele><time>2026-04-11T08:13:24.967Z</time></trkpt><trkpt lat="45.36241418826352" lon="8.110070044100945"><ele>213.0</ele><time>2026-04-11T08:13:25.967Z</time></trkpt><trkpt lat="45.36244966604711" lon="8.109759229430496"><ele>213.5</ele><time>2026-04-11T08:13:26.967Z</time></trkpt><trkpt lat="45.36248277726741" lon="8.109444374564543"><ele>214.0</ele><time>2026-04-11T08:13:27.967Z</time></trkpt><trkpt lat="45.36251982173064" lon="8.109127065690886"><ele>214.5</ele><time>2026-04-11T08:13:28.967Z</time></trkpt><trkpt lat="45.362555806957" lon="8.1088076000283"><ele>215.0</ele><time>2026-04-11T08:13:29.967Z</time></trkpt><trkpt lat="45.362595026130585" lon="8.108486300482834"><ele>215.5</ele><time>2026-04-11T08:13:30.967Z</time></trkpt><trkpt lat="45.36263336842026" lon="8.108165746589698"><ele>216.0</ele><time>2026-04-11T08:13:31.967Z</time></trkpt><trkpt lat="45.36267132137502" lon="8.107844771026913"><ele>216.0</ele><time>2026-04-11T08:13:32.967Z</time></trkpt><trkpt lat="45.362709573098826" lon="8.107521494352014"><ele>216.0</ele><time>2026-04-11T08:13:33.967Z</time></trkpt><trkpt lat="45.362746193708446" lon="8.107195888300126"><ele>216.0</ele><time>2026-04-11T08:13:34.967Z</time></trkpt><trkpt lat="45.36278072066383" lon="8.10687090797559"><ele>216.0</ele><time>2026-04-11T08:13:35.967Z</time></trkpt><trkpt lat="45.36281572322118" lon="8.106543383585251"><ele>216.0</ele><time>2026-04-11T08:13:36.967Z</time></trkpt><trkpt lat="45.36285399225659" lon="8.106216901535314"><ele>216.0</ele><time>2026-04-11T08:13:37.966Z</time></trkpt><trkpt lat="45.36289115299316" lon="8.105889872523965"><ele>216.5</ele><time>2026-04-11T08:13:38.966Z</time></trkpt><trkpt lat="45.3629303083845" lon="8.105563012851345"><ele>217.0</ele><time>2026-04-11T08:13:39.966Z</time></trkpt><trkpt lat="45.36296874309609" lon="8.105236550883498"><ele>217.0</ele><time>2026-04-11T08:13:40.966Z</time></trkpt><trkpt lat="45.363005490926305" lon="8.104913402227451"><ele>217.0</ele><time>2026-04-11T08:13:41.966Z</time></trkpt><trkpt lat="45.36304135589376" lon="8.104590667705352"><ele>217.0</ele><time>2026-04-11T08:13:42.966Z</time></trkpt><trkpt lat="45.36307677938476" lon="8.104268571267497"><ele>217.0</ele><time>2026-04-11T08:13:43.966Z</time></trkpt><trkpt lat="45.36311170991814" lon="8.103946138142048"><ele>217.5</ele><time>2026-04-11T08:13:44.966Z</time></trkpt><trkpt lat="45.363146288457365" lon="8.103625138408285"><ele>218.0</ele><time>2026-04-11T08:13:45.966Z</time></trkpt><trkpt lat="45.36318162958155" lon="8.10330454669384"><ele>218.66666666666669</ele><time>2026-04-11T08:13:46.966Z</time></trkpt><trkpt lat="45.36321810342709" lon="8.102990226749617"><ele>219.33333333333331</ele><time>2026-04-11T08:13:47.966Z</time></trkpt><trkpt lat="45.363255848711155" lon="8.102688999080991"><ele>220.0</ele><time>2026-04-11T08:13:48.966Z</time></trkpt><trkpt lat="45.3632904253338" lon="8.102408024915238"><ele>220.66666666666666</ele><time>2026-04-11T08:13:49.966Z</time></trkpt><trkpt lat="45.363319891817866" lon="8.102143007850158"><ele>221.33333333333331</ele><time>2026-04-11T08:13:50.966Z</time></trkpt><trkpt lat="45.363347730722296" lon="8.101890297395943"><ele>222.0</ele><time>2026-04-11T08:13:51.966Z</time></trkpt><trkpt lat="45.36337429883775" lon="8.101647668250832"><ele>222.0</ele><time>2026-04-11T08:13:52.966Z</time></trkpt><trkpt lat="45.36339866093058" lon="8.101413261294216"><ele>222.0</ele><time>2026-04-11T08:13:53.966Z</time></trkpt><trkpt lat="45.363421518339436" lon="8.101185743157426"><ele>222.0</ele><time>2026-04-11T08:13:54.966Z</time></trkpt><trkpt lat="45.36344560998528" lon="8.10096845658069"><ele>222.0</ele><time>2026-04-11T08:13:55.966Z</time></trkpt><trkpt lat="45.36346900032664" lon="8.10076544784721"><ele>222.0</ele><time>2026-04-11T08:13:56.966Z</time></trkpt><trkpt lat="45.36349190529145" lon="8.10057386529481"><ele>222.0</ele><time>2026-04-11T08:13:57.966Z</time></trkpt><trkpt lat="45.363513163124594" lon="8.100398010977903"><ele>222.0</ele><time>2026-04-11T08:13:58.966Z</time></trkpt><trkpt lat="45.36353238734575" lon="8.100230014883838"><ele>222.0</ele><time>2026-04-11T08:13:59.966Z</time></trkpt><trkpt lat="45.3635501541309" lon="8.100070927201601"><ele>222.0</ele><time>2026-04-11T08:14:00.966Z</time></trkpt><trkpt lat="45.36356674446072" lon="8.099917001172292"><ele>222.0</ele><time>2026-04-11T08:14:01.966Z</time></trkpt><trkpt lat="45.36358101884013" lon="8.099745655977754"><ele>222.0</ele><time>2026-04-11T08:14:02.966Z</time></trkpt><trkpt lat="45.36359914104464" lon="8.099559450650089"><ele>222.0</ele><time>2026-04-11T08:14:03.966Z</time></trkpt><trkpt lat="45.36364413761936" lon="8.09936634526651"><ele>222.0</ele><time>2026-04-11T08:14:04.966Z</time></trkpt><trkpt lat="45.36366834671607" lon="8.099160456371354"><ele>222.0</ele><time>2026-04-11T08:14:05.966Z</time></trkpt><trkpt lat="45.3636941941169" lon="8.098948191043092"><ele>222.0</ele><time>2026-04-11T08:14:06.966Z</time></trkpt><trkpt lat="45.36372244902232" lon="8.098731317842491"><ele>223.0</ele><time>2026-04-11T08:14:07.966Z</time></trkpt><trkpt lat="45.36373970190649" lon="8.098501255232579"><ele>224.0</ele><time>2026-04-11T08:14:08.966Z</time></trkpt><trkpt lat="45.363778892878386" lon="8.098274957798603"><ele>225.0</ele><time>2026-04-11T08:14:09.965Z</time></trkpt><trkpt lat="45.363840308457995" lon="8.09805683985624"><ele>225.66666666666669</ele><time>2026-04-11T08:14:10.965Z</time></trkpt><trkpt lat="45.363889632777244" lon="8.097830941684428"><ele>226.33333333333334</ele><time>2026-04-11T08:14:11.965Z</time></trkpt><trkpt lat="45.36394060435277" lon="8.097600917165341"><ele>227.0</ele><time>2026-04-11T08:14:12.965Z</time></trkpt><trkpt lat="45.36399184154938" lon="8.097369694196985"><ele>227.0</ele><time>2026-04-11T08:14:13.965Z</time></trkpt><trkpt lat="45.3640433376473" lon="8.09713730273235"><ele>227.0</ele><time>2026-04-11T08:14:14.965Z</time></trkpt><trkpt lat="45.36409559488282" lon="8.096901575946363"><ele>227.0</ele><time>2026-04-11T08:14:15.965Z</time></trkpt><trkpt lat="45.36414758357039" lon="8.096667754137188"><ele>227.33333333333334</ele><time>2026-04-11T08:14:16.965Z</time></trkpt><trkpt lat="45.364199886198506" lon="8.096432520267426"><ele>227.66666666666669</ele><time>2026-04-11T08:14:17.965Z</time></trkpt><trkpt lat="45.36425274812124" lon="8.09619477083145"><ele>228.0</ele><time>2026-04-11T08:14:18.965Z</time></trkpt><trkpt lat="45.36430644855802" lon="8.095953250145524"><ele>228.33333333333331</ele><time>2026-04-11T08:14:19.965Z</time></trkpt><trkpt lat="45.36435936304189" lon="8.09571526541366"><ele>228.66666666666666</ele><time>2026-04-11T08:14:20.965Z</time></trkpt><trkpt lat="45.364394399798215" lon="8.095482003574963"><ele>229.0</ele><time>2026-04-11T08:14:21.965Z</time></trkpt><trkpt lat="45.36444674868034" lon="8.095252360870226"><ele>229.0</ele><time>2026-04-11T08:14:22.965Z</time></trkpt><trkpt lat="45.36450254457254" lon="8.095012281094593"><ele>229.0</ele><time>2026-04-11T08:14:23.965Z</time></trkpt><trkpt lat="45.36455555024743" lon="8.094763563902816"><ele>229.0</ele><time>2026-04-11T08:14:24.965Z</time></trkpt><trkpt lat="45.36462676358686" lon="8.094517684386064"><ele>229.0</ele><time>2026-04-11T08:14:25.965Z</time></trkpt><trkpt lat="45.3646830794815" lon="8.0942655725654"><ele>229.0</ele><time>2026-04-11T08:14:26.965Z</time></trkpt><trkpt lat="45.3647256796632" lon="8.094002127567487"><ele>229.0</ele><time>2026-04-11T08:14:27.965Z</time></trkpt><trkpt lat="45.36478508797314" lon="8.093746947595612"><ele>229.0</ele><time>2026-04-11T08:14:28.965Z</time></trkpt><trkpt lat="45.364847831007964" lon="8.09349791812874"><ele>229.0</ele><time>2026-04-11T08:14:29.965Z</time></trkpt><trkpt lat="45.36490289414524" lon="8.093247045228834"><ele>229.0</ele><time>2026-04-11T08:14:30.965Z</time></trkpt><trkpt lat="45.364959338022565" lon="8.092996059426406"><ele>229.33333333333331</ele><time>2026-04-11T08:14:31.965Z</time></trkpt><trkpt lat="45.365012839398595" lon="8.092745024991583"><ele>229.66666666666669</ele><time>2026-04-11T08:14:32.965Z</time></trkpt><trkpt lat="45.36506157945673" lon="8.092492709454985"><ele>230.0</ele><time>2026-04-11T08:14:33.965Z</time></trkpt><trkpt lat="45.365130990698596" lon="8.092243837756582"><ele>230.33333333333334</ele><time>2026-04-11T08:14:34.965Z</time></trkpt><trkpt lat="45.365186628197925" lon="8.091983918472643"><ele>230.66666666666669</ele><time>2026-04-11T08:14:35.965Z</time></trkpt><trkpt lat="45.36524042683606" lon="8.091724150663701"><ele>231.0</ele><time>2026-04-11T08:14:36.965Z</time></trkpt><trkpt lat="45.36527703348825" lon="8.091456086531842"><ele>231.66666666666669</ele><time>2026-04-11T08:14:37.965Z</time></trkpt><trkpt lat="45.36530918098129" lon="8.091190304916099"><ele>232.33333333333334</ele><time>2026-04-11T08:14:38.965Z</time></trkpt><trkpt lat="45.36533110109112" lon="8.090934884714859"><ele>233.0</ele><time>2026-04-11T08:14:39.965Z</time></trkpt><trkpt lat="45.36533995489596" lon="8.09068683534844"><ele>233.33333333333334</ele><time>2026-04-11T08:14:40.965Z</time></trkpt><trkpt lat="45.36534346485785" lon="8.090450159369729"><ele>233.66666666666669</ele><time>2026-04-11T08:14:41.964Z</time></trkpt><trkpt lat="45.3653449773869" lon="8.090226178544793"><ele>234.0</ele><time>2026-04-11T08:14:42.964Z</time></trkpt><trkpt lat="45.365344814911886" lon="8.090012093562429"><ele>234.25</ele><time>2026-04-11T08:14:43.964Z</time></trkpt><trkpt lat="45.36534640744388" lon="8.089806870122308"><ele>234.5</ele><time>2026-04-11T08:14:44.964Z</time></trkpt><trkpt lat="45.36534516523071" lon="8.089605670449528"><ele>234.75</ele><time>2026-04-11T08:14:45.964Z</time></trkpt><trkpt lat="45.365341561187286" lon="8.089395943017612"><ele>235.0</ele><time>2026-04-11T08:14:46.964Z</time></trkpt><trkpt lat="45.36533647507569" lon="8.089179138934632"><ele>235.33333333333331</ele><time>2026-04-11T08:14:47.964Z</time></trkpt><trkpt lat="45.36534810287867" lon="8.088955784399037"><ele>235.66666666666669</ele><time>2026-04-11T08:14:48.964Z</time></trkpt><trkpt lat="45.36533382306724" lon="8.088727698820747"><ele>236.0</ele><time>2026-04-11T08:14:49.964Z</time></trkpt><trkpt lat="45.36529525653374" lon="8.08849679515297"><ele>236.33333333333334</ele><time>2026-04-11T08:14:50.964Z</time></trkpt><trkpt lat="45.36524718022338" lon="8.08825712732219"><ele>236.66666666666669</ele><time>2026-04-11T08:14:51.964Z</time></trkpt><trkpt lat="45.36519726098613" lon="8.088014560392406"><ele>237.0</ele><time>2026-04-11T08:14:52.964Z</time></trkpt><trkpt lat="45.36514480677622" lon="8.087766159607007"><ele>237.0</ele><time>2026-04-11T08:14:53.964Z</time></trkpt><trkpt lat="45.365091976421205" lon="8.087518819747652"><ele>237.0</ele><time>2026-04-11T08:14:54.964Z</time></trkpt><trkpt lat="45.36504522244071" lon="8.087275910748115"><ele>237.0</ele><time>2026-04-11T08:14:55.964Z</time></trkpt><trkpt lat="45.365015764777986" lon="8.087037444349649"><ele>237.0</ele><time>2026-04-11T08:14:56.964Z</time></trkpt><trkpt lat="45.36499698940421" lon="8.086811246420712"><ele>237.0</ele><time>2026-04-11T08:14:57.964Z</time></trkpt><trkpt lat="45.36498958004749" lon="8.086590394070745"><ele>237.0</ele><time>2026-04-11T08:14:58.964Z</time></trkpt><trkpt lat="45.36498443538989" lon="8.086364417089976"><ele>237.33333333333331</ele><time>2026-04-11T08:14:59.964Z</time></trkpt><trkpt lat="45.3649791008274" lon="8.086133779867165"><ele>237.66666666666666</ele><time>2026-04-11T08:15:00.964Z</time></trkpt><trkpt lat="45.3649771727014" lon="8.085905872289803"><ele>238.0</ele><time>2026-04-11T08:15:01.964Z</time></trkpt><trkpt lat="45.36497445806207" lon="8.085676842676433"><ele>238.33333333333331</ele><time>2026-04-11T08:15:02.964Z</time></trkpt><trkpt lat="45.36497276358184" lon="8.085448425064271"><ele>238.66666666666669</ele><time>2026-04-11T08:15:03.964Z</time></trkpt><trkpt lat="45.36497344853535" lon="8.085222913654187"><ele>239.0</ele><time>2026-04-11T08:15:04.964Z</time></trkpt><trkpt lat="45.36498230765518" lon="8.085002654997973"><ele>238.75</ele><time>2026-04-11T08:15:05.964Z</time></trkpt><trkpt lat="45.36500173999034" lon="8.084792724629645"><ele>238.5</ele><time>2026-04-11T08:15:06.964Z</time></trkpt><trkpt lat="45.36503236763354" lon="8.084589564400739"><ele>238.25</ele><time>2026-04-11T08:15:07.964Z</time></trkpt><trkpt lat="45.36506825482119" lon="8.084402158305934"><ele>238.0</ele><time>2026-04-11T08:15:08.964Z</time></trkpt><trkpt lat="45.365103411390145" lon="8.084226873499858"><ele>238.0</ele><time>2026-04-11T08:15:09.964Z</time></trkpt><trkpt lat="45.36513849222675" lon="8.084059734268983"><ele>238.0</ele><time>2026-04-11T08:15:10.964Z</time></trkpt><trkpt lat="45.36516974334559" lon="8.083912903241734"><ele>238.0</ele><time>2026-04-11T08:15:11.964Z</time></trkpt><trkpt lat="45.36519625386733" lon="8.083792312324347"><ele>238.0</ele><time>2026-04-11T08:15:12.963Z</time></trkpt><trkpt lat="45.36522143921543" lon="8.083685514391961"><ele>238.0</ele><time>2026-04-11T08:15:13.963Z</time></trkpt><trkpt lat="45.3652308428983" lon="8.083589141004412"><ele>237.99999999999997</ele><time>2026-04-11T08:15:14.963Z</time></trkpt><trkpt lat="45.36528058362689" lon="8.083506254834896"><ele>238.0</ele><time>2026-04-11T08:15:16.963Z</time></trkpt><trkpt lat="45.36536445681301" lon="8.083424804797845"><ele>238.0</ele><time>2026-04-11T08:15:20.963Z</time></trkpt><trkpt lat="45.36546790837161" lon="8.08333707934996"><ele>238.0</ele><time>2026-04-11T08:15:22.963Z</time></trkpt><trkpt lat="45.36553286093677" lon="8.083282194020386"><ele>237.99999999999997</ele><time>2026-04-11T08:15:23.963Z</time></trkpt><trkpt lat="45.36556625711496" lon="8.083191158483483"><ele>238.0</ele><time>2026-04-11T08:15:24.963Z</time></trkpt><trkpt lat="45.365540232901296" lon="8.083065979063038"><ele>238.33333333333331</ele><time>2026-04-11T08:15:25.963Z</time></trkpt><trkpt lat="45.36547697348201" lon="8.082982505868818"><ele>238.66666666666666</ele><time>2026-04-11T08:15:26.963Z</time></trkpt><trkpt lat="45.365401688189294" lon="8.082925970498435"><ele>239.0</ele><time>2026-04-11T08:15:27.963Z</time></trkpt><trkpt lat="45.36531777579432" lon="8.082921038009756"><ele>239.33333333333331</ele><time>2026-04-11T08:15:28.963Z</time></trkpt><trkpt lat="45.36523126524237" lon="8.082950360203691"><ele>239.66666666666666</ele><time>2026-04-11T08:15:29.963Z</time></trkpt><trkpt lat="45.36513312665027" lon="8.08295495149175"><ele>240.0</ele><time>2026-04-11T08:15:30.963Z</time></trkpt><trkpt lat="45.36502677326138" lon="8.082912223310958"><ele>240.0</ele><time>2026-04-11T08:15:31.963Z</time></trkpt><trkpt lat="45.36490957503984" lon="8.08283574174034"><ele>240.0</ele><time>2026-04-11T08:15:32.963Z</time></trkpt><trkpt lat="45.36478168144616" lon="8.082736434021777"><ele>240.0</ele><time>2026-04-11T08:15:33.963Z</time></trkpt><trkpt lat="45.364661533623064" lon="8.082622337103642"><ele>240.0</ele><time>2026-04-11T08:15:34.963Z</time></trkpt><trkpt lat="45.364557579711246" lon="8.08250242994739"><ele>240.33333333333331</ele><time>2026-04-11T08:15:35.963Z</time></trkpt><trkpt lat="45.36444809585882" lon="8.082367089938424"><ele>240.66666666666666</ele><time>2026-04-11T08:15:36.963Z</time></trkpt><trkpt lat="45.36433202804923" lon="8.082211353751713"><ele>241.0</ele><time>2026-04-11T08:15:37.963Z</time></trkpt><trkpt lat="45.36420548675417" lon="8.082046936027117"><ele>241.0</ele><time>2026-04-11T08:15:38.963Z</time></trkpt><trkpt lat="45.36407152335375" lon="8.081869610967493"><ele>241.0</ele><time>2026-04-11T08:15:39.963Z</time></trkpt><trkpt lat="45.363936325825904" lon="8.081689086540782"><ele>241.0</ele><time>2026-04-11T08:15:40.963Z</time></trkpt><trkpt lat="45.36380888220167" lon="8.081518472558264"><ele>240.0</ele><time>2026-04-11T08:15:41.963Z</time></trkpt><trkpt lat="45.3636866141633" lon="8.081351819763878"><ele>239.0</ele><time>2026-04-11T08:15:42.963Z</time></trkpt><trkpt lat="45.363564722977344" lon="8.08118703967704"><ele>238.0</ele><time>2026-04-11T08:15:43.963Z</time></trkpt><trkpt lat="45.363444553985246" lon="8.081027251714318"><ele>238.0</ele><time>2026-04-11T08:15:44.962Z</time></trkpt><trkpt lat="45.363329529738" lon="8.080866638093516"><ele>238.0</ele><time>2026-04-11T08:15:45.962Z</time></trkpt><trkpt lat="45.36321206447147" lon="8.080705230743439"><ele>238.0</ele><time>2026-04-11T08:15:46.962Z</time></trkpt><trkpt lat="45.363090548528355" lon="8.08054404307327"><ele>238.33333333333331</ele><time>2026-04-11T08:15:47.962Z</time></trkpt><trkpt lat="45.362964420155954" lon="8.080380274046231"><ele>238.66666666666669</ele><time>2026-04-11T08:15:48.962Z</time></trkpt><trkpt lat="45.36283456978518" lon="8.080211276414085"><ele>239.0</ele><time>2026-04-11T08:15:49.962Z</time></trkpt><trkpt lat="45.36270558533344" lon="8.080037429114272"><ele>239.66666666666669</ele><time>2026-04-11T08:15:50.962Z</time></trkpt><trkpt lat="45.36256991643634" lon="8.079856349099119"><ele>240.33333333333331</ele><time>2026-04-11T08:15:51.988Z</time></trkpt><trkpt lat="45.3624344738082" lon="8.079676674665688"><ele>241.0</ele><time>2026-04-11T08:15:52.988Z</time></trkpt><trkpt lat="45.36229731345644" lon="8.079493126528295"><ele>240.33333333333331</ele><time>2026-04-11T08:15:53.988Z</time></trkpt><trkpt lat="45.36216091336623" lon="8.079305764282502"><ele>239.66666666666669</ele><time>2026-04-11T08:15:54.988Z</time></trkpt><trkpt lat="45.36202361156376" lon="8.079115559192603"><ele>239.0</ele><time>2026-04-11T08:15:55.988Z</time></trkpt><trkpt lat="45.361887889724535" lon="8.078916726880246"><ele>239.0</ele><time>2026-04-11T08:15:56.988Z</time></trkpt><trkpt lat="45.36176399336701" lon="8.078699441636275"><ele>239.0</ele><time>2026-04-11T08:15:57.987Z</time></trkpt><trkpt lat="45.361672368248804" lon="8.078451355090388"><ele>239.0</ele><time>2026-04-11T08:15:58.987Z</time></trkpt><trkpt lat="45.36157039789669" lon="8.078223658633089"><ele>239.0</ele><time>2026-04-11T08:15:59.987Z</time></trkpt><trkpt lat="45.361498339556725" lon="8.077971988717746"><ele>239.0</ele><time>2026-04-11T08:16:00.987Z</time></trkpt><trkpt lat="45.3614336590733" lon="8.077710788575862"><ele>239.0</ele><time>2026-04-11T08:16:01.987Z</time></trkpt><trkpt lat="45.36138531353644" lon="8.077440395422288"><ele>239.0</ele><time>2026-04-11T08:16:02.987Z</time></trkpt><trkpt lat="45.3613707889854" lon="8.077162145447202"><ele>239.0</ele><time>2026-04-11T08:16:03.987Z</time></trkpt><trkpt lat="45.3613598024787" lon="8.076880153071944"><ele>239.0</ele><time>2026-04-11T08:16:04.987Z</time></trkpt><trkpt lat="45.361346974737295" lon="8.076607288748331"><ele>239.66666666666669</ele><time>2026-04-11T08:16:05.987Z</time></trkpt><trkpt lat="45.36135345331064" lon="8.076349365834483"><ele>240.33333333333331</ele><time>2026-04-11T08:16:06.987Z</time></trkpt><trkpt lat="45.36135978254614" lon="8.07608763678266"><ele>241.0</ele><time>2026-04-11T08:16:07.987Z</time></trkpt><trkpt lat="45.36138163874065" lon="8.07582497089535"><ele>241.66666666666666</ele><time>2026-04-11T08:16:08.987Z</time></trkpt><trkpt lat="45.36138792324353" lon="8.075564611510293"><ele>242.33333333333331</ele><time>2026-04-11T08:16:09.987Z</time></trkpt><trkpt lat="45.361395237665924" lon="8.075306352402883"><ele>243.0</ele><time>2026-04-11T08:16:10.987Z</time></trkpt><trkpt lat="45.36140033800654" lon="8.07504448356565"><ele>243.33333333333331</ele><time>2026-04-11T08:16:11.987Z</time></trkpt><trkpt lat="45.3614017611458" lon="8.074780971143188"><ele>243.66666666666666</ele><time>2026-04-11T08:16:12.987Z</time></trkpt><trkpt lat="45.361407146874264" lon="8.074513661891922"><ele>244.0</ele><time>2026-04-11T08:16:13.987Z</time></trkpt><trkpt lat="45.36141183296406" lon="8.074242821363462"><ele>243.66666666666666</ele><time>2026-04-11T08:16:14.987Z</time></trkpt><trkpt lat="45.361414731006356" lon="8.073964910695166"><ele>243.33333333333331</ele><time>2026-04-11T08:16:15.987Z</time></trkpt><trkpt lat="45.361418868078225" lon="8.073682923302604"><ele>243.0</ele><time>2026-04-11T08:16:16.987Z</time></trkpt><trkpt lat="45.36142405984808" lon="8.073394970406138"><ele>242.66666666666669</ele><time>2026-04-11T08:16:17.987Z</time></trkpt><trkpt lat="45.3614294693651" lon="8.07310498930984"><ele>242.33333333333334</ele><time>2026-04-11T08:16:18.987Z</time></trkpt><trkpt lat="45.36143331805259" lon="8.072813707184011"><ele>242.0</ele><time>2026-04-11T08:16:19.987Z</time></trkpt><trkpt lat="45.361437184891415" lon="8.072526943605252"><ele>243.33333333333334</ele><time>2026-04-11T08:16:20.987Z</time></trkpt><trkpt lat="45.361441320105904" lon="8.072247505438874"><ele>244.66666666666669</ele><time>2026-04-11T08:16:21.987Z</time></trkpt><trkpt lat="45.36144493809315" lon="8.07197985336994"><ele>246.0</ele><time>2026-04-11T08:16:22.987Z</time></trkpt><trkpt lat="45.36146543903841" lon="8.071727163075717"><ele>246.0</ele><time>2026-04-11T08:16:23.987Z</time></trkpt><trkpt lat="45.36147070856757" lon="8.071487469379923"><ele>246.0</ele><time>2026-04-11T08:16:24.987Z</time></trkpt><trkpt lat="45.36147579148552" lon="8.071256263912316"><ele>246.0</ele><time>2026-04-11T08:16:25.987Z</time></trkpt><trkpt lat="45.3614807195954" lon="8.071032102424725"><ele>246.0</ele><time>2026-04-11T08:16:26.987Z</time></trkpt><trkpt lat="45.361484487909294" lon="8.070809770807998"><ele>246.0</ele><time>2026-04-11T08:16:27.987Z</time></trkpt><trkpt lat="45.3614845683748" lon="8.0705960857512"><ele>246.0</ele><time>2026-04-11T08:16:28.987Z</time></trkpt><trkpt lat="45.361481150544876" lon="8.07039096738299"><ele>246.0</ele><time>2026-04-11T08:16:29.986Z</time></trkpt><trkpt lat="45.36146958263585" lon="8.07018403135134"><ele>246.0</ele><time>2026-04-11T08:16:30.986Z</time></trkpt><trkpt lat="45.36144922728157" lon="8.069977824460537"><ele>246.0</ele><time>2026-04-11T08:16:31.986Z</time></trkpt><trkpt lat="45.361417441921326" lon="8.069765968500738"><ele>246.0</ele><time>2026-04-11T08:16:32.986Z</time></trkpt><trkpt lat="45.36138036954043" lon="8.06955269641373"><ele>245.66666666666669</ele><time>2026-04-11T08:16:33.986Z</time></trkpt><trkpt lat="45.361332833867095" lon="8.069343265443239"><ele>245.33333333333334</ele><time>2026-04-11T08:16:34.986Z</time></trkpt><trkpt lat="45.36125986976364" lon="8.06914994691897"><ele>245.0</ele><time>2026-04-11T08:16:35.986Z</time></trkpt><trkpt lat="45.36119008734109" lon="8.06895798055972"><ele>245.0</ele><time>2026-04-11T08:16:36.989Z</time></trkpt><trkpt lat="45.36110891787275" lon="8.068771712495398"><ele>245.0</ele><time>2026-04-11T08:16:37.989Z</time></trkpt><trkpt lat="45.36101629817025" lon="8.06858914473656"><ele>245.0</ele><time>2026-04-11T08:16:38.989Z</time></trkpt><trkpt lat="45.360933731488686" lon="8.068383327235159"><ele>245.33333333333334</ele><time>2026-04-11T08:16:39.989Z</time></trkpt><trkpt lat="45.3608260430044" lon="8.068193260784637"><ele>245.66666666666669</ele><time>2026-04-11T08:16:40.989Z</time></trkpt><trkpt lat="45.36071204919485" lon="8.06799293024314"><ele>246.0</ele><time>2026-04-11T08:16:41.989Z</time></trkpt><trkpt lat="45.360591686824705" lon="8.067782135998984"><ele>245.33333333333331</ele><time>2026-04-11T08:16:42.988Z</time></trkpt><trkpt lat="45.36046712097445" lon="8.067563979838425"><ele>244.66666666666666</ele><time>2026-04-11T08:16:43.989Z</time></trkpt><trkpt lat="45.36034245172648" lon="8.067345642818115"><ele>244.0</ele><time>2026-04-11T08:16:44.988Z</time></trkpt><trkpt lat="45.36020622198169" lon="8.067144088364886"><ele>244.0</ele><time>2026-04-11T08:16:45.988Z</time></trkpt><trkpt lat="45.36008051293701" lon="8.0669214666273"><ele>244.0</ele><time>2026-04-11T08:16:46.989Z</time></trkpt><trkpt lat="45.359955572534766" lon="8.066698879463086"><ele>244.0</ele><time>2026-04-11T08:16:47.989Z</time></trkpt><trkpt lat="45.359828923776384" lon="8.066474713041533"><ele>244.0</ele><time>2026-04-11T08:16:48.988Z</time></trkpt><trkpt lat="45.35970793358746" lon="8.066259472685276"><ele>244.0</ele><time>2026-04-11T08:16:49.988Z</time></trkpt><trkpt lat="45.35959219005205" lon="8.06605361725865"><ele>244.0</ele><time>2026-04-11T08:16:50.988Z</time></trkpt><trkpt lat="45.35947471868575" lon="8.065847316712114"><ele>244.33333333333331</ele><time>2026-04-11T08:16:51.988Z</time></trkpt><trkpt lat="45.35935594115931" lon="8.065639949588746"><ele>244.66666666666669</ele><time>2026-04-11T08:16:52.988Z</time></trkpt><trkpt lat="45.359238056423315" lon="8.065435690192203"><ele>245.0</ele><time>2026-04-11T08:16:53.988Z</time></trkpt><trkpt lat="45.359119819474785" lon="8.065231240475658"><ele>245.0</ele><time>2026-04-11T08:16:54.988Z</time></trkpt><trkpt lat="45.35901472692471" lon="8.065013831542233"><ele>245.0</ele><time>2026-04-11T08:16:55.988Z</time></trkpt><trkpt lat="45.358899949161106" lon="8.064811289191688"><ele>245.0</ele><time>2026-04-11T08:16:56.988Z</time></trkpt><trkpt lat="45.35878381124668" lon="8.06460634659749"><ele>245.0</ele><time>2026-04-11T08:16:57.988Z</time></trkpt><trkpt lat="45.35866830557621" lon="8.064402519783249"><ele>245.0</ele><time>2026-04-11T08:16:58.988Z</time></trkpt><trkpt lat="45.35855370405864" lon="8.06420028843569"><ele>245.0</ele><time>2026-04-11T08:16:59.988Z</time></trkpt><trkpt lat="45.35844126444264" lon="8.064001871715721"><ele>245.0</ele><time>2026-04-11T08:17:00.988Z</time></trkpt><trkpt lat="45.35833242813029" lon="8.063808122059683"><ele>245.0</ele><time>2026-04-11T08:17:01.988Z</time></trkpt><trkpt lat="45.35821231606761" lon="8.063632914801474"><ele>245.0</ele><time>2026-04-11T08:17:02.988Z</time></trkpt><trkpt lat="45.35810606655351" lon="8.063446407722438"><ele>245.0</ele><time>2026-04-11T08:17:03.988Z</time></trkpt><trkpt lat="45.358014321466634" lon="8.063246510526891"><ele>245.0</ele><time>2026-04-11T08:17:04.988Z</time></trkpt><trkpt lat="45.35791039893702" lon="8.063062026521221"><ele>245.0</ele><time>2026-04-11T08:17:05.988Z</time></trkpt><trkpt lat="45.35778992983566" lon="8.06289661616107"><ele>245.0</ele><time>2026-04-11T08:17:06.988Z</time></trkpt><trkpt lat="45.35768753450826" lon="8.062715419260405"><ele>245.0</ele><time>2026-04-11T08:17:07.988Z</time></trkpt><trkpt lat="45.357589580919885" lon="8.062540955064447"><ele>245.0</ele><time>2026-04-11T08:17:08.988Z</time></trkpt><trkpt lat="45.35749659206717" lon="8.06237299256295"><ele>245.0</ele><time>2026-04-11T08:17:09.988Z</time></trkpt><trkpt lat="45.35742113954768" lon="8.062197099176936"><ele>245.0</ele><time>2026-04-11T08:17:10.988Z</time></trkpt><trkpt lat="45.35733631552101" lon="8.062047042457403"><ele>245.0</ele><time>2026-04-11T08:17:11.988Z</time></trkpt><trkpt lat="45.3572416517344" lon="8.061920904471755"><ele>245.0</ele><time>2026-04-11T08:17:12.988Z</time></trkpt><trkpt lat="45.35716140682404" lon="8.061779860414292"><ele>244.8</ele><time>2026-04-11T08:17:13.988Z</time></trkpt><trkpt lat="45.35708648651455" lon="8.061648950151303"><ele>244.6</ele><time>2026-04-11T08:17:14.988Z</time></trkpt><trkpt lat="45.3570180874678" lon="8.061530074403795"><ele>244.39999999999998</ele><time>2026-04-11T08:17:15.987Z</time></trkpt><trkpt lat="45.35697126399629" lon="8.061396526355663"><ele>244.2</ele><time>2026-04-11T08:17:16.987Z</time></trkpt><trkpt lat="45.35691303273811" lon="8.061292717873119"><ele>244.0</ele><time>2026-04-11T08:17:17.987Z</time></trkpt><trkpt lat="45.35686377426228" lon="8.061206227658513"><ele>244.0</ele><time>2026-04-11T08:17:18.987Z</time></trkpt><trkpt lat="45.35682068466809" lon="8.061130411504003"><ele>243.99999999999997</ele><time>2026-04-11T08:17:19.987Z</time></trkpt><trkpt lat="45.35674027744002" lon="8.060989547724441"><ele>243.99999999999997</ele><time>2026-04-11T08:17:21.987Z</time></trkpt><trkpt lat="45.356691325144546" lon="8.060902795788733"><ele>244.0</ele><time>2026-04-11T08:17:22.987Z</time></trkpt><trkpt lat="45.35663489167465" lon="8.060802786110083"><ele>244.0</ele><time>2026-04-11T08:17:23.987Z</time></trkpt><trkpt lat="45.356571876502684" lon="8.060691112508218"><ele>244.0</ele><time>2026-04-11T08:17:24.987Z</time></trkpt><trkpt lat="45.35650295912701" lon="8.060568978884396"><ele>244.0</ele><time>2026-04-11T08:17:25.987Z</time></trkpt><trkpt lat="45.35643020767562" lon="8.060440050872788"><ele>244.0</ele><time>2026-04-11T08:17:26.987Z</time></trkpt><trkpt lat="45.35635417035091" lon="8.060305505359096"><ele>244.0</ele><time>2026-04-11T08:17:27.987Z</time></trkpt><trkpt lat="45.35627882815352" lon="8.060172427289338"><ele>244.25</ele><time>2026-04-11T08:17:28.987Z</time></trkpt><trkpt lat="45.35620376656257" lon="8.060039844942937"><ele>244.5</ele><time>2026-04-11T08:17:29.987Z</time></trkpt><trkpt lat="45.356130240531336" lon="8.059909974829607"><ele>244.75</ele><time>2026-04-11T08:17:30.987Z</time></trkpt><trkpt lat="45.35605828747165" lon="8.05978288305865"><ele>245.0</ele><time>2026-04-11T08:17:31.987Z</time></trkpt><trkpt lat="45.35597611550014" lon="8.059673354945845"><ele>244.6</ele><time>2026-04-11T08:17:32.987Z</time></trkpt><trkpt lat="45.35591654103055" lon="8.059548007217131"><ele>244.2</ele><time>2026-04-11T08:17:33.987Z</time></trkpt><trkpt lat="45.35584826348916" lon="8.059436798695018"><ele>243.8</ele><time>2026-04-11T08:17:34.987Z</time></trkpt><trkpt lat="45.355787535032576" lon="8.059335626645842"><ele>243.4</ele><time>2026-04-11T08:17:35.987Z</time></trkpt><trkpt lat="45.355741812939684" lon="8.059257324225507"><ele>243.0</ele><time>2026-04-11T08:17:36.987Z</time></trkpt><trkpt lat="45.35567422375422" lon="8.059135397041453"><ele>243.2</ele><time>2026-04-11T08:17:38.987Z</time></trkpt><trkpt lat="45.35560525559616" lon="8.059011424013038"><ele>243.4</ele><time>2026-04-11T08:17:40.987Z</time></trkpt><trkpt lat="45.35555057156382" lon="8.058919923373914"><ele>243.59999999999997</ele><time>2026-04-11T08:17:41.987Z</time></trkpt><trkpt lat="45.35548987385506" lon="8.058819047051266"><ele>243.79999999999998</ele><time>2026-04-11T08:17:42.987Z</time></trkpt><trkpt lat="45.355423270497354" lon="8.058709986930541"><ele>244.0</ele><time>2026-04-11T08:17:43.987Z</time></trkpt><trkpt lat="45.35534937858104" lon="8.058590126575858"><ele>244.2</ele><time>2026-04-11T08:17:44.987Z</time></trkpt><trkpt lat="45.35527457220365" lon="8.058467125903642"><ele>244.39999999999998</ele><time>2026-04-11T08:17:45.987Z</time></trkpt><trkpt lat="45.355199028221" lon="8.058357143121178"><ele>244.6</ele><time>2026-04-11T08:17:46.986Z</time></trkpt><trkpt lat="45.35511806091537" lon="8.058254188029679"><ele>244.8</ele><time>2026-04-11T08:17:47.986Z</time></trkpt><trkpt lat="45.35502447147434" lon="8.058153290477597"><ele>245.0</ele><time>2026-04-11T08:17:48.986Z</time></trkpt><trkpt lat="45.35491939815715" lon="8.058059554314587"><ele>245.0</ele><time>2026-04-11T08:17:49.986Z</time></trkpt><trkpt lat="45.35481169514726" lon="8.05797193113521"><ele>245.0</ele><time>2026-04-11T08:17:50.986Z</time></trkpt><trkpt lat="45.354704696646316" lon="8.057885391815859"><ele>245.0</ele><time>2026-04-11T08:17:51.986Z</time></trkpt><trkpt lat="45.354608712340315" lon="8.057776469186825"><ele>245.0</ele><time>2026-04-11T08:17:52.986Z</time></trkpt><trkpt lat="45.35449913654183" lon="8.057696046086564"><ele>245.0</ele><time>2026-04-11T08:17:53.986Z</time></trkpt><trkpt lat="45.354388734800565" lon="8.057615016777387"><ele>245.0</ele><time>2026-04-11T08:17:54.986Z</time></trkpt><trkpt lat="45.354286580135174" lon="8.057540040479859"><ele>245.0</ele><time>2026-04-11T08:17:55.986Z</time></trkpt><trkpt lat="45.35418919615787" lon="8.05746856547981"><ele>245.0</ele><time>2026-04-11T08:17:56.986Z</time></trkpt><trkpt lat="45.35409686404954" lon="8.057400798411543"><ele>245.16666666666669</ele><time>2026-04-11T08:17:57.986Z</time></trkpt><trkpt lat="45.3540123485201" lon="8.05733876828437"><ele>245.33333333333334</ele><time>2026-04-11T08:17:58.986Z</time></trkpt><trkpt lat="45.353948257680806" lon="8.057291728876327"><ele>245.5</ele><time>2026-04-11T08:17:59.986Z</time></trkpt><trkpt lat="45.353846011935325" lon="8.057216723518254"><ele>245.66666666666669</ele><time>2026-04-11T08:18:01.986Z</time></trkpt><trkpt lat="45.35375734575361" lon="8.057166549686533"><ele>245.83333333333334</ele><time>2026-04-11T08:18:03.986Z</time></trkpt><trkpt lat="45.353697954335026" lon="8.057114919694792"><ele>246.0</ele><time>2026-04-11T08:18:04.986Z</time></trkpt><trkpt lat="45.353615068290814" lon="8.057056621667451"><ele>246.0</ele><time>2026-04-11T08:18:05.986Z</time></trkpt><trkpt lat="45.353527008527905" lon="8.056995061380158"><ele>246.00000000000003</ele><time>2026-04-11T08:18:06.986Z</time></trkpt><trkpt lat="45.3534410029258" lon="8.056933412500804"><ele>246.00000000000003</ele><time>2026-04-11T08:18:07.986Z</time></trkpt><trkpt lat="45.35335125634219" lon="8.056867238180741"><ele>246.0</ele><time>2026-04-11T08:18:08.986Z</time></trkpt><trkpt lat="45.35325240775898" lon="8.056794739061251"><ele>246.0</ele><time>2026-04-11T08:18:09.986Z</time></trkpt><trkpt lat="45.35314633768951" lon="8.056715692935493"><ele>245.5</ele><time>2026-04-11T08:18:10.986Z</time></trkpt><trkpt lat="45.35302578995192" lon="8.056635895344565"><ele>245.0</ele><time>2026-04-11T08:18:11.986Z</time></trkpt><trkpt lat="45.35289476048937" lon="8.056541900834308"><ele>244.5</ele><time>2026-04-11T08:18:12.986Z</time></trkpt><trkpt lat="45.35276840487569" lon="8.056425434586869"><ele>244.0</ele><time>2026-04-11T08:18:13.986Z</time></trkpt><trkpt lat="45.35264348142344" lon="8.05633350132493"><ele>244.0</ele><time>2026-04-11T08:18:14.986Z</time></trkpt><trkpt lat="45.35252599965945" lon="8.056248617109997"><ele>244.0</ele><time>2026-04-11T08:18:15.986Z</time></trkpt><trkpt lat="45.35241752074749" lon="8.05617055193711"><ele>244.0</ele><time>2026-04-11T08:18:16.986Z</time></trkpt><trkpt lat="45.35231102268192" lon="8.056094344847182"><ele>244.0</ele><time>2026-04-11T08:18:17.986Z</time></trkpt><trkpt lat="45.35220644340205" lon="8.056016943312626"><ele>243.75</ele><time>2026-04-11T08:18:18.985Z</time></trkpt><trkpt lat="45.35209851636351" lon="8.055949496471472"><ele>243.5</ele><time>2026-04-11T08:18:19.985Z</time></trkpt><trkpt lat="45.35198776923155" lon="8.055879409675121"><ele>243.25</ele><time>2026-04-11T08:18:20.985Z</time></trkpt><trkpt lat="45.35188137530604" lon="8.05578522011492"><ele>243.0</ele><time>2026-04-11T08:18:21.985Z</time></trkpt><trkpt lat="45.351760205562655" lon="8.055698001551995"><ele>242.75</ele><time>2026-04-11T08:18:22.985Z</time></trkpt><trkpt lat="45.35163676785982" lon="8.055608570432057"><ele>242.5</ele><time>2026-04-11T08:18:23.985Z</time></trkpt><trkpt lat="45.35152215373781" lon="8.055527408465734"><ele>242.25</ele><time>2026-04-11T08:18:24.985Z</time></trkpt><trkpt lat="45.351426776893064" lon="8.05545147093565"><ele>242.0</ele><time>2026-04-11T08:18:25.985Z</time></trkpt><trkpt lat="45.35134254569196" lon="8.055384098060362"><ele>242.39999999999998</ele><time>2026-04-11T08:18:26.985Z</time></trkpt><trkpt lat="45.35125645082729" lon="8.055325495346523"><ele>242.79999999999998</ele><time>2026-04-11T08:18:27.985Z</time></trkpt><trkpt lat="45.35116367828723" lon="8.055261970691134"><ele>243.2</ele><time>2026-04-11T08:18:28.985Z</time></trkpt><trkpt lat="45.35107681532146" lon="8.055189750768733"><ele>243.6</ele><time>2026-04-11T08:18:29.985Z</time></trkpt><trkpt lat="45.35098427133463" lon="8.055123114072915"><ele>244.0</ele><time>2026-04-11T08:18:30.985Z</time></trkpt><trkpt lat="45.35089150376141" lon="8.055031535835305"><ele>243.75</ele><time>2026-04-11T08:18:31.985Z</time></trkpt><trkpt lat="45.35080436032324" lon="8.05493053635585"><ele>243.5</ele><time>2026-04-11T08:18:32.985Z</time></trkpt><trkpt lat="45.35072132789877" lon="8.054810076006367"><ele>243.25</ele><time>2026-04-11T08:18:33.985Z</time></trkpt><trkpt lat="45.35063014717195" lon="8.054703233383085"><ele>243.0</ele><time>2026-04-11T08:18:34.985Z</time></trkpt><trkpt lat="45.350530638936554" lon="8.054607417409281"><ele>243.0</ele><time>2026-04-11T08:18:35.985Z</time></trkpt><trkpt lat="45.35043730880891" lon="8.054503498300575"><ele>243.0</ele><time>2026-04-11T08:18:36.985Z</time></trkpt><trkpt lat="45.35034637961689" lon="8.054415147323015"><ele>243.0</ele><time>2026-04-11T08:18:37.985Z</time></trkpt><trkpt lat="45.35025650611073" lon="8.054323116636306"><ele>243.0</ele><time>2026-04-11T08:18:38.985Z</time></trkpt><trkpt lat="45.350163374414194" lon="8.054229563273628"><ele>243.0</ele><time>2026-04-11T08:18:39.985Z</time></trkpt><trkpt lat="45.350073456854574" lon="8.054132864718753"><ele>243.0</ele><time>2026-04-11T08:18:40.985Z</time></trkpt><trkpt lat="45.34998409494489" lon="8.054041606308136"><ele>243.0</ele><time>2026-04-11T08:18:41.985Z</time></trkpt><trkpt lat="45.34989680349206" lon="8.053943717155416"><ele>243.0</ele><time>2026-04-11T08:18:42.988Z</time></trkpt><trkpt lat="45.349812881114886" lon="8.053846583673696"><ele>243.0</ele><time>2026-04-11T08:18:43.988Z</time></trkpt><trkpt lat="45.34973137890744" lon="8.053756084656023"><ele>243.2</ele><time>2026-04-11T08:18:44.988Z</time></trkpt><trkpt lat="45.3496576377007" lon="8.053673318083298"><ele>243.4</ele><time>2026-04-11T08:18:45.988Z</time></trkpt><trkpt lat="45.34955275650073" lon="8.053527610261098"><ele>243.59999999999997</ele><time>2026-04-11T08:19:29.986Z</time></trkpt><trkpt lat="45.3494928010958" lon="8.053452969358384"><ele>243.79999999999998</ele><time>2026-04-11T08:19:30.986Z</time></trkpt><trkpt lat="45.34942364209865" lon="8.053370694410804"><ele>244.0</ele><time>2026-04-11T08:19:31.986Z</time></trkpt><trkpt lat="45.34936572535055" lon="8.053304280645994"><ele>243.79999999999998</ele><time>2026-04-11T08:19:32.986Z</time></trkpt><trkpt lat="45.34931645219271" lon="8.053247778677983"><ele>243.59999999999997</ele><time>2026-04-11T08:19:33.986Z</time></trkpt><trkpt lat="45.34920519054923" lon="8.053120193563558"><ele>243.4</ele><time>2026-04-11T08:19:41.986Z</time></trkpt><trkpt lat="45.349118698730265" lon="8.053028677765733"><ele>243.2</ele><time>2026-04-11T08:19:43.985Z</time></trkpt><trkpt lat="45.34902945148165" lon="8.052914906964395"><ele>243.0</ele><time>2026-04-11T08:19:45.985Z</time></trkpt><trkpt lat="45.34895383568234" lon="8.05284936629329"><ele>243.0</ele><time>2026-04-11T08:19:46.985Z</time></trkpt><trkpt lat="45.348874522782246" lon="8.05276760884222"><ele>243.0</ele><time>2026-04-11T08:19:47.985Z</time></trkpt><trkpt lat="45.348792676350136" lon="8.052667003631832"><ele>243.0</ele><time>2026-04-11T08:19:48.985Z</time></trkpt><trkpt lat="45.34871143106715" lon="8.052575401834112"><ele>243.0</ele><time>2026-04-11T08:19:49.985Z</time></trkpt><trkpt lat="45.34863313594787" lon="8.052498306028218"><ele>243.0</ele><time>2026-04-11T08:19:50.985Z</time></trkpt><trkpt lat="45.34856086041547" lon="8.052421449865395"><ele>243.0</ele><time>2026-04-11T08:19:51.985Z</time></trkpt><trkpt lat="45.34848683180777" lon="8.052329324271193"><ele>243.0</ele><time>2026-04-11T08:19:52.985Z</time></trkpt><trkpt lat="45.348397795186294" lon="8.052237353896038"><ele>243.0</ele><time>2026-04-11T08:19:53.985Z</time></trkpt><trkpt lat="45.34830995604253" lon="8.05214674420502"><ele>243.0</ele><time>2026-04-11T08:19:54.985Z</time></trkpt><trkpt lat="45.34822411189021" lon="8.05206347292666"><ele>243.0</ele><time>2026-04-11T08:19:55.985Z</time></trkpt><trkpt lat="45.3481458379445" lon="8.051985995014006"><ele>243.0</ele><time>2026-04-11T08:19:56.985Z</time></trkpt><trkpt lat="45.34809996442638" lon="8.051874144792187"><ele>243.0</ele><time>2026-04-11T08:19:57.985Z</time></trkpt><trkpt lat="45.34802822917663" lon="8.051795169560997"><ele>243.0</ele><time>2026-04-11T08:19:58.985Z</time></trkpt><trkpt lat="45.34795299932132" lon="8.051731576996577"><ele>243.0</ele><time>2026-04-11T08:19:59.985Z</time></trkpt><trkpt lat="45.34787256353458" lon="8.0516622591517"><ele>243.0</ele><time>2026-04-11T08:20:00.985Z</time></trkpt><trkpt lat="45.34779403800222" lon="8.05159203980658"><ele>243.0</ele><time>2026-04-11T08:20:01.985Z</time></trkpt><trkpt lat="45.34771316190637" lon="8.051526668129984"><ele>243.0</ele><time>2026-04-11T08:20:02.985Z</time></trkpt><trkpt lat="45.34764083301763" lon="8.051463632693334"><ele>243.0</ele><time>2026-04-11T08:20:03.985Z</time></trkpt><trkpt lat="45.34756633052625" lon="8.051401751821924"><ele>243.0</ele><time>2026-04-11T08:20:04.985Z</time></trkpt><trkpt lat="45.347495383066565" lon="8.051342169138922"><ele>243.0</ele><time>2026-04-11T08:20:05.985Z</time></trkpt><trkpt lat="45.34743318451936" lon="8.05129281159676"><ele>243.0</ele><time>2026-04-11T08:20:06.985Z</time></trkpt><trkpt lat="45.347373788525736" lon="8.051245292428144"><ele>243.0</ele><time>2026-04-11T08:20:07.985Z</time></trkpt><trkpt lat="45.347317880915334" lon="8.051194486864118"><ele>243.0</ele><time>2026-04-11T08:20:08.985Z</time></trkpt><trkpt lat="45.34726285811339" lon="8.051148346995193"><ele>243.0</ele><time>2026-04-11T08:20:09.985Z</time></trkpt><trkpt lat="45.34720528105395" lon="8.05110266416724"><ele>243.0</ele><time>2026-04-11T08:20:10.985Z</time></trkpt><trkpt lat="45.34714152543055" lon="8.051054016666896"><ele>243.0</ele><time>2026-04-11T08:20:11.985Z</time></trkpt><trkpt lat="45.347075600601656" lon="8.050994342203357"><ele>243.0</ele><time>2026-04-11T08:20:12.985Z</time></trkpt><trkpt lat="45.34700570537078" lon="8.050938021944065"><ele>243.0</ele><time>2026-04-11T08:20:13.985Z</time></trkpt><trkpt lat="45.34694317312498" lon="8.050863124736646"><ele>242.83333333333334</ele><time>2026-04-11T08:20:14.984Z</time></trkpt><trkpt lat="45.34687591713481" lon="8.050806229853292"><ele>242.66666666666669</ele><time>2026-04-11T08:20:15.984Z</time></trkpt><trkpt lat="45.34681026075015" lon="8.050750688094327"><ele>242.5</ele><time>2026-04-11T08:20:16.984Z</time></trkpt><trkpt lat="45.34674192212053" lon="8.050692878600207"><ele>242.33333333333334</ele><time>2026-04-11T08:20:17.984Z</time></trkpt><trkpt lat="45.34667222943868" lon="8.050632704232653"><ele>242.16666666666669</ele><time>2026-04-11T08:20:18.984Z</time></trkpt><trkpt lat="45.34660129724189" lon="8.050574415663267"><ele>242.0</ele><time>2026-04-11T08:20:19.984Z</time></trkpt><trkpt lat="45.34653086300486" lon="8.050519700257682"><ele>242.00000000000003</ele><time>2026-04-11T08:20:20.984Z</time></trkpt><trkpt lat="45.34646489154043" lon="8.050474788376142"><ele>242.0</ele><time>2026-04-11T08:20:21.984Z</time></trkpt><trkpt lat="45.34640366655441" lon="8.050436432479934"><ele>242.0</ele><time>2026-04-11T08:20:22.984Z</time></trkpt><trkpt lat="45.34629467487363" lon="8.050368427656707"><ele>242.0</ele><time>2026-04-11T08:20:24.984Z</time></trkpt><trkpt lat="45.346203063906444" lon="8.050316921967898"><ele>242.00000000000003</ele><time>2026-04-11T08:20:26.984Z</time></trkpt><trkpt lat="45.34612711613406" lon="8.050255894784632"><ele>242.0</ele><time>2026-04-11T08:20:28.984Z</time></trkpt><trkpt lat="45.34607455169123" lon="8.050192034967809"><ele>242.2</ele><time>2026-04-11T08:20:30.984Z</time></trkpt><trkpt lat="45.34599478370455" lon="8.050156325754598"><ele>242.39999999999998</ele><time>2026-04-11T08:20:32.984Z</time></trkpt><trkpt lat="45.345895434416725" lon="8.050124040391818"><ele>242.60000000000002</ele><time>2026-04-11T08:20:34.984Z</time></trkpt><trkpt lat="45.34579343096178" lon="8.050012585189933"><ele>242.8</ele><time>2026-04-11T08:20:36.984Z</time></trkpt><trkpt lat="45.345735336335615" lon="8.04994948806759"><ele>243.0</ele><time>2026-04-11T08:20:37.984Z</time></trkpt><trkpt lat="45.34566558611115" lon="8.04989524013302"><ele>243.0</ele><time>2026-04-11T08:20:38.984Z</time></trkpt><trkpt lat="45.34558295275372" lon="8.049835322616346"><ele>243.0</ele><time>2026-04-11T08:20:39.984Z</time></trkpt><trkpt lat="45.34549806158095" lon="8.049771643838241"><ele>243.0</ele><time>2026-04-11T08:20:40.984Z</time></trkpt><trkpt lat="45.345417826868534" lon="8.04971442657487"><ele>243.0</ele><time>2026-04-11T08:20:41.984Z</time></trkpt><trkpt lat="45.34534139759448" lon="8.049658603169187"><ele>243.0</ele><time>2026-04-11T08:20:42.984Z</time></trkpt><trkpt lat="45.34526908206236" lon="8.049602878676575"><ele>243.0</ele><time>2026-04-11T08:20:43.984Z</time></trkpt><trkpt lat="45.34518485099126" lon="8.049553660171231"><ele>243.0</ele><time>2026-04-11T08:20:44.984Z</time></trkpt><trkpt lat="45.34509479011931" lon="8.049490215649884"><ele>243.0</ele><time>2026-04-11T08:20:45.983Z</time></trkpt><trkpt lat="45.34499682005161" lon="8.049426356594504"><ele>243.0</ele><time>2026-04-11T08:20:46.983Z</time></trkpt><trkpt lat="45.34490095549594" lon="8.049357266463444"><ele>243.0</ele><time>2026-04-11T08:20:47.983Z</time></trkpt><trkpt lat="45.344806892995734" lon="8.049286589246732"><ele>243.0</ele><time>2026-04-11T08:20:48.987Z</time></trkpt><trkpt lat="45.34472563419055" lon="8.049185446540234"><ele>243.0</ele><time>2026-04-11T08:20:49.986Z</time></trkpt><trkpt lat="45.34463830213839" lon="8.049113086474554"><ele>243.0</ele><time>2026-04-11T08:20:50.986Z</time></trkpt><trkpt lat="45.34455094143764" lon="8.049048122491538"><ele>243.0</ele><time>2026-04-11T08:20:51.986Z</time></trkpt><trkpt lat="45.344455773094595" lon="8.048987446010917"><ele>243.0</ele><time>2026-04-11T08:20:52.986Z</time></trkpt><trkpt lat="45.3443603976057" lon="8.048932164165915"><ele>243.0</ele><time>2026-04-11T08:20:53.986Z</time></trkpt><trkpt lat="45.344268667607594" lon="8.048873444899224"><ele>243.0</ele><time>2026-04-11T08:20:54.986Z</time></trkpt><trkpt lat="45.34417374944697" lon="8.048809654818605"><ele>243.0</ele><time>2026-04-11T08:20:55.986Z</time></trkpt><trkpt lat="45.34407230847103" lon="8.048736788387263"><ele>243.0</ele><time>2026-04-11T08:20:56.986Z</time></trkpt><trkpt lat="45.34396457048794" lon="8.048661595351449"><ele>243.0</ele><time>2026-04-11T08:20:57.986Z</time></trkpt><trkpt lat="45.343861612927135" lon="8.048589259605155"><ele>242.75</ele><time>2026-04-11T08:20:58.986Z</time></trkpt><trkpt lat="45.34375584968477" lon="8.04852131210607"><ele>242.5</ele><time>2026-04-11T08:20:59.986Z</time></trkpt><trkpt lat="45.34364318967143" lon="8.048442791829762"><ele>242.25</ele><time>2026-04-11T08:21:00.987Z</time></trkpt><trkpt lat="45.34352923928267" lon="8.048362810966086"><ele>242.0</ele><time>2026-04-11T08:21:01.986Z</time></trkpt><trkpt lat="45.34341719061628" lon="8.04828084054934"><ele>242.0</ele><time>2026-04-11T08:21:02.986Z</time></trkpt><trkpt lat="45.34330746979155" lon="8.048202829112414"><ele>242.0</ele><time>2026-04-11T08:21:03.986Z</time></trkpt><trkpt lat="45.34319695701567" lon="8.048122716908829"><ele>242.0</ele><time>2026-04-11T08:21:04.986Z</time></trkpt><trkpt lat="45.34308045907799" lon="8.048040433399601"><ele>242.0</ele><time>2026-04-11T08:21:05.986Z</time></trkpt><trkpt lat="45.34296063857948" lon="8.047957966032934"><ele>241.33333333333334</ele><time>2026-04-11T08:21:06.986Z</time></trkpt><trkpt lat="45.34282788289179" lon="8.047873512292748"><ele>240.66666666666669</ele><time>2026-04-11T08:21:07.986Z</time></trkpt><trkpt lat="45.34269566570038" lon="8.047756265178089"><ele>240.0</ele><time>2026-04-11T08:21:08.986Z</time></trkpt><trkpt lat="45.34252188400288" lon="8.047631898827484"><ele>240.0</ele><time>2026-04-11T08:21:09.986Z</time></trkpt><trkpt lat="45.34233474964978" lon="8.047494634386787"><ele>240.0</ele><time>2026-04-11T08:21:10.986Z</time></trkpt><trkpt lat="45.34215083045199" lon="8.047359726345245"><ele>240.0</ele><time>2026-04-11T08:21:11.986Z</time></trkpt><trkpt lat="45.34198748519769" lon="8.04723538802632"><ele>240.0</ele><time>2026-04-11T08:21:12.986Z</time></trkpt><trkpt lat="45.34182717142392" lon="8.047118739556726"><ele>240.0</ele><time>2026-04-11T08:21:13.985Z</time></trkpt><trkpt lat="45.341675550023524" lon="8.047012068211266"><ele>240.0</ele><time>2026-04-11T08:21:14.985Z</time></trkpt><trkpt lat="45.34152906242611" lon="8.04690651420826"><ele>240.0</ele><time>2026-04-11T08:21:15.985Z</time></trkpt><trkpt lat="45.34138451404569" lon="8.046802037497393"><ele>240.0</ele><time>2026-04-11T08:21:16.985Z</time></trkpt><trkpt lat="45.341234871753336" lon="8.046692080210889"><ele>240.0</ele><time>2026-04-11T08:21:17.985Z</time></trkpt><trkpt lat="45.34107939950544" lon="8.046582076999828"><ele>239.66666666666669</ele><time>2026-04-11T08:21:18.985Z</time></trkpt><trkpt lat="45.340919045950486" lon="8.046467486899626"><ele>239.33333333333334</ele><time>2026-04-11T08:21:19.985Z</time></trkpt><trkpt lat="45.34075304178186" lon="8.04635170439215"><ele>239.0</ele><time>2026-04-11T08:21:20.985Z</time></trkpt><trkpt lat="45.340579877271146" lon="8.046229705026732"><ele>239.33333333333334</ele><time>2026-04-11T08:21:21.985Z</time></trkpt><trkpt lat="45.34040063420572" lon="8.046102106045783"><ele>239.66666666666669</ele><time>2026-04-11T08:21:22.985Z</time></trkpt><trkpt lat="45.34021456172724" lon="8.045970346357379"><ele>240.0</ele><time>2026-04-11T08:21:23.985Z</time></trkpt><trkpt lat="45.34002222934987" lon="8.04583245803504"><ele>241.0</ele><time>2026-04-11T08:21:24.985Z</time></trkpt><trkpt lat="45.33982297608836" lon="8.045688295640756"><ele>242.0</ele><time>2026-04-11T08:21:25.985Z</time></trkpt><trkpt lat="45.3396208450505" lon="8.045540498945996"><ele>242.0</ele><time>2026-04-11T08:21:26.985Z</time></trkpt><trkpt lat="45.3394181181163" lon="8.045391391309733"><ele>242.0</ele><time>2026-04-11T08:21:27.985Z</time></trkpt><trkpt lat="45.339226781476434" lon="8.045248258399791"><ele>242.0</ele><time>2026-04-11T08:21:28.985Z</time></trkpt><trkpt lat="45.33903728342501" lon="8.045114704541943"><ele>241.66666666666669</ele><time>2026-04-11T08:21:29.985Z</time></trkpt><trkpt lat="45.3388387463965" lon="8.044976167523416"><ele>241.33333333333331</ele><time>2026-04-11T08:21:30.985Z</time></trkpt><trkpt lat="45.33863459565247" lon="8.044831406342004"><ele>241.0</ele><time>2026-04-11T08:21:31.985Z</time></trkpt><trkpt lat="45.33842272494759" lon="8.044680940149139"><ele>241.0</ele><time>2026-04-11T08:21:32.985Z</time></trkpt><trkpt lat="45.33820565282024" lon="8.044527429636771"><ele>241.0</ele><time>2026-04-11T08:21:33.985Z</time></trkpt><trkpt lat="45.33798679475952" lon="8.044370734427302"><ele>241.0</ele><time>2026-04-11T08:21:34.985Z</time></trkpt><trkpt lat="45.337781086673914" lon="8.044222476419334"><ele>241.0</ele><time>2026-04-11T08:21:35.985Z</time></trkpt><trkpt lat="45.33757666662645" lon="8.044075842229098"><ele>241.0</ele><time>2026-04-11T08:21:36.985Z</time></trkpt><trkpt lat="45.337365352884326" lon="8.043924142434081"><ele>241.0</ele><time>2026-04-11T08:21:37.985Z</time></trkpt><trkpt lat="45.33715208894204" lon="8.04377521850986"><ele>240.5</ele><time>2026-04-11T08:21:38.985Z</time></trkpt><trkpt lat="45.33693206901501" lon="8.043623849090947"><ele>240.0</ele><time>2026-04-11T08:21:39.985Z</time></trkpt><trkpt lat="45.33670851354118" lon="8.043466746954854"><ele>240.0</ele><time>2026-04-11T08:21:40.985Z</time></trkpt><trkpt lat="45.33648442240043" lon="8.04330877329496"><ele>240.0</ele><time>2026-04-11T08:21:41.985Z</time></trkpt><trkpt lat="45.33626778625916" lon="8.043127479054421"><ele>239.0</ele><time>2026-04-11T08:21:42.985Z</time></trkpt><trkpt lat="45.33604289232855" lon="8.042964603591154"><ele>238.0</ele><time>2026-04-11T08:21:43.985Z</time></trkpt><trkpt lat="45.335815855412946" lon="8.042800176071077"><ele>238.0</ele><time>2026-04-11T08:21:44.985Z</time></trkpt><trkpt lat="45.33558689779675" lon="8.042634357554498"><ele>238.0</ele><time>2026-04-11T08:21:45.984Z</time></trkpt><trkpt lat="45.33535996045715" lon="8.042470002151607"><ele>237.5</ele><time>2026-04-11T08:21:46.984Z</time></trkpt><trkpt lat="45.3351295512684" lon="8.0423226789803"><ele>237.0</ele><time>2026-04-11T08:21:47.984Z</time></trkpt><trkpt lat="45.33490954081151" lon="8.042156940740531"><ele>237.0</ele><time>2026-04-11T08:21:48.984Z</time></trkpt><trkpt lat="45.33468690246195" lon="8.041990783672139"><ele>237.0</ele><time>2026-04-11T08:21:49.984Z</time></trkpt><trkpt lat="45.33446398420933" lon="8.041828863119166"><ele>237.0</ele><time>2026-04-11T08:21:50.984Z</time></trkpt><trkpt lat="45.33424090648074" lon="8.041664665557597"><ele>237.0</ele><time>2026-04-11T08:21:51.984Z</time></trkpt><trkpt lat="45.334018272396115" lon="8.041498626057512"><ele>237.0</ele><time>2026-04-11T08:21:52.984Z</time></trkpt><trkpt lat="45.3337917611169" lon="8.041334379500343"><ele>237.0</ele><time>2026-04-11T08:21:53.984Z</time></trkpt><trkpt lat="45.33356556411409" lon="8.041170824140154"><ele>237.0</ele><time>2026-04-11T08:21:54.984Z</time></trkpt><trkpt lat="45.333335330112895" lon="8.041005085872266"><ele>237.0</ele><time>2026-04-11T08:21:55.984Z</time></trkpt><trkpt lat="45.33310270310152" lon="8.04083816221155"><ele>237.0</ele><time>2026-04-11T08:21:56.984Z</time></trkpt><trkpt lat="45.33286918338052" lon="8.040669629880881"><ele>237.0</ele><time>2026-04-11T08:21:57.984Z</time></trkpt><trkpt lat="45.33263560316938" lon="8.040501295895265"><ele>237.0</ele><time>2026-04-11T08:21:58.984Z</time></trkpt><trkpt lat="45.332401990705485" lon="8.040331531171729"><ele>237.0</ele><time>2026-04-11T08:21:59.984Z</time></trkpt><trkpt lat="45.33216978853178" lon="8.040162818280287"><ele>237.0</ele><time>2026-04-11T08:22:00.984Z</time></trkpt><trkpt lat="45.331938581414136" lon="8.039993580292764"><ele>237.0</ele><time>2026-04-11T08:22:01.984Z</time></trkpt><trkpt lat="45.331705705974" lon="8.039824872651677"><ele>237.0</ele><time>2026-04-11T08:22:02.984Z</time></trkpt><trkpt lat="45.331473922347776" lon="8.039661141745372"><ele>237.0</ele><time>2026-04-11T08:22:03.984Z</time></trkpt><trkpt lat="45.33124261242896" lon="8.039496823703153"><ele>237.0</ele><time>2026-04-11T08:22:04.984Z</time></trkpt><trkpt lat="45.331011476057206" lon="8.03933146531457"><ele>237.0</ele><time>2026-04-11T08:22:05.984Z</time></trkpt><trkpt lat="45.330782736397886" lon="8.03916532385312"><ele>237.0</ele><time>2026-04-11T08:22:06.984Z</time></trkpt><trkpt lat="45.33055231224752" lon="8.039000279427869"><ele>237.0</ele><time>2026-04-11T08:22:07.984Z</time></trkpt><trkpt lat="45.330321642647526" lon="8.038835427056805"><ele>237.0</ele><time>2026-04-11T08:22:08.984Z</time></trkpt><trkpt lat="45.330092869648674" lon="8.038669664924736"><ele>237.0</ele><time>2026-04-11T08:22:09.984Z</time></trkpt><trkpt lat="45.32986079890993" lon="8.038503550147778"><ele>237.0</ele><time>2026-04-11T08:22:10.984Z</time></trkpt><trkpt lat="45.32962872008608" lon="8.038335672360175"><ele>237.0</ele><time>2026-04-11T08:22:11.984Z</time></trkpt><trkpt lat="45.32939527212786" lon="8.038167704090538"><ele>237.5</ele><time>2026-04-11T08:22:12.984Z</time></trkpt><trkpt lat="45.32916148524943" lon="8.037999294980091"><ele>238.0</ele><time>2026-04-11T08:22:13.984Z</time></trkpt><trkpt lat="45.32892634828332" lon="8.03783078630448"><ele>237.0</ele><time>2026-04-11T08:22:14.984Z</time></trkpt><trkpt lat="45.32869107238119" lon="8.037663095466932"><ele>236.0</ele><time>2026-04-11T08:22:15.984Z</time></trkpt><trkpt lat="45.328454454384875" lon="8.037495295538557"><ele>236.0</ele><time>2026-04-11T08:22:16.984Z</time></trkpt><trkpt lat="45.3282197476337" lon="8.037327953651603"><ele>236.0</ele><time>2026-04-11T08:22:17.983Z</time></trkpt><trkpt lat="45.32798645664081" lon="8.03716157000165"><ele>236.0</ele><time>2026-04-11T08:22:18.983Z</time></trkpt><trkpt lat="45.32775295703174" lon="8.036996349696688"><ele>236.0</ele><time>2026-04-11T08:22:19.983Z</time></trkpt><trkpt lat="45.32751744911238" lon="8.036832302666896"><ele>236.0</ele><time>2026-04-11T08:22:20.983Z</time></trkpt><trkpt lat="45.32728332729574" lon="8.0366685005172"><ele>236.0</ele><time>2026-04-11T08:22:21.983Z</time></trkpt><trkpt lat="45.327047693314654" lon="8.036502337453866"><ele>236.5</ele><time>2026-04-11T08:22:22.983Z</time></trkpt><trkpt lat="45.32681118714491" lon="8.036336562804854"><ele>237.0</ele><time>2026-04-11T08:22:23.983Z</time></trkpt><trkpt lat="45.326576902101955" lon="8.036171768266062"><ele>236.0</ele><time>2026-04-11T08:22:24.983Z</time></trkpt><trkpt lat="45.326341514557875" lon="8.036006966957304"><ele>235.0</ele><time>2026-04-11T08:22:25.983Z</time></trkpt><trkpt lat="45.326105443122714" lon="8.035840138284211"><ele>235.5</ele><time>2026-04-11T08:22:26.983Z</time></trkpt><trkpt lat="45.325869009348665" lon="8.035672316541696"><ele>236.0</ele><time>2026-04-11T08:22:27.983Z</time></trkpt><trkpt lat="45.32563197143187" lon="8.035503087855746"><ele>235.5</ele><time>2026-04-11T08:22:28.983Z</time></trkpt><trkpt lat="45.3253926062231" lon="8.035335346892191"><ele>235.0</ele><time>2026-04-11T08:22:29.983Z</time></trkpt><trkpt lat="45.32515701197911" lon="8.035169573989286"><ele>235.0</ele><time>2026-04-11T08:22:30.983Z</time></trkpt><trkpt lat="45.32492611592466" lon="8.035006671998714"><ele>235.0</ele><time>2026-04-11T08:22:31.983Z</time></trkpt><trkpt lat="45.32469690596813" lon="8.034845124227036"><ele>235.5</ele><time>2026-04-11T08:22:32.983Z</time></trkpt><trkpt lat="45.32447067267352" lon="8.03468491852642"><ele>236.0</ele><time>2026-04-11T08:22:33.983Z</time></trkpt><trkpt lat="45.324248730629385" lon="8.034526581025572"><ele>236.0</ele><time>2026-04-11T08:22:34.983Z</time></trkpt><trkpt lat="45.32403159773874" lon="8.034369846217993"><ele>236.0</ele><time>2026-04-11T08:22:35.983Z</time></trkpt><trkpt lat="45.32381712017769" lon="8.03421742115176"><ele>235.5</ele><time>2026-04-11T08:22:36.983Z</time></trkpt><trkpt lat="45.323606901587624" lon="8.034068822342094"><ele>235.0</ele><time>2026-04-11T08:22:37.983Z</time></trkpt><trkpt lat="45.32339977485314" lon="8.033922726685264"><ele>235.0</ele><time>2026-04-11T08:22:38.983Z</time></trkpt><trkpt lat="45.32319192091148" lon="8.033775687907465"><ele>235.0</ele><time>2026-04-11T08:22:39.983Z</time></trkpt><trkpt lat="45.32298289162244" lon="8.033627544552457"><ele>234.0</ele><time>2026-04-11T08:22:40.983Z</time></trkpt><trkpt lat="45.32277371369141" lon="8.03347693486327"><ele>233.0</ele><time>2026-04-11T08:22:41.983Z</time></trkpt><trkpt lat="45.3225646681082" lon="8.03332793533867"><ele>233.0</ele><time>2026-04-11T08:22:42.983Z</time></trkpt><trkpt lat="45.322354197025106" lon="8.033177619923974"><ele>233.0</ele><time>2026-04-11T08:22:43.983Z</time></trkpt><trkpt lat="45.322144049464086" lon="8.03302650759709"><ele>233.0</ele><time>2026-04-11T08:22:44.983Z</time></trkpt><trkpt lat="45.32193681972917" lon="8.032879619338221"><ele>233.0</ele><time>2026-04-11T08:22:45.983Z</time></trkpt><trkpt lat="45.32173442958912" lon="8.032737108351348"><ele>233.0</ele><time>2026-04-11T08:22:46.983Z</time></trkpt><trkpt lat="45.32153977768016" lon="8.032596709562771"><ele>233.0</ele><time>2026-04-11T08:22:47.983Z</time></trkpt><trkpt lat="45.32135094508655" lon="8.032460337649884"><ele>233.0</ele><time>2026-04-11T08:22:48.982Z</time></trkpt><trkpt lat="45.321170986623876" lon="8.032328270578622"><ele>233.33333333333334</ele><time>2026-04-11T08:22:49.982Z</time></trkpt><trkpt lat="45.32099727378561" lon="8.032200473435495"><ele>233.66666666666669</ele><time>2026-04-11T08:22:50.982Z</time></trkpt><trkpt lat="45.32082682014339" lon="8.032079399370847"><ele>234.0</ele><time>2026-04-11T08:22:51.982Z</time></trkpt><trkpt lat="45.32066286688028" lon="8.03196318561782"><ele>234.33333333333331</ele><time>2026-04-11T08:22:52.982Z</time></trkpt><trkpt lat="45.32050332629416" lon="8.03184961845774"><ele>234.66666666666666</ele><time>2026-04-11T08:22:53.982Z</time></trkpt><trkpt lat="45.320348021414915" lon="8.031737634282493"><ele>235.0</ele><time>2026-04-11T08:22:54.985Z</time></trkpt><trkpt lat="45.320196370597856" lon="8.031629928425906"><ele>235.0</ele><time>2026-04-11T08:22:55.986Z</time></trkpt><trkpt lat="45.32005025980772" lon="8.031520633796337"><ele>235.0</ele><time>2026-04-11T08:22:56.986Z</time></trkpt><trkpt lat="45.319911549580006" lon="8.031418138010268"><ele>235.0</ele><time>2026-04-11T08:22:57.986Z</time></trkpt><trkpt lat="45.31977788121891" lon="8.031323705184734"><ele>235.0</ele><time>2026-04-11T08:22:58.985Z</time></trkpt><trkpt lat="45.31964832589211" lon="8.031233230507585"><ele>235.0</ele><time>2026-04-11T08:22:59.985Z</time></trkpt><trkpt lat="45.3195278269162" lon="8.03114806926243"><ele>235.0</ele><time>2026-04-11T08:23:00.985Z</time></trkpt><trkpt lat="45.319416562965415" lon="8.031069829829898"><ele>235.0</ele><time>2026-04-11T08:23:01.985Z</time></trkpt><trkpt lat="45.31931634328868" lon="8.030997998073587"><ele>234.99999999999997</ele><time>2026-04-11T08:23:02.985Z</time></trkpt><trkpt lat="45.31923050321491" lon="8.030916023571793"><ele>235.0</ele><time>2026-04-11T08:23:03.986Z</time></trkpt><trkpt lat="45.31917093026465" lon="8.030815314250198"><ele>235.0</ele><time>2026-04-11T08:23:04.985Z</time></trkpt><trkpt lat="45.31913067223338" lon="8.030707982939132"><ele>235.0</ele><time>2026-04-11T08:23:05.985Z</time></trkpt><trkpt lat="45.31908467345706" lon="8.030626000147766"><ele>234.99999999999997</ele><time>2026-04-11T08:23:06.985Z</time></trkpt><trkpt lat="45.31902243777885" lon="8.030578242352766"><ele>235.0</ele><time>2026-04-11T08:23:07.985Z</time></trkpt><trkpt lat="45.31895810513339" lon="8.030574398230891"><ele>235.2</ele><time>2026-04-11T08:23:08.985Z</time></trkpt><trkpt lat="45.31887726414604" lon="8.030601343824982"><ele>235.4</ele><time>2026-04-11T08:23:09.985Z</time></trkpt><trkpt lat="45.31878064635872" lon="8.03058697315071"><ele>235.60000000000002</ele><time>2026-04-11T08:23:10.985Z</time></trkpt><trkpt lat="45.318678309274766" lon="8.030527733583828"><ele>235.8</ele><time>2026-04-11T08:23:11.985Z</time></trkpt><trkpt lat="45.31855229927948" lon="8.03044175830084"><ele>236.0</ele><time>2026-04-11T08:23:12.985Z</time></trkpt><trkpt lat="45.31840909438014" lon="8.030345445761231"><ele>236.0</ele><time>2026-04-11T08:23:13.985Z</time></trkpt><trkpt lat="45.31827152303959" lon="8.030246761168614"><ele>236.0</ele><time>2026-04-11T08:23:14.985Z</time></trkpt><trkpt lat="45.31814887435123" lon="8.03015850568563"><ele>236.0</ele><time>2026-04-11T08:23:15.985Z</time></trkpt><trkpt lat="45.31803592575265" lon="8.030081007997314"><ele>236.0</ele><time>2026-04-11T08:23:16.985Z</time></trkpt><trkpt lat="45.3179353543163" lon="8.03000900568603"><ele>235.66666666666669</ele><time>2026-04-11T08:23:17.985Z</time></trkpt><trkpt lat="45.317841553858884" lon="8.029950000522"><ele>235.33333333333334</ele><time>2026-04-11T08:23:18.985Z</time></trkpt><trkpt lat="45.31776017369283" lon="8.029889817875084"><ele>235.0</ele><time>2026-04-11T08:23:19.985Z</time></trkpt><trkpt lat="45.31768279049557" lon="8.029836444234096"><ele>234.66666666666669</ele><time>2026-04-11T08:23:20.985Z</time></trkpt><trkpt lat="45.31760992216892" lon="8.02978651302595"><ele>234.33333333333334</ele><time>2026-04-11T08:23:21.985Z</time></trkpt><trkpt lat="45.31754176319385" lon="8.02973500206021"><ele>234.0</ele><time>2026-04-11T08:23:22.985Z</time></trkpt><trkpt lat="45.31747636013595" lon="8.02967728179663"><ele>234.0</ele><time>2026-04-11T08:23:23.985Z</time></trkpt><trkpt lat="45.31741732185396" lon="8.029601499472934"><ele>233.99999999999997</ele><time>2026-04-11T08:23:24.985Z</time></trkpt><trkpt lat="45.317371516369164" lon="8.029501480533678"><ele>233.99999999999997</ele><time>2026-04-11T08:23:25.985Z</time></trkpt><trkpt lat="45.31733691325707" lon="8.029380974841716"><ele>234.0</ele><time>2026-04-11T08:23:26.984Z</time></trkpt><trkpt lat="45.31730284087793" lon="8.029253951298868"><ele>234.0</ele><time>2026-04-11T08:23:27.984Z</time></trkpt><trkpt lat="45.31724974521355" lon="8.029133374946063"><ele>234.25</ele><time>2026-04-11T08:23:28.984Z</time></trkpt><trkpt lat="45.317163988690154" lon="8.029038295852036"><ele>234.5</ele><time>2026-04-11T08:23:29.984Z</time></trkpt><trkpt lat="45.31706197704853" lon="8.028974401860806"><ele>234.75</ele><time>2026-04-11T08:23:30.984Z</time></trkpt><trkpt lat="45.316946109211116" lon="8.028963815615136"><ele>235.0</ele><time>2026-04-11T08:23:31.984Z</time></trkpt><trkpt lat="45.316830350552536" lon="8.028995098778164"><ele>235.0</ele><time>2026-04-11T08:23:32.984Z</time></trkpt><trkpt lat="45.31671004185242" lon="8.029026502276457"><ele>235.0</ele><time>2026-04-11T08:23:33.984Z</time></trkpt><trkpt lat="45.316583382795834" lon="8.02900918394928"><ele>235.0</ele><time>2026-04-11T08:23:34.984Z</time></trkpt><trkpt lat="45.31645831213983" lon="8.028944228634943"><ele>235.0</ele><time>2026-04-11T08:23:35.984Z</time></trkpt><trkpt lat="45.31632844851562" lon="8.02885470002354"><ele>235.0</ele><time>2026-04-11T08:23:36.984Z</time></trkpt><trkpt lat="45.31618863540925" lon="8.028763878227341"><ele>235.0</ele><time>2026-04-11T08:23:37.984Z</time></trkpt><trkpt lat="45.316060301675904" lon="8.02864779860842"><ele>235.0</ele><time>2026-04-11T08:23:38.984Z</time></trkpt><trkpt lat="45.315928505118606" lon="8.028552652438302"><ele>235.0</ele><time>2026-04-11T08:23:39.984Z</time></trkpt><trkpt lat="45.31578306901131" lon="8.028473258303054"><ele>235.0</ele><time>2026-04-11T08:23:40.984Z</time></trkpt><trkpt lat="45.31564020641261" lon="8.028370694737733"><ele>235.0</ele><time>2026-04-11T08:23:41.984Z</time></trkpt><trkpt lat="45.31550097987003" lon="8.028268797798507"><ele>235.0</ele><time>2026-04-11T08:23:42.984Z</time></trkpt><trkpt lat="45.31536446928429" lon="8.028168946889016"><ele>235.0</ele><time>2026-04-11T08:23:43.984Z</time></trkpt><trkpt lat="45.31522929197093" lon="8.028069058480929"><ele>235.0</ele><time>2026-04-11T08:23:44.984Z</time></trkpt><trkpt lat="45.31509391395756" lon="8.027972957300287"><ele>235.0</ele><time>2026-04-11T08:23:45.984Z</time></trkpt><trkpt lat="45.31495682569074" lon="8.027874334806691"><ele>235.0</ele><time>2026-04-11T08:23:46.984Z</time></trkpt><trkpt lat="45.31481923312806" lon="8.0277764374816"><ele>235.0</ele><time>2026-04-11T08:23:47.984Z</time></trkpt><trkpt lat="45.31467893006551" lon="8.027679207903532"><ele>235.0</ele><time>2026-04-11T08:23:48.984Z</time></trkpt><trkpt lat="45.31453845812548" lon="8.027577163422865"><ele>235.0</ele><time>2026-04-11T08:23:49.984Z</time></trkpt><trkpt lat="45.314403209217716" lon="8.027458543520769"><ele>235.0</ele><time>2026-04-11T08:23:50.984Z</time></trkpt><trkpt lat="45.314262373960624" lon="8.02735141305702"><ele>235.0</ele><time>2026-04-11T08:23:51.984Z</time></trkpt><trkpt lat="45.31412931845844" lon="8.02725313514999"><ele>235.0</ele><time>2026-04-11T08:23:52.984Z</time></trkpt><trkpt lat="45.31400762035605" lon="8.02716647338928"><ele>235.0</ele><time>2026-04-11T08:23:53.984Z</time></trkpt><trkpt lat="45.313895183207954" lon="8.027086299292916"><ele>235.0</ele><time>2026-04-11T08:23:54.984Z</time></trkpt><trkpt lat="45.3137912900999" lon="8.027009905135"><ele>235.5</ele><time>2026-04-11T08:23:55.984Z</time></trkpt><trkpt lat="45.313677504767114" lon="8.026937516459867"><ele>236.0</ele><time>2026-04-11T08:23:56.984Z</time></trkpt><trkpt lat="45.31355374807453" lon="8.026855468861"><ele>236.5</ele><time>2026-04-11T08:23:57.984Z</time></trkpt><trkpt lat="45.31342502242806" lon="8.026765612953774"><ele>237.0</ele><time>2026-04-11T08:23:58.983Z</time></trkpt><trkpt lat="45.31329361624957" lon="8.026669420401294"><ele>237.0</ele><time>2026-04-11T08:23:59.983Z</time></trkpt><trkpt lat="45.31315935741737" lon="8.026572302148864"><ele>237.0</ele><time>2026-04-11T08:24:00.983Z</time></trkpt><trkpt lat="45.31302262649905" lon="8.026478298655551"><ele>237.0</ele><time>2026-04-11T08:24:01.983Z</time></trkpt><trkpt lat="45.31288568804301" lon="8.026384993210362"><ele>237.66666666666669</ele><time>2026-04-11T08:24:02.983Z</time></trkpt><trkpt lat="45.312747641973175" lon="8.02628971070138"><ele>238.33333333333334</ele><time>2026-04-11T08:24:03.983Z</time></trkpt><trkpt lat="45.312607706594704" lon="8.026189584087343"><ele>239.0</ele><time>2026-04-11T08:24:04.983Z</time></trkpt><trkpt lat="45.31246881774513" lon="8.026088843574623"><ele>239.0</ele><time>2026-04-11T08:24:05.983Z</time></trkpt><trkpt lat="45.31232850167478" lon="8.025987000244239"><ele>239.0</ele><time>2026-04-11T08:24:06.983Z</time></trkpt><trkpt lat="45.3121895166832" lon="8.02588962508545"><ele>239.0</ele><time>2026-04-11T08:24:07.983Z</time></trkpt><trkpt lat="45.31205595984743" lon="8.025796802383425"><ele>238.75</ele><time>2026-04-11T08:24:08.983Z</time></trkpt><trkpt lat="45.311926604235474" lon="8.025708750274479"><ele>238.5</ele><time>2026-04-11T08:24:09.983Z</time></trkpt><trkpt lat="45.31180980784949" lon="8.025601449994543"><ele>238.25</ele><time>2026-04-11T08:24:10.983Z</time></trkpt><trkpt lat="45.31168705621112" lon="8.025513368222706"><ele>238.0</ele><time>2026-04-11T08:24:11.983Z</time></trkpt><trkpt lat="45.31155354451652" lon="8.025440615605069"><ele>238.0</ele><time>2026-04-11T08:24:12.983Z</time></trkpt><trkpt lat="45.311424484011624" lon="8.025347063328612"><ele>238.0</ele><time>2026-04-11T08:24:13.983Z</time></trkpt><trkpt lat="45.311294765945114" lon="8.025253049161654"><ele>238.0</ele><time>2026-04-11T08:24:14.983Z</time></trkpt><trkpt lat="45.31116511191213" lon="8.025162942650578"><ele>238.0</ele><time>2026-04-11T08:24:15.983Z</time></trkpt><trkpt lat="45.31103513538803" lon="8.025077962249624"><ele>238.0</ele><time>2026-04-11T08:24:16.983Z</time></trkpt><trkpt lat="45.31091542086593" lon="8.024969826590468"><ele>238.0</ele><time>2026-04-11T08:24:17.983Z</time></trkpt><trkpt lat="45.31078965291638" lon="8.024880864109928"><ele>238.0</ele><time>2026-04-11T08:24:18.983Z</time></trkpt><trkpt lat="45.310662238012654" lon="8.024790870564255"><ele>238.0</ele><time>2026-04-11T08:24:19.983Z</time></trkpt><trkpt lat="45.31053462017065" lon="8.024707770925104"><ele>238.0</ele><time>2026-04-11T08:24:20.983Z</time></trkpt><trkpt lat="45.310398652388415" lon="8.024658391704852"><ele>238.0</ele><time>2026-04-11T08:24:21.983Z</time></trkpt><trkpt lat="45.31027426040352" lon="8.024596467265342"><ele>238.0</ele><time>2026-04-11T08:24:22.983Z</time></trkpt><trkpt lat="45.31015177245395" lon="8.024550765893352"><ele>238.0</ele><time>2026-04-11T08:24:23.983Z</time></trkpt><trkpt lat="45.31004473464143" lon="8.024487424768168"><ele>237.99999999999997</ele><time>2026-04-11T08:24:24.983Z</time></trkpt><trkpt lat="45.309944236152006" lon="8.02444590274357"><ele>238.0</ele><time>2026-04-11T08:24:25.983Z</time></trkpt><trkpt lat="45.30986520288785" lon="8.024417391816694"><ele>238.0</ele><time>2026-04-11T08:24:26.983Z</time></trkpt><trkpt lat="45.30979138702572" lon="8.024411255956199"><ele>238.0</ele><time>2026-04-11T08:24:28.983Z</time></trkpt><trkpt lat="45.309714425104865" lon="8.024399633492799"><ele>237.99999999999997</ele><time>2026-04-11T08:24:31.982Z</time></trkpt><trkpt lat="45.30961520076675" lon="8.024378929684794"><ele>238.0</ele><time>2026-04-11T08:24:33.982Z</time></trkpt><trkpt lat="45.30950195807683" lon="8.024322112509068"><ele>238.0</ele><time>2026-04-11T08:24:35.982Z</time></trkpt><trkpt lat="45.30945005352419" lon="8.02427042713724"><ele>238.0</ele><time>2026-04-11T08:24:36.982Z</time></trkpt><trkpt lat="45.30941174238976" lon="8.024186255302606"><ele>238.0</ele><time>2026-04-11T08:24:37.982Z</time></trkpt><trkpt lat="45.30937462924391" lon="8.024095225615987"><ele>238.0</ele><time>2026-04-11T08:24:38.982Z</time></trkpt><trkpt lat="45.309344272961454" lon="8.024002212354876"><ele>238.0</ele><time>2026-04-11T08:24:39.982Z</time></trkpt><trkpt lat="45.309316622832405" lon="8.023901131369605"><ele>238.0</ele><time>2026-04-11T08:24:40.982Z</time></trkpt><trkpt lat="45.30928390692525" lon="8.023789089644483"><ele>238.0</ele><time>2026-04-11T08:24:41.982Z</time></trkpt><trkpt lat="45.309255414123534" lon="8.023666012612289"><ele>238.0</ele><time>2026-04-11T08:24:42.982Z</time></trkpt><trkpt lat="45.30921922990598" lon="8.023543335672459"><ele>238.0</ele><time>2026-04-11T08:24:43.982Z</time></trkpt><trkpt lat="45.30917874401761" lon="8.023429581208374"><ele>238.0</ele><time>2026-04-11T08:24:44.982Z</time></trkpt><trkpt lat="45.309138826506576" lon="8.02332179602974"><ele>238.0</ele><time>2026-04-11T08:24:45.982Z</time></trkpt><trkpt lat="45.3091154383018" lon="8.023222007780243"><ele>238.0</ele><time>2026-04-11T08:24:46.982Z</time></trkpt><trkpt lat="45.30911869291376" lon="8.023047074423902"><ele>238.49999999999997</ele><time>2026-04-11T08:24:48.982Z</time></trkpt><trkpt lat="45.30914376349138" lon="8.02294230167973"><ele>239.0</ele><time>2026-04-11T08:24:49.982Z</time></trkpt><trkpt lat="45.309165879845196" lon="8.022806807833152"><ele>239.5</ele><time>2026-04-11T08:24:50.982Z</time></trkpt><trkpt lat="45.30920179822124" lon="8.022693437951153"><ele>240.0</ele><time>2026-04-11T08:24:51.982Z</time></trkpt><trkpt lat="45.30923707684242" lon="8.02258802616162"><ele>240.49999999999997</ele><time>2026-04-11T08:24:52.982Z</time></trkpt><trkpt lat="45.30927974653088" lon="8.02249747678079"><ele>241.0</ele><time>2026-04-11T08:24:53.982Z</time></trkpt><trkpt lat="45.309310590274784" lon="8.022392547377622"><ele>241.33333333333331</ele><time>2026-04-11T08:24:54.982Z</time></trkpt><trkpt lat="45.30933763967843" lon="8.022285966277215"><ele>241.66666666666666</ele><time>2026-04-11T08:24:55.982Z</time></trkpt><trkpt lat="45.309362057437625" lon="8.022176757052536"><ele>242.0</ele><time>2026-04-11T08:24:56.982Z</time></trkpt><trkpt lat="45.309386604185185" lon="8.022060803098878"><ele>242.33333333333331</ele><time>2026-04-11T08:24:57.982Z</time></trkpt><trkpt lat="45.30940924988765" lon="8.021944286749916"><ele>242.66666666666666</ele><time>2026-04-11T08:24:58.982Z</time></trkpt><trkpt lat="45.30942885777823" lon="8.021833281930288"><ele>243.0</ele><time>2026-04-11T08:24:59.982Z</time></trkpt><trkpt lat="45.30943374315123" lon="8.02171921038958"><ele>243.16666666666666</ele><time>2026-04-11T08:25:00.984Z</time></trkpt><trkpt lat="45.30944582622406" lon="8.02159924421061"><ele>243.33333333333331</ele><time>2026-04-11T08:25:01.984Z</time></trkpt><trkpt lat="45.30946908931203" lon="8.021478631174837"><ele>243.5</ele><time>2026-04-11T08:25:02.984Z</time></trkpt><trkpt lat="45.30947598560019" lon="8.021357824403374"><ele>243.66666666666666</ele><time>2026-04-11T08:25:03.984Z</time></trkpt><trkpt lat="45.30948053642664" lon="8.02125497000628"><ele>243.83333333333331</ele><time>2026-04-11T08:25:04.984Z</time></trkpt><trkpt lat="45.30948402943515" lon="8.021162949162216"><ele>244.0</ele><time>2026-04-11T08:25:05.984Z</time></trkpt><trkpt lat="45.3094895878163" lon="8.020996831594967"><ele>244.0</ele><time>2026-04-11T08:25:07.984Z</time></trkpt><trkpt lat="45.30949345351658" lon="8.020881301419516"><ele>243.99999999999997</ele><time>2026-04-11T08:25:08.984Z</time></trkpt><trkpt lat="45.309481673570275" lon="8.02075272594999"><ele>243.99999999999997</ele><time>2026-04-11T08:25:09.984Z</time></trkpt><trkpt lat="45.30948589874136" lon="8.020618450221656"><ele>244.0</ele><time>2026-04-11T08:25:10.984Z</time></trkpt><trkpt lat="45.309507044941796" lon="8.020481840434224"><ele>244.0</ele><time>2026-04-11T08:25:11.984Z</time></trkpt><trkpt lat="45.30949665545035" lon="8.020347268467521"><ele>243.6</ele><time>2026-04-11T08:25:12.984Z</time></trkpt><trkpt lat="45.3094929342016" lon="8.020222957850978"><ele>243.2</ele><time>2026-04-11T08:25:13.984Z</time></trkpt><trkpt lat="45.30948832307721" lon="8.020099417883513"><ele>242.79999999999998</ele><time>2026-04-11T08:25:14.984Z</time></trkpt><trkpt lat="45.309461819013926" lon="8.019975752161624"><ele>242.39999999999998</ele><time>2026-04-11T08:25:15.984Z</time></trkpt><trkpt lat="45.3094117511129" lon="8.019848004405262"><ele>242.0</ele><time>2026-04-11T08:25:16.984Z</time></trkpt><trkpt lat="45.30934569585479" lon="8.019752631850107"><ele>242.0</ele><time>2026-04-11T08:25:17.984Z</time></trkpt><trkpt lat="45.309269818506046" lon="8.019704607873788"><ele>242.0</ele><time>2026-04-11T08:25:18.984Z</time></trkpt><trkpt lat="45.309181296720006" lon="8.01965905100293"><ele>242.0</ele><time>2026-04-11T08:25:19.984Z</time></trkpt><trkpt lat="45.30909642776767" lon="8.01961768108435"><ele>242.0</ele><time>2026-04-11T08:25:20.984Z</time></trkpt><trkpt lat="45.3090039145067" lon="8.019578759142888"><ele>242.0</ele><time>2026-04-11T08:25:21.984Z</time></trkpt><trkpt lat="45.30891682266618" lon="8.019540388686238"><ele>241.8</ele><time>2026-04-11T08:25:22.984Z</time></trkpt><trkpt lat="45.30884403253192" lon="8.019457260068474"><ele>241.6</ele><time>2026-04-11T08:25:23.984Z</time></trkpt><trkpt lat="45.308778004411394" lon="8.019348326094898"><ele>241.40000000000003</ele><time>2026-04-11T08:25:24.984Z</time></trkpt><trkpt lat="45.308713529961096" lon="8.01923222049604"><ele>241.20000000000002</ele><time>2026-04-11T08:25:25.984Z</time></trkpt><trkpt lat="45.30863154551194" lon="8.019095718064243"><ele>241.0</ele><time>2026-04-11T08:25:26.984Z</time></trkpt><trkpt lat="45.308547883774246" lon="8.01897279219259"><ele>241.0</ele><time>2026-04-11T08:25:27.984Z</time></trkpt><trkpt lat="45.30846927077353" lon="8.018859376233054"><ele>241.0</ele><time>2026-04-11T08:25:28.984Z</time></trkpt><trkpt lat="45.30839442214293" lon="8.018750874030234"><ele>241.0</ele><time>2026-04-11T08:25:29.984Z</time></trkpt><trkpt lat="45.30830324492731" lon="8.018634280269366"><ele>241.0</ele><time>2026-04-11T08:25:30.984Z</time></trkpt><trkpt lat="45.30821305730747" lon="8.018507322375877"><ele>241.0</ele><time>2026-04-11T08:25:31.984Z</time></trkpt><trkpt lat="45.30812297832283" lon="8.018379124241118"><ele>241.0</ele><time>2026-04-11T08:25:32.984Z</time></trkpt><trkpt lat="45.30803421864995" lon="8.018255744868306"><ele>241.0</ele><time>2026-04-11T08:25:33.984Z</time></trkpt><trkpt lat="45.3079472735467" lon="8.018134730879563"><ele>241.0</ele><time>2026-04-11T08:25:34.984Z</time></trkpt><trkpt lat="45.30785943426734" lon="8.01802628721159"><ele>240.8</ele><time>2026-04-11T08:25:35.984Z</time></trkpt><trkpt lat="45.307773785407115" lon="8.017923040558749"><ele>240.60000000000002</ele><time>2026-04-11T08:25:36.984Z</time></trkpt><trkpt lat="45.30769911049371" lon="8.017822835256592"><ele>240.4</ele><time>2026-04-11T08:25:37.984Z</time></trkpt><trkpt lat="45.3076247130326" lon="8.017732077181646"><ele>240.2</ele><time>2026-04-11T08:25:38.984Z</time></trkpt><trkpt lat="45.307552408570814" lon="8.017619087586136"><ele>240.0</ele><time>2026-04-11T08:25:39.984Z</time></trkpt><trkpt lat="45.30747872534194" lon="8.017485783229082"><ele>240.0</ele><time>2026-04-11T08:25:40.983Z</time></trkpt><trkpt lat="45.307389497461074" lon="8.017349292315288"><ele>240.0</ele><time>2026-04-11T08:25:41.983Z</time></trkpt><trkpt lat="45.30729558854865" lon="8.017199693081405"><ele>240.0</ele><time>2026-04-11T08:25:42.983Z</time></trkpt><trkpt lat="45.307197116919646" lon="8.017036596412192"><ele>240.0</ele><time>2026-04-11T08:25:43.983Z</time></trkpt><trkpt lat="45.30711130064196" lon="8.016870605849498"><ele>240.0</ele><time>2026-04-11T08:25:44.983Z</time></trkpt><trkpt lat="45.307020750530505" lon="8.01671598566808"><ele>240.0</ele><time>2026-04-11T08:25:45.983Z</time></trkpt><trkpt lat="45.306938619115186" lon="8.016570362151802"><ele>240.0</ele><time>2026-04-11T08:25:46.983Z</time></trkpt><trkpt lat="45.3068499388967" lon="8.016405701691147"><ele>240.0</ele><time>2026-04-11T08:25:47.983Z</time></trkpt><trkpt lat="45.306753741481074" lon="8.016246031705755"><ele>240.25</ele><time>2026-04-11T08:25:48.983Z</time></trkpt><trkpt lat="45.306667651243494" lon="8.016086882177515"><ele>240.5</ele><time>2026-04-11T08:25:49.983Z</time></trkpt><trkpt lat="45.306579456012976" lon="8.015928988720809"><ele>240.75</ele><time>2026-04-11T08:25:50.983Z</time></trkpt><trkpt lat="45.30650732890276" lon="8.015757686483001"><ele>241.0</ele><time>2026-04-11T08:25:51.983Z</time></trkpt><trkpt lat="45.30642816538531" lon="8.015611350042365"><ele>241.0</ele><time>2026-04-11T08:25:52.983Z</time></trkpt><trkpt lat="45.306352883662974" lon="8.015473383756346"><ele>241.0</ele><time>2026-04-11T08:25:53.983Z</time></trkpt><trkpt lat="45.306266218655416" lon="8.015351446850106"><ele>241.0</ele><time>2026-04-11T08:25:54.983Z</time></trkpt><trkpt lat="45.306191527324195" lon="8.015205176974243"><ele>241.0</ele><time>2026-04-11T08:25:55.983Z</time></trkpt><trkpt lat="45.30611250859686" lon="8.0150638676292"><ele>240.75</ele><time>2026-04-11T08:25:56.983Z</time></trkpt><trkpt lat="45.30603107077547" lon="8.014921181190637"><ele>240.5</ele><time>2026-04-11T08:25:57.983Z</time></trkpt><trkpt lat="45.30596177546349" lon="8.014763785294427"><ele>240.25</ele><time>2026-04-11T08:25:58.983Z</time></trkpt><trkpt lat="45.305866090885225" lon="8.014633296893814"><ele>240.0</ele><time>2026-04-11T08:25:59.983Z</time></trkpt><trkpt lat="45.305796099892525" lon="8.014474992021896"><ele>240.0</ele><time>2026-04-11T08:26:00.983Z</time></trkpt><trkpt lat="45.3057042879098" lon="8.014332192978367"><ele>240.0</ele><time>2026-04-11T08:26:01.983Z</time></trkpt><trkpt lat="45.30559819791951" lon="8.014198540687564"><ele>240.0</ele><time>2026-04-11T08:26:02.983Z</time></trkpt><trkpt lat="45.305476885552224" lon="8.014084519635835"><ele>240.0</ele><time>2026-04-11T08:26:03.983Z</time></trkpt><trkpt lat="45.30535837310326" lon="8.013961103113981"><ele>240.5</ele><time>2026-04-11T08:26:04.983Z</time></trkpt><trkpt lat="45.30525443343448" lon="8.013820287238628"><ele>241.0</ele><time>2026-04-11T08:26:05.983Z</time></trkpt><trkpt lat="45.305143936462905" lon="8.013701072839666"><ele>241.5</ele><time>2026-04-11T08:26:06.983Z</time></trkpt><trkpt lat="45.30504009289094" lon="8.013589712326532"><ele>242.0</ele><time>2026-04-11T08:26:07.983Z</time></trkpt><trkpt lat="45.3049455182136" lon="8.013488099600215"><ele>242.0</ele><time>2026-04-11T08:26:08.983Z</time></trkpt><trkpt lat="45.30485923313232" lon="8.013395393336342"><ele>242.0</ele><time>2026-04-11T08:26:09.983Z</time></trkpt><trkpt lat="45.30477670164477" lon="8.013306720064625"><ele>242.0</ele><time>2026-04-11T08:26:10.983Z</time></trkpt><trkpt lat="45.30468543129592" lon="8.013208657552635"><ele>242.0</ele><time>2026-04-11T08:26:11.982Z</time></trkpt><trkpt lat="45.30458233227144" lon="8.013097886104685"><ele>241.75</ele><time>2026-04-11T08:26:12.982Z</time></trkpt><trkpt lat="45.30447032644785" lon="8.012977545026297"><ele>241.5</ele><time>2026-04-11T08:26:13.981Z</time></trkpt><trkpt lat="45.30435230665863" lon="8.012850667595613"><ele>241.25</ele><time>2026-04-11T08:26:14.981Z</time></trkpt><trkpt lat="45.30422554133828" lon="8.012715235248685"><ele>241.0</ele><time>2026-04-11T08:26:15.981Z</time></trkpt><trkpt lat="45.30408971535257" lon="8.012570625597352"><ele>241.0</ele><time>2026-04-11T08:26:16.981Z</time></trkpt><trkpt lat="45.30394870879147" lon="8.01241923239637"><ele>241.0</ele><time>2026-04-11T08:26:17.981Z</time></trkpt><trkpt lat="45.30380361478348" lon="8.0122624160412"><ele>241.0</ele><time>2026-04-11T08:26:18.981Z</time></trkpt><trkpt lat="45.30365464751478" lon="8.012104409601141"><ele>240.66666666666666</ele><time>2026-04-11T08:26:19.981Z</time></trkpt><trkpt lat="45.303504272952694" lon="8.011945060041024"><ele>240.33333333333331</ele><time>2026-04-11T08:26:20.981Z</time></trkpt><trkpt lat="45.303350268124596" lon="8.011782203416848"><ele>240.0</ele><time>2026-04-11T08:26:21.981Z</time></trkpt><trkpt lat="45.30319230235371" lon="8.01161295775974"><ele>240.0</ele><time>2026-04-11T08:26:22.981Z</time></trkpt><trkpt lat="45.30302994306997" lon="8.01143612989715"><ele>240.0</ele><time>2026-04-11T08:26:23.981Z</time></trkpt><trkpt lat="45.3028641099872" lon="8.011256757827557"><ele>240.0</ele><time>2026-04-11T08:26:24.981Z</time></trkpt><trkpt lat="45.3026994706508" lon="8.011077240987797"><ele>240.0</ele><time>2026-04-11T08:26:25.981Z</time></trkpt><trkpt lat="45.302543431106834" lon="8.010908091272029"><ele>240.0</ele><time>2026-04-11T08:26:26.981Z</time></trkpt><trkpt lat="45.30238601815737" lon="8.010742742531907"><ele>240.0</ele><time>2026-04-11T08:26:27.981Z</time></trkpt><trkpt lat="45.30222416688862" lon="8.010568068393525"><ele>239.66666666666669</ele><time>2026-04-11T08:26:28.981Z</time></trkpt><trkpt lat="45.3020540256597" lon="8.010386325870934"><ele>239.33333333333334</ele><time>2026-04-11T08:26:29.981Z</time></trkpt><trkpt lat="45.30187828382776" lon="8.010197499661826"><ele>239.0</ele><time>2026-04-11T08:26:30.981Z</time></trkpt><trkpt lat="45.301702646573844" lon="8.0100056765064"><ele>239.33333333333334</ele><time>2026-04-11T08:26:31.981Z</time></trkpt><trkpt lat="45.30152211945654" lon="8.009812197663056"><ele>239.66666666666669</ele><time>2026-04-11T08:26:32.981Z</time></trkpt><trkpt lat="45.30134644354881" lon="8.009617977955113"><ele>240.0</ele><time>2026-04-11T08:26:33.981Z</time></trkpt><trkpt lat="45.30117117783218" lon="8.009424283537601"><ele>239.33333333333331</ele><time>2026-04-11T08:26:34.981Z</time></trkpt><trkpt lat="45.30099945428047" lon="8.009233525008236"><ele>238.66666666666666</ele><time>2026-04-11T08:26:35.981Z</time></trkpt><trkpt lat="45.30082736973771" lon="8.00905005096062"><ele>238.0</ele><time>2026-04-11T08:26:36.981Z</time></trkpt><trkpt lat="45.30065439713667" lon="8.008866625819287"><ele>238.0</ele><time>2026-04-11T08:26:37.981Z</time></trkpt><trkpt lat="45.30048006782776" lon="8.008681931072669"><ele>238.0</ele><time>2026-04-11T08:26:38.981Z</time></trkpt><trkpt lat="45.300305752842036" lon="8.008493595379317"><ele>238.0</ele><time>2026-04-11T08:26:39.981Z</time></trkpt><trkpt lat="45.300131432087916" lon="8.008305416845953"><ele>238.0</ele><time>2026-04-11T08:26:40.981Z</time></trkpt><trkpt lat="45.29995820235902" lon="8.008117934635399"><ele>238.0</ele><time>2026-04-11T08:26:41.981Z</time></trkpt><trkpt lat="45.29978603870748" lon="8.00793333338751"><ele>238.0</ele><time>2026-04-11T08:26:42.981Z</time></trkpt><trkpt lat="45.29961321231415" lon="8.00774719722277"><ele>238.0</ele><time>2026-04-11T08:26:43.98Z</time></trkpt><trkpt lat="45.29944590801305" lon="8.007564669101752"><ele>238.0</ele><time>2026-04-11T08:26:44.98Z</time></trkpt><trkpt lat="45.299282351502" lon="8.007385802047855"><ele>238.0</ele><time>2026-04-11T08:26:45.98Z</time></trkpt><trkpt lat="45.29912581015198" lon="8.007215913408091"><ele>238.0</ele><time>2026-04-11T08:26:46.98Z</time></trkpt><trkpt lat="45.29898062278012" lon="8.007056841124868"><ele>238.0</ele><time>2026-04-11T08:26:47.98Z</time></trkpt><trkpt lat="45.298841623173665" lon="8.006911526031134"><ele>238.0</ele><time>2026-04-11T08:26:48.98Z</time></trkpt><trkpt lat="45.29871273702296" lon="8.006776539583297"><ele>238.25</ele><time>2026-04-11T08:26:49.98Z</time></trkpt><trkpt lat="45.29859977635945" lon="8.00665435251896"><ele>238.5</ele><time>2026-04-11T08:26:50.98Z</time></trkpt><trkpt lat="45.29849549316308" lon="8.006538061081802"><ele>238.75</ele><time>2026-04-11T08:26:51.98Z</time></trkpt><trkpt lat="45.29840934869556" lon="8.006410753457866"><ele>239.0</ele><time>2026-04-11T08:26:52.98Z</time></trkpt><trkpt lat="45.29835024089901" lon="8.006266308156041"><ele>239.0</ele><time>2026-04-11T08:26:53.98Z</time></trkpt><trkpt lat="45.29830348030183" lon="8.006107052217429"><ele>239.0</ele><time>2026-04-11T08:26:54.98Z</time></trkpt><trkpt lat="45.298249057652434" lon="8.0059589542648"><ele>239.0</ele><time>2026-04-11T08:26:55.98Z</time></trkpt><trkpt lat="45.2981714811907" lon="8.005832736148294"><ele>239.0</ele><time>2026-04-11T08:26:56.98Z</time></trkpt><trkpt lat="45.29807592341524" lon="8.005703989975238"><ele>239.0</ele><time>2026-04-11T08:26:57.98Z</time></trkpt><trkpt lat="45.29793520152519" lon="8.005644428753374"><ele>239.0</ele><time>2026-04-11T08:26:58.98Z</time></trkpt><trkpt lat="45.2977939126669" lon="8.005603406298434"><ele>239.0</ele><time>2026-04-11T08:26:59.98Z</time></trkpt><trkpt lat="45.29764758583854" lon="8.005550549172963"><ele>239.0</ele><time>2026-04-11T08:27:00.98Z</time></trkpt><trkpt lat="45.29750907973603" lon="8.005450402549664"><ele>239.0</ele><time>2026-04-11T08:27:01.98Z</time></trkpt><trkpt lat="45.2973658595107" lon="8.005310413766443"><ele>239.0</ele><time>2026-04-11T08:27:02.98Z</time></trkpt><trkpt lat="45.297216833996586" lon="8.00514926706431"><ele>239.0</ele><time>2026-04-11T08:27:03.98Z</time></trkpt><trkpt lat="45.29706538888746" lon="8.004981276302424"><ele>239.0</ele><time>2026-04-11T08:27:04.98Z</time></trkpt><trkpt lat="45.29692125680624" lon="8.004828631840729"><ele>239.0</ele><time>2026-04-11T08:27:05.982Z</time></trkpt><trkpt lat="45.29677870701969" lon="8.004675959003913"><ele>239.0</ele><time>2026-04-11T08:27:06.982Z</time></trkpt><trkpt lat="45.296636768993984" lon="8.004523567457682"><ele>239.0</ele><time>2026-04-11T08:27:07.982Z</time></trkpt><trkpt lat="45.29648836315028" lon="8.00436922016896"><ele>239.0</ele><time>2026-04-11T08:27:08.982Z</time></trkpt><trkpt lat="45.29633490926467" lon="8.00420560290943"><ele>239.0</ele><time>2026-04-11T08:27:09.982Z</time></trkpt><trkpt lat="45.29617466208507" lon="8.004029062254137"><ele>238.66666666666669</ele><time>2026-04-11T08:27:10.982Z</time></trkpt><trkpt lat="45.296007633853165" lon="8.003848578636303"><ele>238.33333333333331</ele><time>2026-04-11T08:27:11.982Z</time></trkpt><trkpt lat="45.295833777203896" lon="8.003661636765763"><ele>238.0</ele><time>2026-04-11T08:27:12.982Z</time></trkpt><trkpt lat="45.29565675024077" lon="8.003469558009108"><ele>238.0</ele><time>2026-04-11T08:27:13.982Z</time></trkpt><trkpt lat="45.295477345896884" lon="8.00327201996023"><ele>238.0</ele><time>2026-04-11T08:27:14.982Z</time></trkpt><trkpt lat="45.295310308417925" lon="8.003087087180583"><ele>238.0</ele><time>2026-04-11T08:27:15.981Z</time></trkpt><trkpt lat="45.295141968415365" lon="8.002902166863501"><ele>238.0</ele><time>2026-04-11T08:27:16.981Z</time></trkpt><trkpt lat="45.29496573983806" lon="8.002705918380427"><ele>238.0</ele><time>2026-04-11T08:27:17.982Z</time></trkpt><trkpt lat="45.29478677413913" lon="8.002508695906652"><ele>238.0</ele><time>2026-04-11T08:27:18.982Z</time></trkpt><trkpt lat="45.29460003444576" lon="8.002306856774592"><ele>238.0</ele><time>2026-04-11T08:27:19.981Z</time></trkpt><trkpt lat="45.29441360067488" lon="8.002109420731415"><ele>238.0</ele><time>2026-04-11T08:27:20.981Z</time></trkpt><trkpt lat="45.29423107375429" lon="8.001913252278234"><ele>238.0</ele><time>2026-04-11T08:27:21.981Z</time></trkpt><trkpt lat="45.294053684897335" lon="8.001723997240287"><ele>237.66666666666666</ele><time>2026-04-11T08:27:22.981Z</time></trkpt><trkpt lat="45.293883310835525" lon="8.001538373047412"><ele>237.33333333333331</ele><time>2026-04-11T08:27:23.981Z</time></trkpt><trkpt lat="45.29371697829623" lon="8.001358115446752"><ele>237.0</ele><time>2026-04-11T08:27:24.981Z</time></trkpt><trkpt lat="45.29354532734589" lon="8.001172355343828"><ele>237.0</ele><time>2026-04-11T08:27:25.981Z</time></trkpt><trkpt lat="45.29336736706004" lon="8.000980731376018"><ele>237.0</ele><time>2026-04-11T08:27:26.981Z</time></trkpt><trkpt lat="45.29318518612381" lon="8.000786061236402"><ele>236.5</ele><time>2026-04-11T08:27:27.981Z</time></trkpt><trkpt lat="45.29300157555506" lon="8.000593948017796"><ele>236.0</ele><time>2026-04-11T08:27:28.981Z</time></trkpt><trkpt lat="45.292820340151984" lon="8.000402857960442"><ele>236.0</ele><time>2026-04-11T08:27:29.981Z</time></trkpt><trkpt lat="45.29264237487655" lon="8.000208870719915"><ele>236.0</ele><time>2026-04-11T08:27:30.981Z</time></trkpt><trkpt lat="45.29246316606474" lon="8.000015074575133"><ele>236.0</ele><time>2026-04-11T08:27:31.981Z</time></trkpt><trkpt lat="45.29228227082712" lon="7.999821480898038"><ele>235.33333333333334</ele><time>2026-04-11T08:27:32.981Z</time></trkpt><trkpt lat="45.29210491070578" lon="7.999628318552753"><ele>234.66666666666669</ele><time>2026-04-11T08:27:33.981Z</time></trkpt><trkpt lat="45.291926396394096" lon="7.999433070796323"><ele>234.0</ele><time>2026-04-11T08:27:34.981Z</time></trkpt><trkpt lat="45.291750092233166" lon="7.999235233966944"><ele>235.0</ele><time>2026-04-11T08:27:35.981Z</time></trkpt><trkpt lat="45.291570188858266" lon="7.999038940404287"><ele>236.0</ele><time>2026-04-11T08:27:36.981Z</time></trkpt><trkpt lat="45.2913896462919" lon="7.998843292259316"><ele>236.0</ele><time>2026-04-11T08:27:37.981Z</time></trkpt><trkpt lat="45.291210360144895" lon="7.998649025829989"><ele>236.0</ele><time>2026-04-11T08:27:38.981Z</time></trkpt><trkpt lat="45.291031262536684" lon="7.998454741797301"><ele>236.0</ele><time>2026-04-11T08:27:39.981Z</time></trkpt><trkpt lat="45.29085462362742" lon="7.998264328633463"><ele>236.0</ele><time>2026-04-11T08:27:40.981Z</time></trkpt><trkpt lat="45.29067912657984" lon="7.998076158021762"><ele>236.0</ele><time>2026-04-11T08:27:41.981Z</time></trkpt><trkpt lat="45.290502532298596" lon="7.997887133979811"><ele>235.66666666666669</ele><time>2026-04-11T08:27:42.981Z</time></trkpt><trkpt lat="45.29033008512527" lon="7.997698734367311"><ele>235.33333333333331</ele><time>2026-04-11T08:27:43.981Z</time></trkpt><trkpt lat="45.290155861972984" lon="7.997511326290839"><ele>235.0</ele><time>2026-04-11T08:27:44.981Z</time></trkpt><trkpt lat="45.28998045215677" lon="7.997323416305549"><ele>235.0</ele><time>2026-04-11T08:27:45.981Z</time></trkpt><trkpt lat="45.289804054309286" lon="7.9971344568608895"><ele>235.0</ele><time>2026-04-11T08:27:46.981Z</time></trkpt><trkpt lat="45.289628163059064" lon="7.996944811617092"><ele>235.0</ele><time>2026-04-11T08:27:47.981Z</time></trkpt><trkpt lat="45.28945265774953" lon="7.996755403133413"><ele>236.0</ele><time>2026-04-11T08:27:48.981Z</time></trkpt><trkpt lat="45.289273497777046" lon="7.9965638412916045"><ele>237.0</ele><time>2026-04-11T08:27:49.981Z</time></trkpt><trkpt lat="45.28909312631299" lon="7.996370470327382"><ele>236.5</ele><time>2026-04-11T08:27:50.981Z</time></trkpt><trkpt lat="45.28891155931078" lon="7.996175018663889"><ele>236.0</ele><time>2026-04-11T08:27:51.98Z</time></trkpt><trkpt lat="45.288729054892045" lon="7.995978383579007"><ele>236.0</ele><time>2026-04-11T08:27:52.98Z</time></trkpt><trkpt lat="45.28854822083212" lon="7.995783104269363"><ele>236.0</ele><time>2026-04-11T08:27:53.98Z</time></trkpt><trkpt lat="45.288368059972484" lon="7.995586604785453"><ele>236.0</ele><time>2026-04-11T08:27:54.98Z</time></trkpt><trkpt lat="45.28818644853074" lon="7.995389077599757"><ele>236.0</ele><time>2026-04-11T08:27:55.98Z</time></trkpt><trkpt lat="45.288006164986804" lon="7.995195063875322"><ele>236.0</ele><time>2026-04-11T08:27:56.98Z</time></trkpt><trkpt lat="45.28782800653652" lon="7.995003160241193"><ele>236.0</ele><time>2026-04-11T08:27:57.98Z</time></trkpt><trkpt lat="45.28765231904233" lon="7.994812463313938"><ele>236.0</ele><time>2026-04-11T08:27:58.98Z</time></trkpt><trkpt lat="45.287477376643146" lon="7.994624730351385"><ele>236.0</ele><time>2026-04-11T08:27:59.98Z</time></trkpt><trkpt lat="45.28730144893749" lon="7.99443707302305"><ele>236.0</ele><time>2026-04-11T08:28:00.98Z</time></trkpt><trkpt lat="45.28712601243327" lon="7.994247450048343"><ele>236.0</ele><time>2026-04-11T08:28:01.98Z</time></trkpt><trkpt lat="45.28695126040023" lon="7.994059127594642"><ele>236.0</ele><time>2026-04-11T08:28:02.98Z</time></trkpt><trkpt lat="45.28677925795148" lon="7.993870692986855"><ele>236.0</ele><time>2026-04-11T08:28:03.98Z</time></trkpt><trkpt lat="45.28660510506713" lon="7.993683017683944"><ele>236.0</ele><time>2026-04-11T08:28:04.98Z</time></trkpt><trkpt lat="45.28642823960247" lon="7.993492041027282"><ele>236.0</ele><time>2026-04-11T08:28:05.98Z</time></trkpt><trkpt lat="45.286251147169274" lon="7.993298968860041"><ele>236.0</ele><time>2026-04-11T08:28:06.98Z</time></trkpt><trkpt lat="45.28607513186349" lon="7.993108677299673"><ele>236.0</ele><time>2026-04-11T08:28:07.98Z</time></trkpt><trkpt lat="45.28590056831339" lon="7.992918565218317"><ele>236.0</ele><time>2026-04-11T08:28:08.98Z</time></trkpt><trkpt lat="45.28572567953368" lon="7.9927282020540655"><ele>236.0</ele><time>2026-04-11T08:28:09.98Z</time></trkpt><trkpt lat="45.28555320201248" lon="7.992538584533331"><ele>236.0</ele><time>2026-04-11T08:28:10.98Z</time></trkpt><trkpt lat="45.28537865712644" lon="7.992351266732754"><ele>236.0</ele><time>2026-04-11T08:28:11.98Z</time></trkpt><trkpt lat="45.28520083215194" lon="7.992164140728254"><ele>236.0</ele><time>2026-04-11T08:28:12.98Z</time></trkpt><trkpt lat="45.28502438194327" lon="7.991974700798736"><ele>236.0</ele><time>2026-04-11T08:28:13.98Z</time></trkpt><trkpt lat="45.28484719380511" lon="7.991785328207351"><ele>236.0</ele><time>2026-04-11T08:28:14.98Z</time></trkpt><trkpt lat="45.28466705691653" lon="7.991594270518267"><ele>236.0</ele><time>2026-04-11T08:28:15.98Z</time></trkpt><trkpt lat="45.28448435638776" lon="7.991402718512525"><ele>236.0</ele><time>2026-04-11T08:28:16.98Z</time></trkpt><trkpt lat="45.28429954521716" lon="7.991212092978402"><ele>236.0</ele><time>2026-04-11T08:28:17.98Z</time></trkpt><trkpt lat="45.28412657250108" lon="7.991000805887078"><ele>236.0</ele><time>2026-04-11T08:28:18.98Z</time></trkpt><trkpt lat="45.283938721516336" lon="7.990805159677078"><ele>236.0</ele><time>2026-04-11T08:28:19.98Z</time></trkpt><trkpt lat="45.28373046842425" lon="7.990644798941174"><ele>235.5</ele><time>2026-04-11T08:28:20.98Z</time></trkpt><trkpt lat="45.283536102987476" lon="7.990449648178235"><ele>235.0</ele><time>2026-04-11T08:28:21.98Z</time></trkpt><trkpt lat="45.28334168086438" lon="7.990253079528947"><ele>235.0</ele><time>2026-04-11T08:28:22.979Z</time></trkpt><trkpt lat="45.28314742547336" lon="7.990060199021367"><ele>235.0</ele><time>2026-04-11T08:28:23.979Z</time></trkpt><trkpt lat="45.282956457084566" lon="7.989871050965642"><ele>234.5</ele><time>2026-04-11T08:28:24.979Z</time></trkpt><trkpt lat="45.28276825907286" lon="7.989685630227957"><ele>234.0</ele><time>2026-04-11T08:28:25.979Z</time></trkpt><trkpt lat="45.28258169580267" lon="7.989502235571193"><ele>234.0</ele><time>2026-04-11T08:28:26.979Z</time></trkpt><trkpt lat="45.282394846004394" lon="7.98931902401094"><ele>234.0</ele><time>2026-04-11T08:28:27.979Z</time></trkpt><trkpt lat="45.2822116551214" lon="7.989136773721657"><ele>234.0</ele><time>2026-04-11T08:28:28.979Z</time></trkpt><trkpt lat="45.28202687730737" lon="7.988953188999222"><ele>234.0</ele><time>2026-04-11T08:28:29.979Z</time></trkpt><trkpt lat="45.281838891107576" lon="7.9887682412657846"><ele>234.0</ele><time>2026-04-11T08:28:30.979Z</time></trkpt><trkpt lat="45.2816514496312" lon="7.988584908286575"><ele>234.0</ele><time>2026-04-11T08:28:31.979Z</time></trkpt><trkpt lat="45.28146321559052" lon="7.9884015975334615"><ele>233.0</ele><time>2026-04-11T08:28:32.979Z</time></trkpt><trkpt lat="45.281274965359366" lon="7.988215868141233"><ele>232.0</ele><time>2026-04-11T08:28:33.979Z</time></trkpt><trkpt lat="45.28108574265664" lon="7.988030943252901"><ele>232.0</ele><time>2026-04-11T08:28:34.979Z</time></trkpt><trkpt lat="45.28089873847161" lon="7.987845016474444"><ele>232.0</ele><time>2026-04-11T08:28:35.979Z</time></trkpt><trkpt lat="45.280711164888714" lon="7.9876563584751805"><ele>231.5</ele><time>2026-04-11T08:28:36.979Z</time></trkpt><trkpt lat="45.28052423760536" lon="7.987469020171106"><ele>231.0</ele><time>2026-04-11T08:28:37.979Z</time></trkpt><trkpt lat="45.28033779411501" lon="7.987284740219468"><ele>231.0</ele><time>2026-04-11T08:28:38.979Z</time></trkpt><trkpt lat="45.280153837319205" lon="7.987105018762421"><ele>231.0</ele><time>2026-04-11T08:28:39.979Z</time></trkpt><trkpt lat="45.27997020884968" lon="7.986927201018561"><ele>231.0</ele><time>2026-04-11T08:28:40.979Z</time></trkpt><trkpt lat="45.27978780541813" lon="7.986747008820409"><ele>232.0</ele><time>2026-04-11T08:28:41.979Z</time></trkpt><trkpt lat="45.27960212327199" lon="7.98656351406913"><ele>233.0</ele><time>2026-04-11T08:28:42.979Z</time></trkpt><trkpt lat="45.27941732045385" lon="7.986381203013892"><ele>233.0</ele><time>2026-04-11T08:28:43.979Z</time></trkpt><trkpt lat="45.279231437281595" lon="7.98619924819485"><ele>233.0</ele><time>2026-04-11T08:28:44.979Z</time></trkpt><trkpt lat="45.279043232908066" lon="7.98601749528921"><ele>231.5</ele><time>2026-04-11T08:28:45.979Z</time></trkpt><trkpt lat="45.27885647781494" lon="7.985833360060184"><ele>230.0</ele><time>2026-04-11T08:28:46.979Z</time></trkpt><trkpt lat="45.27867089302265" lon="7.985648402896214"><ele>230.0</ele><time>2026-04-11T08:28:47.979Z</time></trkpt><trkpt lat="45.27848624062917" lon="7.985464335075815"><ele>230.0</ele><time>2026-04-11T08:28:48.979Z</time></trkpt><trkpt lat="45.278302953652734" lon="7.985282200423979"><ele>230.0</ele><time>2026-04-11T08:28:49.979Z</time></trkpt><trkpt lat="45.27811712754886" lon="7.985098872231221"><ele>230.5</ele><time>2026-04-11T08:28:50.979Z</time></trkpt><trkpt lat="45.27793050902505" lon="7.984915143320775"><ele>231.0</ele><time>2026-04-11T08:28:51.979Z</time></trkpt><trkpt lat="45.27774432703974" lon="7.984731329615315"><ele>231.0</ele><time>2026-04-11T08:28:52.979Z</time></trkpt><trkpt lat="45.27755899572808" lon="7.984548236712478"><ele>231.0</ele><time>2026-04-11T08:28:53.979Z</time></trkpt><trkpt lat="45.277376848171045" lon="7.984370075948562"><ele>231.0</ele><time>2026-04-11T08:28:54.978Z</time></trkpt><trkpt lat="45.277197506018894" lon="7.984191843504928"><ele>230.66666666666669</ele><time>2026-04-11T08:28:55.978Z</time></trkpt><trkpt lat="45.27702231613923" lon="7.9840158821851395"><ele>230.33333333333334</ele><time>2026-04-11T08:28:56.978Z</time></trkpt><trkpt lat="45.27685607955593" lon="7.983852053570902"><ele>230.0</ele><time>2026-04-11T08:28:57.978Z</time></trkpt><trkpt lat="45.27669878400495" lon="7.983702041565824"><ele>230.0</ele><time>2026-04-11T08:28:58.978Z</time></trkpt><trkpt lat="45.27655143076359" lon="7.983557944352278"><ele>230.0</ele><time>2026-04-11T08:28:59.978Z</time></trkpt><trkpt lat="45.276414644005484" lon="7.983420838214092"><ele>230.0</ele><time>2026-04-11T08:29:00.978Z</time></trkpt><trkpt lat="45.27628334968752" lon="7.983289835179782"><ele>229.66666666666669</ele><time>2026-04-11T08:29:01.978Z</time></trkpt><trkpt lat="45.27615221326029" lon="7.983159065202403"><ele>229.33333333333331</ele><time>2026-04-11T08:29:02.978Z</time></trkpt><trkpt lat="45.276015860720015" lon="7.983023632150154"><ele>229.0</ele><time>2026-04-11T08:29:03.978Z</time></trkpt><trkpt lat="45.27587635332857" lon="7.9828856459043465"><ele>229.0</ele><time>2026-04-11T08:29:04.978Z</time></trkpt><trkpt lat="45.275737465596535" lon="7.982748767515062"><ele>229.0</ele><time>2026-04-11T08:29:05.978Z</time></trkpt><trkpt lat="45.27560686259944" lon="7.982618880934628"><ele>229.0</ele><time>2026-04-11T08:29:06.978Z</time></trkpt><trkpt lat="45.275490147527634" lon="7.98250220175743"><ele>229.33333333333331</ele><time>2026-04-11T08:29:07.978Z</time></trkpt><trkpt lat="45.275392046167745" lon="7.982397138533958"><ele>229.66666666666666</ele><time>2026-04-11T08:29:08.978Z</time></trkpt><trkpt lat="45.275314533826155" lon="7.982309163585291"><ele>230.0</ele><time>2026-04-11T08:29:09.978Z</time></trkpt><trkpt lat="45.2752718597939" lon="7.982241683474696"><ele>230.33333333333331</ele><time>2026-04-11T08:29:10.978Z</time></trkpt><trkpt lat="45.27527056354579" lon="7.982125818087316"><ele>230.66666666666666</ele><time>2026-04-11T08:29:12.981Z</time></trkpt><trkpt lat="45.2753111899024" lon="7.982052119185609"><ele>231.0</ele><time>2026-04-11T08:29:13.981Z</time></trkpt><trkpt lat="45.27538365715699" lon="7.981991256254389"><ele>231.0</ele><time>2026-04-11T08:29:14.981Z</time></trkpt><trkpt lat="45.275476237287506" lon="7.981927705997824"><ele>231.0</ele><time>2026-04-11T08:29:15.981Z</time></trkpt><trkpt lat="45.27558482189106" lon="7.981848193549181"><ele>231.0</ele><time>2026-04-11T08:29:16.981Z</time></trkpt><trkpt lat="45.27570822859621" lon="7.981756792288822"><ele>231.0</ele><time>2026-04-11T08:29:17.981Z</time></trkpt><trkpt lat="45.275832656477995" lon="7.98166559938386"><ele>231.0</ele><time>2026-04-11T08:29:18.981Z</time></trkpt><trkpt lat="45.27595224945544" lon="7.981570827691744"><ele>231.0</ele><time>2026-04-11T08:29:19.981Z</time></trkpt><trkpt lat="45.27608875815569" lon="7.981466658114106"><ele>231.0</ele><time>2026-04-11T08:29:20.981Z</time></trkpt><trkpt lat="45.276241020615146" lon="7.9813539034006515"><ele>231.0</ele><time>2026-04-11T08:29:21.981Z</time></trkpt><trkpt lat="45.276406720989975" lon="7.981228238690531"><ele>231.0</ele><time>2026-04-11T08:29:22.981Z</time></trkpt><trkpt lat="45.27657892578195" lon="7.981101532833379"><ele>231.0</ele><time>2026-04-11T08:29:23.981Z</time></trkpt><trkpt lat="45.276738221802184" lon="7.980979504426938"><ele>230.66666666666669</ele><time>2026-04-11T08:29:24.98Z</time></trkpt><trkpt lat="45.27690089351465" lon="7.9809093529760595"><ele>230.33333333333334</ele><time>2026-04-11T08:29:25.98Z</time></trkpt><trkpt lat="45.2770411982767" lon="7.980807488247733"><ele>230.0</ele><time>2026-04-11T08:29:26.98Z</time></trkpt><trkpt lat="45.27717835799138" lon="7.9807079068961535"><ele>231.0</ele><time>2026-04-11T08:29:27.98Z</time></trkpt><trkpt lat="45.27731553440572" lon="7.98060755935673"><ele>232.0</ele><time>2026-04-11T08:29:28.98Z</time></trkpt><trkpt lat="45.27745193636731" lon="7.980507239255961"><ele>233.0</ele><time>2026-04-11T08:29:29.98Z</time></trkpt><trkpt lat="45.27758632777854" lon="7.980408397865194"><ele>233.0</ele><time>2026-04-11T08:29:30.98Z</time></trkpt><trkpt lat="45.277717226199215" lon="7.980312522465858"><ele>233.0</ele><time>2026-04-11T08:29:31.98Z</time></trkpt><trkpt lat="45.277847091600876" lon="7.980219182940082"><ele>233.0</ele><time>2026-04-11T08:29:32.98Z</time></trkpt><trkpt lat="45.277977192434676" lon="7.98012567419781"><ele>233.0</ele><time>2026-04-11T08:29:33.98Z</time></trkpt><trkpt lat="45.27810569639483" lon="7.98003715225189"><ele>233.0</ele><time>2026-04-11T08:29:34.98Z</time></trkpt><trkpt lat="45.27823595165104" lon="7.979967040232508"><ele>233.0</ele><time>2026-04-11T08:29:35.98Z</time></trkpt><trkpt lat="45.27836923796258" lon="7.979914771553097"><ele>233.0</ele><time>2026-04-11T08:29:36.98Z</time></trkpt><trkpt lat="45.27850306488457" lon="7.979874608904673"><ele>233.0</ele><time>2026-04-11T08:29:37.98Z</time></trkpt><trkpt lat="45.2786311662499" lon="7.979838911570822"><ele>233.0</ele><time>2026-04-11T08:29:38.98Z</time></trkpt><trkpt lat="45.278749477275824" lon="7.979807362204282"><ele>233.0</ele><time>2026-04-11T08:29:39.98Z</time></trkpt><trkpt lat="45.278859257779594" lon="7.979763899381831"><ele>233.0</ele><time>2026-04-11T08:29:40.98Z</time></trkpt><trkpt lat="45.278970200019394" lon="7.979744771730356"><ele>233.0</ele><time>2026-04-11T08:29:41.98Z</time></trkpt><trkpt lat="45.279085963061824" lon="7.979734585315669"><ele>233.25</ele><time>2026-04-11T08:29:42.98Z</time></trkpt><trkpt lat="45.279204475865285" lon="7.979733004365434"><ele>233.5</ele><time>2026-04-11T08:29:43.98Z</time></trkpt><trkpt lat="45.27932126297771" lon="7.979744459256362"><ele>233.75</ele><time>2026-04-11T08:29:44.98Z</time></trkpt><trkpt lat="45.2794346339364" lon="7.979773974849111"><ele>234.0</ele><time>2026-04-11T08:29:45.98Z</time></trkpt><trkpt lat="45.27954618555985" lon="7.979809223179432"><ele>234.0</ele><time>2026-04-11T08:29:46.98Z</time></trkpt><trkpt lat="45.27964828529215" lon="7.979842797259962"><ele>233.99999999999997</ele><time>2026-04-11T08:29:47.98Z</time></trkpt><trkpt lat="45.279741253349705" lon="7.979872728987423"><ele>233.99999999999997</ele><time>2026-04-11T08:29:48.98Z</time></trkpt><trkpt lat="45.279827776620095" lon="7.979900386042569"><ele>234.0</ele><time>2026-04-11T08:29:49.98Z</time></trkpt><trkpt lat="45.27991616868693" lon="7.979928188068534"><ele>234.0</ele><time>2026-04-11T08:29:50.98Z</time></trkpt><trkpt lat="45.28001751692997" lon="7.979942130708405"><ele>234.0</ele><time>2026-04-11T08:29:51.98Z</time></trkpt><trkpt lat="45.28013486994633" lon="7.979931327067379"><ele>234.0</ele><time>2026-04-11T08:29:52.98Z</time></trkpt><trkpt lat="45.280264098189534" lon="7.979904205295651"><ele>234.0</ele><time>2026-04-11T08:29:53.98Z</time></trkpt><trkpt lat="45.280401888985715" lon="7.979863422986874"><ele>234.0</ele><time>2026-04-11T08:29:54.98Z</time></trkpt><trkpt lat="45.280552039388425" lon="7.979832381727204"><ele>234.66666666666669</ele><time>2026-04-11T08:29:55.979Z</time></trkpt><trkpt lat="45.28070680717451" lon="7.9797465516214405"><ele>235.33333333333334</ele><time>2026-04-11T08:29:56.979Z</time></trkpt><trkpt lat="45.2808783867896" lon="7.979645504642314"><ele>236.0</ele><time>2026-04-11T08:29:57.979Z</time></trkpt><trkpt lat="45.28105373385136" lon="7.979522513191672"><ele>236.0</ele><time>2026-04-11T08:29:58.979Z</time></trkpt><trkpt lat="45.28125345735254" lon="7.9794406607328545"><ele>236.0</ele><time>2026-04-11T08:29:59.979Z</time></trkpt><trkpt lat="45.28143604107071" lon="7.979349101584524"><ele>236.0</ele><time>2026-04-11T08:30:00.979Z</time></trkpt><trkpt lat="45.28162843019591" lon="7.979237519280322"><ele>236.0</ele><time>2026-04-11T08:30:01.979Z</time></trkpt><trkpt lat="45.28182917875819" lon="7.979118211773493"><ele>236.0</ele><time>2026-04-11T08:30:02.979Z</time></trkpt><trkpt lat="45.28203834177087" lon="7.978994053580301"><ele>236.0</ele><time>2026-04-11T08:30:03.979Z</time></trkpt><trkpt lat="45.28223378738265" lon="7.978877640327811"><ele>236.33333333333334</ele><time>2026-04-11T08:30:04.979Z</time></trkpt><trkpt lat="45.28242289341276" lon="7.978764519282124"><ele>236.66666666666669</ele><time>2026-04-11T08:30:05.979Z</time></trkpt><trkpt lat="45.28261587043779" lon="7.978644927616165"><ele>237.0</ele><time>2026-04-11T08:30:06.979Z</time></trkpt><trkpt lat="45.28281377402923" lon="7.978522851355488"><ele>237.0</ele><time>2026-04-11T08:30:07.979Z</time></trkpt><trkpt lat="45.28301185910473" lon="7.978397504929895"><ele>237.0</ele><time>2026-04-11T08:30:08.979Z</time></trkpt><trkpt lat="45.28320686490462" lon="7.9782781530046725"><ele>237.0</ele><time>2026-04-11T08:30:09.979Z</time></trkpt><trkpt lat="45.283404613450294" lon="7.97815722920886"><ele>236.66666666666669</ele><time>2026-04-11T08:30:10.979Z</time></trkpt><trkpt lat="45.283603782122" lon="7.978033831864571"><ele>236.33333333333334</ele><time>2026-04-11T08:30:11.979Z</time></trkpt><trkpt lat="45.28380783480361" lon="7.977909635978301"><ele>236.0</ele><time>2026-04-11T08:30:12.979Z</time></trkpt><trkpt lat="45.28401333465836" lon="7.977781460241529"><ele>237.33333333333334</ele><time>2026-04-11T08:30:13.979Z</time></trkpt><trkpt lat="45.28421871306721" lon="7.977653368306016"><ele>238.66666666666669</ele><time>2026-04-11T08:30:14.979Z</time></trkpt><trkpt lat="45.284411457366865" lon="7.977534519088629"><ele>240.0</ele><time>2026-04-11T08:30:15.979Z</time></trkpt><trkpt lat="45.284613224185506" lon="7.9774372642671345"><ele>240.33333333333331</ele><time>2026-04-11T08:30:16.979Z</time></trkpt><trkpt lat="45.284818357309156" lon="7.977318291674641"><ele>240.66666666666666</ele><time>2026-04-11T08:30:17.979Z</time></trkpt><trkpt lat="45.285026751069545" lon="7.977192197296638"><ele>241.0</ele><time>2026-04-11T08:30:18.979Z</time></trkpt><trkpt lat="45.28523553963847" lon="7.977048703408441"><ele>241.0</ele><time>2026-04-11T08:30:19.979Z</time></trkpt><trkpt lat="45.28545379889977" lon="7.9769308199680165"><ele>241.0</ele><time>2026-04-11T08:30:20.979Z</time></trkpt><trkpt lat="45.2856692442518" lon="7.976820062623396"><ele>241.0</ele><time>2026-04-11T08:30:21.979Z</time></trkpt><trkpt lat="45.28587268985216" lon="7.976712117364175"><ele>241.0</ele><time>2026-04-11T08:30:22.979Z</time></trkpt><trkpt lat="45.2860608955526" lon="7.9766218014916035"><ele>241.0</ele><time>2026-04-11T08:30:23.979Z</time></trkpt><trkpt lat="45.2862386665371" lon="7.976535305348361"><ele>241.0</ele><time>2026-04-11T08:30:24.979Z</time></trkpt><trkpt lat="45.286407048693924" lon="7.97645313468994"><ele>241.0</ele><time>2026-04-11T08:30:25.979Z</time></trkpt><trkpt lat="45.28657595829501" lon="7.976374845773149"><ele>241.0</ele><time>2026-04-11T08:30:26.978Z</time></trkpt><trkpt lat="45.286739021578484" lon="7.976291556434846"><ele>242.66666666666666</ele><time>2026-04-11T08:30:27.978Z</time></trkpt><trkpt lat="45.28689629236817" lon="7.976195117007055"><ele>244.33333333333331</ele><time>2026-04-11T08:30:28.978Z</time></trkpt><trkpt lat="45.287052384997764" lon="7.9760960497672295"><ele>246.0</ele><time>2026-04-11T08:30:29.978Z</time></trkpt><trkpt lat="45.28719491703348" lon="7.975938389519664"><ele>246.0</ele><time>2026-04-11T08:30:30.978Z</time></trkpt><trkpt lat="45.28736541033337" lon="7.975822007777114"><ele>246.0</ele><time>2026-04-11T08:30:31.978Z</time></trkpt><trkpt lat="45.28754786421489" lon="7.97571441989765"><ele>246.0</ele><time>2026-04-11T08:30:32.978Z</time></trkpt><trkpt lat="45.28773850511578" lon="7.975607560125571"><ele>246.0</ele><time>2026-04-11T08:30:33.978Z</time></trkpt><trkpt lat="45.287937611777544" lon="7.975522590577674"><ele>246.0</ele><time>2026-04-11T08:30:34.978Z</time></trkpt><trkpt lat="45.28813858141407" lon="7.975419330111114"><ele>246.0</ele><time>2026-04-11T08:30:35.978Z</time></trkpt><trkpt lat="45.288345204144605" lon="7.9753178419991535"><ele>246.0</ele><time>2026-04-11T08:30:36.978Z</time></trkpt><trkpt lat="45.28855339088015" lon="7.975226319526813"><ele>246.0</ele><time>2026-04-11T08:30:37.978Z</time></trkpt><trkpt lat="45.288766867935145" lon="7.975142667227277"><ele>246.0</ele><time>2026-04-11T08:30:38.978Z</time></trkpt><trkpt lat="45.28898215603195" lon="7.9750722678068335"><ele>245.66666666666669</ele><time>2026-04-11T08:30:39.978Z</time></trkpt><trkpt lat="45.28920070219002" lon="7.975020893498906"><ele>245.33333333333334</ele><time>2026-04-11T08:30:40.978Z</time></trkpt><trkpt lat="45.289419067232046" lon="7.974969254484216"><ele>245.0</ele><time>2026-04-11T08:30:41.978Z</time></trkpt><trkpt lat="45.28963920557041" lon="7.97494584775626"><ele>246.0</ele><time>2026-04-11T08:30:42.978Z</time></trkpt><trkpt lat="45.289856437698596" lon="7.974949681401825"><ele>247.0</ele><time>2026-04-11T08:30:43.978Z</time></trkpt><trkpt lat="45.29006742614197" lon="7.974914478982449"><ele>248.0</ele><time>2026-04-11T08:30:44.978Z</time></trkpt><trkpt lat="45.29027671295745" lon="7.974866190303252"><ele>248.0</ele><time>2026-04-11T08:30:45.978Z</time></trkpt><trkpt lat="45.29048515190541" lon="7.9748188365316475"><ele>248.0</ele><time>2026-04-11T08:30:46.978Z</time></trkpt><trkpt lat="45.29070045670517" lon="7.974788400595961"><ele>248.0</ele><time>2026-04-11T08:30:47.978Z</time></trkpt><trkpt lat="45.29091327112815" lon="7.974737321500653"><ele>248.0</ele><time>2026-04-11T08:30:48.978Z</time></trkpt><trkpt lat="45.29112168972524" lon="7.974693407216632"><ele>248.0</ele><time>2026-04-11T08:30:49.978Z</time></trkpt><trkpt lat="45.29134544903149" lon="7.974805709568631"><ele>248.0</ele><time>2026-04-11T08:30:50.978Z</time></trkpt><trkpt lat="45.29154700015712" lon="7.97481238225816"><ele>248.0</ele><time>2026-04-11T08:30:51.978Z</time></trkpt><trkpt lat="45.291740846969084" lon="7.974822167882997"><ele>248.0</ele><time>2026-04-11T08:30:52.978Z</time></trkpt><trkpt lat="45.29195740413775" lon="7.974860733205971"><ele>248.0</ele><time>2026-04-11T08:30:53.978Z</time></trkpt><trkpt lat="45.29218443306696" lon="7.97494910814062"><ele>253.0</ele><time>2026-04-11T08:30:54.978Z</time></trkpt><trkpt lat="45.292426274076355" lon="7.975061918538231"><ele>258.0</ele><time>2026-04-11T08:30:55.978Z</time></trkpt><trkpt lat="45.2926807045504" lon="7.975176714956097"><ele>258.0</ele><time>2026-04-11T08:30:56.978Z</time></trkpt><trkpt lat="45.29293959429644" lon="7.975271895978461"><ele>258.0</ele><time>2026-04-11T08:30:57.978Z</time></trkpt><trkpt lat="45.29320089651843" lon="7.975331458162987"><ele>256.5</ele><time>2026-04-11T08:30:58.977Z</time></trkpt><trkpt lat="45.29345978712566" lon="7.97538459242844"><ele>255.0</ele><time>2026-04-11T08:30:59.977Z</time></trkpt><trkpt lat="45.2937090621298" lon="7.975441253855761"><ele>252.0</ele><time>2026-04-11T08:31:00.977Z</time></trkpt><trkpt lat="45.293940935939226" lon="7.975499637128098"><ele>249.0</ele><time>2026-04-11T08:31:01.977Z</time></trkpt><trkpt lat="45.29415671161366" lon="7.975612583963407"><ele>249.0</ele><time>2026-04-11T08:31:02.977Z</time></trkpt><trkpt lat="45.29435615507327" lon="7.975749433885019"><ele>249.0</ele><time>2026-04-11T08:31:03.977Z</time></trkpt><trkpt lat="45.29454492752405" lon="7.975892382315746"><ele>249.0</ele><time>2026-04-11T08:31:04.977Z</time></trkpt><trkpt lat="45.2947257792201" lon="7.976020776775744"><ele>250.0</ele><time>2026-04-11T08:31:05.977Z</time></trkpt><trkpt lat="45.294899373044" lon="7.976112848195669"><ele>251.0</ele><time>2026-04-11T08:31:06.977Z</time></trkpt><trkpt lat="45.29507653464519" lon="7.976181473145956"><ele>252.0</ele><time>2026-04-11T08:31:07.977Z</time></trkpt><trkpt lat="45.29526655082445" lon="7.9762240155648705"><ele>252.0</ele><time>2026-04-11T08:31:08.977Z</time></trkpt><trkpt lat="45.295476160074564" lon="7.976217937577783"><ele>252.0</ele><time>2026-04-11T08:31:09.977Z</time></trkpt><trkpt lat="45.29570391454341" lon="7.976186539876769"><ele>252.0</ele><time>2026-04-11T08:31:10.977Z</time></trkpt><trkpt lat="45.295932227826285" lon="7.976172536535737"><ele>252.0</ele><time>2026-04-11T08:31:11.977Z</time></trkpt><trkpt lat="45.2961684749397" lon="7.976167417694172"><ele>252.0</ele><time>2026-04-11T08:31:12.977Z</time></trkpt><trkpt lat="45.29641685862233" lon="7.97617552419324"><ele>252.5</ele><time>2026-04-11T08:31:13.977Z</time></trkpt><trkpt lat="45.296656844452954" lon="7.976193913265294"><ele>253.0</ele><time>2026-04-11T08:31:14.977Z</time></trkpt><trkpt lat="45.29687038903881" lon="7.976218404349178"><ele>253.0</ele><time>2026-04-11T08:31:15.977Z</time></trkpt><trkpt lat="45.29705184595526" lon="7.976241251664893"><ele>253.0</ele><time>2026-04-11T08:31:16.977Z</time></trkpt><trkpt lat="45.29721242215783" lon="7.976270246600783"><ele>253.0</ele><time>2026-04-11T08:31:17.979Z</time></trkpt><trkpt lat="45.29735823598945" lon="7.976338878109202"><ele>252.66666666666666</ele><time>2026-04-11T08:31:18.979Z</time></trkpt><trkpt lat="45.297492621538844" lon="7.976465125636995"><ele>252.33333333333331</ele><time>2026-04-11T08:31:19.979Z</time></trkpt><trkpt lat="45.29760516617494" lon="7.976627185732915"><ele>252.0</ele><time>2026-04-11T08:31:20.979Z</time></trkpt><trkpt lat="45.297700632793926" lon="7.976767402578571"><ele>252.0</ele><time>2026-04-11T08:31:21.98Z</time></trkpt><trkpt lat="45.297822264906536" lon="7.976866502137576"><ele>252.0</ele><time>2026-04-11T08:31:22.98Z</time></trkpt><trkpt lat="45.29796764638246" lon="7.976935850157457"><ele>252.0</ele><time>2026-04-11T08:31:23.979Z</time></trkpt><trkpt lat="45.29811792225859" lon="7.976959386368533"><ele>252.0</ele><time>2026-04-11T08:31:24.98Z</time></trkpt><trkpt lat="45.29827614710936" lon="7.976924714015886"><ele>252.0</ele><time>2026-04-11T08:31:25.98Z</time></trkpt><trkpt lat="45.2984393011493" lon="7.976813298217154"><ele>252.0</ele><time>2026-04-11T08:31:26.979Z</time></trkpt><trkpt lat="45.298603511184794" lon="7.9766735532859"><ele>252.0</ele><time>2026-04-11T08:31:27.979Z</time></trkpt><trkpt lat="45.29877759967338" lon="7.976559195291998"><ele>252.33333333333331</ele><time>2026-04-11T08:31:28.979Z</time></trkpt><trkpt lat="45.2989558722617" lon="7.976487924101148"><ele>252.66666666666666</ele><time>2026-04-11T08:31:29.979Z</time></trkpt><trkpt lat="45.29912031338565" lon="7.976464050255743"><ele>253.0</ele><time>2026-04-11T08:31:30.98Z</time></trkpt><trkpt lat="45.29945049749037" lon="7.9765982943229155"><ele>253.33333333333331</ele><time>2026-04-11T08:31:32.98Z</time></trkpt><trkpt lat="45.2996292420004" lon="7.976734552555242"><ele>253.66666666666669</ele><time>2026-04-11T08:31:33.98Z</time></trkpt><trkpt lat="45.2998183313396" lon="7.976885944683364"><ele>254.0</ele><time>2026-04-11T08:31:34.98Z</time></trkpt><trkpt lat="45.3000292710743" lon="7.977004921202738"><ele>254.5</ele><time>2026-04-11T08:31:35.98Z</time></trkpt><trkpt lat="45.300264548874374" lon="7.977089365169142"><ele>255.0</ele><time>2026-04-11T08:31:36.98Z</time></trkpt><trkpt lat="45.30052810896622" lon="7.9771815298099735"><ele>255.5</ele><time>2026-04-11T08:31:37.98Z</time></trkpt><trkpt lat="45.300783364663886" lon="7.977268486933014"><ele>256.0</ele><time>2026-04-11T08:31:38.98Z</time></trkpt><trkpt lat="45.301032825261736" lon="7.977352177018341"><ele>256.0</ele><time>2026-04-11T08:31:39.98Z</time></trkpt><trkpt lat="45.30127732017822" lon="7.977432894576806"><ele>256.0</ele><time>2026-04-11T08:31:40.98Z</time></trkpt><trkpt lat="45.30150549299047" lon="7.9775061265115985"><ele>256.66666666666663</ele><time>2026-04-11T08:31:41.979Z</time></trkpt><trkpt lat="45.30171980434621" lon="7.977565411212562"><ele>257.3333333333333</ele><time>2026-04-11T08:31:42.979Z</time></trkpt><trkpt lat="45.30192888543812" lon="7.9775999769483015"><ele>258.0</ele><time>2026-04-11T08:31:43.979Z</time></trkpt><trkpt lat="45.3021379165238" lon="7.977618738995463"><ele>258.6666666666667</ele><time>2026-04-11T08:31:44.979Z</time></trkpt><trkpt lat="45.302338896019116" lon="7.9776337632991545"><ele>259.33333333333337</ele><time>2026-04-11T08:31:45.979Z</time></trkpt><trkpt lat="45.30252778255114" lon="7.977656837675276"><ele>260.0</ele><time>2026-04-11T08:31:46.979Z</time></trkpt><trkpt lat="45.30271395670879" lon="7.9777055293951395"><ele>260.0</ele><time>2026-04-11T08:31:47.979Z</time></trkpt><trkpt lat="45.30290848823224" lon="7.977773090517958"><ele>260.0</ele><time>2026-04-11T08:31:48.979Z</time></trkpt><trkpt lat="45.30310791546351" lon="7.97783835580461"><ele>260.0</ele><time>2026-04-11T08:31:49.979Z</time></trkpt><trkpt lat="45.30329742982624" lon="7.977902056601225"><ele>260.33333333333337</ele><time>2026-04-11T08:31:50.979Z</time></trkpt><trkpt lat="45.30347562266886" lon="7.977962446227691"><ele>260.6666666666667</ele><time>2026-04-11T08:31:51.979Z</time></trkpt><trkpt lat="45.30364299720788" lon="7.978019093723071"><ele>261.0</ele><time>2026-04-11T08:31:52.979Z</time></trkpt><trkpt lat="45.303794340288135" lon="7.978073241992773"><ele>261.75</ele><time>2026-04-11T08:31:53.979Z</time></trkpt><trkpt lat="45.30393720514341" lon="7.978131705255469"><ele>262.5</ele><time>2026-04-11T08:31:54.979Z</time></trkpt><trkpt lat="45.304081458311856" lon="7.978165707633584"><ele>263.25</ele><time>2026-04-11T08:31:55.979Z</time></trkpt><trkpt lat="45.30422536101516" lon="7.978207876234176"><ele>264.0</ele><time>2026-04-11T08:31:56.979Z</time></trkpt><trkpt lat="45.30439055308288" lon="7.978160894086629"><ele>264.0</ele><time>2026-04-11T08:31:57.979Z</time></trkpt><trkpt lat="45.30456521638998" lon="7.978111877677705"><ele>264.0</ele><time>2026-04-11T08:31:58.979Z</time></trkpt><trkpt lat="45.30475204301973" lon="7.978055556399936"><ele>264.0</ele><time>2026-04-11T08:31:59.979Z</time></trkpt><trkpt lat="45.30494417525751" lon="7.9779976356763305"><ele>264.6666666666667</ele><time>2026-04-11T08:32:00.979Z</time></trkpt><trkpt lat="45.30513494282772" lon="7.977913002415175"><ele>265.33333333333337</ele><time>2026-04-11T08:32:01.979Z</time></trkpt><trkpt lat="45.30533659265159" lon="7.977868364405954"><ele>266.0</ele><time>2026-04-11T08:32:02.979Z</time></trkpt><trkpt lat="45.30554070294428" lon="7.977802971648523"><ele>265.0</ele><time>2026-04-11T08:32:03.979Z</time></trkpt><trkpt lat="45.30574793715055" lon="7.977738351909347"><ele>264.0</ele><time>2026-04-11T08:32:04.979Z</time></trkpt><trkpt lat="45.305954864192344" lon="7.9776723726033785"><ele>263.0</ele><time>2026-04-11T08:32:05.979Z</time></trkpt><trkpt lat="45.306157890435436" lon="7.977607680107923"><ele>263.0</ele><time>2026-04-11T08:32:06.979Z</time></trkpt><trkpt lat="45.30635730327249" lon="7.977544063005854"><ele>263.0</ele><time>2026-04-11T08:32:07.979Z</time></trkpt><trkpt lat="45.30655099108889" lon="7.977489735877363"><ele>263.0</ele><time>2026-04-11T08:32:08.979Z</time></trkpt><trkpt lat="45.30673951058973" lon="7.97745483883413"><ele>264.33333333333337</ele><time>2026-04-11T08:32:09.979Z</time></trkpt><trkpt lat="45.30692004383957" lon="7.977431654292268"><ele>265.6666666666667</ele><time>2026-04-11T08:32:10.979Z</time></trkpt><trkpt lat="45.30708631111646" lon="7.977411520893336"><ele>267.0</ele><time>2026-04-11T08:32:11.979Z</time></trkpt><trkpt lat="45.307239848002794" lon="7.977394219225893"><ele>267.5</ele><time>2026-04-11T08:32:12.978Z</time></trkpt><trkpt lat="45.307390170788736" lon="7.977381496009577"><ele>268.0</ele><time>2026-04-11T08:32:13.978Z</time></trkpt><trkpt lat="45.307528413531706" lon="7.977369301024939"><ele>268.5</ele><time>2026-04-11T08:32:14.978Z</time></trkpt><trkpt lat="45.30765176479689" lon="7.977358836494578"><ele>269.0</ele><time>2026-04-11T08:32:15.978Z</time></trkpt><trkpt lat="45.30776155751054" lon="7.9773499574105"><ele>269.0</ele><time>2026-04-11T08:32:16.978Z</time></trkpt><trkpt lat="45.30786574533777" lon="7.977338023237569"><ele>269.0</ele><time>2026-04-11T08:32:17.978Z</time></trkpt><trkpt lat="45.307962968652646" lon="7.977352127057447"><ele>269.0</ele><time>2026-04-11T08:32:18.978Z</time></trkpt><trkpt lat="45.30806637018099" lon="7.977341504392417"><ele>269.0</ele><time>2026-04-11T08:32:19.978Z</time></trkpt><trkpt lat="45.30818119514892" lon="7.977328789871655"><ele>269.0</ele><time>2026-04-11T08:32:20.978Z</time></trkpt><trkpt lat="45.30830410427814" lon="7.977314451390214"><ele>268.75</ele><time>2026-04-11T08:32:21.978Z</time></trkpt><trkpt lat="45.308438660611095" lon="7.9772931801848515"><ele>268.5</ele><time>2026-04-11T08:32:22.978Z</time></trkpt><trkpt lat="45.30858051160259" lon="7.9772633880729416"><ele>268.25</ele><time>2026-04-11T08:32:23.978Z</time></trkpt><trkpt lat="45.30872693528635" lon="7.977224969504538"><ele>268.0</ele><time>2026-04-11T08:32:24.978Z</time></trkpt><trkpt lat="45.30887407891042" lon="7.977182818255631"><ele>268.25</ele><time>2026-04-11T08:32:25.978Z</time></trkpt><trkpt lat="45.309015104807344" lon="7.97713957767896"><ele>268.5</ele><time>2026-04-11T08:32:26.978Z</time></trkpt><trkpt lat="45.309157690019894" lon="7.977094331290751"><ele>268.75</ele><time>2026-04-11T08:32:27.978Z</time></trkpt><trkpt lat="45.30929140003604" lon="7.977051901257991"><ele>269.0</ele><time>2026-04-11T08:32:28.978Z</time></trkpt><trkpt lat="45.309418357471614" lon="7.97701129942711"><ele>269.0</ele><time>2026-04-11T08:32:29.978Z</time></trkpt><trkpt lat="45.309537994981156" lon="7.9769728720741035"><ele>269.0</ele><time>2026-04-11T08:32:30.978Z</time></trkpt><trkpt lat="45.3096347525554" lon="7.9769417939339"><ele>269.0</ele><time>2026-04-11T08:32:31.978Z</time></trkpt><trkpt lat="45.3097084651161" lon="7.976870021120027"><ele>269.0</ele><time>2026-04-11T08:32:32.978Z</time></trkpt><trkpt lat="45.30981024167321" lon="7.9768416878788635"><ele>269.0</ele><time>2026-04-11T08:32:34.978Z</time></trkpt><trkpt lat="45.30983796386388" lon="7.976743856712652"><ele>269.2</ele><time>2026-04-11T08:32:37.978Z</time></trkpt><trkpt lat="45.3098076848834" lon="7.976652286871918"><ele>269.4</ele><time>2026-04-11T08:32:38.978Z</time></trkpt><trkpt lat="45.30975366403859" lon="7.976544998909139"><ele>269.6</ele><time>2026-04-11T08:32:39.978Z</time></trkpt><trkpt lat="45.30973766378804" lon="7.976358243224562"><ele>269.8</ele><time>2026-04-11T08:32:40.978Z</time></trkpt><trkpt lat="45.30971961982637" lon="7.976196168099274"><ele>270.0</ele><time>2026-04-11T08:32:41.978Z</time></trkpt><trkpt lat="45.30968973335366" lon="7.9760108215699725"><ele>270.25</ele><time>2026-04-11T08:32:42.978Z</time></trkpt><trkpt lat="45.30966562958845" lon="7.97580491308363"><ele>270.5</ele><time>2026-04-11T08:32:43.978Z</time></trkpt><trkpt lat="45.30965814718964" lon="7.975610616550219"><ele>270.75</ele><time>2026-04-11T08:32:44.977Z</time></trkpt><trkpt lat="45.30965211565384" lon="7.975430842514184"><ele>271.0</ele><time>2026-04-11T08:32:45.977Z</time></trkpt><trkpt lat="45.30963752967276" lon="7.975253240613039"><ele>271.0</ele><time>2026-04-11T08:32:46.977Z</time></trkpt><trkpt lat="45.30959988384213" lon="7.97507148741208"><ele>271.0</ele><time>2026-04-11T08:32:47.977Z</time></trkpt><trkpt lat="45.30957190372102" lon="7.974881189751188"><ele>271.0</ele><time>2026-04-11T08:32:48.977Z</time></trkpt><trkpt lat="45.30953323638511" lon="7.9746827896122126"><ele>271.0</ele><time>2026-04-11T08:32:49.977Z</time></trkpt><trkpt lat="45.30951457190978" lon="7.974464234546368"><ele>271.0</ele><time>2026-04-11T08:32:50.977Z</time></trkpt><trkpt lat="45.309480174749034" lon="7.974254859332507"><ele>271.0</ele><time>2026-04-11T08:32:51.977Z</time></trkpt><trkpt lat="45.30944555754668" lon="7.974050610822687"><ele>271.0</ele><time>2026-04-11T08:32:52.977Z</time></trkpt><trkpt lat="45.30941554421367" lon="7.97385773836292"><ele>271.0</ele><time>2026-04-11T08:32:53.977Z</time></trkpt><trkpt lat="45.30938840595398" lon="7.973677108441698"><ele>271.25</ele><time>2026-04-11T08:32:54.977Z</time></trkpt><trkpt lat="45.30935952533022" lon="7.973493016555171"><ele>271.5</ele><time>2026-04-11T08:32:55.977Z</time></trkpt><trkpt lat="45.3093264699619" lon="7.973295763706898"><ele>271.75</ele><time>2026-04-11T08:32:56.977Z</time></trkpt><trkpt lat="45.30928832755804" lon="7.973080438267462"><ele>272.0</ele><time>2026-04-11T08:32:57.977Z</time></trkpt><trkpt lat="45.30923782494746" lon="7.972841100033564"><ele>272.0</ele><time>2026-04-11T08:32:58.977Z</time></trkpt><trkpt lat="45.30915527953361" lon="7.972596610030182"><ele>272.0</ele><time>2026-04-11T08:32:59.977Z</time></trkpt><trkpt lat="45.309051399864806" lon="7.972364558476524"><ele>272.0</ele><time>2026-04-11T08:33:00.977Z</time></trkpt><trkpt lat="45.308949994471675" lon="7.972155064480463"><ele>270.0</ele><time>2026-04-11T08:33:01.977Z</time></trkpt><trkpt lat="45.3088537731038" lon="7.971958217014306"><ele>268.0</ele><time>2026-04-11T08:33:02.977Z</time></trkpt><trkpt lat="45.30875652984306" lon="7.971759189961221"><ele>266.0</ele><time>2026-04-11T08:33:03.977Z</time></trkpt><trkpt lat="45.30865697488125" lon="7.9715586143714265"><ele>266.0</ele><time>2026-04-11T08:33:04.977Z</time></trkpt><trkpt lat="45.30856589716511" lon="7.971369907046471"><ele>266.0</ele><time>2026-04-11T08:33:05.977Z</time></trkpt><trkpt lat="45.30849000402888" lon="7.971176953425383"><ele>266.0</ele><time>2026-04-11T08:33:06.977Z</time></trkpt><trkpt lat="45.308421252936355" lon="7.970968735313121"><ele>267.0</ele><time>2026-04-11T08:33:07.977Z</time></trkpt><trkpt lat="45.30837285820469" lon="7.9707354393432714"><ele>268.0</ele><time>2026-04-11T08:33:08.977Z</time></trkpt><trkpt lat="45.30833791950302" lon="7.970480543277228"><ele>269.0</ele><time>2026-04-11T08:33:09.977Z</time></trkpt><trkpt lat="45.30831509650969" lon="7.970214141712969"><ele>268.6666666666667</ele><time>2026-04-11T08:33:10.977Z</time></trkpt><trkpt lat="45.30829960240266" lon="7.969939673666225"><ele>268.3333333333333</ele><time>2026-04-11T08:33:11.977Z</time></trkpt><trkpt lat="45.30828641448264" lon="7.969651382914206"><ele>268.0</ele><time>2026-04-11T08:33:12.977Z</time></trkpt><trkpt lat="45.30827259814237" lon="7.969349354761002"><ele>267.66666666666663</ele><time>2026-04-11T08:33:13.977Z</time></trkpt><trkpt lat="45.3082594101607" lon="7.969061062648138"><ele>267.3333333333333</ele><time>2026-04-11T08:33:14.977Z</time></trkpt><trkpt lat="45.30823194552166" lon="7.968802708343817"><ele>267.0</ele><time>2026-04-11T08:33:15.976Z</time></trkpt><trkpt lat="45.308224106219456" lon="7.968570703120336"><ele>267.0</ele><time>2026-04-11T08:33:16.976Z</time></trkpt><trkpt lat="45.308212839963396" lon="7.968365025829135"><ele>267.0</ele><time>2026-04-11T08:33:17.976Z</time></trkpt><trkpt lat="45.30817223582401" lon="7.9681912013793"><ele>267.0</ele><time>2026-04-11T08:33:18.976Z</time></trkpt><trkpt lat="45.30809895145441" lon="7.968050807235617"><ele>267.0</ele><time>2026-04-11T08:33:19.976Z</time></trkpt><trkpt lat="45.30800536380482" lon="7.967921602701233"><ele>267.0</ele><time>2026-04-11T08:33:20.976Z</time></trkpt><trkpt lat="45.307852402910626" lon="7.967858980284623"><ele>267.0</ele><time>2026-04-11T08:33:21.976Z</time></trkpt><trkpt lat="45.307667410026674" lon="7.967752079718904"><ele>267.0</ele><time>2026-04-11T08:33:22.976Z</time></trkpt><trkpt lat="45.30743533987506" lon="7.96765110085569"><ele>266.5</ele><time>2026-04-11T08:33:23.978Z</time></trkpt><trkpt lat="45.307167723193636" lon="7.967535560151377"><ele>266.0</ele><time>2026-04-11T08:33:24.978Z</time></trkpt><trkpt lat="45.30690062690009" lon="7.967420244126235"><ele>266.0</ele><time>2026-04-11T08:33:25.978Z</time></trkpt><trkpt lat="45.306652195446496" lon="7.967312310889193"><ele>266.0</ele><time>2026-04-11T08:33:26.978Z</time></trkpt><trkpt lat="45.30642063971266" lon="7.96720349093964"><ele>266.0</ele><time>2026-04-11T08:33:27.978Z</time></trkpt><trkpt lat="45.30618170775186" lon="7.967134731536993"><ele>266.0</ele><time>2026-04-11T08:33:28.978Z</time></trkpt><trkpt lat="45.3059460840713" lon="7.967038913514807"><ele>266.0</ele><time>2026-04-11T08:33:29.978Z</time></trkpt><trkpt lat="45.30571068679373" lon="7.966991809486602"><ele>266.0</ele><time>2026-04-11T08:33:30.978Z</time></trkpt><trkpt lat="45.3054828400821" lon="7.966948553009103"><ele>264.5</ele><time>2026-04-11T08:33:31.978Z</time></trkpt><trkpt lat="45.30524549610726" lon="7.966902836086158"><ele>263.0</ele><time>2026-04-11T08:33:32.978Z</time></trkpt><trkpt lat="45.305003473313974" lon="7.966856018565278"><ele>263.0</ele><time>2026-04-11T08:33:33.978Z</time></trkpt><trkpt lat="45.30475501449935" lon="7.966810748692802"><ele>263.0</ele><time>2026-04-11T08:33:34.978Z</time></trkpt><trkpt lat="45.30451749908875" lon="7.96676874218517"><ele>263.5</ele><time>2026-04-11T08:33:35.978Z</time></trkpt><trkpt lat="45.30428511863006" lon="7.966736548024646"><ele>264.0</ele><time>2026-04-11T08:33:36.978Z</time></trkpt><trkpt lat="45.30406591148608" lon="7.966718112731996"><ele>262.6666666666667</ele><time>2026-04-11T08:33:37.978Z</time></trkpt><trkpt lat="45.30384094715235" lon="7.966734621898496"><ele>261.33333333333337</ele><time>2026-04-11T08:33:38.978Z</time></trkpt><trkpt lat="45.30362300499421" lon="7.966757826985506"><ele>260.0</ele><time>2026-04-11T08:33:39.978Z</time></trkpt><trkpt lat="45.30343196102603" lon="7.9667780016002565"><ele>260.0</ele><time>2026-04-11T08:33:40.978Z</time></trkpt><trkpt lat="45.303271997708194" lon="7.9667908218651045"><ele>260.0</ele><time>2026-04-11T08:33:41.978Z</time></trkpt><trkpt lat="45.30314678748076" lon="7.966795912712001"><ele>260.0</ele><time>2026-04-11T08:33:42.978Z</time></trkpt><trkpt lat="45.303042538644306" lon="7.966785154699684"><ele>260.0</ele><time>2026-04-11T08:33:43.978Z</time></trkpt><trkpt lat="45.30295024984522" lon="7.966764231804869"><ele>254.25</ele><time>2026-04-11T08:33:44.978Z</time></trkpt><trkpt lat="45.30289694601435" lon="7.966664772381567"><ele>248.5</ele><time>2026-04-11T08:33:45.978Z</time></trkpt><trkpt lat="45.30288070949478" lon="7.96651892923381"><ele>242.75</ele><time>2026-04-11T08:33:46.978Z</time></trkpt><trkpt lat="45.30289040472084" lon="7.966316038259483"><ele>237.0</ele><time>2026-04-11T08:33:47.978Z</time></trkpt><trkpt lat="45.302876417245784" lon="7.966088484199259"><ele>237.33333333333331</ele><time>2026-04-11T08:33:48.978Z</time></trkpt><trkpt lat="45.302818292848784" lon="7.965843645248767"><ele>237.66666666666666</ele><time>2026-04-11T08:33:49.978Z</time></trkpt><trkpt lat="45.30276555438781" lon="7.965635117140159"><ele>238.0</ele><time>2026-04-11T08:33:50.978Z</time></trkpt><trkpt lat="45.30271548397473" lon="7.9654638820147525"><ele>238.0</ele><time>2026-04-11T08:33:51.978Z</time></trkpt><trkpt lat="45.30271223388648" lon="7.965302982762257"><ele>238.0</ele><time>2026-04-11T08:33:52.978Z</time></trkpt><trkpt lat="45.302733533685625" lon="7.965154009169932"><ele>238.0</ele><time>2026-04-11T08:33:53.978Z</time></trkpt><trkpt lat="45.302764563460094" lon="7.9650222643448565"><ele>238.0</ele><time>2026-04-11T08:33:54.978Z</time></trkpt><trkpt lat="45.30278227892928" lon="7.964900518599585"><ele>238.0</ele><time>2026-04-11T08:33:55.978Z</time></trkpt><trkpt lat="45.302778980724966" lon="7.964779704121461"><ele>238.8</ele><time>2026-04-11T08:33:56.978Z</time></trkpt><trkpt lat="45.30275347235313" lon="7.964655331406384"><ele>239.60000000000002</ele><time>2026-04-11T08:33:57.978Z</time></trkpt><trkpt lat="45.302666625896194" lon="7.964603328520486"><ele>240.39999999999998</ele><time>2026-04-11T08:33:58.978Z</time></trkpt><trkpt lat="45.302581036069476" lon="7.964610130801768"><ele>241.2</ele><time>2026-04-11T08:33:59.978Z</time></trkpt><trkpt lat="45.30248773154534" lon="7.964646424158393"><ele>242.0</ele><time>2026-04-11T08:34:00.978Z</time></trkpt><trkpt lat="45.302422904729085" lon="7.964773613791524"><ele>242.0</ele><time>2026-04-11T08:34:01.977Z</time></trkpt><trkpt lat="45.30241673509795" lon="7.964949510549897"><ele>242.0</ele><time>2026-04-11T08:34:02.977Z</time></trkpt><trkpt lat="45.30244660610985" lon="7.965142695746058"><ele>242.0</ele><time>2026-04-11T08:34:03.977Z</time></trkpt><trkpt lat="45.30248289453775" lon="7.965337195291053"><ele>242.0</ele><time>2026-04-11T08:34:04.977Z</time></trkpt><trkpt lat="45.30251896694786" lon="7.965525164943249"><ele>241.0</ele><time>2026-04-11T08:34:05.977Z</time></trkpt><trkpt lat="45.30253314773799" lon="7.965715668969125"><ele>240.0</ele><time>2026-04-11T08:34:06.977Z</time></trkpt><trkpt lat="45.30251255749044" lon="7.965909439579497"><ele>239.0</ele><time>2026-04-11T08:34:07.977Z</time></trkpt><trkpt lat="45.3025013487204" lon="7.966091972938412"><ele>238.0</ele><time>2026-04-11T08:34:08.977Z</time></trkpt><trkpt lat="45.30248974926665" lon="7.966259058885883"><ele>237.8</ele><time>2026-04-11T08:34:09.977Z</time></trkpt><trkpt lat="45.302477918806275" lon="7.966415729528688"><ele>237.60000000000002</ele><time>2026-04-11T08:34:10.977Z</time></trkpt><trkpt lat="45.302466822608736" lon="7.966562676381773"><ele>237.39999999999998</ele><time>2026-04-11T08:34:11.977Z</time></trkpt><trkpt lat="45.302455244119976" lon="7.966705431794365"><ele>237.2</ele><time>2026-04-11T08:34:12.977Z</time></trkpt><trkpt lat="45.30245546356377" lon="7.96684435532481"><ele>237.0</ele><time>2026-04-11T08:34:13.977Z</time></trkpt><trkpt lat="45.30241896957829" lon="7.966959726555882"><ele>238.16666666666666</ele><time>2026-04-11T08:34:14.977Z</time></trkpt><trkpt lat="45.302358257209235" lon="7.967041384501472"><ele>239.33333333333331</ele><time>2026-04-11T08:34:15.977Z</time></trkpt><trkpt lat="45.3022862970071" lon="7.967085419282141"><ele>240.5</ele><time>2026-04-11T08:34:16.977Z</time></trkpt><trkpt lat="45.302205083507886" lon="7.967089135713436"><ele>241.66666666666666</ele><time>2026-04-11T08:34:17.977Z</time></trkpt><trkpt lat="45.302124539060195" lon="7.967043617325267"><ele>242.83333333333331</ele><time>2026-04-11T08:34:18.977Z</time></trkpt><trkpt lat="45.3020551176676" lon="7.9669528114288415"><ele>244.0</ele><time>2026-04-11T08:34:19.977Z</time></trkpt><trkpt lat="45.30202703884155" lon="7.966828884604559"><ele>238.0</ele><time>2026-04-11T08:34:20.977Z</time></trkpt><trkpt lat="45.302034349667885" lon="7.9666611205231685"><ele>232.0</ele><time>2026-04-11T08:34:21.977Z</time></trkpt><trkpt lat="45.302051366574545" lon="7.96647293307639"><ele>226.0</ele><time>2026-04-11T08:34:22.977Z</time></trkpt><trkpt lat="45.302072243831496" lon="7.966289832387769"><ele>220.0</ele><time>2026-04-11T08:34:23.977Z</time></trkpt><trkpt lat="45.302103814837174" lon="7.966116440474456"><ele>220.0</ele><time>2026-04-11T08:34:24.977Z</time></trkpt><trkpt lat="45.302115723478344" lon="7.9659521357887195"><ele>220.0</ele><time>2026-04-11T08:34:25.977Z</time></trkpt><trkpt lat="45.30211186858543" lon="7.965767063285269"><ele>220.0</ele><time>2026-04-11T08:34:26.977Z</time></trkpt><trkpt lat="45.30209062074694" lon="7.965576117523796"><ele>220.0</ele><time>2026-04-11T08:34:27.977Z</time></trkpt><trkpt lat="45.30206868405972" lon="7.9653867861417655"><ele>219.5</ele><time>2026-04-11T08:34:28.977Z</time></trkpt><trkpt lat="45.302027942967754" lon="7.965210039481786"><ele>219.0</ele><time>2026-04-11T08:34:29.977Z</time></trkpt><trkpt lat="45.30199314605831" lon="7.965039611050224"><ele>218.5</ele><time>2026-04-11T08:34:30.977Z</time></trkpt><trkpt lat="45.301971571479214" lon="7.9648739233002"><ele>218.0</ele><time>2026-04-11T08:34:31.977Z</time></trkpt><trkpt lat="45.30197573287773" lon="7.964711595152613"><ele>218.0</ele><time>2026-04-11T08:34:32.977Z</time></trkpt><trkpt lat="45.30199246207885" lon="7.964525124089756"><ele>218.0</ele><time>2026-04-11T08:34:33.976Z</time></trkpt><trkpt lat="45.302013214848905" lon="7.9643174127774365"><ele>218.0</ele><time>2026-04-11T08:34:34.976Z</time></trkpt><trkpt lat="45.302042231011654" lon="7.96403620091589"><ele>217.0</ele><time>2026-04-11T08:34:35.976Z</time></trkpt><trkpt lat="45.30207164796109" lon="7.963753029098925"><ele>216.0</ele><time>2026-04-11T08:34:36.976Z</time></trkpt><trkpt lat="45.302102042711134" lon="7.963461652847758"><ele>215.0</ele><time>2026-04-11T08:34:37.976Z</time></trkpt><trkpt lat="45.30213169344107" lon="7.963181085527013"><ele>213.0</ele><time>2026-04-11T08:34:38.976Z</time></trkpt><trkpt lat="45.30216484820671" lon="7.962867361566704"><ele>211.0</ele><time>2026-04-11T08:34:39.976Z</time></trkpt><trkpt lat="45.30220218301576" lon="7.962511486318966"><ele>210.5</ele><time>2026-04-11T08:34:40.976Z</time></trkpt><trkpt lat="45.30222612258174" lon="7.962140006673275"><ele>210.0</ele><time>2026-04-11T08:34:41.976Z</time></trkpt><trkpt lat="45.3022639388942" lon="7.961808779877779"><ele>215.66666666666669</ele><time>2026-04-11T08:34:42.976Z</time></trkpt><trkpt lat="45.30229688640188" lon="7.961495014773295"><ele>221.33333333333334</ele><time>2026-04-11T08:34:43.976Z</time></trkpt><trkpt lat="45.30232037256178" lon="7.961206588678272"><ele>227.0</ele><time>2026-04-11T08:34:44.976Z</time></trkpt><trkpt lat="45.30235738517291" lon="7.960938092272282"><ele>226.0</ele><time>2026-04-11T08:34:45.976Z</time></trkpt><trkpt lat="45.302365548213416" lon="7.960657727876307"><ele>225.0</ele><time>2026-04-11T08:34:46.976Z</time></trkpt><trkpt lat="45.30234502768432" lon="7.960359993448915"><ele>224.0</ele><time>2026-04-11T08:34:47.976Z</time></trkpt><trkpt lat="45.30230554936676" lon="7.960109349156019"><ele>224.0</ele><time>2026-04-11T08:34:48.976Z</time></trkpt><trkpt lat="45.30226198063828" lon="7.959886919342017"><ele>224.0</ele><time>2026-04-11T08:34:49.976Z</time></trkpt><trkpt lat="45.30224600893243" lon="7.9596943923168135"><ele>224.0</ele><time>2026-04-11T08:34:50.976Z</time></trkpt><trkpt lat="45.30227281406066" lon="7.959505827435131"><ele>224.0</ele><time>2026-04-11T08:34:51.976Z</time></trkpt><trkpt lat="45.30233228916362" lon="7.959266209360335"><ele>223.5</ele><time>2026-04-11T08:34:52.976Z</time></trkpt><trkpt lat="45.30240089578782" lon="7.958978171595527"><ele>223.0</ele><time>2026-04-11T08:34:53.976Z</time></trkpt><trkpt lat="45.30246147640132" lon="7.958652493914898"><ele>221.33333333333331</ele><time>2026-04-11T08:34:54.976Z</time></trkpt><trkpt lat="45.30249886708275" lon="7.9583239806258534"><ele>219.66666666666669</ele><time>2026-04-11T08:34:55.976Z</time></trkpt><trkpt lat="45.30253368976997" lon="7.95803724613352"><ele>218.0</ele><time>2026-04-11T08:34:56.976Z</time></trkpt><trkpt lat="45.30256676556345" lon="7.95779193399605"><ele>218.0</ele><time>2026-04-11T08:34:57.976Z</time></trkpt><trkpt lat="45.30259731992354" lon="7.957607576985215"><ele>218.0</ele><time>2026-04-11T08:34:58.976Z</time></trkpt><trkpt lat="45.30265352249126" lon="7.957466003502722"><ele>218.0</ele><time>2026-04-11T08:34:59.976Z</time></trkpt><trkpt lat="45.30271735554598" lon="7.95733833207493"><ele>218.0</ele><time>2026-04-11T08:35:00.976Z</time></trkpt><trkpt lat="45.30275823534104" lon="7.957214902657977"><ele>217.5</ele><time>2026-04-11T08:35:01.976Z</time></trkpt><trkpt lat="45.30272954352026" lon="7.957065680417952"><ele>217.0</ele><time>2026-04-11T08:35:02.976Z</time></trkpt><trkpt lat="45.30268601751747" lon="7.956946063486954"><ele>216.5</ele><time>2026-04-11T08:35:03.976Z</time></trkpt><trkpt lat="45.302591349128505" lon="7.956875388003947"><ele>216.0</ele><time>2026-04-11T08:35:04.976Z</time></trkpt><trkpt lat="45.302440269499066" lon="7.956799420112151"><ele>213.66666666666669</ele><time>2026-04-11T08:35:05.975Z</time></trkpt><trkpt lat="45.302239743141484" lon="7.956709595759626"><ele>211.33333333333334</ele><time>2026-04-11T08:35:06.975Z</time></trkpt><trkpt lat="45.302023282395545" lon="7.956597618834807"><ele>209.0</ele><time>2026-04-11T08:35:07.975Z</time></trkpt><trkpt lat="45.301806821977195" lon="7.956491981307122"><ele>209.0</ele><time>2026-04-11T08:35:08.975Z</time></trkpt><trkpt lat="45.301602518384755" lon="7.956391039649102"><ele>209.0</ele><time>2026-04-11T08:35:09.975Z</time></trkpt><trkpt lat="45.30142192790827" lon="7.956299567764763"><ele>209.0</ele><time>2026-04-11T08:35:10.975Z</time></trkpt><trkpt lat="45.301255410306" lon="7.956211292922556"><ele>210.33333333333334</ele><time>2026-04-11T08:35:11.975Z</time></trkpt><trkpt lat="45.30109110107609" lon="7.956124256010714"><ele>211.66666666666669</ele><time>2026-04-11T08:35:12.975Z</time></trkpt><trkpt lat="45.30092392600042" lon="7.9560393070657"><ele>213.0</ele><time>2026-04-11T08:35:13.975Z</time></trkpt><trkpt lat="45.30076353993672" lon="7.955952123816199"><ele>213.0</ele><time>2026-04-11T08:35:14.975Z</time></trkpt><trkpt lat="45.300616805478604" lon="7.955872675437223"><ele>213.0</ele><time>2026-04-11T08:35:15.975Z</time></trkpt><trkpt lat="45.300490492353624" lon="7.955778272106653"><ele>213.0</ele><time>2026-04-11T08:35:16.975Z</time></trkpt><trkpt lat="45.3003924065457" lon="7.955644742833447"><ele>213.0</ele><time>2026-04-11T08:35:17.975Z</time></trkpt><trkpt lat="45.300350604550864" lon="7.9554628530120315"><ele>214.33333333333331</ele><time>2026-04-11T08:35:18.975Z</time></trkpt><trkpt lat="45.30032795217188" lon="7.955276339467754"><ele>215.66666666666666</ele><time>2026-04-11T08:35:19.975Z</time></trkpt><trkpt lat="45.300349929058434" lon="7.9550669098171625"><ele>217.0</ele><time>2026-04-11T08:35:20.975Z</time></trkpt><trkpt lat="45.30038827528581" lon="7.954815584222865"><ele>217.0</ele><time>2026-04-11T08:35:21.975Z</time></trkpt><trkpt lat="45.30042676577172" lon="7.954530591770418"><ele>217.0</ele><time>2026-04-11T08:35:22.975Z</time></trkpt><trkpt lat="45.3004704749438" lon="7.954212195880085"><ele>217.0</ele><time>2026-04-11T08:35:23.975Z</time></trkpt><trkpt lat="45.300518467986464" lon="7.953865596701781"><ele>216.5</ele><time>2026-04-11T08:35:24.975Z</time></trkpt><trkpt lat="45.30056834187339" lon="7.953517925906816"><ele>216.0</ele><time>2026-04-11T08:35:25.975Z</time></trkpt><trkpt lat="45.300618587370025" lon="7.953176433262242"><ele>216.5</ele><time>2026-04-11T08:35:26.975Z</time></trkpt><trkpt lat="45.30066350550899" lon="7.952842888532367"><ele>217.0</ele><time>2026-04-11T08:35:27.975Z</time></trkpt><trkpt lat="45.30070552289798" lon="7.952537048437391"><ele>217.0</ele><time>2026-04-11T08:35:28.975Z</time></trkpt><trkpt lat="45.300746434642946" lon="7.952251755326442"><ele>217.0</ele><time>2026-04-11T08:35:29.976Z</time></trkpt><trkpt lat="45.300782984121604" lon="7.951977512116244"><ele>217.0</ele><time>2026-04-11T08:35:30.977Z</time></trkpt><trkpt lat="45.300791436232885" lon="7.951693556918927"><ele>217.0</ele><time>2026-04-11T08:35:31.977Z</time></trkpt><trkpt lat="45.300800547002524" lon="7.951403260186189"><ele>217.0</ele><time>2026-04-11T08:35:32.977Z</time></trkpt><trkpt lat="45.30080107554301" lon="7.951100072497144"><ele>217.0</ele><time>2026-04-11T08:35:33.977Z</time></trkpt><trkpt lat="45.30074314299111" lon="7.950789445760669"><ele>216.5</ele><time>2026-04-11T08:35:34.977Z</time></trkpt><trkpt lat="45.300681548478344" lon="7.950464878065329"><ele>216.0</ele><time>2026-04-11T08:35:35.977Z</time></trkpt><trkpt lat="45.300609259075785" lon="7.950121873851702"><ele>218.5</ele><time>2026-04-11T08:35:36.977Z</time></trkpt><trkpt lat="45.300529780467265" lon="7.9497533933977325"><ele>221.0</ele><time>2026-04-11T08:35:37.977Z</time></trkpt><trkpt lat="45.300448396797975" lon="7.949372331290255"><ele>222.5</ele><time>2026-04-11T08:35:38.977Z</time></trkpt><trkpt lat="45.30037183400409" lon="7.94899878180733"><ele>224.0</ele><time>2026-04-11T08:35:39.977Z</time></trkpt><trkpt lat="45.30029038155031" lon="7.948611093945076"><ele>226.0</ele><time>2026-04-11T08:35:40.977Z</time></trkpt><trkpt lat="45.30021717510711" lon="7.948252096566441"><ele>228.0</ele><time>2026-04-11T08:35:41.977Z</time></trkpt><trkpt lat="45.300154689454516" lon="7.947922348909744"><ele>228.0</ele><time>2026-04-11T08:35:42.976Z</time></trkpt><trkpt lat="45.30009846049921" lon="7.9476420769907605"><ele>228.0</ele><time>2026-04-11T08:35:43.976Z</time></trkpt><trkpt lat="45.30004768444406" lon="7.947381615715336"><ele>228.0</ele><time>2026-04-11T08:35:44.976Z</time></trkpt><trkpt lat="45.29999703113309" lon="7.947153048335221"><ele>229.0</ele><time>2026-04-11T08:35:45.976Z</time></trkpt><trkpt lat="45.29994172704761" lon="7.946951597085313"><ele>230.0</ele><time>2026-04-11T08:35:46.976Z</time></trkpt><trkpt lat="45.299868148901716" lon="7.946766821463004"><ele>231.0</ele><time>2026-04-11T08:35:47.976Z</time></trkpt><trkpt lat="45.29976699736347" lon="7.946601949285105"><ele>235.33333333333331</ele><time>2026-04-11T08:35:48.976Z</time></trkpt><trkpt lat="45.29962940118764" lon="7.94644796108532"><ele>239.66666666666666</ele><time>2026-04-11T08:35:49.976Z</time></trkpt><trkpt lat="45.29945095429514" lon="7.946303434604057"><ele>244.0</ele><time>2026-04-11T08:35:50.976Z</time></trkpt><trkpt lat="45.29926000141472" lon="7.946156569118464"><ele>244.0</ele><time>2026-04-11T08:35:51.976Z</time></trkpt><trkpt lat="45.29896229345522" lon="7.945926435275186"><ele>244.0</ele><time>2026-04-11T08:35:53.976Z</time></trkpt><trkpt lat="45.298876007006136" lon="7.945811466495035"><ele>244.39999999999998</ele><time>2026-04-11T08:35:54.976Z</time></trkpt><trkpt lat="45.298830008253375" lon="7.945680706125913"><ele>244.79999999999998</ele><time>2026-04-11T08:35:55.976Z</time></trkpt><trkpt lat="45.29883637569212" lon="7.945541520075173"><ele>245.20000000000002</ele><time>2026-04-11T08:35:56.976Z</time></trkpt><trkpt lat="45.29887965884793" lon="7.9454112440292"><ele>245.60000000000002</ele><time>2026-04-11T08:35:57.976Z</time></trkpt><trkpt lat="45.298879658833066" lon="7.945281227492258"><ele>246.0</ele><time>2026-04-11T08:35:58.976Z</time></trkpt><trkpt lat="45.29888689459298" lon="7.9451403281543325"><ele>247.0</ele><time>2026-04-11T08:35:59.976Z</time></trkpt><trkpt lat="45.29933701273623" lon="7.944995356279385"><ele>247.0</ele><time>2026-04-11T08:36:00.976Z</time></trkpt><trkpt lat="45.29947900362283" lon="7.944895204117321"><ele>247.0</ele><time>2026-04-11T08:36:01.976Z</time></trkpt><trkpt lat="45.29960328631843" lon="7.94485082168241"><ele>247.0</ele><time>2026-04-11T08:36:02.976Z</time></trkpt><trkpt lat="45.299702256668354" lon="7.944802834875856"><ele>247.0</ele><time>2026-04-11T08:36:03.976Z</time></trkpt><trkpt lat="45.299765767804104" lon="7.944712512506371"><ele>247.0</ele><time>2026-04-11T08:36:04.976Z</time></trkpt><trkpt lat="45.299785530849114" lon="7.944591179596047"><ele>247.0</ele><time>2026-04-11T08:36:05.976Z</time></trkpt><trkpt lat="45.299746042306516" lon="7.944454980787416"><ele>247.0</ele><time>2026-04-11T08:36:06.976Z</time></trkpt><trkpt lat="45.299651301013924" lon="7.944309274123438"><ele>247.0</ele><time>2026-04-11T08:36:07.976Z</time></trkpt><trkpt lat="45.29952432382835" lon="7.94416353661215"><ele>249.33333333333331</ele><time>2026-04-11T08:36:08.975Z</time></trkpt><trkpt lat="45.29936033043257" lon="7.9439954831977815"><ele>251.66666666666669</ele><time>2026-04-11T08:36:09.975Z</time></trkpt><trkpt lat="45.299178324788166" lon="7.943800505636077"><ele>254.0</ele><time>2026-04-11T08:36:10.975Z</time></trkpt><trkpt lat="45.29900025112141" lon="7.943606751817259"><ele>254.66666666666669</ele><time>2026-04-11T08:36:11.975Z</time></trkpt><trkpt lat="45.29882593424198" lon="7.943411888607498"><ele>255.33333333333331</ele><time>2026-04-11T08:36:12.975Z</time></trkpt><trkpt lat="45.2986782816769" lon="7.943238131443978"><ele>256.0</ele><time>2026-04-11T08:36:13.975Z</time></trkpt><trkpt lat="45.29854377709832" lon="7.943078015062511"><ele>256.0</ele><time>2026-04-11T08:36:14.975Z</time></trkpt><trkpt lat="45.29842995652145" lon="7.942870958829047"><ele>256.0</ele><time>2026-04-11T08:36:15.975Z</time></trkpt><trkpt lat="45.29833151308498" lon="7.942628491841605"><ele>256.0</ele><time>2026-04-11T08:36:16.975Z</time></trkpt><trkpt lat="45.29824056505202" lon="7.942379061484809"><ele>255.66666666666666</ele><time>2026-04-11T08:36:17.975Z</time></trkpt><trkpt lat="45.298148683334254" lon="7.9421400034688565"><ele>255.33333333333331</ele><time>2026-04-11T08:36:18.975Z</time></trkpt><trkpt lat="45.29806749720608" lon="7.941921039078563"><ele>255.0</ele><time>2026-04-11T08:36:19.975Z</time></trkpt><trkpt lat="45.297998149049036" lon="7.941731536247864"><ele>257.0</ele><time>2026-04-11T08:36:20.975Z</time></trkpt><trkpt lat="45.297939686284764" lon="7.941558289596455"><ele>259.0</ele><time>2026-04-11T08:36:21.975Z</time></trkpt><trkpt lat="45.29789501689569" lon="7.941391686701583"><ele>261.0</ele><time>2026-04-11T08:36:22.975Z</time></trkpt><trkpt lat="45.297871710999196" lon="7.941231710875485"><ele>263.0</ele><time>2026-04-11T08:36:23.975Z</time></trkpt><trkpt lat="45.29786090350928" lon="7.9410778820435475"><ele>263.0</ele><time>2026-04-11T08:36:24.975Z</time></trkpt><trkpt lat="45.29786532362853" lon="7.940926294876234"><ele>263.0</ele><time>2026-04-11T08:36:25.975Z</time></trkpt><trkpt lat="45.297897889336724" lon="7.940776959169021"><ele>263.0</ele><time>2026-04-11T08:36:26.975Z</time></trkpt><trkpt lat="45.29794681741875" lon="7.940630321406037"><ele>263.0</ele><time>2026-04-11T08:36:27.975Z</time></trkpt><trkpt lat="45.29800014177079" lon="7.940480253836246"><ele>263.0</ele><time>2026-04-11T08:36:28.975Z</time></trkpt><trkpt lat="45.298060527325404" lon="7.940330101690183"><ele>265.25</ele><time>2026-04-11T08:36:29.975Z</time></trkpt><trkpt lat="45.29811919110145" lon="7.940180202747642"><ele>267.5</ele><time>2026-04-11T08:36:30.975Z</time></trkpt><trkpt lat="45.29817806241766" lon="7.940036031323909"><ele>269.75</ele><time>2026-04-11T08:36:31.975Z</time></trkpt><trkpt lat="45.29823376306538" lon="7.939894601607716"><ele>272.0</ele><time>2026-04-11T08:36:32.975Z</time></trkpt><trkpt lat="45.29828796428122" lon="7.939756787569939"><ele>272.0</ele><time>2026-04-11T08:36:33.975Z</time></trkpt><trkpt lat="45.29833515852554" lon="7.9396182537684235"><ele>272.0</ele><time>2026-04-11T08:36:34.975Z</time></trkpt><trkpt lat="45.2983722590253" lon="7.939481728607535"><ele>272.0</ele><time>2026-04-11T08:36:35.975Z</time></trkpt><trkpt lat="45.298408991253766" lon="7.939353028198877"><ele>272.0</ele><time>2026-04-11T08:36:36.975Z</time></trkpt><trkpt lat="45.29844487428464" lon="7.939228284983655"><ele>272.0</ele><time>2026-04-11T08:36:37.975Z</time></trkpt><trkpt lat="45.29848508187606" lon="7.939103059576422"><ele>272.0</ele><time>2026-04-11T08:36:38.975Z</time></trkpt><trkpt lat="45.29853003021325" lon="7.938978366049379"><ele>272.0</ele><time>2026-04-11T08:36:39.975Z</time></trkpt><trkpt lat="45.298585197824465" lon="7.938851151767223"><ele>272.0</ele><time>2026-04-11T08:36:40.974Z</time></trkpt><trkpt lat="45.29864571289732" lon="7.938724439681812"><ele>272.0</ele><time>2026-04-11T08:36:41.974Z</time></trkpt><trkpt lat="45.29870633667888" lon="7.9385987593836465"><ele>272.0</ele><time>2026-04-11T08:36:42.974Z</time></trkpt><trkpt lat="45.29875480890196" lon="7.9384680572077935"><ele>272.0</ele><time>2026-04-11T08:36:43.974Z</time></trkpt><trkpt lat="45.29879538863691" lon="7.93833833806726"><ele>272.0</ele><time>2026-04-11T08:36:44.974Z</time></trkpt><trkpt lat="45.29883394584047" lon="7.938215571644053"><ele>272.0</ele><time>2026-04-11T08:36:45.974Z</time></trkpt><trkpt lat="45.29886850937767" lon="7.9380888304229895"><ele>272.0</ele><time>2026-04-11T08:36:46.974Z</time></trkpt><trkpt lat="45.29891135165845" lon="7.9379624935659505"><ele>272.0</ele><time>2026-04-11T08:36:47.974Z</time></trkpt><trkpt lat="45.298960706500075" lon="7.937843852122487"><ele>272.4285714285714</ele><time>2026-04-11T08:36:48.974Z</time></trkpt><trkpt lat="45.29900773233171" lon="7.937739399529486"><ele>272.85714285714283</ele><time>2026-04-11T08:36:49.974Z</time></trkpt><trkpt lat="45.29905004186265" lon="7.937642600174435"><ele>273.2857142857143</ele><time>2026-04-11T08:36:50.974Z</time></trkpt><trkpt lat="45.29908880670145" lon="7.937555005956228"><ele>273.71428571428567</ele><time>2026-04-11T08:36:51.974Z</time></trkpt><trkpt lat="45.299118855864144" lon="7.937472880795435"><ele>274.1428571428571</ele><time>2026-04-11T08:36:52.974Z</time></trkpt><trkpt lat="45.29915811186871" lon="7.937401372674352"><ele>274.57142857142856</ele><time>2026-04-11T08:36:53.973Z</time></trkpt><trkpt lat="45.299198845825714" lon="7.937321148001541"><ele>275.0</ele><time>2026-04-11T08:36:54.973Z</time></trkpt><trkpt lat="45.29926471645945" lon="7.937180428224871"><ele>275.0</ele><time>2026-04-11T08:36:56.973Z</time></trkpt><trkpt lat="45.29933193511843" lon="7.937042596340558"><ele>275.0</ele><time>2026-04-11T08:36:58.973Z</time></trkpt><trkpt lat="45.299367017465386" lon="7.936954660921766"><ele>275.0</ele><time>2026-04-11T08:36:59.973Z</time></trkpt><trkpt lat="45.29942571010685" lon="7.9368757539478345"><ele>275.0</ele><time>2026-04-11T08:37:00.973Z</time></trkpt><trkpt lat="45.29946707450728" lon="7.936773421754805"><ele>275.0</ele><time>2026-04-11T08:37:01.973Z</time></trkpt><trkpt lat="45.29950896720962" lon="7.936669799644771"><ele>275.0</ele><time>2026-04-11T08:37:02.973Z</time></trkpt><trkpt lat="45.299547882309426" lon="7.936573542668702"><ele>275.1666666666667</ele><time>2026-04-11T08:37:03.973Z</time></trkpt><trkpt lat="45.29958107333698" lon="7.9364914442715335"><ele>275.33333333333337</ele><time>2026-04-11T08:37:04.972Z</time></trkpt><trkpt lat="45.299615470230385" lon="7.9364128370641165"><ele>275.5</ele><time>2026-04-11T08:37:05.972Z</time></trkpt><trkpt lat="45.2996960608916" lon="7.936279621297309"><ele>275.6666666666667</ele><time>2026-04-11T08:37:07.972Z</time></trkpt><trkpt lat="45.29973906047258" lon="7.936204402842045"><ele>275.8333333333333</ele><time>2026-04-11T08:37:08.972Z</time></trkpt><trkpt lat="45.29978743344607" lon="7.936123561936019"><ele>276.0</ele><time>2026-04-11T08:37:09.972Z</time></trkpt><trkpt lat="45.29984647403158" lon="7.936037246403136"><ele>276.0</ele><time>2026-04-11T08:37:10.972Z</time></trkpt><trkpt lat="45.29990852904576" lon="7.935952105513196"><ele>276.0</ele><time>2026-04-11T08:37:11.972Z</time></trkpt><trkpt lat="45.299957104273076" lon="7.935853345358788"><ele>276.0</ele><time>2026-04-11T08:37:12.972Z</time></trkpt><trkpt lat="45.30001072012113" lon="7.935782075323831"><ele>276.0</ele><time>2026-04-11T08:37:13.972Z</time></trkpt><trkpt lat="45.300099958741136" lon="7.935694898910152"><ele>276.0</ele><time>2026-04-11T08:37:15.972Z</time></trkpt><trkpt lat="45.300155009468114" lon="7.935600706562192"><ele>276.0</ele><time>2026-04-11T08:37:17.972Z</time></trkpt><trkpt lat="45.300169993681294" lon="7.935510281714093"><ele>275.40000000000003</ele><time>2026-04-11T08:37:18.972Z</time></trkpt><trkpt lat="45.30017688104102" lon="7.9353104535786905"><ele>274.8</ele><time>2026-04-11T08:37:20.972Z</time></trkpt><trkpt lat="45.30018462237365" lon="7.935180089434183"><ele>274.20000000000005</ele><time>2026-04-11T08:37:21.972Z</time></trkpt><trkpt lat="45.300184617044756" lon="7.935050846406833"><ele>273.6</ele><time>2026-04-11T08:37:22.972Z</time></trkpt><trkpt lat="45.30018989214336" lon="7.934904593447108"><ele>273.0</ele><time>2026-04-11T08:37:23.971Z</time></trkpt><trkpt lat="45.300196468965794" lon="7.934746475230704"><ele>272.75</ele><time>2026-04-11T08:37:24.971Z</time></trkpt><trkpt lat="45.3002005849642" lon="7.934581474340775"><ele>272.5</ele><time>2026-04-11T08:37:25.971Z</time></trkpt><trkpt lat="45.30019457671537" lon="7.934420884390113"><ele>272.25</ele><time>2026-04-11T08:37:26.971Z</time></trkpt><trkpt lat="45.30020950687375" lon="7.934250065801825"><ele>272.0</ele><time>2026-04-11T08:37:27.971Z</time></trkpt><trkpt lat="45.300202137587604" lon="7.934087719743088"><ele>271.5</ele><time>2026-04-11T08:37:28.971Z</time></trkpt><trkpt lat="45.30019288013407" lon="7.933947968083254"><ele>271.0</ele><time>2026-04-11T08:37:29.971Z</time></trkpt><trkpt lat="45.30018128888859" lon="7.933818357399079"><ele>270.5</ele><time>2026-04-11T08:37:30.971Z</time></trkpt><trkpt lat="45.30017241496974" lon="7.933716520610004"><ele>270.0</ele><time>2026-04-11T08:37:31.971Z</time></trkpt><trkpt lat="45.30017160742824" lon="7.933598774830831"><ele>269.5</ele><time>2026-04-11T08:37:32.971Z</time></trkpt><trkpt lat="45.300174767040886" lon="7.933465194828669"><ele>269.0</ele><time>2026-04-11T08:37:33.971Z</time></trkpt><trkpt lat="45.300195939220615" lon="7.933315376089341"><ele>268.5</ele><time>2026-04-11T08:37:34.971Z</time></trkpt><trkpt lat="45.30023068605166" lon="7.933148078865261"><ele>268.0</ele><time>2026-04-11T08:37:35.973Z</time></trkpt><trkpt lat="45.30026275846909" lon="7.932977615666576"><ele>267.5</ele><time>2026-04-11T08:37:36.974Z</time></trkpt><trkpt lat="45.3002873216342" lon="7.93281857656318"><ele>267.0</ele><time>2026-04-11T08:37:37.974Z</time></trkpt><trkpt lat="45.30030870029253" lon="7.932670005923004"><ele>266.8333333333333</ele><time>2026-04-11T08:37:38.973Z</time></trkpt><trkpt lat="45.300315890017075" lon="7.932539032585692"><ele>266.6666666666667</ele><time>2026-04-11T08:37:39.973Z</time></trkpt><trkpt lat="45.300301012280634" lon="7.932422874372483"><ele>266.5</ele><time>2026-04-11T08:37:40.973Z</time></trkpt><trkpt lat="45.30027357194939" lon="7.932313166463597"><ele>266.33333333333337</ele><time>2026-04-11T08:37:41.974Z</time></trkpt><trkpt lat="45.30024989089763" lon="7.932226565943685"><ele>266.1666666666667</ele><time>2026-04-11T08:37:42.974Z</time></trkpt><trkpt lat="45.30022885483457" lon="7.9320982796084545"><ele>266.0</ele><time>2026-04-11T08:37:44.973Z</time></trkpt><trkpt lat="45.30021032021682" lon="7.9319537259076105"><ele>266.0</ele><time>2026-04-11T08:38:06.972Z</time></trkpt><trkpt lat="45.30018733889032" lon="7.931854082018412"><ele>266.0</ele><time>2026-04-11T08:38:07.972Z</time></trkpt><trkpt lat="45.30015822934567" lon="7.931731664904321"><ele>266.0</ele><time>2026-04-11T08:38:08.972Z</time></trkpt><trkpt lat="45.300134654542354" lon="7.931608286784523"><ele>266.0</ele><time>2026-04-11T08:38:09.972Z</time></trkpt><trkpt lat="45.30011661461874" lon="7.93148199084034"><ele>266.0</ele><time>2026-04-11T08:38:10.972Z</time></trkpt><trkpt lat="45.30010009375379" lon="7.93134517925293"><ele>266.0</ele><time>2026-04-11T08:38:11.972Z</time></trkpt><trkpt lat="45.30009865423238" lon="7.93120754809205"><ele>266.0</ele><time>2026-04-11T08:38:12.972Z</time></trkpt><trkpt lat="45.30012742184161" lon="7.931071110296917"><ele>266.0</ele><time>2026-04-11T08:38:13.972Z</time></trkpt><trkpt lat="45.30012801071041" lon="7.930914882867917"><ele>266.0</ele><time>2026-04-11T08:38:14.972Z</time></trkpt><trkpt lat="45.30014942460204" lon="7.9307439434344005"><ele>266.0</ele><time>2026-04-11T08:38:15.972Z</time></trkpt><trkpt lat="45.30020042784013" lon="7.930574304861511"><ele>266.0</ele><time>2026-04-11T08:38:16.972Z</time></trkpt><trkpt lat="45.30022060513708" lon="7.930403405123228"><ele>266.0</ele><time>2026-04-11T08:38:17.972Z</time></trkpt><trkpt lat="45.30024971992566" lon="7.930215057500428"><ele>266.0</ele><time>2026-04-11T08:38:18.972Z</time></trkpt><trkpt lat="45.300280592207294" lon="7.930028099257665"><ele>266.0</ele><time>2026-04-11T08:38:19.972Z</time></trkpt><trkpt lat="45.30031311731642" lon="7.929861915183229"><ele>265.40000000000003</ele><time>2026-04-11T08:38:20.972Z</time></trkpt><trkpt lat="45.30033740226684" lon="7.929719454916948"><ele>264.8</ele><time>2026-04-11T08:38:21.972Z</time></trkpt><trkpt lat="45.30036421672293" lon="7.929599449477113"><ele>264.20000000000005</ele><time>2026-04-11T08:38:22.972Z</time></trkpt><trkpt lat="45.30039152432691" lon="7.92950345646245"><ele>263.6</ele><time>2026-04-11T08:38:23.972Z</time></trkpt><trkpt lat="45.3004759915682" lon="7.929386326034706"><ele>263.0</ele><time>2026-04-11T08:38:25.972Z</time></trkpt><trkpt lat="45.30054590764965" lon="7.929347665021392"><ele>263.2</ele><time>2026-04-11T08:38:26.972Z</time></trkpt><trkpt lat="45.30061430995829" lon="7.929284566184483"><ele>263.4</ele><time>2026-04-11T08:38:27.972Z</time></trkpt><trkpt lat="45.30064621696294" lon="7.929127894969131"><ele>263.59999999999997</ele><time>2026-04-11T08:38:29.972Z</time></trkpt><trkpt lat="45.30058675057167" lon="7.928992854409386"><ele>263.8</ele><time>2026-04-11T08:38:31.972Z</time></trkpt><trkpt lat="45.30048158091478" lon="7.928962684303158"><ele>264.0</ele><time>2026-04-11T08:38:33.971Z</time></trkpt><trkpt lat="45.30040570240156" lon="7.929068735966702"><ele>263.8</ele><time>2026-04-11T08:38:35.971Z</time></trkpt><trkpt lat="45.30039039628881" lon="7.929165778716291"><ele>263.59999999999997</ele><time>2026-04-11T08:38:36.971Z</time></trkpt><trkpt lat="45.3003826807012" lon="7.929277178124354"><ele>263.4</ele><time>2026-04-11T08:38:37.971Z</time></trkpt><trkpt lat="45.300362215038476" lon="7.929407654946678"><ele>263.2</ele><time>2026-04-11T08:38:38.971Z</time></trkpt><trkpt lat="45.300335287633324" lon="7.929548743263141"><ele>263.0</ele><time>2026-04-11T08:38:39.971Z</time></trkpt><trkpt lat="45.300305485328245" lon="7.929710651249773"><ele>263.0</ele><time>2026-04-11T08:38:40.971Z</time></trkpt><trkpt lat="45.30027283709803" lon="7.929880264156746"><ele>263.0</ele><time>2026-04-11T08:38:41.971Z</time></trkpt><trkpt lat="45.30024191489586" lon="7.930037717216258"><ele>263.0</ele><time>2026-04-11T08:38:42.971Z</time></trkpt><trkpt lat="45.300209726313525" lon="7.930193838607518"><ele>263.0</ele><time>2026-04-11T08:38:43.971Z</time></trkpt><trkpt lat="45.30018056227685" lon="7.930351005702373"><ele>263.6</ele><time>2026-04-11T08:38:44.971Z</time></trkpt><trkpt lat="45.300153951255986" lon="7.930503526990528"><ele>264.20000000000005</ele><time>2026-04-11T08:38:45.971Z</time></trkpt><trkpt lat="45.300133023025204" lon="7.930650341182237"><ele>264.8</ele><time>2026-04-11T08:38:46.971Z</time></trkpt><trkpt lat="45.30011946425048" lon="7.930786759819708"><ele>265.40000000000003</ele><time>2026-04-11T08:38:47.971Z</time></trkpt><trkpt lat="45.300105205730475" lon="7.930902635786745"><ele>266.0</ele><time>2026-04-11T08:38:48.971Z</time></trkpt><trkpt lat="45.300096531367345" lon="7.931000983445007"><ele>266.1666666666667</ele><time>2026-04-11T08:38:49.971Z</time></trkpt><trkpt lat="45.30008848947463" lon="7.931097835219816"><ele>266.33333333333337</ele><time>2026-04-11T08:38:51.971Z</time></trkpt><trkpt lat="45.30007580010077" lon="7.931256609224865"><ele>266.5</ele><time>2026-04-11T08:39:27.97Z</time></trkpt><trkpt lat="45.3000756790462" lon="7.931358701565776"><ele>266.6666666666667</ele><time>2026-04-11T08:39:28.97Z</time></trkpt><trkpt lat="45.30008399685414" lon="7.931450965508946"><ele>266.8333333333333</ele><time>2026-04-11T08:39:29.97Z</time></trkpt><trkpt lat="45.300104815241625" lon="7.931595260166529"><ele>267.0</ele><time>2026-04-11T08:39:31.97Z</time></trkpt><trkpt lat="45.30012102930051" lon="7.93168601314598"><ele>266.8</ele><time>2026-04-11T08:39:34.97Z</time></trkpt><trkpt lat="45.300142247024404" lon="7.9317998399071605"><ele>266.6</ele><time>2026-04-11T08:39:48.972Z</time></trkpt><trkpt lat="45.30025743527344" lon="7.93178298925469"><ele>266.40000000000003</ele><time>2026-04-11T08:39:49.972Z</time></trkpt><trkpt lat="45.30035514404816" lon="7.931816563105935"><ele>266.2</ele><time>2026-04-11T08:39:51.972Z</time></trkpt><trkpt lat="45.30047568888642" lon="7.931885363616238"><ele>266.0</ele><time>2026-04-11T08:39:53.972Z</time></trkpt><trkpt lat="45.300553962803285" lon="7.9319202588033795"><ele>266.8</ele><time>2026-04-11T08:39:54.972Z</time></trkpt><trkpt lat="45.300642415117544" lon="7.931963545405156"><ele>267.6</ele><time>2026-04-11T08:39:55.972Z</time></trkpt><trkpt lat="45.30073564727978" lon="7.932020674359521"><ele>268.4</ele><time>2026-04-11T08:39:56.972Z</time></trkpt><trkpt lat="45.30083457139678" lon="7.932083424428764"><ele>269.2</ele><time>2026-04-11T08:39:57.972Z</time></trkpt><trkpt lat="45.30092790135357" lon="7.93214262598125"><ele>270.0</ele><time>2026-04-11T08:39:58.972Z</time></trkpt><trkpt lat="45.30101964900298" lon="7.932204921118642"><ele>270.0</ele><time>2026-04-11T08:39:59.972Z</time></trkpt><trkpt lat="45.30112017964565" lon="7.93227772601477"><ele>270.0</ele><time>2026-04-11T08:40:00.972Z</time></trkpt><trkpt lat="45.301228276809404" lon="7.932362439214695"><ele>270.0</ele><time>2026-04-11T08:40:01.972Z</time></trkpt><trkpt lat="45.30134939580413" lon="7.932434955640747"><ele>270.0</ele><time>2026-04-11T08:40:02.972Z</time></trkpt><trkpt lat="45.30144700214193" lon="7.93255090127254"><ele>271.25</ele><time>2026-04-11T08:40:03.972Z</time></trkpt><trkpt lat="45.30156489141228" lon="7.932648999636851"><ele>272.5</ele><time>2026-04-11T08:40:04.972Z</time></trkpt><trkpt lat="45.3016856579452" lon="7.932751209563593"><ele>273.75</ele><time>2026-04-11T08:40:05.972Z</time></trkpt><trkpt lat="45.301811610184295" lon="7.932839667164485"><ele>275.0</ele><time>2026-04-11T08:40:06.972Z</time></trkpt><trkpt lat="45.30194025003208" lon="7.9329254609648885"><ele>275.0</ele><time>2026-04-11T08:40:07.972Z</time></trkpt><trkpt lat="45.302065182396994" lon="7.932998308147607"><ele>275.0</ele><time>2026-04-11T08:40:08.972Z</time></trkpt><trkpt lat="45.30218478412566" lon="7.933066907634994"><ele>275.0</ele><time>2026-04-11T08:40:09.972Z</time></trkpt><trkpt lat="45.302299018818864" lon="7.933137199411886"><ele>275.0</ele><time>2026-04-11T08:40:10.972Z</time></trkpt><trkpt lat="45.30240791422735" lon="7.933205902192675"><ele>275.8</ele><time>2026-04-11T08:40:11.972Z</time></trkpt><trkpt lat="45.302517450432866" lon="7.933265251024443"><ele>276.6</ele><time>2026-04-11T08:40:12.971Z</time></trkpt><trkpt lat="45.3026335196633" lon="7.93330222504513"><ele>277.4</ele><time>2026-04-11T08:40:13.971Z</time></trkpt><trkpt lat="45.30274368662224" lon="7.93331022958342"><ele>278.2</ele><time>2026-04-11T08:40:14.971Z</time></trkpt><trkpt lat="45.30284350406665" lon="7.933339007810388"><ele>279.0</ele><time>2026-04-11T08:40:15.971Z</time></trkpt><trkpt lat="45.30293661968145" lon="7.9333117429168105"><ele>279.0</ele><time>2026-04-11T08:40:16.971Z</time></trkpt><trkpt lat="45.30301881445107" lon="7.933309493666602"><ele>279.0</ele><time>2026-04-11T08:40:17.971Z</time></trkpt><trkpt lat="45.3031007471461" lon="7.93331630970897"><ele>279.0</ele><time>2026-04-11T08:40:18.971Z</time></trkpt><trkpt lat="45.30317901286151" lon="7.933363530990039"><ele>279.0</ele><time>2026-04-11T08:40:19.971Z</time></trkpt><trkpt lat="45.30325911974995" lon="7.933451204238835"><ele>279.0</ele><time>2026-04-11T08:40:20.971Z</time></trkpt><trkpt lat="45.303331951965255" lon="7.933545389697555"><ele>279.0</ele><time>2026-04-11T08:40:21.971Z</time></trkpt><trkpt lat="45.303408507939565" lon="7.9336434611024425"><ele>279.8333333333333</ele><time>2026-04-11T08:40:22.971Z</time></trkpt><trkpt lat="45.3034794886642" lon="7.933735723764518"><ele>280.6666666666667</ele><time>2026-04-11T08:40:23.971Z</time></trkpt><trkpt lat="45.30355696954681" lon="7.933806479757965"><ele>281.5</ele><time>2026-04-11T08:40:24.971Z</time></trkpt><trkpt lat="45.30362635447104" lon="7.933866234151601"><ele>282.33333333333337</ele><time>2026-04-11T08:40:25.971Z</time></trkpt><trkpt lat="45.30368330286521" lon="7.933914617947343"><ele>283.1666666666667</ele><time>2026-04-11T08:40:26.971Z</time></trkpt><trkpt lat="45.30376794243271" lon="7.933987245539735"><ele>284.0</ele><time>2026-04-11T08:40:28.971Z</time></trkpt><trkpt lat="45.30381206564805" lon="7.934052892002186"><ele>284.0</ele><time>2026-04-11T08:40:31.971Z</time></trkpt><trkpt lat="45.30387655778144" lon="7.93410515593334"><ele>284.0</ele><time>2026-04-11T08:40:33.971Z</time></trkpt><trkpt lat="45.30394176879168" lon="7.934111281980439"><ele>284.0</ele><time>2026-04-11T08:40:34.971Z</time></trkpt><trkpt lat="45.304016972699756" lon="7.934121726975845"><ele>284.0</ele><time>2026-04-11T08:40:35.971Z</time></trkpt><trkpt lat="45.30414950330043" lon="7.934114980787551"><ele>284.0</ele><time>2026-04-11T08:40:36.971Z</time></trkpt><trkpt lat="45.30432157404542" lon="7.9340985951113385"><ele>285.33333333333337</ele><time>2026-04-11T08:40:37.971Z</time></trkpt><trkpt lat="45.30448232427978" lon="7.9340599063970805"><ele>286.6666666666667</ele><time>2026-04-11T08:40:38.971Z</time></trkpt><trkpt lat="45.304641736530144" lon="7.933957685547803"><ele>288.0</ele><time>2026-04-11T08:40:39.971Z</time></trkpt><trkpt lat="45.30480732841335" lon="7.933925763653583"><ele>291.6666666666667</ele><time>2026-04-11T08:40:40.971Z</time></trkpt><trkpt lat="45.30496784001854" lon="7.933865416423324"><ele>295.33333333333337</ele><time>2026-04-11T08:40:41.971Z</time></trkpt><trkpt lat="45.30513474567652" lon="7.933854608028631"><ele>299.0</ele><time>2026-04-11T08:40:42.971Z</time></trkpt><trkpt lat="45.30530381225311" lon="7.933885191315444"><ele>299.0</ele><time>2026-04-11T08:40:43.97Z</time></trkpt><trkpt lat="45.30546351374985" lon="7.933932945932717"><ele>299.0</ele><time>2026-04-11T08:40:44.97Z</time></trkpt><trkpt lat="45.30560598101773" lon="7.933976959981479"><ele>299.0</ele><time>2026-04-11T08:40:45.97Z</time></trkpt><trkpt lat="45.30572447102068" lon="7.934025813522258"><ele>299.0</ele><time>2026-04-11T08:40:46.97Z</time></trkpt><trkpt lat="45.3058313387088" lon="7.9340477110392005"><ele>299.8</ele><time>2026-04-11T08:40:47.97Z</time></trkpt><trkpt lat="45.30592770331178" lon="7.934075886999814"><ele>300.59999999999997</ele><time>2026-04-11T08:40:48.97Z</time></trkpt><trkpt lat="45.306025248285835" lon="7.934066988458917"><ele>301.4</ele><time>2026-04-11T08:40:49.97Z</time></trkpt><trkpt lat="45.306114243397914" lon="7.934013332590717"><ele>302.2</ele><time>2026-04-11T08:40:50.97Z</time></trkpt><trkpt lat="45.30620226720895" lon="7.933931185460533"><ele>303.0</ele><time>2026-04-11T08:40:51.97Z</time></trkpt><trkpt lat="45.306296811483975" lon="7.933843369819323"><ele>303.0</ele><time>2026-04-11T08:40:52.97Z</time></trkpt><trkpt lat="45.306404329428005" lon="7.933774715086516"><ele>303.0</ele><time>2026-04-11T08:40:53.97Z</time></trkpt><trkpt lat="45.30653199206003" lon="7.933723955402103"><ele>303.0</ele><time>2026-04-11T08:40:54.97Z</time></trkpt><trkpt lat="45.3066756393426" lon="7.933687060780199"><ele>303.0</ele><time>2026-04-11T08:40:55.97Z</time></trkpt><trkpt lat="45.3068254239776" lon="7.933663916625939"><ele>305.0</ele><time>2026-04-11T08:40:56.97Z</time></trkpt><trkpt lat="45.306973176086" lon="7.933651867442331"><ele>307.0</ele><time>2026-04-11T08:40:57.97Z</time></trkpt><trkpt lat="45.30712824499515" lon="7.93369928043418"><ele>309.0</ele><time>2026-04-11T08:40:58.97Z</time></trkpt><trkpt lat="45.30728763465803" lon="7.933782062731644"><ele>311.0</ele><time>2026-04-11T08:40:59.97Z</time></trkpt><trkpt lat="45.30743316607741" lon="7.933863828713312"><ele>313.0</ele><time>2026-04-11T08:41:00.97Z</time></trkpt><trkpt lat="45.30760114951657" lon="7.933882716846824"><ele>315.0</ele><time>2026-04-11T08:41:01.97Z</time></trkpt><trkpt lat="45.30777388478707" lon="7.933845396526492"><ele>315.0</ele><time>2026-04-11T08:41:02.97Z</time></trkpt><trkpt lat="45.30792762423342" lon="7.933799525491151"><ele>315.0</ele><time>2026-04-11T08:41:03.97Z</time></trkpt><trkpt lat="45.3080787648889" lon="7.933765658413229"><ele>315.0</ele><time>2026-04-11T08:41:04.97Z</time></trkpt><trkpt lat="45.30822522310927" lon="7.933757612988052"><ele>314.3333333333333</ele><time>2026-04-11T08:41:05.97Z</time></trkpt><trkpt lat="45.308367633534814" lon="7.933807672322932"><ele>313.66666666666663</ele><time>2026-04-11T08:41:06.97Z</time></trkpt><trkpt lat="45.308510774436236" lon="7.933896130875331"><ele>313.0</ele><time>2026-04-11T08:41:07.97Z</time></trkpt><trkpt lat="45.30865491622594" lon="7.934030626212626"><ele>313.0</ele><time>2026-04-11T08:41:08.97Z</time></trkpt><trkpt lat="45.30879972572878" lon="7.9342048365811175"><ele>313.0</ele><time>2026-04-11T08:41:09.97Z</time></trkpt><trkpt lat="45.30894868123503" lon="7.934383984590777"><ele>313.0</ele><time>2026-04-11T08:41:10.97Z</time></trkpt><trkpt lat="45.309086480386966" lon="7.934527740305415"><ele>315.5</ele><time>2026-04-11T08:41:11.97Z</time></trkpt><trkpt lat="45.30922173559735" lon="7.934630219201675"><ele>318.0</ele><time>2026-04-11T08:41:12.97Z</time></trkpt><trkpt lat="45.309353637583726" lon="7.934691452674424"><ele>320.5</ele><time>2026-04-11T08:41:13.97Z</time></trkpt><trkpt lat="45.3094759528118" lon="7.934718743857688"><ele>323.0</ele><time>2026-04-11T08:41:14.969Z</time></trkpt><trkpt lat="45.309596906447936" lon="7.934719101213168"><ele>323.0</ele><time>2026-04-11T08:41:15.969Z</time></trkpt><trkpt lat="45.30970814498261" lon="7.934715413358417"><ele>323.0</ele><time>2026-04-11T08:41:16.969Z</time></trkpt><trkpt lat="45.309809358730995" lon="7.934722458611978"><ele>323.0</ele><time>2026-04-11T08:41:17.969Z</time></trkpt><trkpt lat="45.30990185709155" lon="7.934733151558861"><ele>323.0</ele><time>2026-04-11T08:41:18.969Z</time></trkpt><trkpt lat="45.30999476659986" lon="7.934730908718304"><ele>323.0</ele><time>2026-04-11T08:41:19.969Z</time></trkpt><trkpt lat="45.31011564892335" lon="7.9347307803607166"><ele>322.33333333333337</ele><time>2026-04-11T08:41:20.969Z</time></trkpt><trkpt lat="45.310257379569755" lon="7.934724701370836"><ele>321.6666666666667</ele><time>2026-04-11T08:41:21.969Z</time></trkpt><trkpt lat="45.31041661378979" lon="7.93468923601769"><ele>321.0</ele><time>2026-04-11T08:41:22.969Z</time></trkpt><trkpt lat="45.310599966219534" lon="7.934644013170382"><ele>318.0</ele><time>2026-04-11T08:41:23.969Z</time></trkpt><trkpt lat="45.31077487600193" lon="7.93459368679995"><ele>315.0</ele><time>2026-04-11T08:41:24.969Z</time></trkpt><trkpt lat="45.310947612874166" lon="7.93454107257252"><ele>312.0</ele><time>2026-04-11T08:41:25.969Z</time></trkpt><trkpt lat="45.31110093860409" lon="7.934490687304675"><ele>312.0</ele><time>2026-04-11T08:41:26.969Z</time></trkpt><trkpt lat="45.31123702070646" lon="7.934427136403508"><ele>312.0</ele><time>2026-04-11T08:41:27.969Z</time></trkpt><trkpt lat="45.31137555862737" lon="7.934351701546658"><ele>312.0</ele><time>2026-04-11T08:41:28.969Z</time></trkpt><trkpt lat="45.31150636290541" lon="7.934190092342024"><ele>309.3333333333333</ele><time>2026-04-11T08:41:29.969Z</time></trkpt><trkpt lat="45.31162626871782" lon="7.934003351888388"><ele>306.66666666666663</ele><time>2026-04-11T08:41:30.969Z</time></trkpt><trkpt lat="45.31175543984307" lon="7.933864037593719"><ele>304.0</ele><time>2026-04-11T08:41:31.969Z</time></trkpt><trkpt lat="45.311905464477015" lon="7.933764717682345"><ele>304.0</ele><time>2026-04-11T08:41:32.969Z</time></trkpt><trkpt lat="45.31207475334806" lon="7.93370570320824"><ele>304.0</ele><time>2026-04-11T08:41:33.969Z</time></trkpt><trkpt lat="45.31228408024528" lon="7.933682364866698"><ele>304.0</ele><time>2026-04-11T08:41:34.969Z</time></trkpt><trkpt lat="45.31250784576012" lon="7.9336992162109485"><ele>300.3333333333333</ele><time>2026-04-11T08:41:35.969Z</time></trkpt><trkpt lat="45.31272100353924" lon="7.933751791464841"><ele>296.6666666666667</ele><time>2026-04-11T08:41:36.969Z</time></trkpt><trkpt lat="45.312916511630654" lon="7.9337843239507375"><ele>293.0</ele><time>2026-04-11T08:41:37.969Z</time></trkpt><trkpt lat="45.31311092083043" lon="7.933917464266864"><ele>293.0</ele><time>2026-04-11T08:41:38.969Z</time></trkpt><trkpt lat="45.31329405133472" lon="7.9340792132304285"><ele>293.0</ele><time>2026-04-11T08:41:39.969Z</time></trkpt><trkpt lat="45.31347290031544" lon="7.934252269448955"><ele>293.0</ele><time>2026-04-11T08:41:40.969Z</time></trkpt><trkpt lat="45.313645453502794" lon="7.934416429350326"><ele>293.0</ele><time>2026-04-11T08:41:41.969Z</time></trkpt><trkpt lat="45.3138237037847" lon="7.934553905886099"><ele>293.0</ele><time>2026-04-11T08:41:42.969Z</time></trkpt><trkpt lat="45.3140068342665" lon="7.93465964061782"><ele>293.0</ele><time>2026-04-11T08:41:43.969Z</time></trkpt><trkpt lat="45.31420582252022" lon="7.934727936750159"><ele>291.6666666666667</ele><time>2026-04-11T08:41:44.969Z</time></trkpt><trkpt lat="45.31441748815335" lon="7.934753681132212"><ele>290.3333333333333</ele><time>2026-04-11T08:41:45.968Z</time></trkpt><trkpt lat="45.314640240108105" lon="7.934757459513143"><ele>289.0</ele><time>2026-04-11T08:41:46.968Z</time></trkpt><trkpt lat="45.31486729071097" lon="7.934761919926791"><ele>287.66666666666663</ele><time>2026-04-11T08:41:47.971Z</time></trkpt><trkpt lat="45.31508861004686" lon="7.934768560840053"><ele>286.3333333333333</ele><time>2026-04-11T08:41:48.971Z</time></trkpt><trkpt lat="45.31529874803493" lon="7.9347650426195395"><ele>285.0</ele><time>2026-04-11T08:41:49.971Z</time></trkpt><trkpt lat="45.31548871363707" lon="7.9347529177750245"><ele>285.3333333333333</ele><time>2026-04-11T08:41:50.971Z</time></trkpt><trkpt lat="45.31565581122679" lon="7.934737095312892"><ele>285.66666666666663</ele><time>2026-04-11T08:41:51.971Z</time></trkpt><trkpt lat="45.31580634207756" lon="7.934719561723274"><ele>286.0</ele><time>2026-04-11T08:41:52.971Z</time></trkpt><trkpt lat="45.31595063148877" lon="7.934728294863465"><ele>286.0</ele><time>2026-04-11T08:41:53.97Z</time></trkpt><trkpt lat="45.31608114609723" lon="7.93471628381055"><ele>286.0</ele><time>2026-04-11T08:41:54.97Z</time></trkpt><trkpt lat="45.31619566668145" lon="7.934705744656003"><ele>286.0</ele><time>2026-04-11T08:41:55.97Z</time></trkpt><trkpt lat="45.31630548062848" lon="7.934695638632767"><ele>286.0</ele><time>2026-04-11T08:41:56.971Z</time></trkpt><trkpt lat="45.316431951329385" lon="7.934683779474534"><ele>285.0</ele><time>2026-04-11T08:41:57.971Z</time></trkpt><trkpt lat="45.31658050362178" lon="7.9346613784889435"><ele>284.0</ele><time>2026-04-11T08:41:58.971Z</time></trkpt><trkpt lat="45.31674700159158" lon="7.934610502550494"><ele>283.0</ele><time>2026-04-11T08:41:59.97Z</time></trkpt><trkpt lat="45.316926029988686" lon="7.934522866320858"><ele>283.0</ele><time>2026-04-11T08:42:00.97Z</time></trkpt><trkpt lat="45.317097786560325" lon="7.9344293552766745"><ele>283.0</ele><time>2026-04-11T08:42:01.97Z</time></trkpt><trkpt lat="45.31725364114899" lon="7.934348555680891"><ele>283.0</ele><time>2026-04-11T08:42:02.97Z</time></trkpt><trkpt lat="45.317395307625915" lon="7.934290452459654"><ele>282.3333333333333</ele><time>2026-04-11T08:42:03.97Z</time></trkpt><trkpt lat="45.31754004539198" lon="7.934314688236481"><ele>281.6666666666667</ele><time>2026-04-11T08:42:04.97Z</time></trkpt><trkpt lat="45.31768063847611" lon="7.93438771755995"><ele>281.0</ele><time>2026-04-11T08:42:05.97Z</time></trkpt><trkpt lat="45.31781143413939" lon="7.934521756605749"><ele>281.0</ele><time>2026-04-11T08:42:06.97Z</time></trkpt><trkpt lat="45.31793296961646" lon="7.934709760260309"><ele>281.0</ele><time>2026-04-11T08:42:07.97Z</time></trkpt><trkpt lat="45.31806067014376" lon="7.934914039840346"><ele>281.0</ele><time>2026-04-11T08:42:08.97Z</time></trkpt><trkpt lat="45.31820741742515" lon="7.935111007029353"><ele>285.33333333333337</ele><time>2026-04-11T08:42:09.97Z</time></trkpt><trkpt lat="45.318374956213496" lon="7.935282793234311"><ele>289.6666666666667</ele><time>2026-04-11T08:42:10.97Z</time></trkpt><trkpt lat="45.31852931959689" lon="7.935427859583934"><ele>294.0</ele><time>2026-04-11T08:42:11.97Z</time></trkpt><trkpt lat="45.31865454726256" lon="7.935561201637206"><ele>294.0</ele><time>2026-04-11T08:42:12.97Z</time></trkpt><trkpt lat="45.318751687058096" lon="7.935707206434897"><ele>294.0</ele><time>2026-04-11T08:42:13.97Z</time></trkpt><trkpt lat="45.31883550139168" lon="7.935869550973149"><ele>294.0</ele><time>2026-04-11T08:42:14.97Z</time></trkpt><trkpt lat="45.31889352945464" lon="7.936087913675812"><ele>294.0</ele><time>2026-04-11T08:42:15.97Z</time></trkpt><trkpt lat="45.31897467729221" lon="7.936345136527501"><ele>291.0</ele><time>2026-04-11T08:42:16.97Z</time></trkpt><trkpt lat="45.31902508609434" lon="7.936672886422858"><ele>288.0</ele><time>2026-04-11T08:42:17.97Z</time></trkpt><trkpt lat="45.31913192499975" lon="7.936995696109771"><ele>287.0</ele><time>2026-04-11T08:42:18.97Z</time></trkpt><trkpt lat="45.31929324213761" lon="7.937328538668387"><ele>286.0</ele><time>2026-04-11T08:42:19.97Z</time></trkpt><trkpt lat="45.319468794105155" lon="7.9376588806331005"><ele>285.0</ele><time>2026-04-11T08:42:20.969Z</time></trkpt><trkpt lat="45.319638888647695" lon="7.937985951247487"><ele>284.0</ele><time>2026-04-11T08:42:21.969Z</time></trkpt><trkpt lat="45.31980150122938" lon="7.9382893954417915"><ele>285.0</ele><time>2026-04-11T08:42:22.969Z</time></trkpt><trkpt lat="45.31996529364474" lon="7.938565998850564"><ele>286.0</ele><time>2026-04-11T08:42:23.969Z</time></trkpt><trkpt lat="45.32013043476122" lon="7.9388095389208635"><ele>286.0</ele><time>2026-04-11T08:42:24.969Z</time></trkpt><trkpt lat="45.320287446163384" lon="7.939035293546245"><ele>286.0</ele><time>2026-04-11T08:42:25.969Z</time></trkpt><trkpt lat="45.32043963097715" lon="7.939255188609514"><ele>286.0</ele><time>2026-04-11T08:42:26.969Z</time></trkpt><trkpt lat="45.320606601351486" lon="7.939453142973819"><ele>287.5</ele><time>2026-04-11T08:42:27.969Z</time></trkpt><trkpt lat="45.32078989361999" lon="7.939614262616384"><ele>289.0</ele><time>2026-04-11T08:42:28.969Z</time></trkpt><trkpt lat="45.32098686465583" lon="7.939794407130614"><ele>289.0</ele><time>2026-04-11T08:42:29.969Z</time></trkpt><trkpt lat="45.321197024233186" lon="7.9399732327178505"><ele>289.0</ele><time>2026-04-11T08:42:30.969Z</time></trkpt><trkpt lat="45.32139722185526" lon="7.94013563527945"><ele>286.0</ele><time>2026-04-11T08:42:31.969Z</time></trkpt><trkpt lat="45.321582223845745" lon="7.940272889801183"><ele>283.0</ele><time>2026-04-11T08:42:32.969Z</time></trkpt><trkpt lat="45.32175877628771" lon="7.940426429857717"><ele>280.0</ele><time>2026-04-11T08:42:33.969Z</time></trkpt><trkpt lat="45.321944900358744" lon="7.940615197299603"><ele>280.0</ele><time>2026-04-11T08:42:34.969Z</time></trkpt><trkpt lat="45.32213188694565" lon="7.940834724501262"><ele>280.0</ele><time>2026-04-11T08:42:35.969Z</time></trkpt><trkpt lat="45.3223248510493" lon="7.941079559495964"><ele>278.0</ele><time>2026-04-11T08:42:36.969Z</time></trkpt><trkpt lat="45.32253265351289" lon="7.9413386664774475"><ele>276.0</ele><time>2026-04-11T08:42:37.969Z</time></trkpt><trkpt lat="45.32275659837799" lon="7.941608944790756"><ele>275.5</ele><time>2026-04-11T08:42:38.969Z</time></trkpt><trkpt lat="45.32298849606248" lon="7.941885693262133"><ele>275.0</ele><time>2026-04-11T08:42:39.969Z</time></trkpt><trkpt lat="45.323225150118546" lon="7.9421670133587945"><ele>274.5</ele><time>2026-04-11T08:42:40.969Z</time></trkpt><trkpt lat="45.32346261604006" lon="7.94245821314869"><ele>274.0</ele><time>2026-04-11T08:42:41.969Z</time></trkpt><trkpt lat="45.32369473794555" lon="7.942752194412085"><ele>275.0</ele><time>2026-04-11T08:42:42.969Z</time></trkpt><trkpt lat="45.323914416960925" lon="7.943023459381236"><ele>276.0</ele><time>2026-04-11T08:42:43.969Z</time></trkpt><trkpt lat="45.32412174264504" lon="7.943273373193999"><ele>278.0</ele><time>2026-04-11T08:42:44.969Z</time></trkpt><trkpt lat="45.324306827612126" lon="7.94349528782389"><ele>280.0</ele><time>2026-04-11T08:42:45.969Z</time></trkpt><trkpt lat="45.32447577797156" lon="7.943700353998217"><ele>280.0</ele><time>2026-04-11T08:42:46.969Z</time></trkpt><trkpt lat="45.324630369702405" lon="7.9438937542885"><ele>280.0</ele><time>2026-04-11T08:42:47.969Z</time></trkpt><trkpt lat="45.324773422471445" lon="7.944082529916515"><ele>280.0</ele><time>2026-04-11T08:42:48.969Z</time></trkpt><trkpt lat="45.32490101713709" lon="7.944308039550701"><ele>280.66666666666663</ele><time>2026-04-11T08:42:49.969Z</time></trkpt><trkpt lat="45.32504061357831" lon="7.944501911782418"><ele>281.3333333333333</ele><time>2026-04-11T08:42:50.968Z</time></trkpt><trkpt lat="45.32515885847544" lon="7.944717307918023"><ele>282.0</ele><time>2026-04-11T08:42:51.968Z</time></trkpt><trkpt lat="45.325275776074776" lon="7.9449420254296514"><ele>281.3333333333333</ele><time>2026-04-11T08:42:52.968Z</time></trkpt><trkpt lat="45.32538581358311" lon="7.945166221027635"><ele>280.66666666666663</ele><time>2026-04-11T08:42:53.968Z</time></trkpt><trkpt lat="45.325483213886756" lon="7.9454049450336495"><ele>280.0</ele><time>2026-04-11T08:42:54.968Z</time></trkpt><trkpt lat="45.32556289450268" lon="7.945679688110829"><ele>279.66666666666663</ele><time>2026-04-11T08:42:55.968Z</time></trkpt><trkpt lat="45.32562912483205" lon="7.945974567200738"><ele>279.3333333333333</ele><time>2026-04-11T08:42:56.968Z</time></trkpt><trkpt lat="45.32568275229647" lon="7.946273735211865"><ele>279.0</ele><time>2026-04-11T08:42:57.968Z</time></trkpt><trkpt lat="45.32572154898109" lon="7.946552013402565"><ele>278.3333333333333</ele><time>2026-04-11T08:42:58.968Z</time></trkpt><trkpt lat="45.32576693886353" lon="7.94680265603654"><ele>277.66666666666663</ele><time>2026-04-11T08:42:59.968Z</time></trkpt><trkpt lat="45.325832105627754" lon="7.947020591193039"><ele>277.0</ele><time>2026-04-11T08:43:00.968Z</time></trkpt><trkpt lat="45.32593439926901" lon="7.9472251834646475"><ele>277.0</ele><time>2026-04-11T08:43:01.968Z</time></trkpt><trkpt lat="45.326069890969684" lon="7.947435954089579"><ele>277.0</ele><time>2026-04-11T08:43:02.968Z</time></trkpt><trkpt lat="45.32622185947435" lon="7.947684907710901"><ele>277.0</ele><time>2026-04-11T08:43:03.968Z</time></trkpt><trkpt lat="45.3263894846866" lon="7.947946985774896"><ele>276.0</ele><time>2026-04-11T08:43:04.968Z</time></trkpt><trkpt lat="45.32667450285441" lon="7.948084395573657"><ele>275.0</ele><time>2026-04-11T08:43:05.968Z</time></trkpt><trkpt lat="45.3268859231256" lon="7.948336054800973"><ele>276.0</ele><time>2026-04-11T08:43:06.968Z</time></trkpt><trkpt lat="45.32708758993344" lon="7.948565150648196"><ele>277.0</ele><time>2026-04-11T08:43:07.968Z</time></trkpt><trkpt lat="45.32727059218725" lon="7.9487794001281395"><ele>277.0</ele><time>2026-04-11T08:43:08.968Z</time></trkpt><trkpt lat="45.32742990108923" lon="7.948979057166071"><ele>277.0</ele><time>2026-04-11T08:43:09.968Z</time></trkpt><trkpt lat="45.32757310456285" lon="7.949175847401015"><ele>277.0</ele><time>2026-04-11T08:43:10.968Z</time></trkpt><trkpt lat="45.3277068681219" lon="7.949377968105284"><ele>277.3333333333333</ele><time>2026-04-11T08:43:11.968Z</time></trkpt><trkpt lat="45.32783145520611" lon="7.949598381381951"><ele>277.6666666666667</ele><time>2026-04-11T08:43:12.968Z</time></trkpt><trkpt lat="45.32794480627783" lon="7.949818932639531"><ele>278.0</ele><time>2026-04-11T08:43:13.968Z</time></trkpt><trkpt lat="45.328040519037" lon="7.950002626297591"><ele>276.0</ele><time>2026-04-11T08:43:14.968Z</time></trkpt><trkpt lat="45.32811965789278" lon="7.9501420029201375"><ele>274.0</ele><time>2026-04-11T08:43:15.968Z</time></trkpt><trkpt lat="45.3281999589865" lon="7.950224550462903"><ele>272.0</ele><time>2026-04-11T08:43:16.968Z</time></trkpt><trkpt lat="45.328300402503224" lon="7.950277125220287"><ele>270.0</ele><time>2026-04-11T08:43:17.968Z</time></trkpt><trkpt lat="45.32843059309848" lon="7.950307023863065"><ele>270.0</ele><time>2026-04-11T08:43:18.968Z</time></trkpt><trkpt lat="45.328559004332114" lon="7.950339702659472"><ele>270.0</ele><time>2026-04-11T08:43:19.968Z</time></trkpt><trkpt lat="45.32871221095063" lon="7.9504340939133495"><ele>270.0</ele><time>2026-04-11T08:43:20.968Z</time></trkpt><trkpt lat="45.32887801595126" lon="7.950561789864045"><ele>267.3333333333333</ele><time>2026-04-11T08:43:21.967Z</time></trkpt><trkpt lat="45.3290596840985" lon="7.950665666651825"><ele>264.66666666666663</ele><time>2026-04-11T08:43:22.967Z</time></trkpt><trkpt lat="45.329241514624044" lon="7.950751096712889"><ele>262.0</ele><time>2026-04-11T08:43:23.967Z</time></trkpt><trkpt lat="45.32940961145841" lon="7.95084788762446"><ele>262.0</ele><time>2026-04-11T08:43:24.967Z</time></trkpt><trkpt lat="45.329566600735035" lon="7.95096720086046"><ele>262.0</ele><time>2026-04-11T08:43:25.967Z</time></trkpt><trkpt lat="45.32972321188306" lon="7.951124160628751"><ele>262.0</ele><time>2026-04-11T08:43:26.967Z</time></trkpt><trkpt lat="45.32988130287621" lon="7.951261908596289"><ele>258.5</ele><time>2026-04-11T08:43:27.967Z</time></trkpt><trkpt lat="45.330028499182305" lon="7.95136750418093"><ele>255.0</ele><time>2026-04-11T08:43:28.967Z</time></trkpt><trkpt lat="45.33015996840392" lon="7.951445067454547"><ele>251.5</ele><time>2026-04-11T08:43:29.967Z</time></trkpt><trkpt lat="45.33028998672765" lon="7.9514912749091655"><ele>248.0</ele><time>2026-04-11T08:43:30.967Z</time></trkpt><trkpt lat="45.330429012679176" lon="7.951497342319068"><ele>244.66666666666669</ele><time>2026-04-11T08:43:31.967Z</time></trkpt><trkpt lat="45.33058471030034" lon="7.9514637956787135"><ele>241.33333333333331</ele><time>2026-04-11T08:43:32.967Z</time></trkpt><trkpt lat="45.3307541067893" lon="7.951405666917277"><ele>238.0</ele><time>2026-04-11T08:43:33.967Z</time></trkpt><trkpt lat="45.330917393638565" lon="7.951337795181638"><ele>238.0</ele><time>2026-04-11T08:43:34.967Z</time></trkpt><trkpt lat="45.331064701258214" lon="7.951278392356418"><ele>238.0</ele><time>2026-04-11T08:43:35.967Z</time></trkpt><trkpt lat="45.33119636844981" lon="7.951225162014547"><ele>238.0</ele><time>2026-04-11T08:43:36.967Z</time></trkpt><trkpt lat="45.331304693603286" lon="7.9511799012533535"><ele>238.0</ele><time>2026-04-11T08:43:37.967Z</time></trkpt><trkpt lat="45.3314031612545" lon="7.951140247999457"><ele>238.4</ele><time>2026-04-11T08:43:38.967Z</time></trkpt><trkpt lat="45.33149953579918" lon="7.951093092050703"><ele>238.8</ele><time>2026-04-11T08:43:39.967Z</time></trkpt><trkpt lat="45.33159819106111" lon="7.9510446549273075"><ele>239.2</ele><time>2026-04-11T08:43:40.967Z</time></trkpt><trkpt lat="45.331706487089555" lon="7.950989309360669"><ele>239.6</ele><time>2026-04-11T08:43:41.967Z</time></trkpt><trkpt lat="45.33181975397732" lon="7.950931124638309"><ele>240.0</ele><time>2026-04-11T08:43:42.967Z</time></trkpt><trkpt lat="45.331936155177665" lon="7.950884383659819"><ele>239.5</ele><time>2026-04-11T08:43:43.967Z</time></trkpt><trkpt lat="45.3320535117469" lon="7.950835194018567"><ele>239.0</ele><time>2026-04-11T08:43:44.967Z</time></trkpt><trkpt lat="45.33217070118976" lon="7.950783298368579"><ele>238.5</ele><time>2026-04-11T08:43:45.967Z</time></trkpt><trkpt lat="45.33229009942928" lon="7.950737960973085"><ele>238.0</ele><time>2026-04-11T08:43:46.967Z</time></trkpt><trkpt lat="45.33240866678305" lon="7.950691220410829"><ele>239.2</ele><time>2026-04-11T08:43:47.967Z</time></trkpt><trkpt lat="45.33251718519889" lon="7.950649269254921"><ele>240.4</ele><time>2026-04-11T08:43:48.967Z</time></trkpt><trkpt lat="45.33262777000257" lon="7.950615506072094"><ele>241.59999999999997</ele><time>2026-04-11T08:43:49.967Z</time></trkpt><trkpt lat="45.33273389675573" lon="7.9505910231821195"><ele>242.79999999999998</ele><time>2026-04-11T08:43:50.967Z</time></trkpt><trkpt lat="45.3328417139977" lon="7.950550652347048"><ele>244.0</ele><time>2026-04-11T08:43:51.967Z</time></trkpt><trkpt lat="45.33296280721428" lon="7.9505211537835985"><ele>244.2</ele><time>2026-04-11T08:43:52.966Z</time></trkpt><trkpt lat="45.333071021450145" lon="7.9504922304141505"><ele>244.39999999999998</ele><time>2026-04-11T08:43:53.969Z</time></trkpt><trkpt lat="45.33316833523031" lon="7.950470710161691"><ele>244.6</ele><time>2026-04-11T08:43:54.969Z</time></trkpt><trkpt lat="45.33326224113756" lon="7.950439733504425"><ele>244.8</ele><time>2026-04-11T08:43:55.969Z</time></trkpt><trkpt lat="45.333360412077425" lon="7.950421346869967"><ele>245.0</ele><time>2026-04-11T08:43:56.969Z</time></trkpt><trkpt lat="45.333456154127084" lon="7.95038343072479"><ele>245.00000000000003</ele><time>2026-04-11T08:43:57.969Z</time></trkpt><trkpt lat="45.33355537002523" lon="7.950341739635973"><ele>245.0</ele><time>2026-04-11T08:43:58.969Z</time></trkpt><trkpt lat="45.33364590204777" lon="7.950306928797437"><ele>245.0</ele><time>2026-04-11T08:43:59.969Z</time></trkpt><trkpt lat="45.33372704501063" lon="7.9502804475461915"><ele>245.0</ele><time>2026-04-11T08:44:00.969Z</time></trkpt><trkpt lat="45.333796452297356" lon="7.950234903881272"><ele>245.00000000000003</ele><time>2026-04-11T08:44:01.968Z</time></trkpt><trkpt lat="45.33386303955866" lon="7.950172606490791"><ele>245.0</ele><time>2026-04-11T08:44:02.969Z</time></trkpt><trkpt lat="45.33391860815926" lon="7.950082767125618"><ele>243.2</ele><time>2026-04-11T08:44:03.969Z</time></trkpt><trkpt lat="45.333954602386335" lon="7.9499666913132305"><ele>241.4</ele><time>2026-04-11T08:44:04.969Z</time></trkpt><trkpt lat="45.33397506039625" lon="7.949825757707207"><ele>239.60000000000002</ele><time>2026-04-11T08:44:05.969Z</time></trkpt><trkpt lat="45.33398296984345" lon="7.949666902249138"><ele>237.8</ele><time>2026-04-11T08:44:06.969Z</time></trkpt><trkpt lat="45.333978653495066" lon="7.949500187761135"><ele>236.0</ele><time>2026-04-11T08:44:07.969Z</time></trkpt><trkpt lat="45.333962254078095" lon="7.949327893696356"><ele>235.75</ele><time>2026-04-11T08:44:08.969Z</time></trkpt><trkpt lat="45.33394130604801" lon="7.949146150206166"><ele>235.5</ele><time>2026-04-11T08:44:09.969Z</time></trkpt><trkpt lat="45.33391869137252" lon="7.948953515601123"><ele>235.25</ele><time>2026-04-11T08:44:10.969Z</time></trkpt><trkpt lat="45.33396352029111" lon="7.948755536410398"><ele>235.0</ele><time>2026-04-11T08:44:11.969Z</time></trkpt><trkpt lat="45.333964576645556" lon="7.948588240357602"><ele>235.0</ele><time>2026-04-11T08:44:12.969Z</time></trkpt><trkpt lat="45.33397408487755" lon="7.9484410147213636"><ele>235.0</ele><time>2026-04-11T08:44:13.969Z</time></trkpt><trkpt lat="45.33399608198076" lon="7.948295339451753"><ele>235.0</ele><time>2026-04-11T08:44:14.969Z</time></trkpt><trkpt lat="45.33403650347636" lon="7.9481385522257995"><ele>235.0</ele><time>2026-04-11T08:44:15.969Z</time></trkpt><trkpt lat="45.3340656347561" lon="7.947973660525634"><ele>235.0</ele><time>2026-04-11T08:44:16.969Z</time></trkpt><trkpt lat="45.33411911190905" lon="7.947806256273836"><ele>234.8</ele><time>2026-04-11T08:44:17.969Z</time></trkpt><trkpt lat="45.33415994636614" lon="7.947639437541361"><ele>234.6</ele><time>2026-04-11T08:44:18.969Z</time></trkpt><trkpt lat="45.33419415450864" lon="7.947485278927031"><ele>234.39999999999998</ele><time>2026-04-11T08:44:19.969Z</time></trkpt><trkpt lat="45.33421615751888" lon="7.947343270514738"><ele>234.2</ele><time>2026-04-11T08:44:20.968Z</time></trkpt><trkpt lat="45.33422702270061" lon="7.947231295499056"><ele>234.0</ele><time>2026-04-11T08:44:21.968Z</time></trkpt><trkpt lat="45.33419736726837" lon="7.947135813071569"><ele>233.6</ele><time>2026-04-11T08:44:22.968Z</time></trkpt><trkpt lat="45.334145282056205" lon="7.947053730781207"><ele>233.2</ele><time>2026-04-11T08:44:23.968Z</time></trkpt><trkpt lat="45.33408230027157" lon="7.9469496578336685"><ele>232.79999999999998</ele><time>2026-04-11T08:44:24.968Z</time></trkpt><trkpt lat="45.33401275586188" lon="7.946844387387446"><ele>232.39999999999998</ele><time>2026-04-11T08:44:25.968Z</time></trkpt><trkpt lat="45.33395200524508" lon="7.94669548757032"><ele>232.0</ele><time>2026-04-11T08:44:26.968Z</time></trkpt><trkpt lat="45.333872101533586" lon="7.946550641000948"><ele>233.0</ele><time>2026-04-11T08:44:27.968Z</time></trkpt><trkpt lat="45.33378927928876" lon="7.946400503818277"><ele>234.0</ele><time>2026-04-11T08:44:28.968Z</time></trkpt><trkpt lat="45.33369854857873" lon="7.946235541362106"><ele>235.0</ele><time>2026-04-11T08:44:29.968Z</time></trkpt><trkpt lat="45.33360649783201" lon="7.946068995676905"><ele>236.0</ele><time>2026-04-11T08:44:30.968Z</time></trkpt><trkpt lat="45.333515265040404" lon="7.9459065126357915"><ele>234.66666666666669</ele><time>2026-04-11T08:44:31.968Z</time></trkpt><trkpt lat="45.33342556164193" lon="7.945742418448029"><ele>233.33333333333331</ele><time>2026-04-11T08:44:32.968Z</time></trkpt><trkpt lat="45.333337298577426" lon="7.945565464555752"><ele>232.0</ele><time>2026-04-11T08:44:33.968Z</time></trkpt><trkpt lat="45.333255975135444" lon="7.945378420984642"><ele>232.0</ele><time>2026-04-11T08:44:34.968Z</time></trkpt><trkpt lat="45.333181531543886" lon="7.945185315658018"><ele>232.0</ele><time>2026-04-11T08:44:35.968Z</time></trkpt><trkpt lat="45.3331121976549" lon="7.945000207280391"><ele>232.0</ele><time>2026-04-11T08:44:36.968Z</time></trkpt><trkpt lat="45.333053163736835" lon="7.944833140578204"><ele>232.0</ele><time>2026-04-11T08:44:37.968Z</time></trkpt><trkpt lat="45.33299254744106" lon="7.944664220894317"><ele>232.25</ele><time>2026-04-11T08:44:38.968Z</time></trkpt><trkpt lat="45.33292912916266" lon="7.9445041276944455"><ele>232.5</ele><time>2026-04-11T08:44:39.968Z</time></trkpt><trkpt lat="45.33286213813156" lon="7.9443646721245385"><ele>232.75</ele><time>2026-04-11T08:44:40.968Z</time></trkpt><trkpt lat="45.33277884433248" lon="7.944224062048158"><ele>233.0</ele><time>2026-04-11T08:44:41.968Z</time></trkpt><trkpt lat="45.332684890520575" lon="7.944083636951136"><ele>232.33333333333334</ele><time>2026-04-11T08:44:42.968Z</time></trkpt><trkpt lat="45.332584135487394" lon="7.94394068242713"><ele>231.66666666666669</ele><time>2026-04-11T08:44:43.968Z</time></trkpt><trkpt lat="45.33247581569655" lon="7.943790363342949"><ele>231.0</ele><time>2026-04-11T08:44:44.968Z</time></trkpt><trkpt lat="45.332360438335606" lon="7.943634151830477"><ele>231.0</ele><time>2026-04-11T08:44:45.968Z</time></trkpt><trkpt lat="45.332244940176466" lon="7.943477635760014"><ele>231.0</ele><time>2026-04-11T08:44:46.968Z</time></trkpt><trkpt lat="45.33212907782952" lon="7.943316715833733"><ele>231.0</ele><time>2026-04-11T08:44:47.968Z</time></trkpt><trkpt lat="45.33201271632739" lon="7.943155102637365"><ele>230.33333333333331</ele><time>2026-04-11T08:44:48.968Z</time></trkpt><trkpt lat="45.331883490717395" lon="7.943001209846436"><ele>229.66666666666666</ele><time>2026-04-11T08:44:49.968Z</time></trkpt><trkpt lat="45.33176913823665" lon="7.942829657829569"><ele>229.0</ele><time>2026-04-11T08:44:50.968Z</time></trkpt><trkpt lat="45.331651859036306" lon="7.94265956996386"><ele>229.0</ele><time>2026-04-11T08:44:51.967Z</time></trkpt><trkpt lat="45.331525471508925" lon="7.942476586553766"><ele>229.0</ele><time>2026-04-11T08:44:52.967Z</time></trkpt><trkpt lat="45.33139577360684" lon="7.942288379815048"><ele>229.0</ele><time>2026-04-11T08:44:53.967Z</time></trkpt><trkpt lat="45.33126075062081" lon="7.9420962066055605"><ele>229.0</ele><time>2026-04-11T08:44:54.967Z</time></trkpt><trkpt lat="45.33112555032308" lon="7.941917246452413"><ele>229.0</ele><time>2026-04-11T08:44:55.967Z</time></trkpt><trkpt lat="45.33099709846182" lon="7.941748045588146"><ele>229.0</ele><time>2026-04-11T08:44:56.967Z</time></trkpt><trkpt lat="45.33086346012739" lon="7.9415880374488825"><ele>229.0</ele><time>2026-04-11T08:44:57.967Z</time></trkpt><trkpt lat="45.3307314468131" lon="7.941417502831346"><ele>229.0</ele><time>2026-04-11T08:44:58.967Z</time></trkpt><trkpt lat="45.33059619132615" lon="7.941242709253086"><ele>229.0</ele><time>2026-04-11T08:44:59.967Z</time></trkpt><trkpt lat="45.33047316384518" lon="7.941048728330497"><ele>229.0</ele><time>2026-04-11T08:45:00.967Z</time></trkpt><trkpt lat="45.33034299351144" lon="7.940864322413297"><ele>229.0</ele><time>2026-04-11T08:45:01.967Z</time></trkpt><trkpt lat="45.33022590136343" lon="7.940661715238497"><ele>229.0</ele><time>2026-04-11T08:45:02.967Z</time></trkpt><trkpt lat="45.3301351847031" lon="7.940416533074922"><ele>229.0</ele><time>2026-04-11T08:45:03.967Z</time></trkpt><trkpt lat="45.330048158114714" lon="7.940151466179308"><ele>229.0</ele><time>2026-04-11T08:45:04.967Z</time></trkpt><trkpt lat="45.32995906826875" lon="7.939870286461765"><ele>229.0</ele><time>2026-04-11T08:45:05.967Z</time></trkpt><trkpt lat="45.32985742193199" lon="7.939571067477962"><ele>229.0</ele><time>2026-04-11T08:45:06.967Z</time></trkpt><trkpt lat="45.32973102745341" lon="7.939267046770025"><ele>229.0</ele><time>2026-04-11T08:45:07.967Z</time></trkpt><trkpt lat="45.32959455469263" lon="7.938951494174576"><ele>228.5</ele><time>2026-04-11T08:45:08.967Z</time></trkpt><trkpt lat="45.329450662676706" lon="7.938622441343345"><ele>228.0</ele><time>2026-04-11T08:45:09.967Z</time></trkpt><trkpt lat="45.329307277972745" lon="7.938296874307543"><ele>228.0</ele><time>2026-04-11T08:45:10.967Z</time></trkpt><trkpt lat="45.329172611056265" lon="7.937994798549318"><ele>228.0</ele><time>2026-04-11T08:45:11.967Z</time></trkpt><trkpt lat="45.32903635277158" lon="7.937689153103655"><ele>228.0</ele><time>2026-04-11T08:45:12.967Z</time></trkpt><trkpt lat="45.32889710431171" lon="7.937373268290203"><ele>228.0</ele><time>2026-04-11T08:45:13.967Z</time></trkpt><trkpt lat="45.328755438807775" lon="7.937050265214405"><ele>228.0</ele><time>2026-04-11T08:45:14.967Z</time></trkpt><trkpt lat="45.32861367122141" lon="7.936726344764662"><ele>228.0</ele><time>2026-04-11T08:45:15.967Z</time></trkpt><trkpt lat="45.32846070494715" lon="7.936418913518994"><ele>228.0</ele><time>2026-04-11T08:45:16.967Z</time></trkpt><trkpt lat="45.32832197919131" lon="7.936102106765689"><ele>228.0</ele><time>2026-04-11T08:45:17.967Z</time></trkpt><trkpt lat="45.32818447325057" lon="7.935788446905574"><ele>228.5</ele><time>2026-04-11T08:45:18.967Z</time></trkpt><trkpt lat="45.32804720530683" lon="7.935480032626766"><ele>229.0</ele><time>2026-04-11T08:45:19.967Z</time></trkpt><trkpt lat="45.32791181236156" lon="7.935173245742571"><ele>230.0</ele><time>2026-04-11T08:45:20.967Z</time></trkpt><trkpt lat="45.327778567783525" lon="7.934866346674554"><ele>231.0</ele><time>2026-04-11T08:45:21.967Z</time></trkpt><trkpt lat="45.32765195781562" lon="7.934578981743433"><ele>231.0</ele><time>2026-04-11T08:45:22.966Z</time></trkpt><trkpt lat="45.32753421745355" lon="7.934308757787505"><ele>231.0</ele><time>2026-04-11T08:45:23.966Z</time></trkpt><trkpt lat="45.327418565914414" lon="7.934037721115775"><ele>231.0</ele><time>2026-04-11T08:45:24.966Z</time></trkpt><trkpt lat="45.32730395510308" lon="7.933773113003608"><ele>232.33333333333331</ele><time>2026-04-11T08:45:25.966Z</time></trkpt><trkpt lat="45.327203294680615" lon="7.933529497515113"><ele>233.66666666666666</ele><time>2026-04-11T08:45:26.966Z</time></trkpt><trkpt lat="45.32712292219486" lon="7.933300666358875"><ele>235.0</ele><time>2026-04-11T08:45:27.966Z</time></trkpt><trkpt lat="45.327089009913145" lon="7.93307242782182"><ele>235.66666666666666</ele><time>2026-04-11T08:45:28.966Z</time></trkpt><trkpt lat="45.32707538127082" lon="7.9328153572584785"><ele>236.33333333333331</ele><time>2026-04-11T08:45:29.966Z</time></trkpt><trkpt lat="45.32708480936218" lon="7.932513862489491"><ele>237.0</ele><time>2026-04-11T08:45:30.966Z</time></trkpt><trkpt lat="45.32709885111728" lon="7.932162661486559"><ele>234.0</ele><time>2026-04-11T08:45:31.966Z</time></trkpt><trkpt lat="45.32711268786738" lon="7.931781274098177"><ele>231.0</ele><time>2026-04-11T08:45:32.966Z</time></trkpt><trkpt lat="45.32712748078894" lon="7.931377001798853"><ele>230.5</ele><time>2026-04-11T08:45:33.966Z</time></trkpt><trkpt lat="45.32714151725368" lon="7.930971560259186"><ele>230.0</ele><time>2026-04-11T08:45:34.966Z</time></trkpt><trkpt lat="45.32715531939691" lon="7.930570038757304"><ele>230.0</ele><time>2026-04-11T08:45:35.966Z</time></trkpt><trkpt lat="45.32716876087392" lon="7.930179009465362"><ele>230.0</ele><time>2026-04-11T08:45:36.966Z</time></trkpt><trkpt lat="45.32718192403504" lon="7.929796076721352"><ele>229.0</ele><time>2026-04-11T08:45:37.966Z</time></trkpt><trkpt lat="45.32719487401279" lon="7.929419345728914"><ele>228.0</ele><time>2026-04-11T08:45:38.966Z</time></trkpt><trkpt lat="45.32719351465964" lon="7.929049578638007"><ele>228.0</ele><time>2026-04-11T08:45:39.966Z</time></trkpt><trkpt lat="45.327207022189796" lon="7.928692378837622"><ele>228.0</ele><time>2026-04-11T08:45:40.966Z</time></trkpt><trkpt lat="45.32721810335073" lon="7.928350801602177"><ele>227.66666666666669</ele><time>2026-04-11T08:45:41.966Z</time></trkpt><trkpt lat="45.32722894567551" lon="7.928027990438314"><ele>227.33333333333334</ele><time>2026-04-11T08:45:42.966Z</time></trkpt><trkpt lat="45.32723862285981" lon="7.927725031530582"><ele>227.0</ele><time>2026-04-11T08:45:43.966Z</time></trkpt><trkpt lat="45.32725720237679" lon="7.927427629239292"><ele>233.0</ele><time>2026-04-11T08:45:44.966Z</time></trkpt><trkpt lat="45.327224851334456" lon="7.927113462029421"><ele>239.0</ele><time>2026-04-11T08:45:45.966Z</time></trkpt><trkpt lat="45.32717744853102" lon="7.926787954589279"><ele>242.5</ele><time>2026-04-11T08:45:46.966Z</time></trkpt><trkpt lat="45.327106164986084" lon="7.926458364203695"><ele>246.0</ele><time>2026-04-11T08:45:47.966Z</time></trkpt><trkpt lat="45.32704763973515" lon="7.926115742829275"><ele>247.5</ele><time>2026-04-11T08:45:48.966Z</time></trkpt><trkpt lat="45.326992794524266" lon="7.9257774299050325"><ele>249.0</ele><time>2026-04-11T08:45:49.966Z</time></trkpt><trkpt lat="45.32693662148477" lon="7.925436682027319"><ele>249.0</ele><time>2026-04-11T08:45:50.966Z</time></trkpt><trkpt lat="45.326877547053975" lon="7.925092620152958"><ele>249.0</ele><time>2026-04-11T08:45:51.966Z</time></trkpt><trkpt lat="45.326820123893846" lon="7.924763760956054"><ele>248.0</ele><time>2026-04-11T08:45:52.966Z</time></trkpt><trkpt lat="45.32676749720891" lon="7.924455613200334"><ele>247.0</ele><time>2026-04-11T08:45:53.965Z</time></trkpt><trkpt lat="45.32671381348786" lon="7.92417587881802"><ele>246.0</ele><time>2026-04-11T08:45:54.965Z</time></trkpt><trkpt lat="45.32665930192866" lon="7.923924788744366"><ele>244.33333333333331</ele><time>2026-04-11T08:45:55.965Z</time></trkpt><trkpt lat="45.32656751571624" lon="7.923698075563979"><ele>242.66666666666666</ele><time>2026-04-11T08:45:56.965Z</time></trkpt><trkpt lat="45.32644815744648" lon="7.923478538914679"><ele>241.0</ele><time>2026-04-11T08:45:57.965Z</time></trkpt><trkpt lat="45.326318828395195" lon="7.923274792528926"><ele>245.66666666666666</ele><time>2026-04-11T08:45:58.965Z</time></trkpt><trkpt lat="45.32617024185494" lon="7.923078195274486"><ele>250.33333333333331</ele><time>2026-04-11T08:45:59.967Z</time></trkpt><trkpt lat="45.32601677334962" lon="7.922873805388812"><ele>255.0</ele><time>2026-04-11T08:46:00.968Z</time></trkpt><trkpt lat="45.325858392310245" lon="7.922655923818336"><ele>257.5</ele><time>2026-04-11T08:46:01.968Z</time></trkpt><trkpt lat="45.32569674010376" lon="7.922429292994701"><ele>260.0</ele><time>2026-04-11T08:46:02.967Z</time></trkpt><trkpt lat="45.3255330143176" lon="7.922201238649889"><ele>260.0</ele><time>2026-04-11T08:46:03.968Z</time></trkpt><trkpt lat="45.3253783517945" lon="7.921982938881754"><ele>260.0</ele><time>2026-04-11T08:46:04.968Z</time></trkpt><trkpt lat="45.32522905952707" lon="7.921784129568134"><ele>260.0</ele><time>2026-04-11T08:46:05.967Z</time></trkpt><trkpt lat="45.32507540116213" lon="7.921594474515805"><ele>259.0</ele><time>2026-04-11T08:46:06.967Z</time></trkpt><trkpt lat="45.32490799246894" lon="7.921423795339032"><ele>258.0</ele><time>2026-04-11T08:46:07.967Z</time></trkpt><trkpt lat="45.32473048125806" lon="7.921246126537533"><ele>257.0</ele><time>2026-04-11T08:46:08.967Z</time></trkpt><trkpt lat="45.32453983418861" lon="7.921072844344459"><ele>257.0</ele><time>2026-04-11T08:46:09.967Z</time></trkpt><trkpt lat="45.324333726470684" lon="7.920918049717314"><ele>257.0</ele><time>2026-04-11T08:46:10.967Z</time></trkpt><trkpt lat="45.324138775076925" lon="7.920726607368963"><ele>255.0</ele><time>2026-04-11T08:46:11.968Z</time></trkpt><trkpt lat="45.32390108929771" lon="7.920620931551783"><ele>253.0</ele><time>2026-04-11T08:46:12.967Z</time></trkpt><trkpt lat="45.323684250615315" lon="7.920452168011123"><ele>253.0</ele><time>2026-04-11T08:46:13.967Z</time></trkpt><trkpt lat="45.32345753743587" lon="7.920306668638534"><ele>253.0</ele><time>2026-04-11T08:46:14.967Z</time></trkpt><trkpt lat="45.32322733299943" lon="7.9201628060806115"><ele>250.5</ele><time>2026-04-11T08:46:15.967Z</time></trkpt><trkpt lat="45.322999706738855" lon="7.92001963427927"><ele>248.0</ele><time>2026-04-11T08:46:16.967Z</time></trkpt><trkpt lat="45.32277721605295" lon="7.919878245278542"><ele>248.0</ele><time>2026-04-11T08:46:17.967Z</time></trkpt><trkpt lat="45.322563656771116" lon="7.919738629991989"><ele>248.0</ele><time>2026-04-11T08:46:18.967Z</time></trkpt><trkpt lat="45.32236575641735" lon="7.919614396194765"><ele>246.66666666666669</ele><time>2026-04-11T08:46:19.967Z</time></trkpt><trkpt lat="45.32218644539232" lon="7.919499472788915"><ele>245.33333333333331</ele><time>2026-04-11T08:46:20.967Z</time></trkpt><trkpt lat="45.32202764940002" lon="7.919351257500114"><ele>244.0</ele><time>2026-04-11T08:46:21.967Z</time></trkpt><trkpt lat="45.321883033320184" lon="7.919153263375707"><ele>244.0</ele><time>2026-04-11T08:46:22.966Z</time></trkpt><trkpt lat="45.321748426013656" lon="7.918913992512925"><ele>244.0</ele><time>2026-04-11T08:46:23.966Z</time></trkpt><trkpt lat="45.3216085765947" lon="7.918648254196058"><ele>244.0</ele><time>2026-04-11T08:46:24.966Z</time></trkpt><trkpt lat="45.32146129613079" lon="7.918367734255047"><ele>244.66666666666666</ele><time>2026-04-11T08:46:25.966Z</time></trkpt><trkpt lat="45.32131933793903" lon="7.918103549840602"><ele>245.33333333333331</ele><time>2026-04-11T08:46:26.966Z</time></trkpt><trkpt lat="45.32118521339619" lon="7.917864884727325"><ele>246.0</ele><time>2026-04-11T08:46:27.966Z</time></trkpt><trkpt lat="45.32106500177327" lon="7.917643440402506"><ele>245.0</ele><time>2026-04-11T08:46:28.966Z</time></trkpt><trkpt lat="45.32096159723423" lon="7.917428886691091"><ele>244.0</ele><time>2026-04-11T08:46:29.966Z</time></trkpt><trkpt lat="45.32087791643479" lon="7.917188209201316"><ele>243.0</ele><time>2026-04-11T08:46:30.966Z</time></trkpt><trkpt lat="45.320821572089194" lon="7.916935033358061"><ele>241.0</ele><time>2026-04-11T08:46:31.966Z</time></trkpt><trkpt lat="45.3207904274517" lon="7.916684401445572"><ele>239.0</ele><time>2026-04-11T08:46:32.966Z</time></trkpt><trkpt lat="45.32076603231644" lon="7.916432177612936"><ele>237.0</ele><time>2026-04-11T08:46:33.966Z</time></trkpt><trkpt lat="45.32074258762154" lon="7.91615945260372"><ele>236.33333333333331</ele><time>2026-04-11T08:46:34.966Z</time></trkpt><trkpt lat="45.32072263305293" lon="7.915870315256999"><ele>235.66666666666666</ele><time>2026-04-11T08:46:35.966Z</time></trkpt><trkpt lat="45.32070104808375" lon="7.915569070129628"><ele>235.0</ele><time>2026-04-11T08:46:36.966Z</time></trkpt><trkpt lat="45.320680728544204" lon="7.915256446705093"><ele>234.33333333333331</ele><time>2026-04-11T08:46:37.966Z</time></trkpt><trkpt lat="45.32066162302607" lon="7.914939142361522"><ele>233.66666666666669</ele><time>2026-04-11T08:46:38.966Z</time></trkpt><trkpt lat="45.32064075059683" lon="7.914623515626584"><ele>233.0</ele><time>2026-04-11T08:46:39.966Z</time></trkpt><trkpt lat="45.320616112676795" lon="7.914314945884332"><ele>233.33333333333334</ele><time>2026-04-11T08:46:40.966Z</time></trkpt><trkpt lat="45.320593999282636" lon="7.914020329714731"><ele>233.66666666666669</ele><time>2026-04-11T08:46:41.966Z</time></trkpt><trkpt lat="45.320577476571536" lon="7.913748245551154"><ele>234.0</ele><time>2026-04-11T08:46:42.966Z</time></trkpt><trkpt lat="45.32056679296697" lon="7.913497183271457"><ele>240.0</ele><time>2026-04-11T08:46:43.966Z</time></trkpt><trkpt lat="45.3205449630104" lon="7.913269030065342"><ele>246.0</ele><time>2026-04-11T08:46:44.966Z</time></trkpt><trkpt lat="45.3205009116654" lon="7.913048813823365"><ele>252.0</ele><time>2026-04-11T08:46:45.966Z</time></trkpt><trkpt lat="45.32043003506296" lon="7.912817924101554"><ele>252.0</ele><time>2026-04-11T08:46:46.966Z</time></trkpt><trkpt lat="45.320342570454876" lon="7.912587537326383"><ele>252.0</ele><time>2026-04-11T08:46:47.966Z</time></trkpt><trkpt lat="45.32023154782528" lon="7.912358666591735"><ele>252.0</ele><time>2026-04-11T08:46:48.966Z</time></trkpt><trkpt lat="45.32010121505645" lon="7.912143698490726"><ele>249.0</ele><time>2026-04-11T08:46:49.966Z</time></trkpt><trkpt lat="45.31995578144016" lon="7.911927542586398"><ele>246.0</ele><time>2026-04-11T08:46:50.966Z</time></trkpt><trkpt lat="45.319807025608604" lon="7.911693109845688"><ele>243.0</ele><time>2026-04-11T08:46:51.966Z</time></trkpt><trkpt lat="45.31965492072807" lon="7.91143032984326"><ele>241.5</ele><time>2026-04-11T08:46:52.966Z</time></trkpt><trkpt lat="45.31948845569271" lon="7.911155293092157"><ele>240.0</ele><time>2026-04-11T08:46:53.965Z</time></trkpt><trkpt lat="45.31930718631102" lon="7.910865647988044"><ele>238.5</ele><time>2026-04-11T08:46:54.965Z</time></trkpt><trkpt lat="45.31910894558761" lon="7.910570061732863"><ele>237.0</ele><time>2026-04-11T08:46:55.965Z</time></trkpt><trkpt lat="45.318902921341994" lon="7.910266837634001"><ele>237.0</ele><time>2026-04-11T08:46:56.965Z</time></trkpt><trkpt lat="45.318692894422895" lon="7.909954461404359"><ele>237.0</ele><time>2026-04-11T08:46:57.965Z</time></trkpt><trkpt lat="45.31849358380848" lon="7.909651004388892"><ele>237.0</ele><time>2026-04-11T08:46:58.965Z</time></trkpt><trkpt lat="45.318309014660564" lon="7.909372710868253"><ele>237.0</ele><time>2026-04-11T08:46:59.965Z</time></trkpt><trkpt lat="45.31813252717341" lon="7.909105243913771"><ele>238.5</ele><time>2026-04-11T08:47:00.965Z</time></trkpt><trkpt lat="45.31797102470169" lon="7.908852551828686"><ele>240.0</ele><time>2026-04-11T08:47:01.965Z</time></trkpt><trkpt lat="45.317827924600394" lon="7.908620746129275"><ele>240.0</ele><time>2026-04-11T08:47:02.965Z</time></trkpt><trkpt lat="45.31770065243181" lon="7.908418763705627"><ele>240.0</ele><time>2026-04-11T08:47:03.965Z</time></trkpt><trkpt lat="45.317593138053624" lon="7.908249801313431"><ele>240.0</ele><time>2026-04-11T08:47:04.965Z</time></trkpt><trkpt lat="45.317505760058715" lon="7.908114597831274"><ele>239.4</ele><time>2026-04-11T08:47:05.965Z</time></trkpt><trkpt lat="45.31744521124654" lon="7.907994644694885"><ele>238.8</ele><time>2026-04-11T08:47:06.965Z</time></trkpt><trkpt lat="45.317410171557114" lon="7.90786216953899"><ele>238.2</ele><time>2026-04-11T08:47:07.965Z</time></trkpt><trkpt lat="45.317400471576256" lon="7.907716732215985"><ele>237.6</ele><time>2026-04-11T08:47:08.965Z</time></trkpt><trkpt lat="45.31738867228551" lon="7.9075384422548485"><ele>237.0</ele><time>2026-04-11T08:47:09.965Z</time></trkpt><trkpt lat="45.31735991133312" lon="7.907327340705395"><ele>237.0</ele><time>2026-04-11T08:47:10.965Z</time></trkpt><trkpt lat="45.31732900253846" lon="7.907075859535562"><ele>237.0</ele><time>2026-04-11T08:47:11.965Z</time></trkpt><trkpt lat="45.31728834583393" lon="7.9067875897990145"><ele>237.0</ele><time>2026-04-11T08:47:12.965Z</time></trkpt><trkpt lat="45.317239956441874" lon="7.906506758755792"><ele>238.66666666666669</ele><time>2026-04-11T08:47:13.965Z</time></trkpt><trkpt lat="45.31719721004008" lon="7.906219012173727"><ele>240.33333333333334</ele><time>2026-04-11T08:47:14.965Z</time></trkpt><trkpt lat="45.31715368373401" lon="7.90590785287082"><ele>242.0</ele><time>2026-04-11T08:47:15.965Z</time></trkpt><trkpt lat="45.317116158762744" lon="7.905608467517836"><ele>242.0</ele><time>2026-04-11T08:47:16.965Z</time></trkpt><trkpt lat="45.31711127641615" lon="7.905335358486541"><ele>242.0</ele><time>2026-04-11T08:47:17.965Z</time></trkpt><trkpt lat="45.31707954279621" lon="7.905097939177696"><ele>242.0</ele><time>2026-04-11T08:47:18.965Z</time></trkpt><trkpt lat="45.317051752549915" lon="7.904862017415636"><ele>243.0</ele><time>2026-04-11T08:47:19.965Z</time></trkpt><trkpt lat="45.317063060996496" lon="7.904600862012584"><ele>244.0</ele><time>2026-04-11T08:47:20.965Z</time></trkpt><trkpt lat="45.31707570707953" lon="7.904303301836274"><ele>245.0</ele><time>2026-04-11T08:47:21.965Z</time></trkpt><trkpt lat="45.3171081291892" lon="7.903978023605819"><ele>246.0</ele><time>2026-04-11T08:47:22.965Z</time></trkpt><trkpt lat="45.317145122583185" lon="7.903663370008657"><ele>247.0</ele><time>2026-04-11T08:47:23.964Z</time></trkpt><trkpt lat="45.31719596546034" lon="7.903371323389121"><ele>248.0</ele><time>2026-04-11T08:47:24.964Z</time></trkpt><trkpt lat="45.31727851197454" lon="7.903081296386614"><ele>240.0</ele><time>2026-04-11T08:47:25.964Z</time></trkpt><trkpt lat="45.31737899505463" lon="7.902797539075089"><ele>232.0</ele><time>2026-04-11T08:47:26.964Z</time></trkpt><trkpt lat="45.31747887355436" lon="7.902503855821636"><ele>232.0</ele><time>2026-04-11T08:47:27.964Z</time></trkpt><trkpt lat="45.31757482303874" lon="7.902201602570501"><ele>232.0</ele><time>2026-04-11T08:47:28.964Z</time></trkpt><trkpt lat="45.31765892855169" lon="7.901897358977912"><ele>232.33333333333331</ele><time>2026-04-11T08:47:29.964Z</time></trkpt><trkpt lat="45.31773688752025" lon="7.901608917462819"><ele>232.66666666666669</ele><time>2026-04-11T08:47:30.964Z</time></trkpt><trkpt lat="45.31781769973813" lon="7.9013247688433434"><ele>233.0</ele><time>2026-04-11T08:47:31.964Z</time></trkpt><trkpt lat="45.317907513455594" lon="7.9010389265679155"><ele>233.0</ele><time>2026-04-11T08:47:32.964Z</time></trkpt><trkpt lat="45.31800779691028" lon="7.900752437618248"><ele>233.0</ele><time>2026-04-11T08:47:33.964Z</time></trkpt><trkpt lat="45.318109843454636" lon="7.90047601676827"><ele>233.0</ele><time>2026-04-11T08:47:34.964Z</time></trkpt><trkpt lat="45.31820302596916" lon="7.900218003417234"><ele>233.66666666666669</ele><time>2026-04-11T08:47:35.964Z</time></trkpt><trkpt lat="45.31828020488667" lon="7.899968583068068"><ele>234.33333333333331</ele><time>2026-04-11T08:47:36.964Z</time></trkpt><trkpt lat="45.31834507293962" lon="7.899738649182059"><ele>235.0</ele><time>2026-04-11T08:47:37.964Z</time></trkpt><trkpt lat="45.318398419555386" lon="7.899530307285944"><ele>235.0</ele><time>2026-04-11T08:47:38.964Z</time></trkpt><trkpt lat="45.31845397045763" lon="7.8993630816099"><ele>235.0</ele><time>2026-04-11T08:47:39.964Z</time></trkpt><trkpt lat="45.3185340019002" lon="7.899215721126831"><ele>235.0</ele><time>2026-04-11T08:47:40.964Z</time></trkpt><trkpt lat="45.318641149099314" lon="7.899078066193953"><ele>235.0</ele><time>2026-04-11T08:47:41.964Z</time></trkpt><trkpt lat="45.31877856639745" lon="7.898994835845837"><ele>234.0</ele><time>2026-04-11T08:47:42.964Z</time></trkpt><trkpt lat="45.318948542493764" lon="7.898923494683276"><ele>233.0</ele><time>2026-04-11T08:47:43.964Z</time></trkpt><trkpt lat="45.31913920520779" lon="7.898838477323213"><ele>232.0</ele><time>2026-04-11T08:47:44.964Z</time></trkpt><trkpt lat="45.3193275914166" lon="7.898774754544281"><ele>232.0</ele><time>2026-04-11T08:47:45.964Z</time></trkpt><trkpt lat="45.31949389434455" lon="7.898657235979688"><ele>232.0</ele><time>2026-04-11T08:47:46.964Z</time></trkpt><trkpt lat="45.31966019866348" lon="7.898519895962821"><ele>232.0</ele><time>2026-04-11T08:47:47.964Z</time></trkpt><trkpt lat="45.319832670070625" lon="7.898381614915232"><ele>231.33333333333331</ele><time>2026-04-11T08:47:48.964Z</time></trkpt><trkpt lat="45.3200138634311" lon="7.898260752315395"><ele>230.66666666666669</ele><time>2026-04-11T08:47:49.964Z</time></trkpt><trkpt lat="45.32020495501992" lon="7.898154826100448"><ele>230.0</ele><time>2026-04-11T08:47:50.964Z</time></trkpt><trkpt lat="45.32039751089035" lon="7.898041944979438"><ele>229.33333333333334</ele><time>2026-04-11T08:47:51.964Z</time></trkpt><trkpt lat="45.320587883868185" lon="7.897929252318941"><ele>228.66666666666669</ele><time>2026-04-11T08:47:52.964Z</time></trkpt><trkpt lat="45.320769546560925" lon="7.897821860872319"><ele>228.0</ele><time>2026-04-11T08:47:53.964Z</time></trkpt><trkpt lat="45.32093611758396" lon="7.897723670897718"><ele>228.0</ele><time>2026-04-11T08:47:54.963Z</time></trkpt><trkpt lat="45.321091682309444" lon="7.897622548261154"><ele>228.0</ele><time>2026-04-11T08:47:55.963Z</time></trkpt><trkpt lat="45.321237430127994" lon="7.897511655754614"><ele>228.0</ele><time>2026-04-11T08:47:56.963Z</time></trkpt><trkpt lat="45.32137420807123" lon="7.897391940221013"><ele>229.33333333333331</ele><time>2026-04-11T08:47:57.963Z</time></trkpt><trkpt lat="45.32149875465702" lon="7.89724468911136"><ele>230.66666666666666</ele><time>2026-04-11T08:47:58.963Z</time></trkpt><trkpt lat="45.32161302257624" lon="7.897064846070384"><ele>232.0</ele><time>2026-04-11T08:47:59.963Z</time></trkpt><trkpt lat="45.321733780274236" lon="7.896872066574268"><ele>231.33333333333331</ele><time>2026-04-11T08:48:00.963Z</time></trkpt><trkpt lat="45.32185757073144" lon="7.896674427832841"><ele>230.66666666666669</ele><time>2026-04-11T08:48:01.963Z</time></trkpt><trkpt lat="45.32197209878374" lon="7.896477349709172"><ele>230.0</ele><time>2026-04-11T08:48:02.963Z</time></trkpt><trkpt lat="45.322083838730016" lon="7.896274377772267"><ele>230.0</ele><time>2026-04-11T08:48:03.963Z</time></trkpt><trkpt lat="45.322167695898905" lon="7.896033535297123"><ele>230.0</ele><time>2026-04-11T08:48:04.963Z</time></trkpt><trkpt lat="45.32223233461719" lon="7.895779182597409"><ele>230.0</ele><time>2026-04-11T08:48:05.965Z</time></trkpt><trkpt lat="45.32231605697951" lon="7.895549224296256"><ele>230.33333333333334</ele><time>2026-04-11T08:48:06.965Z</time></trkpt><trkpt lat="45.3224217103503" lon="7.8953308478974185"><ele>230.66666666666669</ele><time>2026-04-11T08:48:07.965Z</time></trkpt><trkpt lat="45.32256015613241" lon="7.895120239669206"><ele>231.0</ele><time>2026-04-11T08:48:08.965Z</time></trkpt><trkpt lat="45.322711770522886" lon="7.894918477756368"><ele>231.0</ele><time>2026-04-11T08:48:09.965Z</time></trkpt><trkpt lat="45.3228478476473" lon="7.894734926350855"><ele>231.0</ele><time>2026-04-11T08:48:10.965Z</time></trkpt><trkpt lat="45.32298142255142" lon="7.894576013512548"><ele>231.0</ele><time>2026-04-11T08:48:11.965Z</time></trkpt><trkpt lat="45.323101047965416" lon="7.894413416346276"><ele>232.0</ele><time>2026-04-11T08:48:12.965Z</time></trkpt><trkpt lat="45.32323158618022" lon="7.894251358608142"><ele>233.0</ele><time>2026-04-11T08:48:13.965Z</time></trkpt><trkpt lat="45.323388506976805" lon="7.894103820090427"><ele>234.0</ele><time>2026-04-11T08:48:14.965Z</time></trkpt><trkpt lat="45.323559741010705" lon="7.893955196225896"><ele>234.0</ele><time>2026-04-11T08:48:15.965Z</time></trkpt><trkpt lat="45.3237361735686" lon="7.893795955727446"><ele>234.0</ele><time>2026-04-11T08:48:16.965Z</time></trkpt><trkpt lat="45.32390335261143" lon="7.893603616740945"><ele>234.0</ele><time>2026-04-11T08:48:17.965Z</time></trkpt><trkpt lat="45.3240671456986" lon="7.893402149381416"><ele>235.66666666666669</ele><time>2026-04-11T08:48:18.965Z</time></trkpt><trkpt lat="45.32422207984771" lon="7.893214217148399"><ele>237.33333333333334</ele><time>2026-04-11T08:48:19.965Z</time></trkpt><trkpt lat="45.32436367035826" lon="7.893044242881044"><ele>239.0</ele><time>2026-04-11T08:48:20.965Z</time></trkpt><trkpt lat="45.324497467007504" lon="7.892883984320519"><ele>239.0</ele><time>2026-04-11T08:48:21.965Z</time></trkpt><trkpt lat="45.32461716697639" lon="7.89274324398738"><ele>239.0</ele><time>2026-04-11T08:48:22.965Z</time></trkpt><trkpt lat="45.324730578766015" lon="7.892617558971312"><ele>239.0</ele><time>2026-04-11T08:48:23.965Z</time></trkpt><trkpt lat="45.324841647999015" lon="7.89251455555005"><ele>239.0</ele><time>2026-04-11T08:48:24.965Z</time></trkpt><trkpt lat="45.324946074522956" lon="7.8924278390021865"><ele>240.6</ele><time>2026-04-11T08:48:25.965Z</time></trkpt><trkpt lat="45.32503968398308" lon="7.892349888608594"><ele>242.2</ele><time>2026-04-11T08:48:26.965Z</time></trkpt><trkpt lat="45.325127165936266" lon="7.892275499199588"><ele>243.79999999999998</ele><time>2026-04-11T08:48:27.965Z</time></trkpt><trkpt lat="45.32519829767787" lon="7.892181958592195"><ele>245.39999999999998</ele><time>2026-04-11T08:48:28.965Z</time></trkpt><trkpt lat="45.325247891987395" lon="7.892085391719861"><ele>247.0</ele><time>2026-04-11T08:48:29.965Z</time></trkpt><trkpt lat="45.32528731394532" lon="7.892002680845394"><ele>247.0</ele><time>2026-04-11T08:48:30.965Z</time></trkpt><trkpt lat="45.32534829921646" lon="7.891874728236758"><ele>247.0</ele><time>2026-04-11T08:48:32.965Z</time></trkpt><trkpt lat="45.325385278288394" lon="7.891797062548515"><ele>247.0</ele><time>2026-04-11T08:48:35.965Z</time></trkpt><trkpt lat="45.32542225820201" lon="7.891719555477267"><ele>247.0</ele><time>2026-04-11T08:48:49.964Z</time></trkpt><trkpt lat="45.32549450306977" lon="7.891562564833228"><ele>247.0</ele><time>2026-04-11T08:48:51.964Z</time></trkpt><trkpt lat="45.32554710711651" lon="7.891431400937455"><ele>250.0</ele><time>2026-04-11T08:48:52.964Z</time></trkpt><trkpt lat="45.325581146957035" lon="7.8913050745654205"><ele>253.0</ele><time>2026-04-11T08:48:53.964Z</time></trkpt><trkpt lat="45.32565063786779" lon="7.891180586967148"><ele>256.0</ele><time>2026-04-11T08:48:54.964Z</time></trkpt><trkpt lat="45.325713842756734" lon="7.891030223741916"><ele>259.0</ele><time>2026-04-11T08:48:55.964Z</time></trkpt><trkpt lat="45.32577716626182" lon="7.890851048749073"><ele>260.25</ele><time>2026-04-11T08:48:56.964Z</time></trkpt><trkpt lat="45.325837274639106" lon="7.890661950351347"><ele>261.5</ele><time>2026-04-11T08:48:57.964Z</time></trkpt><trkpt lat="45.32589037183897" lon="7.890485829217123"><ele>262.75</ele><time>2026-04-11T08:48:58.964Z</time></trkpt><trkpt lat="45.325942614208024" lon="7.890315124050997"><ele>264.0</ele><time>2026-04-11T08:48:59.964Z</time></trkpt><trkpt lat="45.32600897455864" lon="7.890140597661389"><ele>265.25</ele><time>2026-04-11T08:49:00.964Z</time></trkpt><trkpt lat="45.32608430930213" lon="7.889966616038799"><ele>266.5</ele><time>2026-04-11T08:49:01.964Z</time></trkpt><trkpt lat="45.32616320984085" lon="7.889792035112428"><ele>267.75</ele><time>2026-04-11T08:49:02.964Z</time></trkpt><trkpt lat="45.32625175009558" lon="7.88961882895591"><ele>269.0</ele><time>2026-04-11T08:49:03.964Z</time></trkpt><trkpt lat="45.32634003393866" lon="7.889457287733632"><ele>269.75</ele><time>2026-04-11T08:49:04.964Z</time></trkpt><trkpt lat="45.32641831857349" lon="7.88929870829813"><ele>270.5</ele><time>2026-04-11T08:49:05.964Z</time></trkpt><trkpt lat="45.32647571350058" lon="7.889153121932792"><ele>271.25</ele><time>2026-04-11T08:49:06.964Z</time></trkpt><trkpt lat="45.326509092845335" lon="7.889002267146428"><ele>272.0</ele><time>2026-04-11T08:49:07.964Z</time></trkpt><trkpt lat="45.3264994352188" lon="7.888869805066354"><ele>273.5</ele><time>2026-04-11T08:49:08.963Z</time></trkpt><trkpt lat="45.326463161090274" lon="7.888705273692017"><ele>275.0</ele><time>2026-04-11T08:49:09.963Z</time></trkpt><trkpt lat="45.326411134524264" lon="7.888514451647468"><ele>276.5</ele><time>2026-04-11T08:49:10.963Z</time></trkpt><trkpt lat="45.32636663178955" lon="7.8883319710279"><ele>278.0</ele><time>2026-04-11T08:49:11.963Z</time></trkpt><trkpt lat="45.3263251734881" lon="7.888154087337466"><ele>278.25</ele><time>2026-04-11T08:49:12.963Z</time></trkpt><trkpt lat="45.32627789392558" lon="7.887966592898114"><ele>278.5</ele><time>2026-04-11T08:49:13.963Z</time></trkpt><trkpt lat="45.32622602063525" lon="7.88777098192487"><ele>278.75</ele><time>2026-04-11T08:49:14.963Z</time></trkpt><trkpt lat="45.32619465680745" lon="7.8875824054207095"><ele>279.0</ele><time>2026-04-11T08:49:15.963Z</time></trkpt><trkpt lat="45.32619139918826" lon="7.887402668302208"><ele>279.0</ele><time>2026-04-11T08:49:16.963Z</time></trkpt><trkpt lat="45.32621963515257" lon="7.8872172023219145"><ele>279.0</ele><time>2026-04-11T08:49:17.963Z</time></trkpt><trkpt lat="45.326274649594055" lon="7.88701836134327"><ele>279.0</ele><time>2026-04-11T08:49:18.963Z</time></trkpt><trkpt lat="45.326376112223954" lon="7.8868297944200885"><ele>281.0</ele><time>2026-04-11T08:49:19.963Z</time></trkpt><trkpt lat="45.32647163363273" lon="7.886602248745482"><ele>283.0</ele><time>2026-04-11T08:49:20.963Z</time></trkpt><trkpt lat="45.32659104443488" lon="7.886377845042095"><ele>285.0</ele><time>2026-04-11T08:49:21.963Z</time></trkpt><trkpt lat="45.32671920639695" lon="7.886167630136686"><ele>285.0</ele><time>2026-04-11T08:49:22.963Z</time></trkpt><trkpt lat="45.32681779631146" lon="7.885958869162393"><ele>285.0</ele><time>2026-04-11T08:49:23.963Z</time></trkpt><trkpt lat="45.32692323425892" lon="7.885769869729446"><ele>285.0</ele><time>2026-04-11T08:49:24.963Z</time></trkpt><trkpt lat="45.32702619161281" lon="7.885593895058119"><ele>285.2</ele><time>2026-04-11T08:49:25.963Z</time></trkpt><trkpt lat="45.32710959008974" lon="7.885434410838518"><ele>285.4</ele><time>2026-04-11T08:49:26.963Z</time></trkpt><trkpt lat="45.3271798778387" lon="7.8852995357553235"><ele>285.6</ele><time>2026-04-11T08:49:27.963Z</time></trkpt><trkpt lat="45.32723183696073" lon="7.8852023820296235"><ele>285.8</ele><time>2026-04-11T08:49:28.963Z</time></trkpt><trkpt lat="45.3272720515357" lon="7.885107294010288"><ele>286.0</ele><time>2026-04-11T08:49:30.963Z</time></trkpt><trkpt lat="45.32734535531174" lon="7.8850635819047605"><ele>286.5</ele><time>2026-04-11T08:49:33.963Z</time></trkpt><trkpt lat="45.32725112218257" lon="7.8848274779723315"><ele>287.0</ele><time>2026-04-11T08:49:34.963Z</time></trkpt><trkpt lat="45.3272006076901" lon="7.8847291133149655"><ele>287.5</ele><time>2026-04-11T08:49:35.963Z</time></trkpt><trkpt lat="45.327132761646084" lon="7.884596998416144"><ele>288.0</ele><time>2026-04-11T08:49:36.963Z</time></trkpt><trkpt lat="45.32701221833276" lon="7.8844572981650325"><ele>288.0</ele><time>2026-04-11T08:49:37.963Z</time></trkpt><trkpt lat="45.32691889715371" lon="7.884284185275321"><ele>288.0</ele><time>2026-04-11T08:49:38.963Z</time></trkpt><trkpt lat="45.32683693103001" lon="7.884135640582629"><ele>288.0</ele><time>2026-04-11T08:49:39.962Z</time></trkpt><trkpt lat="45.326763968600666" lon="7.884000809373938"><ele>288.0</ele><time>2026-04-11T08:49:40.962Z</time></trkpt><trkpt lat="45.32672762596063" lon="7.88383064063159"><ele>289.25</ele><time>2026-04-11T08:49:41.962Z</time></trkpt><trkpt lat="45.32664918728965" lon="7.883682114883131"><ele>290.5</ele><time>2026-04-11T08:49:42.962Z</time></trkpt><trkpt lat="45.32656400964322" lon="7.883517124920991"><ele>291.75</ele><time>2026-04-11T08:49:43.962Z</time></trkpt><trkpt lat="45.32647102270571" lon="7.883335329812329"><ele>293.0</ele><time>2026-04-11T08:49:44.962Z</time></trkpt><trkpt lat="45.32637081178784" lon="7.883139922877511"><ele>294.6666666666667</ele><time>2026-04-11T08:49:45.962Z</time></trkpt><trkpt lat="45.326263943077834" lon="7.882939576335524"><ele>296.3333333333333</ele><time>2026-04-11T08:49:46.962Z</time></trkpt><trkpt lat="45.326160467829155" lon="7.882751765355486"><ele>298.0</ele><time>2026-04-11T08:49:47.962Z</time></trkpt><trkpt lat="45.326060947746996" lon="7.882578421016614"><ele>299.75</ele><time>2026-04-11T08:49:48.962Z</time></trkpt><trkpt lat="45.32596733243219" lon="7.882416646354781"><ele>301.5</ele><time>2026-04-11T08:49:49.962Z</time></trkpt><trkpt lat="45.32588429063365" lon="7.882250185645575"><ele>303.25</ele><time>2026-04-11T08:49:50.962Z</time></trkpt><trkpt lat="45.32580705844495" lon="7.882084284158854"><ele>305.0</ele><time>2026-04-11T08:49:51.962Z</time></trkpt><trkpt lat="45.325730061461485" lon="7.881926556229019"><ele>305.0</ele><time>2026-04-11T08:49:52.962Z</time></trkpt><trkpt lat="45.325652061874024" lon="7.881770060677408"><ele>305.0</ele><time>2026-04-11T08:49:53.962Z</time></trkpt><trkpt lat="45.32556799921774" lon="7.881608211138386"><ele>305.0</ele><time>2026-04-11T08:49:54.962Z</time></trkpt><trkpt lat="45.32548536253149" lon="7.881452164405713"><ele>305.0</ele><time>2026-04-11T08:49:55.962Z</time></trkpt><trkpt lat="45.32539952027981" lon="7.881301437321823"><ele>307.0</ele><time>2026-04-11T08:49:56.962Z</time></trkpt><trkpt lat="45.325325420862335" lon="7.8811786026861705"><ele>309.0</ele><time>2026-04-11T08:49:57.962Z</time></trkpt><trkpt lat="45.325259132196386" lon="7.881092586424383"><ele>311.0</ele><time>2026-04-11T08:49:59.962Z</time></trkpt><trkpt lat="45.325143192118155" lon="7.880940772668243"><ele>313.0</ele><time>2026-04-11T08:50:07.962Z</time></trkpt><trkpt lat="45.32508406796784" lon="7.880837816859262"><ele>313.0</ele><time>2026-04-11T08:50:08.962Z</time></trkpt><trkpt lat="45.32502511856592" lon="7.880733249630476"><ele>313.0</ele><time>2026-04-11T08:50:09.962Z</time></trkpt><trkpt lat="45.32495761654314" lon="7.880604297252266"><ele>313.0</ele><time>2026-04-11T08:50:10.961Z</time></trkpt><trkpt lat="45.32487892423064" lon="7.880454743617191"><ele>313.0</ele><time>2026-04-11T08:50:11.963Z</time></trkpt><trkpt lat="45.324798737364475" lon="7.880302347951812"><ele>315.5</ele><time>2026-04-11T08:50:12.963Z</time></trkpt><trkpt lat="45.32472070043656" lon="7.880152074234274"><ele>318.0</ele><time>2026-04-11T08:50:13.963Z</time></trkpt><trkpt lat="45.32463609874364" lon="7.879989958099917"><ele>320.5</ele><time>2026-04-11T08:50:14.963Z</time></trkpt><trkpt lat="45.324507646078075" lon="7.8798589888616775"><ele>323.0</ele><time>2026-04-11T08:50:15.963Z</time></trkpt><trkpt lat="45.32440397878817" lon="7.879691175058406"><ele>323.0</ele><time>2026-04-11T08:50:16.963Z</time></trkpt><trkpt lat="45.32428691655618" lon="7.879538585340251"><ele>323.0</ele><time>2026-04-11T08:50:17.963Z</time></trkpt><trkpt lat="45.32415188484043" lon="7.879389510364181"><ele>323.0</ele><time>2026-04-11T08:50:18.963Z</time></trkpt><trkpt lat="45.32400213156272" lon="7.879214843795775"><ele>320.33333333333337</ele><time>2026-04-11T08:50:19.963Z</time></trkpt><trkpt lat="45.32381673684909" lon="7.879135799796746"><ele>317.6666666666667</ele><time>2026-04-11T08:50:20.963Z</time></trkpt><trkpt lat="45.32364915481423" lon="7.879078643119121"><ele>315.0</ele><time>2026-04-11T08:50:21.963Z</time></trkpt><trkpt lat="45.323492072598064" lon="7.879022687387746"><ele>315.0</ele><time>2026-04-11T08:50:22.963Z</time></trkpt><trkpt lat="45.32333709130205" lon="7.878967480037754"><ele>315.0</ele><time>2026-04-11T08:50:23.963Z</time></trkpt><trkpt lat="45.323178981734095" lon="7.878911158364945"><ele>315.0</ele><time>2026-04-11T08:50:24.963Z</time></trkpt><trkpt lat="45.323013748552505" lon="7.878873742881498"><ele>315.0</ele><time>2026-04-11T08:50:25.963Z</time></trkpt><trkpt lat="45.32285457813072" lon="7.878798657363672"><ele>315.0</ele><time>2026-04-11T08:50:26.962Z</time></trkpt><trkpt lat="45.32268978089533" lon="7.878736053087014"><ele>315.0</ele><time>2026-04-11T08:50:27.962Z</time></trkpt><trkpt lat="45.32253155880181" lon="7.8786795992535765"><ele>315.0</ele><time>2026-04-11T08:50:28.962Z</time></trkpt><trkpt lat="45.32238101038543" lon="7.878636618154842"><ele>315.0</ele><time>2026-04-11T08:50:29.962Z</time></trkpt><trkpt lat="45.3222430255237" lon="7.878594411441835"><ele>315.0</ele><time>2026-04-11T08:50:30.962Z</time></trkpt><trkpt lat="45.32211477726193" lon="7.878552759738727"><ele>315.0</ele><time>2026-04-11T08:50:31.962Z</time></trkpt><trkpt lat="45.32199065728085" lon="7.878505853029346"><ele>313.0</ele><time>2026-04-11T08:50:32.962Z</time></trkpt><trkpt lat="45.32186797378962" lon="7.87845821327578"><ele>311.0</ele><time>2026-04-11T08:50:33.962Z</time></trkpt><trkpt lat="45.32174244036263" lon="7.878411278651894"><ele>309.0</ele><time>2026-04-11T08:50:34.962Z</time></trkpt><trkpt lat="45.32161500599479" lon="7.878366368283748"><ele>307.0</ele><time>2026-04-11T08:50:35.962Z</time></trkpt><trkpt lat="45.32148736819419" lon="7.878321796416117"><ele>306.25</ele><time>2026-04-11T08:50:36.962Z</time></trkpt><trkpt lat="45.321360383157334" lon="7.878279278700525"><ele>305.5</ele><time>2026-04-11T08:50:37.962Z</time></trkpt><trkpt lat="45.32123526572296" lon="7.878236356566969"><ele>304.75</ele><time>2026-04-11T08:50:38.962Z</time></trkpt><trkpt lat="45.321111104659465" lon="7.878191729631856"><ele>304.0</ele><time>2026-04-11T08:50:39.962Z</time></trkpt><trkpt lat="45.32098771250277" lon="7.878145613945329"><ele>304.0</ele><time>2026-04-11T08:50:40.962Z</time></trkpt><trkpt lat="45.32086061442266" lon="7.878099344136039"><ele>304.0</ele><time>2026-04-11T08:50:41.962Z</time></trkpt><trkpt lat="45.32073104265613" lon="7.878054370854572"><ele>304.0</ele><time>2026-04-11T08:50:42.962Z</time></trkpt><trkpt lat="45.3205982159659" lon="7.878014680570773"><ele>304.0</ele><time>2026-04-11T08:50:43.962Z</time></trkpt><trkpt lat="45.32046523260864" lon="7.8779876175495716"><ele>304.0</ele><time>2026-04-11T08:50:44.962Z</time></trkpt><trkpt lat="45.3203307865977" lon="7.877983958706884"><ele>304.0</ele><time>2026-04-11T08:50:45.962Z</time></trkpt><trkpt lat="45.32019710293314" lon="7.878007800202143"><ele>304.0</ele><time>2026-04-11T08:50:46.962Z</time></trkpt><trkpt lat="45.320058320103776" lon="7.878055214708965"><ele>304.0</ele><time>2026-04-11T08:50:47.962Z</time></trkpt><trkpt lat="45.319912487642206" lon="7.878123459535645"><ele>304.0</ele><time>2026-04-11T08:50:48.962Z</time></trkpt><trkpt lat="45.319751890075445" lon="7.878195557536428"><ele>304.0</ele><time>2026-04-11T08:50:49.962Z</time></trkpt><trkpt lat="45.319575887123406" lon="7.87826439810347"><ele>304.0</ele><time>2026-04-11T08:50:50.962Z</time></trkpt><trkpt lat="45.31939034699645" lon="7.878325194145758"><ele>303.0</ele><time>2026-04-11T08:50:51.962Z</time></trkpt><trkpt lat="45.31919507078595" lon="7.87838682717026"><ele>302.0</ele><time>2026-04-11T08:50:52.962Z</time></trkpt><trkpt lat="45.319003730504825" lon="7.8784593278075645"><ele>301.0</ele><time>2026-04-11T08:50:53.962Z</time></trkpt><trkpt lat="45.31882330000955" lon="7.8785294354686615"><ele>303.0</ele><time>2026-04-11T08:50:54.962Z</time></trkpt><trkpt lat="45.31864715488354" lon="7.878598724042777"><ele>305.0</ele><time>2026-04-11T08:50:55.962Z</time></trkpt><trkpt lat="45.31846008123486" lon="7.878667080794248"><ele>307.0</ele><time>2026-04-11T08:50:56.961Z</time></trkpt><trkpt lat="45.31827180736566" lon="7.878741125720408"><ele>307.0</ele><time>2026-04-11T08:50:57.961Z</time></trkpt><trkpt lat="45.318079603818234" lon="7.878815482553279"><ele>307.0</ele><time>2026-04-11T08:50:58.961Z</time></trkpt><trkpt lat="45.317886006521945" lon="7.878888289895537"><ele>307.0</ele><time>2026-04-11T08:50:59.961Z</time></trkpt><trkpt lat="45.31769388589559" lon="7.878961669694587"><ele>305.66666666666663</ele><time>2026-04-11T08:51:00.961Z</time></trkpt><trkpt lat="45.31749930546252" lon="7.879032084169488"><ele>304.3333333333333</ele><time>2026-04-11T08:51:01.961Z</time></trkpt><trkpt lat="45.31730164596682" lon="7.87910322209979"><ele>303.0</ele><time>2026-04-11T08:51:02.961Z</time></trkpt><trkpt lat="45.31710176918272" lon="7.879187772220174"><ele>302.3333333333333</ele><time>2026-04-11T08:51:03.961Z</time></trkpt><trkpt lat="45.316912858257886" lon="7.879295587959385"><ele>301.66666666666663</ele><time>2026-04-11T08:51:04.961Z</time></trkpt><trkpt lat="45.316728937098496" lon="7.879399910385337"><ele>301.0</ele><time>2026-04-11T08:51:05.961Z</time></trkpt><trkpt lat="45.316543171972185" lon="7.879500960001548"><ele>299.66666666666663</ele><time>2026-04-11T08:51:06.961Z</time></trkpt><trkpt lat="45.316357973518336" lon="7.879607161472549"><ele>298.3333333333333</ele><time>2026-04-11T08:51:07.961Z</time></trkpt><trkpt lat="45.31616985180637" lon="7.879714918398167"><ele>297.0</ele><time>2026-04-11T08:51:08.961Z</time></trkpt><trkpt lat="45.31598704159514" lon="7.879822155025846"><ele>297.0</ele><time>2026-04-11T08:51:09.961Z</time></trkpt><trkpt lat="45.31580876289795" lon="7.879926515195693"><ele>297.0</ele><time>2026-04-11T08:51:10.961Z</time></trkpt><trkpt lat="45.31563049042703" lon="7.8800103922740385"><ele>297.0</ele><time>2026-04-11T08:51:11.961Z</time></trkpt><trkpt lat="45.31544418933211" lon="7.880074893590369"><ele>297.3333333333333</ele><time>2026-04-11T08:51:12.961Z</time></trkpt><trkpt lat="45.315248774074846" lon="7.8801250965026055"><ele>297.66666666666663</ele><time>2026-04-11T08:51:13.961Z</time></trkpt><trkpt lat="45.31504360411762" lon="7.88015922250176"><ele>298.0</ele><time>2026-04-11T08:51:14.961Z</time></trkpt><trkpt lat="45.31483490998108" lon="7.880174214950703"><ele>298.0</ele><time>2026-04-11T08:51:15.961Z</time></trkpt><trkpt lat="45.31462379563438" lon="7.880171497484735"><ele>298.0</ele><time>2026-04-11T08:51:16.961Z</time></trkpt><trkpt lat="45.31441110961741" lon="7.880140802195403"><ele>298.0</ele><time>2026-04-11T08:51:17.961Z</time></trkpt><trkpt lat="45.3141939627326" lon="7.880088429040061"><ele>295.0</ele><time>2026-04-11T08:51:18.961Z</time></trkpt><trkpt lat="45.313973220974304" lon="7.880021418553381"><ele>292.0</ele><time>2026-04-11T08:51:19.961Z</time></trkpt><trkpt lat="45.31374763309536" lon="7.879951825550177"><ele>290.0</ele><time>2026-04-11T08:51:20.961Z</time></trkpt><trkpt lat="45.31352299171261" lon="7.879874806836974"><ele>288.0</ele><time>2026-04-11T08:51:21.961Z</time></trkpt><trkpt lat="45.31330035640161" lon="7.879794690924377"><ele>288.0</ele><time>2026-04-11T08:51:22.961Z</time></trkpt><trkpt lat="45.31307847463721" lon="7.879718387922469"><ele>288.0</ele><time>2026-04-11T08:51:23.961Z</time></trkpt><trkpt lat="45.3128595835828" lon="7.879641126827258"><ele>287.0</ele><time>2026-04-11T08:51:24.961Z</time></trkpt><trkpt lat="45.31264070818751" lon="7.879564362567094"><ele>286.0</ele><time>2026-04-11T08:51:25.961Z</time></trkpt><trkpt lat="45.312416865477324" lon="7.879485592075082"><ele>285.5</ele><time>2026-04-11T08:51:26.961Z</time></trkpt><trkpt lat="45.31219217080695" lon="7.8794046492669425"><ele>285.0</ele><time>2026-04-11T08:51:27.96Z</time></trkpt><trkpt lat="45.311967530094286" lon="7.879324924010075"><ele>284.0</ele><time>2026-04-11T08:51:28.96Z</time></trkpt><trkpt lat="45.31174471736962" lon="7.879244855509178"><ele>283.0</ele><time>2026-04-11T08:51:29.96Z</time></trkpt><trkpt lat="45.311530202934996" lon="7.879169560623646"><ele>282.3333333333333</ele><time>2026-04-11T08:51:30.96Z</time></trkpt><trkpt lat="45.31132229327308" lon="7.879096295348052"><ele>281.6666666666667</ele><time>2026-04-11T08:51:31.96Z</time></trkpt><trkpt lat="45.31112081486286" lon="7.87902723408762"><ele>281.0</ele><time>2026-04-11T08:51:32.96Z</time></trkpt><trkpt lat="45.310924324017925" lon="7.878963875472532"><ele>281.0</ele><time>2026-04-11T08:51:33.96Z</time></trkpt><trkpt lat="45.31072415560563" lon="7.8789051539449915"><ele>281.0</ele><time>2026-04-11T08:51:34.96Z</time></trkpt><trkpt lat="45.310528940662785" lon="7.878851309749485"><ele>281.0</ele><time>2026-04-11T08:51:35.96Z</time></trkpt><trkpt lat="45.31033576161905" lon="7.878810867027282"><ele>281.33333333333337</ele><time>2026-04-11T08:51:36.96Z</time></trkpt><trkpt lat="45.31014039867859" lon="7.8787822803740655"><ele>281.6666666666667</ele><time>2026-04-11T08:51:37.96Z</time></trkpt><trkpt lat="45.30994937910803" lon="7.878761141897032"><ele>282.0</ele><time>2026-04-11T08:51:38.96Z</time></trkpt><trkpt lat="45.309764707602234" lon="7.878746201553706"><ele>281.6666666666667</ele><time>2026-04-11T08:51:39.96Z</time></trkpt><trkpt lat="45.30958925233742" lon="7.878738701696582"><ele>281.33333333333337</ele><time>2026-04-11T08:51:40.96Z</time></trkpt><trkpt lat="45.30941918143201" lon="7.878737184323024"><ele>281.0</ele><time>2026-04-11T08:51:41.96Z</time></trkpt><trkpt lat="45.309250289796246" lon="7.878736049374883"><ele>281.0</ele><time>2026-04-11T08:51:42.96Z</time></trkpt><trkpt lat="45.309091649296874" lon="7.878734851679668"><ele>281.0</ele><time>2026-04-11T08:51:43.96Z</time></trkpt><trkpt lat="45.30894469141081" lon="7.878736025028443"><ele>281.0</ele><time>2026-04-11T08:51:44.96Z</time></trkpt><trkpt lat="45.30880523846976" lon="7.878729171308913"><ele>281.0</ele><time>2026-04-11T08:51:45.96Z</time></trkpt><trkpt lat="45.3086720991721" lon="7.878730673214176"><ele>280.8</ele><time>2026-04-11T08:51:46.96Z</time></trkpt><trkpt lat="45.30855840023802" lon="7.878730217724033"><ele>280.6</ele><time>2026-04-11T08:51:47.96Z</time></trkpt><trkpt lat="45.30846178514607" lon="7.878716287845924"><ele>280.4</ele><time>2026-04-11T08:51:48.96Z</time></trkpt><trkpt lat="45.308379809769356" lon="7.878686551029416"><ele>280.2</ele><time>2026-04-11T08:51:49.96Z</time></trkpt><trkpt lat="45.308309130865666" lon="7.878624909280266"><ele>280.0</ele><time>2026-04-11T08:51:50.96Z</time></trkpt><trkpt lat="45.30825424651464" lon="7.878540541570484"><ele>279.75</ele><time>2026-04-11T08:51:51.96Z</time></trkpt><trkpt lat="45.30821404131903" lon="7.878431593069666"><ele>279.5</ele><time>2026-04-11T08:51:52.96Z</time></trkpt><trkpt lat="45.30819261381574" lon="7.878279791660866"><ele>279.25</ele><time>2026-04-11T08:51:53.96Z</time></trkpt><trkpt lat="45.3081840729422" lon="7.878096285263674"><ele>279.0</ele><time>2026-04-11T08:51:54.96Z</time></trkpt><trkpt lat="45.308168475349824" lon="7.877885585481285"><ele>279.0</ele><time>2026-04-11T08:51:55.96Z</time></trkpt><trkpt lat="45.308152899933155" lon="7.877662578130201"><ele>279.0</ele><time>2026-04-11T08:51:56.96Z</time></trkpt><trkpt lat="45.30813352273119" lon="7.877415729607936"><ele>279.0</ele><time>2026-04-11T08:51:57.96Z</time></trkpt><trkpt lat="45.30811409337952" lon="7.877175960342165"><ele>279.3333333333333</ele><time>2026-04-11T08:51:58.959Z</time></trkpt><trkpt lat="45.30808860655645" lon="7.876948764118875"><ele>279.66666666666663</ele><time>2026-04-11T08:51:59.959Z</time></trkpt><trkpt lat="45.30806482399245" lon="7.876711766102671"><ele>280.0</ele><time>2026-04-11T08:52:00.959Z</time></trkpt><trkpt lat="45.30804054470239" lon="7.876463428021945"><ele>280.0</ele><time>2026-04-11T08:52:01.959Z</time></trkpt><trkpt lat="45.308026534270255" lon="7.8762090642061136"><ele>280.0</ele><time>2026-04-11T08:52:02.959Z</time></trkpt><trkpt lat="45.30801791184421" lon="7.8759508601735275"><ele>280.0</ele><time>2026-04-11T08:52:03.959Z</time></trkpt><trkpt lat="45.30799755104369" lon="7.8757005988012985"><ele>280.0</ele><time>2026-04-11T08:52:04.959Z</time></trkpt><trkpt lat="45.307976446912825" lon="7.875439461638272"><ele>280.0</ele><time>2026-04-11T08:52:05.959Z</time></trkpt><trkpt lat="45.307962224425594" lon="7.875189532335138"><ele>280.0</ele><time>2026-04-11T08:52:06.959Z</time></trkpt><trkpt lat="45.30795375234047" lon="7.874957336397642"><ele>279.75</ele><time>2026-04-11T08:52:07.959Z</time></trkpt><trkpt lat="45.30795169921671" lon="7.874746309462173"><ele>279.5</ele><time>2026-04-11T08:52:08.959Z</time></trkpt><trkpt lat="45.30795596035937" lon="7.874548087670174"><ele>279.25</ele><time>2026-04-11T08:52:09.959Z</time></trkpt><trkpt lat="45.30796399953915" lon="7.8743530100089165"><ele>279.0</ele><time>2026-04-11T08:52:10.959Z</time></trkpt><trkpt lat="45.30796536862575" lon="7.87415481632477"><ele>278.75</ele><time>2026-04-11T08:52:11.959Z</time></trkpt><trkpt lat="45.307968058145704" lon="7.873944354128212"><ele>278.5</ele><time>2026-04-11T08:52:12.959Z</time></trkpt><trkpt lat="45.30796769162945" lon="7.873723830400321"><ele>278.25</ele><time>2026-04-11T08:52:13.959Z</time></trkpt><trkpt lat="45.30796769980304" lon="7.873516386936264"><ele>278.0</ele><time>2026-04-11T08:52:14.959Z</time></trkpt><trkpt lat="45.30796431002905" lon="7.873331642714314"><ele>278.0</ele><time>2026-04-11T08:52:15.959Z</time></trkpt><trkpt lat="45.307959534397426" lon="7.873170265309034"><ele>278.0</ele><time>2026-04-11T08:52:16.959Z</time></trkpt><trkpt lat="45.30795314767553" lon="7.873019896364086"><ele>278.0</ele><time>2026-04-11T08:52:17.961Z</time></trkpt><trkpt lat="45.30796727362852" lon="7.872908564480374"><ele>278.0</ele><time>2026-04-11T08:52:18.961Z</time></trkpt><trkpt lat="45.30796726323245" lon="7.8727961334729235"><ele>278.0</ele><time>2026-04-11T08:52:19.961Z</time></trkpt><trkpt lat="45.307966486248546" lon="7.872691432320053"><ele>278.0</ele><time>2026-04-11T08:52:20.96Z</time></trkpt><trkpt lat="45.307966155602294" lon="7.87258992248968"><ele>278.0</ele><time>2026-04-11T08:52:21.96Z</time></trkpt><trkpt lat="45.307962946440554" lon="7.872461061077533"><ele>278.0</ele><time>2026-04-11T08:52:22.96Z</time></trkpt><trkpt lat="45.307962613986746" lon="7.872300066297328"><ele>278.0</ele><time>2026-04-11T08:52:23.961Z</time></trkpt><trkpt lat="45.307963157965744" lon="7.8721140571280666"><ele>278.0</ele><time>2026-04-11T08:52:24.96Z</time></trkpt><trkpt lat="45.30796424078297" lon="7.871905425400715"><ele>278.0</ele><time>2026-04-11T08:52:25.96Z</time></trkpt><trkpt lat="45.307963936507576" lon="7.871677633897845"><ele>278.0</ele><time>2026-04-11T08:52:26.961Z</time></trkpt><trkpt lat="45.30797253491484" lon="7.871435576725825"><ele>278.0</ele><time>2026-04-11T08:52:27.96Z</time></trkpt><trkpt lat="45.30797826855758" lon="7.871184122993791"><ele>278.0</ele><time>2026-04-11T08:52:28.96Z</time></trkpt><trkpt lat="45.30797996491324" lon="7.87093879528127"><ele>278.0</ele><time>2026-04-11T08:52:29.96Z</time></trkpt><trkpt lat="45.30798192622276" lon="7.870671167126736"><ele>278.0</ele><time>2026-04-11T08:52:30.961Z</time></trkpt><trkpt lat="45.30798491038888" lon="7.870385747977281"><ele>277.33333333333337</ele><time>2026-04-11T08:52:31.961Z</time></trkpt><trkpt lat="45.307987992414624" lon="7.870077965357461"><ele>276.6666666666667</ele><time>2026-04-11T08:52:32.958Z</time></trkpt><trkpt lat="45.30799137231119" lon="7.869767714450539"><ele>276.0</ele><time>2026-04-11T08:52:33.955Z</time></trkpt><trkpt lat="45.30798950690171" lon="7.86947444860684"><ele>276.3333333333333</ele><time>2026-04-11T08:52:34.952Z</time></trkpt><trkpt lat="45.30799397500599" lon="7.86917073726256"><ele>276.66666666666663</ele><time>2026-04-11T08:52:35.95Z</time></trkpt><trkpt lat="45.307998373512795" lon="7.868856145553611"><ele>277.0</ele><time>2026-04-11T08:52:36.948Z</time></trkpt><trkpt lat="45.30800167788573" lon="7.868534166074104"><ele>276.5</ele><time>2026-04-11T08:52:37.946Z</time></trkpt><trkpt lat="45.308004420404" lon="7.8682006613934865"><ele>276.0</ele><time>2026-04-11T08:52:38.944Z</time></trkpt><trkpt lat="45.30800584269887" lon="7.86785658984256"><ele>276.0</ele><time>2026-04-11T08:52:39.942Z</time></trkpt><trkpt lat="45.30800616192825" lon="7.867508477450302"><ele>276.0</ele><time>2026-04-11T08:52:40.94Z</time></trkpt><trkpt lat="45.308005982537125" lon="7.867155033759243"><ele>276.0</ele><time>2026-04-11T08:52:41.938Z</time></trkpt><trkpt lat="45.30800617059219" lon="7.866791678777768"><ele>276.0</ele><time>2026-04-11T08:52:42.937Z</time></trkpt><trkpt lat="45.3080055800401" lon="7.866418144632081"><ele>276.0</ele><time>2026-04-11T08:52:43.935Z</time></trkpt><trkpt lat="45.30802365184553" lon="7.866036689145986"><ele>276.0</ele><time>2026-04-11T08:52:44.934Z</time></trkpt><trkpt lat="45.308024407932876" lon="7.865638966846387"><ele>276.5</ele><time>2026-04-11T08:52:45.932Z</time></trkpt><trkpt lat="45.30802792028872" lon="7.8652288552264"><ele>277.0</ele><time>2026-04-11T08:52:46.931Z</time></trkpt><trkpt lat="45.30802869679314" lon="7.864817400705027"><ele>276.0</ele><time>2026-04-11T08:52:47.93Z</time></trkpt><trkpt lat="45.30802964252294" lon="7.864425314551675"><ele>275.0</ele><time>2026-04-11T08:52:48.929Z</time></trkpt><trkpt lat="45.30803311945806" lon="7.86404327472396"><ele>275.0</ele><time>2026-04-11T08:52:49.928Z</time></trkpt><trkpt lat="45.308037567110624" lon="7.863659071777718"><ele>275.0</ele><time>2026-04-11T08:52:50.927Z</time></trkpt><trkpt lat="45.30804202998688" lon="7.863270993698592"><ele>275.5</ele><time>2026-04-11T08:52:51.926Z</time></trkpt><trkpt lat="45.308048631997" lon="7.862878275804298"><ele>276.0</ele><time>2026-04-11T08:52:52.925Z</time></trkpt><trkpt lat="45.30805520132787" lon="7.862480964631036"><ele>276.5</ele><time>2026-04-11T08:52:53.924Z</time></trkpt><trkpt lat="45.308063403787045" lon="7.862080965815587"><ele>277.0</ele><time>2026-04-11T08:52:54.924Z</time></trkpt><trkpt lat="45.30808026274244" lon="7.861674153111694"><ele>278.0</ele><time>2026-04-11T08:52:55.923Z</time></trkpt><trkpt lat="45.30810339069907" lon="7.8612596467857285"><ele>279.0</ele><time>2026-04-11T08:52:56.922Z</time></trkpt><trkpt lat="45.308132878355444" lon="7.860852499457502"><ele>279.0</ele><time>2026-04-11T08:52:57.922Z</time></trkpt><trkpt lat="45.308163844967346" lon="7.86044772910026"><ele>279.0</ele><time>2026-04-11T08:52:58.921Z</time></trkpt><trkpt lat="45.30819254184979" lon="7.8600535434293635"><ele>279.0</ele><time>2026-04-11T08:52:59.921Z</time></trkpt><trkpt lat="45.308209746795015" lon="7.859655916768013"><ele>279.0</ele><time>2026-04-11T08:53:00.92Z</time></trkpt><trkpt lat="45.308235904441744" lon="7.859262142878178"><ele>279.0</ele><time>2026-04-11T08:53:01.92Z</time></trkpt><trkpt lat="45.308266502312506" lon="7.858866587764134"><ele>279.0</ele><time>2026-04-11T08:53:02.919Z</time></trkpt><trkpt lat="45.308309089181606" lon="7.858464905286136"><ele>279.5</ele><time>2026-04-11T08:53:03.919Z</time></trkpt><trkpt lat="45.308357135196744" lon="7.85806157333865"><ele>280.0</ele><time>2026-04-11T08:53:04.918Z</time></trkpt><trkpt lat="45.30841057612745" lon="7.857660482533481"><ele>280.5</ele><time>2026-04-11T08:53:05.918Z</time></trkpt><trkpt lat="45.30846815837709" lon="7.857264011148613"><ele>281.0</ele><time>2026-04-11T08:53:06.917Z</time></trkpt><trkpt lat="45.30852940950427" lon="7.856872160194231"><ele>280.5</ele><time>2026-04-11T08:53:07.917Z</time></trkpt><trkpt lat="45.30859370473182" lon="7.856481175007426"><ele>280.0</ele><time>2026-04-11T08:53:08.917Z</time></trkpt><trkpt lat="45.30865667148901" lon="7.856091366391613"><ele>279.0</ele><time>2026-04-11T08:53:09.916Z</time></trkpt><trkpt lat="45.3087381845556" lon="7.855707749701733"><ele>278.0</ele><time>2026-04-11T08:53:10.916Z</time></trkpt><trkpt lat="45.30880422601137" lon="7.85532956936196"><ele>279.0</ele><time>2026-04-11T08:53:11.916Z</time></trkpt><trkpt lat="45.30886277308638" lon="7.854950447021066"><ele>280.0</ele><time>2026-04-11T08:53:12.916Z</time></trkpt><trkpt lat="45.30892481714822" lon="7.854573250252006"><ele>281.5</ele><time>2026-04-11T08:53:13.915Z</time></trkpt><trkpt lat="45.30898746640753" lon="7.854199419110305"><ele>283.0</ele><time>2026-04-11T08:53:14.915Z</time></trkpt><trkpt lat="45.30905066233139" lon="7.853827162212228"><ele>283.0</ele><time>2026-04-11T08:53:15.915Z</time></trkpt><trkpt lat="45.30911177089906" lon="7.853456185832525"><ele>283.0</ele><time>2026-04-11T08:53:16.915Z</time></trkpt><trkpt lat="45.309167225444874" lon="7.853096196444927"><ele>282.0</ele><time>2026-04-11T08:53:17.914Z</time></trkpt><trkpt lat="45.30922313440081" lon="7.852748082355673"><ele>281.0</ele><time>2026-04-11T08:53:18.914Z</time></trkpt><trkpt lat="45.30927814263043" lon="7.852415077919751"><ele>280.6666666666667</ele><time>2026-04-11T08:53:19.914Z</time></trkpt><trkpt lat="45.30933108284172" lon="7.852098566347432"><ele>280.3333333333333</ele><time>2026-04-11T08:53:20.914Z</time></trkpt><trkpt lat="45.30938062215786" lon="7.8517956194109555"><ele>280.0</ele><time>2026-04-11T08:53:21.914Z</time></trkpt><trkpt lat="45.3094270876835" lon="7.851508654861167"><ele>280.0</ele><time>2026-04-11T08:53:22.914Z</time></trkpt><trkpt lat="45.3094722391743" lon="7.851241848201068"><ele>280.0</ele><time>2026-04-11T08:53:23.913Z</time></trkpt><trkpt lat="45.30951889025216" lon="7.850990905110457"><ele>280.0</ele><time>2026-04-11T08:53:24.913Z</time></trkpt><trkpt lat="45.30956594392101" lon="7.850754999020763"><ele>280.0</ele><time>2026-04-11T08:53:25.913Z</time></trkpt><trkpt lat="45.30961168519665" lon="7.850532435427351"><ele>280.0</ele><time>2026-04-11T08:53:26.913Z</time></trkpt><trkpt lat="45.30965628977137" lon="7.850319515576811"><ele>280.0</ele><time>2026-04-11T08:53:27.913Z</time></trkpt><trkpt lat="45.30970094033101" lon="7.85011621332014"><ele>281.0</ele><time>2026-04-11T08:53:28.913Z</time></trkpt><trkpt lat="45.30975154008362" lon="7.849912657287933"><ele>282.0</ele><time>2026-04-11T08:53:29.913Z</time></trkpt><trkpt lat="45.30980374400321" lon="7.849706792983832"><ele>283.0</ele><time>2026-04-11T08:53:30.913Z</time></trkpt><trkpt lat="45.309856020847285" lon="7.849501144075433"><ele>283.0</ele><time>2026-04-11T08:53:31.912Z</time></trkpt><trkpt lat="45.30990519694987" lon="7.84930366297725"><ele>283.0</ele><time>2026-04-11T08:53:32.912Z</time></trkpt><trkpt lat="45.309950327147455" lon="7.849126981158123"><ele>283.0</ele><time>2026-04-11T08:53:33.912Z</time></trkpt><trkpt lat="45.309996723684755" lon="7.848964392821329"><ele>283.0</ele><time>2026-04-11T08:53:34.912Z</time></trkpt><trkpt lat="45.310040133215225" lon="7.8488189079950095"><ele>283.0</ele><time>2026-04-11T08:53:35.912Z</time></trkpt><trkpt lat="45.310085296498954" lon="7.848696122229058"><ele>283.0</ele><time>2026-04-11T08:53:36.912Z</time></trkpt><trkpt lat="45.31014124858936" lon="7.848589172879205"><ele>283.0</ele><time>2026-04-11T08:53:37.912Z</time></trkpt><trkpt lat="45.31020554280292" lon="7.84849258722424"><ele>283.0</ele><time>2026-04-11T08:53:38.912Z</time></trkpt><trkpt lat="45.310271329257006" lon="7.848393379548129"><ele>283.0</ele><time>2026-04-11T08:53:39.912Z</time></trkpt><trkpt lat="45.3103232027569" lon="7.848277881043264"><ele>283.0</ele><time>2026-04-11T08:53:40.912Z</time></trkpt><trkpt lat="45.310348682276405" lon="7.848133450717755"><ele>283.0</ele><time>2026-04-11T08:53:41.911Z</time></trkpt><trkpt lat="45.31034732374921" lon="7.847976536147826"><ele>283.0</ele><time>2026-04-11T08:53:42.911Z</time></trkpt><trkpt lat="45.31034391188138" lon="7.8478037337715"><ele>283.0</ele><time>2026-04-11T08:53:43.911Z</time></trkpt><trkpt lat="45.310365504037044" lon="7.847614458510582"><ele>282.66666666666663</ele><time>2026-04-11T08:53:44.911Z</time></trkpt><trkpt lat="45.310409460443196" lon="7.847407315288572"><ele>282.3333333333333</ele><time>2026-04-11T08:53:45.911Z</time></trkpt><trkpt lat="45.31046307339008" lon="7.847184312968146"><ele>282.0</ele><time>2026-04-11T08:53:46.911Z</time></trkpt><trkpt lat="45.31051930688308" lon="7.846971524916683"><ele>282.3333333333333</ele><time>2026-04-11T08:53:47.911Z</time></trkpt><trkpt lat="45.310578032333275" lon="7.846751560383651"><ele>282.66666666666663</ele><time>2026-04-11T08:53:48.911Z</time></trkpt><trkpt lat="45.3106388111161" lon="7.8465270264785385"><ele>283.0</ele><time>2026-04-11T08:53:49.911Z</time></trkpt><trkpt lat="45.31069884105737" lon="7.846303371765261"><ele>283.0</ele><time>2026-04-11T08:53:50.911Z</time></trkpt><trkpt lat="45.31076137015977" lon="7.846071500157651"><ele>283.0</ele><time>2026-04-11T08:53:51.911Z</time></trkpt><trkpt lat="45.31082702229971" lon="7.845830436932348"><ele>283.0</ele><time>2026-04-11T08:53:52.911Z</time></trkpt><trkpt lat="45.31089595736756" lon="7.84558409063812"><ele>283.0</ele><time>2026-04-11T08:53:53.911Z</time></trkpt><trkpt lat="45.310965833678715" lon="7.845328788326229"><ele>283.0</ele><time>2026-04-11T08:53:54.911Z</time></trkpt><trkpt lat="45.31103383041976" lon="7.845070399907904"><ele>283.0</ele><time>2026-04-11T08:53:55.911Z</time></trkpt><trkpt lat="45.31110120450344" lon="7.844814198191142"><ele>283.0</ele><time>2026-04-11T08:53:56.91Z</time></trkpt><trkpt lat="45.31117082308503" lon="7.844552318867261"><ele>283.0</ele><time>2026-04-11T08:53:57.91Z</time></trkpt><trkpt lat="45.311245115988044" lon="7.844283275145136"><ele>283.0</ele><time>2026-04-11T08:53:58.91Z</time></trkpt><trkpt lat="45.311319192735" lon="7.844011574603039"><ele>283.3333333333333</ele><time>2026-04-11T08:53:59.91Z</time></trkpt><trkpt lat="45.31138790318598" lon="7.843751476121269"><ele>283.6666666666667</ele><time>2026-04-11T08:54:00.91Z</time></trkpt><trkpt lat="45.31145925573176" lon="7.843482895674601"><ele>284.0</ele><time>2026-04-11T08:54:01.91Z</time></trkpt><trkpt lat="45.31153339917857" lon="7.843205696021323"><ele>284.0</ele><time>2026-04-11T08:54:02.91Z</time></trkpt><trkpt lat="45.31160866742139" lon="7.842928028187611"><ele>284.0</ele><time>2026-04-11T08:54:03.91Z</time></trkpt><trkpt lat="45.31168453667344" lon="7.842649452635665"><ele>284.0</ele><time>2026-04-11T08:54:04.91Z</time></trkpt><trkpt lat="45.311761620413904" lon="7.842366447829844"><ele>283.33333333333337</ele><time>2026-04-11T08:54:05.91Z</time></trkpt><trkpt lat="45.31183730039472" lon="7.842082879945952"><ele>282.6666666666667</ele><time>2026-04-11T08:54:06.91Z</time></trkpt><trkpt lat="45.31190426272478" lon="7.8418223904347615"><ele>282.0</ele><time>2026-04-11T08:54:07.91Z</time></trkpt><trkpt lat="45.31197190254227" lon="7.841576885884585"><ele>282.0</ele><time>2026-04-11T08:54:08.91Z</time></trkpt><trkpt lat="45.31203761997092" lon="7.841336157174942"><ele>282.0</ele><time>2026-04-11T08:54:09.91Z</time></trkpt><trkpt lat="45.31210110568642" lon="7.8411038480586965"><ele>282.0</ele><time>2026-04-11T08:54:10.91Z</time></trkpt><trkpt lat="45.31216627468048" lon="7.840869748694689"><ele>282.6666666666667</ele><time>2026-04-11T08:54:11.91Z</time></trkpt><trkpt lat="45.31223040095369" lon="7.840625263101808"><ele>283.33333333333337</ele><time>2026-04-11T08:54:12.91Z</time></trkpt><trkpt lat="45.312296520067676" lon="7.84037153670665"><ele>284.0</ele><time>2026-04-11T08:54:13.91Z</time></trkpt><trkpt lat="45.31236579607881" lon="7.840117796189011"><ele>284.33333333333337</ele><time>2026-04-11T08:54:14.909Z</time></trkpt><trkpt lat="45.31243491878513" lon="7.839872315419304"><ele>284.6666666666667</ele><time>2026-04-11T08:54:15.909Z</time></trkpt><trkpt lat="45.312501499694726" lon="7.839626542451505"><ele>285.0</ele><time>2026-04-11T08:54:16.909Z</time></trkpt><trkpt lat="45.312570290483556" lon="7.8393759421170355"><ele>284.6666666666667</ele><time>2026-04-11T08:54:17.909Z</time></trkpt><trkpt lat="45.31264367391444" lon="7.839121688362547"><ele>284.33333333333337</ele><time>2026-04-11T08:54:18.909Z</time></trkpt><trkpt lat="45.31271996789957" lon="7.838864918328353"><ele>284.0</ele><time>2026-04-11T08:54:19.909Z</time></trkpt><trkpt lat="45.31282500122053" lon="7.838619806155468"><ele>284.33333333333337</ele><time>2026-04-11T08:54:20.909Z</time></trkpt><trkpt lat="45.31291061364708" lon="7.838364634501712"><ele>284.6666666666667</ele><time>2026-04-11T08:54:21.909Z</time></trkpt><trkpt lat="45.31300117281906" lon="7.838113992611475"><ele>285.0</ele><time>2026-04-11T08:54:22.909Z</time></trkpt><trkpt lat="45.313093217261624" lon="7.837865787075321"><ele>284.6666666666667</ele><time>2026-04-11T08:54:23.91Z</time></trkpt><trkpt lat="45.313185425575206" lon="7.8376185404160745"><ele>284.33333333333337</ele><time>2026-04-11T08:54:24.911Z</time></trkpt><trkpt lat="45.31327639641764" lon="7.8373725907013325"><ele>284.0</ele><time>2026-04-11T08:54:25.911Z</time></trkpt><trkpt lat="45.313366980768954" lon="7.837127164762086"><ele>284.0</ele><time>2026-04-11T08:54:26.91Z</time></trkpt><trkpt lat="45.3134572191813" lon="7.836882675509078"><ele>284.0</ele><time>2026-04-11T08:54:27.91Z</time></trkpt><trkpt lat="45.31354416435295" lon="7.836647110955153"><ele>284.0</ele><time>2026-04-11T08:54:28.91Z</time></trkpt><trkpt lat="45.31362709225468" lon="7.8364226167292586"><ele>284.33333333333337</ele><time>2026-04-11T08:54:29.91Z</time></trkpt><trkpt lat="45.31370649769285" lon="7.8362076582949705"><ele>284.6666666666667</ele><time>2026-04-11T08:54:30.91Z</time></trkpt><trkpt lat="45.31378352859321" lon="7.835999127868308"><ele>285.0</ele><time>2026-04-11T08:54:31.91Z</time></trkpt><trkpt lat="45.31385902415298" lon="7.835794753909458"><ele>286.3333333333333</ele><time>2026-04-11T08:54:32.911Z</time></trkpt><trkpt lat="45.31393544778428" lon="7.835587864791491"><ele>287.66666666666663</ele><time>2026-04-11T08:54:33.91Z</time></trkpt><trkpt lat="45.314014462558376" lon="7.835373961204516"><ele>289.0</ele><time>2026-04-11T08:54:34.91Z</time></trkpt><trkpt lat="45.31409663476232" lon="7.835151509949043"><ele>288.66666666666663</ele><time>2026-04-11T08:54:35.911Z</time></trkpt><trkpt lat="45.31417940541584" lon="7.8349215451629215"><ele>288.3333333333333</ele><time>2026-04-11T08:54:36.91Z</time></trkpt><trkpt lat="45.31426122286062" lon="7.834688865135043"><ele>288.0</ele><time>2026-04-11T08:54:37.91Z</time></trkpt><trkpt lat="45.31434046182265" lon="7.83445784166626"><ele>287.3333333333333</ele><time>2026-04-11T08:54:38.91Z</time></trkpt><trkpt lat="45.31441501796343" lon="7.834228399973625"><ele>286.66666666666663</ele><time>2026-04-11T08:54:39.91Z</time></trkpt><trkpt lat="45.31448556117357" lon="7.833996433084781"><ele>286.0</ele><time>2026-04-11T08:54:40.91Z</time></trkpt><trkpt lat="45.314550333268535" lon="7.833764003117851"><ele>286.0</ele><time>2026-04-11T08:54:41.91Z</time></trkpt><trkpt lat="45.31461148883546" lon="7.833537775338027"><ele>286.0</ele><time>2026-04-11T08:54:42.909Z</time></trkpt><trkpt lat="45.31467026570474" lon="7.833315556550118"><ele>286.0</ele><time>2026-04-11T08:54:43.909Z</time></trkpt><trkpt lat="45.314727669369056" lon="7.83309531193795"><ele>286.0</ele><time>2026-04-11T08:54:44.909Z</time></trkpt><trkpt lat="45.31476797489409" lon="7.8328709681161035"><ele>286.0</ele><time>2026-04-11T08:54:45.909Z</time></trkpt><trkpt lat="45.314824223625806" lon="7.832655808195924"><ele>286.0</ele><time>2026-04-11T08:54:46.909Z</time></trkpt><trkpt lat="45.31487834410827" lon="7.8324480730448816"><ele>286.25</ele><time>2026-04-11T08:54:47.909Z</time></trkpt><trkpt lat="45.31494333266109" lon="7.832261688244356"><ele>286.5</ele><time>2026-04-11T08:54:48.909Z</time></trkpt><trkpt lat="45.31499264194942" lon="7.832073785063999"><ele>286.75</ele><time>2026-04-11T08:54:49.909Z</time></trkpt><trkpt lat="45.31503967450709" lon="7.831894558065657"><ele>287.0</ele><time>2026-04-11T08:54:50.909Z</time></trkpt><trkpt lat="45.315084697588" lon="7.8317229887918405"><ele>287.0</ele><time>2026-04-11T08:54:51.909Z</time></trkpt><trkpt lat="45.31512793332975" lon="7.831558230562907"><ele>287.0</ele><time>2026-04-11T08:54:52.909Z</time></trkpt><trkpt lat="45.315169605426824" lon="7.8313994303698715"><ele>287.0</ele><time>2026-04-11T08:54:53.909Z</time></trkpt><trkpt lat="45.31521188967634" lon="7.831238425278037"><ele>287.0</ele><time>2026-04-11T08:54:54.909Z</time></trkpt><trkpt lat="45.31525644031981" lon="7.831068840386235"><ele>287.0</ele><time>2026-04-11T08:54:55.909Z</time></trkpt><trkpt lat="45.31530237651909" lon="7.8308939813267076"><ele>287.0</ele><time>2026-04-11T08:54:56.909Z</time></trkpt><trkpt lat="45.31534867105315" lon="7.830717758542513"><ele>287.0</ele><time>2026-04-11T08:54:57.909Z</time></trkpt><trkpt lat="45.315395384051" lon="7.830539942619953"><ele>287.0</ele><time>2026-04-11T08:54:58.909Z</time></trkpt><trkpt lat="45.315440736724014" lon="7.830367304488562"><ele>287.0</ele><time>2026-04-11T08:54:59.909Z</time></trkpt><trkpt lat="45.31548360690091" lon="7.830204116644667"><ele>287.0</ele><time>2026-04-11T08:55:00.909Z</time></trkpt><trkpt lat="45.315508870023415" lon="7.830046422353435"><ele>287.0</ele><time>2026-04-11T08:55:01.909Z</time></trkpt><trkpt lat="45.31555722151385" lon="7.829909302641232"><ele>287.0</ele><time>2026-04-11T08:55:02.909Z</time></trkpt><trkpt lat="45.31559402320668" lon="7.829771003554583"><ele>287.0</ele><time>2026-04-11T08:55:03.908Z</time></trkpt><trkpt lat="45.31562814856812" lon="7.829645546781319"><ele>286.8</ele><time>2026-04-11T08:55:04.908Z</time></trkpt><trkpt lat="45.31565715232334" lon="7.82954738444656"><ele>286.6</ele><time>2026-04-11T08:55:05.908Z</time></trkpt><trkpt lat="45.31570924122354" lon="7.829392612246182"><ele>286.40000000000003</ele><time>2026-04-11T08:55:07.908Z</time></trkpt><trkpt lat="45.31575609743643" lon="7.829287048299103"><ele>286.2</ele><time>2026-04-11T08:55:09.908Z</time></trkpt><trkpt lat="45.31579576945286" lon="7.8292128810593615"><ele>286.0</ele><time>2026-04-11T08:55:11.908Z</time></trkpt><trkpt lat="45.315873192049786" lon="7.829093215068483"><ele>285.8</ele><time>2026-04-11T08:55:13.908Z</time></trkpt><trkpt lat="45.31594315378749" lon="7.829036494168676"><ele>285.6</ele><time>2026-04-11T08:55:14.908Z</time></trkpt><trkpt lat="45.31602038710403" lon="7.829001960485095"><ele>285.4</ele><time>2026-04-11T08:55:15.908Z</time></trkpt><trkpt lat="45.31611780150982" lon="7.828981369222193"><ele>285.2</ele><time>2026-04-11T08:55:16.908Z</time></trkpt><trkpt lat="45.316235789004324" lon="7.828985800491736"><ele>285.0</ele><time>2026-04-11T08:55:17.908Z</time></trkpt><trkpt lat="45.316367743750604" lon="7.828998113249318"><ele>285.25</ele><time>2026-04-11T08:55:18.908Z</time></trkpt><trkpt lat="45.31649279553571" lon="7.829005636240905"><ele>285.5</ele><time>2026-04-11T08:55:19.908Z</time></trkpt><trkpt lat="45.3166113442094" lon="7.82903640006126"><ele>285.75</ele><time>2026-04-11T08:55:20.908Z</time></trkpt><trkpt lat="45.31672342569179" lon="7.829047502429877"><ele>286.0</ele><time>2026-04-11T08:55:21.908Z</time></trkpt><trkpt lat="45.31683050671981" lon="7.829059680150148"><ele>286.0</ele><time>2026-04-11T08:55:22.908Z</time></trkpt><trkpt lat="45.316943747939895" lon="7.829070442738155"><ele>286.0</ele><time>2026-04-11T08:55:23.908Z</time></trkpt><trkpt lat="45.317068148204655" lon="7.829083493520179"><ele>286.0</ele><time>2026-04-11T08:55:24.908Z</time></trkpt><trkpt lat="45.31720108941097" lon="7.829103040982925"><ele>286.0</ele><time>2026-04-11T08:55:25.907Z</time></trkpt><trkpt lat="45.317339504467476" lon="7.829135195040201"><ele>286.66666666666663</ele><time>2026-04-11T08:55:26.907Z</time></trkpt><trkpt lat="45.31748967485613" lon="7.829173403163416"><ele>287.3333333333333</ele><time>2026-04-11T08:55:27.907Z</time></trkpt><trkpt lat="45.31764946507409" lon="7.829215903315488"><ele>288.0</ele><time>2026-04-11T08:55:28.907Z</time></trkpt><trkpt lat="45.31781011192274" lon="7.8292909223157325"><ele>288.6666666666667</ele><time>2026-04-11T08:55:29.907Z</time></trkpt><trkpt lat="45.31799135499758" lon="7.82935772453536"><ele>289.33333333333337</ele><time>2026-04-11T08:55:30.907Z</time></trkpt><trkpt lat="45.318183617968465" lon="7.829444724533884"><ele>290.0</ele><time>2026-04-11T08:55:31.907Z</time></trkpt><trkpt lat="45.31838058648563" lon="7.8295296536559995"><ele>290.33333333333337</ele><time>2026-04-11T08:55:32.907Z</time></trkpt><trkpt lat="45.318571859291175" lon="7.829603911812486"><ele>290.6666666666667</ele><time>2026-04-11T08:55:33.907Z</time></trkpt><trkpt lat="45.318775014628464" lon="7.829672401135186"><ele>291.0</ele><time>2026-04-11T08:55:34.907Z</time></trkpt><trkpt lat="45.318984101089164" lon="7.829748718099735"><ele>291.5</ele><time>2026-04-11T08:55:35.907Z</time></trkpt><trkpt lat="45.31920493857458" lon="7.829835561342671"><ele>292.0</ele><time>2026-04-11T08:55:36.907Z</time></trkpt><trkpt lat="45.31943651083197" lon="7.829925842724856"><ele>292.0</ele><time>2026-04-11T08:55:37.907Z</time></trkpt><trkpt lat="45.31965663924539" lon="7.83000219738327"><ele>292.0</ele><time>2026-04-11T08:55:38.907Z</time></trkpt><trkpt lat="45.31987315220204" lon="7.830082910525739"><ele>292.0</ele><time>2026-04-11T08:55:39.907Z</time></trkpt><trkpt lat="45.32009715602216" lon="7.8301668427100575"><ele>292.0</ele><time>2026-04-11T08:55:40.907Z</time></trkpt><trkpt lat="45.320326913278095" lon="7.830251853317225"><ele>292.0</ele><time>2026-04-11T08:55:41.907Z</time></trkpt><trkpt lat="45.32055529065827" lon="7.830336355949801"><ele>292.0</ele><time>2026-04-11T08:55:42.907Z</time></trkpt><trkpt lat="45.32078670918852" lon="7.830422824246088"><ele>292.5</ele><time>2026-04-11T08:55:43.907Z</time></trkpt><trkpt lat="45.32101274638948" lon="7.8305044927926275"><ele>293.0</ele><time>2026-04-11T08:55:44.907Z</time></trkpt><trkpt lat="45.321226845989926" lon="7.830582738707766"><ele>294.5</ele><time>2026-04-11T08:55:45.907Z</time></trkpt><trkpt lat="45.321446505139015" lon="7.8306627535046145"><ele>296.0</ele><time>2026-04-11T08:55:46.906Z</time></trkpt><trkpt lat="45.32167036975009" lon="7.8307441036360075"><ele>296.0</ele><time>2026-04-11T08:55:47.906Z</time></trkpt><trkpt lat="45.321892097976395" lon="7.830825877714341"><ele>296.0</ele><time>2026-04-11T08:55:48.906Z</time></trkpt><trkpt lat="45.32211357360655" lon="7.830910120289296"><ele>297.0</ele><time>2026-04-11T08:55:49.906Z</time></trkpt><trkpt lat="45.32233018239678" lon="7.8309945690573395"><ele>298.0</ele><time>2026-04-11T08:55:50.906Z</time></trkpt><trkpt lat="45.3225481954969" lon="7.831075913470372"><ele>298.0</ele><time>2026-04-11T08:55:51.906Z</time></trkpt><trkpt lat="45.32276675962075" lon="7.831181690828999"><ele>298.0</ele><time>2026-04-11T08:55:52.906Z</time></trkpt><trkpt lat="45.32298990206988" lon="7.831265678225312"><ele>298.5</ele><time>2026-04-11T08:55:53.906Z</time></trkpt><trkpt lat="45.32321496711203" lon="7.8313503892288905"><ele>299.0</ele><time>2026-04-11T08:55:54.906Z</time></trkpt><trkpt lat="45.323442581324414" lon="7.831436059691034"><ele>299.0</ele><time>2026-04-11T08:55:55.906Z</time></trkpt><trkpt lat="45.323669404450634" lon="7.831521432377575"><ele>299.0</ele><time>2026-04-11T08:55:56.906Z</time></trkpt><trkpt lat="45.32390764885348" lon="7.831593776587557"><ele>299.5</ele><time>2026-04-11T08:55:57.906Z</time></trkpt><trkpt lat="45.32413970555659" lon="7.831700337765514"><ele>300.0</ele><time>2026-04-11T08:55:58.906Z</time></trkpt><trkpt lat="45.32437732964661" lon="7.831789850948386"><ele>299.5</ele><time>2026-04-11T08:55:59.906Z</time></trkpt><trkpt lat="45.32461706690622" lon="7.83187589845451"><ele>299.0</ele><time>2026-04-11T08:56:00.906Z</time></trkpt><trkpt lat="45.32485273055501" lon="7.831963978804451"><ele>300.0</ele><time>2026-04-11T08:56:01.906Z</time></trkpt><trkpt lat="45.325086893135776" lon="7.832054905416511"><ele>301.0</ele><time>2026-04-11T08:56:02.906Z</time></trkpt><trkpt lat="45.32532230030762" lon="7.832146537910083"><ele>301.0</ele><time>2026-04-11T08:56:03.906Z</time></trkpt><trkpt lat="45.32555610159167" lon="7.8322372715924"><ele>301.0</ele><time>2026-04-11T08:56:04.906Z</time></trkpt><trkpt lat="45.32579053131214" lon="7.832328591913703"><ele>302.5</ele><time>2026-04-11T08:56:05.906Z</time></trkpt><trkpt lat="45.326020968423755" lon="7.832417069848831"><ele>304.0</ele><time>2026-04-11T08:56:06.906Z</time></trkpt><trkpt lat="45.32624797203792" lon="7.832502909050185"><ele>305.0</ele><time>2026-04-11T08:56:07.905Z</time></trkpt><trkpt lat="45.32647407302045" lon="7.832589947539927"><ele>306.0</ele><time>2026-04-11T08:56:08.905Z</time></trkpt><trkpt lat="45.32669679235405" lon="7.832673050165507"><ele>306.0</ele><time>2026-04-11T08:56:09.905Z</time></trkpt><trkpt lat="45.326913703192325" lon="7.8327536063053"><ele>306.0</ele><time>2026-04-11T08:56:10.905Z</time></trkpt><trkpt lat="45.32712744039631" lon="7.832833745774958"><ele>306.0</ele><time>2026-04-11T08:56:11.905Z</time></trkpt><trkpt lat="45.32733964238067" lon="7.832911972846099"><ele>306.3333333333333</ele><time>2026-04-11T08:56:12.905Z</time></trkpt><trkpt lat="45.32754699063852" lon="7.832989851757207"><ele>306.66666666666663</ele><time>2026-04-11T08:56:13.905Z</time></trkpt><trkpt lat="45.32774991939704" lon="7.833065707874845"><ele>307.0</ele><time>2026-04-11T08:56:14.905Z</time></trkpt><trkpt lat="45.32794387764164" lon="7.833138421941234"><ele>307.3333333333333</ele><time>2026-04-11T08:56:15.905Z</time></trkpt><trkpt lat="45.328126826976295" lon="7.83320812406299"><ele>307.6666666666667</ele><time>2026-04-11T08:56:16.905Z</time></trkpt><trkpt lat="45.32830578459324" lon="7.833276737069374"><ele>308.0</ele><time>2026-04-11T08:56:17.905Z</time></trkpt><trkpt lat="45.32849212113827" lon="7.8333496588237885"><ele>308.0</ele><time>2026-04-11T08:56:18.905Z</time></trkpt><trkpt lat="45.32867833758895" lon="7.833422522311464"><ele>308.0</ele><time>2026-04-11T08:56:19.905Z</time></trkpt><trkpt lat="45.32886155530545" lon="7.833493851264598"><ele>308.0</ele><time>2026-04-11T08:56:20.905Z</time></trkpt><trkpt lat="45.32904015514574" lon="7.833561124723988"><ele>309.0</ele><time>2026-04-11T08:56:21.905Z</time></trkpt><trkpt lat="45.32921108420445" lon="7.833624431437318"><ele>310.0</ele><time>2026-04-11T08:56:22.905Z</time></trkpt><trkpt lat="45.32936939565222" lon="7.833681961553444"><ele>311.0</ele><time>2026-04-11T08:56:23.905Z</time></trkpt><trkpt lat="45.329517051545146" lon="7.833736836828979"><ele>311.0</ele><time>2026-04-11T08:56:24.905Z</time></trkpt><trkpt lat="45.32965614260043" lon="7.833789847110056"><ele>311.0</ele><time>2026-04-11T08:56:25.905Z</time></trkpt><trkpt lat="45.32979449761875" lon="7.833843552833436"><ele>311.0</ele><time>2026-04-11T08:56:26.905Z</time></trkpt><trkpt lat="45.32993639760832" lon="7.833899211339837"><ele>311.0</ele><time>2026-04-11T08:56:27.905Z</time></trkpt><trkpt lat="45.330080101762306" lon="7.833956248678094"><ele>311.33333333333337</ele><time>2026-04-11T08:56:28.905Z</time></trkpt><trkpt lat="45.330225451894584" lon="7.8340084995626125"><ele>311.6666666666667</ele><time>2026-04-11T08:56:29.907Z</time></trkpt><trkpt lat="45.33037327906472" lon="7.83406492987362"><ele>312.0</ele><time>2026-04-11T08:56:30.907Z</time></trkpt><trkpt lat="45.33052371963918" lon="7.834122314289786"><ele>313.0</ele><time>2026-04-11T08:56:31.907Z</time></trkpt><trkpt lat="45.330676627517974" lon="7.834177814878551"><ele>314.0</ele><time>2026-04-11T08:56:32.906Z</time></trkpt><trkpt lat="45.330831699110504" lon="7.834235352012913"><ele>315.0</ele><time>2026-04-11T08:56:33.907Z</time></trkpt><trkpt lat="45.330985831613866" lon="7.834291843221477"><ele>314.6666666666667</ele><time>2026-04-11T08:56:34.907Z</time></trkpt><trkpt lat="45.33114306100482" lon="7.8343489932239425"><ele>314.33333333333337</ele><time>2026-04-11T08:56:35.906Z</time></trkpt><trkpt lat="45.33129832368915" lon="7.834407029025073"><ele>314.0</ele><time>2026-04-11T08:56:36.907Z</time></trkpt><trkpt lat="45.331450872697616" lon="7.834464343674069"><ele>314.6666666666667</ele><time>2026-04-11T08:56:37.907Z</time></trkpt><trkpt lat="45.33159855800601" lon="7.834521344167457"><ele>315.3333333333333</ele><time>2026-04-11T08:56:38.907Z</time></trkpt><trkpt lat="45.33174513748106" lon="7.834579972572064"><ele>316.0</ele><time>2026-04-11T08:56:39.907Z</time></trkpt><trkpt lat="45.3318953806116" lon="7.834637755918861"><ele>316.0</ele><time>2026-04-11T08:56:40.907Z</time></trkpt><trkpt lat="45.33204392387885" lon="7.834694210607258"><ele>316.0</ele><time>2026-04-11T08:56:41.907Z</time></trkpt><trkpt lat="45.33219118662198" lon="7.834748841927958"><ele>316.0</ele><time>2026-04-11T08:56:42.907Z</time></trkpt><trkpt lat="45.3323313462888" lon="7.834801540567957"><ele>316.75</ele><time>2026-04-11T08:56:43.907Z</time></trkpt><trkpt lat="45.332465928477866" lon="7.834850533079202"><ele>317.5</ele><time>2026-04-11T08:56:44.907Z</time></trkpt><trkpt lat="45.33259217940558" lon="7.834897466485094"><ele>318.25</ele><time>2026-04-11T08:56:45.907Z</time></trkpt><trkpt lat="45.33271005424587" lon="7.83494357104667"><ele>319.0</ele><time>2026-04-11T08:56:46.907Z</time></trkpt><trkpt lat="45.332821804846574" lon="7.834988710738913"><ele>319.0</ele><time>2026-04-11T08:56:47.907Z</time></trkpt><trkpt lat="45.332923826790775" lon="7.835028389885184"><ele>319.0</ele><time>2026-04-11T08:56:48.907Z</time></trkpt><trkpt lat="45.33302098363577" lon="7.835064518303931"><ele>319.0</ele><time>2026-04-11T08:56:49.907Z</time></trkpt><trkpt lat="45.33311676766621" lon="7.835097867755617"><ele>319.0</ele><time>2026-04-11T08:56:50.907Z</time></trkpt><trkpt lat="45.33321558370836" lon="7.835136427023825"><ele>319.0</ele><time>2026-04-11T08:56:51.906Z</time></trkpt><trkpt lat="45.33331638090986" lon="7.83517518845069"><ele>319.6</ele><time>2026-04-11T08:56:52.906Z</time></trkpt><trkpt lat="45.33341031670413" lon="7.835211794062815"><ele>320.2</ele><time>2026-04-11T08:56:53.906Z</time></trkpt><trkpt lat="45.33349286449745" lon="7.83524456766363"><ele>320.8</ele><time>2026-04-11T08:56:54.906Z</time></trkpt><trkpt lat="45.333573998254124" lon="7.835283600533182"><ele>321.40000000000003</ele><time>2026-04-11T08:56:55.906Z</time></trkpt><trkpt lat="45.33365998709555" lon="7.835320377050987"><ele>322.0</ele><time>2026-04-11T08:56:56.906Z</time></trkpt><trkpt lat="45.33375478021442" lon="7.835351562047852"><ele>322.0</ele><time>2026-04-11T08:56:57.906Z</time></trkpt><trkpt lat="45.33386175077564" lon="7.8353858546722"><ele>322.0</ele><time>2026-04-11T08:56:58.906Z</time></trkpt><trkpt lat="45.33397509782689" lon="7.8354225321184625"><ele>322.0</ele><time>2026-04-11T08:56:59.906Z</time></trkpt><trkpt lat="45.334089755144134" lon="7.835456532274455"><ele>322.0</ele><time>2026-04-11T08:57:00.906Z</time></trkpt><trkpt lat="45.33420073812665" lon="7.835473002674499"><ele>322.40000000000003</ele><time>2026-04-11T08:57:01.906Z</time></trkpt><trkpt lat="45.3343103632772" lon="7.835478160241234"><ele>322.8</ele><time>2026-04-11T08:57:02.906Z</time></trkpt><trkpt lat="45.33441859663708" lon="7.83548210229889"><ele>323.2</ele><time>2026-04-11T08:57:03.906Z</time></trkpt><trkpt lat="45.33452986942579" lon="7.835482559466259"><ele>323.6</ele><time>2026-04-11T08:57:04.906Z</time></trkpt><trkpt lat="45.33464807066725" lon="7.835481512581124"><ele>324.0</ele><time>2026-04-11T08:57:05.906Z</time></trkpt><trkpt lat="45.3347733794476" lon="7.835482464210874"><ele>324.25</ele><time>2026-04-11T08:57:06.906Z</time></trkpt><trkpt lat="45.33490231435869" lon="7.835483947916853"><ele>324.5</ele><time>2026-04-11T08:57:07.906Z</time></trkpt><trkpt lat="45.33503392388019" lon="7.835488012167518"><ele>324.75</ele><time>2026-04-11T08:57:08.906Z</time></trkpt><trkpt lat="45.33516495890392" lon="7.835487641410326"><ele>325.0</ele><time>2026-04-11T08:57:09.906Z</time></trkpt><trkpt lat="45.33529369017809" lon="7.835482251876569"><ele>325.0</ele><time>2026-04-11T08:57:10.906Z</time></trkpt><trkpt lat="45.33542524411452" lon="7.835477253424478"><ele>325.0</ele><time>2026-04-11T08:57:11.906Z</time></trkpt><trkpt lat="45.335559520037535" lon="7.835471646494525"><ele>325.0</ele><time>2026-04-11T08:57:12.905Z</time></trkpt><trkpt lat="45.33569171715081" lon="7.835458583247333"><ele>325.0</ele><time>2026-04-11T08:57:13.905Z</time></trkpt><trkpt lat="45.33582074744549" lon="7.835443913369957"><ele>326.2</ele><time>2026-04-11T08:57:14.905Z</time></trkpt><trkpt lat="45.335938477440024" lon="7.835427709690318"><ele>327.4</ele><time>2026-04-11T08:57:15.905Z</time></trkpt><trkpt lat="45.3360433405194" lon="7.8354124650034125"><ele>328.6</ele><time>2026-04-11T08:57:16.905Z</time></trkpt><trkpt lat="45.33614459396405" lon="7.835398345212195"><ele>329.8</ele><time>2026-04-11T08:57:17.905Z</time></trkpt><trkpt lat="45.33624181082682" lon="7.835389249474983"><ele>331.0</ele><time>2026-04-11T08:57:18.905Z</time></trkpt><trkpt lat="45.33634665757299" lon="7.835385849550267"><ele>331.4</ele><time>2026-04-11T08:57:19.905Z</time></trkpt><trkpt lat="45.33645035347233" lon="7.835389087582196"><ele>331.8</ele><time>2026-04-11T08:57:20.905Z</time></trkpt><trkpt lat="45.33654519071847" lon="7.83539384366254"><ele>332.2</ele><time>2026-04-11T08:57:21.905Z</time></trkpt><trkpt lat="45.33664399949431" lon="7.835393524605294"><ele>332.59999999999997</ele><time>2026-04-11T08:57:22.905Z</time></trkpt><trkpt lat="45.33674561612259" lon="7.835410071206001"><ele>333.0</ele><time>2026-04-11T08:57:23.905Z</time></trkpt><trkpt lat="45.33683992022214" lon="7.835431116226886"><ele>333.0</ele><time>2026-04-11T08:57:24.905Z</time></trkpt><trkpt lat="45.336914127328214" lon="7.835449557243911"><ele>333.0</ele><time>2026-04-11T08:57:25.905Z</time></trkpt><trkpt lat="45.33702651450694" lon="7.835482933417948"><ele>333.0</ele><time>2026-04-11T08:57:27.905Z</time></trkpt><trkpt lat="45.33717206890424" lon="7.835486220407977"><ele>333.0</ele><time>2026-04-11T08:57:29.905Z</time></trkpt><trkpt lat="45.337277794937854" lon="7.835499345958022"><ele>333.0</ele><time>2026-04-11T08:57:30.905Z</time></trkpt><trkpt lat="45.337392412873726" lon="7.835512890123006"><ele>332.5</ele><time>2026-04-11T08:57:31.905Z</time></trkpt><trkpt lat="45.33751793434329" lon="7.835525239063776"><ele>332.0</ele><time>2026-04-11T08:57:32.905Z</time></trkpt><trkpt lat="45.33766157343752" lon="7.835564660403095"><ele>331.5</ele><time>2026-04-11T08:57:33.904Z</time></trkpt><trkpt lat="45.337822175222676" lon="7.835581779580935"><ele>331.0</ele><time>2026-04-11T08:57:34.904Z</time></trkpt><trkpt lat="45.33799120455867" lon="7.835601322771414"><ele>331.0</ele><time>2026-04-11T08:57:35.904Z</time></trkpt><trkpt lat="45.338179380293745" lon="7.8356232975528135"><ele>331.0</ele><time>2026-04-11T08:57:36.904Z</time></trkpt><trkpt lat="45.338361044144015" lon="7.835644432268589"><ele>331.0</ele><time>2026-04-11T08:57:37.904Z</time></trkpt><trkpt lat="45.338540240426184" lon="7.835664800938846"><ele>331.0</ele><time>2026-04-11T08:57:38.904Z</time></trkpt><trkpt lat="45.338717459079476" lon="7.835684944818071"><ele>331.0</ele><time>2026-04-11T08:57:39.904Z</time></trkpt><trkpt lat="45.338891367160045" lon="7.835704411359795"><ele>331.0</ele><time>2026-04-11T08:57:40.904Z</time></trkpt><trkpt lat="45.339051723544436" lon="7.835722191921733"><ele>331.3333333333333</ele><time>2026-04-11T08:57:41.904Z</time></trkpt><trkpt lat="45.33920307726397" lon="7.835740455960589"><ele>331.6666666666667</ele><time>2026-04-11T08:57:42.904Z</time></trkpt><trkpt lat="45.33935929198462" lon="7.835758494498419"><ele>332.0</ele><time>2026-04-11T08:57:43.904Z</time></trkpt><trkpt lat="45.3395170889244" lon="7.835776715737785"><ele>332.0</ele><time>2026-04-11T08:57:44.904Z</time></trkpt><trkpt lat="45.339684374868064" lon="7.835796032698831"><ele>332.0</ele><time>2026-04-11T08:57:45.904Z</time></trkpt><trkpt lat="45.33986397748675" lon="7.835816771899422"><ele>332.0</ele><time>2026-04-11T08:57:46.904Z</time></trkpt><trkpt lat="45.340052966240506" lon="7.835817859087941"><ele>331.6666666666667</ele><time>2026-04-11T08:57:47.904Z</time></trkpt><trkpt lat="45.34023799395521" lon="7.8358374211231085"><ele>331.3333333333333</ele><time>2026-04-11T08:57:48.904Z</time></trkpt><trkpt lat="45.34041420529348" lon="7.83585875982941"><ele>331.0</ele><time>2026-04-11T08:57:49.904Z</time></trkpt><trkpt lat="45.340588938161005" lon="7.835881401386698"><ele>331.0</ele><time>2026-04-11T08:57:50.904Z</time></trkpt><trkpt lat="45.340764111403416" lon="7.835911881712731"><ele>331.0</ele><time>2026-04-11T08:57:51.904Z</time></trkpt><trkpt lat="45.340934339727696" lon="7.835978084408985"><ele>331.0</ele><time>2026-04-11T08:57:52.904Z</time></trkpt><trkpt lat="45.34111733574091" lon="7.836036237916237"><ele>333.66666666666663</ele><time>2026-04-11T08:57:53.904Z</time></trkpt><trkpt lat="45.34131354348359" lon="7.836109837044317"><ele>336.3333333333333</ele><time>2026-04-11T08:57:54.904Z</time></trkpt><trkpt lat="45.341526835596895" lon="7.836193916504653"><ele>339.0</ele><time>2026-04-11T08:57:55.903Z</time></trkpt><trkpt lat="45.341761451320586" lon="7.836290889730084"><ele>337.5</ele><time>2026-04-11T08:57:56.903Z</time></trkpt><trkpt lat="45.342018873099626" lon="7.8363952050613905"><ele>336.0</ele><time>2026-04-11T08:57:57.903Z</time></trkpt><trkpt lat="45.34229490358382" lon="7.836506298002644"><ele>336.0</ele><time>2026-04-11T08:57:58.903Z</time></trkpt><trkpt lat="45.34261896300075" lon="7.836637170065168"><ele>336.0</ele><time>2026-04-11T08:57:59.903Z</time></trkpt><trkpt lat="45.342968457068764" lon="7.836763459947811"><ele>337.5</ele><time>2026-04-11T08:58:00.903Z</time></trkpt><trkpt lat="45.34332895617171" lon="7.836908674593845"><ele>339.0</ele><time>2026-04-11T08:58:01.903Z</time></trkpt><trkpt lat="45.34368103666506" lon="7.837057197673304"><ele>338.0</ele><time>2026-04-11T08:58:02.903Z</time></trkpt><trkpt lat="45.34400172466037" lon="7.837191814012372"><ele>337.0</ele><time>2026-04-11T08:58:03.903Z</time></trkpt><trkpt lat="45.34429708966565" lon="7.83730561595754"><ele>337.0</ele><time>2026-04-11T08:58:04.903Z</time></trkpt><trkpt lat="45.344577254253934" lon="7.837416344459076"><ele>337.0</ele><time>2026-04-11T08:58:05.903Z</time></trkpt><trkpt lat="45.344839660166" lon="7.837519919319851"><ele>338.5</ele><time>2026-04-11T08:58:06.903Z</time></trkpt><trkpt lat="45.345086050548844" lon="7.837643534569185"><ele>340.0</ele><time>2026-04-11T08:58:07.903Z</time></trkpt><trkpt lat="45.345334554153055" lon="7.83774508465847"><ele>342.0</ele><time>2026-04-11T08:58:08.903Z</time></trkpt><trkpt lat="45.345580773878595" lon="7.837849310614058"><ele>344.0</ele><time>2026-04-11T08:58:09.903Z</time></trkpt><trkpt lat="45.345823082360575" lon="7.837947670227809"><ele>344.0</ele><time>2026-04-11T08:58:10.903Z</time></trkpt><trkpt lat="45.3460615727505" lon="7.838043800554264"><ele>344.0</ele><time>2026-04-11T08:58:11.903Z</time></trkpt><trkpt lat="45.34629387826977" lon="7.8381381352994755"><ele>345.5</ele><time>2026-04-11T08:58:12.903Z</time></trkpt><trkpt lat="45.346519697526205" lon="7.838221309679437"><ele>347.0</ele><time>2026-04-11T08:58:13.903Z</time></trkpt><trkpt lat="45.346739627800055" lon="7.838307080305741"><ele>347.0</ele><time>2026-04-11T08:58:14.903Z</time></trkpt><trkpt lat="45.34695334788304" lon="7.838393844620852"><ele>347.0</ele><time>2026-04-11T08:58:15.903Z</time></trkpt><trkpt lat="45.347156276543835" lon="7.8384760289554745"><ele>347.0</ele><time>2026-04-11T08:58:16.902Z</time></trkpt><trkpt lat="45.34734898177976" lon="7.838551051026633"><ele>352.6666666666667</ele><time>2026-04-11T08:58:17.902Z</time></trkpt><trkpt lat="45.34752284040236" lon="7.838623035891984"><ele>358.3333333333333</ele><time>2026-04-11T08:58:18.902Z</time></trkpt><trkpt lat="45.34769159994375" lon="7.838712286491659"><ele>364.0</ele><time>2026-04-11T08:58:19.902Z</time></trkpt><trkpt lat="45.34785298529491" lon="7.838836937332349"><ele>364.0</ele><time>2026-04-11T08:58:20.902Z</time></trkpt><trkpt lat="45.347991105054355" lon="7.838995791348942"><ele>364.0</ele><time>2026-04-11T08:58:21.902Z</time></trkpt><trkpt lat="45.34812817505052" lon="7.839222285946409"><ele>364.0</ele><time>2026-04-11T08:58:22.902Z</time></trkpt><trkpt lat="45.348272456946404" lon="7.839480958088005"><ele>365.5</ele><time>2026-04-11T08:58:23.902Z</time></trkpt><trkpt lat="45.3484327685962" lon="7.839767460078198"><ele>367.0</ele><time>2026-04-11T08:58:24.902Z</time></trkpt><trkpt lat="45.34857720101113" lon="7.840036138007636"><ele>367.3333333333333</ele><time>2026-04-11T08:58:25.902Z</time></trkpt><trkpt lat="45.34870769973535" lon="7.84028082068481"><ele>367.6666666666667</ele><time>2026-04-11T08:58:26.902Z</time></trkpt><trkpt lat="45.34882308098481" lon="7.840495816002188"><ele>368.0</ele><time>2026-04-11T08:58:27.902Z</time></trkpt><trkpt lat="45.34892974570032" lon="7.840679080026803"><ele>367.0</ele><time>2026-04-11T08:58:28.902Z</time></trkpt><trkpt lat="45.34902460192677" lon="7.840838096609814"><ele>366.0</ele><time>2026-04-11T08:58:29.902Z</time></trkpt><trkpt lat="45.3491270031977" lon="7.8409477514725126"><ele>365.0</ele><time>2026-04-11T08:58:30.902Z</time></trkpt><trkpt lat="45.3492399345699" lon="7.841014544579268"><ele>364.0</ele><time>2026-04-11T08:58:31.902Z</time></trkpt><trkpt lat="45.349359406331146" lon="7.841015638533266"><ele>364.0</ele><time>2026-04-11T08:58:32.902Z</time></trkpt><trkpt lat="45.349524199097374" lon="7.840954562002038"><ele>364.0</ele><time>2026-04-11T08:58:33.902Z</time></trkpt><trkpt lat="45.34972706807979" lon="7.840864988366487"><ele>364.0</ele><time>2026-04-11T08:58:34.902Z</time></trkpt><trkpt lat="45.34992570390367" lon="7.840783180778025"><ele>362.66666666666663</ele><time>2026-04-11T08:58:35.903Z</time></trkpt><trkpt lat="45.35010782677349" lon="7.8407098955153325"><ele>361.3333333333333</ele><time>2026-04-11T08:58:36.903Z</time></trkpt><trkpt lat="45.35027004304465" lon="7.840657702127705"><ele>360.0</ele><time>2026-04-11T08:58:37.902Z</time></trkpt><trkpt lat="45.350421990743605" lon="7.840659173264284"><ele>356.3333333333333</ele><time>2026-04-11T08:58:38.903Z</time></trkpt><trkpt lat="45.35059889620602" lon="7.84067843142429"><ele>352.66666666666663</ele><time>2026-04-11T08:58:39.903Z</time></trkpt><trkpt lat="45.350785348609776" lon="7.840730925362346"><ele>349.0</ele><time>2026-04-11T08:58:40.903Z</time></trkpt><trkpt lat="45.350969010482174" lon="7.8407767035997304"><ele>349.0</ele><time>2026-04-11T08:58:41.903Z</time></trkpt><trkpt lat="45.351135619141694" lon="7.840816701459254"><ele>349.0</ele><time>2026-04-11T08:58:42.903Z</time></trkpt><trkpt lat="45.35130198619896" lon="7.840817911890837"><ele>349.0</ele><time>2026-04-11T08:58:43.903Z</time></trkpt><trkpt lat="45.35146765854715" lon="7.840759946688372"><ele>347.0</ele><time>2026-04-11T08:58:44.903Z</time></trkpt><trkpt lat="45.35164566504139" lon="7.840686100148492"><ele>345.0</ele><time>2026-04-11T08:58:45.903Z</time></trkpt><trkpt lat="45.351825123936834" lon="7.840574482751774"><ele>343.0</ele><time>2026-04-11T08:58:46.903Z</time></trkpt><trkpt lat="45.35201150338946" lon="7.840459270440084"><ele>343.0</ele><time>2026-04-11T08:58:47.903Z</time></trkpt><trkpt lat="45.352197043515744" lon="7.840351620948824"><ele>343.0</ele><time>2026-04-11T08:58:48.902Z</time></trkpt><trkpt lat="45.35237699925971" lon="7.840246475135675"><ele>343.0</ele><time>2026-04-11T08:58:49.902Z</time></trkpt><trkpt lat="45.35257481593278" lon="7.840142927460041"><ele>342.3333333333333</ele><time>2026-04-11T08:58:50.902Z</time></trkpt><trkpt lat="45.35278512777618" lon="7.840033355451293"><ele>341.6666666666667</ele><time>2026-04-11T08:58:51.902Z</time></trkpt><trkpt lat="45.352996049213324" lon="7.839934112383268"><ele>341.0</ele><time>2026-04-11T08:58:52.902Z</time></trkpt><trkpt lat="45.35321136778402" lon="7.839831516671877"><ele>335.0</ele><time>2026-04-11T08:58:53.902Z</time></trkpt><trkpt lat="45.35342682432965" lon="7.839719359847119"><ele>329.0</ele><time>2026-04-11T08:58:54.902Z</time></trkpt><trkpt lat="45.35363874130623" lon="7.839598645784392"><ele>329.0</ele><time>2026-04-11T08:58:55.902Z</time></trkpt><trkpt lat="45.35384663078954" lon="7.839465553397004"><ele>329.0</ele><time>2026-04-11T08:58:56.902Z</time></trkpt><trkpt lat="45.354031211163786" lon="7.83930248269348"><ele>329.0</ele><time>2026-04-11T08:58:57.902Z</time></trkpt><trkpt lat="45.35420825144017" lon="7.839177600912124"><ele>328.33333333333337</ele><time>2026-04-11T08:58:58.902Z</time></trkpt><trkpt lat="45.354367282511426" lon="7.839067492909276"><ele>327.6666666666667</ele><time>2026-04-11T08:58:59.902Z</time></trkpt><trkpt lat="45.35453326027355" lon="7.8389845708294335"><ele>327.0</ele><time>2026-04-11T08:59:00.902Z</time></trkpt><trkpt lat="45.35472065584819" lon="7.838956078591429"><ele>323.3333333333333</ele><time>2026-04-11T08:59:01.902Z</time></trkpt><trkpt lat="45.35492645304547" lon="7.838914654694284"><ele>319.66666666666663</ele><time>2026-04-11T08:59:02.902Z</time></trkpt><trkpt lat="45.35514457454772" lon="7.83888033922769"><ele>316.0</ele><time>2026-04-11T08:59:03.901Z</time></trkpt><trkpt lat="45.355357666679524" lon="7.838846814994079"><ele>314.66666666666663</ele><time>2026-04-11T08:59:04.901Z</time></trkpt><trkpt lat="45.355563520137665" lon="7.838811606475903"><ele>313.3333333333333</ele><time>2026-04-11T08:59:05.901Z</time></trkpt><trkpt lat="45.35576545270705" lon="7.838775974992398"><ele>312.0</ele><time>2026-04-11T08:59:06.901Z</time></trkpt><trkpt lat="45.355970686045076" lon="7.838738180542396"><ele>312.0</ele><time>2026-04-11T08:59:07.901Z</time></trkpt><trkpt lat="45.35616977076772" lon="7.838701826895003"><ele>312.0</ele><time>2026-04-11T08:59:08.901Z</time></trkpt><trkpt lat="45.356358895913075" lon="7.83866729191138"><ele>312.0</ele><time>2026-04-11T08:59:09.901Z</time></trkpt><trkpt lat="45.35653291166019" lon="7.83863699762527"><ele>311.0</ele><time>2026-04-11T08:59:10.901Z</time></trkpt><trkpt lat="45.35669668727182" lon="7.8386231077810065"><ele>310.0</ele><time>2026-04-11T08:59:11.901Z</time></trkpt><trkpt lat="45.356860562660536" lon="7.838643850017591"><ele>309.0</ele><time>2026-04-11T08:59:12.901Z</time></trkpt><trkpt lat="45.35702526224289" lon="7.838700759689097"><ele>309.0</ele><time>2026-04-11T08:59:13.901Z</time></trkpt><trkpt lat="45.35719073312144" lon="7.838795294509807"><ele>309.0</ele><time>2026-04-11T08:59:14.901Z</time></trkpt><trkpt lat="45.35737318458519" lon="7.838878082743679"><ele>309.0</ele><time>2026-04-11T08:59:15.901Z</time></trkpt><trkpt lat="45.35755046628091" lon="7.8390028353553785"><ele>308.6666666666667</ele><time>2026-04-11T08:59:16.901Z</time></trkpt><trkpt lat="45.357732837453035" lon="7.839122699787189"><ele>308.33333333333337</ele><time>2026-04-11T08:59:17.901Z</time></trkpt><trkpt lat="45.35791423848971" lon="7.839226872527544"><ele>308.0</ele><time>2026-04-11T08:59:18.901Z</time></trkpt><trkpt lat="45.358099724497855" lon="7.839337457973771"><ele>304.0</ele><time>2026-04-11T08:59:19.901Z</time></trkpt><trkpt lat="45.35828013206025" lon="7.839449130076936"><ele>300.0</ele><time>2026-04-11T08:59:20.901Z</time></trkpt><trkpt lat="45.35845749071955" lon="7.839561217522951"><ele>296.0</ele><time>2026-04-11T08:59:21.901Z</time></trkpt><trkpt lat="45.35864619741011" lon="7.8396745258768865"><ele>296.0</ele><time>2026-04-11T08:59:22.901Z</time></trkpt><trkpt lat="45.35883279942513" lon="7.839793950391457"><ele>296.0</ele><time>2026-04-11T08:59:23.901Z</time></trkpt><trkpt lat="45.35902835981437" lon="7.83990756405313"><ele>296.0</ele><time>2026-04-11T08:59:24.9Z</time></trkpt><trkpt lat="45.3592267048719" lon="7.8400228448046505"><ele>296.0</ele><time>2026-04-11T08:59:25.9Z</time></trkpt><trkpt lat="45.35942440844906" lon="7.840138129650866"><ele>296.0</ele><time>2026-04-11T08:59:26.9Z</time></trkpt><trkpt lat="45.35962164353621" lon="7.840257279181788"><ele>296.0</ele><time>2026-04-11T08:59:27.9Z</time></trkpt><trkpt lat="45.35981839361461" lon="7.840375907921228"><ele>296.33333333333337</ele><time>2026-04-11T08:59:28.9Z</time></trkpt><trkpt lat="45.36001829671429" lon="7.840500239272212"><ele>296.6666666666667</ele><time>2026-04-11T08:59:29.9Z</time></trkpt><trkpt lat="45.360219686744934" lon="7.840625299148151"><ele>297.0</ele><time>2026-04-11T08:59:30.9Z</time></trkpt><trkpt lat="45.36042370371159" lon="7.840751491479402"><ele>295.5</ele><time>2026-04-11T08:59:31.9Z</time></trkpt><trkpt lat="45.36063301500346" lon="7.840879670123144"><ele>294.0</ele><time>2026-04-11T08:59:32.9Z</time></trkpt><trkpt lat="45.36084282030711" lon="7.841008088534277"><ele>292.6666666666667</ele><time>2026-04-11T08:59:33.9Z</time></trkpt><trkpt lat="45.36105101007152" lon="7.841134061853762"><ele>291.33333333333337</ele><time>2026-04-11T08:59:34.9Z</time></trkpt><trkpt lat="45.3612525136888" lon="7.841253086460389"><ele>290.0</ele><time>2026-04-11T08:59:35.9Z</time></trkpt><trkpt lat="45.36144741777184" lon="7.841371987437685"><ele>290.0</ele><time>2026-04-11T08:59:36.9Z</time></trkpt><trkpt lat="45.36163869388708" lon="7.841489788345167"><ele>290.0</ele><time>2026-04-11T08:59:37.9Z</time></trkpt><trkpt lat="45.3618257048214" lon="7.841608364859271"><ele>290.0</ele><time>2026-04-11T08:59:38.9Z</time></trkpt><trkpt lat="45.36200673593964" lon="7.841720384976905"><ele>290.0</ele><time>2026-04-11T08:59:39.9Z</time></trkpt><trkpt lat="45.362186539084654" lon="7.8418304697400085"><ele>290.0</ele><time>2026-04-11T08:59:40.9Z</time></trkpt><trkpt lat="45.36236061218422" lon="7.841938544006243"><ele>290.0</ele><time>2026-04-11T08:59:41.9Z</time></trkpt><trkpt lat="45.36253030901587" lon="7.842040863282418"><ele>290.33333333333337</ele><time>2026-04-11T08:59:42.9Z</time></trkpt><trkpt lat="45.362682289065134" lon="7.842129144783332"><ele>290.6666666666667</ele><time>2026-04-11T08:59:43.9Z</time></trkpt><trkpt lat="45.3628283267394" lon="7.842220639989181"><ele>291.0</ele><time>2026-04-11T08:59:44.9Z</time></trkpt><trkpt lat="45.362969040502115" lon="7.842304092890186"><ele>290.75</ele><time>2026-04-11T08:59:45.9Z</time></trkpt><trkpt lat="45.36310189429869" lon="7.842392622106845"><ele>290.5</ele><time>2026-04-11T08:59:46.899Z</time></trkpt><trkpt lat="45.36323715727216" lon="7.842476516110411"><ele>290.25</ele><time>2026-04-11T08:59:47.899Z</time></trkpt><trkpt lat="45.363367770075584" lon="7.8425587758260376"><ele>290.0</ele><time>2026-04-11T08:59:48.899Z</time></trkpt><trkpt lat="45.36349657837275" lon="7.842641594668122"><ele>289.75</ele><time>2026-04-11T08:59:49.899Z</time></trkpt><trkpt lat="45.36363174738264" lon="7.842721086820966"><ele>289.5</ele><time>2026-04-11T08:59:50.899Z</time></trkpt><trkpt lat="45.36376094313845" lon="7.842793917584176"><ele>289.25</ele><time>2026-04-11T08:59:51.899Z</time></trkpt><trkpt lat="45.363880843790284" lon="7.842862421505156"><ele>289.0</ele><time>2026-04-11T08:59:52.899Z</time></trkpt><trkpt lat="45.363992318226664" lon="7.842925965647547"><ele>289.0</ele><time>2026-04-11T08:59:53.899Z</time></trkpt><trkpt lat="45.36409783989085" lon="7.842995354761653"><ele>289.0</ele><time>2026-04-11T08:59:54.899Z</time></trkpt><trkpt lat="45.36420444097602" lon="7.84308310823036"><ele>289.0</ele><time>2026-04-11T08:59:55.899Z</time></trkpt><trkpt lat="45.364304678252836" lon="7.843192083893783"><ele>289.0</ele><time>2026-04-11T08:59:56.899Z</time></trkpt><trkpt lat="45.364392772751906" lon="7.843315702566192"><ele>289.0</ele><time>2026-04-11T08:59:57.899Z</time></trkpt><trkpt lat="45.36447498992869" lon="7.843438413874311"><ele>289.0</ele><time>2026-04-11T08:59:58.899Z</time></trkpt><trkpt lat="45.364554411486736" lon="7.843558366966748"><ele>289.0</ele><time>2026-04-11T08:59:59.899Z</time></trkpt><trkpt lat="45.36463051273689" lon="7.843675496823676"><ele>289.0</ele><time>2026-04-11T09:00:00.899Z</time></trkpt><trkpt lat="45.36470305878056" lon="7.843786967395742"><ele>288.25</ele><time>2026-04-11T09:00:01.899Z</time></trkpt><trkpt lat="45.36477202508228" lon="7.843897578202957"><ele>287.5</ele><time>2026-04-11T09:00:02.899Z</time></trkpt><trkpt lat="45.36484490311807" lon="7.84401999953311"><ele>286.75</ele><time>2026-04-11T09:00:03.899Z</time></trkpt><trkpt lat="45.36492776105872" lon="7.844154544498396"><ele>286.0</ele><time>2026-04-11T09:00:04.899Z</time></trkpt><trkpt lat="45.36501400670272" lon="7.844293038282731"><ele>284.75</ele><time>2026-04-11T09:00:05.899Z</time></trkpt><trkpt lat="45.36510339037238" lon="7.844431587246852"><ele>283.5</ele><time>2026-04-11T09:00:06.899Z</time></trkpt><trkpt lat="45.36519375307247" lon="7.844567695834122"><ele>282.25</ele><time>2026-04-11T09:00:07.898Z</time></trkpt><trkpt lat="45.3652814695809" lon="7.844695833842805"><ele>281.0</ele><time>2026-04-11T09:00:08.898Z</time></trkpt><trkpt lat="45.365368572493416" lon="7.844826031925738"><ele>281.0</ele><time>2026-04-11T09:00:09.898Z</time></trkpt><trkpt lat="45.36545733622306" lon="7.844955332425617"><ele>281.0</ele><time>2026-04-11T09:00:10.898Z</time></trkpt><trkpt lat="45.365548084419096" lon="7.845081441179367"><ele>281.0</ele><time>2026-04-11T09:00:11.898Z</time></trkpt><trkpt lat="45.365621367183564" lon="7.845218892664509"><ele>281.0</ele><time>2026-04-11T09:00:12.898Z</time></trkpt><trkpt lat="45.365714962144516" lon="7.845337239734271"><ele>279.25</ele><time>2026-04-11T09:00:13.898Z</time></trkpt><trkpt lat="45.36581045192374" lon="7.845455652463891"><ele>277.5</ele><time>2026-04-11T09:00:14.898Z</time></trkpt><trkpt lat="45.365908556736734" lon="7.845574521518177"><ele>275.75</ele><time>2026-04-11T09:00:15.898Z</time></trkpt><trkpt lat="45.366010084007804" lon="7.845692784908841"><ele>274.0</ele><time>2026-04-11T09:00:16.898Z</time></trkpt><trkpt lat="45.36611480093191" lon="7.845810952925031"><ele>274.0</ele><time>2026-04-11T09:00:17.898Z</time></trkpt><trkpt lat="45.366226472175356" lon="7.845923896457632"><ele>274.0</ele><time>2026-04-11T09:00:18.898Z</time></trkpt><trkpt lat="45.36634531077526" lon="7.846035607894453"><ele>274.0</ele><time>2026-04-11T09:00:19.898Z</time></trkpt><trkpt lat="45.36647322719984" lon="7.846138852490502"><ele>274.0</ele><time>2026-04-11T09:00:20.898Z</time></trkpt><trkpt lat="45.36659405258142" lon="7.846242480313746"><ele>271.5</ele><time>2026-04-11T09:00:21.898Z</time></trkpt><trkpt lat="45.3666935145387" lon="7.846368875987234"><ele>269.0</ele><time>2026-04-11T09:00:22.898Z</time></trkpt><trkpt lat="45.36681213503333" lon="7.846472164405381"><ele>266.5</ele><time>2026-04-11T09:00:23.898Z</time></trkpt><trkpt lat="45.366937625744605" lon="7.846579950801049"><ele>264.0</ele><time>2026-04-11T09:00:24.898Z</time></trkpt><trkpt lat="45.36707080952391" lon="7.8466900778896695"><ele>262.6666666666667</ele><time>2026-04-11T09:00:25.898Z</time></trkpt><trkpt lat="45.3672053922284" lon="7.846800522019763"><ele>261.33333333333337</ele><time>2026-04-11T09:00:26.898Z</time></trkpt><trkpt lat="45.367336914278376" lon="7.846910779091472"><ele>260.0</ele><time>2026-04-11T09:00:27.898Z</time></trkpt><trkpt lat="45.367463959594474" lon="7.847017736141056"><ele>260.0</ele><time>2026-04-11T09:00:28.897Z</time></trkpt><trkpt lat="45.36758887054581" lon="7.84712160222272"><ele>260.0</ele><time>2026-04-11T09:00:29.897Z</time></trkpt><trkpt lat="45.367715058209974" lon="7.847225645114112"><ele>260.0</ele><time>2026-04-11T09:00:30.897Z</time></trkpt><trkpt lat="45.367838515497795" lon="7.8473291014914475"><ele>260.0</ele><time>2026-04-11T09:00:31.897Z</time></trkpt><trkpt lat="45.36795812531834" lon="7.84742889377737"><ele>260.0</ele><time>2026-04-11T09:00:32.897Z</time></trkpt><trkpt lat="45.36807473459749" lon="7.847526577105586"><ele>260.0</ele><time>2026-04-11T09:00:33.897Z</time></trkpt><trkpt lat="45.368186171362275" lon="7.847619471371273"><ele>260.0</ele><time>2026-04-11T09:00:34.897Z</time></trkpt><trkpt lat="45.36829582885764" lon="7.847709793573438"><ele>260.0</ele><time>2026-04-11T09:00:35.897Z</time></trkpt><trkpt lat="45.36839862260997" lon="7.847796311448631"><ele>259.75</ele><time>2026-04-11T09:00:36.897Z</time></trkpt><trkpt lat="45.36849813344758" lon="7.847881207680678"><ele>259.5</ele><time>2026-04-11T09:00:37.897Z</time></trkpt><trkpt lat="45.36859298898553" lon="7.847963512525806"><ele>259.25</ele><time>2026-04-11T09:00:38.897Z</time></trkpt><trkpt lat="45.36868793032571" lon="7.848044018148749"><ele>259.0</ele><time>2026-04-11T09:00:39.897Z</time></trkpt><trkpt lat="45.36879032188129" lon="7.848130080704111"><ele>259.3333333333333</ele><time>2026-04-11T09:00:40.897Z</time></trkpt><trkpt lat="45.368908466658354" lon="7.848224972093959"><ele>259.6666666666667</ele><time>2026-04-11T09:00:41.899Z</time></trkpt><trkpt lat="45.369034465488554" lon="7.848353737159107"><ele>260.0</ele><time>2026-04-11T09:00:42.899Z</time></trkpt><trkpt lat="45.36918790362193" lon="7.848479875325502"><ele>258.33333333333337</ele><time>2026-04-11T09:00:43.899Z</time></trkpt><trkpt lat="45.36933593474585" lon="7.848618356393477"><ele>256.6666666666667</ele><time>2026-04-11T09:00:44.899Z</time></trkpt><trkpt lat="45.36947716940964" lon="7.848753208984349"><ele>255.0</ele><time>2026-04-11T09:00:45.899Z</time></trkpt><trkpt lat="45.369614283439184" lon="7.848877583512613"><ele>253.0</ele><time>2026-04-11T09:00:46.899Z</time></trkpt><trkpt lat="45.369745199030355" lon="7.848996403101022"><ele>251.0</ele><time>2026-04-11T09:00:47.899Z</time></trkpt><trkpt lat="45.36987329260163" lon="7.849104918318568"><ele>249.0</ele><time>2026-04-11T09:00:48.899Z</time></trkpt><trkpt lat="45.37000683395057" lon="7.849215982774476"><ele>247.66666666666669</ele><time>2026-04-11T09:00:49.899Z</time></trkpt><trkpt lat="45.370149696915824" lon="7.849338234424206"><ele>246.33333333333334</ele><time>2026-04-11T09:00:50.899Z</time></trkpt><trkpt lat="45.37030202734888" lon="7.849466400408011"><ele>245.0</ele><time>2026-04-11T09:00:51.899Z</time></trkpt><trkpt lat="45.370462411215925" lon="7.849598364416013"><ele>245.33333333333334</ele><time>2026-04-11T09:00:52.899Z</time></trkpt><trkpt lat="45.370628729071456" lon="7.849737001001594"><ele>245.66666666666669</ele><time>2026-04-11T09:00:53.899Z</time></trkpt><trkpt lat="45.37079569422924" lon="7.849876887627306"><ele>246.0</ele><time>2026-04-11T09:00:54.898Z</time></trkpt><trkpt lat="45.37096172247273" lon="7.850016106441975"><ele>245.66666666666669</ele><time>2026-04-11T09:00:55.898Z</time></trkpt><trkpt lat="45.37112463796253" lon="7.850157903206351"><ele>245.33333333333334</ele><time>2026-04-11T09:00:56.898Z</time></trkpt><trkpt lat="45.37128357942532" lon="7.850291325894809"><ele>245.0</ele><time>2026-04-11T09:00:57.898Z</time></trkpt><trkpt lat="45.37144195395128" lon="7.850426024950935"><ele>245.0</ele><time>2026-04-11T09:00:58.898Z</time></trkpt><trkpt lat="45.37160193691649" lon="7.850563020611925"><ele>245.0</ele><time>2026-04-11T09:00:59.898Z</time></trkpt><trkpt lat="45.37176243589418" lon="7.850700765731779"><ele>245.0</ele><time>2026-04-11T09:01:00.898Z</time></trkpt><trkpt lat="45.371925164498705" lon="7.850839227363178"><ele>245.0</ele><time>2026-04-11T09:01:01.898Z</time></trkpt><trkpt lat="45.372090193432484" lon="7.850978410391822"><ele>245.0</ele><time>2026-04-11T09:01:02.898Z</time></trkpt><trkpt lat="45.37225525566342" lon="7.851120108847774"><ele>245.0</ele><time>2026-04-11T09:01:03.898Z</time></trkpt><trkpt lat="45.372417735043506" lon="7.851260697591597"><ele>245.33333333333334</ele><time>2026-04-11T09:01:04.898Z</time></trkpt><trkpt lat="45.37257900782408" lon="7.851399203280399"><ele>245.66666666666669</ele><time>2026-04-11T09:01:05.898Z</time></trkpt><trkpt lat="45.372741872997736" lon="7.85153729689067"><ele>246.0</ele><time>2026-04-11T09:01:06.898Z</time></trkpt><trkpt lat="45.37290548517854" lon="7.851673781099752"><ele>245.66666666666669</ele><time>2026-04-11T09:01:07.898Z</time></trkpt><trkpt lat="45.373065146719256" lon="7.8518085117889385"><ele>245.33333333333334</ele><time>2026-04-11T09:01:08.898Z</time></trkpt><trkpt lat="45.37322365348615" lon="7.85194242369953"><ele>245.0</ele><time>2026-04-11T09:01:09.898Z</time></trkpt><trkpt lat="45.37337862291376" lon="7.852074653571807"><ele>245.0</ele><time>2026-04-11T09:01:10.898Z</time></trkpt><trkpt lat="45.37353120449252" lon="7.852205066491314"><ele>245.0</ele><time>2026-04-11T09:01:11.898Z</time></trkpt><trkpt lat="45.37368309403269" lon="7.852333501340475"><ele>245.0</ele><time>2026-04-11T09:01:12.898Z</time></trkpt><trkpt lat="45.37383272178435" lon="7.852460326412443"><ele>245.33333333333334</ele><time>2026-04-11T09:01:13.898Z</time></trkpt><trkpt lat="45.37397717551164" lon="7.852581603136778"><ele>245.66666666666669</ele><time>2026-04-11T09:01:14.897Z</time></trkpt><trkpt lat="45.374110083419566" lon="7.852696502267315"><ele>246.0</ele><time>2026-04-11T09:01:15.897Z</time></trkpt><trkpt lat="45.374235513359466" lon="7.852800240300966"><ele>246.5</ele><time>2026-04-11T09:01:16.897Z</time></trkpt><trkpt lat="45.374349205700405" lon="7.85290075756883"><ele>247.0</ele><time>2026-04-11T09:01:17.897Z</time></trkpt><trkpt lat="45.37445716641656" lon="7.852995781774569"><ele>247.5</ele><time>2026-04-11T09:01:18.897Z</time></trkpt><trkpt lat="45.3745519484274" lon="7.853087468735892"><ele>248.0</ele><time>2026-04-11T09:01:19.897Z</time></trkpt><trkpt lat="45.37463565098743" lon="7.853182000297325"><ele>247.75</ele><time>2026-04-11T09:01:20.897Z</time></trkpt><trkpt lat="45.37471291278595" lon="7.853280390001815"><ele>247.5</ele><time>2026-04-11T09:01:21.897Z</time></trkpt><trkpt lat="45.37479598640204" lon="7.853362077645246"><ele>247.25</ele><time>2026-04-11T09:01:22.897Z</time></trkpt><trkpt lat="45.374901762456204" lon="7.853424020180795"><ele>247.0</ele><time>2026-04-11T09:01:23.897Z</time></trkpt><trkpt lat="45.375023805634285" lon="7.853492426265124"><ele>246.66666666666666</ele><time>2026-04-11T09:01:24.897Z</time></trkpt><trkpt lat="45.375152416580384" lon="7.85359397093716"><ele>246.33333333333331</ele><time>2026-04-11T09:01:25.897Z</time></trkpt><trkpt lat="45.375291808841" lon="7.853712885026054"><ele>246.0</ele><time>2026-04-11T09:01:26.897Z</time></trkpt><trkpt lat="45.375437318294445" lon="7.853834669772996"><ele>246.0</ele><time>2026-04-11T09:01:27.897Z</time></trkpt><trkpt lat="45.37559008370974" lon="7.853961261595084"><ele>246.0</ele><time>2026-04-11T09:01:28.897Z</time></trkpt><trkpt lat="45.375750652040026" lon="7.854092689675566"><ele>246.0</ele><time>2026-04-11T09:01:29.897Z</time></trkpt><trkpt lat="45.37591562549481" lon="7.8542332945114595"><ele>245.66666666666669</ele><time>2026-04-11T09:01:30.897Z</time></trkpt><trkpt lat="45.3760718921278" lon="7.854370324790549"><ele>245.33333333333334</ele><time>2026-04-11T09:01:31.897Z</time></trkpt><trkpt lat="45.37622581965127" lon="7.854501867940516"><ele>245.0</ele><time>2026-04-11T09:01:32.897Z</time></trkpt><trkpt lat="45.376388656256154" lon="7.854639802091885"><ele>245.0</ele><time>2026-04-11T09:01:33.897Z</time></trkpt><trkpt lat="45.37655666378153" lon="7.854783970625163"><ele>245.0</ele><time>2026-04-11T09:01:34.897Z</time></trkpt><trkpt lat="45.37672965306442" lon="7.854933081989361"><ele>245.0</ele><time>2026-04-11T09:01:35.896Z</time></trkpt><trkpt lat="45.37690390997865" lon="7.85508145534337"><ele>244.66666666666669</ele><time>2026-04-11T09:01:36.896Z</time></trkpt><trkpt lat="45.37707593400133" lon="7.855225959642291"><ele>244.33333333333331</ele><time>2026-04-11T09:01:37.896Z</time></trkpt><trkpt lat="45.37724150192773" lon="7.855367212254855"><ele>244.0</ele><time>2026-04-11T09:01:38.896Z</time></trkpt><trkpt lat="45.3774055427809" lon="7.855506308426188"><ele>245.33333333333331</ele><time>2026-04-11T09:01:39.896Z</time></trkpt><trkpt lat="45.37757024370247" lon="7.85564749585922"><ele>246.66666666666669</ele><time>2026-04-11T09:01:40.896Z</time></trkpt><trkpt lat="45.37773040487371" lon="7.855788099566852"><ele>248.0</ele><time>2026-04-11T09:01:41.896Z</time></trkpt><trkpt lat="45.3778928042432" lon="7.855928560615624"><ele>248.33333333333334</ele><time>2026-04-11T09:01:42.896Z</time></trkpt><trkpt lat="45.3780569983932" lon="7.8560653755469865"><ele>248.66666666666669</ele><time>2026-04-11T09:01:43.896Z</time></trkpt><trkpt lat="45.378220655787175" lon="7.85620081904222"><ele>249.0</ele><time>2026-04-11T09:01:44.896Z</time></trkpt><trkpt lat="45.37838143169758" lon="7.856335807438523"><ele>249.0</ele><time>2026-04-11T09:01:45.896Z</time></trkpt><trkpt lat="45.37854329728893" lon="7.856472840561159"><ele>249.0</ele><time>2026-04-11T09:01:46.896Z</time></trkpt><trkpt lat="45.37870443664659" lon="7.856612689737214"><ele>249.0</ele><time>2026-04-11T09:01:47.896Z</time></trkpt><trkpt lat="45.37886706794121" lon="7.856754078805044"><ele>249.66666666666669</ele><time>2026-04-11T09:01:48.896Z</time></trkpt><trkpt lat="45.379029723041924" lon="7.856893872417064"><ele>250.33333333333334</ele><time>2026-04-11T09:01:49.896Z</time></trkpt><trkpt lat="45.379190349989564" lon="7.857030562045078"><ele>251.0</ele><time>2026-04-11T09:01:50.896Z</time></trkpt><trkpt lat="45.37934782464382" lon="7.8571652898521025"><ele>251.0</ele><time>2026-04-11T09:01:51.896Z</time></trkpt><trkpt lat="45.37950080850788" lon="7.857295968828517"><ele>251.0</ele><time>2026-04-11T09:01:52.896Z</time></trkpt><trkpt lat="45.37965206298397" lon="7.8574279264299225"><ele>251.0</ele><time>2026-04-11T09:01:53.896Z</time></trkpt><trkpt lat="45.37980078822411" lon="7.8575552644491085"><ele>250.66666666666669</ele><time>2026-04-11T09:01:54.896Z</time></trkpt><trkpt lat="45.37994966057699" lon="7.857681305290298"><ele>250.33333333333331</ele><time>2026-04-11T09:01:55.896Z</time></trkpt><trkpt lat="45.38009630307418" lon="7.8578072146926905"><ele>250.0</ele><time>2026-04-11T09:01:56.896Z</time></trkpt><trkpt lat="45.38024032888542" lon="7.857933058951187"><ele>250.0</ele><time>2026-04-11T09:01:57.895Z</time></trkpt><trkpt lat="45.3803854514427" lon="7.8580569070709405"><ele>250.0</ele><time>2026-04-11T09:01:58.895Z</time></trkpt><trkpt lat="45.38052880784847" lon="7.858182666760936"><ele>250.0</ele><time>2026-04-11T09:01:59.895Z</time></trkpt><trkpt lat="45.380676371234195" lon="7.858306321492556"><ele>250.0</ele><time>2026-04-11T09:02:00.895Z</time></trkpt><trkpt lat="45.38082423598474" lon="7.858433068690143"><ele>250.0</ele><time>2026-04-11T09:02:01.895Z</time></trkpt><trkpt lat="45.3809756541275" lon="7.858564506907645"><ele>250.0</ele><time>2026-04-11T09:02:02.895Z</time></trkpt><trkpt lat="45.381133275012886" lon="7.85870064559807"><ele>249.66666666666666</ele><time>2026-04-11T09:02:03.895Z</time></trkpt><trkpt lat="45.38129506966843" lon="7.8588413576089495"><ele>249.33333333333331</ele><time>2026-04-11T09:02:04.895Z</time></trkpt><trkpt lat="45.38146338455802" lon="7.85898924769727"><ele>249.0</ele><time>2026-04-11T09:02:05.895Z</time></trkpt><trkpt lat="45.38163729982152" lon="7.859138489751537"><ele>248.66666666666669</ele><time>2026-04-11T09:02:06.895Z</time></trkpt><trkpt lat="45.381814110925205" lon="7.859289446193491"><ele>248.33333333333334</ele><time>2026-04-11T09:02:07.895Z</time></trkpt><trkpt lat="45.38199272613672" lon="7.859444521773847"><ele>248.0</ele><time>2026-04-11T09:02:08.895Z</time></trkpt><trkpt lat="45.382170460977164" lon="7.859597520193495"><ele>248.66666666666669</ele><time>2026-04-11T09:02:09.895Z</time></trkpt><trkpt lat="45.38234910177587" lon="7.859750355398139"><ele>249.33333333333331</ele><time>2026-04-11T09:02:10.895Z</time></trkpt><trkpt lat="45.38252805840053" lon="7.859904707708113"><ele>250.0</ele><time>2026-04-11T09:02:11.895Z</time></trkpt><trkpt lat="45.382708179827326" lon="7.860059264567933"><ele>250.0</ele><time>2026-04-11T09:02:12.895Z</time></trkpt><trkpt lat="45.38289047651146" lon="7.860213973749724"><ele>250.0</ele><time>2026-04-11T09:02:13.895Z</time></trkpt><trkpt lat="45.38307171163926" lon="7.86036834230176"><ele>250.0</ele><time>2026-04-11T09:02:14.895Z</time></trkpt><trkpt lat="45.383254485838414" lon="7.860521642085642"><ele>250.0</ele><time>2026-04-11T09:02:15.895Z</time></trkpt><trkpt lat="45.38343023253945" lon="7.860671980432886"><ele>250.0</ele><time>2026-04-11T09:02:16.895Z</time></trkpt><trkpt lat="45.38359716918136" lon="7.860817161036285"><ele>250.0</ele><time>2026-04-11T09:02:17.895Z</time></trkpt><trkpt lat="45.3837665648126" lon="7.860962019910966"><ele>249.66666666666666</ele><time>2026-04-11T09:02:18.894Z</time></trkpt><trkpt lat="45.383939755004164" lon="7.861103767739582"><ele>249.33333333333331</ele><time>2026-04-11T09:02:19.894Z</time></trkpt><trkpt lat="45.38411155638808" lon="7.861246583847051"><ele>249.0</ele><time>2026-04-11T09:02:20.894Z</time></trkpt><trkpt lat="45.38428544436376" lon="7.86138976360002"><ele>249.0</ele><time>2026-04-11T09:02:21.894Z</time></trkpt><trkpt lat="45.384454687601604" lon="7.861533078764153"><ele>249.0</ele><time>2026-04-11T09:02:22.894Z</time></trkpt><trkpt lat="45.38462098051005" lon="7.861676135244449"><ele>249.0</ele><time>2026-04-11T09:02:23.894Z</time></trkpt><trkpt lat="45.38478214782682" lon="7.861812885326924"><ele>248.66666666666669</ele><time>2026-04-11T09:02:24.894Z</time></trkpt><trkpt lat="45.38493865027491" lon="7.8619448496614375"><ele>248.33333333333334</ele><time>2026-04-11T09:02:25.894Z</time></trkpt><trkpt lat="45.38508718326815" lon="7.862074674813638"><ele>248.0</ele><time>2026-04-11T09:02:26.894Z</time></trkpt><trkpt lat="45.38522833819325" lon="7.862195513897717"><ele>248.0</ele><time>2026-04-11T09:02:27.894Z</time></trkpt><trkpt lat="45.38536117911655" lon="7.862309251548597"><ele>248.0</ele><time>2026-04-11T09:02:28.894Z</time></trkpt><trkpt lat="45.38547435139906" lon="7.862413277268053"><ele>248.0</ele><time>2026-04-11T09:02:29.894Z</time></trkpt><trkpt lat="45.38556342508794" lon="7.862495145791528"><ele>248.0</ele><time>2026-04-11T09:02:30.894Z</time></trkpt><trkpt lat="45.38563266040209" lon="7.862563196167162"><ele>248.0</ele><time>2026-04-11T09:02:31.894Z</time></trkpt><trkpt lat="45.38568346552687" lon="7.8626242053931445"><ele>248.00000000000003</ele><time>2026-04-11T09:02:32.894Z</time></trkpt><trkpt lat="45.38573614207916" lon="7.862722479679127"><ele>248.0</ele><time>2026-04-11T09:02:34.894Z</time></trkpt><trkpt lat="45.38576360488247" lon="7.862803924535716"><ele>248.0</ele><time>2026-04-11T09:02:35.894Z</time></trkpt><trkpt lat="45.385802367017746" lon="7.862898188465326"><ele>248.00000000000003</ele><time>2026-04-11T09:02:36.894Z</time></trkpt><trkpt lat="45.385861114397756" lon="7.862973802929397"><ele>248.0</ele><time>2026-04-11T09:02:37.894Z</time></trkpt><trkpt lat="45.385929873425766" lon="7.863014310251525"><ele>248.0</ele><time>2026-04-11T09:02:38.894Z</time></trkpt><trkpt lat="45.38601438074671" lon="7.863028373106855"><ele>248.0</ele><time>2026-04-11T09:02:39.893Z</time></trkpt><trkpt lat="45.38611108737738" lon="7.863046035128458"><ele>248.0</ele><time>2026-04-11T09:02:40.893Z</time></trkpt><trkpt lat="45.38621156354861" lon="7.863085929577377"><ele>248.0</ele><time>2026-04-11T09:02:41.893Z</time></trkpt><trkpt lat="45.386311020068355" lon="7.863152813059605"><ele>248.0</ele><time>2026-04-11T09:02:42.893Z</time></trkpt><trkpt lat="45.38640330381372" lon="7.863233570250893"><ele>248.0</ele><time>2026-04-11T09:02:43.893Z</time></trkpt><trkpt lat="45.386492505295294" lon="7.863318837126641"><ele>247.75</ele><time>2026-04-11T09:02:44.893Z</time></trkpt><trkpt lat="45.3865932817245" lon="7.86339921257451"><ele>247.5</ele><time>2026-04-11T09:02:45.893Z</time></trkpt><trkpt lat="45.38671430391553" lon="7.863484603651733"><ele>247.25</ele><time>2026-04-11T09:02:46.895Z</time></trkpt><trkpt lat="45.3868487800134" lon="7.8635873307233854"><ele>247.0</ele><time>2026-04-11T09:02:47.895Z</time></trkpt><trkpt lat="45.386995812718865" lon="7.863712106591556"><ele>247.0</ele><time>2026-04-11T09:02:48.895Z</time></trkpt><trkpt lat="45.387152003362594" lon="7.86384790671622"><ele>247.0</ele><time>2026-04-11T09:02:49.895Z</time></trkpt><trkpt lat="45.3873101799874" lon="7.863981138831738"><ele>247.0</ele><time>2026-04-11T09:02:50.895Z</time></trkpt><trkpt lat="45.387457297828156" lon="7.864100520292335"><ele>247.33333333333331</ele><time>2026-04-11T09:02:51.895Z</time></trkpt><trkpt lat="45.387604202532266" lon="7.864221782364371"><ele>247.66666666666669</ele><time>2026-04-11T09:02:52.894Z</time></trkpt><trkpt lat="45.387752706309165" lon="7.864346520908263"><ele>248.0</ele><time>2026-04-11T09:02:53.895Z</time></trkpt><trkpt lat="45.38789779855017" lon="7.864467794518675"><ele>248.75</ele><time>2026-04-11T09:02:54.895Z</time></trkpt><trkpt lat="45.38803485838644" lon="7.864579408519813"><ele>249.5</ele><time>2026-04-11T09:02:55.895Z</time></trkpt><trkpt lat="45.388155339788156" lon="7.864680175741372"><ele>250.25</ele><time>2026-04-11T09:02:56.895Z</time></trkpt><trkpt lat="45.38825239707036" lon="7.864770123425762"><ele>251.0</ele><time>2026-04-11T09:02:57.895Z</time></trkpt><trkpt lat="45.38833325064419" lon="7.864846313099327"><ele>251.00000000000003</ele><time>2026-04-11T09:02:58.895Z</time></trkpt><trkpt lat="45.3883945987036" lon="7.864928000611775"><ele>251.0</ele><time>2026-04-11T09:02:59.895Z</time></trkpt><trkpt lat="45.38844800075241" lon="7.865001983423004"><ele>251.0</ele><time>2026-04-11T09:03:00.895Z</time></trkpt><trkpt lat="45.38851199538088" lon="7.865052608440426"><ele>251.0</ele><time>2026-04-11T09:03:01.895Z</time></trkpt><trkpt lat="45.38860140006801" lon="7.865072878886751"><ele>251.00000000000003</ele><time>2026-04-11T09:03:02.895Z</time></trkpt><trkpt lat="45.38872130424566" lon="7.8650771463911004"><ele>251.0</ele><time>2026-04-11T09:03:03.895Z</time></trkpt><trkpt lat="45.38885570414148" lon="7.865097639243641"><ele>253.0</ele><time>2026-04-11T09:03:04.895Z</time></trkpt><trkpt lat="45.38899576742433" lon="7.865099734352057"><ele>255.0</ele><time>2026-04-11T09:03:05.895Z</time></trkpt><trkpt lat="45.38912886628872" lon="7.865101164244846"><ele>257.0</ele><time>2026-04-11T09:03:06.895Z</time></trkpt><trkpt lat="45.3892470582856" lon="7.865102433101039"><ele>259.0</ele><time>2026-04-11T09:03:07.895Z</time></trkpt><trkpt lat="45.38935190217975" lon="7.865105865145872"><ele>259.0</ele><time>2026-04-11T09:03:08.895Z</time></trkpt><trkpt lat="45.38944816562914" lon="7.865090539583663"><ele>259.0</ele><time>2026-04-11T09:03:09.895Z</time></trkpt><trkpt lat="45.38954055283305" lon="7.865128460570487"><ele>259.0</ele><time>2026-04-11T09:03:10.895Z</time></trkpt><trkpt lat="45.389637865491096" lon="7.865198039609074"><ele>259.0</ele><time>2026-04-11T09:03:11.895Z</time></trkpt><trkpt lat="45.38973667356361" lon="7.865281314508768"><ele>259.0</ele><time>2026-04-11T09:03:12.894Z</time></trkpt><trkpt lat="45.38983621904277" lon="7.865360491589027"><ele>260.0</ele><time>2026-04-11T09:03:13.894Z</time></trkpt><trkpt lat="45.38992769889898" lon="7.865434765426524"><ele>261.0</ele><time>2026-04-11T09:03:14.894Z</time></trkpt><trkpt lat="45.390017993880406" lon="7.86550114450937"><ele>262.0</ele><time>2026-04-11T09:03:15.894Z</time></trkpt><trkpt lat="45.39010760042378" lon="7.8655555032609215"><ele>263.0</ele><time>2026-04-11T09:03:16.894Z</time></trkpt><trkpt lat="45.390196517356365" lon="7.86558785833653"><ele>264.0</ele><time>2026-04-11T09:03:17.894Z</time></trkpt><trkpt lat="45.39028341034152" lon="7.865599777898505"><ele>264.0</ele><time>2026-04-11T09:03:18.894Z</time></trkpt><trkpt lat="45.39036601338949" lon="7.865601821448346"><ele>264.0</ele><time>2026-04-11T09:03:19.894Z</time></trkpt><trkpt lat="45.39044389764549" lon="7.865594641333649"><ele>264.0</ele><time>2026-04-11T09:03:20.894Z</time></trkpt><trkpt lat="45.390525880796076" lon="7.865599839411489"><ele>264.0</ele><time>2026-04-11T09:03:21.894Z</time></trkpt><trkpt lat="45.39060259062949" lon="7.865569256305177"><ele>264.0</ele><time>2026-04-11T09:03:22.894Z</time></trkpt><trkpt lat="45.390685865337154" lon="7.865529447814242"><ele>264.0</ele><time>2026-04-11T09:03:23.894Z</time></trkpt><trkpt lat="45.39077631728862" lon="7.865465453202862"><ele>265.25</ele><time>2026-04-11T09:03:24.894Z</time></trkpt><trkpt lat="45.39088859251904" lon="7.865411002350955"><ele>266.5</ele><time>2026-04-11T09:03:25.894Z</time></trkpt><trkpt lat="45.39102381394322" lon="7.865365287561411"><ele>267.75</ele><time>2026-04-11T09:03:26.894Z</time></trkpt><trkpt lat="45.391161229047206" lon="7.865258521180403"><ele>269.0</ele><time>2026-04-11T09:03:27.894Z</time></trkpt><trkpt lat="45.39132067809334" lon="7.865139563777372"><ele>267.0</ele><time>2026-04-11T09:03:28.894Z</time></trkpt><trkpt lat="45.3914783314684" lon="7.865039653640586"><ele>265.0</ele><time>2026-04-11T09:03:29.894Z</time></trkpt><trkpt lat="45.39161371088379" lon="7.864936963611951"><ele>263.0</ele><time>2026-04-11T09:03:30.894Z</time></trkpt><trkpt lat="45.39173768828612" lon="7.864846741850868"><ele>263.0</ele><time>2026-04-11T09:03:31.894Z</time></trkpt><trkpt lat="45.39186315319841" lon="7.864813310427"><ele>263.0</ele><time>2026-04-11T09:03:32.894Z</time></trkpt><trkpt lat="45.39200105360395" lon="7.864815747359876"><ele>263.0</ele><time>2026-04-11T09:03:33.894Z</time></trkpt><trkpt lat="45.39215338292484" lon="7.864865334448215"><ele>263.0</ele><time>2026-04-11T09:03:34.893Z</time></trkpt><trkpt lat="45.39231246457405" lon="7.864957421835257"><ele>263.33333333333337</ele><time>2026-04-11T09:03:35.893Z</time></trkpt><trkpt lat="45.39247015530804" lon="7.865035468294932"><ele>263.6666666666667</ele><time>2026-04-11T09:03:36.893Z</time></trkpt><trkpt lat="45.392628287202285" lon="7.865110804476842"><ele>264.0</ele><time>2026-04-11T09:03:37.893Z</time></trkpt><trkpt lat="45.39279935513763" lon="7.865192003942488"><ele>264.0</ele><time>2026-04-11T09:03:38.893Z</time></trkpt><trkpt lat="45.392973215070114" lon="7.865281644577557"><ele>264.0</ele><time>2026-04-11T09:03:39.893Z</time></trkpt><trkpt lat="45.39314750807201" lon="7.865373226357621"><ele>264.0</ele><time>2026-04-11T09:03:40.893Z</time></trkpt><trkpt lat="45.39331991607389" lon="7.865458169675635"><ele>258.6666666666667</ele><time>2026-04-11T09:03:41.893Z</time></trkpt><trkpt lat="45.39348824016764" lon="7.865542940084243"><ele>253.33333333333334</ele><time>2026-04-11T09:03:42.893Z</time></trkpt><trkpt lat="45.39365427129265" lon="7.865625574076145"><ele>248.0</ele><time>2026-04-11T09:03:43.893Z</time></trkpt><trkpt lat="45.39381349194835" lon="7.865705946017284"><ele>245.66666666666669</ele><time>2026-04-11T09:03:44.893Z</time></trkpt><trkpt lat="45.39396368456324" lon="7.865778786794919"><ele>243.33333333333331</ele><time>2026-04-11T09:03:45.893Z</time></trkpt><trkpt lat="45.39410572781567" lon="7.865850085655944"><ele>241.0</ele><time>2026-04-11T09:03:46.893Z</time></trkpt><trkpt lat="45.39424287575488" lon="7.865916672941647"><ele>241.0</ele><time>2026-04-11T09:03:47.893Z</time></trkpt><trkpt lat="45.39437559562544" lon="7.865980461252204"><ele>241.0</ele><time>2026-04-11T09:03:48.893Z</time></trkpt><trkpt lat="45.39450528771047" lon="7.8660453442666585"><ele>241.0</ele><time>2026-04-11T09:03:49.893Z</time></trkpt><trkpt lat="45.39463719178162" lon="7.866109530673986"><ele>241.0</ele><time>2026-04-11T09:03:50.893Z</time></trkpt><trkpt lat="45.39477563714177" lon="7.866181036192269"><ele>240.0</ele><time>2026-04-11T09:03:51.893Z</time></trkpt><trkpt lat="45.39492546773963" lon="7.8662523599479535"><ele>239.0</ele><time>2026-04-11T09:03:52.893Z</time></trkpt><trkpt lat="45.39508172907161" lon="7.866322625637554"><ele>238.0</ele><time>2026-04-11T09:03:53.893Z</time></trkpt><trkpt lat="45.395245366760086" lon="7.86640120766115"><ele>238.0</ele><time>2026-04-11T09:03:54.893Z</time></trkpt><trkpt lat="45.39540989567792" lon="7.866474632319662"><ele>238.0</ele><time>2026-04-11T09:03:55.892Z</time></trkpt><trkpt lat="45.39557563290804" lon="7.866552725503936"><ele>238.0</ele><time>2026-04-11T09:03:56.892Z</time></trkpt><trkpt lat="45.39574448436778" lon="7.86663504363127"><ele>238.0</ele><time>2026-04-11T09:03:57.892Z</time></trkpt><trkpt lat="45.39590693554597" lon="7.866714955900355"><ele>238.0</ele><time>2026-04-11T09:03:58.892Z</time></trkpt><trkpt lat="45.39606292824695" lon="7.866792023670559"><ele>238.0</ele><time>2026-04-11T09:03:59.892Z</time></trkpt><trkpt lat="45.396217065727726" lon="7.866868758798468"><ele>237.0</ele><time>2026-04-11T09:04:00.892Z</time></trkpt><trkpt lat="45.39637307220203" lon="7.866945818352349"><ele>236.0</ele><time>2026-04-11T09:04:01.892Z</time></trkpt><trkpt lat="45.396526974761734" lon="7.867023133381704"><ele>235.0</ele><time>2026-04-11T09:04:02.892Z</time></trkpt><trkpt lat="45.39668127169591" lon="7.867090877729607"><ele>235.0</ele><time>2026-04-11T09:04:03.892Z</time></trkpt><trkpt lat="45.39682694949149" lon="7.867161748750308"><ele>235.0</ele><time>2026-04-11T09:04:04.892Z</time></trkpt><trkpt lat="45.39698361468255" lon="7.867236193102851"><ele>235.0</ele><time>2026-04-11T09:04:05.892Z</time></trkpt><trkpt lat="45.3971431088808" lon="7.867312543602612"><ele>235.66666666666666</ele><time>2026-04-11T09:04:06.892Z</time></trkpt><trkpt lat="45.39730277450316" lon="7.867381674715014"><ele>236.33333333333331</ele><time>2026-04-11T09:04:07.892Z</time></trkpt><trkpt lat="45.39745951625265" lon="7.867458061351616"><ele>237.0</ele><time>2026-04-11T09:04:08.892Z</time></trkpt><trkpt lat="45.397620154978206" lon="7.8675402184388314"><ele>237.0</ele><time>2026-04-11T09:04:09.892Z</time></trkpt><trkpt lat="45.397779318188775" lon="7.86761808632293"><ele>237.0</ele><time>2026-04-11T09:04:10.892Z</time></trkpt><trkpt lat="45.397943560612404" lon="7.867699619661775"><ele>237.0</ele><time>2026-04-11T09:04:11.892Z</time></trkpt><trkpt lat="45.39810361449771" lon="7.8677791952172775"><ele>236.66666666666669</ele><time>2026-04-11T09:04:12.892Z</time></trkpt><trkpt lat="45.398257288373756" lon="7.867861273300223"><ele>236.33333333333334</ele><time>2026-04-11T09:04:13.892Z</time></trkpt><trkpt lat="45.39841000162086" lon="7.867932387923892"><ele>236.0</ele><time>2026-04-11T09:04:14.892Z</time></trkpt><trkpt lat="45.39856139495621" lon="7.868009266053497"><ele>236.0</ele><time>2026-04-11T09:04:15.892Z</time></trkpt><trkpt lat="45.398712331327694" lon="7.868076944158065"><ele>236.0</ele><time>2026-04-11T09:04:16.891Z</time></trkpt><trkpt lat="45.39885949132811" lon="7.868150476472574"><ele>236.0</ele><time>2026-04-11T09:04:17.891Z</time></trkpt><trkpt lat="45.39900111656005" lon="7.868218949674236"><ele>236.0</ele><time>2026-04-11T09:04:18.891Z</time></trkpt><trkpt lat="45.39913633684138" lon="7.868289805288472"><ele>236.0</ele><time>2026-04-11T09:04:19.891Z</time></trkpt><trkpt lat="45.399278800195816" lon="7.868357147676271"><ele>236.0</ele><time>2026-04-11T09:04:20.891Z</time></trkpt><trkpt lat="45.39943002409663" lon="7.868427006127529"><ele>236.0</ele><time>2026-04-11T09:04:21.891Z</time></trkpt><trkpt lat="45.39958828611283" lon="7.86849949850504"><ele>236.0</ele><time>2026-04-11T09:04:22.891Z</time></trkpt><trkpt lat="45.39975141233265" lon="7.868581037560143"><ele>236.0</ele><time>2026-04-11T09:04:23.891Z</time></trkpt><trkpt lat="45.399911084152066" lon="7.868662038108081"><ele>236.0</ele><time>2026-04-11T09:04:24.891Z</time></trkpt><trkpt lat="45.400066462266224" lon="7.8687402396243575"><ele>236.0</ele><time>2026-04-11T09:04:25.891Z</time></trkpt><trkpt lat="45.40021918348862" lon="7.868805680060013"><ele>236.0</ele><time>2026-04-11T09:04:26.891Z</time></trkpt><trkpt lat="45.400376837934154" lon="7.868864456382134"><ele>235.66666666666669</ele><time>2026-04-11T09:04:27.891Z</time></trkpt><trkpt lat="45.40053400714828" lon="7.868908467948723"><ele>235.33333333333331</ele><time>2026-04-11T09:04:28.891Z</time></trkpt><trkpt lat="45.400692478815294" lon="7.868914888376716"><ele>235.0</ele><time>2026-04-11T09:04:29.891Z</time></trkpt><trkpt lat="45.400848767987206" lon="7.8688810259395146"><ele>235.0</ele><time>2026-04-11T09:04:30.891Z</time></trkpt><trkpt lat="45.40101774282711" lon="7.868845027738636"><ele>235.0</ele><time>2026-04-11T09:04:31.891Z</time></trkpt><trkpt lat="45.40118082399463" lon="7.868801441417651"><ele>235.0</ele><time>2026-04-11T09:04:32.891Z</time></trkpt><trkpt lat="45.401335381790794" lon="7.868756282164695"><ele>235.5</ele><time>2026-04-11T09:04:33.891Z</time></trkpt><trkpt lat="45.40148343865947" lon="7.868712516634237"><ele>236.0</ele><time>2026-04-11T09:04:34.891Z</time></trkpt><trkpt lat="45.40161410185329" lon="7.86868654707325"><ele>236.5</ele><time>2026-04-11T09:04:35.891Z</time></trkpt><trkpt lat="45.40173168886556" lon="7.8686593623475645"><ele>237.0</ele><time>2026-04-11T09:04:36.891Z</time></trkpt><trkpt lat="45.40184410136637" lon="7.8686369987897695"><ele>237.0</ele><time>2026-04-11T09:04:37.891Z</time></trkpt><trkpt lat="45.401959851081706" lon="7.868639148252367"><ele>237.0</ele><time>2026-04-11T09:04:38.89Z</time></trkpt><trkpt lat="45.40208770930011" lon="7.868658389749158"><ele>237.0</ele><time>2026-04-11T09:04:39.89Z</time></trkpt><trkpt lat="45.40221921799555" lon="7.868675466129425"><ele>237.0</ele><time>2026-04-11T09:04:40.89Z</time></trkpt><trkpt lat="45.40234788159839" lon="7.868703748808407"><ele>236.5</ele><time>2026-04-11T09:04:41.89Z</time></trkpt><trkpt lat="45.40246334316601" lon="7.868760679002933"><ele>236.0</ele><time>2026-04-11T09:04:42.89Z</time></trkpt><trkpt lat="45.40256138830151" lon="7.8688415892513"><ele>235.5</ele><time>2026-04-11T09:04:43.89Z</time></trkpt><trkpt lat="45.40264125190577" lon="7.868949168435116"><ele>235.0</ele><time>2026-04-11T09:04:44.89Z</time></trkpt><trkpt lat="45.402723877534626" lon="7.869073797931592"><ele>235.0</ele><time>2026-04-11T09:04:45.89Z</time></trkpt><trkpt lat="45.40282355681122" lon="7.869208161161723"><ele>235.0</ele><time>2026-04-11T09:04:46.89Z</time></trkpt><trkpt lat="45.40292596566051" lon="7.869358226142892"><ele>235.0</ele><time>2026-04-11T09:04:47.89Z</time></trkpt><trkpt lat="45.4030366878159" lon="7.86951998439575"><ele>235.0</ele><time>2026-04-11T09:04:48.89Z</time></trkpt><trkpt lat="45.4031518217483" lon="7.869686152576301"><ele>235.0</ele><time>2026-04-11T09:04:49.89Z</time></trkpt><trkpt lat="45.403269069961226" lon="7.869855533250774"><ele>235.0</ele><time>2026-04-11T09:04:50.89Z</time></trkpt><trkpt lat="45.403391466584544" lon="7.870029420544076"><ele>235.0</ele><time>2026-04-11T09:04:51.89Z</time></trkpt><trkpt lat="45.40351380384434" lon="7.870209826281739"><ele>235.0</ele><time>2026-04-11T09:04:52.891Z</time></trkpt><trkpt lat="45.4036380494141" lon="7.870396021650546"><ele>235.0</ele><time>2026-04-11T09:04:53.891Z</time></trkpt><trkpt lat="45.40376662347335" lon="7.870585656217959"><ele>235.0</ele><time>2026-04-11T09:04:54.891Z</time></trkpt><trkpt lat="45.403892561028975" lon="7.870777869103642"><ele>234.33333333333331</ele><time>2026-04-11T09:04:55.891Z</time></trkpt><trkpt lat="45.40401552699403" lon="7.870959587774321"><ele>233.66666666666669</ele><time>2026-04-11T09:04:56.891Z</time></trkpt><trkpt lat="45.40413489984546" lon="7.871135321027816"><ele>233.0</ele><time>2026-04-11T09:04:57.891Z</time></trkpt><trkpt lat="45.404256542780224" lon="7.871314230137348"><ele>233.0</ele><time>2026-04-11T09:04:58.89Z</time></trkpt><trkpt lat="45.404382080044805" lon="7.871492807803879"><ele>233.0</ele><time>2026-04-11T09:04:59.89Z</time></trkpt><trkpt lat="45.40450664724377" lon="7.871676331075709"><ele>233.0</ele><time>2026-04-11T09:05:00.89Z</time></trkpt><trkpt lat="45.40463643265439" lon="7.871856955014122"><ele>233.33333333333334</ele><time>2026-04-11T09:05:01.891Z</time></trkpt><trkpt lat="45.4047667026884" lon="7.872039761593094"><ele>233.66666666666669</ele><time>2026-04-11T09:05:02.891Z</time></trkpt><trkpt lat="45.40489366591752" lon="7.8722306150408885"><ele>234.0</ele><time>2026-04-11T09:05:03.891Z</time></trkpt><trkpt lat="45.40502803440446" lon="7.872417536104646"><ele>234.0</ele><time>2026-04-11T09:05:04.891Z</time></trkpt><trkpt lat="45.4051590560717" lon="7.872613884406627"><ele>234.0</ele><time>2026-04-11T09:05:05.89Z</time></trkpt><trkpt lat="45.405293609150306" lon="7.872809662496766"><ele>234.0</ele><time>2026-04-11T09:05:06.89Z</time></trkpt><trkpt lat="45.40543067616348" lon="7.87300937858815"><ele>234.33333333333331</ele><time>2026-04-11T09:05:07.89Z</time></trkpt><trkpt lat="45.40557167282019" lon="7.873211079318562"><ele>234.66666666666666</ele><time>2026-04-11T09:05:08.89Z</time></trkpt><trkpt lat="45.40571647459787" lon="7.873414007615446"><ele>235.0</ele><time>2026-04-11T09:05:09.89Z</time></trkpt><trkpt lat="45.405862503913966" lon="7.8736167603302185"><ele>235.0</ele><time>2026-04-11T09:05:10.89Z</time></trkpt><trkpt lat="45.40601013842365" lon="7.873826751474117"><ele>235.0</ele><time>2026-04-11T09:05:11.89Z</time></trkpt><trkpt lat="45.40615826003381" lon="7.874040376286787"><ele>235.0</ele><time>2026-04-11T09:05:12.89Z</time></trkpt><trkpt lat="45.40630965152567" lon="7.874257765582342"><ele>234.66666666666666</ele><time>2026-04-11T09:05:13.89Z</time></trkpt><trkpt lat="45.40646253148711" lon="7.874475994028253"><ele>234.33333333333331</ele><time>2026-04-11T09:05:14.89Z</time></trkpt><trkpt lat="45.40661777259793" lon="7.874696891336564"><ele>234.0</ele><time>2026-04-11T09:05:15.89Z</time></trkpt><trkpt lat="45.40677533215065" lon="7.874920143097499"><ele>234.0</ele><time>2026-04-11T09:05:16.89Z</time></trkpt><trkpt lat="45.40693233081386" lon="7.875146238338281"><ele>234.0</ele><time>2026-04-11T09:05:17.89Z</time></trkpt><trkpt lat="45.407088022127745" lon="7.875374715936184"><ele>234.0</ele><time>2026-04-11T09:05:18.89Z</time></trkpt><trkpt lat="45.4072454140011" lon="7.875602428029901"><ele>234.0</ele><time>2026-04-11T09:05:19.89Z</time></trkpt><trkpt lat="45.40740499152748" lon="7.875829114219636"><ele>234.0</ele><time>2026-04-11T09:05:20.89Z</time></trkpt><trkpt lat="45.40756484891562" lon="7.876057118622262"><ele>234.0</ele><time>2026-04-11T09:05:21.89Z</time></trkpt><trkpt lat="45.40772487209662" lon="7.87628734052698"><ele>234.0</ele><time>2026-04-11T09:05:22.889Z</time></trkpt><trkpt lat="45.407885171252964" lon="7.876522168214221"><ele>233.5</ele><time>2026-04-11T09:05:23.889Z</time></trkpt><trkpt lat="45.40804570427667" lon="7.876757805778252"><ele>233.0</ele><time>2026-04-11T09:05:24.889Z</time></trkpt><trkpt lat="45.40820632942907" lon="7.8769911580491225"><ele>234.0</ele><time>2026-04-11T09:05:25.889Z</time></trkpt><trkpt lat="45.40836777955558" lon="7.8772255437053955"><ele>235.0</ele><time>2026-04-11T09:05:26.889Z</time></trkpt><trkpt lat="45.408530764011545" lon="7.877458257009754"><ele>234.5</ele><time>2026-04-11T09:05:27.889Z</time></trkpt><trkpt lat="45.40869421054836" lon="7.8776860723005555"><ele>234.0</ele><time>2026-04-11T09:05:28.889Z</time></trkpt><trkpt lat="45.408851729647715" lon="7.87791327404245"><ele>234.0</ele><time>2026-04-11T09:05:29.889Z</time></trkpt><trkpt lat="45.409004212651915" lon="7.878133463831693"><ele>234.0</ele><time>2026-04-11T09:05:30.889Z</time></trkpt><trkpt lat="45.409151626009475" lon="7.878348541282014"><ele>234.0</ele><time>2026-04-11T09:05:31.889Z</time></trkpt><trkpt lat="45.40930347352075" lon="7.878571704381434"><ele>234.0</ele><time>2026-04-11T09:05:32.889Z</time></trkpt><trkpt lat="45.40945915885463" lon="7.878796778087502"><ele>234.0</ele><time>2026-04-11T09:05:33.889Z</time></trkpt><trkpt lat="45.409614008554634" lon="7.879020284095347"><ele>234.0</ele><time>2026-04-11T09:05:34.889Z</time></trkpt><trkpt lat="45.40976629024892" lon="7.879241927623616"><ele>233.66666666666669</ele><time>2026-04-11T09:05:35.889Z</time></trkpt><trkpt lat="45.409917949430756" lon="7.879460090953101"><ele>233.33333333333334</ele><time>2026-04-11T09:05:36.889Z</time></trkpt><trkpt lat="45.410065918057406" lon="7.87967102334404"><ele>233.0</ele><time>2026-04-11T09:05:37.889Z</time></trkpt><trkpt lat="45.41020706945853" lon="7.879870869967504"><ele>233.0</ele><time>2026-04-11T09:05:38.889Z</time></trkpt><trkpt lat="45.41034059186707" lon="7.88006151636592"><ele>233.0</ele><time>2026-04-11T09:05:39.889Z</time></trkpt><trkpt lat="45.41046726851137" lon="7.8802444047203135"><ele>233.0</ele><time>2026-04-11T09:05:40.889Z</time></trkpt><trkpt lat="45.410589506150366" lon="7.880426164773465"><ele>233.66666666666669</ele><time>2026-04-11T09:05:41.889Z</time></trkpt><trkpt lat="45.41071114523037" lon="7.880605396482721"><ele>234.33333333333331</ele><time>2026-04-11T09:05:42.889Z</time></trkpt><trkpt lat="45.41082757027731" lon="7.880771235407905"><ele>235.0</ele><time>2026-04-11T09:05:43.889Z</time></trkpt><trkpt lat="45.41091891687688" lon="7.880915608861017"><ele>234.8</ele><time>2026-04-11T09:05:44.888Z</time></trkpt><trkpt lat="45.41098685195445" lon="7.8810553335610996"><ele>234.6</ele><time>2026-04-11T09:05:45.888Z</time></trkpt><trkpt lat="45.411031825847" lon="7.881189781120912"><ele>234.39999999999998</ele><time>2026-04-11T09:05:46.888Z</time></trkpt><trkpt lat="45.41105956339356" lon="7.88130805279903"><ele>234.2</ele><time>2026-04-11T09:05:47.888Z</time></trkpt><trkpt lat="45.41107494596148" lon="7.881406862596878"><ele>234.0</ele><time>2026-04-11T09:05:48.888Z</time></trkpt><trkpt lat="45.41111388324397" lon="7.88149089514936"><ele>234.0</ele><time>2026-04-11T09:05:50.888Z</time></trkpt><trkpt lat="45.41114231845925" lon="7.881599605284418"><ele>233.99999999999997</ele><time>2026-04-11T09:06:06.887Z</time></trkpt><trkpt lat="45.41128733378975" lon="7.8816998012806225"><ele>233.99999999999997</ele><time>2026-04-11T09:06:08.887Z</time></trkpt><trkpt lat="45.411379143128926" lon="7.8816807728045495"><ele>234.0</ele><time>2026-04-11T09:06:09.887Z</time></trkpt><trkpt lat="45.41149124925877" lon="7.881657537564344"><ele>234.0</ele><time>2026-04-11T09:06:10.887Z</time></trkpt><trkpt lat="45.41163162844637" lon="7.881629953067972"><ele>232.66666666666669</ele><time>2026-04-11T09:06:11.887Z</time></trkpt><trkpt lat="45.41178049615309" lon="7.881601742118368"><ele>231.33333333333334</ele><time>2026-04-11T09:06:12.887Z</time></trkpt><trkpt lat="45.41193372546394" lon="7.881564776834991"><ele>230.0</ele><time>2026-04-11T09:06:13.887Z</time></trkpt><trkpt lat="45.412101081018655" lon="7.881570839902125"><ele>228.66666666666669</ele><time>2026-04-11T09:06:14.887Z</time></trkpt><trkpt lat="45.4122676849193" lon="7.881590377652487"><ele>227.33333333333331</ele><time>2026-04-11T09:06:15.887Z</time></trkpt><trkpt lat="45.412425259454594" lon="7.881615459317386"><ele>226.0</ele><time>2026-04-11T09:06:16.887Z</time></trkpt><trkpt lat="45.41259172775147" lon="7.8816553277395665"><ele>226.0</ele><time>2026-04-11T09:06:17.887Z</time></trkpt><trkpt lat="45.41276003015041" lon="7.881706568147499"><ele>226.0</ele><time>2026-04-11T09:06:18.887Z</time></trkpt><trkpt lat="45.41293315225838" lon="7.881759568283316"><ele>226.0</ele><time>2026-04-11T09:06:19.887Z</time></trkpt><trkpt lat="45.413106151132794" lon="7.8818080559041395"><ele>226.0</ele><time>2026-04-11T09:06:20.887Z</time></trkpt><trkpt lat="45.41327906133086" lon="7.881862172854337"><ele>226.0</ele><time>2026-04-11T09:06:21.887Z</time></trkpt><trkpt lat="45.41345030555525" lon="7.881915650821559"><ele>226.0</ele><time>2026-04-11T09:06:22.887Z</time></trkpt><trkpt lat="45.41362619690695" lon="7.881970375624549"><ele>226.0</ele><time>2026-04-11T09:06:23.887Z</time></trkpt><trkpt lat="45.413796049624594" lon="7.882028568913647"><ele>226.0</ele><time>2026-04-11T09:06:24.887Z</time></trkpt><trkpt lat="45.41396701772917" lon="7.882094062959689"><ele>226.0</ele><time>2026-04-11T09:06:25.887Z</time></trkpt><trkpt lat="45.41414078471201" lon="7.882176986323228"><ele>226.0</ele><time>2026-04-11T09:06:26.886Z</time></trkpt><trkpt lat="45.41431910290736" lon="7.8822752122593265"><ele>226.0</ele><time>2026-04-11T09:06:27.886Z</time></trkpt><trkpt lat="45.41449583477134" lon="7.882381816036476"><ele>226.0</ele><time>2026-04-11T09:06:28.886Z</time></trkpt><trkpt lat="45.4146720267361" lon="7.882490504197452"><ele>226.33333333333331</ele><time>2026-04-11T09:06:29.886Z</time></trkpt><trkpt lat="45.41484690067857" lon="7.882603567648511"><ele>226.66666666666669</ele><time>2026-04-11T09:06:30.886Z</time></trkpt><trkpt lat="45.415017450271954" lon="7.882718725213011"><ele>227.0</ele><time>2026-04-11T09:06:31.886Z</time></trkpt><trkpt lat="45.41518642131197" lon="7.882842910478247"><ele>227.0</ele><time>2026-04-11T09:06:32.886Z</time></trkpt><trkpt lat="45.41535603323093" lon="7.882970277653423"><ele>227.0</ele><time>2026-04-11T09:06:33.886Z</time></trkpt><trkpt lat="45.415526239536845" lon="7.883104729109772"><ele>227.0</ele><time>2026-04-11T09:06:34.886Z</time></trkpt><trkpt lat="45.415694680216355" lon="7.883245497307236"><ele>227.33333333333334</ele><time>2026-04-11T09:06:35.886Z</time></trkpt><trkpt lat="45.41586188236773" lon="7.883390394208492"><ele>227.66666666666669</ele><time>2026-04-11T09:06:36.886Z</time></trkpt><trkpt lat="45.41602601978139" lon="7.8835389240061735"><ele>228.0</ele><time>2026-04-11T09:06:37.886Z</time></trkpt><trkpt lat="45.41619130070017" lon="7.883693116825812"><ele>228.0</ele><time>2026-04-11T09:06:38.886Z</time></trkpt><trkpt lat="45.416359425210835" lon="7.883854115110148"><ele>228.0</ele><time>2026-04-11T09:06:39.886Z</time></trkpt><trkpt lat="45.416530061744425" lon="7.884023501721669"><ele>228.0</ele><time>2026-04-11T09:06:40.886Z</time></trkpt><trkpt lat="45.416700648493354" lon="7.884193743967992"><ele>227.66666666666669</ele><time>2026-04-11T09:06:41.886Z</time></trkpt><trkpt lat="45.41686615985813" lon="7.884364374345364"><ele>227.33333333333334</ele><time>2026-04-11T09:06:42.886Z</time></trkpt><trkpt lat="45.41703985133441" lon="7.884544400683312"><ele>227.0</ele><time>2026-04-11T09:06:43.886Z</time></trkpt><trkpt lat="45.41723117183045" lon="7.884739527303648"><ele>227.0</ele><time>2026-04-11T09:06:44.886Z</time></trkpt><trkpt lat="45.41743573388824" lon="7.884949130571691"><ele>227.0</ele><time>2026-04-11T09:06:45.886Z</time></trkpt><trkpt lat="45.41765022387998" lon="7.885177216446825"><ele>226.5</ele><time>2026-04-11T09:06:46.886Z</time></trkpt><trkpt lat="45.4178699765711" lon="7.885417799444308"><ele>226.0</ele><time>2026-04-11T09:06:47.886Z</time></trkpt><trkpt lat="45.41809449261857" lon="7.8856623829381425"><ele>226.0</ele><time>2026-04-11T09:06:48.885Z</time></trkpt><trkpt lat="45.41832449042404" lon="7.885899207684208"><ele>226.0</ele><time>2026-04-11T09:06:49.885Z</time></trkpt><trkpt lat="45.41853352017949" lon="7.886114952766582"><ele>225.5</ele><time>2026-04-11T09:06:50.885Z</time></trkpt><trkpt lat="45.41873737622643" lon="7.886323219144375"><ele>225.0</ele><time>2026-04-11T09:06:51.885Z</time></trkpt><trkpt lat="45.41894292777357" lon="7.886534373161661"><ele>225.5</ele><time>2026-04-11T09:06:52.885Z</time></trkpt><trkpt lat="45.41914842864502" lon="7.886741859504353"><ele>226.0</ele><time>2026-04-11T09:06:53.885Z</time></trkpt><trkpt lat="45.4193551698455" lon="7.886950930087874"><ele>226.0</ele><time>2026-04-11T09:06:54.885Z</time></trkpt><trkpt lat="45.41955871501403" lon="7.887160763386419"><ele>226.0</ele><time>2026-04-11T09:06:55.885Z</time></trkpt><trkpt lat="45.41976137990615" lon="7.887365801177643"><ele>227.0</ele><time>2026-04-11T09:06:56.885Z</time></trkpt><trkpt lat="45.41996319017606" lon="7.887569479169155"><ele>228.0</ele><time>2026-04-11T09:06:57.885Z</time></trkpt><trkpt lat="45.42016306177592" lon="7.887773566867881"><ele>228.0</ele><time>2026-04-11T09:06:58.887Z</time></trkpt><trkpt lat="45.420362772190124" lon="7.8879755855304055"><ele>228.0</ele><time>2026-04-11T09:06:59.887Z</time></trkpt><trkpt lat="45.420564577873975" lon="7.888169681194626"><ele>229.0</ele><time>2026-04-11T09:07:00.887Z</time></trkpt><trkpt lat="45.42076952499964" lon="7.888355101988421"><ele>230.0</ele><time>2026-04-11T09:07:01.887Z</time></trkpt><trkpt lat="45.42097383652887" lon="7.888526690882412"><ele>230.0</ele><time>2026-04-11T09:07:02.887Z</time></trkpt><trkpt lat="45.42118021604461" lon="7.888688298420491"><ele>230.0</ele><time>2026-04-11T09:07:03.887Z</time></trkpt><trkpt lat="45.42138292667571" lon="7.888840145998123"><ele>229.5</ele><time>2026-04-11T09:07:04.887Z</time></trkpt><trkpt lat="45.421588418292615" lon="7.888982999994494"><ele>229.0</ele><time>2026-04-11T09:07:05.887Z</time></trkpt><trkpt lat="45.42180161212036" lon="7.889121636596601"><ele>229.0</ele><time>2026-04-11T09:07:06.887Z</time></trkpt><trkpt lat="45.422018507139995" lon="7.889242971703167"><ele>229.0</ele><time>2026-04-11T09:07:07.887Z</time></trkpt><trkpt lat="45.4222364157828" lon="7.889356769199492"><ele>227.5</ele><time>2026-04-11T09:07:08.886Z</time></trkpt><trkpt lat="45.42245812624094" lon="7.889460183194542"><ele>226.0</ele><time>2026-04-11T09:07:09.886Z</time></trkpt><trkpt lat="45.42268248671582" lon="7.88955744865402"><ele>226.0</ele><time>2026-04-11T09:07:10.886Z</time></trkpt><trkpt lat="45.422910807201326" lon="7.889649460008703"><ele>226.0</ele><time>2026-04-11T09:07:11.886Z</time></trkpt><trkpt lat="45.423141722412474" lon="7.889735199403273"><ele>227.5</ele><time>2026-04-11T09:07:12.886Z</time></trkpt><trkpt lat="45.42337539915369" lon="7.889804470834675"><ele>229.0</ele><time>2026-04-11T09:07:13.886Z</time></trkpt><trkpt lat="45.42360971941392" lon="7.889859993805851"><ele>229.0</ele><time>2026-04-11T09:07:14.886Z</time></trkpt><trkpt lat="45.42384326202317" lon="7.889908095128895"><ele>229.0</ele><time>2026-04-11T09:07:15.886Z</time></trkpt><trkpt lat="45.42407461117713" lon="7.889942901296437"><ele>229.0</ele><time>2026-04-11T09:07:16.886Z</time></trkpt><trkpt lat="45.424310895511326" lon="7.889967129788916"><ele>229.0</ele><time>2026-04-11T09:07:17.886Z</time></trkpt><trkpt lat="45.424548250943765" lon="7.8899788211264985"><ele>230.5</ele><time>2026-04-11T09:07:18.886Z</time></trkpt><trkpt lat="45.42478798970758" lon="7.88998430498638"><ele>232.0</ele><time>2026-04-11T09:07:19.886Z</time></trkpt><trkpt lat="45.4250278388673" lon="7.889984675639709"><ele>232.0</ele><time>2026-04-11T09:07:20.886Z</time></trkpt><trkpt lat="45.42526454848809" lon="7.889974773171859"><ele>232.0</ele><time>2026-04-11T09:07:21.886Z</time></trkpt><trkpt lat="45.42549958517357" lon="7.889955599200309"><ele>230.5</ele><time>2026-04-11T09:07:22.886Z</time></trkpt><trkpt lat="45.42573465524057" lon="7.88992217697869"><ele>229.0</ele><time>2026-04-11T09:07:23.886Z</time></trkpt><trkpt lat="45.42597166380738" lon="7.889885658206279"><ele>229.0</ele><time>2026-04-11T09:07:24.886Z</time></trkpt><trkpt lat="45.42621004390968" lon="7.889842227606203"><ele>229.0</ele><time>2026-04-11T09:07:25.886Z</time></trkpt><trkpt lat="45.426445965583945" lon="7.889784250751638"><ele>228.0</ele><time>2026-04-11T09:07:26.886Z</time></trkpt><trkpt lat="45.42667807418207" lon="7.889718578321335"><ele>227.0</ele><time>2026-04-11T09:07:27.886Z</time></trkpt><trkpt lat="45.42690619983294" lon="7.889640833939266"><ele>227.0</ele><time>2026-04-11T09:07:28.886Z</time></trkpt><trkpt lat="45.42713425113408" lon="7.889554262375106"><ele>227.0</ele><time>2026-04-11T09:07:29.886Z</time></trkpt><trkpt lat="45.427361563691946" lon="7.889453104932596"><ele>227.0</ele><time>2026-04-11T09:07:30.886Z</time></trkpt><trkpt lat="45.42758082115275" lon="7.8893427908902245"><ele>227.0</ele><time>2026-04-11T09:07:31.885Z</time></trkpt><trkpt lat="45.42779941175885" lon="7.889230997338058"><ele>226.5</ele><time>2026-04-11T09:07:32.885Z</time></trkpt><trkpt lat="45.428013802908204" lon="7.889109511425088"><ele>226.0</ele><time>2026-04-11T09:07:33.885Z</time></trkpt><trkpt lat="45.428224090308454" lon="7.888982580241253"><ele>226.0</ele><time>2026-04-11T09:07:34.885Z</time></trkpt><trkpt lat="45.428431939431" lon="7.888855667201454"><ele>226.0</ele><time>2026-04-11T09:07:35.885Z</time></trkpt><trkpt lat="45.42863953715702" lon="7.888725161375192"><ele>226.0</ele><time>2026-04-11T09:07:36.885Z</time></trkpt><trkpt lat="45.42884560498648" lon="7.888594001746087"><ele>226.0</ele><time>2026-04-11T09:07:37.885Z</time></trkpt><trkpt lat="45.42905170613179" lon="7.888460508923349"><ele>227.0</ele><time>2026-04-11T09:07:38.885Z</time></trkpt><trkpt lat="45.42926171048602" lon="7.8883258208418745"><ele>228.0</ele><time>2026-04-11T09:07:39.885Z</time></trkpt><trkpt lat="45.42947021843763" lon="7.888189143598355"><ele>228.5</ele><time>2026-04-11T09:07:40.885Z</time></trkpt><trkpt lat="45.42968038165735" lon="7.888054823320718"><ele>229.0</ele><time>2026-04-11T09:07:41.885Z</time></trkpt><trkpt lat="45.42989149261544" lon="7.887916930864355"><ele>229.0</ele><time>2026-04-11T09:07:42.885Z</time></trkpt><trkpt lat="45.43010416689125" lon="7.887781975233199"><ele>229.0</ele><time>2026-04-11T09:07:43.885Z</time></trkpt><trkpt lat="45.43031611640742" lon="7.887648938349518"><ele>228.5</ele><time>2026-04-11T09:07:44.885Z</time></trkpt><trkpt lat="45.43052621192054" lon="7.887514895716245"><ele>228.0</ele><time>2026-04-11T09:07:45.885Z</time></trkpt><trkpt lat="45.430739947164874" lon="7.8873740338425735"><ele>228.0</ele><time>2026-04-11T09:07:46.885Z</time></trkpt><trkpt lat="45.4309542601926" lon="7.887235565542678"><ele>228.0</ele><time>2026-04-11T09:07:47.885Z</time></trkpt><trkpt lat="45.43116852072578" lon="7.887098150988031"><ele>228.0</ele><time>2026-04-11T09:07:48.885Z</time></trkpt><trkpt lat="45.43137991470235" lon="7.886963022208187"><ele>228.0</ele><time>2026-04-11T09:07:49.885Z</time></trkpt><trkpt lat="45.43159133914382" lon="7.886825586656212"><ele>228.0</ele><time>2026-04-11T09:07:50.885Z</time></trkpt><trkpt lat="45.431802832721566" lon="7.886691125843291"><ele>228.0</ele><time>2026-04-11T09:07:51.885Z</time></trkpt><trkpt lat="45.43201486583181" lon="7.8865577183666895"><ele>227.5</ele><time>2026-04-11T09:07:52.884Z</time></trkpt><trkpt lat="45.432227134450535" lon="7.886423703864952"><ele>227.0</ele><time>2026-04-11T09:07:53.884Z</time></trkpt><trkpt lat="45.43244142605502" lon="7.886289048371384"><ele>227.0</ele><time>2026-04-11T09:07:54.884Z</time></trkpt><trkpt lat="45.43265748943087" lon="7.886153988981872"><ele>227.0</ele><time>2026-04-11T09:07:55.884Z</time></trkpt><trkpt lat="45.432874758" lon="7.886021521128666"><ele>227.0</ele><time>2026-04-11T09:07:56.884Z</time></trkpt><trkpt lat="45.43309478439394" lon="7.885892049538116"><ele>227.0</ele><time>2026-04-11T09:07:57.884Z</time></trkpt><trkpt lat="45.433316557415445" lon="7.8857690277387364"><ele>227.0</ele><time>2026-04-11T09:07:58.884Z</time></trkpt><trkpt lat="45.433536784365955" lon="7.885652849901161"><ele>227.0</ele><time>2026-04-11T09:07:59.884Z</time></trkpt><trkpt lat="45.433757318210866" lon="7.885551640055774"><ele>228.0</ele><time>2026-04-11T09:08:00.884Z</time></trkpt><trkpt lat="45.43397795818445" lon="7.885462768134746"><ele>229.0</ele><time>2026-04-11T09:08:01.884Z</time></trkpt><trkpt lat="45.434200504600874" lon="7.885379916955332"><ele>229.0</ele><time>2026-04-11T09:08:02.884Z</time></trkpt><trkpt lat="45.434420575427374" lon="7.8853009926698485"><ele>229.0</ele><time>2026-04-11T09:08:03.884Z</time></trkpt><trkpt lat="45.43464205900819" lon="7.885221579056789"><ele>228.5</ele><time>2026-04-11T09:08:04.883Z</time></trkpt><trkpt lat="45.43486433606103" lon="7.885148129386194"><ele>228.0</ele><time>2026-04-11T09:08:05.883Z</time></trkpt><trkpt lat="45.43508751847464" lon="7.8850756874137975"><ele>228.0</ele><time>2026-04-11T09:08:06.883Z</time></trkpt><trkpt lat="45.43530606196394" lon="7.885002567543047"><ele>228.0</ele><time>2026-04-11T09:08:07.883Z</time></trkpt><trkpt lat="45.435528595555226" lon="7.884931143103821"><ele>227.0</ele><time>2026-04-11T09:08:08.883Z</time></trkpt><trkpt lat="45.43575009092758" lon="7.884854710242269"><ele>226.0</ele><time>2026-04-11T09:08:09.883Z</time></trkpt><trkpt lat="45.43597358012391" lon="7.884777307802358"><ele>226.0</ele><time>2026-04-11T09:08:10.883Z</time></trkpt><trkpt lat="45.43619587254832" lon="7.884703566582682"><ele>226.0</ele><time>2026-04-11T09:08:11.883Z</time></trkpt><trkpt lat="45.43642169550494" lon="7.88462691479857"><ele>227.5</ele><time>2026-04-11T09:08:12.883Z</time></trkpt><trkpt lat="45.43664674309059" lon="7.8845524444258945"><ele>229.0</ele><time>2026-04-11T09:08:13.883Z</time></trkpt><trkpt lat="45.43687307091186" lon="7.884475247275445"><ele>229.0</ele><time>2026-04-11T09:08:14.883Z</time></trkpt><trkpt lat="45.437100127947616" lon="7.884399114263133"><ele>229.0</ele><time>2026-04-11T09:08:15.883Z</time></trkpt><trkpt lat="45.43732857834743" lon="7.884321829333664"><ele>228.0</ele><time>2026-04-11T09:08:16.883Z</time></trkpt><trkpt lat="45.43756109444664" lon="7.884246361608843"><ele>227.0</ele><time>2026-04-11T09:08:17.883Z</time></trkpt><trkpt lat="45.43779364300123" lon="7.884169524064494"><ele>228.0</ele><time>2026-04-11T09:08:18.883Z</time></trkpt><trkpt lat="45.438026736427894" lon="7.8840915474564595"><ele>229.0</ele><time>2026-04-11T09:08:19.883Z</time></trkpt><trkpt lat="45.43826083075729" lon="7.884010378564451"><ele>229.0</ele><time>2026-04-11T09:08:20.882Z</time></trkpt><trkpt lat="45.43849254382984" lon="7.883930381161477"><ele>229.0</ele><time>2026-04-11T09:08:21.882Z</time></trkpt><trkpt lat="45.43872225372822" lon="7.883854807323575"><ele>228.0</ele><time>2026-04-11T09:08:22.882Z</time></trkpt><trkpt lat="45.43894964235404" lon="7.883780109144487"><ele>227.0</ele><time>2026-04-11T09:08:23.882Z</time></trkpt><trkpt lat="45.439176628544836" lon="7.883703239321225"><ele>227.0</ele><time>2026-04-11T09:08:24.882Z</time></trkpt><trkpt lat="45.43940418132779" lon="7.88363141208497"><ele>227.0</ele><time>2026-04-11T09:08:25.882Z</time></trkpt><trkpt lat="45.43962781533417" lon="7.883560010404862"><ele>227.0</ele><time>2026-04-11T09:08:26.882Z</time></trkpt><trkpt lat="45.43985273150327" lon="7.88349737149506"><ele>227.0</ele><time>2026-04-11T09:08:27.882Z</time></trkpt><trkpt lat="45.44007845409133" lon="7.883448395538199"><ele>227.0</ele><time>2026-04-11T09:08:28.882Z</time></trkpt><trkpt lat="45.440305753650286" lon="7.883415179618287"><ele>227.0</ele><time>2026-04-11T09:08:29.882Z</time></trkpt><trkpt lat="45.440534119628715" lon="7.883397371290754"><ele>227.5</ele><time>2026-04-11T09:08:30.882Z</time></trkpt><trkpt lat="45.44076308148115" lon="7.883398505064367"><ele>228.0</ele><time>2026-04-11T09:08:31.882Z</time></trkpt><trkpt lat="45.44098976729126" lon="7.883416697285499"><ele>228.0</ele><time>2026-04-11T09:08:32.882Z</time></trkpt><trkpt lat="45.44121664337188" lon="7.883452066282326"><ele>228.0</ele><time>2026-04-11T09:08:33.882Z</time></trkpt><trkpt lat="45.44144454761431" lon="7.8835000845202545"><ele>228.5</ele><time>2026-04-11T09:08:34.882Z</time></trkpt><trkpt lat="45.441670237302134" lon="7.883566992500164"><ele>229.0</ele><time>2026-04-11T09:08:35.882Z</time></trkpt><trkpt lat="45.44189334879677" lon="7.88364863441429"><ele>229.0</ele><time>2026-04-11T09:08:36.882Z</time></trkpt><trkpt lat="45.4421099738595" lon="7.883751868171962"><ele>229.0</ele><time>2026-04-11T09:08:37.882Z</time></trkpt><trkpt lat="45.44232423693865" lon="7.883873377007358"><ele>229.0</ele><time>2026-04-11T09:08:38.881Z</time></trkpt><trkpt lat="45.442537330972804" lon="7.884006889119586"><ele>229.0</ele><time>2026-04-11T09:08:39.881Z</time></trkpt><trkpt lat="45.442746012261395" lon="7.884155972709009"><ele>229.0</ele><time>2026-04-11T09:08:40.881Z</time></trkpt><trkpt lat="45.442948583904766" lon="7.884324488389821"><ele>229.0</ele><time>2026-04-11T09:08:41.881Z</time></trkpt><trkpt lat="45.44314587216814" lon="7.884506493619802"><ele>229.5</ele><time>2026-04-11T09:08:42.881Z</time></trkpt><trkpt lat="45.44333811165754" lon="7.884703777928244"><ele>230.0</ele><time>2026-04-11T09:08:43.881Z</time></trkpt><trkpt lat="45.44352362701472" lon="7.884914157034564"><ele>229.5</ele><time>2026-04-11T09:08:44.881Z</time></trkpt><trkpt lat="45.44370331160705" lon="7.8851385007387025"><ele>229.0</ele><time>2026-04-11T09:08:45.881Z</time></trkpt><trkpt lat="45.44388083453244" lon="7.885370971184397"><ele>230.0</ele><time>2026-04-11T09:08:46.881Z</time></trkpt><trkpt lat="45.44405834699372" lon="7.8856016255261245"><ele>231.0</ele><time>2026-04-11T09:08:47.881Z</time></trkpt><trkpt lat="45.44423736193495" lon="7.885832793374619"><ele>230.0</ele><time>2026-04-11T09:08:48.881Z</time></trkpt><trkpt lat="45.444412937566426" lon="7.886064124473434"><ele>229.0</ele><time>2026-04-11T09:08:49.881Z</time></trkpt><trkpt lat="45.444586908289956" lon="7.886290844930798"><ele>229.0</ele><time>2026-04-11T09:08:50.881Z</time></trkpt><trkpt lat="45.44475517945039" lon="7.886514624451261"><ele>229.0</ele><time>2026-04-11T09:08:51.881Z</time></trkpt><trkpt lat="45.444922130533755" lon="7.886734338575163"><ele>229.0</ele><time>2026-04-11T09:08:52.881Z</time></trkpt><trkpt lat="45.44508572699697" lon="7.886948120232121"><ele>229.0</ele><time>2026-04-11T09:08:53.881Z</time></trkpt><trkpt lat="45.44525115712298" lon="7.887157207963134"><ele>229.0</ele><time>2026-04-11T09:08:54.881Z</time></trkpt><trkpt lat="45.44541932010356" lon="7.887355829784313"><ele>229.0</ele><time>2026-04-11T09:08:55.881Z</time></trkpt><trkpt lat="45.445594452080535" lon="7.887545471492266"><ele>229.0</ele><time>2026-04-11T09:08:56.881Z</time></trkpt><trkpt lat="45.445774890318724" lon="7.887728841899978"><ele>229.0</ele><time>2026-04-11T09:08:57.881Z</time></trkpt><trkpt lat="45.445962943085334" lon="7.887898760327528"><ele>229.0</ele><time>2026-04-11T09:08:58.881Z</time></trkpt><trkpt lat="45.44615841564166" lon="7.888054561651004"><ele>229.0</ele><time>2026-04-11T09:08:59.88Z</time></trkpt><trkpt lat="45.44636145014941" lon="7.888196862272619"><ele>229.0</ele><time>2026-04-11T09:09:00.88Z</time></trkpt><trkpt lat="45.446567799019604" lon="7.888325972644638"><ele>229.0</ele><time>2026-04-11T09:09:01.88Z</time></trkpt><trkpt lat="45.446776036750535" lon="7.888440840478143"><ele>229.0</ele><time>2026-04-11T09:09:02.88Z</time></trkpt><trkpt lat="45.446986702764825" lon="7.888537532965533"><ele>229.66666666666666</ele><time>2026-04-11T09:09:03.88Z</time></trkpt><trkpt lat="45.44719995597067" lon="7.8886143383926495"><ele>230.33333333333331</ele><time>2026-04-11T09:09:04.883Z</time></trkpt><trkpt lat="45.44741237323712" lon="7.888677662469589"><ele>231.0</ele><time>2026-04-11T09:09:05.883Z</time></trkpt><trkpt lat="45.44762760945938" lon="7.888727751341673"><ele>231.0</ele><time>2026-04-11T09:09:06.883Z</time></trkpt><trkpt lat="45.447844449938685" lon="7.888761578971687"><ele>231.0</ele><time>2026-04-11T09:09:07.882Z</time></trkpt><trkpt lat="45.44806086352812" lon="7.888780486587647"><ele>231.0</ele><time>2026-04-11T09:09:08.882Z</time></trkpt><trkpt lat="45.44827874525428" lon="7.888787087749553"><ele>230.66666666666669</ele><time>2026-04-11T09:09:09.882Z</time></trkpt><trkpt lat="45.44849745442179" lon="7.888777007697662"><ele>230.33333333333334</ele><time>2026-04-11T09:09:10.882Z</time></trkpt><trkpt lat="45.44871197005344" lon="7.8887556810819754"><ele>230.0</ele><time>2026-04-11T09:09:11.882Z</time></trkpt><trkpt lat="45.44892203407885" lon="7.888719603665672"><ele>229.33333333333334</ele><time>2026-04-11T09:09:12.882Z</time></trkpt><trkpt lat="45.449132751286825" lon="7.888671196646901"><ele>228.66666666666669</ele><time>2026-04-11T09:09:13.883Z</time></trkpt><trkpt lat="45.449343122924354" lon="7.888611057969155"><ele>228.0</ele><time>2026-04-11T09:09:14.883Z</time></trkpt><trkpt lat="45.449555764087734" lon="7.888542894590564"><ele>228.0</ele><time>2026-04-11T09:09:15.882Z</time></trkpt><trkpt lat="45.44977006581928" lon="7.888473983473405"><ele>228.0</ele><time>2026-04-11T09:09:16.882Z</time></trkpt><trkpt lat="45.44998819960488" lon="7.888404767585099"><ele>228.0</ele><time>2026-04-11T09:09:17.882Z</time></trkpt><trkpt lat="45.45020765955607" lon="7.888333662190776"><ele>228.0</ele><time>2026-04-11T09:09:18.882Z</time></trkpt><trkpt lat="45.45042702797493" lon="7.888263007928904"><ele>228.0</ele><time>2026-04-11T09:09:19.881Z</time></trkpt><trkpt lat="45.45064802445056" lon="7.888190803298027"><ele>228.33333333333331</ele><time>2026-04-11T09:09:20.881Z</time></trkpt><trkpt lat="45.45086710803106" lon="7.888117666663681"><ele>228.66666666666666</ele><time>2026-04-11T09:09:21.881Z</time></trkpt><trkpt lat="45.45108490898635" lon="7.888046047452608"><ele>229.0</ele><time>2026-04-11T09:09:22.881Z</time></trkpt><trkpt lat="45.45130328758676" lon="7.88797609507107"><ele>229.33333333333331</ele><time>2026-04-11T09:09:23.881Z</time></trkpt><trkpt lat="45.45152108321689" lon="7.887903840645573"><ele>229.66666666666669</ele><time>2026-04-11T09:09:24.881Z</time></trkpt><trkpt lat="45.451735906544165" lon="7.887831846463948"><ele>230.0</ele><time>2026-04-11T09:09:25.881Z</time></trkpt><trkpt lat="45.45194550841488" lon="7.887764185095355"><ele>229.66666666666669</ele><time>2026-04-11T09:09:26.881Z</time></trkpt><trkpt lat="45.45214184679373" lon="7.887700771874134"><ele>229.33333333333331</ele><time>2026-04-11T09:09:27.881Z</time></trkpt><trkpt lat="45.45232487837916" lon="7.887639579980813"><ele>229.0</ele><time>2026-04-11T09:09:28.881Z</time></trkpt><trkpt lat="45.4525003997062" lon="7.887579042024305"><ele>229.66666666666666</ele><time>2026-04-11T09:09:29.881Z</time></trkpt><trkpt lat="45.45267327077476" lon="7.887520273371917"><ele>230.33333333333331</ele><time>2026-04-11T09:09:30.881Z</time></trkpt><trkpt lat="45.45284640633108" lon="7.887463985106939"><ele>231.0</ele><time>2026-04-11T09:09:31.881Z</time></trkpt><trkpt lat="45.45301683299354" lon="7.8874093360207755"><ele>231.0</ele><time>2026-04-11T09:09:32.881Z</time></trkpt><trkpt lat="45.453191294849915" lon="7.8873505907950285"><ele>231.0</ele><time>2026-04-11T09:09:33.881Z</time></trkpt><trkpt lat="45.453369596996026" lon="7.887287834774877"><ele>231.0</ele><time>2026-04-11T09:09:34.881Z</time></trkpt><trkpt lat="45.45355374711109" lon="7.887221943860763"><ele>231.0</ele><time>2026-04-11T09:09:35.881Z</time></trkpt><trkpt lat="45.45374493057642" lon="7.8871573974085"><ele>231.0</ele><time>2026-04-11T09:09:36.881Z</time></trkpt><trkpt lat="45.4539423052574" lon="7.8870906258723155"><ele>231.0</ele><time>2026-04-11T09:09:37.881Z</time></trkpt><trkpt lat="45.45414681074055" lon="7.887026871869768"><ele>231.33333333333331</ele><time>2026-04-11T09:09:38.881Z</time></trkpt><trkpt lat="45.45435799472584" lon="7.886961300932128"><ele>231.66666666666666</ele><time>2026-04-11T09:09:39.881Z</time></trkpt><trkpt lat="45.45457083320458" lon="7.886894758188272"><ele>232.0</ele><time>2026-04-11T09:09:40.88Z</time></trkpt><trkpt lat="45.45478688815238" lon="7.886823908262897"><ele>231.33333333333331</ele><time>2026-04-11T09:09:41.88Z</time></trkpt><trkpt lat="45.455004166658064" lon="7.886753175488969"><ele>230.66666666666669</ele><time>2026-04-11T09:09:42.88Z</time></trkpt><trkpt lat="45.455223113204795" lon="7.886681527596152"><ele>230.0</ele><time>2026-04-11T09:09:43.88Z</time></trkpt><trkpt lat="45.45544684924833" lon="7.886608791327715"><ele>231.5</ele><time>2026-04-11T09:09:44.88Z</time></trkpt><trkpt lat="45.455672415395306" lon="7.886536083646965"><ele>233.0</ele><time>2026-04-11T09:09:45.88Z</time></trkpt><trkpt lat="45.45589968784334" lon="7.886467730842671"><ele>233.0</ele><time>2026-04-11T09:09:46.88Z</time></trkpt><trkpt lat="45.456125375275256" lon="7.88639468668976"><ele>233.0</ele><time>2026-04-11T09:09:47.88Z</time></trkpt><trkpt lat="45.456351258208834" lon="7.88632041102182"><ele>232.5</ele><time>2026-04-11T09:09:48.88Z</time></trkpt><trkpt lat="45.456578221350725" lon="7.886246067682408"><ele>232.0</ele><time>2026-04-11T09:09:49.88Z</time></trkpt><trkpt lat="45.456806486025386" lon="7.886171380398376"><ele>232.0</ele><time>2026-04-11T09:09:50.88Z</time></trkpt><trkpt lat="45.457040190700596" lon="7.886094965266537"><ele>232.0</ele><time>2026-04-11T09:09:51.88Z</time></trkpt><trkpt lat="45.457276730138595" lon="7.886019475133155"><ele>232.0</ele><time>2026-04-11T09:09:52.88Z</time></trkpt><trkpt lat="45.45751358207816" lon="7.8859396224197145"><ele>232.0</ele><time>2026-04-11T09:09:53.88Z</time></trkpt><trkpt lat="45.45774978784791" lon="7.885859340580335"><ele>232.5</ele><time>2026-04-11T09:09:54.88Z</time></trkpt><trkpt lat="45.457982196549594" lon="7.8857800440493175"><ele>233.0</ele><time>2026-04-11T09:09:55.88Z</time></trkpt><trkpt lat="45.45820895016449" lon="7.885702193586838"><ele>233.0</ele><time>2026-04-11T09:09:56.88Z</time></trkpt><trkpt lat="45.45842964497563" lon="7.885626187763634"><ele>233.0</ele><time>2026-04-11T09:09:57.88Z</time></trkpt><trkpt lat="45.458642149980335" lon="7.885570779507055"><ele>233.0</ele><time>2026-04-11T09:09:58.88Z</time></trkpt><trkpt lat="45.4588417702106" lon="7.885542211391984"><ele>233.33333333333334</ele><time>2026-04-11T09:09:59.88Z</time></trkpt><trkpt lat="45.45902718868452" lon="7.885535300884925"><ele>233.66666666666669</ele><time>2026-04-11T09:10:00.88Z</time></trkpt><trkpt lat="45.459211418475526" lon="7.885545516368575"><ele>234.0</ele><time>2026-04-11T09:10:01.879Z</time></trkpt><trkpt lat="45.459406108627185" lon="7.8855772397615"><ele>234.0</ele><time>2026-04-11T09:10:02.879Z</time></trkpt><trkpt lat="45.459604430054945" lon="7.885620993480186"><ele>234.0</ele><time>2026-04-11T09:10:03.879Z</time></trkpt><trkpt lat="45.459803319009445" lon="7.885674224224009"><ele>234.0</ele><time>2026-04-11T09:10:04.879Z</time></trkpt><trkpt lat="45.459998532946024" lon="7.885730669126464"><ele>234.0</ele><time>2026-04-11T09:10:05.879Z</time></trkpt><trkpt lat="45.4601874471604" lon="7.88579640303637"><ele>234.0</ele><time>2026-04-11T09:10:06.879Z</time></trkpt><trkpt lat="45.46037683780118" lon="7.885861496597922"><ele>234.0</ele><time>2026-04-11T09:10:07.879Z</time></trkpt><trkpt lat="45.46056352882809" lon="7.885923764223856"><ele>233.33333333333331</ele><time>2026-04-11T09:10:08.879Z</time></trkpt><trkpt lat="45.4607440741685" lon="7.885984308156951"><ele>232.66666666666666</ele><time>2026-04-11T09:10:09.879Z</time></trkpt><trkpt lat="45.460916700581436" lon="7.8860414887771935"><ele>232.0</ele><time>2026-04-11T09:10:10.879Z</time></trkpt><trkpt lat="45.46108278983632" lon="7.886098049588736"><ele>232.0</ele><time>2026-04-11T09:10:11.879Z</time></trkpt><trkpt lat="45.461257675588506" lon="7.886155192933645"><ele>232.0</ele><time>2026-04-11T09:10:12.879Z</time></trkpt><trkpt lat="45.46143711236441" lon="7.886216361196866"><ele>232.0</ele><time>2026-04-11T09:10:13.879Z</time></trkpt><trkpt lat="45.46161554784793" lon="7.886271457741274"><ele>231.66666666666666</ele><time>2026-04-11T09:10:14.879Z</time></trkpt><trkpt lat="45.46179309149661" lon="7.886329706069699"><ele>231.33333333333331</ele><time>2026-04-11T09:10:15.879Z</time></trkpt><trkpt lat="45.46196778542406" lon="7.886388698406331"><ele>231.0</ele><time>2026-04-11T09:10:16.879Z</time></trkpt><trkpt lat="45.46214288513519" lon="7.88645063077134"><ele>231.0</ele><time>2026-04-11T09:10:17.879Z</time></trkpt><trkpt lat="45.4623128922971" lon="7.8865073642165555"><ele>231.0</ele><time>2026-04-11T09:10:18.879Z</time></trkpt><trkpt lat="45.462475133685516" lon="7.88656832246239"><ele>231.0</ele><time>2026-04-11T09:10:19.879Z</time></trkpt><trkpt lat="45.462628007369545" lon="7.886627806280242"><ele>231.0</ele><time>2026-04-11T09:10:20.879Z</time></trkpt><trkpt lat="45.46276830843191" lon="7.886688033408199"><ele>231.0</ele><time>2026-04-11T09:10:21.879Z</time></trkpt><trkpt lat="45.4629017401049" lon="7.8867527164826425"><ele>231.0</ele><time>2026-04-11T09:10:22.878Z</time></trkpt><trkpt lat="45.463010376329585" lon="7.886809843376822"><ele>231.0</ele><time>2026-04-11T09:10:23.878Z</time></trkpt><trkpt lat="45.463110651310636" lon="7.886864946759474"><ele>231.5</ele><time>2026-04-11T09:10:24.878Z</time></trkpt><trkpt lat="45.46320955427441" lon="7.886930171857725"><ele>232.0</ele><time>2026-04-11T09:10:25.878Z</time></trkpt><trkpt lat="45.46332984993775" lon="7.887008268173637"><ele>232.5</ele><time>2026-04-11T09:10:26.878Z</time></trkpt><trkpt lat="45.46346404832696" lon="7.8871046169145265"><ele>233.0</ele><time>2026-04-11T09:10:27.878Z</time></trkpt><trkpt lat="45.463600349127134" lon="7.88720914439837"><ele>233.0</ele><time>2026-04-11T09:10:28.878Z</time></trkpt><trkpt lat="45.46371165157595" lon="7.887298043808628"><ele>233.0</ele><time>2026-04-11T09:10:29.878Z</time></trkpt><trkpt lat="45.46381174589144" lon="7.887376951765953"><ele>233.0</ele><time>2026-04-11T09:10:30.878Z</time></trkpt><trkpt lat="45.46388910117324" lon="7.887440642206961"><ele>233.0</ele><time>2026-04-11T09:10:31.878Z</time></trkpt><trkpt lat="45.463953920023485" lon="7.887493544067483"><ele>233.0</ele><time>2026-04-11T09:10:32.878Z</time></trkpt><trkpt lat="45.46401018319365" lon="7.88754367880157"><ele>233.0</ele><time>2026-04-11T09:10:33.878Z</time></trkpt><trkpt lat="45.46410692825642" lon="7.887641550211858"><ele>233.0</ele><time>2026-04-11T09:10:35.878Z</time></trkpt><trkpt lat="45.46419348229567" lon="7.887733329781634"><ele>233.0</ele><time>2026-04-11T09:10:37.878Z</time></trkpt><trkpt lat="45.46423058463537" lon="7.887817633711832"><ele>233.0</ele><time>2026-04-11T09:10:38.878Z</time></trkpt><trkpt lat="45.4642940001627" lon="7.887893182573725"><ele>233.0</ele><time>2026-04-11T09:10:39.878Z</time></trkpt><trkpt lat="45.46436835734478" lon="7.887982577649585"><ele>233.0</ele><time>2026-04-11T09:10:40.878Z</time></trkpt><trkpt lat="45.464445373050204" lon="7.888096035115789"><ele>233.0</ele><time>2026-04-11T09:10:41.878Z</time></trkpt><trkpt lat="45.464523141149655" lon="7.8882036501337165"><ele>233.0</ele><time>2026-04-11T09:10:42.878Z</time></trkpt><trkpt lat="45.4645954489853" lon="7.888302678345332"><ele>233.0</ele><time>2026-04-11T09:10:43.878Z</time></trkpt><trkpt lat="45.464660507997515" lon="7.888392705719858"><ele>233.0</ele><time>2026-04-11T09:10:44.877Z</time></trkpt><trkpt lat="45.46471870233553" lon="7.888471155665892"><ele>233.33333333333334</ele><time>2026-04-11T09:10:45.877Z</time></trkpt><trkpt lat="45.464770706496836" lon="7.888546902183406"><ele>233.66666666666669</ele><time>2026-04-11T09:10:46.877Z</time></trkpt><trkpt lat="45.46482750757784" lon="7.888616116960947"><ele>234.0</ele><time>2026-04-11T09:10:47.877Z</time></trkpt><trkpt lat="45.464876164178044" lon="7.88870170897293"><ele>234.33333333333331</ele><time>2026-04-11T09:10:48.877Z</time></trkpt><trkpt lat="45.4649274157887" lon="7.888786320495803"><ele>234.66666666666666</ele><time>2026-04-11T09:10:49.877Z</time></trkpt><trkpt lat="45.464977195761556" lon="7.888870394794748"><ele>235.0</ele><time>2026-04-11T09:10:50.877Z</time></trkpt><trkpt lat="45.46502857873787" lon="7.888962746713672"><ele>234.99999999999997</ele><time>2026-04-11T09:10:51.877Z</time></trkpt><trkpt lat="45.465080237509206" lon="7.889063049456747"><ele>235.0</ele><time>2026-04-11T09:10:52.877Z</time></trkpt><trkpt lat="45.46512934578814" lon="7.889171145440658"><ele>235.0</ele><time>2026-04-11T09:10:53.877Z</time></trkpt><trkpt lat="45.465179631226654" lon="7.889281055381105"><ele>235.0</ele><time>2026-04-11T09:10:54.877Z</time></trkpt><trkpt lat="45.46522765188865" lon="7.8893864836709735"><ele>234.99999999999997</ele><time>2026-04-11T09:10:55.877Z</time></trkpt><trkpt lat="45.465278481471856" lon="7.8894904185368215"><ele>235.0</ele><time>2026-04-11T09:10:56.877Z</time></trkpt><trkpt lat="45.46531903802392" lon="7.889601048833875"><ele>234.8</ele><time>2026-04-11T09:10:57.877Z</time></trkpt><trkpt lat="45.465363311167096" lon="7.88970416655277"><ele>234.6</ele><time>2026-04-11T09:10:58.877Z</time></trkpt><trkpt lat="45.46540310411559" lon="7.889808283011522"><ele>234.39999999999998</ele><time>2026-04-11T09:10:59.877Z</time></trkpt><trkpt lat="45.46544435229864" lon="7.889910978040988"><ele>234.2</ele><time>2026-04-11T09:11:00.877Z</time></trkpt><trkpt lat="45.46549484337365" lon="7.890028491050576"><ele>234.0</ele><time>2026-04-11T09:11:01.877Z</time></trkpt><trkpt lat="45.46555039053234" lon="7.890159594676381"><ele>233.79999999999998</ele><time>2026-04-11T09:11:02.877Z</time></trkpt><trkpt lat="45.4656009358939" lon="7.89028448180747"><ele>233.59999999999997</ele><time>2026-04-11T09:11:03.877Z</time></trkpt><trkpt lat="45.46564471099948" lon="7.890396505770694"><ele>233.4</ele><time>2026-04-11T09:11:04.877Z</time></trkpt><trkpt lat="45.46568116002344" lon="7.890487393715617"><ele>233.2</ele><time>2026-04-11T09:11:05.876Z</time></trkpt><trkpt lat="45.46573608745041" lon="7.890617653871096"><ele>233.0</ele><time>2026-04-11T09:11:07.876Z</time></trkpt><trkpt lat="45.4657887390561" lon="7.890733173493407"><ele>233.0</ele><time>2026-04-11T09:11:09.876Z</time></trkpt><trkpt lat="45.46582701244997" lon="7.8908199011748055"><ele>233.0</ele><time>2026-04-11T09:11:10.879Z</time></trkpt><trkpt lat="45.46587003752836" lon="7.890922833874565"><ele>233.0</ele><time>2026-04-11T09:11:11.879Z</time></trkpt><trkpt lat="45.46591488692365" lon="7.891039688229968"><ele>233.0</ele><time>2026-04-11T09:11:12.878Z</time></trkpt><trkpt lat="45.465966865567474" lon="7.8911678817795865"><ele>233.0</ele><time>2026-04-11T09:11:13.878Z</time></trkpt><trkpt lat="45.46603046382161" lon="7.8913123634735465"><ele>233.0</ele><time>2026-04-11T09:11:14.879Z</time></trkpt><trkpt lat="45.46609333079721" lon="7.891465583298667"><ele>233.0</ele><time>2026-04-11T09:11:15.879Z</time></trkpt><trkpt lat="45.46614435107376" lon="7.89160112864363"><ele>233.0</ele><time>2026-04-11T09:11:16.879Z</time></trkpt><trkpt lat="45.4661803337948" lon="7.89170928780098"><ele>233.0</ele><time>2026-04-11T09:11:17.878Z</time></trkpt><trkpt lat="45.46620854437976" lon="7.891792513277284"><ele>233.0</ele><time>2026-04-11T09:11:18.878Z</time></trkpt><trkpt lat="45.466252134697484" lon="7.891912642951193"><ele>233.00000000000003</ele><time>2026-04-11T09:11:20.878Z</time></trkpt><trkpt lat="45.466295322658894" lon="7.892011193097317"><ele>233.0</ele><time>2026-04-11T09:11:22.879Z</time></trkpt><trkpt lat="45.466362306925674" lon="7.892170011287316"><ele>233.0</ele><time>2026-04-11T09:11:24.878Z</time></trkpt><trkpt lat="45.4663950876854" lon="7.892256372244276"><ele>233.0</ele><time>2026-04-11T09:11:25.878Z</time></trkpt><trkpt lat="45.46643815165512" lon="7.892348376418056"><ele>233.00000000000003</ele><time>2026-04-11T09:11:26.878Z</time></trkpt><trkpt lat="45.46648217156196" lon="7.89244122252555"><ele>233.0</ele><time>2026-04-11T09:11:27.878Z</time></trkpt><trkpt lat="45.46651579226905" lon="7.892523869779384"><ele>232.8</ele><time>2026-04-11T09:11:28.878Z</time></trkpt><trkpt lat="45.466571704902336" lon="7.89265746878078"><ele>232.60000000000002</ele><time>2026-04-11T09:11:30.878Z</time></trkpt><trkpt lat="45.46661430208094" lon="7.8927646793473025"><ele>232.39999999999998</ele><time>2026-04-11T09:11:32.878Z</time></trkpt><trkpt lat="45.466665523829334" lon="7.892881072457714"><ele>232.2</ele><time>2026-04-11T09:11:34.878Z</time></trkpt><trkpt lat="45.466708121642796" lon="7.892974727321003"><ele>232.0</ele><time>2026-04-11T09:11:36.878Z</time></trkpt><trkpt lat="45.46675986937158" lon="7.893070923144056"><ele>232.0</ele><time>2026-04-11T09:11:39.877Z</time></trkpt><trkpt lat="45.46683898919661" lon="7.893189293155071"><ele>232.0</ele><time>2026-04-11T09:11:42.877Z</time></trkpt><trkpt lat="45.46688857009509" lon="7.893256917394415"><ele>232.0</ele><time>2026-04-11T09:11:43.877Z</time></trkpt><trkpt lat="45.46697783572146" lon="7.893351985504152"><ele>232.0</ele><time>2026-04-11T09:11:45.877Z</time></trkpt><trkpt lat="45.467081569680246" lon="7.8934354658509305"><ele>232.0</ele><time>2026-04-11T09:11:47.877Z</time></trkpt><trkpt lat="45.467153275403206" lon="7.893483398048978"><ele>232.33333333333331</ele><time>2026-04-11T09:11:48.877Z</time></trkpt><trkpt lat="45.46723940371103" lon="7.893524662000042"><ele>232.66666666666666</ele><time>2026-04-11T09:11:49.877Z</time></trkpt><trkpt lat="45.46732794989333" lon="7.893546626570452"><ele>233.0</ele><time>2026-04-11T09:11:50.877Z</time></trkpt><trkpt lat="45.46741036997513" lon="7.893548785022433"><ele>233.33333333333331</ele><time>2026-04-11T09:11:51.877Z</time></trkpt><trkpt lat="45.467485735090946" lon="7.893545267428064"><ele>233.66666666666666</ele><time>2026-04-11T09:11:52.877Z</time></trkpt><trkpt lat="45.467559336687934" lon="7.893538843843736"><ele>234.0</ele><time>2026-04-11T09:11:53.877Z</time></trkpt><trkpt lat="45.46763073863734" lon="7.893531173546933"><ele>234.0</ele><time>2026-04-11T09:11:54.877Z</time></trkpt><trkpt lat="45.46770136682335" lon="7.89352434902632"><ele>234.0</ele><time>2026-04-11T09:11:55.877Z</time></trkpt><trkpt lat="45.46776570666755" lon="7.893513169874692"><ele>234.0</ele><time>2026-04-11T09:11:56.877Z</time></trkpt><trkpt lat="45.46783077592507" lon="7.893502727456282"><ele>234.0</ele><time>2026-04-11T09:11:57.877Z</time></trkpt><trkpt lat="45.467897906292734" lon="7.893493656111839"><ele>234.0</ele><time>2026-04-11T09:11:58.876Z</time></trkpt><trkpt lat="45.46800862243123" lon="7.893482973428212"><ele>234.0</ele><time>2026-04-11T09:12:00.876Z</time></trkpt><trkpt lat="45.46808634847284" lon="7.893501379394588"><ele>234.33333333333334</ele><time>2026-04-11T09:12:02.876Z</time></trkpt><trkpt lat="45.46816274628382" lon="7.893507673499909"><ele>234.66666666666669</ele><time>2026-04-11T09:12:04.876Z</time></trkpt><trkpt lat="45.46823448625452" lon="7.893535206315612"><ele>235.0</ele><time>2026-04-11T09:12:08.876Z</time></trkpt><trkpt lat="45.46830253503204" lon="7.893571726580363"><ele>235.33333333333334</ele><time>2026-04-11T09:12:11.876Z</time></trkpt><trkpt lat="45.4683878560812" lon="7.893602221939399"><ele>235.66666666666669</ele><time>2026-04-11T09:12:13.876Z</time></trkpt><trkpt lat="45.46845574511604" lon="7.893564032523583"><ele>236.0</ele><time>2026-04-11T09:12:14.876Z</time></trkpt><trkpt lat="45.46853849938112" lon="7.893517015892483"><ele>236.00000000000003</ele><time>2026-04-11T09:12:15.876Z</time></trkpt><trkpt lat="45.46861500412237" lon="7.893482791277071"><ele>236.0</ele><time>2026-04-11T09:12:16.876Z</time></trkpt><trkpt lat="45.46869807829269" lon="7.893465646681763"><ele>236.0</ele><time>2026-04-11T09:12:17.876Z</time></trkpt><trkpt lat="45.468789458916284" lon="7.89344429303752"><ele>236.0</ele><time>2026-04-11T09:12:18.876Z</time></trkpt><trkpt lat="45.46888189214455" lon="7.893419544259808"><ele>236.00000000000003</ele><time>2026-04-11T09:12:19.875Z</time></trkpt><trkpt lat="45.468975713055976" lon="7.893394230152699"><ele>236.0</ele><time>2026-04-11T09:12:20.875Z</time></trkpt><trkpt lat="45.46908718149292" lon="7.89339188264716"><ele>237.0</ele><time>2026-04-11T09:12:21.875Z</time></trkpt><trkpt lat="45.46918735293011" lon="7.8933467754730176"><ele>238.0</ele><time>2026-04-11T09:12:22.875Z</time></trkpt><trkpt lat="45.4693040366643" lon="7.893346210619496"><ele>239.0</ele><time>2026-04-11T09:12:23.875Z</time></trkpt><trkpt lat="45.46943349265917" lon="7.89329654276662"><ele>240.0</ele><time>2026-04-11T09:12:24.875Z</time></trkpt><trkpt lat="45.46956118416481" lon="7.893210959567688"><ele>239.5</ele><time>2026-04-11T09:12:25.875Z</time></trkpt><trkpt lat="45.469689175204" lon="7.8931114934152395"><ele>239.0</ele><time>2026-04-11T09:12:26.875Z</time></trkpt><trkpt lat="45.46979954065523" lon="7.893032399347639"><ele>238.5</ele><time>2026-04-11T09:12:27.875Z</time></trkpt><trkpt lat="45.469902878241776" lon="7.892979538388283"><ele>238.0</ele><time>2026-04-11T09:12:28.875Z</time></trkpt><trkpt lat="45.47001604659823" lon="7.892951455069511"><ele>238.0</ele><time>2026-04-11T09:12:29.875Z</time></trkpt><trkpt lat="45.470138141477854" lon="7.892936246289999"><ele>238.0</ele><time>2026-04-11T09:12:30.875Z</time></trkpt><trkpt lat="45.470251706396844" lon="7.892945931008597"><ele>238.0</ele><time>2026-04-11T09:12:31.875Z</time></trkpt><trkpt lat="45.47036747170757" lon="7.89294237631681"><ele>238.0</ele><time>2026-04-11T09:12:32.875Z</time></trkpt><trkpt lat="45.47048024823403" lon="7.892942959611172"><ele>238.75</ele><time>2026-04-11T09:12:33.875Z</time></trkpt><trkpt lat="45.47058922159605" lon="7.8929404690008615"><ele>239.5</ele><time>2026-04-11T09:12:34.875Z</time></trkpt><trkpt lat="45.47070799130857" lon="7.892941854240015"><ele>240.25</ele><time>2026-04-11T09:12:35.875Z</time></trkpt><trkpt lat="45.470820451363196" lon="7.892936092202673"><ele>241.0</ele><time>2026-04-11T09:12:36.875Z</time></trkpt><trkpt lat="45.47093060673246" lon="7.892924635647848"><ele>241.0</ele><time>2026-04-11T09:12:37.875Z</time></trkpt><trkpt lat="45.471038888398006" lon="7.892906679275931"><ele>241.00000000000003</ele><time>2026-04-11T09:12:38.875Z</time></trkpt><trkpt lat="45.47114038534919" lon="7.892882862908867"><ele>241.00000000000003</ele><time>2026-04-11T09:12:39.875Z</time></trkpt><trkpt lat="45.47123023213526" lon="7.892881034978829"><ele>241.0</ele><time>2026-04-11T09:12:40.875Z</time></trkpt><trkpt lat="45.4712959826257" lon="7.892884026411384"><ele>241.0</ele><time>2026-04-11T09:12:41.874Z</time></trkpt><trkpt lat="45.47138960905133" lon="7.892939293440471"><ele>241.60000000000002</ele><time>2026-04-11T09:12:43.874Z</time></trkpt><trkpt lat="45.47146409297593" lon="7.892989722342844"><ele>242.20000000000002</ele><time>2026-04-11T09:12:44.874Z</time></trkpt><trkpt lat="45.47154268868181" lon="7.893058273502709"><ele>242.79999999999998</ele><time>2026-04-11T09:12:45.874Z</time></trkpt><trkpt lat="45.47163700106064" lon="7.893153262620719"><ele>243.39999999999998</ele><time>2026-04-11T09:12:46.874Z</time></trkpt><trkpt lat="45.471750435064735" lon="7.89324730807254"><ele>244.0</ele><time>2026-04-11T09:12:47.874Z</time></trkpt><trkpt lat="45.47187976755747" lon="7.893359106856328"><ele>244.0</ele><time>2026-04-11T09:12:48.874Z</time></trkpt><trkpt lat="45.472017515153695" lon="7.893464899054016"><ele>244.0</ele><time>2026-04-11T09:12:49.874Z</time></trkpt><trkpt lat="45.47214226197094" lon="7.893565000395434"><ele>244.0</ele><time>2026-04-11T09:12:50.874Z</time></trkpt><trkpt lat="45.47225494940774" lon="7.893666476555105"><ele>244.0</ele><time>2026-04-11T09:12:51.874Z</time></trkpt><trkpt lat="45.47234877645707" lon="7.893784724623395"><ele>244.0</ele><time>2026-04-11T09:12:52.874Z</time></trkpt><trkpt lat="45.47244134174398" lon="7.893904447183873"><ele>244.0</ele><time>2026-04-11T09:12:53.874Z</time></trkpt><trkpt lat="45.47253458309605" lon="7.894024226498753"><ele>244.0</ele><time>2026-04-11T09:12:54.874Z</time></trkpt><trkpt lat="45.47262795593542" lon="7.894152236682441"><ele>244.0</ele><time>2026-04-11T09:12:55.874Z</time></trkpt><trkpt lat="45.472723351741955" lon="7.8942853125299965"><ele>244.25</ele><time>2026-04-11T09:12:56.874Z</time></trkpt><trkpt lat="45.472821236716044" lon="7.894412525983148"><ele>244.5</ele><time>2026-04-11T09:12:57.874Z</time></trkpt><trkpt lat="45.47291630670352" lon="7.894535133842409"><ele>244.75</ele><time>2026-04-11T09:12:58.874Z</time></trkpt><trkpt lat="45.47302032632088" lon="7.894657630606918"><ele>245.0</ele><time>2026-04-11T09:12:59.874Z</time></trkpt><trkpt lat="45.473151265098544" lon="7.894754833536743"><ele>244.0</ele><time>2026-04-11T09:13:00.874Z</time></trkpt><trkpt lat="45.473280312838035" lon="7.894861291602422"><ele>243.0</ele><time>2026-04-11T09:13:01.874Z</time></trkpt><trkpt lat="45.473420947931274" lon="7.8949545363055025"><ele>242.0</ele><time>2026-04-11T09:13:02.873Z</time></trkpt><trkpt lat="45.473564357429034" lon="7.8950434031375485"><ele>242.0</ele><time>2026-04-11T09:13:03.873Z</time></trkpt><trkpt lat="45.47370491621692" lon="7.895140700668427"><ele>242.0</ele><time>2026-04-11T09:13:04.873Z</time></trkpt><trkpt lat="45.47384650752667" lon="7.895239208785565"><ele>242.0</ele><time>2026-04-11T09:13:05.873Z</time></trkpt><trkpt lat="45.47398435727694" lon="7.895335765677819"><ele>242.0</ele><time>2026-04-11T09:13:06.873Z</time></trkpt><trkpt lat="45.47412422838619" lon="7.895430599499021"><ele>242.0</ele><time>2026-04-11T09:13:07.873Z</time></trkpt><trkpt lat="45.47425582701192" lon="7.895524182898064"><ele>242.0</ele><time>2026-04-11T09:13:08.873Z</time></trkpt><trkpt lat="45.474373658323785" lon="7.8956164623201035"><ele>242.0</ele><time>2026-04-11T09:13:09.873Z</time></trkpt><trkpt lat="45.47447667743997" lon="7.895715851106412"><ele>242.0</ele><time>2026-04-11T09:13:10.873Z</time></trkpt><trkpt lat="45.47457338407607" lon="7.895828609057602"><ele>242.0</ele><time>2026-04-11T09:13:11.873Z</time></trkpt><trkpt lat="45.474668019380445" lon="7.8959596653220325"><ele>242.0</ele><time>2026-04-11T09:13:12.873Z</time></trkpt><trkpt lat="45.47475738534867" lon="7.89611737172123"><ele>242.0</ele><time>2026-04-11T09:13:13.873Z</time></trkpt><trkpt lat="45.47485039122135" lon="7.896279323239215"><ele>242.25</ele><time>2026-04-11T09:13:14.873Z</time></trkpt><trkpt lat="45.474946802483196" lon="7.8964386170895775"><ele>242.5</ele><time>2026-04-11T09:13:15.873Z</time></trkpt><trkpt lat="45.47503934148899" lon="7.896600693067496"><ele>242.75</ele><time>2026-04-11T09:13:16.875Z</time></trkpt><trkpt lat="45.475129689003225" lon="7.896754013907203"><ele>243.0</ele><time>2026-04-11T09:13:17.875Z</time></trkpt><trkpt lat="45.4752173247372" lon="7.896897498936081"><ele>243.0</ele><time>2026-04-11T09:13:18.875Z</time></trkpt><trkpt lat="45.47529493567486" lon="7.897040800214311"><ele>243.0</ele><time>2026-04-11T09:13:19.875Z</time></trkpt><trkpt lat="45.475356996648834" lon="7.897166990908703"><ele>243.0</ele><time>2026-04-11T09:13:20.875Z</time></trkpt><trkpt lat="45.47540027285535" lon="7.897301990204402"><ele>243.0</ele><time>2026-04-11T09:13:21.875Z</time></trkpt><trkpt lat="45.47542919925908" lon="7.89746212293555"><ele>243.0</ele><time>2026-04-11T09:13:22.875Z</time></trkpt><trkpt lat="45.47546267323856" lon="7.897645056324361"><ele>243.0</ele><time>2026-04-11T09:13:23.875Z</time></trkpt><trkpt lat="45.47550639627505" lon="7.897836147247958"><ele>243.0</ele><time>2026-04-11T09:13:24.875Z</time></trkpt><trkpt lat="45.47554877013789" lon="7.898025180792293"><ele>243.0</ele><time>2026-04-11T09:13:25.875Z</time></trkpt><trkpt lat="45.47559304834849" lon="7.898208729152888"><ele>243.0</ele><time>2026-04-11T09:13:26.875Z</time></trkpt><trkpt lat="45.475632667846234" lon="7.898380818572843"><ele>243.0</ele><time>2026-04-11T09:13:27.875Z</time></trkpt><trkpt lat="45.475672359869584" lon="7.898535696646554"><ele>243.0</ele><time>2026-04-11T09:13:28.875Z</time></trkpt><trkpt lat="45.47570909669329" lon="7.8986814064254185"><ele>243.0</ele><time>2026-04-11T09:13:29.874Z</time></trkpt><trkpt lat="45.47573982868936" lon="7.898821151231779"><ele>243.0</ele><time>2026-04-11T09:13:30.874Z</time></trkpt><trkpt lat="45.47577116276422" lon="7.898961673709036"><ele>243.0</ele><time>2026-04-11T09:13:31.874Z</time></trkpt><trkpt lat="45.475806139575596" lon="7.899109175173999"><ele>243.0</ele><time>2026-04-11T09:13:32.874Z</time></trkpt><trkpt lat="45.475830310202596" lon="7.8992310635471625"><ele>243.0</ele><time>2026-04-11T09:13:33.874Z</time></trkpt><trkpt lat="45.475861514970106" lon="7.89939753935806"><ele>243.0</ele><time>2026-04-11T09:13:35.874Z</time></trkpt><trkpt lat="45.475881811910945" lon="7.8994876143806225"><ele>243.0</ele><time>2026-04-11T09:13:36.874Z</time></trkpt><trkpt lat="45.475908715412736" lon="7.899590339742878"><ele>243.0</ele><time>2026-04-11T09:13:37.874Z</time></trkpt><trkpt lat="45.475937815003554" lon="7.8997073740194805"><ele>243.0</ele><time>2026-04-11T09:13:38.874Z</time></trkpt><trkpt lat="45.47597239544812" lon="7.899828796973193"><ele>243.0</ele><time>2026-04-11T09:13:39.874Z</time></trkpt><trkpt lat="45.476011964312434" lon="7.899947437693342"><ele>243.0</ele><time>2026-04-11T09:13:40.874Z</time></trkpt><trkpt lat="45.47603255960682" lon="7.900077297255849"><ele>243.0</ele><time>2026-04-11T09:13:41.874Z</time></trkpt><trkpt lat="45.47605982153144" lon="7.900201581211726"><ele>242.33333333333334</ele><time>2026-04-11T09:13:42.874Z</time></trkpt><trkpt lat="45.47608524393145" lon="7.900317478987605"><ele>241.66666666666669</ele><time>2026-04-11T09:13:43.874Z</time></trkpt><trkpt lat="45.47610808389188" lon="7.9004216037203845"><ele>241.0</ele><time>2026-04-11T09:13:44.874Z</time></trkpt><trkpt lat="45.47612794125061" lon="7.900510347547421"><ele>240.33333333333334</ele><time>2026-04-11T09:13:45.874Z</time></trkpt><trkpt lat="45.476148139335386" lon="7.900598862682362"><ele>239.66666666666669</ele><time>2026-04-11T09:13:46.874Z</time></trkpt><trkpt lat="45.476186914176466" lon="7.900768787839301"><ele>239.0</ele><time>2026-04-11T09:13:48.874Z</time></trkpt><trkpt lat="45.47620882675737" lon="7.900864816771763"><ele>239.33333333333334</ele><time>2026-04-11T09:13:49.874Z</time></trkpt><trkpt lat="45.476232566866784" lon="7.900949782516535"><ele>239.66666666666669</ele><time>2026-04-11T09:13:50.873Z</time></trkpt><trkpt lat="45.47626610501078" lon="7.901078604292617"><ele>240.0</ele><time>2026-04-11T09:13:52.873Z</time></trkpt><trkpt lat="45.476296717938055" lon="7.901196190163407"><ele>240.33333333333331</ele><time>2026-04-11T09:14:01.873Z</time></trkpt><trkpt lat="45.476332562572814" lon="7.901281206646941"><ele>240.66666666666666</ele><time>2026-04-11T09:14:02.873Z</time></trkpt><trkpt lat="45.47636109788002" lon="7.901397517588222"><ele>241.0</ele><time>2026-04-11T09:14:03.873Z</time></trkpt><trkpt lat="45.47638781197245" lon="7.901514607366358"><ele>241.4</ele><time>2026-04-11T09:14:04.873Z</time></trkpt><trkpt lat="45.47641367628333" lon="7.901642414353815"><ele>241.8</ele><time>2026-04-11T09:14:05.873Z</time></trkpt><trkpt lat="45.47644398063266" lon="7.901787880995728"><ele>242.20000000000002</ele><time>2026-04-11T09:14:06.873Z</time></trkpt><trkpt lat="45.476476476423684" lon="7.901936407506702"><ele>242.60000000000002</ele><time>2026-04-11T09:14:07.873Z</time></trkpt><trkpt lat="45.476510496905085" lon="7.902071192243635"><ele>243.0</ele><time>2026-04-11T09:14:08.873Z</time></trkpt><trkpt lat="45.4765453583211" lon="7.9021921074284185"><ele>243.2</ele><time>2026-04-11T09:14:09.873Z</time></trkpt><trkpt lat="45.47658025544997" lon="7.902305813887528"><ele>243.4</ele><time>2026-04-11T09:14:10.873Z</time></trkpt><trkpt lat="45.476616721078145" lon="7.902437633541027"><ele>243.59999999999997</ele><time>2026-04-11T09:14:11.872Z</time></trkpt><trkpt lat="45.47664692162458" lon="7.902593284851031"><ele>243.79999999999998</ele><time>2026-04-11T09:14:12.872Z</time></trkpt><trkpt lat="45.47668886098899" lon="7.902752046842859"><ele>244.0</ele><time>2026-04-11T09:14:13.872Z</time></trkpt><trkpt lat="45.47673487289233" lon="7.902918785269804"><ele>244.0</ele><time>2026-04-11T09:14:14.872Z</time></trkpt><trkpt lat="45.476780244181334" lon="7.903076166047726"><ele>243.99999999999997</ele><time>2026-04-11T09:14:15.872Z</time></trkpt><trkpt lat="45.47682838074411" lon="7.90322232588722"><ele>243.99999999999997</ele><time>2026-04-11T09:14:16.872Z</time></trkpt><trkpt lat="45.4768772067344" lon="7.903352158043885"><ele>244.0</ele><time>2026-04-11T09:14:17.872Z</time></trkpt><trkpt lat="45.476923960072284" lon="7.90347221695182"><ele>244.0</ele><time>2026-04-11T09:14:18.872Z</time></trkpt><trkpt lat="45.47696606371959" lon="7.903572618812465"><ele>244.0</ele><time>2026-04-11T09:14:19.872Z</time></trkpt><trkpt lat="45.477018104327286" lon="7.903692612749228"><ele>243.99999999999997</ele><time>2026-04-11T09:14:21.872Z</time></trkpt><trkpt lat="45.47706770956186" lon="7.90380094268134"><ele>243.99999999999997</ele><time>2026-04-11T09:14:23.872Z</time></trkpt><trkpt lat="45.47713623980081" lon="7.903931782450887"><ele>244.0</ele><time>2026-04-11T09:14:25.872Z</time></trkpt><trkpt lat="45.4772111283546" lon="7.904035625434232"><ele>244.0</ele><time>2026-04-11T09:14:27.872Z</time></trkpt><trkpt lat="45.47726726961279" lon="7.904121467911213"><ele>244.0</ele><time>2026-04-11T09:14:28.872Z</time></trkpt><trkpt lat="45.47735051260055" lon="7.904208368949062"><ele>243.99999999999997</ele><time>2026-04-11T09:14:29.872Z</time></trkpt><trkpt lat="45.47744824455063" lon="7.904275081319891"><ele>243.99999999999997</ele><time>2026-04-11T09:14:30.872Z</time></trkpt><trkpt lat="45.47753652479427" lon="7.904368531129906"><ele>244.0</ele><time>2026-04-11T09:14:31.872Z</time></trkpt><trkpt lat="45.477636258669605" lon="7.904450682379679"><ele>244.0</ele><time>2026-04-11T09:14:32.871Z</time></trkpt><trkpt lat="45.47773264764264" lon="7.904531900710014"><ele>244.0</ele><time>2026-04-11T09:14:33.871Z</time></trkpt><trkpt lat="45.47783221671616" lon="7.904616965301921"><ele>243.99999999999997</ele><time>2026-04-11T09:14:34.871Z</time></trkpt><trkpt lat="45.477927193841424" lon="7.904696887330952"><ele>243.99999999999997</ele><time>2026-04-11T09:14:35.871Z</time></trkpt><trkpt lat="45.47801263027161" lon="7.904789002854517"><ele>244.0</ele><time>2026-04-11T09:14:36.871Z</time></trkpt><trkpt lat="45.47807314191189" lon="7.904886580745902"><ele>244.0</ele><time>2026-04-11T09:14:37.871Z</time></trkpt><trkpt lat="45.478135743351466" lon="7.9049811088795305"><ele>244.16666666666666</ele><time>2026-04-11T09:14:38.871Z</time></trkpt><trkpt lat="45.478196647598715" lon="7.905068895217123"><ele>244.33333333333331</ele><time>2026-04-11T09:14:39.871Z</time></trkpt><trkpt lat="45.4782659525163" lon="7.905141970272284"><ele>244.5</ele><time>2026-04-11T09:14:40.871Z</time></trkpt><trkpt lat="45.47832692925832" lon="7.90520489147871"><ele>244.66666666666669</ele><time>2026-04-11T09:14:41.871Z</time></trkpt><trkpt lat="45.47840286332801" lon="7.905279747298689"><ele>244.83333333333334</ele><time>2026-04-11T09:14:43.871Z</time></trkpt><trkpt lat="45.47846549080747" lon="7.905297609712433"><ele>245.0</ele><time>2026-04-11T09:15:14.869Z</time></trkpt><trkpt lat="45.478590982042576" lon="7.905423872055999"><ele>244.8</ele><time>2026-04-11T09:15:16.869Z</time></trkpt><trkpt lat="45.47867466339691" lon="7.905494872648826"><ele>244.6</ele><time>2026-04-11T09:15:17.869Z</time></trkpt><trkpt lat="45.478757464819566" lon="7.90556271896311"><ele>244.39999999999998</ele><time>2026-04-11T09:15:18.869Z</time></trkpt><trkpt lat="45.47885184804417" lon="7.905625510705481"><ele>244.2</ele><time>2026-04-11T09:15:19.869Z</time></trkpt><trkpt lat="45.478935392562306" lon="7.905685269243221"><ele>244.0</ele><time>2026-04-11T09:15:20.869Z</time></trkpt><trkpt lat="45.479019402494266" lon="7.905733199075663"><ele>244.0</ele><time>2026-04-11T09:15:21.869Z</time></trkpt><trkpt lat="45.47911039887611" lon="7.905752299825692"><ele>243.99999999999997</ele><time>2026-04-11T09:15:22.872Z</time></trkpt><trkpt lat="45.479199015720276" lon="7.905796981091551"><ele>243.99999999999997</ele><time>2026-04-11T09:15:23.872Z</time></trkpt><trkpt lat="45.479298977003985" lon="7.905814256667782"><ele>244.0</ele><time>2026-04-11T09:15:24.872Z</time></trkpt><trkpt lat="45.47941270637657" lon="7.905791189774955"><ele>244.0</ele><time>2026-04-11T09:15:25.871Z</time></trkpt><trkpt lat="45.479526678728256" lon="7.905771878517126"><ele>244.0</ele><time>2026-04-11T09:15:26.871Z</time></trkpt><trkpt lat="45.47967506648128" lon="7.905794876415179"><ele>244.0</ele><time>2026-04-11T09:15:27.871Z</time></trkpt><trkpt lat="45.47981614507152" lon="7.905834116688075"><ele>244.0</ele><time>2026-04-11T09:15:28.871Z</time></trkpt><trkpt lat="45.47994868383299" lon="7.905870974373684"><ele>244.0</ele><time>2026-04-11T09:15:29.871Z</time></trkpt><trkpt lat="45.48007277500076" lon="7.90587995131663"><ele>243.79999999999998</ele><time>2026-04-11T09:15:30.871Z</time></trkpt><trkpt lat="45.48017339464273" lon="7.905938130992574"><ele>243.59999999999997</ele><time>2026-04-11T09:15:31.871Z</time></trkpt><trkpt lat="45.48026949449112" lon="7.905971528685989"><ele>243.4</ele><time>2026-04-11T09:15:32.871Z</time></trkpt><trkpt lat="45.48035959568662" lon="7.906022952191612"><ele>243.2</ele><time>2026-04-11T09:15:33.871Z</time></trkpt><trkpt lat="45.48045479413687" lon="7.90608393256816"><ele>243.0</ele><time>2026-04-11T09:15:34.871Z</time></trkpt><trkpt lat="45.48055038054387" lon="7.90617339171461"><ele>242.8</ele><time>2026-04-11T09:15:35.871Z</time></trkpt><trkpt lat="45.480638419050024" lon="7.906264816954174"><ele>242.60000000000002</ele><time>2026-04-11T09:15:36.871Z</time></trkpt><trkpt lat="45.48072482855034" lon="7.906347789124682"><ele>242.39999999999998</ele><time>2026-04-11T09:15:37.871Z</time></trkpt><trkpt lat="45.48079342218375" lon="7.906421336587784"><ele>242.2</ele><time>2026-04-11T09:15:38.871Z</time></trkpt><trkpt lat="45.4808430388775" lon="7.906481424818488"><ele>242.0</ele><time>2026-04-11T09:15:39.871Z</time></trkpt><trkpt lat="45.480966695935486" lon="7.906560250425337"><ele>242.0</ele><time>2026-04-11T09:15:41.871Z</time></trkpt><trkpt lat="45.48107269437018" lon="7.906583548120703"><ele>242.0</ele><time>2026-04-11T09:15:42.871Z</time></trkpt><trkpt lat="45.48119984653826" lon="7.906586591371916"><ele>242.0</ele><time>2026-04-11T09:15:43.871Z</time></trkpt><trkpt lat="45.48134776076905" lon="7.906567443575674"><ele>242.0</ele><time>2026-04-11T09:15:44.871Z</time></trkpt><trkpt lat="45.481484255592804" lon="7.906540549878691"><ele>242.0</ele><time>2026-04-11T09:15:45.871Z</time></trkpt><trkpt lat="45.48162067157906" lon="7.906513448941862"><ele>242.0</ele><time>2026-04-11T09:15:46.871Z</time></trkpt><trkpt lat="45.48176579602467" lon="7.90651957272835"><ele>242.0</ele><time>2026-04-11T09:15:47.871Z</time></trkpt><trkpt lat="45.48191217935303" lon="7.906490223470084"><ele>242.0</ele><time>2026-04-11T09:15:48.871Z</time></trkpt><trkpt lat="45.48205336475198" lon="7.906459207115564"><ele>241.75</ele><time>2026-04-11T09:15:49.871Z</time></trkpt><trkpt lat="45.482191440984145" lon="7.906443306843863"><ele>241.5</ele><time>2026-04-11T09:15:50.871Z</time></trkpt><trkpt lat="45.48234022912114" lon="7.906383727630868"><ele>241.25</ele><time>2026-04-11T09:15:51.871Z</time></trkpt><trkpt lat="45.48248510750043" lon="7.906324139237548"><ele>241.0</ele><time>2026-04-11T09:15:52.871Z</time></trkpt><trkpt lat="45.48264447829392" lon="7.906269046330735"><ele>241.0</ele><time>2026-04-11T09:15:53.871Z</time></trkpt><trkpt lat="45.48281606222436" lon="7.906233879844774"><ele>241.0</ele><time>2026-04-11T09:15:54.87Z</time></trkpt><trkpt lat="45.48299736499239" lon="7.906213418683598"><ele>241.0</ele><time>2026-04-11T09:15:55.87Z</time></trkpt><trkpt lat="45.48317377982717" lon="7.906195981998706"><ele>240.33333333333331</ele><time>2026-04-11T09:15:56.87Z</time></trkpt><trkpt lat="45.48335244162045" lon="7.9061721093941495"><ele>239.66666666666669</ele><time>2026-04-11T09:15:57.87Z</time></trkpt><trkpt lat="45.4835300792021" lon="7.906149128296477"><ele>239.0</ele><time>2026-04-11T09:15:58.87Z</time></trkpt><trkpt lat="45.48370731832312" lon="7.906126185025355"><ele>238.66666666666669</ele><time>2026-04-11T09:15:59.87Z</time></trkpt><trkpt lat="45.48388202933026" lon="7.906112971494282"><ele>238.33333333333331</ele><time>2026-04-11T09:16:00.87Z</time></trkpt><trkpt lat="45.484056783639346" lon="7.906115720104739"><ele>238.0</ele><time>2026-04-11T09:16:01.87Z</time></trkpt><trkpt lat="45.484226907516074" lon="7.906124319678562"><ele>238.0</ele><time>2026-04-11T09:16:02.87Z</time></trkpt><trkpt lat="45.48439505155006" lon="7.9061289288654475"><ele>238.0</ele><time>2026-04-11T09:16:03.87Z</time></trkpt><trkpt lat="45.484561692695884" lon="7.906135167120273"><ele>238.0</ele><time>2026-04-11T09:16:04.87Z</time></trkpt><trkpt lat="45.48472356221198" lon="7.906144521185742"><ele>238.5</ele><time>2026-04-11T09:16:05.87Z</time></trkpt><trkpt lat="45.484874481351355" lon="7.906139654467943"><ele>239.0</ele><time>2026-04-11T09:16:06.87Z</time></trkpt><trkpt lat="45.48501458674179" lon="7.90609991297235"><ele>239.5</ele><time>2026-04-11T09:16:07.87Z</time></trkpt><trkpt lat="45.485141235438306" lon="7.906032362913723"><ele>240.0</ele><time>2026-04-11T09:16:08.87Z</time></trkpt><trkpt lat="45.485265704504926" lon="7.905956908914462"><ele>240.0</ele><time>2026-04-11T09:16:09.87Z</time></trkpt><trkpt lat="45.48534732721872" lon="7.905821140110715"><ele>240.0</ele><time>2026-04-11T09:16:10.87Z</time></trkpt><trkpt lat="45.48536941534607" lon="7.905657623668923"><ele>240.0</ele><time>2026-04-11T09:16:11.87Z</time></trkpt><trkpt lat="45.485390495435404" lon="7.905463195443753"><ele>240.0</ele><time>2026-04-11T09:16:12.87Z</time></trkpt><trkpt lat="45.485393905681605" lon="7.905207407024023"><ele>239.66666666666669</ele><time>2026-04-11T09:16:13.87Z</time></trkpt><trkpt lat="45.48538290253283" lon="7.904921265818845"><ele>239.33333333333334</ele><time>2026-04-11T09:16:14.87Z</time></trkpt><trkpt lat="45.4853958825511" lon="7.904660741973786"><ele>239.0</ele><time>2026-04-11T09:16:15.869Z</time></trkpt><trkpt lat="45.48540508810536" lon="7.904417444013282"><ele>239.33333333333334</ele><time>2026-04-11T09:16:16.869Z</time></trkpt><trkpt lat="45.48540591874594" lon="7.904180673867997"><ele>239.66666666666669</ele><time>2026-04-11T09:16:17.869Z</time></trkpt><trkpt lat="45.485396198232344" lon="7.903937559693913"><ele>240.0</ele><time>2026-04-11T09:16:18.869Z</time></trkpt><trkpt lat="45.48537770511724" lon="7.9036913437979734"><ele>240.0</ele><time>2026-04-11T09:16:19.869Z</time></trkpt><trkpt lat="45.485352197606375" lon="7.903457922070667"><ele>240.0</ele><time>2026-04-11T09:16:20.869Z</time></trkpt><trkpt lat="45.48532324893209" lon="7.903234666703821"><ele>240.0</ele><time>2026-04-11T09:16:21.869Z</time></trkpt><trkpt lat="45.48529881692795" lon="7.9030128684844625"><ele>241.0</ele><time>2026-04-11T09:16:22.869Z</time></trkpt><trkpt lat="45.48528339203277" lon="7.902792173586698"><ele>242.0</ele><time>2026-04-11T09:16:23.869Z</time></trkpt><trkpt lat="45.485281929709075" lon="7.902581033734004"><ele>243.0</ele><time>2026-04-11T09:16:24.869Z</time></trkpt><trkpt lat="45.485305484610606" lon="7.902375332667935"><ele>243.33333333333331</ele><time>2026-04-11T09:16:25.869Z</time></trkpt><trkpt lat="45.4853484567796" lon="7.902152174125372"><ele>243.66666666666666</ele><time>2026-04-11T09:16:26.869Z</time></trkpt><trkpt lat="45.48542762717874" lon="7.901952539377611"><ele>244.0</ele><time>2026-04-11T09:16:27.869Z</time></trkpt><trkpt lat="45.48552056925325" lon="7.9017702936586875"><ele>245.0</ele><time>2026-04-11T09:16:28.869Z</time></trkpt><trkpt lat="45.48562172333885" lon="7.901629748712426"><ele>246.0</ele><time>2026-04-11T09:16:29.869Z</time></trkpt><trkpt lat="45.48574466172087" lon="7.901541345496916"><ele>247.0</ele><time>2026-04-11T09:16:30.869Z</time></trkpt><trkpt lat="45.485902134325414" lon="7.9015014463304905"><ele>248.0</ele><time>2026-04-11T09:16:31.869Z</time></trkpt><trkpt lat="45.486091306138476" lon="7.901473687575726"><ele>248.33333333333334</ele><time>2026-04-11T09:16:32.869Z</time></trkpt><trkpt lat="45.48628239507833" lon="7.901457778760492"><ele>248.66666666666669</ele><time>2026-04-11T09:16:33.869Z</time></trkpt><trkpt lat="45.48646016938469" lon="7.901476027459221"><ele>249.0</ele><time>2026-04-11T09:16:34.869Z</time></trkpt><trkpt lat="45.48664623239805" lon="7.901533133541386"><ele>249.0</ele><time>2026-04-11T09:16:35.869Z</time></trkpt><trkpt lat="45.48684467421855" lon="7.901599336201022"><ele>249.0</ele><time>2026-04-11T09:16:36.868Z</time></trkpt><trkpt lat="45.48705344334092" lon="7.901664730559098"><ele>249.0</ele><time>2026-04-11T09:16:37.868Z</time></trkpt><trkpt lat="45.48724906115878" lon="7.901714969477049"><ele>248.66666666666669</ele><time>2026-04-11T09:16:38.868Z</time></trkpt><trkpt lat="45.48741539509005" lon="7.901749572356355"><ele>248.33333333333334</ele><time>2026-04-11T09:16:39.868Z</time></trkpt><trkpt lat="45.487564318342066" lon="7.901753094932928"><ele>248.0</ele><time>2026-04-11T09:16:40.868Z</time></trkpt><trkpt lat="45.487710206320344" lon="7.901707233029077"><ele>248.0</ele><time>2026-04-11T09:16:41.868Z</time></trkpt><trkpt lat="45.48786480343183" lon="7.9016175195920475"><ele>248.0</ele><time>2026-04-11T09:16:42.868Z</time></trkpt><trkpt lat="45.48802984528449" lon="7.901523267481553"><ele>248.0</ele><time>2026-04-11T09:16:43.868Z</time></trkpt><trkpt lat="45.48818604170587" lon="7.901359616015257"><ele>247.33333333333334</ele><time>2026-04-11T09:16:44.868Z</time></trkpt><trkpt lat="45.48835376673614" lon="7.90120406236981"><ele>246.66666666666669</ele><time>2026-04-11T09:16:45.868Z</time></trkpt><trkpt lat="45.48852709481919" lon="7.901044899017773"><ele>246.0</ele><time>2026-04-11T09:16:46.868Z</time></trkpt><trkpt lat="45.48868862436627" lon="7.900898705918607"><ele>247.33333333333331</ele><time>2026-04-11T09:16:47.868Z</time></trkpt><trkpt lat="45.48883883457882" lon="7.900762831678537"><ele>248.66666666666666</ele><time>2026-04-11T09:16:48.868Z</time></trkpt><trkpt lat="45.48898493849587" lon="7.900655041513803"><ele>250.0</ele><time>2026-04-11T09:16:49.868Z</time></trkpt><trkpt lat="45.48913239522253" lon="7.900576944354853"><ele>250.0</ele><time>2026-04-11T09:16:50.868Z</time></trkpt><trkpt lat="45.48930347347844" lon="7.900545211791325"><ele>250.0</ele><time>2026-04-11T09:16:51.868Z</time></trkpt><trkpt lat="45.489495541496765" lon="7.900523909153303"><ele>250.0</ele><time>2026-04-11T09:16:52.868Z</time></trkpt><trkpt lat="45.48970067214749" lon="7.900497708017554"><ele>250.66666666666666</ele><time>2026-04-11T09:16:53.868Z</time></trkpt><trkpt lat="45.489895505572406" lon="7.900479525264525"><ele>251.33333333333331</ele><time>2026-04-11T09:16:54.868Z</time></trkpt><trkpt lat="45.49008681830916" lon="7.900501361280635"><ele>252.0</ele><time>2026-04-11T09:16:55.868Z</time></trkpt><trkpt lat="45.49028391098519" lon="7.9005588625952905"><ele>252.0</ele><time>2026-04-11T09:16:56.868Z</time></trkpt><trkpt lat="45.490469985479635" lon="7.900622984183091"><ele>252.0</ele><time>2026-04-11T09:16:57.867Z</time></trkpt><trkpt lat="45.49064778488404" lon="7.9006945559733905"><ele>252.0</ele><time>2026-04-11T09:16:58.867Z</time></trkpt><trkpt lat="45.49081271967939" lon="7.9007752724704705"><ele>252.0</ele><time>2026-04-11T09:16:59.867Z</time></trkpt><trkpt lat="45.490969544572415" lon="7.900853847160355"><ele>252.0</ele><time>2026-04-11T09:17:00.867Z</time></trkpt><trkpt lat="45.49110693862473" lon="7.900937918954469"><ele>252.0</ele><time>2026-04-11T09:17:01.867Z</time></trkpt><trkpt lat="45.491224336834556" lon="7.901030710463929"><ele>255.0</ele><time>2026-04-11T09:17:02.867Z</time></trkpt><trkpt lat="45.49133991515932" lon="7.901125428346189"><ele>258.0</ele><time>2026-04-11T09:17:03.867Z</time></trkpt><trkpt lat="45.491467074679996" lon="7.9012349733306655"><ele>261.0</ele><time>2026-04-11T09:17:04.867Z</time></trkpt><trkpt lat="45.49160303222437" lon="7.901357253258503"><ele>264.0</ele><time>2026-04-11T09:17:05.867Z</time></trkpt><trkpt lat="45.491756737933564" lon="7.9014825053721855"><ele>264.0</ele><time>2026-04-11T09:17:06.867Z</time></trkpt><trkpt lat="45.49191679803168" lon="7.901607062920803"><ele>264.0</ele><time>2026-04-11T09:17:07.867Z</time></trkpt><trkpt lat="45.49207362202976" lon="7.901725431920048"><ele>264.0</ele><time>2026-04-11T09:17:08.867Z</time></trkpt><trkpt lat="45.49223056060077" lon="7.901829677232294"><ele>267.3333333333333</ele><time>2026-04-11T09:17:09.867Z</time></trkpt><trkpt lat="45.49237756226983" lon="7.901927620091079"><ele>270.66666666666663</ele><time>2026-04-11T09:17:10.867Z</time></trkpt><trkpt lat="45.49251533166946" lon="7.902044671492006"><ele>274.0</ele><time>2026-04-11T09:17:11.867Z</time></trkpt><trkpt lat="45.492649806338" lon="7.902190196342313"><ele>274.0</ele><time>2026-04-11T09:17:12.867Z</time></trkpt><trkpt lat="45.49278014612028" lon="7.9023669810691795"><ele>274.0</ele><time>2026-04-11T09:17:13.867Z</time></trkpt><trkpt lat="45.49291182994397" lon="7.902547427913997"><ele>274.0</ele><time>2026-04-11T09:17:14.867Z</time></trkpt><trkpt lat="45.493050089521" lon="7.902726618158351"><ele>273.66666666666663</ele><time>2026-04-11T09:17:15.867Z</time></trkpt><trkpt lat="45.493187656522366" lon="7.902897049123023"><ele>273.3333333333333</ele><time>2026-04-11T09:17:16.867Z</time></trkpt><trkpt lat="45.493319717779286" lon="7.903051766161436"><ele>273.0</ele><time>2026-04-11T09:17:17.867Z</time></trkpt><trkpt lat="45.49345011910415" lon="7.903195602097412"><ele>273.0</ele><time>2026-04-11T09:17:18.867Z</time></trkpt><trkpt lat="45.49358302302656" lon="7.903351130635051"><ele>273.0</ele><time>2026-04-11T09:17:19.866Z</time></trkpt><trkpt lat="45.493751145308714" lon="7.903437699495219"><ele>273.0</ele><time>2026-04-11T09:17:20.866Z</time></trkpt><trkpt lat="45.49389957776441" lon="7.903537324414999"><ele>275.3333333333333</ele><time>2026-04-11T09:17:21.866Z</time></trkpt><trkpt lat="45.49404660560837" lon="7.903663498610594"><ele>277.66666666666663</ele><time>2026-04-11T09:17:22.866Z</time></trkpt><trkpt lat="45.49418405216332" lon="7.903817814197436"><ele>280.0</ele><time>2026-04-11T09:17:23.866Z</time></trkpt><trkpt lat="45.49430845914973" lon="7.903939911645483"><ele>280.0</ele><time>2026-04-11T09:17:24.866Z</time></trkpt><trkpt lat="45.49443480336929" lon="7.904013429944326"><ele>280.0</ele><time>2026-04-11T09:17:25.866Z</time></trkpt><trkpt lat="45.49459800880055" lon="7.904040949965467"><ele>280.0</ele><time>2026-04-11T09:17:26.866Z</time></trkpt><trkpt lat="45.49478430795476" lon="7.904033118410604"><ele>282.3333333333333</ele><time>2026-04-11T09:17:27.866Z</time></trkpt><trkpt lat="45.49495315463499" lon="7.904065001890462"><ele>284.6666666666667</ele><time>2026-04-11T09:17:28.867Z</time></trkpt><trkpt lat="45.49511485838875" lon="7.9041173263533455"><ele>287.0</ele><time>2026-04-11T09:17:29.868Z</time></trkpt><trkpt lat="45.49527667383109" lon="7.90416065614014"><ele>287.0</ele><time>2026-04-11T09:17:30.868Z</time></trkpt><trkpt lat="45.4954181782751" lon="7.904187999226938"><ele>287.0</ele><time>2026-04-11T09:17:31.868Z</time></trkpt><trkpt lat="45.49553488111431" lon="7.9042112079571965"><ele>287.0</ele><time>2026-04-11T09:17:32.867Z</time></trkpt><trkpt lat="45.49562475940217" lon="7.904244767322154"><ele>287.0</ele><time>2026-04-11T09:17:33.867Z</time></trkpt><trkpt lat="45.49569213891828" lon="7.904266307866217"><ele>287.0</ele><time>2026-04-11T09:17:34.868Z</time></trkpt><trkpt lat="45.49576317465775" lon="7.904283739846216"><ele>287.8</ele><time>2026-04-11T09:17:35.868Z</time></trkpt><trkpt lat="45.49583187609446" lon="7.9043005987984865"><ele>288.6</ele><time>2026-04-11T09:17:36.868Z</time></trkpt><trkpt lat="45.49593093180354" lon="7.904290366119646"><ele>289.40000000000003</ele><time>2026-04-11T09:17:37.867Z</time></trkpt><trkpt lat="45.49602601879072" lon="7.904299712613082"><ele>290.2</ele><time>2026-04-11T09:17:38.867Z</time></trkpt><trkpt lat="45.49610833084324" lon="7.904290448566106"><ele>291.0</ele><time>2026-04-11T09:17:39.867Z</time></trkpt><trkpt lat="45.496190010220445" lon="7.904170400814327"><ele>291.0</ele><time>2026-04-11T09:17:40.867Z</time></trkpt><trkpt lat="45.49623997178791" lon="7.904086017747534"><ele>291.0</ele><time>2026-04-11T09:17:41.867Z</time></trkpt><trkpt lat="45.496296141966596" lon="7.9040219850555"><ele>291.0</ele><time>2026-04-11T09:17:42.867Z</time></trkpt><trkpt lat="45.49637386913188" lon="7.9039406167723545"><ele>291.0</ele><time>2026-04-11T09:17:43.867Z</time></trkpt><trkpt lat="45.496456669700684" lon="7.903863363452349"><ele>291.0</ele><time>2026-04-11T09:17:44.867Z</time></trkpt><trkpt lat="45.496544047248804" lon="7.903808807773458"><ele>291.0</ele><time>2026-04-11T09:17:45.867Z</time></trkpt><trkpt lat="45.49663190283981" lon="7.90377659431478"><ele>292.5</ele><time>2026-04-11T09:17:46.867Z</time></trkpt><trkpt lat="45.49672559853391" lon="7.9037298258279645"><ele>294.0</ele><time>2026-04-11T09:17:47.867Z</time></trkpt><trkpt lat="45.49682374984862" lon="7.903727845985192"><ele>295.5</ele><time>2026-04-11T09:17:48.867Z</time></trkpt><trkpt lat="45.49690971201727" lon="7.9037224163181135"><ele>297.0</ele><time>2026-04-11T09:17:49.867Z</time></trkpt><trkpt lat="45.49699052662304" lon="7.903725235608137"><ele>298.5</ele><time>2026-04-11T09:17:50.866Z</time></trkpt><trkpt lat="45.497064188050665" lon="7.9037272905738405"><ele>300.0</ele><time>2026-04-11T09:17:51.866Z</time></trkpt><trkpt lat="45.497142319360236" lon="7.9038789380578445"><ele>300.6</ele><time>2026-04-11T09:17:55.866Z</time></trkpt><trkpt lat="45.49722278219199" lon="7.9039669026303025"><ele>301.2</ele><time>2026-04-11T09:17:56.866Z</time></trkpt><trkpt lat="45.497284459571745" lon="7.9040719076924475"><ele>301.8</ele><time>2026-04-11T09:17:57.866Z</time></trkpt><trkpt lat="45.497357123439286" lon="7.904182055485306"><ele>302.4</ele><time>2026-04-11T09:17:58.866Z</time></trkpt><trkpt lat="45.49741943302388" lon="7.904298901245445"><ele>303.0</ele><time>2026-04-11T09:17:59.866Z</time></trkpt><trkpt lat="45.497491636634344" lon="7.904396177556963"><ele>303.8</ele><time>2026-04-11T09:18:00.866Z</time></trkpt><trkpt lat="45.49755783092972" lon="7.9044783310917355"><ele>304.6</ele><time>2026-04-11T09:18:01.866Z</time></trkpt><trkpt lat="45.49763335117665" lon="7.904543063950019"><ele>305.4</ele><time>2026-04-11T09:18:02.866Z</time></trkpt><trkpt lat="45.49771528849584" lon="7.904542070715529"><ele>306.2</ele><time>2026-04-11T09:18:03.866Z</time></trkpt><trkpt lat="45.497839670577775" lon="7.904577541136864"><ele>307.0</ele><time>2026-04-11T09:18:05.866Z</time></trkpt><trkpt lat="45.49791301840953" lon="7.904577653029027"><ele>307.4</ele><time>2026-04-11T09:18:06.866Z</time></trkpt><trkpt lat="45.49799607324822" lon="7.90453898257573"><ele>307.79999999999995</ele><time>2026-04-11T09:18:07.866Z</time></trkpt><trkpt lat="45.49807634968561" lon="7.9044856718569845"><ele>308.2</ele><time>2026-04-11T09:18:08.866Z</time></trkpt><trkpt lat="45.498155969349455" lon="7.904397084238944"><ele>308.59999999999997</ele><time>2026-04-11T09:18:09.866Z</time></trkpt><trkpt lat="45.49825055101809" lon="7.9042926379893474"><ele>309.0</ele><time>2026-04-11T09:18:10.866Z</time></trkpt><trkpt lat="45.498340347113164" lon="7.904204568578442"><ele>309.59999999999997</ele><time>2026-04-11T09:18:11.865Z</time></trkpt><trkpt lat="45.498430715917124" lon="7.90411183673785"><ele>310.2</ele><time>2026-04-11T09:18:12.865Z</time></trkpt><trkpt lat="45.49852475921488" lon="7.90405965122342"><ele>310.79999999999995</ele><time>2026-04-11T09:18:13.865Z</time></trkpt><trkpt lat="45.49861459681437" lon="7.904015463760233"><ele>311.4</ele><time>2026-04-11T09:18:14.865Z</time></trkpt><trkpt lat="45.49869511974978" lon="7.9039416238059745"><ele>312.0</ele><time>2026-04-11T09:18:15.865Z</time></trkpt><trkpt lat="45.498779772644625" lon="7.9038745867399784"><ele>312.6666666666667</ele><time>2026-04-11T09:18:16.865Z</time></trkpt><trkpt lat="45.498839331119214" lon="7.903845157696227"><ele>313.3333333333333</ele><time>2026-04-11T09:18:17.865Z</time></trkpt><trkpt lat="45.49891269108768" lon="7.9038525260133845"><ele>314.0</ele><time>2026-04-11T09:18:19.865Z</time></trkpt><trkpt lat="45.498954765605895" lon="7.9039517586946735"><ele>314.66666666666663</ele><time>2026-04-11T09:18:21.865Z</time></trkpt><trkpt lat="45.49898253781332" lon="7.904083974530917"><ele>315.3333333333333</ele><time>2026-04-11T09:18:23.865Z</time></trkpt><trkpt lat="45.49903516325613" lon="7.904158381917675"><ele>316.0</ele><time>2026-04-11T09:18:25.865Z</time></trkpt><trkpt lat="45.49907837816628" lon="7.904237553058159"><ele>316.16666666666663</ele><time>2026-04-11T09:19:26.862Z</time></trkpt><trkpt lat="45.499127262727924" lon="7.904344335272243"><ele>316.3333333333333</ele><time>2026-04-11T09:19:28.862Z</time></trkpt><trkpt lat="45.49917437191071" lon="7.904440668360042"><ele>316.5</ele><time>2026-04-11T09:19:29.862Z</time></trkpt><trkpt lat="45.49921327096029" lon="7.904535819691299"><ele>316.6666666666667</ele><time>2026-04-11T09:19:30.862Z</time></trkpt><trkpt lat="45.499253749057225" lon="7.904627199868258"><ele>316.83333333333337</ele><time>2026-04-11T09:19:31.862Z</time></trkpt><trkpt lat="45.49931509163946" lon="7.904714409836652"><ele>317.0</ele><time>2026-04-11T09:19:32.862Z</time></trkpt><trkpt lat="45.499381235276815" lon="7.904794927252752"><ele>317.0</ele><time>2026-04-11T09:19:33.862Z</time></trkpt><trkpt lat="45.49945431106842" lon="7.904876374243004"><ele>317.0</ele><time>2026-04-11T09:19:34.864Z</time></trkpt><trkpt lat="45.49953973981617" lon="7.9049453051915"><ele>317.0</ele><time>2026-04-11T09:19:35.864Z</time></trkpt><trkpt lat="45.499624885346385" lon="7.905024075297822"><ele>317.0</ele><time>2026-04-11T09:19:36.864Z</time></trkpt><trkpt lat="45.49971006769244" lon="7.905109180784092"><ele>317.0</ele><time>2026-04-11T09:19:37.863Z</time></trkpt><trkpt lat="45.49979347739247" lon="7.9052048698288715"><ele>318.4</ele><time>2026-04-11T09:19:38.863Z</time></trkpt><trkpt lat="45.499869005575434" lon="7.905300912861477"><ele>319.79999999999995</ele><time>2026-04-11T09:19:39.863Z</time></trkpt><trkpt lat="45.49994545570614" lon="7.905384782253679"><ele>321.2</ele><time>2026-04-11T09:19:40.864Z</time></trkpt><trkpt lat="45.499994013235266" lon="7.905494066334492"><ele>322.59999999999997</ele><time>2026-04-11T09:19:41.864Z</time></trkpt><trkpt lat="45.50004728077981" lon="7.905593619653987"><ele>324.0</ele><time>2026-04-11T09:19:42.864Z</time></trkpt><trkpt lat="45.50009320511836" lon="7.905708889769791"><ele>324.0</ele><time>2026-04-11T09:19:43.864Z</time></trkpt><trkpt lat="45.50013238406546" lon="7.905835155338123"><ele>324.0</ele><time>2026-04-11T09:19:44.864Z</time></trkpt><trkpt lat="45.500172305906034" lon="7.905959870974277"><ele>324.0</ele><time>2026-04-11T09:19:45.864Z</time></trkpt><trkpt lat="45.500215421369276" lon="7.906056345638315"><ele>324.0</ele><time>2026-04-11T09:19:46.863Z</time></trkpt><trkpt lat="45.50027817820335" lon="7.906122618292135"><ele>324.0</ele><time>2026-04-11T09:19:47.863Z</time></trkpt><trkpt lat="45.50037562622462" lon="7.906181202205614"><ele>327.2</ele><time>2026-04-11T09:19:48.863Z</time></trkpt><trkpt lat="45.50048601903102" lon="7.906232614686385"><ele>330.4</ele><time>2026-04-11T09:19:49.863Z</time></trkpt><trkpt lat="45.500572904982995" lon="7.906279229565574"><ele>333.6</ele><time>2026-04-11T09:19:50.863Z</time></trkpt><trkpt lat="45.50064184424715" lon="7.906314283829022"><ele>336.8</ele><time>2026-04-11T09:19:51.863Z</time></trkpt><trkpt lat="45.50069398890251" lon="7.906384176685274"><ele>340.0</ele><time>2026-04-11T09:19:52.863Z</time></trkpt><trkpt lat="45.50071517627823" lon="7.906524750987345"><ele>340.0</ele><time>2026-04-11T09:19:53.863Z</time></trkpt><trkpt lat="45.50076259335493" lon="7.906690572619354"><ele>340.0</ele><time>2026-04-11T09:19:54.863Z</time></trkpt><trkpt lat="45.500811632814575" lon="7.90686596758444"><ele>340.0</ele><time>2026-04-11T09:19:55.863Z</time></trkpt><trkpt lat="45.50085506159901" lon="7.907020171474674"><ele>340.0</ele><time>2026-04-11T09:19:56.863Z</time></trkpt><trkpt lat="45.50089051058706" lon="7.9071532055645095"><ele>342.2</ele><time>2026-04-11T09:19:57.863Z</time></trkpt><trkpt lat="45.50092461089233" lon="7.907273973279609"><ele>344.4</ele><time>2026-04-11T09:19:58.862Z</time></trkpt><trkpt lat="45.500958485834055" lon="7.9073776571888885"><ele>346.6</ele><time>2026-04-11T09:19:59.862Z</time></trkpt><trkpt lat="45.501081473094395" lon="7.907444687934689"><ele>348.8</ele><time>2026-04-11T09:20:00.862Z</time></trkpt><trkpt lat="45.501214984026696" lon="7.907476950979317"><ele>351.0</ele><time>2026-04-11T09:20:01.862Z</time></trkpt><trkpt lat="45.50136437035488" lon="7.907539060858451"><ele>357.3333333333333</ele><time>2026-04-11T09:20:02.862Z</time></trkpt><trkpt lat="45.50152410078291" lon="7.90762712421702"><ele>363.66666666666663</ele><time>2026-04-11T09:20:03.862Z</time></trkpt><trkpt lat="45.5016635174806" lon="7.907701086511039"><ele>370.0</ele><time>2026-04-11T09:20:04.862Z</time></trkpt><trkpt lat="45.50180721383447" lon="7.907766685249356"><ele>370.0</ele><time>2026-04-11T09:20:05.862Z</time></trkpt><trkpt lat="45.501956497565146" lon="7.907839334612036"><ele>370.0</ele><time>2026-04-11T09:20:06.862Z</time></trkpt><trkpt lat="45.502105184841646" lon="7.907913725161324"><ele>370.0</ele><time>2026-04-11T09:20:07.862Z</time></trkpt><trkpt lat="45.50226409305152" lon="7.907991291989494"><ele>368.66666666666663</ele><time>2026-04-11T09:20:08.862Z</time></trkpt><trkpt lat="45.502418700422034" lon="7.908083349358017"><ele>367.3333333333333</ele><time>2026-04-11T09:20:09.862Z</time></trkpt><trkpt lat="45.502566095452714" lon="7.908176928285581"><ele>366.0</ele><time>2026-04-11T09:20:10.862Z</time></trkpt><trkpt lat="45.50270271734448" lon="7.908267607565983"><ele>366.0</ele><time>2026-04-11T09:20:11.862Z</time></trkpt><trkpt lat="45.50282484039751" lon="7.9083471518849615"><ele>366.0</ele><time>2026-04-11T09:20:12.862Z</time></trkpt><trkpt lat="45.50292920030932" lon="7.908420780733749"><ele>366.0</ele><time>2026-04-11T09:20:13.862Z</time></trkpt><trkpt lat="45.50301305653824" lon="7.908500434733382"><ele>366.0</ele><time>2026-04-11T09:20:14.862Z</time></trkpt><trkpt lat="45.50308168983153" lon="7.908580240829204"><ele>366.0</ele><time>2026-04-11T09:20:15.862Z</time></trkpt><trkpt lat="45.503136514936024" lon="7.9086357643857434"><ele>368.0</ele><time>2026-04-11T09:20:16.862Z</time></trkpt><trkpt lat="45.503253519051775" lon="7.908677348632011"><ele>370.0</ele><time>2026-04-11T09:20:18.862Z</time></trkpt><trkpt lat="45.503369207536906" lon="7.908547713692562"><ele>372.0</ele><time>2026-04-11T09:20:19.861Z</time></trkpt><trkpt lat="45.50349362361706" lon="7.908398841616898"><ele>374.0</ele><time>2026-04-11T09:20:20.861Z</time></trkpt><trkpt lat="45.50360956781467" lon="7.908233440809426"><ele>374.0</ele><time>2026-04-11T09:20:21.861Z</time></trkpt><trkpt lat="45.50373743284747" lon="7.908130107568516"><ele>374.0</ele><time>2026-04-11T09:20:22.861Z</time></trkpt><trkpt lat="45.50386073469444" lon="7.9080638831359025"><ele>374.0</ele><time>2026-04-11T09:20:23.861Z</time></trkpt><trkpt lat="45.50397805601647" lon="7.907957860520336"><ele>374.0</ele><time>2026-04-11T09:20:24.861Z</time></trkpt><trkpt lat="45.504069081107225" lon="7.907790892502837"><ele>377.33333333333337</ele><time>2026-04-11T09:20:25.861Z</time></trkpt><trkpt lat="45.504149943847004" lon="7.907579613301885"><ele>380.6666666666667</ele><time>2026-04-11T09:20:26.861Z</time></trkpt><trkpt lat="45.50423723655757" lon="7.907350507711837"><ele>384.0</ele><time>2026-04-11T09:20:27.861Z</time></trkpt><trkpt lat="45.504324643869545" lon="7.90712478557356"><ele>384.25</ele><time>2026-04-11T09:20:28.861Z</time></trkpt><trkpt lat="45.50440087850225" lon="7.906927915692805"><ele>384.5</ele><time>2026-04-11T09:20:29.861Z</time></trkpt><trkpt lat="45.504471430784" lon="7.906749601856362"><ele>384.75</ele><time>2026-04-11T09:20:30.861Z</time></trkpt><trkpt lat="45.504547584366854" lon="7.9065887510377095"><ele>385.0</ele><time>2026-04-11T09:20:31.861Z</time></trkpt><trkpt lat="45.50465113729775" lon="7.906449513360514"><ele>389.6666666666667</ele><time>2026-04-11T09:20:32.861Z</time></trkpt><trkpt lat="45.504779858462264" lon="7.90628962034337"><ele>394.33333333333337</ele><time>2026-04-11T09:20:33.861Z</time></trkpt><trkpt lat="45.504916382874896" lon="7.906119043765854"><ele>399.0</ele><time>2026-04-11T09:20:34.861Z</time></trkpt><trkpt lat="45.505054145166966" lon="7.905949011773681"><ele>397.66666666666663</ele><time>2026-04-11T09:20:35.861Z</time></trkpt><trkpt lat="45.505193191367525" lon="7.905780233846885"><ele>396.3333333333333</ele><time>2026-04-11T09:20:36.861Z</time></trkpt><trkpt lat="45.50533038381762" lon="7.905614621975757"><ele>395.0</ele><time>2026-04-11T09:20:37.861Z</time></trkpt><trkpt lat="45.50545865588267" lon="7.905459778577358"><ele>397.5</ele><time>2026-04-11T09:20:38.861Z</time></trkpt><trkpt lat="45.50557825724949" lon="7.905316219204882"><ele>400.0</ele><time>2026-04-11T09:20:39.861Z</time></trkpt><trkpt lat="45.50567975678963" lon="7.90519790608511"><ele>402.5</ele><time>2026-04-11T09:20:40.86Z</time></trkpt><trkpt lat="45.50576100714832" lon="7.905103196829436"><ele>405.0</ele><time>2026-04-11T09:20:41.86Z</time></trkpt><trkpt lat="45.5058086240267" lon="7.905025459778628"><ele>405.0</ele><time>2026-04-11T09:20:42.86Z</time></trkpt><trkpt lat="45.50591963121173" lon="7.905012585740931"><ele>405.0</ele><time>2026-04-11T09:20:44.86Z</time></trkpt><trkpt lat="45.50605756250841" lon="7.905161575785952"><ele>405.0</ele><time>2026-04-11T09:20:46.86Z</time></trkpt><trkpt lat="45.5061506038977" lon="7.905295548778011"><ele>405.0</ele><time>2026-04-11T09:20:47.86Z</time></trkpt><trkpt lat="45.5062459888" lon="7.905417167416688"><ele>407.75</ele><time>2026-04-11T09:20:48.86Z</time></trkpt><trkpt lat="45.50635962685085" lon="7.9055172002085685"><ele>410.5</ele><time>2026-04-11T09:20:49.86Z</time></trkpt><trkpt lat="45.50647140076602" lon="7.90559835812466"><ele>413.25</ele><time>2026-04-11T09:20:50.86Z</time></trkpt><trkpt lat="45.506567733673" lon="7.905702806726198"><ele>416.0</ele><time>2026-04-11T09:20:51.86Z</time></trkpt><trkpt lat="45.506639845123225" lon="7.905848623326227"><ele>420.3333333333333</ele><time>2026-04-11T09:20:52.86Z</time></trkpt><trkpt lat="45.506693273818456" lon="7.906042788275679"><ele>424.66666666666663</ele><time>2026-04-11T09:20:53.86Z</time></trkpt><trkpt lat="45.50674954752497" lon="7.906266710852561"><ele>429.0</ele><time>2026-04-11T09:20:54.86Z</time></trkpt><trkpt lat="45.5067963954352" lon="7.906476783171941"><ele>429.0</ele><time>2026-04-11T09:20:55.86Z</time></trkpt><trkpt lat="45.50682939502137" lon="7.906641470775684"><ele>429.0</ele><time>2026-04-11T09:20:56.86Z</time></trkpt><trkpt lat="45.50687292188233" lon="7.906776817361324"><ele>429.0</ele><time>2026-04-11T09:20:57.86Z</time></trkpt><trkpt lat="45.50694336132813" lon="7.906874824915786"><ele>429.0</ele><time>2026-04-11T09:20:58.86Z</time></trkpt><trkpt lat="45.50704477300031" lon="7.906934833377532"><ele>429.0</ele><time>2026-04-11T09:20:59.86Z</time></trkpt><trkpt lat="45.50717570447615" lon="7.906968859054291"><ele>430.5</ele><time>2026-04-11T09:21:00.86Z</time></trkpt><trkpt lat="45.5072968249087" lon="7.906960068207096"><ele>432.0</ele><time>2026-04-11T09:21:01.86Z</time></trkpt><trkpt lat="45.50741853043494" lon="7.9068980501402155"><ele>433.5</ele><time>2026-04-11T09:21:02.859Z</time></trkpt><trkpt lat="45.50753978350415" lon="7.906805952430977"><ele>435.0</ele><time>2026-04-11T09:21:03.859Z</time></trkpt><trkpt lat="45.50766533156246" lon="7.90672235049796"><ele>435.0</ele><time>2026-04-11T09:21:04.859Z</time></trkpt><trkpt lat="45.50778514065617" lon="7.906629583503263"><ele>435.0</ele><time>2026-04-11T09:21:05.859Z</time></trkpt><trkpt lat="45.50788745691218" lon="7.9065077630470295"><ele>435.0</ele><time>2026-04-11T09:21:06.859Z</time></trkpt><trkpt lat="45.50799935155266" lon="7.906361784188389"><ele>435.0</ele><time>2026-04-11T09:21:07.859Z</time></trkpt><trkpt lat="45.5081085144428" lon="7.906215187233444"><ele>440.25</ele><time>2026-04-11T09:21:08.859Z</time></trkpt><trkpt lat="45.50819737330719" lon="7.9060616651872095"><ele>445.5</ele><time>2026-04-11T09:21:09.859Z</time></trkpt><trkpt lat="45.50826845677414" lon="7.905902397955602"><ele>450.75</ele><time>2026-04-11T09:21:10.859Z</time></trkpt><trkpt lat="45.50831045521235" lon="7.905701586816468"><ele>456.0</ele><time>2026-04-11T09:21:11.859Z</time></trkpt><trkpt lat="45.508321533117" lon="7.905469922953276"><ele>456.0</ele><time>2026-04-11T09:21:12.859Z</time></trkpt><trkpt lat="45.50831991287636" lon="7.905252679193508"><ele>456.0</ele><time>2026-04-11T09:21:13.859Z</time></trkpt><trkpt lat="45.50830951711596" lon="7.905063298624048"><ele>456.0</ele><time>2026-04-11T09:21:14.859Z</time></trkpt><trkpt lat="45.50832406556691" lon="7.904905084381408"><ele>456.0</ele><time>2026-04-11T09:21:15.859Z</time></trkpt><trkpt lat="45.508362989360116" lon="7.904776407869312"><ele>456.75</ele><time>2026-04-11T09:21:16.859Z</time></trkpt><trkpt lat="45.50842326242841" lon="7.904656518530387"><ele>457.5</ele><time>2026-04-11T09:21:17.859Z</time></trkpt><trkpt lat="45.50852278440106" lon="7.904531744061478"><ele>458.25</ele><time>2026-04-11T09:21:18.859Z</time></trkpt><trkpt lat="45.508651203189835" lon="7.9043817369438045"><ele>459.0</ele><time>2026-04-11T09:21:19.859Z</time></trkpt><trkpt lat="45.508766036411544" lon="7.904238142222304"><ele>461.6</ele><time>2026-04-11T09:21:20.859Z</time></trkpt><trkpt lat="45.5088766580656" lon="7.9041328527520225"><ele>464.2</ele><time>2026-04-11T09:21:21.859Z</time></trkpt><trkpt lat="45.50897645909691" lon="7.90406099604631"><ele>466.80000000000007</ele><time>2026-04-11T09:21:22.859Z</time></trkpt><trkpt lat="45.50907275183258" lon="7.904027661888813"><ele>469.40000000000003</ele><time>2026-04-11T09:21:23.858Z</time></trkpt><trkpt lat="45.50915403569632" lon="7.9040565760482675"><ele>472.0</ele><time>2026-04-11T09:21:24.858Z</time></trkpt><trkpt lat="45.50924944028068" lon="7.904129122799152"><ele>472.0</ele><time>2026-04-11T09:21:25.858Z</time></trkpt><trkpt lat="45.5093301877396" lon="7.904223692392809"><ele>472.00000000000006</ele><time>2026-04-11T09:21:26.858Z</time></trkpt><trkpt lat="45.509379309881446" lon="7.904334793628591"><ele>472.00000000000006</ele><time>2026-04-11T09:21:27.858Z</time></trkpt><trkpt lat="45.50939498471607" lon="7.904453077922161"><ele>472.0</ele><time>2026-04-11T09:21:28.858Z</time></trkpt><trkpt lat="45.50938787936208" lon="7.904603746203535"><ele>472.0</ele><time>2026-04-11T09:21:29.858Z</time></trkpt><trkpt lat="45.50935343273379" lon="7.9048005944963595"><ele>473.6666666666667</ele><time>2026-04-11T09:21:30.858Z</time></trkpt><trkpt lat="45.509297329870314" lon="7.9050480834248935"><ele>475.33333333333337</ele><time>2026-04-11T09:21:31.858Z</time></trkpt><trkpt lat="45.50922689598978" lon="7.905325956999706"><ele>477.0</ele><time>2026-04-11T09:21:32.858Z</time></trkpt><trkpt lat="45.50914711706111" lon="7.905592534283794"><ele>482.66666666666663</ele><time>2026-04-11T09:21:33.858Z</time></trkpt><trkpt lat="45.50905948173094" lon="7.905867102193185"><ele>488.3333333333333</ele><time>2026-04-11T09:21:34.858Z</time></trkpt><trkpt lat="45.508973476449974" lon="7.906137563084898"><ele>494.0</ele><time>2026-04-11T09:21:35.858Z</time></trkpt><trkpt lat="45.50887946960742" lon="7.9064066684724414"><ele>493.3333333333333</ele><time>2026-04-11T09:21:36.858Z</time></trkpt><trkpt lat="45.508797935299505" lon="7.906689847930363"><ele>492.66666666666663</ele><time>2026-04-11T09:21:37.858Z</time></trkpt><trkpt lat="45.50872261351306" lon="7.906985643064163"><ele>492.0</ele><time>2026-04-11T09:21:38.858Z</time></trkpt><trkpt lat="45.5086560589036" lon="7.907260496131286"><ele>492.0</ele><time>2026-04-11T09:21:39.858Z</time></trkpt><trkpt lat="45.50859683823007" lon="7.907509711136675"><ele>492.0</ele><time>2026-04-11T09:21:40.86Z</time></trkpt><trkpt lat="45.50854577327191" lon="7.907710600175927"><ele>492.0</ele><time>2026-04-11T09:21:41.86Z</time></trkpt><trkpt lat="45.50847921581603" lon="7.907853457037086"><ele>492.8</ele><time>2026-04-11T09:21:42.86Z</time></trkpt><trkpt lat="45.50843718568675" lon="7.907977296071563"><ele>493.6</ele><time>2026-04-11T09:21:43.86Z</time></trkpt><trkpt lat="45.50840683767886" lon="7.908068486707537"><ele>494.40000000000003</ele><time>2026-04-11T09:21:44.86Z</time></trkpt><trkpt lat="45.508429853317026" lon="7.908223208521945"><ele>495.20000000000005</ele><time>2026-04-11T09:21:46.859Z</time></trkpt><trkpt lat="45.50850213685998" lon="7.908244840224247"><ele>496.0</ele><time>2026-04-11T09:21:48.86Z</time></trkpt><trkpt lat="45.50857309285783" lon="7.908111445875688"><ele>496.0</ele><time>2026-04-11T09:21:50.859Z</time></trkpt><trkpt lat="45.50860286387346" lon="7.907954088784213"><ele>496.0</ele><time>2026-04-11T09:21:51.859Z</time></trkpt><trkpt lat="45.50868667761428" lon="7.90779833699281"><ele>496.0</ele><time>2026-04-11T09:21:52.859Z</time></trkpt><trkpt lat="45.50880530792452" lon="7.907641748092016"><ele>496.0</ele><time>2026-04-11T09:21:53.859Z</time></trkpt><trkpt lat="45.50890362176515" lon="7.907439293716652"><ele>508.6666666666667</ele><time>2026-04-11T09:21:54.859Z</time></trkpt><trkpt lat="45.50901650869227" lon="7.907263013633988"><ele>521.3333333333334</ele><time>2026-04-11T09:21:55.859Z</time></trkpt><trkpt lat="45.50913700346548" lon="7.907079398807102"><ele>534.0</ele><time>2026-04-11T09:21:56.859Z</time></trkpt><trkpt lat="45.50925645590384" lon="7.906900283007913"><ele>529.5</ele><time>2026-04-11T09:21:57.859Z</time></trkpt><trkpt lat="45.509355045457" lon="7.906740177968386"><ele>525.0</ele><time>2026-04-11T09:21:58.859Z</time></trkpt><trkpt lat="45.50944115798659" lon="7.9065949027201965"><ele>520.5</ele><time>2026-04-11T09:21:59.859Z</time></trkpt><trkpt lat="45.50953888659539" lon="7.906446886811108"><ele>516.0</ele><time>2026-04-11T09:22:00.859Z</time></trkpt><trkpt lat="45.50965210849044" lon="7.906296850040895"><ele>521.25</ele><time>2026-04-11T09:22:01.859Z</time></trkpt><trkpt lat="45.5097601022488" lon="7.9061633060203516"><ele>526.5</ele><time>2026-04-11T09:22:02.858Z</time></trkpt><trkpt lat="45.50985963940863" lon="7.906025100021198"><ele>531.75</ele><time>2026-04-11T09:22:03.858Z</time></trkpt><trkpt lat="45.509952390438336" lon="7.905854805034113"><ele>537.0</ele><time>2026-04-11T09:22:04.858Z</time></trkpt><trkpt lat="45.51007233362595" lon="7.905674456042557"><ele>537.0</ele><time>2026-04-11T09:22:05.858Z</time></trkpt><trkpt lat="45.51021774312917" lon="7.905467223863329"><ele>537.0</ele><time>2026-04-11T09:22:06.858Z</time></trkpt><trkpt lat="45.510382139893956" lon="7.905260472294297"><ele>537.0</ele><time>2026-04-11T09:22:07.858Z</time></trkpt><trkpt lat="45.51055759677874" lon="7.9050337077732475"><ele>550.0</ele><time>2026-04-11T09:22:08.858Z</time></trkpt><trkpt lat="45.51073721519635" lon="7.904792391575377"><ele>563.0</ele><time>2026-04-11T09:22:09.858Z</time></trkpt><trkpt lat="45.51091738377376" lon="7.904553554752585"><ele>563.0</ele><time>2026-04-11T09:22:10.858Z</time></trkpt><trkpt lat="45.51109177617281" lon="7.904321507519547"><ele>563.0</ele><time>2026-04-11T09:22:11.858Z</time></trkpt><trkpt lat="45.51125880982291" lon="7.904066885284072"><ele>572.5</ele><time>2026-04-11T09:22:12.858Z</time></trkpt><trkpt lat="45.511426854299366" lon="7.903820141555465"><ele>582.0</ele><time>2026-04-11T09:22:13.858Z</time></trkpt><trkpt lat="45.51159227814374" lon="7.903600354362965"><ele>574.0</ele><time>2026-04-11T09:22:14.858Z</time></trkpt><trkpt lat="45.51173593047298" lon="7.903407114427584"><ele>566.0</ele><time>2026-04-11T09:22:15.858Z</time></trkpt><trkpt lat="45.51186418615477" lon="7.903218832520588"><ele>558.0</ele><time>2026-04-11T09:22:16.858Z</time></trkpt><trkpt lat="45.512006935078844" lon="7.903038252830999"><ele>564.3333333333334</ele><time>2026-04-11T09:22:17.858Z</time></trkpt><trkpt lat="45.51217077120354" lon="7.9028696203248705"><ele>570.6666666666667</ele><time>2026-04-11T09:22:18.858Z</time></trkpt><trkpt lat="45.51234646656327" lon="7.90269527170448"><ele>577.0</ele><time>2026-04-11T09:22:19.858Z</time></trkpt><trkpt lat="45.51252860346193" lon="7.902521608521867"><ele>577.0</ele><time>2026-04-11T09:22:20.858Z</time></trkpt><trkpt lat="45.51270732834092" lon="7.902364302118555"><ele>577.0</ele><time>2026-04-11T09:22:21.858Z</time></trkpt><trkpt lat="45.51286902113352" lon="7.9021964923114565"><ele>577.0</ele><time>2026-04-11T09:22:22.858Z</time></trkpt><trkpt lat="45.513019925207196" lon="7.902024515433511"><ele>579.6666666666667</ele><time>2026-04-11T09:22:23.857Z</time></trkpt><trkpt lat="45.51315940366641" lon="7.901843386764303"><ele>582.3333333333334</ele><time>2026-04-11T09:22:24.857Z</time></trkpt><trkpt lat="45.51328489965748" lon="7.901636032442247"><ele>585.0</ele><time>2026-04-11T09:22:25.857Z</time></trkpt><trkpt lat="45.513414874391366" lon="7.901406289288386"><ele>585.0</ele><time>2026-04-11T09:22:26.857Z</time></trkpt><trkpt lat="45.51353426447975" lon="7.901205302922229"><ele>585.0</ele><time>2026-04-11T09:22:27.857Z</time></trkpt><trkpt lat="45.51363841052686" lon="7.901049347917178"><ele>585.0</ele><time>2026-04-11T09:22:28.857Z</time></trkpt><trkpt lat="45.513722237395775" lon="7.9009219409044755"><ele>587.4</ele><time>2026-04-11T09:22:29.857Z</time></trkpt><trkpt lat="45.513797263206676" lon="7.900851499187806"><ele>589.8</ele><time>2026-04-11T09:22:30.857Z</time></trkpt><trkpt lat="45.51390811223699" lon="7.9008493430967786"><ele>592.2</ele><time>2026-04-11T09:22:32.857Z</time></trkpt><trkpt lat="45.51399123135083" lon="7.900893239862012"><ele>594.6</ele><time>2026-04-11T09:22:34.857Z</time></trkpt><trkpt lat="45.513998660277984" lon="7.901014728073202"><ele>597.0</ele><time>2026-04-11T09:22:35.857Z</time></trkpt><trkpt lat="45.51395019948561" lon="7.901181213375826"><ele>598.2</ele><time>2026-04-11T09:22:37.857Z</time></trkpt><trkpt lat="45.51389192530983" lon="7.901280494163369"><ele>599.4000000000001</ele><time>2026-04-11T09:22:38.857Z</time></trkpt><trkpt lat="45.51381494855398" lon="7.901389956068233"><ele>600.5999999999999</ele><time>2026-04-11T09:22:39.857Z</time></trkpt><trkpt lat="45.51375107018469" lon="7.90148522825517"><ele>601.8</ele><time>2026-04-11T09:22:40.857Z</time></trkpt><trkpt lat="45.51369785478358" lon="7.901610596581189"><ele>603.0</ele><time>2026-04-11T09:22:41.857Z</time></trkpt><trkpt lat="45.51364628182446" lon="7.90175464923699"><ele>603.0</ele><time>2026-04-11T09:22:42.857Z</time></trkpt><trkpt lat="45.51361025456944" lon="7.9019316541308555"><ele>603.0</ele><time>2026-04-11T09:22:43.857Z</time></trkpt><trkpt lat="45.513591430273" lon="7.902140132805522"><ele>603.0</ele><time>2026-04-11T09:22:44.856Z</time></trkpt><trkpt lat="45.513587270489495" lon="7.902355576276674"><ele>603.0</ele><time>2026-04-11T09:22:45.856Z</time></trkpt><trkpt lat="45.513612102316046" lon="7.90254889782185"><ele>604.0</ele><time>2026-04-11T09:22:46.856Z</time></trkpt><trkpt lat="45.51366201990378" lon="7.902738492031263"><ele>605.0</ele><time>2026-04-11T09:22:47.856Z</time></trkpt><trkpt lat="45.51374105425139" lon="7.902920250829377"><ele>606.0</ele><time>2026-04-11T09:22:48.856Z</time></trkpt><trkpt lat="45.51385434878532" lon="7.903093551666041"><ele>611.6666666666666</ele><time>2026-04-11T09:22:49.856Z</time></trkpt><trkpt lat="45.51397439221796" lon="7.903303195736726"><ele>617.3333333333333</ele><time>2026-04-11T09:22:50.856Z</time></trkpt><trkpt lat="45.514117390982946" lon="7.903514263154278"><ele>623.0</ele><time>2026-04-11T09:22:51.856Z</time></trkpt><trkpt lat="45.51428322284787" lon="7.903761267125385"><ele>628.6666666666666</ele><time>2026-04-11T09:22:52.856Z</time></trkpt><trkpt lat="45.514477375781894" lon="7.9040504549922"><ele>634.3333333333334</ele><time>2026-04-11T09:22:53.856Z</time></trkpt><trkpt lat="45.51438331831038" lon="7.904013484606351"><ele>640.0</ele><time>2026-04-11T09:22:54.856Z</time></trkpt><trkpt lat="45.51449792368821" lon="7.904199732395601"><ele>661.3333333333334</ele><time>2026-04-11T09:22:55.856Z</time></trkpt><trkpt lat="45.51461231665829" lon="7.904386824904264"><ele>682.6666666666666</ele><time>2026-04-11T09:22:56.856Z</time></trkpt><trkpt lat="45.51472692589771" lon="7.904573096236244"><ele>704.0</ele><time>2026-04-11T09:22:57.856Z</time></trkpt><trkpt lat="45.51585616879095" lon="7.90606480310298"><ele>758.0</ele><time>2026-04-11T09:23:01.415Z</time></trkpt><trkpt lat="45.51616693813737" lon="7.906530502390396"><ele>765.0</ele><time>2026-04-11T09:23:02.418Z</time></trkpt><trkpt lat="45.516476544942286" lon="7.906992484648616"><ele>772.0</ele><time>2026-04-11T09:23:03.416Z</time></trkpt><trkpt lat="45.51678715101645" lon="7.907453620763377"><ele>765.0</ele><time>2026-04-11T09:23:04.414Z</time></trkpt><trkpt lat="45.51709907545861" lon="7.907916714171133"><ele>765.0</ele><time>2026-04-11T09:23:05.416Z</time></trkpt><trkpt lat="45.51740981331057" lon="7.908379453438175"><ele>765.0</ele><time>2026-04-11T09:23:06.416Z</time></trkpt><trkpt lat="45.51772034500972" lon="7.908842169211244"><ele>745.0</ele><time>2026-04-11T09:23:07.416Z</time></trkpt><trkpt lat="45.51803104760866" lon="7.909305139637959"><ele>725.0</ele><time>2026-04-11T09:23:08.416Z</time></trkpt><trkpt lat="45.51834165944369" lon="7.9097679748195855"><ele>722.0</ele><time>2026-04-11T09:23:09.416Z</time></trkpt><trkpt lat="45.5186022" lon="7.9101562"><ele>719.0</ele><time>2026-04-11T09:23:10.415Z</time></trkpt><trkpt lat="45.52198421957743" lon="7.914785615911157"><ele>606.0</ele><time>2026-04-11T09:23:36.854Z</time></trkpt><trkpt lat="45.52215752762405" lon="7.915468434816159"><ele>606.0</ele><time>2026-04-11T09:23:37.854Z</time></trkpt><trkpt lat="45.522307452879055" lon="7.915712371423799"><ele>606.0</ele><time>2026-04-11T09:23:38.854Z</time></trkpt><trkpt lat="45.52241973165019" lon="7.915949354939661"><ele>606.0</ele><time>2026-04-11T09:23:39.854Z</time></trkpt><trkpt lat="45.522516615505374" lon="7.9162147771621925"><ele>607.0</ele><time>2026-04-11T09:23:40.854Z</time></trkpt><trkpt lat="45.52260194730216" lon="7.916484292439465"><ele>608.0</ele><time>2026-04-11T09:23:41.854Z</time></trkpt><trkpt lat="45.52265031362911" lon="7.916794603631391"><ele>609.0</ele><time>2026-04-11T09:23:42.854Z</time></trkpt><trkpt lat="45.52267994311031" lon="7.917111355944049"><ele>605.0</ele><time>2026-04-11T09:23:43.854Z</time></trkpt><trkpt lat="45.52267160761365" lon="7.917428607347598"><ele>601.0</ele><time>2026-04-11T09:23:44.854Z</time></trkpt><trkpt lat="45.522641825758555" lon="7.917759861210895"><ele>599.5</ele><time>2026-04-11T09:23:45.856Z</time></trkpt><trkpt lat="45.52260207365156" lon="7.91810895894923"><ele>598.0</ele><time>2026-04-11T09:23:46.855Z</time></trkpt><trkpt lat="45.52255378857734" lon="7.918481731760548"><ele>597.0</ele><time>2026-04-11T09:23:47.855Z</time></trkpt><trkpt lat="45.52252042863592" lon="7.918858258937208"><ele>596.0</ele><time>2026-04-11T09:23:48.855Z</time></trkpt><trkpt lat="45.52248410920026" lon="7.919237035418675"><ele>595.5</ele><time>2026-04-11T09:23:49.856Z</time></trkpt><trkpt lat="45.52245243979356" lon="7.9196085549202895"><ele>595.0</ele><time>2026-04-11T09:23:50.855Z</time></trkpt><trkpt lat="45.52242264543203" lon="7.919984692513419"><ele>595.0</ele><time>2026-04-11T09:23:51.855Z</time></trkpt><trkpt lat="45.52238870318177" lon="7.920354287832782"><ele>595.0</ele><time>2026-04-11T09:23:52.856Z</time></trkpt><trkpt lat="45.52234983111342" lon="7.920704705145565"><ele>594.5</ele><time>2026-04-11T09:23:53.856Z</time></trkpt><trkpt lat="45.52231345602996" lon="7.92103523181721"><ele>594.0</ele><time>2026-04-11T09:23:54.855Z</time></trkpt><trkpt lat="45.52227869869581" lon="7.9213704292462195"><ele>594.0</ele><time>2026-04-11T09:23:55.855Z</time></trkpt><trkpt lat="45.52225111100816" lon="7.921697580556779"><ele>594.0</ele><time>2026-04-11T09:23:56.855Z</time></trkpt><trkpt lat="45.522222130514365" lon="7.922021960457683"><ele>595.0</ele><time>2026-04-11T09:23:57.855Z</time></trkpt><trkpt lat="45.52219077166417" lon="7.922344997251096"><ele>596.0</ele><time>2026-04-11T09:23:58.856Z</time></trkpt><trkpt lat="45.522150876399216" lon="7.922668617099756"><ele>598.0</ele><time>2026-04-11T09:23:59.856Z</time></trkpt><trkpt lat="45.52208899819815" lon="7.923004710415144"><ele>600.0</ele><time>2026-04-11T09:24:00.856Z</time></trkpt><trkpt lat="45.52200324793929" lon="7.923339853645874"><ele>589.0</ele><time>2026-04-11T09:24:01.855Z</time></trkpt><trkpt lat="45.52189035607785" lon="7.923687672441685"><ele>578.0</ele><time>2026-04-11T09:24:02.855Z</time></trkpt><trkpt lat="45.521766771308315" lon="7.924036635845659"><ele>581.5</ele><time>2026-04-11T09:24:03.855Z</time></trkpt><trkpt lat="45.52164292932377" lon="7.924391480132128"><ele>585.0</ele><time>2026-04-11T09:24:04.855Z</time></trkpt><trkpt lat="45.5215226308827" lon="7.9247469089842975"><ele>591.0</ele><time>2026-04-11T09:24:05.855Z</time></trkpt><trkpt lat="45.52140554826748" lon="7.925094915847623"><ele>597.0</ele><time>2026-04-11T09:24:06.855Z</time></trkpt><trkpt lat="45.52128857158252" lon="7.925441801171682"><ele>584.0</ele><time>2026-04-11T09:24:07.855Z</time></trkpt><trkpt lat="45.52117582138568" lon="7.925789115692088"><ele>571.0</ele><time>2026-04-11T09:24:08.855Z</time></trkpt><trkpt lat="45.521072301116874" lon="7.926143349905146"><ele>571.0</ele><time>2026-04-11T09:24:09.855Z</time></trkpt><trkpt lat="45.520980372956295" lon="7.926499349364539"><ele>571.0</ele><time>2026-04-11T09:24:10.855Z</time></trkpt><trkpt lat="45.520904712588916" lon="7.926857400911003"><ele>571.5</ele><time>2026-04-11T09:24:11.855Z</time></trkpt><trkpt lat="45.52083979270661" lon="7.927208819996259"><ele>572.0</ele><time>2026-04-11T09:24:12.855Z</time></trkpt><trkpt lat="45.52079307679982" lon="7.927552796400006"><ele>570.5</ele><time>2026-04-11T09:24:13.854Z</time></trkpt><trkpt lat="45.52075875219867" lon="7.927888516097261"><ele>569.0</ele><time>2026-04-11T09:24:14.854Z</time></trkpt><trkpt lat="45.520745578324004" lon="7.928235102404621"><ele>569.0</ele><time>2026-04-11T09:24:15.853Z</time></trkpt><trkpt lat="45.52075296052389" lon="7.928576987364715"><ele>569.0</ele><time>2026-04-11T09:24:16.853Z</time></trkpt><trkpt lat="45.5207691227716" lon="7.9289278140540524"><ele>567.0</ele><time>2026-04-11T09:24:17.853Z</time></trkpt><trkpt lat="45.52079048325208" lon="7.929276807671684"><ele>565.0</ele><time>2026-04-11T09:24:18.852Z</time></trkpt><trkpt lat="45.520803676505736" lon="7.929610276972801"><ele>565.0</ele><time>2026-04-11T09:24:19.852Z</time></trkpt><trkpt lat="45.52081503586311" lon="7.9299222517282715"><ele>565.0</ele><time>2026-04-11T09:24:20.851Z</time></trkpt><trkpt lat="45.52082263684343" lon="7.930222284719446"><ele>565.0</ele><time>2026-04-11T09:24:21.851Z</time></trkpt><trkpt lat="45.52081409756317" lon="7.930520825483404"><ele>563.3333333333334</ele><time>2026-04-11T09:24:22.851Z</time></trkpt><trkpt lat="45.52082229920538" lon="7.9308291164474065"><ele>561.6666666666666</ele><time>2026-04-11T09:24:23.85Z</time></trkpt><trkpt lat="45.52083083451588" lon="7.931149949757415"><ele>560.0</ele><time>2026-04-11T09:24:24.85Z</time></trkpt><trkpt lat="45.520839215579045" lon="7.931464730213481"><ele>558.0</ele><time>2026-04-11T09:24:25.85Z</time></trkpt><trkpt lat="45.52084914711517" lon="7.931782458074648"><ele>556.0</ele><time>2026-04-11T09:24:26.85Z</time></trkpt><trkpt lat="45.520860267835154" lon="7.932089995245415"><ele>554.0</ele><time>2026-04-11T09:24:27.849Z</time></trkpt><trkpt lat="45.52088396904659" lon="7.932368804937801"><ele>553.0</ele><time>2026-04-11T09:24:28.849Z</time></trkpt><trkpt lat="45.520894090682766" lon="7.932640909365068"><ele>552.0</ele><time>2026-04-11T09:24:29.849Z</time></trkpt><trkpt lat="45.52091569573287" lon="7.93289851790438"><ele>551.0</ele><time>2026-04-11T09:24:30.849Z</time></trkpt><trkpt lat="45.52096075979077" lon="7.933138093389173"><ele>551.0</ele><time>2026-04-11T09:24:31.848Z</time></trkpt><trkpt lat="45.52099002045367" lon="7.933386235317328"><ele>551.0</ele><time>2026-04-11T09:24:32.848Z</time></trkpt><trkpt lat="45.52103371450134" lon="7.9336384600319985"><ele>551.0</ele><time>2026-04-11T09:24:33.848Z</time></trkpt><trkpt lat="45.52108394263179" lon="7.933927226499466"><ele>545.0</ele><time>2026-04-11T09:24:34.848Z</time></trkpt><trkpt lat="45.52113828256757" lon="7.934238212736095"><ele>539.0</ele><time>2026-04-11T09:24:35.848Z</time></trkpt><trkpt lat="45.52119098455718" lon="7.934559371397022"><ele>549.5</ele><time>2026-04-11T09:24:36.847Z</time></trkpt><trkpt lat="45.52124152391196" lon="7.934888488337484"><ele>560.0</ele><time>2026-04-11T09:24:37.847Z</time></trkpt><trkpt lat="45.52128543624364" lon="7.9352080180035465"><ele>560.0</ele><time>2026-04-11T09:24:38.847Z</time></trkpt><trkpt lat="45.52133415138195" lon="7.935535427487489"><ele>560.0</ele><time>2026-04-11T09:24:39.847Z</time></trkpt><trkpt lat="45.52140590965955" lon="7.935867267918641"><ele>553.5</ele><time>2026-04-11T09:24:40.847Z</time></trkpt><trkpt lat="45.52149734306599" lon="7.936203770620547"><ele>547.0</ele><time>2026-04-11T09:24:41.847Z</time></trkpt><trkpt lat="45.521572314760284" lon="7.936586414524605"><ele>543.0</ele><time>2026-04-11T09:24:42.847Z</time></trkpt><trkpt lat="45.52165872016568" lon="7.937007521695697"><ele>539.0</ele><time>2026-04-11T09:24:43.846Z</time></trkpt><trkpt lat="45.521735558921286" lon="7.937441519208184"><ele>535.0</ele><time>2026-04-11T09:24:44.846Z</time></trkpt><trkpt lat="45.52181026416777" lon="7.937864932011582"><ele>531.0</ele><time>2026-04-11T09:24:45.846Z</time></trkpt><trkpt lat="45.52187094388021" lon="7.938300067442532"><ele>529.5</ele><time>2026-04-11T09:24:46.846Z</time></trkpt><trkpt lat="45.52192647674708" lon="7.938734301647547"><ele>528.0</ele><time>2026-04-11T09:24:47.846Z</time></trkpt><trkpt lat="45.521979597955884" lon="7.939160608570395"><ele>526.0</ele><time>2026-04-11T09:24:48.846Z</time></trkpt><trkpt lat="45.522027811304156" lon="7.9395700682280665"><ele>524.0</ele><time>2026-04-11T09:24:49.846Z</time></trkpt><trkpt lat="45.52208384788096" lon="7.939965200493739"><ele>540.5</ele><time>2026-04-11T09:24:50.846Z</time></trkpt><trkpt lat="45.522141448197445" lon="7.940348415818783"><ele>557.0</ele><time>2026-04-11T09:24:51.846Z</time></trkpt><trkpt lat="45.52217953942028" lon="7.940726884166573"><ele>555.5</ele><time>2026-04-11T09:24:52.846Z</time></trkpt><trkpt lat="45.522218340586846" lon="7.9411306337913015"><ele>554.0</ele><time>2026-04-11T09:24:53.845Z</time></trkpt><trkpt lat="45.52226838426729" lon="7.941532264019252"><ele>548.5</ele><time>2026-04-11T09:24:54.845Z</time></trkpt><trkpt lat="45.522275740479984" lon="7.9419406731340905"><ele>543.0</ele><time>2026-04-11T09:24:55.845Z</time></trkpt><trkpt lat="45.522277244054905" lon="7.9423726576641736"><ele>543.0</ele><time>2026-04-11T09:24:56.845Z</time></trkpt><trkpt lat="45.52228001820644" lon="7.9428084913732615"><ele>543.0</ele><time>2026-04-11T09:24:57.845Z</time></trkpt><trkpt lat="45.522281088415866" lon="7.943253458003201"><ele>539.5</ele><time>2026-04-11T09:24:58.845Z</time></trkpt><trkpt lat="45.522282170894286" lon="7.9437035176026525"><ele>536.0</ele><time>2026-04-11T09:24:59.845Z</time></trkpt><trkpt lat="45.522284328187695" lon="7.944167405184232"><ele>534.0</ele><time>2026-04-11T09:25:00.845Z</time></trkpt><trkpt lat="45.522302152550104" lon="7.944633852858381"><ele>532.0</ele><time>2026-04-11T09:25:01.845Z</time></trkpt><trkpt lat="45.52229759231688" lon="7.945094257651755"><ele>532.0</ele><time>2026-04-11T09:25:02.845Z</time></trkpt><trkpt lat="45.52229687760821" lon="7.945529300449703"><ele>532.0</ele><time>2026-04-11T09:25:03.845Z</time></trkpt><trkpt lat="45.52229275597781" lon="7.945954286749095"><ele>533.5</ele><time>2026-04-11T09:25:04.845Z</time></trkpt><trkpt lat="45.522288039067554" lon="7.946352828238749"><ele>535.0</ele><time>2026-04-11T09:25:05.845Z</time></trkpt><trkpt lat="45.52226543817024" lon="7.946738814029011"><ele>537.0</ele><time>2026-04-11T09:25:06.845Z</time></trkpt><trkpt lat="45.522236566289486" lon="7.947115786161702"><ele>539.0</ele><time>2026-04-11T09:25:07.844Z</time></trkpt><trkpt lat="45.52218926586502" lon="7.947494547957573"><ele>539.0</ele><time>2026-04-11T09:25:08.844Z</time></trkpt><trkpt lat="45.52213492089624" lon="7.947873882590438"><ele>539.0</ele><time>2026-04-11T09:25:09.844Z</time></trkpt><trkpt lat="45.522079373429385" lon="7.948245174206638"><ele>521.0</ele><time>2026-04-11T09:25:10.844Z</time></trkpt><trkpt lat="45.522018293024885" lon="7.94863955726656"><ele>503.0</ele><time>2026-04-11T09:25:11.844Z</time></trkpt><trkpt lat="45.5219589434329" lon="7.949023851803397"><ele>502.0</ele><time>2026-04-11T09:25:12.844Z</time></trkpt><trkpt lat="45.52190251329223" lon="7.94941189267036"><ele>501.0</ele><time>2026-04-11T09:25:13.844Z</time></trkpt><trkpt lat="45.521847343883735" lon="7.949784604538306"><ele>501.5</ele><time>2026-04-11T09:25:14.844Z</time></trkpt><trkpt lat="45.52179911347349" lon="7.950138484988107"><ele>502.0</ele><time>2026-04-11T09:25:15.844Z</time></trkpt><trkpt lat="45.52175133615727" lon="7.950469007959631"><ele>502.0</ele><time>2026-04-11T09:25:16.844Z</time></trkpt><trkpt lat="45.52171095861695" lon="7.950789275247741"><ele>502.0</ele><time>2026-04-11T09:25:17.844Z</time></trkpt><trkpt lat="45.52164681783112" lon="7.951109774487999"><ele>503.5</ele><time>2026-04-11T09:25:18.844Z</time></trkpt><trkpt lat="45.52157515387384" lon="7.951432585519559"><ele>505.0</ele><time>2026-04-11T09:25:19.844Z</time></trkpt><trkpt lat="45.52146595326587" lon="7.951771111287814"><ele>510.5</ele><time>2026-04-11T09:25:20.844Z</time></trkpt><trkpt lat="45.52136523866094" lon="7.95209805847683"><ele>516.0</ele><time>2026-04-11T09:25:21.844Z</time></trkpt><trkpt lat="45.52126113588989" lon="7.952424967219065"><ele>505.0</ele><time>2026-04-11T09:25:22.844Z</time></trkpt><trkpt lat="45.521150265797424" lon="7.952751598799342"><ele>494.0</ele><time>2026-04-11T09:25:23.844Z</time></trkpt><trkpt lat="45.521028416351406" lon="7.953061160110382"><ele>494.0</ele><time>2026-04-11T09:25:24.843Z</time></trkpt><trkpt lat="45.52089561060887" lon="7.953362012155486"><ele>494.0</ele><time>2026-04-11T09:25:25.843Z</time></trkpt><trkpt lat="45.52073967255765" lon="7.9536519132728785"><ele>493.0</ele><time>2026-04-11T09:25:26.843Z</time></trkpt><trkpt lat="45.52057539854824" lon="7.953945232907167"><ele>492.0</ele><time>2026-04-11T09:25:27.843Z</time></trkpt><trkpt lat="45.52039568118804" lon="7.954234065401406"><ele>492.0</ele><time>2026-04-11T09:25:28.843Z</time></trkpt><trkpt lat="45.52021983432819" lon="7.95453736538028"><ele>492.0</ele><time>2026-04-11T09:25:29.843Z</time></trkpt><trkpt lat="45.520046922504626" lon="7.954828658395283"><ele>500.5</ele><time>2026-04-11T09:25:30.843Z</time></trkpt><trkpt lat="45.5198795842289" lon="7.955108033119398"><ele>509.0</ele><time>2026-04-11T09:25:31.843Z</time></trkpt><trkpt lat="45.519715012633526" lon="7.955385978791043"><ele>504.0</ele><time>2026-04-11T09:25:32.843Z</time></trkpt><trkpt lat="45.51955783661853" lon="7.955646935642178"><ele>499.0</ele><time>2026-04-11T09:25:33.843Z</time></trkpt><trkpt lat="45.51940286824814" lon="7.95589967085774"><ele>499.0</ele><time>2026-04-11T09:25:34.843Z</time></trkpt><trkpt lat="45.5192537123628" lon="7.956153097402254"><ele>499.0</ele><time>2026-04-11T09:25:35.843Z</time></trkpt><trkpt lat="45.519107020535856" lon="7.956409925014618"><ele>499.0</ele><time>2026-04-11T09:25:36.843Z</time></trkpt><trkpt lat="45.51897127914443" lon="7.9566779657583355"><ele>499.0</ele><time>2026-04-11T09:25:37.843Z</time></trkpt><trkpt lat="45.518845210872776" lon="7.95694844106708"><ele>490.0</ele><time>2026-04-11T09:25:38.843Z</time></trkpt><trkpt lat="45.518728127608554" lon="7.95724759914933"><ele>481.0</ele><time>2026-04-11T09:25:39.843Z</time></trkpt><trkpt lat="45.51862432813862" lon="7.957571532879966"><ele>481.0</ele><time>2026-04-11T09:25:40.843Z</time></trkpt><trkpt lat="45.51852299571441" lon="7.957902193212739"><ele>481.0</ele><time>2026-04-11T09:25:41.843Z</time></trkpt><trkpt lat="45.51844065588178" lon="7.958252961796187"><ele>479.0</ele><time>2026-04-11T09:25:42.843Z</time></trkpt><trkpt lat="45.51836970479846" lon="7.958611436110147"><ele>477.0</ele><time>2026-04-11T09:25:43.842Z</time></trkpt><trkpt lat="45.51831388424784" lon="7.958978414665417"><ele>477.5</ele><time>2026-04-11T09:25:44.842Z</time></trkpt><trkpt lat="45.51826559814869" lon="7.959345789590278"><ele>478.0</ele><time>2026-04-11T09:25:45.842Z</time></trkpt><trkpt lat="45.51823242589282" lon="7.959721872734561"><ele>479.5</ele><time>2026-04-11T09:25:46.842Z</time></trkpt><trkpt lat="45.51820355196816" lon="7.960095791503668"><ele>481.0</ele><time>2026-04-11T09:25:47.842Z</time></trkpt><trkpt lat="45.51817730219952" lon="7.960460953146425"><ele>481.0</ele><time>2026-04-11T09:25:48.842Z</time></trkpt><trkpt lat="45.518149107548346" lon="7.960819780879783"><ele>481.0</ele><time>2026-04-11T09:25:49.842Z</time></trkpt><trkpt lat="45.51812769824781" lon="7.961170627877385"><ele>481.0</ele><time>2026-04-11T09:25:50.842Z</time></trkpt><trkpt lat="45.51811531077873" lon="7.961524121036486"><ele>481.0</ele><time>2026-04-11T09:25:51.844Z</time></trkpt><trkpt lat="45.518113752597266" lon="7.961883729926481"><ele>481.0</ele><time>2026-04-11T09:25:52.844Z</time></trkpt><trkpt lat="45.518128993935825" lon="7.962248115235305"><ele>481.0</ele><time>2026-04-11T09:25:53.844Z</time></trkpt><trkpt lat="45.5181609636898" lon="7.962616404794305"><ele>477.0</ele><time>2026-04-11T09:25:54.843Z</time></trkpt><trkpt lat="45.51820040767443" lon="7.9629974863162625"><ele>473.0</ele><time>2026-04-11T09:25:55.843Z</time></trkpt><trkpt lat="45.518243783934274" lon="7.963380093918817"><ele>471.0</ele><time>2026-04-11T09:25:56.843Z</time></trkpt><trkpt lat="45.518286997731764" lon="7.9637648244773365"><ele>469.0</ele><time>2026-04-11T09:25:57.844Z</time></trkpt><trkpt lat="45.51833021131205" lon="7.964145647678977"><ele>465.5</ele><time>2026-04-11T09:25:58.843Z</time></trkpt><trkpt lat="45.51836544940727" lon="7.9645296401289825"><ele>462.0</ele><time>2026-04-11T09:25:59.843Z</time></trkpt><trkpt lat="45.518399757196065" lon="7.964909840000153"><ele>460.0</ele><time>2026-04-11T09:26:00.843Z</time></trkpt><trkpt lat="45.51841825862166" lon="7.965304661276844"><ele>458.0</ele><time>2026-04-11T09:26:01.844Z</time></trkpt><trkpt lat="45.518421241566514" lon="7.9656906593338075"><ele>456.0</ele><time>2026-04-11T09:26:02.844Z</time></trkpt><trkpt lat="45.518419601155294" lon="7.96607853624472"><ele>454.0</ele><time>2026-04-11T09:26:03.843Z</time></trkpt><trkpt lat="45.51841746657941" lon="7.966470847009644"><ele>454.0</ele><time>2026-04-11T09:26:04.843Z</time></trkpt><trkpt lat="45.51841358321016" lon="7.966870852481395"><ele>454.0</ele><time>2026-04-11T09:26:05.843Z</time></trkpt><trkpt lat="45.51839326372039" lon="7.967267432440168"><ele>452.5</ele><time>2026-04-11T09:26:06.843Z</time></trkpt><trkpt lat="45.51839186923487" lon="7.967669038812379"><ele>451.0</ele><time>2026-04-11T09:26:07.843Z</time></trkpt><trkpt lat="45.51839060285598" lon="7.968073112636784"><ele>449.0</ele><time>2026-04-11T09:26:08.843Z</time></trkpt><trkpt lat="45.518389342374704" lon="7.9684753052406805"><ele>447.0</ele><time>2026-04-11T09:26:09.843Z</time></trkpt><trkpt lat="45.518387216866266" lon="7.968873450574232"><ele>445.5</ele><time>2026-04-11T09:26:10.843Z</time></trkpt><trkpt lat="45.51838494056575" lon="7.969271027495835"><ele>444.0</ele><time>2026-04-11T09:26:11.843Z</time></trkpt><trkpt lat="45.51838627081214" lon="7.969657010182453"><ele>445.5</ele><time>2026-04-11T09:26:12.843Z</time></trkpt><trkpt lat="45.518370017554986" lon="7.9700407644543745"><ele>447.0</ele><time>2026-04-11T09:26:13.843Z</time></trkpt><trkpt lat="45.51834178809423" lon="7.9704241553721715"><ele>447.0</ele><time>2026-04-11T09:26:14.843Z</time></trkpt><trkpt lat="45.5183005433445" lon="7.9708100641597674"><ele>447.0</ele><time>2026-04-11T09:26:15.843Z</time></trkpt><trkpt lat="45.51825809713683" lon="7.971203414256681"><ele>445.5</ele><time>2026-04-11T09:26:16.843Z</time></trkpt><trkpt lat="45.51821665484529" lon="7.9715920848638895"><ele>444.0</ele><time>2026-04-11T09:26:17.843Z</time></trkpt><trkpt lat="45.51817209060547" lon="7.9719843773588055"><ele>443.5</ele><time>2026-04-11T09:26:18.843Z</time></trkpt><trkpt lat="45.51812855465435" lon="7.972368096138642"><ele>443.0</ele><time>2026-04-11T09:26:19.843Z</time></trkpt><trkpt lat="45.51808608364823" lon="7.972751796190578"><ele>443.0</ele><time>2026-04-11T09:26:20.843Z</time></trkpt><trkpt lat="45.51804543608124" lon="7.973135497713874"><ele>443.0</ele><time>2026-04-11T09:26:21.843Z</time></trkpt><trkpt lat="45.51800186996838" lon="7.973515374825365"><ele>445.5</ele><time>2026-04-11T09:26:22.843Z</time></trkpt><trkpt lat="45.517959958485925" lon="7.97389334941092"><ele>448.0</ele><time>2026-04-11T09:26:23.842Z</time></trkpt><trkpt lat="45.5179204027446" lon="7.974275315398554"><ele>434.5</ele><time>2026-04-11T09:26:24.842Z</time></trkpt><trkpt lat="45.517880105457856" lon="7.974651468770354"><ele>421.0</ele><time>2026-04-11T09:26:25.842Z</time></trkpt><trkpt lat="45.5178391246296" lon="7.97501843604792"><ele>421.5</ele><time>2026-04-11T09:26:26.842Z</time></trkpt><trkpt lat="45.51779334491936" lon="7.975372731555252"><ele>422.0</ele><time>2026-04-11T09:26:27.842Z</time></trkpt><trkpt lat="45.51773636865737" lon="7.975726156958545"><ele>424.5</ele><time>2026-04-11T09:26:28.842Z</time></trkpt><trkpt lat="45.51766208532323" lon="7.976077968372745"><ele>427.0</ele><time>2026-04-11T09:26:29.842Z</time></trkpt><trkpt lat="45.51757034786528" lon="7.9764224695099974"><ele>431.5</ele><time>2026-04-11T09:26:30.842Z</time></trkpt><trkpt lat="45.517460264367045" lon="7.976771571064639"><ele>436.0</ele><time>2026-04-11T09:26:31.842Z</time></trkpt><trkpt lat="45.51734458078375" lon="7.97712071776474"><ele>436.0</ele><time>2026-04-11T09:26:32.842Z</time></trkpt><trkpt lat="45.5172241899956" lon="7.977479008281943"><ele>436.0</ele><time>2026-04-11T09:26:33.842Z</time></trkpt><trkpt lat="45.51711641392623" lon="7.977849747153675"><ele>427.0</ele><time>2026-04-11T09:26:34.842Z</time></trkpt><trkpt lat="45.516985360758895" lon="7.97822232685391"><ele>418.0</ele><time>2026-04-11T09:26:35.842Z</time></trkpt><trkpt lat="45.516855059416656" lon="7.978570565274588"><ele>418.0</ele><time>2026-04-11T09:26:36.842Z</time></trkpt><trkpt lat="45.51675016008208" lon="7.978926947559725"><ele>418.0</ele><time>2026-04-11T09:26:37.842Z</time></trkpt><trkpt lat="45.516626380170315" lon="7.979246793409429"><ele>422.5</ele><time>2026-04-11T09:26:38.842Z</time></trkpt><trkpt lat="45.51651824091226" lon="7.979586663452806"><ele>427.0</ele><time>2026-04-11T09:26:39.842Z</time></trkpt><trkpt lat="45.51642336653915" lon="7.979945453342756"><ele>429.5</ele><time>2026-04-11T09:26:40.842Z</time></trkpt><trkpt lat="45.51634378109679" lon="7.980313092317817"><ele>432.0</ele><time>2026-04-11T09:26:41.842Z</time></trkpt><trkpt lat="45.51627107645022" lon="7.98068790080327"><ele>418.0</ele><time>2026-04-11T09:26:42.842Z</time></trkpt><trkpt lat="45.51621328687737" lon="7.98107396552884"><ele>404.0</ele><time>2026-04-11T09:26:43.841Z</time></trkpt><trkpt lat="45.51613964480008" lon="7.981449887201246"><ele>403.0</ele><time>2026-04-11T09:26:44.841Z</time></trkpt><trkpt lat="45.516063444127795" lon="7.98183607711671"><ele>402.0</ele><time>2026-04-11T09:26:45.841Z</time></trkpt><trkpt lat="45.51598880401776" lon="7.982225968227314"><ele>402.5</ele><time>2026-04-11T09:26:46.841Z</time></trkpt><trkpt lat="45.51591150491783" lon="7.982614306149809"><ele>403.0</ele><time>2026-04-11T09:26:47.841Z</time></trkpt><trkpt lat="45.51583525605103" lon="7.98299578680717"><ele>402.5</ele><time>2026-04-11T09:26:48.841Z</time></trkpt><trkpt lat="45.515763208575564" lon="7.9833782448320365"><ele>402.0</ele><time>2026-04-11T09:26:49.841Z</time></trkpt><trkpt lat="45.5156966331656" lon="7.983753109876635"><ele>402.0</ele><time>2026-04-11T09:26:50.841Z</time></trkpt><trkpt lat="45.51561723869592" lon="7.984116155591347"><ele>402.0</ele><time>2026-04-11T09:26:51.841Z</time></trkpt><trkpt lat="45.515545324376944" lon="7.984487664092868"><ele>399.0</ele><time>2026-04-11T09:26:52.841Z</time></trkpt><trkpt lat="45.5154745476399" lon="7.984860141558557"><ele>396.0</ele><time>2026-04-11T09:26:53.841Z</time></trkpt><trkpt lat="45.51540443588973" lon="7.985233477420728"><ele>390.0</ele><time>2026-04-11T09:26:54.841Z</time></trkpt><trkpt lat="45.51533455028475" lon="7.985605609231793"><ele>384.0</ele><time>2026-04-11T09:26:55.841Z</time></trkpt><trkpt lat="45.51526434288703" lon="7.985978152256468"><ele>383.0</ele><time>2026-04-11T09:26:56.841Z</time></trkpt><trkpt lat="45.51518975367407" lon="7.9863566591069155"><ele>382.0</ele><time>2026-04-11T09:26:57.841Z</time></trkpt><trkpt lat="45.51511667166494" lon="7.986727538214781"><ele>380.5</ele><time>2026-04-11T09:26:58.841Z</time></trkpt><trkpt lat="45.51504657195842" lon="7.987108519772114"><ele>379.0</ele><time>2026-04-11T09:26:59.841Z</time></trkpt><trkpt lat="45.51496957376519" lon="7.987480245491399"><ele>376.0</ele><time>2026-04-11T09:27:00.841Z</time></trkpt><trkpt lat="45.514891509088585" lon="7.9878501815344825"><ele>373.0</ele><time>2026-04-11T09:27:01.841Z</time></trkpt><trkpt lat="45.51481428776294" lon="7.988220553182877"><ele>370.5</ele><time>2026-04-11T09:27:02.841Z</time></trkpt><trkpt lat="45.514734916173616" lon="7.9885981479150265"><ele>368.0</ele><time>2026-04-11T09:27:03.841Z</time></trkpt><trkpt lat="45.514652284119485" lon="7.988975426882893"><ele>370.5</ele><time>2026-04-11T09:27:04.84Z</time></trkpt><trkpt lat="45.514558007654166" lon="7.989350903372568"><ele>373.0</ele><time>2026-04-11T09:27:05.84Z</time></trkpt><trkpt lat="45.514461935935984" lon="7.989732630774257"><ele>373.5</ele><time>2026-04-11T09:27:06.84Z</time></trkpt><trkpt lat="45.51437689797149" lon="7.990101253700857"><ele>374.0</ele><time>2026-04-11T09:27:07.84Z</time></trkpt><trkpt lat="45.514297399588195" lon="7.990455240904034"><ele>374.0</ele><time>2026-04-11T09:27:08.84Z</time></trkpt><trkpt lat="45.51422535750962" lon="7.9908046523150995"><ele>374.0</ele><time>2026-04-11T09:27:09.84Z</time></trkpt><trkpt lat="45.51414171850225" lon="7.991146218689679"><ele>373.5</ele><time>2026-04-11T09:27:10.84Z</time></trkpt><trkpt lat="45.51406366621412" lon="7.991492480614717"><ele>373.0</ele><time>2026-04-11T09:27:11.84Z</time></trkpt><trkpt lat="45.51399218219141" lon="7.991839114591934"><ele>371.0</ele><time>2026-04-11T09:27:12.84Z</time></trkpt><trkpt lat="45.513920832078824" lon="7.992183916935732"><ele>369.0</ele><time>2026-04-11T09:27:13.84Z</time></trkpt><trkpt lat="45.51384570631484" lon="7.992526942890567"><ele>369.0</ele><time>2026-04-11T09:27:14.84Z</time></trkpt><trkpt lat="45.51376965281891" lon="7.992870465773006"><ele>369.0</ele><time>2026-04-11T09:27:15.84Z</time></trkpt><trkpt lat="45.51369041118707" lon="7.9932193290955125"><ele>372.0</ele><time>2026-04-11T09:27:16.84Z</time></trkpt><trkpt lat="45.513619255416295" lon="7.99358204629548"><ele>375.0</ele><time>2026-04-11T09:27:17.84Z</time></trkpt><trkpt lat="45.51355514816088" lon="7.9939528239480095"><ele>372.5</ele><time>2026-04-11T09:27:18.84Z</time></trkpt><trkpt lat="45.513498513754975" lon="7.994330493787447"><ele>370.0</ele><time>2026-04-11T09:27:19.84Z</time></trkpt><trkpt lat="45.513445821529196" lon="7.994716422310928"><ele>368.5</ele><time>2026-04-11T09:27:20.84Z</time></trkpt><trkpt lat="45.51339241152226" lon="7.9950986464736875"><ele>367.0</ele><time>2026-04-11T09:27:21.84Z</time></trkpt><trkpt lat="45.51333693302492" lon="7.995489559031274"><ele>364.5</ele><time>2026-04-11T09:27:22.84Z</time></trkpt><trkpt lat="45.51328121795437" lon="7.995884666061867"><ele>362.0</ele><time>2026-04-11T09:27:23.84Z</time></trkpt><trkpt lat="45.513224681867975" lon="7.996272038216501"><ele>362.0</ele><time>2026-04-11T09:27:24.839Z</time></trkpt><trkpt lat="45.51316570935049" lon="7.9966582563351425"><ele>362.0</ele><time>2026-04-11T09:27:25.839Z</time></trkpt><trkpt lat="45.51310423701264" lon="7.997041598299634"><ele>360.0</ele><time>2026-04-11T09:27:26.839Z</time></trkpt><trkpt lat="45.51304310992726" lon="7.997431636789916"><ele>358.0</ele><time>2026-04-11T09:27:27.839Z</time></trkpt><trkpt lat="45.51299103678861" lon="7.997815241270165"><ele>356.0</ele><time>2026-04-11T09:27:28.839Z</time></trkpt><trkpt lat="45.51293872139318" lon="7.998200081595474"><ele>354.0</ele><time>2026-04-11T09:27:29.839Z</time></trkpt><trkpt lat="45.512878798857415" lon="7.998575536007319"><ele>354.0</ele><time>2026-04-11T09:27:30.839Z</time></trkpt><trkpt lat="45.51282275315212" lon="7.998950546398937"><ele>354.0</ele><time>2026-04-11T09:27:31.839Z</time></trkpt><trkpt lat="45.51277150686429" lon="7.999324154914986"><ele>351.5</ele><time>2026-04-11T09:27:32.839Z</time></trkpt><trkpt lat="45.512716760370814" lon="7.999682282218728"><ele>349.0</ele><time>2026-04-11T09:27:33.839Z</time></trkpt><trkpt lat="45.51267170297865" lon="8.000017391073985"><ele>349.0</ele><time>2026-04-11T09:27:34.839Z</time></trkpt><trkpt lat="45.51262714488043" lon="8.000334658488672"><ele>349.0</ele><time>2026-04-11T09:27:35.839Z</time></trkpt><trkpt lat="45.5125792727758" lon="8.000630605329794"><ele>349.0</ele><time>2026-04-11T09:27:36.839Z</time></trkpt><trkpt lat="45.51253178782693" lon="8.000907675001693"><ele>349.0</ele><time>2026-04-11T09:27:37.839Z</time></trkpt><trkpt lat="45.51249041512198" lon="8.00118096430209"><ele>349.0</ele><time>2026-04-11T09:27:38.839Z</time></trkpt><trkpt lat="45.51245759632529" lon="8.00143623222037"><ele>349.0</ele><time>2026-04-11T09:27:39.839Z</time></trkpt><trkpt lat="45.51242225636892" lon="8.001680599026919"><ele>349.0</ele><time>2026-04-11T09:27:40.839Z</time></trkpt><trkpt lat="45.51239862294939" lon="8.001895832570021"><ele>349.0</ele><time>2026-04-11T09:27:41.839Z</time></trkpt><trkpt lat="45.5123817970894" lon="8.00206014585979"><ele>349.0</ele><time>2026-04-11T09:27:42.839Z</time></trkpt><trkpt lat="45.51235700588219" lon="8.002192118824132"><ele>349.0</ele><time>2026-04-11T09:27:43.839Z</time></trkpt><trkpt lat="45.51233656692902" lon="8.002292196225682"><ele>349.0</ele><time>2026-04-11T09:27:44.839Z</time></trkpt><trkpt lat="45.5122672026705" lon="8.00241365127608"><ele>349.0</ele><time>2026-04-11T09:27:46.838Z</time></trkpt><trkpt lat="45.512218455534416" lon="8.002475338662151"><ele>349.0</ele><time>2026-04-11T09:27:47.838Z</time></trkpt><trkpt lat="45.51218204233155" lon="8.002561148817236"><ele>349.0</ele><time>2026-04-11T09:27:48.838Z</time></trkpt><trkpt lat="45.51218045522802" lon="8.002668065217826"><ele>349.0</ele><time>2026-04-11T09:27:49.838Z</time></trkpt><trkpt lat="45.512286902810786" lon="8.002758100555896"><ele>349.0</ele><time>2026-04-11T09:27:51.838Z</time></trkpt><trkpt lat="45.51238533420702" lon="8.002775432235435"><ele>349.0</ele><time>2026-04-11T09:27:52.838Z</time></trkpt><trkpt lat="45.512502289202104" lon="8.002802161301965"><ele>349.0</ele><time>2026-04-11T09:27:53.838Z</time></trkpt><trkpt lat="45.512614033343056" lon="8.002849762005456"><ele>349.0</ele><time>2026-04-11T09:27:54.838Z</time></trkpt><trkpt lat="45.51271642589502" lon="8.00291267120417"><ele>349.0</ele><time>2026-04-11T09:27:55.838Z</time></trkpt><trkpt lat="45.512819909499584" lon="8.003018769679931"><ele>349.0</ele><time>2026-04-11T09:27:56.838Z</time></trkpt><trkpt lat="45.512930814472284" lon="8.003165570322647"><ele>348.0</ele><time>2026-04-11T09:27:57.84Z</time></trkpt><trkpt lat="45.5130491341768" lon="8.00333252419331"><ele>347.0</ele><time>2026-04-11T09:27:58.84Z</time></trkpt><trkpt lat="45.51316915295312" lon="8.003501293789835"><ele>346.0</ele><time>2026-04-11T09:27:59.84Z</time></trkpt><trkpt lat="45.513278517061025" lon="8.003669554877547"><ele>346.0</ele><time>2026-04-11T09:28:00.84Z</time></trkpt><trkpt lat="45.51339816859153" lon="8.003855611396556"><ele>346.0</ele><time>2026-04-11T09:28:01.84Z</time></trkpt><trkpt lat="45.513524076318944" lon="8.00404792909544"><ele>346.0</ele><time>2026-04-11T09:28:02.839Z</time></trkpt><trkpt lat="45.513641424223316" lon="8.004230783554114"><ele>343.66666666666663</ele><time>2026-04-11T09:28:03.84Z</time></trkpt><trkpt lat="45.51375235399403" lon="8.004407192599666"><ele>341.3333333333333</ele><time>2026-04-11T09:28:04.84Z</time></trkpt><trkpt lat="45.51385921635534" lon="8.004571764581458"><ele>339.0</ele><time>2026-04-11T09:28:05.84Z</time></trkpt><trkpt lat="45.51395541548386" lon="8.004731602481025"><ele>339.0</ele><time>2026-04-11T09:28:06.839Z</time></trkpt><trkpt lat="45.514045233975125" lon="8.004884247664284"><ele>339.0</ele><time>2026-04-11T09:28:07.839Z</time></trkpt><trkpt lat="45.514139870154665" lon="8.00503421126867"><ele>339.0</ele><time>2026-04-11T09:28:08.839Z</time></trkpt><trkpt lat="45.514240472001845" lon="8.005184017729968"><ele>339.0</ele><time>2026-04-11T09:28:09.84Z</time></trkpt><trkpt lat="45.51435299143452" lon="8.005312138997482"><ele>338.5</ele><time>2026-04-11T09:28:10.84Z</time></trkpt><trkpt lat="45.51448060562001" lon="8.005408257879035"><ele>338.0</ele><time>2026-04-11T09:28:11.839Z</time></trkpt><trkpt lat="45.5146210479882" lon="8.005466303597293"><ele>337.5</ele><time>2026-04-11T09:28:12.839Z</time></trkpt><trkpt lat="45.51476079995074" lon="8.005508621190582"><ele>337.0</ele><time>2026-04-11T09:28:13.839Z</time></trkpt><trkpt lat="45.51488713880147" lon="8.005547070108056"><ele>336.0</ele><time>2026-04-11T09:28:14.839Z</time></trkpt><trkpt lat="45.51500122802632" lon="8.005579489460057"><ele>335.0</ele><time>2026-04-11T09:28:15.839Z</time></trkpt><trkpt lat="45.51510916621346" lon="8.005612978837998"><ele>334.0</ele><time>2026-04-11T09:28:16.839Z</time></trkpt><trkpt lat="45.515203924051065" lon="8.005649527777893"><ele>333.0</ele><time>2026-04-11T09:28:17.839Z</time></trkpt><trkpt lat="45.51527029724946" lon="8.005707955558153"><ele>332.0</ele><time>2026-04-11T09:28:18.839Z</time></trkpt><trkpt lat="45.51531696764847" lon="8.005796750296275"><ele>331.0</ele><time>2026-04-11T09:28:19.839Z</time></trkpt><trkpt lat="45.51536540873513" lon="8.005902244823565"><ele>330.0</ele><time>2026-04-11T09:28:20.839Z</time></trkpt><trkpt lat="45.515426090805555" lon="8.006034404263584"><ele>329.0</ele><time>2026-04-11T09:28:21.839Z</time></trkpt><trkpt lat="45.515482803847426" lon="8.006192782319669"><ele>328.0</ele><time>2026-04-11T09:28:22.839Z</time></trkpt><trkpt lat="45.51552992832755" lon="8.006384660877503"><ele>328.0</ele><time>2026-04-11T09:28:23.839Z</time></trkpt><trkpt lat="45.51557162107214" lon="8.006601734231937"><ele>328.0</ele><time>2026-04-11T09:28:24.839Z</time></trkpt><trkpt lat="45.51560882087208" lon="8.006822714644692"><ele>328.0</ele><time>2026-04-11T09:28:25.839Z</time></trkpt><trkpt lat="45.515644854351365" lon="8.007040766524705"><ele>327.3333333333333</ele><time>2026-04-11T09:28:26.839Z</time></trkpt><trkpt lat="45.51568510202083" lon="8.007281537371009"><ele>326.6666666666667</ele><time>2026-04-11T09:28:27.839Z</time></trkpt><trkpt lat="45.515726682948056" lon="8.007533498505776"><ele>326.0</ele><time>2026-04-11T09:28:28.839Z</time></trkpt><trkpt lat="45.5157585260118" lon="8.007787018151246"><ele>325.6666666666667</ele><time>2026-04-11T09:28:29.839Z</time></trkpt><trkpt lat="45.51578734318285" lon="8.008037708623156"><ele>325.3333333333333</ele><time>2026-04-11T09:28:30.839Z</time></trkpt><trkpt lat="45.51582021330975" lon="8.008280422945466"><ele>325.0</ele><time>2026-04-11T09:28:31.838Z</time></trkpt><trkpt lat="45.5158490550459" lon="8.008494081827292"><ele>324.5</ele><time>2026-04-11T09:28:32.838Z</time></trkpt><trkpt lat="45.515868941534286" lon="8.008652686706087"><ele>324.0</ele><time>2026-04-11T09:28:33.838Z</time></trkpt><trkpt lat="45.51588945809377" lon="8.008798700951123"><ele>323.5</ele><time>2026-04-11T09:28:34.838Z</time></trkpt><trkpt lat="45.51592385674343" lon="8.008972412101022"><ele>323.0</ele><time>2026-04-11T09:28:35.838Z</time></trkpt><trkpt lat="45.51597948278371" lon="8.009185107240182"><ele>322.6666666666667</ele><time>2026-04-11T09:28:36.838Z</time></trkpt><trkpt lat="45.51604323263109" lon="8.009416404896834"><ele>322.3333333333333</ele><time>2026-04-11T09:28:37.838Z</time></trkpt><trkpt lat="45.516112102005344" lon="8.009624954487641"><ele>322.0</ele><time>2026-04-11T09:28:38.838Z</time></trkpt><trkpt lat="45.51618432196435" lon="8.009820645841113"><ele>321.3333333333333</ele><time>2026-04-11T09:28:39.838Z</time></trkpt><trkpt lat="45.516252314603875" lon="8.010015184290289"><ele>320.6666666666667</ele><time>2026-04-11T09:28:40.838Z</time></trkpt><trkpt lat="45.516321273694956" lon="8.010210117436063"><ele>320.0</ele><time>2026-04-11T09:28:41.838Z</time></trkpt><trkpt lat="45.51639627568546" lon="8.010389023745939"><ele>320.0</ele><time>2026-04-11T09:28:42.838Z</time></trkpt><trkpt lat="45.51649131562558" lon="8.010534784536661"><ele>320.0</ele><time>2026-04-11T09:28:43.838Z</time></trkpt><trkpt lat="45.51659101996901" lon="8.010652053077882"><ele>320.0</ele><time>2026-04-11T09:28:44.838Z</time></trkpt><trkpt lat="45.516679321113536" lon="8.01077988033295"><ele>320.0</ele><time>2026-04-11T09:28:45.838Z</time></trkpt><trkpt lat="45.516771943313984" lon="8.010925704234111"><ele>319.6666666666667</ele><time>2026-04-11T09:28:46.838Z</time></trkpt><trkpt lat="45.5168736419973" lon="8.011083926154233"><ele>319.3333333333333</ele><time>2026-04-11T09:28:47.838Z</time></trkpt><trkpt lat="45.51696264999983" lon="8.011279600361327"><ele>319.0</ele><time>2026-04-11T09:28:48.838Z</time></trkpt><trkpt lat="45.517039034257124" lon="8.011505991319629"><ele>318.66666666666663</ele><time>2026-04-11T09:28:49.838Z</time></trkpt><trkpt lat="45.51711417942595" lon="8.01175171617544"><ele>318.3333333333333</ele><time>2026-04-11T09:28:50.838Z</time></trkpt><trkpt lat="45.51718446788679" lon="8.012014400339593"><ele>318.0</ele><time>2026-04-11T09:28:51.838Z</time></trkpt><trkpt lat="45.51723834603406" lon="8.01229950618996"><ele>318.0</ele><time>2026-04-11T09:28:52.837Z</time></trkpt><trkpt lat="45.51728632351156" lon="8.012593961270383"><ele>318.0</ele><time>2026-04-11T09:28:53.837Z</time></trkpt><trkpt lat="45.51733514769604" lon="8.012895859871394"><ele>318.0</ele><time>2026-04-11T09:28:54.837Z</time></trkpt><trkpt lat="45.51737512232589" lon="8.013203035446644"><ele>318.0</ele><time>2026-04-11T09:28:55.837Z</time></trkpt><trkpt lat="45.517406809800484" lon="8.013492849019359"><ele>318.0</ele><time>2026-04-11T09:28:56.837Z</time></trkpt><trkpt lat="45.51744318421329" lon="8.01376990599296"><ele>318.0</ele><time>2026-04-11T09:28:57.837Z</time></trkpt><trkpt lat="45.517481510996625" lon="8.014053750752375"><ele>317.6666666666667</ele><time>2026-04-11T09:28:58.837Z</time></trkpt><trkpt lat="45.51751358317845" lon="8.01433442905854"><ele>317.33333333333337</ele><time>2026-04-11T09:28:59.837Z</time></trkpt><trkpt lat="45.51754221083699" lon="8.014602758117288"><ele>317.0</ele><time>2026-04-11T09:29:00.837Z</time></trkpt><trkpt lat="45.51756950736897" lon="8.01485188385937"><ele>316.6666666666667</ele><time>2026-04-11T09:29:01.837Z</time></trkpt><trkpt lat="45.51759895412163" lon="8.015082672809983"><ele>316.3333333333333</ele><time>2026-04-11T09:29:02.837Z</time></trkpt><trkpt lat="45.51764926671684" lon="8.015281983865298"><ele>316.0</ele><time>2026-04-11T09:29:03.837Z</time></trkpt><trkpt lat="45.51770952191225" lon="8.015474891380997"><ele>316.0</ele><time>2026-04-11T09:29:04.837Z</time></trkpt><trkpt lat="45.517836699942514" lon="8.015611320470807"><ele>316.0</ele><time>2026-04-11T09:29:05.837Z</time></trkpt><trkpt lat="45.517971984303585" lon="8.015735463818444"><ele>316.0</ele><time>2026-04-11T09:29:06.837Z</time></trkpt><trkpt lat="45.51812774349516" lon="8.015820703442369"><ele>317.0</ele><time>2026-04-11T09:29:07.837Z</time></trkpt><trkpt lat="45.518302601879064" lon="8.015854994314019"><ele>318.0</ele><time>2026-04-11T09:29:08.837Z</time></trkpt><trkpt lat="45.51849710495337" lon="8.015890113545574"><ele>319.0</ele><time>2026-04-11T09:29:09.837Z</time></trkpt><trkpt lat="45.51870528130676" lon="8.015934413371399"><ele>320.3333333333333</ele><time>2026-04-11T09:29:10.837Z</time></trkpt><trkpt lat="45.51891967718664" lon="8.015976946908596"><ele>321.6666666666667</ele><time>2026-04-11T09:29:11.837Z</time></trkpt><trkpt lat="45.519130747330266" lon="8.016019355070561"><ele>323.0</ele><time>2026-04-11T09:29:12.836Z</time></trkpt><trkpt lat="45.51933374417014" lon="8.01605577412496"><ele>323.0</ele><time>2026-04-11T09:29:13.836Z</time></trkpt><trkpt lat="45.519529249202755" lon="8.016074546557363"><ele>323.0</ele><time>2026-04-11T09:29:14.836Z</time></trkpt><trkpt lat="45.51971268001586" lon="8.01607530395044"><ele>323.0</ele><time>2026-04-11T09:29:15.836Z</time></trkpt><trkpt lat="45.51988939844182" lon="8.016074536414937"><ele>322.6666666666667</ele><time>2026-04-11T09:29:16.836Z</time></trkpt><trkpt lat="45.520060882506634" lon="8.016087455486188"><ele>322.3333333333333</ele><time>2026-04-11T09:29:17.836Z</time></trkpt><trkpt lat="45.52021507337138" lon="8.016101719450663"><ele>322.0</ele><time>2026-04-11T09:29:18.836Z</time></trkpt><trkpt lat="45.52034687357357" lon="8.01612298414318"><ele>322.40000000000003</ele><time>2026-04-11T09:29:19.836Z</time></trkpt><trkpt lat="45.52045850770357" lon="8.016150196967416"><ele>322.8</ele><time>2026-04-11T09:29:20.836Z</time></trkpt><trkpt lat="45.52054115289291" lon="8.016194234455236"><ele>323.2</ele><time>2026-04-11T09:29:21.836Z</time></trkpt><trkpt lat="45.52060460513512" lon="8.016255338880425"><ele>323.6</ele><time>2026-04-11T09:29:22.836Z</time></trkpt><trkpt lat="45.520675762185974" lon="8.01631107415259"><ele>324.0</ele><time>2026-04-11T09:29:23.836Z</time></trkpt><trkpt lat="45.520771862452634" lon="8.016321828866246"><ele>324.0</ele><time>2026-04-11T09:29:24.836Z</time></trkpt><trkpt lat="45.52088613329029" lon="8.016278564196664"><ele>324.0</ele><time>2026-04-11T09:29:25.836Z</time></trkpt><trkpt lat="45.521013680155725" lon="8.016222077988965"><ele>324.0</ele><time>2026-04-11T09:29:26.836Z</time></trkpt><trkpt lat="45.52115547469244" lon="8.016248606363662"><ele>324.0</ele><time>2026-04-11T09:29:27.836Z</time></trkpt><trkpt lat="45.521311095174" lon="8.016312904896598"><ele>325.0</ele><time>2026-04-11T09:29:28.836Z</time></trkpt><trkpt lat="45.521485050413794" lon="8.016351113409657"><ele>326.0</ele><time>2026-04-11T09:29:29.836Z</time></trkpt><trkpt lat="45.521668157750554" lon="8.016387628278833"><ele>327.0</ele><time>2026-04-11T09:29:30.836Z</time></trkpt><trkpt lat="45.521857805908176" lon="8.016424085651199"><ele>327.0</ele><time>2026-04-11T09:29:31.836Z</time></trkpt><trkpt lat="45.522048397375265" lon="8.016460854278067"><ele>327.0</ele><time>2026-04-11T09:29:32.835Z</time></trkpt><trkpt lat="45.52223035350151" lon="8.016496855171082"><ele>327.0</ele><time>2026-04-11T09:29:33.835Z</time></trkpt><trkpt lat="45.522424207343185" lon="8.016543327489211"><ele>327.3333333333333</ele><time>2026-04-11T09:29:34.835Z</time></trkpt><trkpt lat="45.522628431754775" lon="8.016592372820774"><ele>327.66666666666663</ele><time>2026-04-11T09:29:35.835Z</time></trkpt><trkpt lat="45.52283948088366" lon="8.016637040775896"><ele>328.0</ele><time>2026-04-11T09:29:36.835Z</time></trkpt><trkpt lat="45.523058139300794" lon="8.016684760374137"><ele>328.5</ele><time>2026-04-11T09:29:37.835Z</time></trkpt><trkpt lat="45.52328448844822" lon="8.016740152125102"><ele>329.0</ele><time>2026-04-11T09:29:38.835Z</time></trkpt><trkpt lat="45.523514351931595" lon="8.016801712723936"><ele>330.33333333333337</ele><time>2026-04-11T09:29:39.835Z</time></trkpt><trkpt lat="45.523734034015035" lon="8.016868968160692"><ele>331.6666666666667</ele><time>2026-04-11T09:29:40.835Z</time></trkpt><trkpt lat="45.523950528403724" lon="8.016945743730627"><ele>333.0</ele><time>2026-04-11T09:29:41.835Z</time></trkpt><trkpt lat="45.52417598201012" lon="8.017032612243241"><ele>333.0</ele><time>2026-04-11T09:29:42.835Z</time></trkpt><trkpt lat="45.52440728567722" lon="8.01712276518138"><ele>333.0</ele><time>2026-04-11T09:29:43.835Z</time></trkpt><trkpt lat="45.52464287366079" lon="8.017212601618418"><ele>333.5</ele><time>2026-04-11T09:29:44.835Z</time></trkpt><trkpt lat="45.52488056711852" lon="8.017300670614192"><ele>334.0</ele><time>2026-04-11T09:29:45.835Z</time></trkpt><trkpt lat="45.52511404869146" lon="8.017385814440637"><ele>334.0</ele><time>2026-04-11T09:29:46.835Z</time></trkpt><trkpt lat="45.525333812185735" lon="8.017465751352688"><ele>334.0</ele><time>2026-04-11T09:29:47.835Z</time></trkpt><trkpt lat="45.525532579774435" lon="8.017540577240458"><ele>334.0</ele><time>2026-04-11T09:29:48.835Z</time></trkpt><trkpt lat="45.52571974671522" lon="8.01761074766228"><ele>333.66666666666663</ele><time>2026-04-11T09:29:49.835Z</time></trkpt><trkpt lat="45.52588951566968" lon="8.017674657834842"><ele>333.3333333333333</ele><time>2026-04-11T09:29:50.835Z</time></trkpt><trkpt lat="45.526045640818026" lon="8.017735131011202"><ele>333.0</ele><time>2026-04-11T09:29:51.835Z</time></trkpt><trkpt lat="45.52618527732932" lon="8.017791078368695"><ele>333.75</ele><time>2026-04-11T09:29:52.835Z</time></trkpt><trkpt lat="45.52631243796593" lon="8.017870305594922"><ele>334.5</ele><time>2026-04-11T09:29:53.834Z</time></trkpt><trkpt lat="45.52642575265618" lon="8.017970038296086"><ele>335.25</ele><time>2026-04-11T09:29:54.834Z</time></trkpt><trkpt lat="45.52652191972304" lon="8.01808467695895"><ele>336.0</ele><time>2026-04-11T09:29:55.834Z</time></trkpt><trkpt lat="45.52660571357815" lon="8.018219616631232"><ele>335.8</ele><time>2026-04-11T09:29:56.834Z</time></trkpt><trkpt lat="45.526674206556116" lon="8.018362357736793"><ele>335.6</ele><time>2026-04-11T09:29:57.834Z</time></trkpt><trkpt lat="45.526714466448176" lon="8.018487608452759"><ele>335.4</ele><time>2026-04-11T09:29:58.834Z</time></trkpt><trkpt lat="45.526728129131286" lon="8.018579063828707"><ele>335.2</ele><time>2026-04-11T09:29:59.834Z</time></trkpt><trkpt lat="45.5267236938962" lon="8.01869812464643"><ele>335.0</ele><time>2026-04-11T09:30:01.834Z</time></trkpt><trkpt lat="45.52667713905115" lon="8.018834034744337"><ele>335.0</ele><time>2026-04-11T09:30:03.837Z</time></trkpt><trkpt lat="45.526652933537605" lon="8.018934868933082"><ele>335.0</ele><time>2026-04-11T09:30:04.836Z</time></trkpt><trkpt lat="45.526660018412386" lon="8.019040778211606"><ele>335.0</ele><time>2026-04-11T09:30:05.836Z</time></trkpt><trkpt lat="45.52669471415563" lon="8.01913808168436"><ele>335.0</ele><time>2026-04-11T09:30:06.836Z</time></trkpt><trkpt lat="45.52676283783109" lon="8.019246748480299"><ele>335.0</ele><time>2026-04-11T09:30:07.836Z</time></trkpt><trkpt lat="45.526845011764536" lon="8.019370982418751"><ele>335.0</ele><time>2026-04-11T09:30:08.836Z</time></trkpt><trkpt lat="45.52693172556111" lon="8.019526199919643"><ele>334.6666666666667</ele><time>2026-04-11T09:30:09.836Z</time></trkpt><trkpt lat="45.527024189490135" lon="8.019700140320724"><ele>334.3333333333333</ele><time>2026-04-11T09:30:10.836Z</time></trkpt><trkpt lat="45.527108151161926" lon="8.019874187570213"><ele>334.0</ele><time>2026-04-11T09:30:11.836Z</time></trkpt><trkpt lat="45.52718928094503" lon="8.020077393415798"><ele>334.66666666666663</ele><time>2026-04-11T09:30:12.836Z</time></trkpt><trkpt lat="45.527254715537296" lon="8.02030965428071"><ele>335.3333333333333</ele><time>2026-04-11T09:30:13.836Z</time></trkpt><trkpt lat="45.527307574715174" lon="8.020567801628644"><ele>336.0</ele><time>2026-04-11T09:30:14.836Z</time></trkpt><trkpt lat="45.52736178948055" lon="8.020839500114269"><ele>336.0</ele><time>2026-04-11T09:30:15.836Z</time></trkpt><trkpt lat="45.52742723654414" lon="8.021119820939948"><ele>336.0</ele><time>2026-04-11T09:30:16.836Z</time></trkpt><trkpt lat="45.527498244202945" lon="8.021391376192966"><ele>336.0</ele><time>2026-04-11T09:30:17.836Z</time></trkpt><trkpt lat="45.52756916373187" lon="8.021652409930864"><ele>335.6666666666667</ele><time>2026-04-11T09:30:18.836Z</time></trkpt><trkpt lat="45.52764383082649" lon="8.021932339028922"><ele>335.33333333333337</ele><time>2026-04-11T09:30:19.836Z</time></trkpt><trkpt lat="45.52772355353261" lon="8.022224912109309"><ele>335.0</ele><time>2026-04-11T09:30:20.836Z</time></trkpt><trkpt lat="45.52780867931595" lon="8.022532056103639"><ele>334.5</ele><time>2026-04-11T09:30:21.836Z</time></trkpt><trkpt lat="45.52789477870486" lon="8.022850036140614"><ele>334.0</ele><time>2026-04-11T09:30:22.836Z</time></trkpt><trkpt lat="45.52797508518714" lon="8.023151137541381"><ele>335.5</ele><time>2026-04-11T09:30:23.836Z</time></trkpt><trkpt lat="45.528054487414835" lon="8.023450286292272"><ele>337.0</ele><time>2026-04-11T09:30:24.835Z</time></trkpt><trkpt lat="45.52813135409744" lon="8.023754350184408"><ele>337.0</ele><time>2026-04-11T09:30:25.835Z</time></trkpt><trkpt lat="45.52821191864408" lon="8.024061196268708"><ele>337.0</ele><time>2026-04-11T09:30:26.835Z</time></trkpt><trkpt lat="45.5282932127841" lon="8.024373334093395"><ele>337.5</ele><time>2026-04-11T09:30:27.835Z</time></trkpt><trkpt lat="45.528370404699906" lon="8.024683748711729"><ele>338.0</ele><time>2026-04-11T09:30:28.835Z</time></trkpt><trkpt lat="45.52844611347373" lon="8.02498972193714"><ele>338.0</ele><time>2026-04-11T09:30:29.835Z</time></trkpt><trkpt lat="45.5285204227912" lon="8.025281720363774"><ele>338.0</ele><time>2026-04-11T09:30:30.835Z</time></trkpt><trkpt lat="45.52858211836125" lon="8.025562951557795"><ele>338.0</ele><time>2026-04-11T09:30:31.835Z</time></trkpt><trkpt lat="45.52863905772754" lon="8.025838132824614"><ele>337.6666666666667</ele><time>2026-04-11T09:30:32.835Z</time></trkpt><trkpt lat="45.5286845682034" lon="8.026098696308804"><ele>337.3333333333333</ele><time>2026-04-11T09:30:33.835Z</time></trkpt><trkpt lat="45.52872781463919" lon="8.026357307266002"><ele>337.0</ele><time>2026-04-11T09:30:34.835Z</time></trkpt><trkpt lat="45.52875847139694" lon="8.026610126056045"><ele>338.0</ele><time>2026-04-11T09:30:35.835Z</time></trkpt><trkpt lat="45.52878231709809" lon="8.026863281431423"><ele>339.0</ele><time>2026-04-11T09:30:36.835Z</time></trkpt><trkpt lat="45.52880218886862" lon="8.027105646428852"><ele>340.0</ele><time>2026-04-11T09:30:37.835Z</time></trkpt><trkpt lat="45.52882040764142" lon="8.027322786432238"><ele>340.0</ele><time>2026-04-11T09:30:38.835Z</time></trkpt><trkpt lat="45.528829178203274" lon="8.027511148505909"><ele>340.0</ele><time>2026-04-11T09:30:39.835Z</time></trkpt><trkpt lat="45.528828907670096" lon="8.027688808589016"><ele>340.0</ele><time>2026-04-11T09:30:40.835Z</time></trkpt><trkpt lat="45.528836738158105" lon="8.027867026722577"><ele>340.0</ele><time>2026-04-11T09:30:41.835Z</time></trkpt><trkpt lat="45.52886098249289" lon="8.028067777977986"><ele>340.0</ele><time>2026-04-11T09:30:42.835Z</time></trkpt><trkpt lat="45.52889080761958" lon="8.028251255330575"><ele>340.0</ele><time>2026-04-11T09:30:43.835Z</time></trkpt><trkpt lat="45.528907856869566" lon="8.02843597308184"><ele>340.0</ele><time>2026-04-11T09:30:44.835Z</time></trkpt><trkpt lat="45.528899014301956" lon="8.028641763333926"><ele>340.0</ele><time>2026-04-11T09:30:45.834Z</time></trkpt><trkpt lat="45.52884656833564" lon="8.02884577307925"><ele>340.0</ele><time>2026-04-11T09:30:46.834Z</time></trkpt><trkpt lat="45.528763104001" lon="8.029051579584335"><ele>340.0</ele><time>2026-04-11T09:30:47.834Z</time></trkpt><trkpt lat="45.528635709193765" lon="8.029251668486413"><ele>340.0</ele><time>2026-04-11T09:30:48.834Z</time></trkpt><trkpt lat="45.5284706475145" lon="8.029449678938734"><ele>339.5</ele><time>2026-04-11T09:30:49.834Z</time></trkpt><trkpt lat="45.52829843112754" lon="8.029660142327922"><ele>339.0</ele><time>2026-04-11T09:30:50.834Z</time></trkpt><trkpt lat="45.528135088647915" lon="8.029878914949641"><ele>339.0</ele><time>2026-04-11T09:30:51.834Z</time></trkpt><trkpt lat="45.52798953108111" lon="8.030110159442424"><ele>339.0</ele><time>2026-04-11T09:30:52.834Z</time></trkpt><trkpt lat="45.527858600106406" lon="8.030347874870982"><ele>339.0</ele><time>2026-04-11T09:30:53.834Z</time></trkpt><trkpt lat="45.52772425640835" lon="8.03058237489533"><ele>338.3333333333333</ele><time>2026-04-11T09:30:54.834Z</time></trkpt><trkpt lat="45.5275891667249" lon="8.030806595556607"><ele>337.66666666666663</ele><time>2026-04-11T09:30:55.834Z</time></trkpt><trkpt lat="45.527470330885556" lon="8.031014110546547"><ele>337.0</ele><time>2026-04-11T09:30:56.834Z</time></trkpt><trkpt lat="45.5273587905945" lon="8.031203513481078"><ele>337.0</ele><time>2026-04-11T09:30:57.834Z</time></trkpt><trkpt lat="45.52725953910422" lon="8.031404622182995"><ele>337.0</ele><time>2026-04-11T09:30:58.834Z</time></trkpt><trkpt lat="45.527183576159445" lon="8.031627389266053"><ele>337.0</ele><time>2026-04-11T09:30:59.834Z</time></trkpt><trkpt lat="45.52713629851219" lon="8.031876966404004"><ele>337.0</ele><time>2026-04-11T09:31:00.834Z</time></trkpt><trkpt lat="45.5271251336884" lon="8.032155522970909"><ele>337.0</ele><time>2026-04-11T09:31:01.834Z</time></trkpt><trkpt lat="45.52714328942547" lon="8.03245878018588"><ele>337.0</ele><time>2026-04-11T09:31:02.834Z</time></trkpt><trkpt lat="45.52716462511836" lon="8.032783530340236"><ele>337.5</ele><time>2026-04-11T09:31:03.834Z</time></trkpt><trkpt lat="45.52717508008936" lon="8.033122874565827"><ele>338.0</ele><time>2026-04-11T09:31:04.834Z</time></trkpt><trkpt lat="45.5271882906572" lon="8.033473843549274"><ele>338.0</ele><time>2026-04-11T09:31:05.833Z</time></trkpt><trkpt lat="45.52720769752952" lon="8.03381322903579"><ele>338.0</ele><time>2026-04-11T09:31:06.833Z</time></trkpt><trkpt lat="45.52723092090533" lon="8.034152909086377"><ele>337.5</ele><time>2026-04-11T09:31:07.833Z</time></trkpt><trkpt lat="45.52725506108443" lon="8.034506277575892"><ele>337.0</ele><time>2026-04-11T09:31:08.833Z</time></trkpt><trkpt lat="45.527280788501116" lon="8.034848327931869"><ele>336.5</ele><time>2026-04-11T09:31:09.833Z</time></trkpt><trkpt lat="45.52730849871788" lon="8.035177106609034"><ele>336.0</ele><time>2026-04-11T09:31:10.833Z</time></trkpt><trkpt lat="45.52733865395525" lon="8.035494499716485"><ele>335.6666666666667</ele><time>2026-04-11T09:31:11.833Z</time></trkpt><trkpt lat="45.527368879345914" lon="8.035804098498142"><ele>335.33333333333337</ele><time>2026-04-11T09:31:12.833Z</time></trkpt><trkpt lat="45.52739769433888" lon="8.03610418267017"><ele>335.0</ele><time>2026-04-11T09:31:13.833Z</time></trkpt><trkpt lat="45.52743227125191" lon="8.036396539748958"><ele>335.0</ele><time>2026-04-11T09:31:14.833Z</time></trkpt><trkpt lat="45.52747618000672" lon="8.03668831481997"><ele>335.0</ele><time>2026-04-11T09:31:15.833Z</time></trkpt><trkpt lat="45.527533928206005" lon="8.03697632308014"><ele>335.0</ele><time>2026-04-11T09:31:16.833Z</time></trkpt><trkpt lat="45.52761056998274" lon="8.037254922162488"><ele>335.33333333333337</ele><time>2026-04-11T09:31:17.833Z</time></trkpt><trkpt lat="45.52770140070636" lon="8.037520747990795"><ele>335.6666666666667</ele><time>2026-04-11T09:31:18.833Z</time></trkpt><trkpt lat="45.52777735139619" lon="8.037787645355781"><ele>336.0</ele><time>2026-04-11T09:31:19.833Z</time></trkpt><trkpt lat="45.527825246871025" lon="8.038071342438249"><ele>335.6666666666667</ele><time>2026-04-11T09:31:20.833Z</time></trkpt><trkpt lat="45.52784821935996" lon="8.038366619360266"><ele>335.33333333333337</ele><time>2026-04-11T09:31:21.833Z</time></trkpt><trkpt lat="45.52785579567235" lon="8.038672010409789"><ele>335.0</ele><time>2026-04-11T09:31:22.833Z</time></trkpt><trkpt lat="45.52785898206296" lon="8.038975675351677"><ele>334.6666666666667</ele><time>2026-04-11T09:31:23.833Z</time></trkpt><trkpt lat="45.52785714541152" lon="8.039257164174309"><ele>334.3333333333333</ele><time>2026-04-11T09:31:24.833Z</time></trkpt><trkpt lat="45.52786073856393" lon="8.03951681438417"><ele>334.0</ele><time>2026-04-11T09:31:25.832Z</time></trkpt><trkpt lat="45.52786592224115" lon="8.039763085482003"><ele>335.3333333333333</ele><time>2026-04-11T09:31:26.832Z</time></trkpt><trkpt lat="45.52786954242796" lon="8.039998229581911"><ele>336.6666666666667</ele><time>2026-04-11T09:31:27.832Z</time></trkpt><trkpt lat="45.527875995437725" lon="8.040225111955174"><ele>338.0</ele><time>2026-04-11T09:31:28.832Z</time></trkpt><trkpt lat="45.52789659407294" lon="8.04045622387146"><ele>338.6666666666667</ele><time>2026-04-11T09:31:29.832Z</time></trkpt><trkpt lat="45.5279431821012" lon="8.040677520451482"><ele>339.3333333333333</ele><time>2026-04-11T09:31:30.832Z</time></trkpt><trkpt lat="45.52801803474892" lon="8.040878195991707"><ele>340.0</ele><time>2026-04-11T09:31:31.832Z</time></trkpt><trkpt lat="45.52810855740078" lon="8.04105431938499"><ele>340.5</ele><time>2026-04-11T09:31:32.832Z</time></trkpt><trkpt lat="45.52820282650881" lon="8.041200912464587"><ele>341.0</ele><time>2026-04-11T09:31:33.832Z</time></trkpt><trkpt lat="45.52828868216098" lon="8.041328032322742"><ele>341.5</ele><time>2026-04-11T09:31:34.832Z</time></trkpt><trkpt lat="45.52833750229251" lon="8.04144877058144"><ele>342.0</ele><time>2026-04-11T09:31:35.832Z</time></trkpt><trkpt lat="45.52838189015344" lon="8.041560243879342"><ele>342.0</ele><time>2026-04-11T09:31:36.832Z</time></trkpt><trkpt lat="45.52840707188923" lon="8.041677616743526"><ele>342.0</ele><time>2026-04-11T09:31:37.832Z</time></trkpt><trkpt lat="45.52840368791839" lon="8.04180372433463"><ele>342.0</ele><time>2026-04-11T09:31:38.832Z</time></trkpt><trkpt lat="45.52836652528129" lon="8.041928965391161"><ele>342.0</ele><time>2026-04-11T09:31:39.832Z</time></trkpt><trkpt lat="45.52829994870313" lon="8.042044721559408"><ele>342.0</ele><time>2026-04-11T09:31:40.832Z</time></trkpt><trkpt lat="45.52822786756229" lon="8.042177926922495"><ele>342.0</ele><time>2026-04-11T09:31:41.832Z</time></trkpt><trkpt lat="45.528186406756795" lon="8.042345485516938"><ele>342.0</ele><time>2026-04-11T09:31:42.832Z</time></trkpt><trkpt lat="45.52818169953602" lon="8.042523850046628"><ele>342.0</ele><time>2026-04-11T09:31:43.832Z</time></trkpt><trkpt lat="45.52821168909829" lon="8.042695453396393"><ele>342.0</ele><time>2026-04-11T09:31:44.832Z</time></trkpt><trkpt lat="45.528274335152666" lon="8.042843661412563"><ele>342.0</ele><time>2026-04-11T09:31:45.832Z</time></trkpt><trkpt lat="45.52836857580819" lon="8.042960638454247"><ele>342.0</ele><time>2026-04-11T09:31:46.831Z</time></trkpt><trkpt lat="45.528486366557345" lon="8.04304270121789"><ele>342.0</ele><time>2026-04-11T09:31:47.831Z</time></trkpt><trkpt lat="45.52861600599959" lon="8.043077142561389"><ele>342.0</ele><time>2026-04-11T09:31:48.831Z</time></trkpt><trkpt lat="45.52874584725215" lon="8.043048567891585"><ele>342.0</ele><time>2026-04-11T09:31:49.831Z</time></trkpt><trkpt lat="45.5288603368" lon="8.04296227168905"><ele>342.0</ele><time>2026-04-11T09:31:50.831Z</time></trkpt><trkpt lat="45.52895959546247" lon="8.04283531727173"><ele>342.0</ele><time>2026-04-11T09:31:51.831Z</time></trkpt><trkpt lat="45.52903798508958" lon="8.042679996379727"><ele>342.0</ele><time>2026-04-11T09:31:52.831Z</time></trkpt><trkpt lat="45.529110104661925" lon="8.042521089609426"><ele>342.25</ele><time>2026-04-11T09:31:53.831Z</time></trkpt><trkpt lat="45.52920531541606" lon="8.04238973664691"><ele>342.5</ele><time>2026-04-11T09:31:54.831Z</time></trkpt><trkpt lat="45.529321803523864" lon="8.042297724034594"><ele>342.75</ele><time>2026-04-11T09:31:55.831Z</time></trkpt><trkpt lat="45.52945500980895" lon="8.04224454628059"><ele>343.0</ele><time>2026-04-11T09:31:56.831Z</time></trkpt><trkpt lat="45.52959926323696" lon="8.042209710262913"><ele>343.0</ele><time>2026-04-11T09:31:57.831Z</time></trkpt><trkpt lat="45.52974144245928" lon="8.042179848461153"><ele>343.0</ele><time>2026-04-11T09:31:58.831Z</time></trkpt><trkpt lat="45.52987909102674" lon="8.042151878512279"><ele>343.0</ele><time>2026-04-11T09:31:59.831Z</time></trkpt><trkpt lat="45.53002659990492" lon="8.042119986008426"><ele>343.0</ele><time>2026-04-11T09:32:00.831Z</time></trkpt><trkpt lat="45.530177902112605" lon="8.04208766723384"><ele>343.0</ele><time>2026-04-11T09:32:01.831Z</time></trkpt><trkpt lat="45.53032687859058" lon="8.042053755570084"><ele>343.0</ele><time>2026-04-11T09:32:02.831Z</time></trkpt><trkpt lat="45.5304743485955" lon="8.042022236887663"><ele>343.0</ele><time>2026-04-11T09:32:03.831Z</time></trkpt><trkpt lat="45.53062098592879" lon="8.0419940779584"><ele>343.0</ele><time>2026-04-11T09:32:04.831Z</time></trkpt><trkpt lat="45.53077011946071" lon="8.041965408507783"><ele>343.66666666666663</ele><time>2026-04-11T09:32:05.831Z</time></trkpt><trkpt lat="45.53092283743542" lon="8.041929982546913"><ele>344.3333333333333</ele><time>2026-04-11T09:32:06.83Z</time></trkpt><trkpt lat="45.53107743326768" lon="8.041895307945206"><ele>345.0</ele><time>2026-04-11T09:32:07.83Z</time></trkpt><trkpt lat="45.53123190067156" lon="8.041859603145591"><ele>345.6666666666667</ele><time>2026-04-11T09:32:08.83Z</time></trkpt><trkpt lat="45.53138821525598" lon="8.041823157836228"><ele>346.33333333333337</ele><time>2026-04-11T09:32:09.832Z</time></trkpt><trkpt lat="45.53154575603138" lon="8.04178383972608"><ele>347.0</ele><time>2026-04-11T09:32:10.833Z</time></trkpt><trkpt lat="45.53170315952451" lon="8.04173945709758"><ele>347.0</ele><time>2026-04-11T09:32:11.833Z</time></trkpt><trkpt lat="45.5318686539803" lon="8.041685441723054"><ele>347.0</ele><time>2026-04-11T09:32:12.832Z</time></trkpt><trkpt lat="45.532044726585674" lon="8.041628463168673"><ele>347.0</ele><time>2026-04-11T09:32:13.832Z</time></trkpt><trkpt lat="45.53222454427023" lon="8.041568119077903"><ele>347.33333333333337</ele><time>2026-04-11T09:32:14.832Z</time></trkpt><trkpt lat="45.532410591331725" lon="8.04150316106189"><ele>347.6666666666667</ele><time>2026-04-11T09:32:15.832Z</time></trkpt><trkpt lat="45.532600701737124" lon="8.041430007635356"><ele>348.0</ele><time>2026-04-11T09:32:16.832Z</time></trkpt><trkpt lat="45.53279500140006" lon="8.041354273070294"><ele>346.3333333333333</ele><time>2026-04-11T09:32:17.832Z</time></trkpt><trkpt lat="45.53298569797043" lon="8.041274377508156"><ele>344.66666666666663</ele><time>2026-04-11T09:32:18.833Z</time></trkpt><trkpt lat="45.53316429887738" lon="8.041195064262682"><ele>343.0</ele><time>2026-04-11T09:32:19.833Z</time></trkpt><trkpt lat="45.533346847548714" lon="8.041109355905776"><ele>343.0</ele><time>2026-04-11T09:32:20.833Z</time></trkpt><trkpt lat="45.53352797851052" lon="8.041028391944616"><ele>343.0</ele><time>2026-04-11T09:32:21.832Z</time></trkpt><trkpt lat="45.53371143737765" lon="8.040943803925334"><ele>343.0</ele><time>2026-04-11T09:32:22.832Z</time></trkpt><trkpt lat="45.53389417660725" lon="8.040856933134405"><ele>344.0</ele><time>2026-04-11T09:32:23.832Z</time></trkpt><trkpt lat="45.53407581036123" lon="8.040771573631025"><ele>345.0</ele><time>2026-04-11T09:32:24.832Z</time></trkpt><trkpt lat="45.534253823899284" lon="8.040686297223553"><ele>346.0</ele><time>2026-04-11T09:32:25.832Z</time></trkpt><trkpt lat="45.53442894866604" lon="8.04060106000792"><ele>346.3333333333333</ele><time>2026-04-11T09:32:26.832Z</time></trkpt><trkpt lat="45.53460242370843" lon="8.04051702096569"><ele>346.6666666666667</ele><time>2026-04-11T09:32:27.832Z</time></trkpt><trkpt lat="45.53477463205252" lon="8.040435457337354"><ele>347.0</ele><time>2026-04-11T09:32:28.832Z</time></trkpt><trkpt lat="45.53494765260652" lon="8.04035347215093"><ele>347.0</ele><time>2026-04-11T09:32:29.832Z</time></trkpt><trkpt lat="45.535119414576535" lon="8.040270770177868"><ele>347.0</ele><time>2026-04-11T09:32:30.832Z</time></trkpt><trkpt lat="45.53529303662092" lon="8.040188339632843"><ele>347.0</ele><time>2026-04-11T09:32:31.831Z</time></trkpt><trkpt lat="45.535464538577834" lon="8.040106326260718"><ele>348.33333333333337</ele><time>2026-04-11T09:32:32.831Z</time></trkpt><trkpt lat="45.53564165672503" lon="8.040025574364677"><ele>349.6666666666667</ele><time>2026-04-11T09:32:33.831Z</time></trkpt><trkpt lat="45.53582089859206" lon="8.039943656205907"><ele>351.0</ele><time>2026-04-11T09:32:34.831Z</time></trkpt><trkpt lat="45.53600174802232" lon="8.039862477170276"><ele>351.0</ele><time>2026-04-11T09:32:35.831Z</time></trkpt><trkpt lat="45.53618392653542" lon="8.039778550165428"><ele>351.0</ele><time>2026-04-11T09:32:36.831Z</time></trkpt><trkpt lat="45.53636617562206" lon="8.039695226709851"><ele>351.0</ele><time>2026-04-11T09:32:37.831Z</time></trkpt><trkpt lat="45.536548503159274" lon="8.039614495169133"><ele>351.0</ele><time>2026-04-11T09:32:38.831Z</time></trkpt><trkpt lat="45.53673284907823" lon="8.039540225019676"><ele>351.0</ele><time>2026-04-11T09:32:39.831Z</time></trkpt><trkpt lat="45.53691529040011" lon="8.039463330294891"><ele>351.0</ele><time>2026-04-11T09:32:40.831Z</time></trkpt><trkpt lat="45.53709963349764" lon="8.039388506620126"><ele>351.6666666666667</ele><time>2026-04-11T09:32:41.831Z</time></trkpt><trkpt lat="45.53728231704464" lon="8.039314120509644"><ele>352.33333333333337</ele><time>2026-04-11T09:32:42.831Z</time></trkpt><trkpt lat="45.53746445645324" lon="8.039239993501008"><ele>353.0</ele><time>2026-04-11T09:32:43.831Z</time></trkpt><trkpt lat="45.53764315638547" lon="8.03916734912085"><ele>353.6666666666667</ele><time>2026-04-11T09:32:44.831Z</time></trkpt><trkpt lat="45.53781958652271" lon="8.039103340604179"><ele>354.3333333333333</ele><time>2026-04-11T09:32:45.831Z</time></trkpt><trkpt lat="45.537992726812014" lon="8.0390400042772"><ele>355.0</ele><time>2026-04-11T09:32:46.831Z</time></trkpt><trkpt lat="45.53815940119845" lon="8.038981582636108"><ele>356.3333333333333</ele><time>2026-04-11T09:32:47.831Z</time></trkpt><trkpt lat="45.53831935758692" lon="8.038921855388562"><ele>357.6666666666667</ele><time>2026-04-11T09:32:48.831Z</time></trkpt><trkpt lat="45.53847112613903" lon="8.038868405359374"><ele>359.0</ele><time>2026-04-11T09:32:49.831Z</time></trkpt><trkpt lat="45.53861249060366" lon="8.03881855451514"><ele>358.75</ele><time>2026-04-11T09:32:50.831Z</time></trkpt><trkpt lat="45.5387470427971" lon="8.038772488740381"><ele>358.5</ele><time>2026-04-11T09:32:51.83Z</time></trkpt><trkpt lat="45.53887920497531" lon="8.0387302175194"><ele>358.25</ele><time>2026-04-11T09:32:52.83Z</time></trkpt><trkpt lat="45.53900923494765" lon="8.038695055243528"><ele>358.0</ele><time>2026-04-11T09:32:53.83Z</time></trkpt><trkpt lat="45.53913779786478" lon="8.038680019968053"><ele>358.0</ele><time>2026-04-11T09:32:54.83Z</time></trkpt><trkpt lat="45.53925814264824" lon="8.038684531455331"><ele>358.0</ele><time>2026-04-11T09:32:55.83Z</time></trkpt><trkpt lat="45.53937130491585" lon="8.038709180656552"><ele>358.0</ele><time>2026-04-11T09:32:56.83Z</time></trkpt><trkpt lat="45.53948293768591" lon="8.038746639935928"><ele>358.0</ele><time>2026-04-11T09:32:57.83Z</time></trkpt><trkpt lat="45.539597504074145" lon="8.038796377377865"><ele>358.75</ele><time>2026-04-11T09:32:58.83Z</time></trkpt><trkpt lat="45.53971333987358" lon="8.03884528632508"><ele>359.5</ele><time>2026-04-11T09:32:59.83Z</time></trkpt><trkpt lat="45.53983326363482" lon="8.038864288782692"><ele>360.25</ele><time>2026-04-11T09:33:00.83Z</time></trkpt><trkpt lat="45.539952474730605" lon="8.038837831373652"><ele>361.0</ele><time>2026-04-11T09:33:01.83Z</time></trkpt><trkpt lat="45.54006867743845" lon="8.038761910989354"><ele>361.0</ele><time>2026-04-11T09:33:02.83Z</time></trkpt><trkpt lat="45.5401705067403" lon="8.038647825254829"><ele>361.0</ele><time>2026-04-11T09:33:03.83Z</time></trkpt><trkpt lat="45.540266198489164" lon="8.038495854301846"><ele>361.0</ele><time>2026-04-11T09:33:04.83Z</time></trkpt><trkpt lat="45.54037516618699" lon="8.038349955216846"><ele>361.0</ele><time>2026-04-11T09:33:05.83Z</time></trkpt><trkpt lat="45.54051010186394" lon="8.038226208597163"><ele>361.66666666666663</ele><time>2026-04-11T09:33:06.83Z</time></trkpt><trkpt lat="45.540635333210595" lon="8.038077444428696"><ele>362.3333333333333</ele><time>2026-04-11T09:33:07.83Z</time></trkpt><trkpt lat="45.5408251049658" lon="8.03805736347448"><ele>363.0</ele><time>2026-04-11T09:33:08.83Z</time></trkpt><trkpt lat="45.54099651555538" lon="8.037995548064254"><ele>363.0</ele><time>2026-04-11T09:33:09.83Z</time></trkpt><trkpt lat="45.5411677986417" lon="8.037935594564749"><ele>363.0</ele><time>2026-04-11T09:33:10.83Z</time></trkpt><trkpt lat="45.541319711606796" lon="8.03788249943829"><ele>363.0</ele><time>2026-04-11T09:33:11.83Z</time></trkpt><trkpt lat="45.54145921139804" lon="8.037833418136197"><ele>363.0</ele><time>2026-04-11T09:33:12.829Z</time></trkpt><trkpt lat="45.54159566839625" lon="8.037785951558536"><ele>363.0</ele><time>2026-04-11T09:33:13.829Z</time></trkpt><trkpt lat="45.54173798270332" lon="8.037738340897906"><ele>363.0</ele><time>2026-04-11T09:33:14.829Z</time></trkpt><trkpt lat="45.54188302479283" lon="8.037685332388936"><ele>363.0</ele><time>2026-04-11T09:33:15.829Z</time></trkpt><trkpt lat="45.54202946454558" lon="8.037634214407442"><ele>364.3333333333333</ele><time>2026-04-11T09:33:16.829Z</time></trkpt><trkpt lat="45.542176800281325" lon="8.037584473375883"><ele>365.66666666666663</ele><time>2026-04-11T09:33:17.829Z</time></trkpt><trkpt lat="45.54233026092611" lon="8.037529788746888"><ele>367.0</ele><time>2026-04-11T09:33:18.829Z</time></trkpt><trkpt lat="45.542488671976464" lon="8.037476093013204"><ele>367.0</ele><time>2026-04-11T09:33:19.829Z</time></trkpt><trkpt lat="45.54264747692927" lon="8.037419283312438"><ele>367.0</ele><time>2026-04-11T09:33:20.829Z</time></trkpt><trkpt lat="45.54280018313123" lon="8.037364866669282"><ele>367.0</ele><time>2026-04-11T09:33:21.829Z</time></trkpt><trkpt lat="45.54295068005732" lon="8.037311265450526"><ele>367.66666666666663</ele><time>2026-04-11T09:33:22.829Z</time></trkpt><trkpt lat="45.543100681905926" lon="8.037257401371964"><ele>368.3333333333333</ele><time>2026-04-11T09:33:23.829Z</time></trkpt><trkpt lat="45.54325248513054" lon="8.037204525588166"><ele>369.0</ele><time>2026-04-11T09:33:24.829Z</time></trkpt><trkpt lat="45.54340251194978" lon="8.03715333661619"><ele>369.0</ele><time>2026-04-11T09:33:25.829Z</time></trkpt><trkpt lat="45.54355580995103" lon="8.037101484798558"><ele>369.0</ele><time>2026-04-11T09:33:26.829Z</time></trkpt><trkpt lat="45.54371167337434" lon="8.037048226103908"><ele>369.0</ele><time>2026-04-11T09:33:27.829Z</time></trkpt><trkpt lat="45.54386940992689" lon="8.036991307595521"><ele>370.0</ele><time>2026-04-11T09:33:28.829Z</time></trkpt><trkpt lat="45.54403010834864" lon="8.036935021759616"><ele>371.0</ele><time>2026-04-11T09:33:29.829Z</time></trkpt><trkpt lat="45.54419084759554" lon="8.036880333068055"><ele>372.0</ele><time>2026-04-11T09:33:30.829Z</time></trkpt><trkpt lat="45.54434986244612" lon="8.036825698793475"><ele>372.0</ele><time>2026-04-11T09:33:31.829Z</time></trkpt><trkpt lat="45.54450998274258" lon="8.036772551170845"><ele>372.0</ele><time>2026-04-11T09:33:32.828Z</time></trkpt><trkpt lat="45.54466644253667" lon="8.036718579249271"><ele>372.0</ele><time>2026-04-11T09:33:33.828Z</time></trkpt><trkpt lat="45.54482031416292" lon="8.036663592499787"><ele>372.3333333333333</ele><time>2026-04-11T09:33:34.828Z</time></trkpt><trkpt lat="45.5449745285778" lon="8.03660470969278"><ele>372.66666666666663</ele><time>2026-04-11T09:33:35.828Z</time></trkpt><trkpt lat="45.545127233838976" lon="8.036545708536927"><ele>373.0</ele><time>2026-04-11T09:33:36.828Z</time></trkpt><trkpt lat="45.54527794384589" lon="8.036487250737117"><ele>374.66666666666663</ele><time>2026-04-11T09:33:37.828Z</time></trkpt><trkpt lat="45.54542599810689" lon="8.036424092958391"><ele>376.3333333333333</ele><time>2026-04-11T09:33:38.828Z</time></trkpt><trkpt lat="45.54557237267271" lon="8.03635674890841"><ele>378.0</ele><time>2026-04-11T09:33:39.828Z</time></trkpt><trkpt lat="45.545720327741265" lon="8.036285913336355"><ele>378.0</ele><time>2026-04-11T09:33:40.828Z</time></trkpt><trkpt lat="45.545868745637875" lon="8.03621206358373"><ele>378.0</ele><time>2026-04-11T09:33:41.828Z</time></trkpt><trkpt lat="45.546018361144235" lon="8.036129020453032"><ele>378.0</ele><time>2026-04-11T09:33:42.828Z</time></trkpt><trkpt lat="45.54616893859795" lon="8.036039369708403"><ele>378.0</ele><time>2026-04-11T09:33:43.828Z</time></trkpt><trkpt lat="45.546321597150396" lon="8.035942030100207"><ele>378.0</ele><time>2026-04-11T09:33:44.828Z</time></trkpt><trkpt lat="45.54647531548323" lon="8.035838244165848"><ele>378.0</ele><time>2026-04-11T09:33:45.828Z</time></trkpt><trkpt lat="45.546632134500214" lon="8.035731072831684"><ele>378.6666666666667</ele><time>2026-04-11T09:33:46.828Z</time></trkpt><trkpt lat="45.54678942122014" lon="8.035615620390084"><ele>379.33333333333337</ele><time>2026-04-11T09:33:47.828Z</time></trkpt><trkpt lat="45.546948925856896" lon="8.035493953557612"><ele>380.0</ele><time>2026-04-11T09:33:48.828Z</time></trkpt><trkpt lat="45.547112258804894" lon="8.035374246911784"><ele>380.0</ele><time>2026-04-11T09:33:49.828Z</time></trkpt><trkpt lat="45.54727485127048" lon="8.035248705949746"><ele>380.0</ele><time>2026-04-11T09:33:50.828Z</time></trkpt><trkpt lat="45.547437680933626" lon="8.03512390047747"><ele>380.0</ele><time>2026-04-11T09:33:51.828Z</time></trkpt><trkpt lat="45.54759994313482" lon="8.034999133023007"><ele>380.0</ele><time>2026-04-11T09:33:52.828Z</time></trkpt><trkpt lat="45.547762277739075" lon="8.03487948503775"><ele>380.0</ele><time>2026-04-11T09:33:53.827Z</time></trkpt><trkpt lat="45.547924027107676" lon="8.034756260128972"><ele>380.0</ele><time>2026-04-11T09:33:54.827Z</time></trkpt><trkpt lat="45.54808456772924" lon="8.034631872266758"><ele>380.33333333333337</ele><time>2026-04-11T09:33:55.827Z</time></trkpt><trkpt lat="45.54824687780121" lon="8.034507401240841"><ele>380.6666666666667</ele><time>2026-04-11T09:33:56.827Z</time></trkpt><trkpt lat="45.548403764921716" lon="8.034388660573846"><ele>381.0</ele><time>2026-04-11T09:33:57.827Z</time></trkpt><trkpt lat="45.54855268222089" lon="8.034278971298376"><ele>381.0</ele><time>2026-04-11T09:33:58.827Z</time></trkpt><trkpt lat="45.548688378493345" lon="8.034174160257253"><ele>381.0</ele><time>2026-04-11T09:33:59.827Z</time></trkpt><trkpt lat="45.54881379207814" lon="8.034073959231963"><ele>381.0</ele><time>2026-04-11T09:34:00.827Z</time></trkpt><trkpt lat="45.548935831348174" lon="8.0339786389499"><ele>381.0</ele><time>2026-04-11T09:34:01.827Z</time></trkpt><trkpt lat="45.54905914710015" lon="8.033886345191126"><ele>381.20000000000005</ele><time>2026-04-11T09:34:02.827Z</time></trkpt><trkpt lat="45.54917922162516" lon="8.03379478838218"><ele>381.40000000000003</ele><time>2026-04-11T09:34:03.827Z</time></trkpt><trkpt lat="45.54928832543998" lon="8.033713446206798"><ele>381.6</ele><time>2026-04-11T09:34:04.827Z</time></trkpt><trkpt lat="45.54937167171461" lon="8.033654619736678"><ele>381.8</ele><time>2026-04-11T09:34:05.827Z</time></trkpt><trkpt lat="45.54943506758781" lon="8.033609000627749"><ele>382.0</ele><time>2026-04-11T09:34:06.827Z</time></trkpt><trkpt lat="45.54953588400161" lon="8.033536347911264"><ele>382.20000000000005</ele><time>2026-04-11T09:34:08.827Z</time></trkpt><trkpt lat="45.54961800866264" lon="8.033483007896416"><ele>382.4</ele><time>2026-04-11T09:34:10.827Z</time></trkpt><trkpt lat="45.549735364470024" lon="8.033462843902937"><ele>382.6</ele><time>2026-04-11T09:34:12.827Z</time></trkpt><trkpt lat="45.54981614262703" lon="8.033516068174697"><ele>382.79999999999995</ele><time>2026-04-11T09:34:13.826Z</time></trkpt><trkpt lat="45.549904677360985" lon="8.03356162834758"><ele>383.0</ele><time>2026-04-11T09:34:14.826Z</time></trkpt><trkpt lat="45.54998010100183" lon="8.03364326087623"><ele>383.0</ele><time>2026-04-11T09:34:15.829Z</time></trkpt><trkpt lat="45.55006220585376" lon="8.033736269892936"><ele>383.0</ele><time>2026-04-11T09:34:16.829Z</time></trkpt><trkpt lat="45.55011919365434" lon="8.033905432099182"><ele>383.0</ele><time>2026-04-11T09:34:17.829Z</time></trkpt><trkpt lat="45.550190352594036" lon="8.034068746113244"><ele>383.0</ele><time>2026-04-11T09:34:18.828Z</time></trkpt><trkpt lat="45.55026570728924" lon="8.034237407964744"><ele>383.6666666666667</ele><time>2026-04-11T09:34:19.828Z</time></trkpt><trkpt lat="45.55034240153564" lon="8.034419211584224"><ele>384.33333333333337</ele><time>2026-04-11T09:34:20.828Z</time></trkpt><trkpt lat="45.5504196763136" lon="8.034608062082278"><ele>385.0</ele><time>2026-04-11T09:34:21.829Z</time></trkpt><trkpt lat="45.55049403575011" lon="8.034790607643073"><ele>385.25</ele><time>2026-04-11T09:34:22.829Z</time></trkpt><trkpt lat="45.550568365438224" lon="8.034968800462277"><ele>385.5</ele><time>2026-04-11T09:34:23.829Z</time></trkpt><trkpt lat="45.550644561329165" lon="8.035152797871865"><ele>385.75</ele><time>2026-04-11T09:34:24.828Z</time></trkpt><trkpt lat="45.55071131493114" lon="8.035336135720145"><ele>386.0</ele><time>2026-04-11T09:34:25.828Z</time></trkpt><trkpt lat="45.550773085235484" lon="8.035514942342385"><ele>386.0</ele><time>2026-04-11T09:34:26.828Z</time></trkpt><trkpt lat="45.550823641005145" lon="8.035690510773913"><ele>386.0</ele><time>2026-04-11T09:34:27.829Z</time></trkpt><trkpt lat="45.550868178987976" lon="8.035863538322662"><ele>386.0</ele><time>2026-04-11T09:34:28.828Z</time></trkpt><trkpt lat="45.550903712381114" lon="8.036032571668986"><ele>386.0</ele><time>2026-04-11T09:34:29.828Z</time></trkpt><trkpt lat="45.55093261974845" lon="8.036193625185774"><ele>386.20000000000005</ele><time>2026-04-11T09:34:30.828Z</time></trkpt><trkpt lat="45.55095733375793" lon="8.036349329647805"><ele>386.40000000000003</ele><time>2026-04-11T09:34:31.828Z</time></trkpt><trkpt lat="45.55097634676558" lon="8.03649050997479"><ele>386.6</ele><time>2026-04-11T09:34:32.828Z</time></trkpt><trkpt lat="45.5509902729884" lon="8.036626602768868"><ele>386.8</ele><time>2026-04-11T09:34:33.828Z</time></trkpt><trkpt lat="45.55100265392594" lon="8.036754736348975"><ele>387.0</ele><time>2026-04-11T09:34:34.828Z</time></trkpt><trkpt lat="45.551013456663895" lon="8.036883924462849"><ele>387.0</ele><time>2026-04-11T09:34:35.827Z</time></trkpt><trkpt lat="45.55101893770827" lon="8.037026968832029"><ele>387.0</ele><time>2026-04-11T09:34:36.827Z</time></trkpt><trkpt lat="45.55101889247703" lon="8.037178706442786"><ele>387.0</ele><time>2026-04-11T09:34:37.827Z</time></trkpt><trkpt lat="45.55101839263397" lon="8.037336396865205"><ele>387.0</ele><time>2026-04-11T09:34:38.827Z</time></trkpt><trkpt lat="45.55101771205351" lon="8.037498854957324"><ele>387.0</ele><time>2026-04-11T09:34:39.827Z</time></trkpt><trkpt lat="45.55101503476995" lon="8.037670098829423"><ele>386.75</ele><time>2026-04-11T09:34:40.827Z</time></trkpt><trkpt lat="45.55101330377084" lon="8.037844463213444"><ele>386.5</ele><time>2026-04-11T09:34:41.827Z</time></trkpt><trkpt lat="45.55101497928451" lon="8.038027710492045"><ele>386.25</ele><time>2026-04-11T09:34:42.827Z</time></trkpt><trkpt lat="45.551012750523114" lon="8.03822398798859"><ele>386.0</ele><time>2026-04-11T09:34:43.827Z</time></trkpt><trkpt lat="45.55100952183806" lon="8.03842401824823"><ele>386.0</ele><time>2026-04-11T09:34:44.827Z</time></trkpt><trkpt lat="45.55100711939063" lon="8.038628048052129"><ele>386.0</ele><time>2026-04-11T09:34:45.827Z</time></trkpt><trkpt lat="45.55100559846101" lon="8.038838209888782"><ele>386.0</ele><time>2026-04-11T09:34:46.827Z</time></trkpt><trkpt lat="45.55100257229979" lon="8.039053793163298"><ele>386.0</ele><time>2026-04-11T09:34:47.827Z</time></trkpt><trkpt lat="45.550998797280464" lon="8.039274524878218"><ele>386.0</ele><time>2026-04-11T09:34:48.827Z</time></trkpt><trkpt lat="45.55099555329399" lon="8.03949979999235"><ele>386.0</ele><time>2026-04-11T09:34:49.827Z</time></trkpt><trkpt lat="45.55098954538809" lon="8.039729749829148"><ele>386.0</ele><time>2026-04-11T09:34:50.827Z</time></trkpt><trkpt lat="45.550981649278064" lon="8.039963430427063"><ele>386.0</ele><time>2026-04-11T09:34:51.827Z</time></trkpt><trkpt lat="45.550976440881094" lon="8.04020018322312"><ele>386.0</ele><time>2026-04-11T09:34:52.827Z</time></trkpt><trkpt lat="45.55097072085775" lon="8.040431351774648"><ele>386.0</ele><time>2026-04-11T09:34:53.827Z</time></trkpt><trkpt lat="45.550971196962585" lon="8.040666119539418"><ele>385.66666666666663</ele><time>2026-04-11T09:34:54.827Z</time></trkpt><trkpt lat="45.55096926196255" lon="8.040898990343084"><ele>385.33333333333337</ele><time>2026-04-11T09:34:55.827Z</time></trkpt><trkpt lat="45.55096651985309" lon="8.0411351440905"><ele>385.0</ele><time>2026-04-11T09:34:56.826Z</time></trkpt><trkpt lat="45.550970629046056" lon="8.041376436309758"><ele>385.0</ele><time>2026-04-11T09:34:57.826Z</time></trkpt><trkpt lat="45.55097591434438" lon="8.04161276524833"><ele>385.0</ele><time>2026-04-11T09:34:58.826Z</time></trkpt><trkpt lat="45.55098733018434" lon="8.041854393133404"><ele>385.0</ele><time>2026-04-11T09:34:59.826Z</time></trkpt><trkpt lat="45.551007163557" lon="8.042088426360325"><ele>385.6666666666667</ele><time>2026-04-11T09:35:00.826Z</time></trkpt><trkpt lat="45.55103570926718" lon="8.042324506259064"><ele>386.33333333333337</ele><time>2026-04-11T09:35:01.826Z</time></trkpt><trkpt lat="45.5510645062206" lon="8.042569803801095"><ele>387.0</ele><time>2026-04-11T09:35:02.826Z</time></trkpt><trkpt lat="45.551092532950655" lon="8.042814584590879"><ele>387.33333333333337</ele><time>2026-04-11T09:35:03.826Z</time></trkpt><trkpt lat="45.551119002310074" lon="8.043057226347782"><ele>387.6666666666667</ele><time>2026-04-11T09:35:04.826Z</time></trkpt><trkpt lat="45.55114327281521" lon="8.043296874062262"><ele>388.0</ele><time>2026-04-11T09:35:05.826Z</time></trkpt><trkpt lat="45.551149265870606" lon="8.043532750864046"><ele>388.33333333333337</ele><time>2026-04-11T09:35:06.826Z</time></trkpt><trkpt lat="45.5511714306585" lon="8.043762727481594"><ele>388.66666666666663</ele><time>2026-04-11T09:35:07.826Z</time></trkpt><trkpt lat="45.5512112980943" lon="8.043984320730658"><ele>389.0</ele><time>2026-04-11T09:35:08.826Z</time></trkpt><trkpt lat="45.5512228968382" lon="8.044207741601802"><ele>389.0</ele><time>2026-04-11T09:35:09.826Z</time></trkpt><trkpt lat="45.55125237814845" lon="8.044425765564517"><ele>389.0</ele><time>2026-04-11T09:35:10.826Z</time></trkpt><trkpt lat="45.55128190784382" lon="8.044644491452143"><ele>389.0</ele><time>2026-04-11T09:35:11.826Z</time></trkpt><trkpt lat="45.55131176177012" lon="8.044870239128217"><ele>390.0</ele><time>2026-04-11T09:35:12.826Z</time></trkpt><trkpt lat="45.5513422309454" lon="8.04509381844482"><ele>391.0</ele><time>2026-04-11T09:35:13.826Z</time></trkpt><trkpt lat="45.551375220422706" lon="8.045318714111332"><ele>392.0</ele><time>2026-04-11T09:35:14.826Z</time></trkpt><trkpt lat="45.55140799445417" lon="8.045542295901138"><ele>392.0</ele><time>2026-04-11T09:35:15.826Z</time></trkpt><trkpt lat="45.55143991246987" lon="8.045769759033172"><ele>392.0</ele><time>2026-04-11T09:35:16.825Z</time></trkpt><trkpt lat="45.55147356080885" lon="8.045995544897476"><ele>392.0</ele><time>2026-04-11T09:35:17.825Z</time></trkpt><trkpt lat="45.5515066322715" lon="8.046217252084418"><ele>391.75</ele><time>2026-04-11T09:35:18.825Z</time></trkpt><trkpt lat="45.551536147368594" lon="8.046436588606863"><ele>391.5</ele><time>2026-04-11T09:35:19.825Z</time></trkpt><trkpt lat="45.551564046678216" lon="8.046646610718255"><ele>391.25</ele><time>2026-04-11T09:35:20.825Z</time></trkpt><trkpt lat="45.55158959676968" lon="8.046845537806021"><ele>391.0</ele><time>2026-04-11T09:35:21.825Z</time></trkpt><trkpt lat="45.55161263525878" lon="8.047034481125163"><ele>391.0</ele><time>2026-04-11T09:35:22.825Z</time></trkpt><trkpt lat="45.55163651201655" lon="8.047217327598453"><ele>391.0</ele><time>2026-04-11T09:35:23.825Z</time></trkpt><trkpt lat="45.5516582555307" lon="8.047400580423888"><ele>391.0</ele><time>2026-04-11T09:35:24.825Z</time></trkpt><trkpt lat="45.55167539090613" lon="8.047582628354785"><ele>391.0</ele><time>2026-04-11T09:35:25.825Z</time></trkpt><trkpt lat="45.55169181145188" lon="8.047760763918038"><ele>391.0</ele><time>2026-04-11T09:35:26.825Z</time></trkpt><trkpt lat="45.55170423707504" lon="8.047926257328058"><ele>391.0</ele><time>2026-04-11T09:35:27.825Z</time></trkpt><trkpt lat="45.55171132776447" lon="8.048083426451123"><ele>391.0</ele><time>2026-04-11T09:35:28.825Z</time></trkpt><trkpt lat="45.55171449062282" lon="8.048232535365315"><ele>391.0</ele><time>2026-04-11T09:35:29.825Z</time></trkpt><trkpt lat="45.55172413900721" lon="8.04837174176324"><ele>391.0</ele><time>2026-04-11T09:35:30.825Z</time></trkpt><trkpt lat="45.55174107977196" lon="8.048505652689782"><ele>391.00000000000006</ele><time>2026-04-11T09:35:31.825Z</time></trkpt><trkpt lat="45.5517249763056" lon="8.048634318097179"><ele>391.0</ele><time>2026-04-11T09:35:32.825Z</time></trkpt><trkpt lat="45.55173002190136" lon="8.048752406633833"><ele>391.0</ele><time>2026-04-11T09:35:33.825Z</time></trkpt><trkpt lat="45.55173504935253" lon="8.04886838080112"><ele>391.0</ele><time>2026-04-11T09:35:34.825Z</time></trkpt><trkpt lat="45.55173987930638" lon="8.048994528962377"><ele>391.00000000000006</ele><time>2026-04-11T09:35:35.825Z</time></trkpt><trkpt lat="45.55174526299223" lon="8.049142772432583"><ele>391.0</ele><time>2026-04-11T09:35:36.825Z</time></trkpt><trkpt lat="45.55174456441484" lon="8.049305549116898"><ele>391.0</ele><time>2026-04-11T09:35:37.824Z</time></trkpt><trkpt lat="45.55174610488534" lon="8.04946914982283"><ele>391.0</ele><time>2026-04-11T09:35:38.824Z</time></trkpt><trkpt lat="45.55174875572684" lon="8.049612343949349"><ele>391.0</ele><time>2026-04-11T09:35:39.824Z</time></trkpt><trkpt lat="45.551742014457936" lon="8.049735551720435"><ele>391.0</ele><time>2026-04-11T09:35:40.824Z</time></trkpt><trkpt lat="45.55172927963468" lon="8.049834566465659"><ele>391.0</ele><time>2026-04-11T09:35:41.824Z</time></trkpt><trkpt lat="45.551716181009" lon="8.049944037938232"><ele>391.0</ele><time>2026-04-11T09:35:43.824Z</time></trkpt><trkpt lat="45.55170307091571" lon="8.050049026788518"><ele>391.0</ele><time>2026-04-11T09:35:46.824Z</time></trkpt><trkpt lat="45.55168804887373" lon="8.050158205973878"><ele>391.0</ele><time>2026-04-11T09:35:48.824Z</time></trkpt><trkpt lat="45.55163002213806" lon="8.05034627515167"><ele>391.0</ele><time>2026-04-11T09:35:50.824Z</time></trkpt><trkpt lat="45.551655034961485" lon="8.05049570036258"><ele>391.0</ele><time>2026-04-11T09:35:51.824Z</time></trkpt><trkpt lat="45.551703033402866" lon="8.050656019579597"><ele>391.0</ele><time>2026-04-11T09:35:52.824Z</time></trkpt><trkpt lat="45.55174292087272" lon="8.050814318839564"><ele>391.0</ele><time>2026-04-11T09:35:53.824Z</time></trkpt><trkpt lat="45.55179912011898" lon="8.050978335477966"><ele>391.0</ele><time>2026-04-11T09:35:54.824Z</time></trkpt><trkpt lat="45.551849601140454" lon="8.051153653187045"><ele>391.0</ele><time>2026-04-11T09:35:55.824Z</time></trkpt><trkpt lat="45.55190372569747" lon="8.051326876430588"><ele>391.0</ele><time>2026-04-11T09:35:56.824Z</time></trkpt><trkpt lat="45.55195983855618" lon="8.05150646314126"><ele>391.0</ele><time>2026-04-11T09:35:57.823Z</time></trkpt><trkpt lat="45.55201824382956" lon="8.051693386411285"><ele>391.0</ele><time>2026-04-11T09:35:58.823Z</time></trkpt><trkpt lat="45.552075820873576" lon="8.051877943962262"><ele>391.0</ele><time>2026-04-11T09:35:59.823Z</time></trkpt><trkpt lat="45.55213252742754" lon="8.052058136563819"><ele>391.0</ele><time>2026-04-11T09:36:00.823Z</time></trkpt><trkpt lat="45.55217128969904" lon="8.052237376229625"><ele>391.0</ele><time>2026-04-11T09:36:01.823Z</time></trkpt><trkpt lat="45.55221832626756" lon="8.052424688023166"><ele>391.0</ele><time>2026-04-11T09:36:02.823Z</time></trkpt><trkpt lat="45.5522713904054" lon="8.052600308869959"><ele>391.0</ele><time>2026-04-11T09:36:03.823Z</time></trkpt><trkpt lat="45.55232446906505" lon="8.052774727490643"><ele>391.0</ele><time>2026-04-11T09:36:04.823Z</time></trkpt><trkpt lat="45.55238077252035" lon="8.052937729788967"><ele>391.0</ele><time>2026-04-11T09:36:05.823Z</time></trkpt><trkpt lat="45.5524372650893" lon="8.0531055997908"><ele>391.0</ele><time>2026-04-11T09:36:06.823Z</time></trkpt><trkpt lat="45.552495878117384" lon="8.053277606943594"><ele>391.0</ele><time>2026-04-11T09:36:07.823Z</time></trkpt><trkpt lat="45.55255031273969" lon="8.053448701568623"><ele>390.75</ele><time>2026-04-11T09:36:08.823Z</time></trkpt><trkpt lat="45.55260981028234" lon="8.053616520819729"><ele>390.5</ele><time>2026-04-11T09:36:09.823Z</time></trkpt><trkpt lat="45.55266103216546" lon="8.05377468183062"><ele>390.25</ele><time>2026-04-11T09:36:10.823Z</time></trkpt><trkpt lat="45.5527229759858" lon="8.053919888049254"><ele>390.0</ele><time>2026-04-11T09:36:11.823Z</time></trkpt><trkpt lat="45.552780805496695" lon="8.054053679234622"><ele>390.2</ele><time>2026-04-11T09:36:12.823Z</time></trkpt><trkpt lat="45.55282764551101" lon="8.054182662436407"><ele>390.4</ele><time>2026-04-11T09:36:13.823Z</time></trkpt><trkpt lat="45.55287530427304" lon="8.054304976953372"><ele>390.6</ele><time>2026-04-11T09:36:14.823Z</time></trkpt><trkpt lat="45.552929796776525" lon="8.054423657471576"><ele>390.8</ele><time>2026-04-11T09:36:15.823Z</time></trkpt><trkpt lat="45.55297053357058" lon="8.054551100273331"><ele>391.0</ele><time>2026-04-11T09:36:16.823Z</time></trkpt><trkpt lat="45.5529723050152" lon="8.054701049345038"><ele>391.6</ele><time>2026-04-11T09:36:17.823Z</time></trkpt><trkpt lat="45.5530117277924" lon="8.054826322868996"><ele>392.20000000000005</ele><time>2026-04-11T09:36:18.822Z</time></trkpt><trkpt lat="45.55304976371484" lon="8.054946684660294"><ele>392.79999999999995</ele><time>2026-04-11T09:36:19.822Z</time></trkpt><trkpt lat="45.55308579596325" lon="8.055059860328178"><ele>393.4</ele><time>2026-04-11T09:36:20.822Z</time></trkpt><trkpt lat="45.55312296731073" lon="8.055176014557999"><ele>394.0</ele><time>2026-04-11T09:36:21.824Z</time></trkpt><trkpt lat="45.553157847003035" lon="8.05528608424802"><ele>394.0</ele><time>2026-04-11T09:36:22.825Z</time></trkpt><trkpt lat="45.55319166516161" lon="8.055392804058986"><ele>394.0</ele><time>2026-04-11T09:36:23.825Z</time></trkpt><trkpt lat="45.55322033317483" lon="8.055483271579615"><ele>394.0</ele><time>2026-04-11T09:36:24.825Z</time></trkpt><trkpt lat="45.553246659123815" lon="8.05556634826066"><ele>394.0</ele><time>2026-04-11T09:36:25.825Z</time></trkpt><trkpt lat="45.55329346819474" lon="8.055714063300309"><ele>394.0</ele><time>2026-04-11T09:36:27.824Z</time></trkpt><trkpt lat="45.55334477883141" lon="8.055875244201829"><ele>394.0</ele><time>2026-04-11T09:36:29.825Z</time></trkpt><trkpt lat="45.55338608604934" lon="8.056005130156409"><ele>394.0</ele><time>2026-04-11T09:36:31.824Z</time></trkpt><trkpt lat="45.55342770056327" lon="8.056136318438107"><ele>394.0</ele><time>2026-04-11T09:37:01.823Z</time></trkpt><trkpt lat="45.55345663831179" lon="8.056228456778406"><ele>394.0</ele><time>2026-04-11T09:37:02.823Z</time></trkpt><trkpt lat="45.553496186270614" lon="8.056352239921738"><ele>394.0</ele><time>2026-04-11T09:37:03.823Z</time></trkpt><trkpt lat="45.55353585888773" lon="8.056476986958385"><ele>394.0</ele><time>2026-04-11T09:37:04.823Z</time></trkpt><trkpt lat="45.55357913843011" lon="8.05661317047874"><ele>394.0</ele><time>2026-04-11T09:37:05.823Z</time></trkpt><trkpt lat="45.55362449612471" lon="8.056757000849894"><ele>394.0</ele><time>2026-04-11T09:37:06.823Z</time></trkpt><trkpt lat="45.55367083076906" lon="8.056903657705472"><ele>394.0</ele><time>2026-04-11T09:37:07.823Z</time></trkpt><trkpt lat="45.553718307274146" lon="8.057053928749859"><ele>394.0</ele><time>2026-04-11T09:37:08.823Z</time></trkpt><trkpt lat="45.55376679354067" lon="8.057207395836254"><ele>394.75</ele><time>2026-04-11T09:37:09.823Z</time></trkpt><trkpt lat="45.55380361259602" lon="8.057345912682447"><ele>395.5</ele><time>2026-04-11T09:37:10.823Z</time></trkpt><trkpt lat="45.553851947635344" lon="8.057502507875517"><ele>396.25</ele><time>2026-04-11T09:37:11.823Z</time></trkpt><trkpt lat="45.55390713946083" lon="8.057657801729334"><ele>397.0</ele><time>2026-04-11T09:37:12.823Z</time></trkpt><trkpt lat="45.553961136008354" lon="8.05782104108495"><ele>397.25</ele><time>2026-04-11T09:37:13.823Z</time></trkpt><trkpt lat="45.554018156741364" lon="8.057987249497558"><ele>397.5</ele><time>2026-04-11T09:37:14.823Z</time></trkpt><trkpt lat="45.55407948008441" lon="8.058162250280953"><ele>397.75</ele><time>2026-04-11T09:37:15.823Z</time></trkpt><trkpt lat="45.554136972740196" lon="8.058339265158699"><ele>398.0</ele><time>2026-04-11T09:37:16.823Z</time></trkpt><trkpt lat="45.554197798501825" lon="8.058513324421405"><ele>397.5</ele><time>2026-04-11T09:37:17.823Z</time></trkpt><trkpt lat="45.5542309764801" lon="8.05870032460873"><ele>397.0</ele><time>2026-04-11T09:37:18.823Z</time></trkpt><trkpt lat="45.55429243525016" lon="8.058860592074431"><ele>396.5</ele><time>2026-04-11T09:37:19.822Z</time></trkpt><trkpt lat="45.55434781353142" lon="8.059021729490244"><ele>396.0</ele><time>2026-04-11T09:37:20.822Z</time></trkpt><trkpt lat="45.55440428792431" lon="8.059179315072447"><ele>396.0</ele><time>2026-04-11T09:37:21.822Z</time></trkpt><trkpt lat="45.55444505181562" lon="8.059346659732919"><ele>396.0</ele><time>2026-04-11T09:37:22.822Z</time></trkpt><trkpt lat="45.55449490317868" lon="8.05950445585459"><ele>396.0</ele><time>2026-04-11T09:37:23.822Z</time></trkpt><trkpt lat="45.554550063283685" lon="8.05964958613243"><ele>396.0</ele><time>2026-04-11T09:37:24.822Z</time></trkpt><trkpt lat="45.55459012470703" lon="8.05980635445231"><ele>396.25</ele><time>2026-04-11T09:37:25.822Z</time></trkpt><trkpt lat="45.554652180757714" lon="8.059952066999076"><ele>396.5</ele><time>2026-04-11T09:37:26.822Z</time></trkpt><trkpt lat="45.554692075806365" lon="8.060127035715423"><ele>396.75</ele><time>2026-04-11T09:37:27.822Z</time></trkpt><trkpt lat="45.55474776063699" lon="8.060279411119952"><ele>397.0</ele><time>2026-04-11T09:37:28.822Z</time></trkpt><trkpt lat="45.5547983809318" lon="8.060424154636834"><ele>397.0</ele><time>2026-04-11T09:37:29.822Z</time></trkpt><trkpt lat="45.554841490900344" lon="8.060553860413494"><ele>397.0</ele><time>2026-04-11T09:37:30.822Z</time></trkpt><trkpt lat="45.55488177708975" lon="8.060672925006154"><ele>397.0</ele><time>2026-04-11T09:37:31.822Z</time></trkpt><trkpt lat="45.554915959906616" lon="8.06078800187369"><ele>397.0</ele><time>2026-04-11T09:37:32.822Z</time></trkpt><trkpt lat="45.5549493176474" lon="8.060919555910068"><ele>397.0</ele><time>2026-04-11T09:37:33.822Z</time></trkpt><trkpt lat="45.55499127701274" lon="8.061059522053318"><ele>396.83333333333337</ele><time>2026-04-11T09:37:34.822Z</time></trkpt><trkpt lat="45.555035040001144" lon="8.061194326090211"><ele>396.6666666666667</ele><time>2026-04-11T09:37:35.822Z</time></trkpt><trkpt lat="45.55507557638012" lon="8.061321817099602"><ele>396.5</ele><time>2026-04-11T09:37:36.822Z</time></trkpt><trkpt lat="45.55510571208778" lon="8.06142898331527"><ele>396.33333333333337</ele><time>2026-04-11T09:37:37.822Z</time></trkpt><trkpt lat="45.55512894857807" lon="8.061526791424503"><ele>396.1666666666667</ele><time>2026-04-11T09:37:38.822Z</time></trkpt><trkpt lat="45.55514825410279" lon="8.061613695587672"><ele>396.0</ele><time>2026-04-11T09:37:39.821Z</time></trkpt><trkpt lat="45.55518837246042" lon="8.061799112758218"><ele>395.8</ele><time>2026-04-11T09:37:41.821Z</time></trkpt><trkpt lat="45.55521956892909" lon="8.061924962284621"><ele>395.6</ele><time>2026-04-11T09:37:42.821Z</time></trkpt><trkpt lat="45.555265160222945" lon="8.062064388292379"><ele>395.4</ele><time>2026-04-11T09:37:43.821Z</time></trkpt><trkpt lat="45.555311437344294" lon="8.062206950071644"><ele>395.2</ele><time>2026-04-11T09:37:44.821Z</time></trkpt><trkpt lat="45.55534581577504" lon="8.062332970809365"><ele>395.0</ele><time>2026-04-11T09:37:45.821Z</time></trkpt><trkpt lat="45.55540482441281" lon="8.062424186574527"><ele>395.6</ele><time>2026-04-11T09:37:46.821Z</time></trkpt><trkpt lat="45.55541491608029" lon="8.062591749207327"><ele>396.2</ele><time>2026-04-11T09:37:48.821Z</time></trkpt><trkpt lat="45.555427781864424" lon="8.062712907332305"><ele>396.79999999999995</ele><time>2026-04-11T09:37:50.821Z</time></trkpt><trkpt lat="45.555398606809064" lon="8.06284432811847"><ele>397.4</ele><time>2026-04-11T09:37:52.821Z</time></trkpt><trkpt lat="45.55540435150068" lon="8.062979645601002"><ele>398.0</ele><time>2026-04-11T09:37:54.821Z</time></trkpt><trkpt lat="45.555430626421696" lon="8.063139123675928"><ele>397.8333333333333</ele><time>2026-04-11T09:37:56.821Z</time></trkpt><trkpt lat="45.55540895301792" lon="8.063294345175164"><ele>397.66666666666663</ele><time>2026-04-11T09:37:58.821Z</time></trkpt><trkpt lat="45.55538403025903" lon="8.06338739654936"><ele>397.5</ele><time>2026-04-11T09:37:59.821Z</time></trkpt><trkpt lat="45.555367307548735" lon="8.063488458557824"><ele>397.33333333333337</ele><time>2026-04-11T09:38:00.82Z</time></trkpt><trkpt lat="45.55535041336564" lon="8.06361318793895"><ele>397.1666666666667</ele><time>2026-04-11T09:38:01.82Z</time></trkpt><trkpt lat="45.55531065469093" lon="8.063728057688873"><ele>397.0</ele><time>2026-04-11T09:38:02.82Z</time></trkpt><trkpt lat="45.55528343754809" lon="8.06386034903388"><ele>397.0</ele><time>2026-04-11T09:38:03.82Z</time></trkpt><trkpt lat="45.55525767177132" lon="8.063988828627254"><ele>397.0</ele><time>2026-04-11T09:38:04.82Z</time></trkpt><trkpt lat="45.55522999061692" lon="8.06411589619978"><ele>397.0</ele><time>2026-04-11T09:38:05.82Z</time></trkpt><trkpt lat="45.55520307442309" lon="8.064231722562582"><ele>397.0</ele><time>2026-04-11T09:38:06.82Z</time></trkpt><trkpt lat="45.55517643761668" lon="8.064350159305585"><ele>397.0</ele><time>2026-04-11T09:38:07.82Z</time></trkpt><trkpt lat="45.555148146361596" lon="8.064475321129958"><ele>396.6</ele><time>2026-04-11T09:38:08.82Z</time></trkpt><trkpt lat="45.55511976255008" lon="8.064611260569496"><ele>396.20000000000005</ele><time>2026-04-11T09:38:09.82Z</time></trkpt><trkpt lat="45.55509485793064" lon="8.064756608568592"><ele>395.8</ele><time>2026-04-11T09:38:10.82Z</time></trkpt><trkpt lat="45.55506482006205" lon="8.064892996943188"><ele>395.4</ele><time>2026-04-11T09:38:11.82Z</time></trkpt><trkpt lat="45.55503929007392" lon="8.06500112012415"><ele>395.0</ele><time>2026-04-11T09:38:12.82Z</time></trkpt><trkpt lat="45.55500868196405" lon="8.065123792515536"><ele>394.99999999999994</ele><time>2026-04-11T09:38:14.82Z</time></trkpt><trkpt lat="45.554988244771366" lon="8.065227362999988"><ele>395.0</ele><time>2026-04-11T09:38:17.82Z</time></trkpt><trkpt lat="45.55496121944658" lon="8.065355352798269"><ele>395.0</ele><time>2026-04-11T09:38:19.82Z</time></trkpt><trkpt lat="45.55493800661378" lon="8.065462796002102"><ele>395.0</ele><time>2026-04-11T09:38:20.819Z</time></trkpt><trkpt lat="45.55491440368179" lon="8.065572497504002"><ele>394.99999999999994</ele><time>2026-04-11T09:38:21.819Z</time></trkpt><trkpt lat="45.55488930940101" lon="8.065689130501672"><ele>395.0</ele><time>2026-04-11T09:38:22.819Z</time></trkpt><trkpt lat="45.554866013025055" lon="8.065797796549003"><ele>394.8</ele><time>2026-04-11T09:38:23.819Z</time></trkpt><trkpt lat="45.554857685575804" lon="8.065913752920125"><ele>394.6</ele><time>2026-04-11T09:38:26.819Z</time></trkpt><trkpt lat="45.55481684502761" lon="8.066027918914248"><ele>394.4</ele><time>2026-04-11T09:38:29.821Z</time></trkpt><trkpt lat="45.554780996513436" lon="8.066195701392644"><ele>394.2</ele><time>2026-04-11T09:38:31.821Z</time></trkpt><trkpt lat="45.554758137825495" lon="8.066304137646823"><ele>394.0</ele><time>2026-04-11T09:38:32.821Z</time></trkpt><trkpt lat="45.55473068939516" lon="8.066433761023557"><ele>394.0</ele><time>2026-04-11T09:38:33.821Z</time></trkpt><trkpt lat="45.554703461561196" lon="8.066562342678482"><ele>394.0</ele><time>2026-04-11T09:38:34.821Z</time></trkpt><trkpt lat="45.55467427329002" lon="8.066700182331576"><ele>394.0</ele><time>2026-04-11T09:38:35.821Z</time></trkpt><trkpt lat="45.55464308669197" lon="8.066847458972273"><ele>394.0</ele><time>2026-04-11T09:38:36.821Z</time></trkpt><trkpt lat="45.55460167028217" lon="8.066966172078859"><ele>394.0</ele><time>2026-04-11T09:38:37.821Z</time></trkpt><trkpt lat="45.55457046027437" lon="8.067062334901426"><ele>394.0</ele><time>2026-04-11T09:38:38.821Z</time></trkpt><trkpt lat="45.55454526071699" lon="8.067156328762668"><ele>394.0</ele><time>2026-04-11T09:38:39.82Z</time></trkpt><trkpt lat="45.554526742107974" lon="8.067254058038111"><ele>394.0</ele><time>2026-04-11T09:38:40.82Z</time></trkpt><trkpt lat="45.55449665173773" lon="8.06742976220457"><ele>394.0</ele><time>2026-04-11T09:38:42.82Z</time></trkpt><trkpt lat="45.554477210097026" lon="8.067627166140134"><ele>394.0</ele><time>2026-04-11T09:38:44.82Z</time></trkpt><trkpt lat="45.5544594473107" lon="8.067734990899623"><ele>393.33333333333337</ele><time>2026-04-11T09:38:45.82Z</time></trkpt><trkpt lat="45.55443849748292" lon="8.067841133614769"><ele>392.6666666666667</ele><time>2026-04-11T09:38:46.82Z</time></trkpt><trkpt lat="45.55441168420691" lon="8.067948215374496"><ele>392.0</ele><time>2026-04-11T09:38:47.82Z</time></trkpt><trkpt lat="45.55439000319419" lon="8.068044780640518"><ele>391.33333333333337</ele><time>2026-04-11T09:38:48.82Z</time></trkpt><trkpt lat="45.55436391296956" lon="8.068143006201238"><ele>390.6666666666667</ele><time>2026-04-11T09:38:50.82Z</time></trkpt><trkpt lat="45.55433026400595" lon="8.068241400166917"><ele>390.0</ele><time>2026-04-11T09:38:56.82Z</time></trkpt><trkpt lat="45.55425948856827" lon="8.068318677999008"><ele>389.8333333333333</ele><time>2026-04-11T09:38:58.819Z</time></trkpt><trkpt lat="45.55423042753172" lon="8.068400510260064"><ele>389.66666666666663</ele><time>2026-04-11T09:38:59.819Z</time></trkpt><trkpt lat="45.554226102255704" lon="8.068506714343533"><ele>389.5</ele><time>2026-04-11T09:39:00.819Z</time></trkpt><trkpt lat="45.554238858474655" lon="8.068614304174545"><ele>389.3333333333333</ele><time>2026-04-11T09:39:01.819Z</time></trkpt><trkpt lat="45.55422809278026" lon="8.068748803077396"><ele>389.16666666666663</ele><time>2026-04-11T09:39:02.819Z</time></trkpt><trkpt lat="45.55420983370285" lon="8.068883998200386"><ele>389.0</ele><time>2026-04-11T09:39:03.819Z</time></trkpt><trkpt lat="45.5541893513335" lon="8.069005917905049"><ele>388.7142857142857</ele><time>2026-04-11T09:39:04.819Z</time></trkpt><trkpt lat="45.5541761523386" lon="8.06910997266955"><ele>388.4285714285714</ele><time>2026-04-11T09:39:05.819Z</time></trkpt><trkpt lat="45.554165584580566" lon="8.069200333188503"><ele>388.1428571428571</ele><time>2026-04-11T09:39:06.819Z</time></trkpt><trkpt lat="45.554152982506814" lon="8.0693241171466"><ele>387.8571428571429</ele><time>2026-04-11T09:39:08.819Z</time></trkpt><trkpt lat="45.554120025565076" lon="8.069404468395586"><ele>387.57142857142856</ele><time>2026-04-11T09:39:11.819Z</time></trkpt><trkpt lat="45.55409827438956" lon="8.069502547728113"><ele>387.2857142857143</ele><time>2026-04-11T09:39:13.819Z</time></trkpt><trkpt lat="45.55407881144315" lon="8.069590309027944"><ele>387.0</ele><time>2026-04-11T09:39:14.819Z</time></trkpt><trkpt lat="45.55405631807163" lon="8.069693066603145"><ele>387.0</ele><time>2026-04-11T09:39:15.819Z</time></trkpt><trkpt lat="45.55402835864659" lon="8.06982066553058"><ele>387.0</ele><time>2026-04-11T09:39:16.819Z</time></trkpt><trkpt lat="45.55399616673083" lon="8.069967579896929"><ele>387.0</ele><time>2026-04-11T09:39:17.819Z</time></trkpt><trkpt lat="45.554006018608916" lon="8.070135238866662"><ele>387.0</ele><time>2026-04-11T09:39:18.818Z</time></trkpt><trkpt lat="45.553978271540565" lon="8.070288641306131"><ele>387.0</ele><time>2026-04-11T09:39:19.818Z</time></trkpt><trkpt lat="45.55394398986366" lon="8.070456571359683"><ele>387.25</ele><time>2026-04-11T09:39:20.818Z</time></trkpt><trkpt lat="45.55390849111036" lon="8.07061509079274"><ele>387.5</ele><time>2026-04-11T09:39:21.818Z</time></trkpt><trkpt lat="45.55387266227947" lon="8.070771156431155"><ele>387.75</ele><time>2026-04-11T09:39:22.818Z</time></trkpt><trkpt lat="45.55383679355597" lon="8.07092316627125"><ele>388.0</ele><time>2026-04-11T09:39:23.818Z</time></trkpt><trkpt lat="45.55380043133016" lon="8.071068963392179"><ele>387.6666666666667</ele><time>2026-04-11T09:39:24.818Z</time></trkpt><trkpt lat="45.553736810509065" lon="8.071186028554411"><ele>387.33333333333337</ele><time>2026-04-11T09:39:25.818Z</time></trkpt><trkpt lat="45.553710957074614" lon="8.07130402149187"><ele>387.0</ele><time>2026-04-11T09:39:26.818Z</time></trkpt><trkpt lat="45.553687173905836" lon="8.071416618813956"><ele>386.66666666666663</ele><time>2026-04-11T09:39:27.818Z</time></trkpt><trkpt lat="45.55366556528876" lon="8.07152235939401"><ele>386.3333333333333</ele><time>2026-04-11T09:39:28.818Z</time></trkpt><trkpt lat="45.55364613416777" lon="8.071617444376528"><ele>386.0</ele><time>2026-04-11T09:39:29.818Z</time></trkpt><trkpt lat="45.55360975582421" lon="8.071721513473035"><ele>385.8333333333333</ele><time>2026-04-11T09:39:31.818Z</time></trkpt><trkpt lat="45.553580234225485" lon="8.071802144972475"><ele>385.66666666666663</ele><time>2026-04-11T09:39:35.818Z</time></trkpt><trkpt lat="45.55360867395985" lon="8.071882754431162"><ele>385.5</ele><time>2026-04-11T09:40:50.812Z</time></trkpt><trkpt lat="45.55361675092845" lon="8.071766803374139"><ele>385.33333333333337</ele><time>2026-04-11T09:41:03.811Z</time></trkpt><trkpt lat="45.5536211240313" lon="8.071911079634718"><ele>385.1666666666667</ele><time>2026-04-11T10:10:51.999Z</time></trkpt><trkpt lat="45.553575050479985" lon="8.07208323699995"><ele>385.0</ele><time>2026-04-11T10:10:53.999Z</time></trkpt><trkpt lat="45.553541566083965" lon="8.072240376148509"><ele>385.0</ele><time>2026-04-11T10:10:55.999Z</time></trkpt><trkpt lat="45.5535203014294" lon="8.072352813212596"><ele>385.0</ele><time>2026-04-11T10:10:57.999Z</time></trkpt><trkpt lat="45.55347646164161" lon="8.072434491927032"><ele>385.0</ele><time>2026-04-11T10:11:01.999Z</time></trkpt><trkpt lat="45.55342634150958" lon="8.07251921142609"><ele>385.0</ele><time>2026-04-11T10:11:05.999Z</time></trkpt><trkpt lat="45.553363327270375" lon="8.072654825663816"><ele>385.0</ele><time>2026-04-11T10:11:07.999Z</time></trkpt><trkpt lat="45.553358258112546" lon="8.07281242883852"><ele>384.8</ele><time>2026-04-11T10:11:09.999Z</time></trkpt><trkpt lat="45.55335796979516" lon="8.072925172076436"><ele>384.6</ele><time>2026-04-11T10:11:10.999Z</time></trkpt><trkpt lat="45.553502127887896" lon="8.072929311428204"><ele>384.4</ele><time>2026-04-11T10:11:12.999Z</time></trkpt><trkpt lat="45.5535759923889" lon="8.072936131087816"><ele>384.2</ele><time>2026-04-11T10:11:13.999Z</time></trkpt><trkpt lat="45.55366768680143" lon="8.0729555500003"><ele>384.0</ele><time>2026-04-11T10:11:14.999Z</time></trkpt><trkpt lat="45.55377389578143" lon="8.072985946147785"><ele>384.5</ele><time>2026-04-11T10:11:15.999Z</time></trkpt><trkpt lat="45.553877601114046" lon="8.07302789187387"><ele>385.0</ele><time>2026-04-11T10:11:16.999Z</time></trkpt><trkpt lat="45.55397974944322" lon="8.073075411267537"><ele>385.5</ele><time>2026-04-11T10:11:17.999Z</time></trkpt><trkpt lat="45.55409229859033" lon="8.073127511055242"><ele>386.0</ele><time>2026-04-11T10:11:18.999Z</time></trkpt><trkpt lat="45.55420812227363" lon="8.07317483518952"><ele>386.0</ele><time>2026-04-11T10:11:19.999Z</time></trkpt><trkpt lat="45.55432697005112" lon="8.073222479975064"><ele>386.0</ele><time>2026-04-11T10:11:20.999Z</time></trkpt><trkpt lat="45.55443772235903" lon="8.073268368133002"><ele>386.0</ele><time>2026-04-11T10:11:21.999Z</time></trkpt><trkpt lat="45.554545787851595" lon="8.073314228695136"><ele>386.0</ele><time>2026-04-11T10:11:22.999Z</time></trkpt><trkpt lat="45.55466478917204" lon="8.073363415555924"><ele>385.75</ele><time>2026-04-11T10:11:23.999Z</time></trkpt><trkpt lat="45.55479473854081" lon="8.073416921877378"><ele>385.5</ele><time>2026-04-11T10:11:24.998Z</time></trkpt><trkpt lat="45.554930631268746" lon="8.073470688039963"><ele>385.25</ele><time>2026-04-11T10:11:25.998Z</time></trkpt><trkpt lat="45.555069521690356" lon="8.073520323924962"><ele>385.0</ele><time>2026-04-11T10:11:26.998Z</time></trkpt><trkpt lat="45.55520629980707" lon="8.073561779224159"><ele>385.0</ele><time>2026-04-11T10:11:27.998Z</time></trkpt><trkpt lat="45.555342511211194" lon="8.07359321302628"><ele>385.0</ele><time>2026-04-11T10:11:28.998Z</time></trkpt><trkpt lat="45.555477983106414" lon="8.073616356416554"><ele>385.0</ele><time>2026-04-11T10:11:29.998Z</time></trkpt><trkpt lat="45.555612588823024" lon="8.07366463963763"><ele>385.0</ele><time>2026-04-11T10:11:30.998Z</time></trkpt><trkpt lat="45.55575522110349" lon="8.073680411434928"><ele>384.5</ele><time>2026-04-11T10:11:31.998Z</time></trkpt><trkpt lat="45.55590129970338" lon="8.073685572914792"><ele>384.0</ele><time>2026-04-11T10:11:32.998Z</time></trkpt><trkpt lat="45.556040873486616" lon="8.073661702900777"><ele>383.5</ele><time>2026-04-11T10:11:33.998Z</time></trkpt><trkpt lat="45.5561780071726" lon="8.073660591519095"><ele>383.0</ele><time>2026-04-11T10:11:34.998Z</time></trkpt><trkpt lat="45.55631601608744" lon="8.073652179386189"><ele>382.75</ele><time>2026-04-11T10:11:35.998Z</time></trkpt><trkpt lat="45.55646102896235" lon="8.073638371981142"><ele>382.5</ele><time>2026-04-11T10:11:36.998Z</time></trkpt><trkpt lat="45.556605260177285" lon="8.073625471627007"><ele>382.25</ele><time>2026-04-11T10:11:37.998Z</time></trkpt><trkpt lat="45.55674640425611" lon="8.07361233078548"><ele>382.0</ele><time>2026-04-11T10:11:38.998Z</time></trkpt><trkpt lat="45.55688045949804" lon="8.073626356507189"><ele>382.0</ele><time>2026-04-11T10:11:39.998Z</time></trkpt><trkpt lat="45.55701816558417" lon="8.073615605326975"><ele>382.0</ele><time>2026-04-11T10:11:40.998Z</time></trkpt><trkpt lat="45.55715409279059" lon="8.073602929287253"><ele>382.0</ele><time>2026-04-11T10:11:41.998Z</time></trkpt><trkpt lat="45.55728935463144" lon="8.073589265623204"><ele>382.0</ele><time>2026-04-11T10:11:42.998Z</time></trkpt><trkpt lat="45.55742588166377" lon="8.07357503612942"><ele>377.75</ele><time>2026-04-11T10:11:43.998Z</time></trkpt><trkpt lat="45.55755888599488" lon="8.073562353512946"><ele>373.5</ele><time>2026-04-11T10:11:44.998Z</time></trkpt><trkpt lat="45.55768978315406" lon="8.073549121086371"><ele>369.25</ele><time>2026-04-11T10:11:45.998Z</time></trkpt><trkpt lat="45.557822686245046" lon="8.073536909614404"><ele>365.0</ele><time>2026-04-11T10:11:46.998Z</time></trkpt><trkpt lat="45.55796313644327" lon="8.07352701605783"><ele>361.5</ele><time>2026-04-11T10:11:47.998Z</time></trkpt><trkpt lat="45.55810026489979" lon="8.073516572861804"><ele>358.0</ele><time>2026-04-11T10:11:48.998Z</time></trkpt><trkpt lat="45.55822641036344" lon="8.073507073508841"><ele>354.5</ele><time>2026-04-11T10:11:49.998Z</time></trkpt><trkpt lat="45.55834413200032" lon="8.073497932647541"><ele>351.0</ele><time>2026-04-11T10:11:50.998Z</time></trkpt><trkpt lat="45.5584569770141" lon="8.073485702090593"><ele>351.0</ele><time>2026-04-11T10:11:51.998Z</time></trkpt><trkpt lat="45.558569710216936" lon="8.073475153096357"><ele>351.0</ele><time>2026-04-11T10:11:52.998Z</time></trkpt><trkpt lat="45.55868171405377" lon="8.073466363554443"><ele>351.0</ele><time>2026-04-11T10:11:53.998Z</time></trkpt><trkpt lat="45.558796491968536" lon="8.073455337989502"><ele>351.0</ele><time>2026-04-11T10:11:54.998Z</time></trkpt><trkpt lat="45.558913152271565" lon="8.073442110046452"><ele>350.25</ele><time>2026-04-11T10:11:55.998Z</time></trkpt><trkpt lat="45.55902940425999" lon="8.0734298740632"><ele>349.5</ele><time>2026-04-11T10:11:56.998Z</time></trkpt><trkpt lat="45.55915033901995" lon="8.073419596443385"><ele>348.75</ele><time>2026-04-11T10:11:57.998Z</time></trkpt><trkpt lat="45.55927341946999" lon="8.073411871082767"><ele>348.0</ele><time>2026-04-11T10:11:58.998Z</time></trkpt><trkpt lat="45.559392585096155" lon="8.073403686135958"><ele>348.0</ele><time>2026-04-11T10:11:59.998Z</time></trkpt><trkpt lat="45.55950417234072" lon="8.073396169703472"><ele>348.0</ele><time>2026-04-11T10:12:00.998Z</time></trkpt><trkpt lat="45.5596108175491" lon="8.073387841529382"><ele>348.0</ele><time>2026-04-11T10:12:01.998Z</time></trkpt><trkpt lat="45.55970794858955" lon="8.073377656648736"><ele>348.0</ele><time>2026-04-11T10:12:02.998Z</time></trkpt><trkpt lat="45.559801520782585" lon="8.07336749443556"><ele>348.0</ele><time>2026-04-11T10:12:03.998Z</time></trkpt><trkpt lat="45.55990097107952" lon="8.07335827065317"><ele>349.25</ele><time>2026-04-11T10:12:04.998Z</time></trkpt><trkpt lat="45.56000737442676" lon="8.07334830290319"><ele>350.5</ele><time>2026-04-11T10:12:05.998Z</time></trkpt><trkpt lat="45.560117466787425" lon="8.073338730610091"><ele>351.75</ele><time>2026-04-11T10:12:06.998Z</time></trkpt><trkpt lat="45.56023171167455" lon="8.07332692469437"><ele>353.0</ele><time>2026-04-11T10:12:07.998Z</time></trkpt><trkpt lat="45.56035084875898" lon="8.073311212376806"><ele>354.25</ele><time>2026-04-11T10:12:08.998Z</time></trkpt><trkpt lat="45.560471882502185" lon="8.073302460799306"><ele>355.5</ele><time>2026-04-11T10:12:09.998Z</time></trkpt><trkpt lat="45.56059726675203" lon="8.07329593878137"><ele>356.75</ele><time>2026-04-11T10:12:10.997Z</time></trkpt><trkpt lat="45.56072739830128" lon="8.07328699074128"><ele>358.0</ele><time>2026-04-11T10:12:11.997Z</time></trkpt><trkpt lat="45.560858555566234" lon="8.073275546388626"><ele>358.25</ele><time>2026-04-11T10:12:12.997Z</time></trkpt><trkpt lat="45.560990115829966" lon="8.07326163810024"><ele>358.5</ele><time>2026-04-11T10:12:13.997Z</time></trkpt><trkpt lat="45.56112333161378" lon="8.073251083702818"><ele>358.75</ele><time>2026-04-11T10:12:14.997Z</time></trkpt><trkpt lat="45.56125264933851" lon="8.073238134927587"><ele>359.0</ele><time>2026-04-11T10:12:15.997Z</time></trkpt><trkpt lat="45.56138121143421" lon="8.073227957273193"><ele>359.0</ele><time>2026-04-11T10:12:16.997Z</time></trkpt><trkpt lat="45.561509462973206" lon="8.073212490960834"><ele>359.0</ele><time>2026-04-11T10:12:17.997Z</time></trkpt><trkpt lat="45.561637884509594" lon="8.073198982792873"><ele>359.0</ele><time>2026-04-11T10:12:18.997Z</time></trkpt><trkpt lat="45.56176675016826" lon="8.073186108818103"><ele>359.0</ele><time>2026-04-11T10:12:19.997Z</time></trkpt><trkpt lat="45.561883026944834" lon="8.073178259813885"><ele>359.0</ele><time>2026-04-11T10:12:20.997Z</time></trkpt><trkpt lat="45.561992998720875" lon="8.07317596587754"><ele>359.0</ele><time>2026-04-11T10:12:21.997Z</time></trkpt><trkpt lat="45.56210619498397" lon="8.073178590912205"><ele>359.0</ele><time>2026-04-11T10:12:22.997Z</time></trkpt><trkpt lat="45.56222195375929" lon="8.073178692417496"><ele>359.0</ele><time>2026-04-11T10:12:23.997Z</time></trkpt><trkpt lat="45.5623395693116" lon="8.073170030828736"><ele>359.4</ele><time>2026-04-11T10:12:24.997Z</time></trkpt><trkpt lat="45.56245117480196" lon="8.073168323008732"><ele>359.79999999999995</ele><time>2026-04-11T10:12:25.997Z</time></trkpt><trkpt lat="45.56255538148702" lon="8.073173039529921"><ele>360.20000000000005</ele><time>2026-04-11T10:12:26.997Z</time></trkpt><trkpt lat="45.56265310414718" lon="8.073180173270957"><ele>360.6</ele><time>2026-04-11T10:12:27.997Z</time></trkpt><trkpt lat="45.56275706276264" lon="8.073193026096403"><ele>361.0</ele><time>2026-04-11T10:12:28.997Z</time></trkpt><trkpt lat="45.56286807494977" lon="8.073230442031576"><ele>362.25</ele><time>2026-04-11T10:12:29.997Z</time></trkpt><trkpt lat="45.562975319101994" lon="8.073297217144114"><ele>363.5</ele><time>2026-04-11T10:12:30.997Z</time></trkpt><trkpt lat="45.56307311677658" lon="8.073414456850983"><ele>364.75</ele><time>2026-04-11T10:12:31.997Z</time></trkpt><trkpt lat="45.56314934951225" lon="8.07356584392483"><ele>366.0</ele><time>2026-04-11T10:12:32.997Z</time></trkpt><trkpt lat="45.56320225935494" lon="8.073742522205364"><ele>366.0</ele><time>2026-04-11T10:12:33.997Z</time></trkpt><trkpt lat="45.563225455031045" lon="8.073939089453734"><ele>366.0</ele><time>2026-04-11T10:12:34.997Z</time></trkpt><trkpt lat="45.563218374564116" lon="8.074147582894202"><ele>366.0</ele><time>2026-04-11T10:12:35.997Z</time></trkpt><trkpt lat="45.5631702113423" lon="8.074352348167265"><ele>366.0</ele><time>2026-04-11T10:12:36.997Z</time></trkpt><trkpt lat="45.563092843415184" lon="8.074533287291302"><ele>365.3333333333333</ele><time>2026-04-11T10:12:37.997Z</time></trkpt><trkpt lat="45.562977385486995" lon="8.074668048214306"><ele>364.66666666666663</ele><time>2026-04-11T10:12:38.997Z</time></trkpt><trkpt lat="45.56284038852596" lon="8.074755297869476"><ele>364.0</ele><time>2026-04-11T10:12:39.997Z</time></trkpt><trkpt lat="45.56268441144812" lon="8.074795305974577"><ele>363.3333333333333</ele><time>2026-04-11T10:12:40.997Z</time></trkpt><trkpt lat="45.56251557893295" lon="8.074813244821899"><ele>362.6666666666667</ele><time>2026-04-11T10:12:41.997Z</time></trkpt><trkpt lat="45.56235011277526" lon="8.0748282646633"><ele>362.0</ele><time>2026-04-11T10:12:42.997Z</time></trkpt><trkpt lat="45.56218249732745" lon="8.074836794674285"><ele>362.0</ele><time>2026-04-11T10:12:43.997Z</time></trkpt><trkpt lat="45.56201531552835" lon="8.074842551893871"><ele>362.0</ele><time>2026-04-11T10:12:44.997Z</time></trkpt><trkpt lat="45.56184443248608" lon="8.074849262844207"><ele>362.0</ele><time>2026-04-11T10:12:45.997Z</time></trkpt><trkpt lat="45.56166844001899" lon="8.074870020010428"><ele>362.0</ele><time>2026-04-11T10:12:46.997Z</time></trkpt><trkpt lat="45.56149652407998" lon="8.07488076673802"><ele>362.0</ele><time>2026-04-11T10:12:47.997Z</time></trkpt><trkpt lat="45.56132361188156" lon="8.074900251722473"><ele>362.0</ele><time>2026-04-11T10:12:48.997Z</time></trkpt><trkpt lat="45.56115102070499" lon="8.074946248850491"><ele>360.0</ele><time>2026-04-11T10:12:49.997Z</time></trkpt><trkpt lat="45.5609785644905" lon="8.075018955698868"><ele>358.0</ele><time>2026-04-11T10:12:50.997Z</time></trkpt><trkpt lat="45.56081189321284" lon="8.07512419172467"><ele>356.0</ele><time>2026-04-11T10:12:51.997Z</time></trkpt><trkpt lat="45.560659630969646" lon="8.075279076733775"><ele>356.0</ele><time>2026-04-11T10:12:52.997Z</time></trkpt><trkpt lat="45.560527777621104" lon="8.075493101739166"><ele>356.0</ele><time>2026-04-11T10:12:53.997Z</time></trkpt><trkpt lat="45.56041855505549" lon="8.075740336552787"><ele>356.0</ele><time>2026-04-11T10:12:54.997Z</time></trkpt><trkpt lat="45.560329489527795" lon="8.076008418739775"><ele>355.0</ele><time>2026-04-11T10:12:55.997Z</time></trkpt><trkpt lat="45.56026479792507" lon="8.076264277265828"><ele>354.0</ele><time>2026-04-11T10:12:56.996Z</time></trkpt><trkpt lat="45.560189297088" lon="8.076525663815563"><ele>353.0</ele><time>2026-04-11T10:12:57.996Z</time></trkpt><trkpt lat="45.560121694605286" lon="8.076757569843338"><ele>353.0</ele><time>2026-04-11T10:12:58.996Z</time></trkpt><trkpt lat="45.56006481220185" lon="8.076981193639906"><ele>353.0</ele><time>2026-04-11T10:12:59.996Z</time></trkpt><trkpt lat="45.560007979615506" lon="8.077175615818188"><ele>353.0</ele><time>2026-04-11T10:13:00.996Z</time></trkpt><trkpt lat="45.55995427684587" lon="8.077373423838509"><ele>353.33333333333337</ele><time>2026-04-11T10:13:01.996Z</time></trkpt><trkpt lat="45.559894412664896" lon="8.077588938264565"><ele>353.6666666666667</ele><time>2026-04-11T10:13:02.996Z</time></trkpt><trkpt lat="45.55983165910754" lon="8.077819377574787"><ele>354.0</ele><time>2026-04-11T10:13:03.996Z</time></trkpt><trkpt lat="45.55977637158921" lon="8.078039834807427"><ele>354.0</ele><time>2026-04-11T10:13:04.996Z</time></trkpt><trkpt lat="45.55972085590167" lon="8.078255221214281"><ele>354.0</ele><time>2026-04-11T10:13:05.996Z</time></trkpt><trkpt lat="45.559665444112184" lon="8.078468130920637"><ele>354.0</ele><time>2026-04-11T10:13:06.996Z</time></trkpt><trkpt lat="45.55960350065993" lon="8.078675379088681"><ele>353.6666666666667</ele><time>2026-04-11T10:13:07.996Z</time></trkpt><trkpt lat="45.55953661788881" lon="8.078879901435203"><ele>353.33333333333337</ele><time>2026-04-11T10:13:08.996Z</time></trkpt><trkpt lat="45.55947058807198" lon="8.079086889162568"><ele>353.0</ele><time>2026-04-11T10:13:09.996Z</time></trkpt><trkpt lat="45.559405020929674" lon="8.079290215365452"><ele>351.6666666666667</ele><time>2026-04-11T10:13:10.996Z</time></trkpt><trkpt lat="45.559327856446245" lon="8.079497830339445"><ele>350.3333333333333</ele><time>2026-04-11T10:13:11.996Z</time></trkpt><trkpt lat="45.559243837685926" lon="8.079709646581138"><ele>349.0</ele><time>2026-04-11T10:13:12.996Z</time></trkpt><trkpt lat="45.5591588259786" lon="8.079935578854704"><ele>349.0</ele><time>2026-04-11T10:13:13.996Z</time></trkpt><trkpt lat="45.5590642707" lon="8.08017072310537"><ele>349.0</ele><time>2026-04-11T10:13:14.996Z</time></trkpt><trkpt lat="45.5590642707" lon="8.08017072310537"><ele>349.0</ele><time>2026-04-11T10:13:14.996Z</time></trkpt><trkpt lat="45.5585447487576" lon="8.081461017756762"><ele>348.0</ele><time>2026-04-11T10:13:19.996Z</time></trkpt><trkpt lat="45.55843520062501" lon="8.081725447524544"><ele>347.0</ele><time>2026-04-11T10:13:20.996Z</time></trkpt><trkpt lat="45.558323638405824" lon="8.081993724211141"><ele>346.0</ele><time>2026-04-11T10:13:21.996Z</time></trkpt><trkpt lat="45.55821152674864" lon="8.082255598734047"><ele>345.66666666666663</ele><time>2026-04-11T10:13:22.996Z</time></trkpt><trkpt lat="45.55810335972641" lon="8.08251576213638"><ele>345.3333333333333</ele><time>2026-04-11T10:13:23.996Z</time></trkpt><trkpt lat="45.55799368569435" lon="8.082781963715293"><ele>345.0</ele><time>2026-04-11T10:13:24.996Z</time></trkpt><trkpt lat="45.55788120411713" lon="8.083047938103082"><ele>342.0</ele><time>2026-04-11T10:13:25.996Z</time></trkpt><trkpt lat="45.55776312326491" lon="8.08331906245779"><ele>339.0</ele><time>2026-04-11T10:13:26.996Z</time></trkpt><trkpt lat="45.55764227244339" lon="8.083608674551893"><ele>339.0</ele><time>2026-04-11T10:13:27.996Z</time></trkpt><trkpt lat="45.557519066824284" lon="8.083914117710144"><ele>339.0</ele><time>2026-04-11T10:13:28.996Z</time></trkpt><trkpt lat="45.557393643556296" lon="8.084231526800304"><ele>339.5</ele><time>2026-04-11T10:13:29.996Z</time></trkpt><trkpt lat="45.55726303020115" lon="8.084571767124153"><ele>340.0</ele><time>2026-04-11T10:13:30.996Z</time></trkpt><trkpt lat="45.55712074447311" lon="8.084937504469009"><ele>338.5</ele><time>2026-04-11T10:13:31.996Z</time></trkpt><trkpt lat="45.55695025962423" lon="8.085340974669974"><ele>337.0</ele><time>2026-04-11T10:13:32.996Z</time></trkpt><trkpt lat="45.556771925139785" lon="8.085771665098337"><ele>337.0</ele><time>2026-04-11T10:13:33.996Z</time></trkpt><trkpt lat="45.5565943441753" lon="8.086206555224782"><ele>337.0</ele><time>2026-04-11T10:13:34.996Z</time></trkpt><trkpt lat="45.556419286025154" lon="8.086622960084025"><ele>336.5</ele><time>2026-04-11T10:13:35.996Z</time></trkpt><trkpt lat="45.5562407273183" lon="8.087012505989463"><ele>336.0</ele><time>2026-04-11T10:13:36.996Z</time></trkpt><trkpt lat="45.5560713203296" lon="8.087391697620872"><ele>333.0</ele><time>2026-04-11T10:13:37.996Z</time></trkpt><trkpt lat="45.55591397951461" lon="8.087766548222733"><ele>330.0</ele><time>2026-04-11T10:13:38.996Z</time></trkpt><trkpt lat="45.55576592721718" lon="8.088130552988432"><ele>330.5</ele><time>2026-04-11T10:13:39.996Z</time></trkpt><trkpt lat="45.55561824226002" lon="8.088489344563234"><ele>331.0</ele><time>2026-04-11T10:13:40.996Z</time></trkpt><trkpt lat="45.55547544311343" lon="8.088847204930811"><ele>328.5</ele><time>2026-04-11T10:13:41.996Z</time></trkpt><trkpt lat="45.555336641834934" lon="8.089206403281471"><ele>326.0</ele><time>2026-04-11T10:13:42.996Z</time></trkpt><trkpt lat="45.55520721128106" lon="8.089570797308854"><ele>326.5</ele><time>2026-04-11T10:13:43.995Z</time></trkpt><trkpt lat="45.55509166921627" lon="8.089939075739645"><ele>327.0</ele><time>2026-04-11T10:13:44.995Z</time></trkpt><trkpt lat="45.554986982651904" lon="8.090310952145224"><ele>327.0</ele><time>2026-04-11T10:13:45.995Z</time></trkpt><trkpt lat="45.55488885697227" lon="8.09068942226861"><ele>327.0</ele><time>2026-04-11T10:13:46.995Z</time></trkpt><trkpt lat="45.554806304310496" lon="8.091075988115266"><ele>327.0</ele><time>2026-04-11T10:13:47.995Z</time></trkpt><trkpt lat="45.55473617109802" lon="8.091469923861254"><ele>327.0</ele><time>2026-04-11T10:13:48.995Z</time></trkpt><trkpt lat="45.55467036897518" lon="8.091872721292926"><ele>327.0</ele><time>2026-04-11T10:13:49.995Z</time></trkpt><trkpt lat="45.554615779012515" lon="8.092278202804556"><ele>327.0</ele><time>2026-04-11T10:13:50.995Z</time></trkpt><trkpt lat="45.55457185635027" lon="8.092692328489024"><ele>326.0</ele><time>2026-04-11T10:13:51.995Z</time></trkpt><trkpt lat="45.55454215870216" lon="8.09310958004048"><ele>325.0</ele><time>2026-04-11T10:13:52.995Z</time></trkpt><trkpt lat="45.55452272090204" lon="8.093530502333646"><ele>323.5</ele><time>2026-04-11T10:13:53.995Z</time></trkpt><trkpt lat="45.55451567855741" lon="8.093955573256224"><ele>322.0</ele><time>2026-04-11T10:13:54.995Z</time></trkpt><trkpt lat="45.55452144528736" lon="8.094385522631406"><ele>321.0</ele><time>2026-04-11T10:13:55.995Z</time></trkpt><trkpt lat="45.554542768566186" lon="8.09482076872063"><ele>320.0</ele><time>2026-04-11T10:13:56.995Z</time></trkpt><trkpt lat="45.55457761461549" lon="8.09525884390426"><ele>320.0</ele><time>2026-04-11T10:13:57.995Z</time></trkpt><trkpt lat="45.55462639136205" lon="8.095696953050867"><ele>320.0</ele><time>2026-04-11T10:13:58.995Z</time></trkpt><trkpt lat="45.55468529218038" lon="8.096139367932052"><ele>319.5</ele><time>2026-04-11T10:13:59.995Z</time></trkpt><trkpt lat="45.554755168342254" lon="8.096586017157636"><ele>319.0</ele><time>2026-04-11T10:14:00.995Z</time></trkpt><trkpt lat="45.554827673057105" lon="8.097030195652822"><ele>318.0</ele><time>2026-04-11T10:14:01.995Z</time></trkpt><trkpt lat="45.55490113500951" lon="8.097470158474579"><ele>317.0</ele><time>2026-04-11T10:14:02.995Z</time></trkpt><trkpt lat="45.55497506298979" lon="8.097902598629739"><ele>314.5</ele><time>2026-04-11T10:14:03.995Z</time></trkpt><trkpt lat="45.55504540317568" lon="8.098326216750262"><ele>312.0</ele><time>2026-04-11T10:14:04.995Z</time></trkpt><trkpt lat="45.5551102907389" lon="8.098741784494955"><ele>313.0</ele><time>2026-04-11T10:14:05.995Z</time></trkpt><trkpt lat="45.55517350136494" lon="8.099134386223293"><ele>314.0</ele><time>2026-04-11T10:14:06.995Z</time></trkpt><trkpt lat="45.5552367099521" lon="8.09951369389398"><ele>314.0</ele><time>2026-04-11T10:14:07.995Z</time></trkpt><trkpt lat="45.5553020330947" lon="8.099893028976107"><ele>314.0</ele><time>2026-04-11T10:14:08.995Z</time></trkpt><trkpt lat="45.555367304680715" lon="8.10026900327937"><ele>314.0</ele><time>2026-04-11T10:14:09.995Z</time></trkpt><trkpt lat="45.555426443743634" lon="8.100646074112582"><ele>314.0</ele><time>2026-04-11T10:14:10.995Z</time></trkpt><trkpt lat="45.555477599031335" lon="8.101027207667876"><ele>314.0</ele><time>2026-04-11T10:14:11.995Z</time></trkpt><trkpt lat="45.55551557455319" lon="8.101404521549194"><ele>314.0</ele><time>2026-04-11T10:14:12.995Z</time></trkpt><trkpt lat="45.55554735816322" lon="8.10177356175434"><ele>314.5</ele><time>2026-04-11T10:14:13.995Z</time></trkpt><trkpt lat="45.55556942766134" lon="8.10212319439451"><ele>315.0</ele><time>2026-04-11T10:14:14.995Z</time></trkpt><trkpt lat="45.55558886904849" lon="8.102465274965374"><ele>314.0</ele><time>2026-04-11T10:14:15.995Z</time></trkpt><trkpt lat="45.55559624156808" lon="8.102810593044678"><ele>313.0</ele><time>2026-04-11T10:14:16.995Z</time></trkpt><trkpt lat="45.555596077320025" lon="8.103157236260532"><ele>312.5</ele><time>2026-04-11T10:14:17.995Z</time></trkpt><trkpt lat="45.555591797142945" lon="8.103504010500814"><ele>312.0</ele><time>2026-04-11T10:14:18.995Z</time></trkpt><trkpt lat="45.555586647068644" lon="8.103850054823"><ele>311.0</ele><time>2026-04-11T10:14:19.995Z</time></trkpt><trkpt lat="45.55557941310707" lon="8.104195151448723"><ele>310.0</ele><time>2026-04-11T10:14:20.995Z</time></trkpt><trkpt lat="45.55558034021365" lon="8.10454268194721"><ele>310.0</ele><time>2026-04-11T10:14:21.995Z</time></trkpt><trkpt lat="45.55558324414501" lon="8.104895657770765"><ele>310.0</ele><time>2026-04-11T10:14:22.995Z</time></trkpt><trkpt lat="45.55558215092635" lon="8.105263347120951"><ele>310.0</ele><time>2026-04-11T10:14:23.995Z</time></trkpt><trkpt lat="45.555579057698544" lon="8.105647212298845"><ele>310.0</ele><time>2026-04-11T10:14:24.995Z</time></trkpt><trkpt lat="45.55557425307448" lon="8.10603645568335"><ele>310.0</ele><time>2026-04-11T10:14:25.995Z</time></trkpt><trkpt lat="45.555568921433604" lon="8.106427259867884"><ele>310.0</ele><time>2026-04-11T10:14:26.995Z</time></trkpt><trkpt lat="45.55555873395547" lon="8.106824982514729"><ele>310.5</ele><time>2026-04-11T10:14:27.995Z</time></trkpt><trkpt lat="45.555550375682266" lon="8.10723179286118"><ele>311.0</ele><time>2026-04-11T10:14:28.995Z</time></trkpt><trkpt lat="45.55554562213124" lon="8.107647166716971"><ele>309.5</ele><time>2026-04-11T10:14:29.994Z</time></trkpt><trkpt lat="45.55553846777278" lon="8.1080676738593"><ele>308.0</ele><time>2026-04-11T10:14:30.994Z</time></trkpt><trkpt lat="45.555530179469095" lon="8.108489651028508"><ele>308.0</ele><time>2026-04-11T10:14:31.994Z</time></trkpt><trkpt lat="45.555524113355915" lon="8.108916398979481"><ele>308.0</ele><time>2026-04-11T10:14:32.994Z</time></trkpt><trkpt lat="45.5555163622193" lon="8.109343654968928"><ele>308.0</ele><time>2026-04-11T10:14:33.994Z</time></trkpt><trkpt lat="45.55550919841717" lon="8.109775224766592"><ele>308.0</ele><time>2026-04-11T10:14:34.994Z</time></trkpt><trkpt lat="45.55550317774352" lon="8.110210343585408"><ele>307.0</ele><time>2026-04-11T10:14:35.994Z</time></trkpt><trkpt lat="45.55549774286209" lon="8.110651862135088"><ele>306.0</ele><time>2026-04-11T10:14:36.994Z</time></trkpt><trkpt lat="45.555491266238455" lon="8.111096632094306"><ele>305.0</ele><time>2026-04-11T10:14:37.994Z</time></trkpt><trkpt lat="45.555488649404104" lon="8.1115441093532"><ele>304.0</ele><time>2026-04-11T10:14:38.994Z</time></trkpt><trkpt lat="45.555484930808305" lon="8.11198742050155"><ele>304.0</ele><time>2026-04-11T10:14:39.994Z</time></trkpt><trkpt lat="45.55548064065719" lon="8.112426351190882"><ele>304.0</ele><time>2026-04-11T10:14:40.994Z</time></trkpt><trkpt lat="45.55547613145201" lon="8.112858614700142"><ele>304.0</ele><time>2026-04-11T10:14:41.994Z</time></trkpt><trkpt lat="45.55547039752063" lon="8.113293187447608"><ele>304.0</ele><time>2026-04-11T10:14:42.994Z</time></trkpt><trkpt lat="45.55546277535296" lon="8.113727312101487"><ele>303.5</ele><time>2026-04-11T10:14:43.994Z</time></trkpt><trkpt lat="45.55545318034719" lon="8.114162750222667"><ele>303.0</ele><time>2026-04-11T10:14:44.994Z</time></trkpt><trkpt lat="45.55544597611913" lon="8.114600156189097"><ele>302.0</ele><time>2026-04-11T10:14:45.994Z</time></trkpt><trkpt lat="45.55544144750136" lon="8.11503916650109"><ele>301.0</ele><time>2026-04-11T10:14:46.994Z</time></trkpt><trkpt lat="45.555435181674596" lon="8.115480997364507"><ele>300.5</ele><time>2026-04-11T10:14:47.994Z</time></trkpt><trkpt lat="45.55542686308766" lon="8.115928880123732"><ele>300.0</ele><time>2026-04-11T10:14:48.994Z</time></trkpt><trkpt lat="45.55542007946182" lon="8.116380462375503"><ele>299.0</ele><time>2026-04-11T10:14:49.994Z</time></trkpt><trkpt lat="45.55541132497066" lon="8.116841217819031"><ele>298.0</ele><time>2026-04-11T10:14:50.994Z</time></trkpt><trkpt lat="45.55540621260501" lon="8.11730624742077"><ele>298.0</ele><time>2026-04-11T10:14:51.994Z</time></trkpt><trkpt lat="45.55539848248337" lon="8.117778391855909"><ele>298.0</ele><time>2026-04-11T10:14:52.994Z</time></trkpt><trkpt lat="45.55539269087544" lon="8.118255498993658"><ele>298.0</ele><time>2026-04-11T10:14:53.994Z</time></trkpt><trkpt lat="45.55538582620723" lon="8.1187410320696"><ele>298.0</ele><time>2026-04-11T10:14:54.994Z</time></trkpt><trkpt lat="45.555377334411716" lon="8.119232966108726"><ele>297.0</ele><time>2026-04-11T10:14:55.994Z</time></trkpt><trkpt lat="45.55536937067117" lon="8.119717955988596"><ele>296.0</ele><time>2026-04-11T10:14:56.994Z</time></trkpt><trkpt lat="45.5553609281389" lon="8.120186266372896"><ele>295.0</ele><time>2026-04-11T10:14:57.994Z</time></trkpt><trkpt lat="45.55535509497606" lon="8.120650333099352"><ele>294.0</ele><time>2026-04-11T10:14:58.994Z</time></trkpt><trkpt lat="45.55535112921502" lon="8.12114796859807"><ele>293.0</ele><time>2026-04-11T10:14:59.994Z</time></trkpt><trkpt lat="45.555342721516126" lon="8.121678213864412"><ele>292.0</ele><time>2026-04-11T10:15:00.994Z</time></trkpt><trkpt lat="45.555331503958726" lon="8.122241849727969"><ele>291.5</ele><time>2026-04-11T10:15:01.994Z</time></trkpt><trkpt lat="45.55532496584671" lon="8.122819109997815"><ele>291.0</ele><time>2026-04-11T10:15:02.994Z</time></trkpt><trkpt lat="45.555316661364124" lon="8.123421949507618"><ele>290.0</ele><time>2026-04-11T10:15:03.994Z</time></trkpt><trkpt lat="45.55530667319718" lon="8.124004535213638"><ele>289.0</ele><time>2026-04-11T10:15:04.994Z</time></trkpt><trkpt lat="45.555304384185526" lon="8.12456371475168"><ele>287.5</ele><time>2026-04-11T10:15:05.994Z</time></trkpt><trkpt lat="45.55529753556127" lon="8.125104632641605"><ele>286.0</ele><time>2026-04-11T10:15:06.994Z</time></trkpt><trkpt lat="45.55528737616102" lon="8.125628066120369"><ele>285.5</ele><time>2026-04-11T10:15:07.994Z</time></trkpt><trkpt lat="45.555278759109804" lon="8.12614478792377"><ele>285.0</ele><time>2026-04-11T10:15:08.994Z</time></trkpt><trkpt lat="45.555269647115985" lon="8.126655408073848"><ele>285.0</ele><time>2026-04-11T10:15:09.994Z</time></trkpt><trkpt lat="45.55526112640357" lon="8.127165965674255"><ele>285.0</ele><time>2026-04-11T10:15:10.994Z</time></trkpt><trkpt lat="45.55525373841069" lon="8.127673754793292"><ele>285.0</ele><time>2026-04-11T10:15:11.994Z</time></trkpt><trkpt lat="45.55524170074895" lon="8.12814925845614"><ele>285.0</ele><time>2026-04-11T10:15:12.994Z</time></trkpt><trkpt lat="45.5552322275227" lon="8.128578257783538"><ele>284.0</ele><time>2026-04-11T10:15:13.994Z</time></trkpt><trkpt lat="45.55522461784795" lon="8.128987690030465"><ele>283.0</ele><time>2026-04-11T10:15:14.994Z</time></trkpt><trkpt lat="45.55521648745172" lon="8.129388643401212"><ele>282.5</ele><time>2026-04-11T10:15:15.993Z</time></trkpt><trkpt lat="45.55520494756325" lon="8.129793701902418"><ele>282.0</ele><time>2026-04-11T10:15:16.993Z</time></trkpt><trkpt lat="45.555190581892155" lon="8.13019178229826"><ele>282.0</ele><time>2026-04-11T10:15:17.993Z</time></trkpt><trkpt lat="45.555173925877554" lon="8.13057596653356"><ele>282.0</ele><time>2026-04-11T10:15:18.993Z</time></trkpt><trkpt lat="45.55515563962496" lon="8.13094842317273"><ele>282.0</ele><time>2026-04-11T10:15:19.993Z</time></trkpt><trkpt lat="45.555134633934316" lon="8.131319840846944"><ele>282.0</ele><time>2026-04-11T10:15:20.993Z</time></trkpt><trkpt lat="45.555109017203456" lon="8.131701064426203"><ele>281.0</ele><time>2026-04-11T10:15:21.993Z</time></trkpt><trkpt lat="45.55507935495607" lon="8.13209397212348"><ele>280.0</ele><time>2026-04-11T10:15:22.993Z</time></trkpt><trkpt lat="45.55504633400241" lon="8.132500150267402"><ele>279.0</ele><time>2026-04-11T10:15:23.993Z</time></trkpt><trkpt lat="45.55500851980581" lon="8.132917504195715"><ele>278.0</ele><time>2026-04-11T10:15:24.993Z</time></trkpt><trkpt lat="45.554965991543256" lon="8.133348675004457"><ele>278.0</ele><time>2026-04-11T10:15:25.993Z</time></trkpt><trkpt lat="45.554924985996514" lon="8.133789506486677"><ele>278.0</ele><time>2026-04-11T10:15:26.993Z</time></trkpt><trkpt lat="45.55488531870275" lon="8.134231681264431"><ele>277.5</ele><time>2026-04-11T10:15:27.993Z</time></trkpt><trkpt lat="45.55484520238002" lon="8.134667396470727"><ele>277.0</ele><time>2026-04-11T10:15:28.993Z</time></trkpt><trkpt lat="45.55480305238885" lon="8.135103940936803"><ele>276.0</ele><time>2026-04-11T10:15:29.993Z</time></trkpt><trkpt lat="45.554766772504266" lon="8.135533660675513"><ele>275.0</ele><time>2026-04-11T10:15:30.993Z</time></trkpt><trkpt lat="45.55472935763002" lon="8.135956299278439"><ele>274.0</ele><time>2026-04-11T10:15:31.993Z</time></trkpt><trkpt lat="45.55469418758427" lon="8.136370458766724"><ele>273.0</ele><time>2026-04-11T10:15:32.993Z</time></trkpt><trkpt lat="45.55465776048258" lon="8.136783184583955"><ele>273.0</ele><time>2026-04-11T10:15:33.993Z</time></trkpt><trkpt lat="45.55462123765367" lon="8.137197543002118"><ele>273.0</ele><time>2026-04-11T10:15:34.993Z</time></trkpt><trkpt lat="45.554583310269834" lon="8.137612474955562"><ele>272.5</ele><time>2026-04-11T10:15:35.993Z</time></trkpt><trkpt lat="45.55454541509779" lon="8.138030966406738"><ele>272.0</ele><time>2026-04-11T10:15:36.993Z</time></trkpt><trkpt lat="45.55450500275584" lon="8.138461969305178"><ele>272.0</ele><time>2026-04-11T10:15:37.993Z</time></trkpt><trkpt lat="45.55446148886905" lon="8.138907687623549"><ele>272.0</ele><time>2026-04-11T10:15:38.993Z</time></trkpt><trkpt lat="45.55441987116114" lon="8.139359432444552"><ele>272.0</ele><time>2026-04-11T10:15:39.993Z</time></trkpt><trkpt lat="45.55437246738833" lon="8.139826277326554"><ele>272.0</ele><time>2026-04-11T10:15:40.993Z</time></trkpt><trkpt lat="45.55432127333099" lon="8.140304652396104"><ele>270.0</ele><time>2026-04-11T10:15:41.993Z</time></trkpt><trkpt lat="45.55428174194061" lon="8.140786896139735"><ele>268.0</ele><time>2026-04-11T10:15:42.993Z</time></trkpt><trkpt lat="45.554241424670366" lon="8.141263729714442"><ele>268.0</ele><time>2026-04-11T10:15:43.993Z</time></trkpt><trkpt lat="45.55420059138331" lon="8.14173656419262"><ele>268.0</ele><time>2026-04-11T10:15:44.993Z</time></trkpt><trkpt lat="45.55416368283504" lon="8.14219759983756"><ele>267.5</ele><time>2026-04-11T10:15:45.993Z</time></trkpt><trkpt lat="45.55412753062546" lon="8.14265060520868"><ele>267.0</ele><time>2026-04-11T10:15:46.993Z</time></trkpt><trkpt lat="45.55409020544292" lon="8.143096811265538"><ele>268.0</ele><time>2026-04-11T10:15:47.993Z</time></trkpt><trkpt lat="45.55405045095859" lon="8.143547478730936"><ele>269.0</ele><time>2026-04-11T10:15:48.993Z</time></trkpt><trkpt lat="45.554011397707264" lon="8.143994725382523"><ele>269.0</ele><time>2026-04-11T10:15:49.993Z</time></trkpt><trkpt lat="45.553971350209146" lon="8.144422411616292"><ele>269.0</ele><time>2026-04-11T10:15:50.993Z</time></trkpt><trkpt lat="45.553934530091496" lon="8.144829457495394"><ele>267.5</ele><time>2026-04-11T10:15:51.993Z</time></trkpt><trkpt lat="45.5538997678372" lon="8.145228314754522"><ele>266.0</ele><time>2026-04-11T10:15:52.993Z</time></trkpt><trkpt lat="45.55386572264344" lon="8.145620606622092"><ele>264.0</ele><time>2026-04-11T10:15:53.993Z</time></trkpt><trkpt lat="45.55383294293992" lon="8.146009343407542"><ele>262.0</ele><time>2026-04-11T10:15:54.993Z</time></trkpt><trkpt lat="45.55380097387171" lon="8.146407574436346"><ele>261.5</ele><time>2026-04-11T10:15:55.993Z</time></trkpt><trkpt lat="45.5537678295679" lon="8.146820894948506"><ele>261.0</ele><time>2026-04-11T10:15:56.993Z</time></trkpt><trkpt lat="45.553732182604556" lon="8.147243484315418"><ele>261.0</ele><time>2026-04-11T10:15:57.993Z</time></trkpt><trkpt lat="45.55369582032268" lon="8.147677601951022"><ele>261.0</ele><time>2026-04-11T10:15:58.993Z</time></trkpt><trkpt lat="45.55366132419063" lon="8.148117024530327"><ele>260.5</ele><time>2026-04-11T10:15:59.993Z</time></trkpt><trkpt lat="45.55362761502755" lon="8.14856262234199"><ele>260.0</ele><time>2026-04-11T10:16:00.993Z</time></trkpt><trkpt lat="45.553596174928124" lon="8.149014106222015"><ele>258.5</ele><time>2026-04-11T10:16:01.992Z</time></trkpt><trkpt lat="45.5535705767891" lon="8.149473864742781"><ele>257.0</ele><time>2026-04-11T10:16:02.992Z</time></trkpt><trkpt lat="45.55355325372224" lon="8.149936532556517"><ele>257.0</ele><time>2026-04-11T10:16:03.992Z</time></trkpt><trkpt lat="45.553538667971345" lon="8.150398994669057"><ele>257.0</ele><time>2026-04-11T10:16:04.992Z</time></trkpt><trkpt lat="45.553529998796435" lon="8.150867853206583"><ele>257.0</ele><time>2026-04-11T10:16:05.992Z</time></trkpt><trkpt lat="45.553521364612294" lon="8.151339000296284"><ele>257.0</ele><time>2026-04-11T10:16:06.992Z</time></trkpt><trkpt lat="45.553511894737085" lon="8.151811722306519"><ele>257.0</ele><time>2026-04-11T10:16:07.992Z</time></trkpt><trkpt lat="45.5535001164247" lon="8.152283541257644"><ele>257.0</ele><time>2026-04-11T10:16:08.992Z</time></trkpt><trkpt lat="45.55348435756395" lon="8.152755771867687"><ele>255.5</ele><time>2026-04-11T10:16:09.992Z</time></trkpt><trkpt lat="45.55346616742065" lon="8.153226771434465"><ele>254.0</ele><time>2026-04-11T10:16:10.992Z</time></trkpt><trkpt lat="45.55345212872897" lon="8.153695519883616"><ele>253.5</ele><time>2026-04-11T10:16:11.992Z</time></trkpt><trkpt lat="45.55343935438056" lon="8.154166457113979"><ele>253.0</ele><time>2026-04-11T10:16:12.992Z</time></trkpt><trkpt lat="45.55342633384879" lon="8.154638529854477"><ele>252.5</ele><time>2026-04-11T10:16:13.992Z</time></trkpt><trkpt lat="45.55341384239157" lon="8.155137503248634"><ele>252.0</ele><time>2026-04-11T10:16:14.992Z</time></trkpt><trkpt lat="45.55340232799932" lon="8.155644946838773"><ele>252.5</ele><time>2026-04-11T10:16:15.992Z</time></trkpt><trkpt lat="45.553394578447346" lon="8.15614923248978"><ele>253.0</ele><time>2026-04-11T10:16:16.992Z</time></trkpt><trkpt lat="45.553386965767224" lon="8.156644087623754"><ele>253.0</ele><time>2026-04-11T10:16:17.992Z</time></trkpt><trkpt lat="45.55337587726087" lon="8.157129263889235"><ele>253.0</ele><time>2026-04-11T10:16:18.992Z</time></trkpt><trkpt lat="45.55336446226327" lon="8.157610368396027"><ele>252.0</ele><time>2026-04-11T10:16:19.992Z</time></trkpt><trkpt lat="45.553354480268005" lon="8.158087026583125"><ele>251.0</ele><time>2026-04-11T10:16:20.992Z</time></trkpt><trkpt lat="45.55334444188438" lon="8.158557521432906"><ele>251.0</ele><time>2026-04-11T10:16:21.992Z</time></trkpt><trkpt lat="45.55333446427126" lon="8.15902402301774"><ele>251.0</ele><time>2026-04-11T10:16:22.992Z</time></trkpt><trkpt lat="45.55332994550074" lon="8.159453531874055"><ele>250.0</ele><time>2026-04-11T10:16:23.992Z</time></trkpt><trkpt lat="45.55332411650088" lon="8.159858186930025"><ele>249.0</ele><time>2026-04-11T10:16:24.992Z</time></trkpt><trkpt lat="45.553318627296036" lon="8.160251027027257"><ele>248.0</ele><time>2026-04-11T10:16:25.992Z</time></trkpt><trkpt lat="45.553312390628726" lon="8.160641374366902"><ele>247.0</ele><time>2026-04-11T10:16:26.992Z</time></trkpt><trkpt lat="45.55330458077881" lon="8.161026751176932"><ele>246.0</ele><time>2026-04-11T10:16:27.992Z</time></trkpt><trkpt lat="45.5532997033752" lon="8.161416144017142"><ele>245.0</ele><time>2026-04-11T10:16:28.992Z</time></trkpt><trkpt lat="45.553294182581105" lon="8.161813757767641"><ele>245.0</ele><time>2026-04-11T10:16:29.992Z</time></trkpt><trkpt lat="45.55329072564121" lon="8.162214638189901"><ele>245.0</ele><time>2026-04-11T10:16:30.992Z</time></trkpt><trkpt lat="45.5532905625939" lon="8.16262115051614"><ele>245.0</ele><time>2026-04-11T10:16:31.992Z</time></trkpt><trkpt lat="45.55328644898887" lon="8.16303646110182"><ele>245.0</ele><time>2026-04-11T10:16:32.992Z</time></trkpt><trkpt lat="45.55327779949924" lon="8.163453842569332"><ele>244.0</ele><time>2026-04-11T10:16:33.992Z</time></trkpt><trkpt lat="45.553256981488204" lon="8.16387505338481"><ele>243.0</ele><time>2026-04-11T10:16:34.992Z</time></trkpt><trkpt lat="45.55323502592776" lon="8.164299098802577"><ele>243.0</ele><time>2026-04-11T10:16:35.992Z</time></trkpt><trkpt lat="45.5532234324373" lon="8.164723076908658"><ele>243.0</ele><time>2026-04-11T10:16:36.992Z</time></trkpt><trkpt lat="45.55321602905358" lon="8.165135994192337"><ele>243.0</ele><time>2026-04-11T10:16:37.992Z</time></trkpt><trkpt lat="45.553209127585376" lon="8.165538379697756"><ele>243.0</ele><time>2026-04-11T10:16:38.992Z</time></trkpt><trkpt lat="45.553203078947625" lon="8.16592768641701"><ele>243.0</ele><time>2026-04-11T10:16:39.992Z</time></trkpt><trkpt lat="45.55320129121615" lon="8.166305762604951"><ele>243.0</ele><time>2026-04-11T10:16:40.992Z</time></trkpt><trkpt lat="45.553193416880454" lon="8.166669841174283"><ele>242.5</ele><time>2026-04-11T10:16:41.992Z</time></trkpt><trkpt lat="45.55318779026638" lon="8.167035913980556"><ele>242.0</ele><time>2026-04-11T10:16:42.992Z</time></trkpt><trkpt lat="45.553180730444126" lon="8.167391333020442"><ele>242.0</ele><time>2026-04-11T10:16:43.992Z</time></trkpt><trkpt lat="45.55317075995055" lon="8.167723922420029"><ele>242.0</ele><time>2026-04-11T10:16:44.992Z</time></trkpt><trkpt lat="45.553154743456076" lon="8.168028025985762"><ele>242.0</ele><time>2026-04-11T10:16:45.992Z</time></trkpt><trkpt lat="45.55313701363185" lon="8.168303793674767"><ele>242.66666666666669</ele><time>2026-04-11T10:16:46.992Z</time></trkpt><trkpt lat="45.553135653143215" lon="8.168549159527787"><ele>243.33333333333331</ele><time>2026-04-11T10:16:47.992Z</time></trkpt><trkpt lat="45.55313589524626" lon="8.168768108993547"><ele>244.0</ele><time>2026-04-11T10:16:48.991Z</time></trkpt><trkpt lat="45.553130892227955" lon="8.16896466798185"><ele>243.39999999999998</ele><time>2026-04-11T10:16:49.991Z</time></trkpt><trkpt lat="45.5531164553468" lon="8.169138623013584"><ele>242.79999999999998</ele><time>2026-04-11T10:16:50.991Z</time></trkpt><trkpt lat="45.55308272496219" lon="8.169273438229574"><ele>242.20000000000002</ele><time>2026-04-11T10:16:51.991Z</time></trkpt><trkpt lat="45.553024680206136" lon="8.169360054600313"><ele>241.60000000000002</ele><time>2026-04-11T10:16:52.991Z</time></trkpt><trkpt lat="45.55294764996112" lon="8.169413076478646"><ele>241.0</ele><time>2026-04-11T10:16:53.991Z</time></trkpt><trkpt lat="45.55285496311402" lon="8.169409787066138"><ele>240.75</ele><time>2026-04-11T10:16:54.991Z</time></trkpt><trkpt lat="45.55276942730721" lon="8.16935362457313"><ele>240.5</ele><time>2026-04-11T10:16:55.991Z</time></trkpt><trkpt lat="45.55268534371663" lon="8.169262720809515"><ele>240.25</ele><time>2026-04-11T10:16:56.991Z</time></trkpt><trkpt lat="45.552587887226444" lon="8.169148869038452"><ele>240.0</ele><time>2026-04-11T10:16:57.991Z</time></trkpt><trkpt lat="45.55248289289591" lon="8.169035944867513"><ele>240.5</ele><time>2026-04-11T10:16:58.991Z</time></trkpt><trkpt lat="45.55240266461351" lon="8.1689413356902"><ele>241.0</ele><time>2026-04-11T10:16:59.991Z</time></trkpt><trkpt lat="45.55234899433705" lon="8.168839180964095"><ele>241.5</ele><time>2026-04-11T10:17:00.991Z</time></trkpt><trkpt lat="45.55232870418999" lon="8.168729777853915"><ele>242.0</ele><time>2026-04-11T10:17:01.991Z</time></trkpt><trkpt lat="45.55234349655485" lon="8.16862907946797"><ele>242.5</ele><time>2026-04-11T10:17:02.991Z</time></trkpt><trkpt lat="45.55238816286654" lon="8.1685400597138"><ele>243.0</ele><time>2026-04-11T10:17:03.991Z</time></trkpt><trkpt lat="45.552464378588134" lon="8.168476489214006"><ele>243.0</ele><time>2026-04-11T10:17:04.991Z</time></trkpt><trkpt lat="45.552565918259894" lon="8.168436747312438"><ele>243.0</ele><time>2026-04-11T10:17:05.991Z</time></trkpt><trkpt lat="45.55270046991797" lon="8.168418341381065"><ele>243.0</ele><time>2026-04-11T10:17:06.991Z</time></trkpt><trkpt lat="45.55286268026376" lon="8.168397016487457"><ele>243.0</ele><time>2026-04-11T10:17:07.991Z</time></trkpt><trkpt lat="45.55303167782518" lon="8.16837056295456"><ele>243.33333333333331</ele><time>2026-04-11T10:17:08.991Z</time></trkpt><trkpt lat="45.55319485436236" lon="8.168347021906069"><ele>243.66666666666666</ele><time>2026-04-11T10:17:09.991Z</time></trkpt><trkpt lat="45.55337740749109" lon="8.168329179165355"><ele>244.0</ele><time>2026-04-11T10:17:10.991Z</time></trkpt><trkpt lat="45.55356248259885" lon="8.168310080538118"><ele>244.0</ele><time>2026-04-11T10:17:11.991Z</time></trkpt><trkpt lat="45.55373920369025" lon="8.168293447817767"><ele>244.0</ele><time>2026-04-11T10:17:12.991Z</time></trkpt><trkpt lat="45.553927887822375" lon="8.168276835210502"><ele>244.0</ele><time>2026-04-11T10:17:13.991Z</time></trkpt><trkpt lat="45.55412775943973" lon="8.168261877743506"><ele>244.0</ele><time>2026-04-11T10:17:14.991Z</time></trkpt><trkpt lat="45.554336240414635" lon="8.168246709323913"><ele>244.0</ele><time>2026-04-11T10:17:15.991Z</time></trkpt><trkpt lat="45.55454008944562" lon="8.168227826266948"><ele>244.0</ele><time>2026-04-11T10:17:16.991Z</time></trkpt><trkpt lat="45.554744008737266" lon="8.168210206569485"><ele>244.0</ele><time>2026-04-11T10:17:17.991Z</time></trkpt><trkpt lat="45.554949619969726" lon="8.168194306596243"><ele>244.0</ele><time>2026-04-11T10:17:18.991Z</time></trkpt><trkpt lat="45.5551542136622" lon="8.16818339035893"><ele>244.0</ele><time>2026-04-11T10:17:19.991Z</time></trkpt><trkpt lat="45.555355188151374" lon="8.168167981088274"><ele>244.0</ele><time>2026-04-11T10:17:20.991Z</time></trkpt><trkpt lat="45.555551046413285" lon="8.16815007167119"><ele>244.0</ele><time>2026-04-11T10:17:21.991Z</time></trkpt><trkpt lat="45.55574373881495" lon="8.168133396781505"><ele>244.0</ele><time>2026-04-11T10:17:22.991Z</time></trkpt><trkpt lat="45.55593256254003" lon="8.168117069555118"><ele>244.0</ele><time>2026-04-11T10:17:23.991Z</time></trkpt><trkpt lat="45.55611291806853" lon="8.168102044656552"><ele>244.0</ele><time>2026-04-11T10:17:24.991Z</time></trkpt><trkpt lat="45.55628898100989" lon="8.168087881206377"><ele>244.0</ele><time>2026-04-11T10:17:25.991Z</time></trkpt><trkpt lat="45.55645780322895" lon="8.16807455272273"><ele>244.0</ele><time>2026-04-11T10:17:26.991Z</time></trkpt><trkpt lat="45.55662901295836" lon="8.168061619552741"><ele>244.0</ele><time>2026-04-11T10:17:27.991Z</time></trkpt><trkpt lat="45.55680840917393" lon="8.168051295028434"><ele>244.0</ele><time>2026-04-11T10:17:28.991Z</time></trkpt><trkpt lat="45.55698869520755" lon="8.168037565047607"><ele>243.66666666666666</ele><time>2026-04-11T10:17:29.991Z</time></trkpt><trkpt lat="45.557170554029895" lon="8.168025422059527"><ele>243.33333333333331</ele><time>2026-04-11T10:17:30.991Z</time></trkpt><trkpt lat="45.55734496717788" lon="8.168015830785588"><ele>243.0</ele><time>2026-04-11T10:17:31.991Z</time></trkpt><trkpt lat="45.557513619305624" lon="8.168003553010784"><ele>243.0</ele><time>2026-04-11T10:17:32.991Z</time></trkpt><trkpt lat="45.55767774943719" lon="8.167993484906894"><ele>243.0</ele><time>2026-04-11T10:17:33.991Z</time></trkpt><trkpt lat="45.5578364122905" lon="8.167987107863679"><ele>243.0</ele><time>2026-04-11T10:17:34.99Z</time></trkpt><trkpt lat="45.557982882837806" lon="8.16797910281469"><ele>242.5</ele><time>2026-04-11T10:17:35.99Z</time></trkpt><trkpt lat="45.55811139479358" lon="8.167970895057302"><ele>242.0</ele><time>2026-04-11T10:17:36.99Z</time></trkpt><trkpt lat="45.55823429527136" lon="8.167965352160584"><ele>241.5</ele><time>2026-04-11T10:17:37.99Z</time></trkpt><trkpt lat="45.55835221961511" lon="8.167964024803434"><ele>241.0</ele><time>2026-04-11T10:17:38.99Z</time></trkpt><trkpt lat="45.55846278535578" lon="8.167977732511604"><ele>241.0</ele><time>2026-04-11T10:17:39.99Z</time></trkpt><trkpt lat="45.55856402609287" lon="8.16801242450746"><ele>241.00000000000003</ele><time>2026-04-11T10:17:40.99Z</time></trkpt><trkpt lat="45.55865541273579" lon="8.168064200044478"><ele>241.00000000000003</ele><time>2026-04-11T10:17:41.99Z</time></trkpt><trkpt lat="45.55874489700319" lon="8.168107732966726"><ele>241.0</ele><time>2026-04-11T10:17:42.99Z</time></trkpt><trkpt lat="45.5588314400077" lon="8.168114793563271"><ele>241.0</ele><time>2026-04-11T10:17:43.99Z</time></trkpt><trkpt lat="45.55891049901088" lon="8.16807453855697"><ele>241.5</ele><time>2026-04-11T10:17:44.99Z</time></trkpt><trkpt lat="45.55900889759318" lon="8.168023240563842"><ele>242.0</ele><time>2026-04-11T10:17:45.99Z</time></trkpt><trkpt lat="45.55913237919366" lon="8.16800388529044"><ele>242.5</ele><time>2026-04-11T10:17:46.99Z</time></trkpt><trkpt lat="45.559269935476316" lon="8.168020310211716"><ele>243.0</ele><time>2026-04-11T10:17:47.99Z</time></trkpt><trkpt lat="45.55941794061908" lon="8.16805394037405"><ele>243.0</ele><time>2026-04-11T10:17:48.99Z</time></trkpt><trkpt lat="45.55957307334798" lon="8.168099571314132"><ele>243.0</ele><time>2026-04-11T10:17:49.99Z</time></trkpt><trkpt lat="45.559731533582145" lon="8.168147744126232"><ele>243.0</ele><time>2026-04-11T10:17:50.99Z</time></trkpt><trkpt lat="45.5598935644153" lon="8.16819828124065"><ele>242.66666666666669</ele><time>2026-04-11T10:17:51.99Z</time></trkpt><trkpt lat="45.56005746599497" lon="8.168251563060664"><ele>242.33333333333334</ele><time>2026-04-11T10:17:52.99Z</time></trkpt><trkpt lat="45.560210266329655" lon="8.168309017894705"><ele>242.0</ele><time>2026-04-11T10:17:53.99Z</time></trkpt><trkpt lat="45.56037196007468" lon="8.168376830813871"><ele>242.66666666666669</ele><time>2026-04-11T10:17:54.99Z</time></trkpt><trkpt lat="45.56053966382249" lon="8.168454088188618"><ele>243.33333333333331</ele><time>2026-04-11T10:17:55.99Z</time></trkpt><trkpt lat="45.560713624371296" lon="8.16854372243408"><ele>244.0</ele><time>2026-04-11T10:17:56.99Z</time></trkpt><trkpt lat="45.56089289394641" lon="8.16864276151708"><ele>244.0</ele><time>2026-04-11T10:17:57.99Z</time></trkpt><trkpt lat="45.561076757041725" lon="8.16874588714199"><ele>244.0</ele><time>2026-04-11T10:17:58.99Z</time></trkpt><trkpt lat="45.56126124077165" lon="8.168849047884404"><ele>244.0</ele><time>2026-04-11T10:17:59.99Z</time></trkpt><trkpt lat="45.56144883712752" lon="8.168956868001407"><ele>243.0</ele><time>2026-04-11T10:18:00.99Z</time></trkpt><trkpt lat="45.561637958619194" lon="8.169067308842552"><ele>242.0</ele><time>2026-04-11T10:18:01.99Z</time></trkpt><trkpt lat="45.56183001196903" lon="8.169177764933128"><ele>241.0</ele><time>2026-04-11T10:18:02.99Z</time></trkpt><trkpt lat="45.562026332039935" lon="8.169288332357064"><ele>241.33333333333331</ele><time>2026-04-11T10:18:03.99Z</time></trkpt><trkpt lat="45.56222599608573" lon="8.16940194468982"><ele>241.66666666666669</ele><time>2026-04-11T10:18:04.99Z</time></trkpt><trkpt lat="45.562428654517504" lon="8.169515213404756"><ele>242.0</ele><time>2026-04-11T10:18:05.99Z</time></trkpt><trkpt lat="45.56263319145125" lon="8.169625412802192"><ele>242.0</ele><time>2026-04-11T10:18:06.99Z</time></trkpt><trkpt lat="45.562837874676795" lon="8.169726984035568"><ele>242.0</ele><time>2026-04-11T10:18:07.99Z</time></trkpt><trkpt lat="45.56304057003227" lon="8.16981449630967"><ele>242.0</ele><time>2026-04-11T10:18:08.99Z</time></trkpt><trkpt lat="45.56324418854756" lon="8.169896200903404"><ele>242.0</ele><time>2026-04-11T10:18:09.99Z</time></trkpt><trkpt lat="45.563449542262184" lon="8.169970137144263"><ele>242.0</ele><time>2026-04-11T10:18:10.99Z</time></trkpt><trkpt lat="45.56365470048113" lon="8.17003746656666"><ele>242.0</ele><time>2026-04-11T10:18:11.99Z</time></trkpt><trkpt lat="45.563860787608114" lon="8.170096256559434"><ele>242.0</ele><time>2026-04-11T10:18:12.99Z</time></trkpt><trkpt lat="45.56406976764709" lon="8.170142400074381"><ele>242.0</ele><time>2026-04-11T10:18:13.99Z</time></trkpt><trkpt lat="45.56427532657533" lon="8.17018752453126"><ele>242.0</ele><time>2026-04-11T10:18:14.99Z</time></trkpt><trkpt lat="45.56447485042857" lon="8.170226463774403"><ele>242.0</ele><time>2026-04-11T10:18:15.99Z</time></trkpt><trkpt lat="45.564669126118396" lon="8.170256466710343"><ele>242.0</ele><time>2026-04-11T10:18:16.99Z</time></trkpt><trkpt lat="45.56485488897323" lon="8.170282480943028"><ele>242.0</ele><time>2026-04-11T10:18:17.99Z</time></trkpt><trkpt lat="45.5650347996341" lon="8.170308970039939"><ele>242.0</ele><time>2026-04-11T10:18:18.99Z</time></trkpt><trkpt lat="45.56520831034425" lon="8.170336262275551"><ele>242.0</ele><time>2026-04-11T10:18:19.99Z</time></trkpt><trkpt lat="45.56537725257658" lon="8.170349806347385"><ele>242.0</ele><time>2026-04-11T10:18:20.989Z</time></trkpt><trkpt lat="45.56554249249849" lon="8.170343353029233"><ele>242.5</ele><time>2026-04-11T10:18:21.989Z</time></trkpt><trkpt lat="45.565692603793316" lon="8.17034078555158"><ele>243.0</ele><time>2026-04-11T10:18:22.989Z</time></trkpt><trkpt lat="45.56582293285431" lon="8.170337884561642"><ele>243.5</ele><time>2026-04-11T10:18:23.989Z</time></trkpt><trkpt lat="45.565945549661016" lon="8.170351970375973"><ele>244.0</ele><time>2026-04-11T10:18:24.989Z</time></trkpt><trkpt lat="45.566043574848415" lon="8.170390037322873"><ele>244.0</ele><time>2026-04-11T10:18:25.989Z</time></trkpt><trkpt lat="45.56611695093594" lon="8.170460572331153"><ele>243.99999999999997</ele><time>2026-04-11T10:18:26.989Z</time></trkpt><trkpt lat="45.566178444638034" lon="8.170568336822537"><ele>243.99999999999997</ele><time>2026-04-11T10:18:27.989Z</time></trkpt><trkpt lat="45.566227891236444" lon="8.17071108676475"><ele>244.0</ele><time>2026-04-11T10:18:28.989Z</time></trkpt><trkpt lat="45.56624636855878" lon="8.170871232377106"><ele>244.0</ele><time>2026-04-11T10:18:29.989Z</time></trkpt><trkpt lat="45.56622401476366" lon="8.17101731211109"><ele>244.66666666666666</ele><time>2026-04-11T10:18:30.989Z</time></trkpt><trkpt lat="45.566178196249105" lon="8.171143384982956"><ele>245.33333333333331</ele><time>2026-04-11T10:18:31.989Z</time></trkpt><trkpt lat="45.56611697669013" lon="8.171244269569048"><ele>246.0</ele><time>2026-04-11T10:18:32.989Z</time></trkpt><trkpt lat="45.56603816560617" lon="8.171311417227388"><ele>246.66666666666669</ele><time>2026-04-11T10:18:33.989Z</time></trkpt><trkpt lat="45.56595969710329" lon="8.171354534756993"><ele>247.33333333333334</ele><time>2026-04-11T10:18:34.989Z</time></trkpt><trkpt lat="45.56588030507171" lon="8.171372740011062"><ele>248.0</ele><time>2026-04-11T10:18:35.989Z</time></trkpt><trkpt lat="45.56580314191043" lon="8.17137115156037"><ele>248.0</ele><time>2026-04-11T10:18:36.989Z</time></trkpt><trkpt lat="45.56573749701681" lon="8.171351158553493"><ele>248.0</ele><time>2026-04-11T10:18:37.989Z</time></trkpt><trkpt lat="45.56567018329936" lon="8.171341667724736"><ele>248.0</ele><time>2026-04-11T10:18:38.989Z</time></trkpt><trkpt lat="45.565578912760294" lon="8.171433285739178"><ele>248.0</ele><time>2026-04-11T10:18:40.989Z</time></trkpt><trkpt lat="45.565601138150114" lon="8.171605825583235"><ele>248.0</ele><time>2026-04-11T10:18:42.989Z</time></trkpt><trkpt lat="45.565645405004226" lon="8.171726060488444"><ele>248.0</ele><time>2026-04-11T10:18:43.989Z</time></trkpt><trkpt lat="45.565695543563955" lon="8.171868554400529"><ele>248.0</ele><time>2026-04-11T10:18:44.989Z</time></trkpt><trkpt lat="45.56573569994643" lon="8.172006012878477"><ele>248.0</ele><time>2026-04-11T10:18:45.989Z</time></trkpt><trkpt lat="45.56575621853846" lon="8.172122034376686"><ele>248.0</ele><time>2026-04-11T10:18:46.989Z</time></trkpt><trkpt lat="45.56575940324321" lon="8.172219418473725"><ele>248.0</ele><time>2026-04-11T10:18:47.989Z</time></trkpt><trkpt lat="45.565764351270204" lon="8.172361064344518"><ele>248.0</ele><time>2026-04-11T10:18:49.989Z</time></trkpt><trkpt lat="45.56578960601239" lon="8.172444901989028"><ele>248.0</ele><time>2026-04-11T10:18:51.989Z</time></trkpt><trkpt lat="45.56586160997891" lon="8.172674061628905"><ele>248.0</ele><time>2026-04-11T10:22:37.984Z</time></trkpt><trkpt lat="45.56592453866622" lon="8.172662638956437"><ele>248.0</ele><time>2026-04-11T10:22:42.984Z</time></trkpt><trkpt lat="45.56593250557662" lon="8.172563396959168"><ele>248.0</ele><time>2026-04-11T10:22:44.984Z</time></trkpt><trkpt lat="45.565801522497345" lon="8.172594595250478"><ele>248.0</ele><time>2026-04-11T10:22:45.984Z</time></trkpt><trkpt lat="45.56575401906105" lon="8.172512553223061"><ele>248.0</ele><time>2026-04-11T10:22:46.984Z</time></trkpt><trkpt lat="45.565857249958896" lon="8.172254283609998"><ele>248.0</ele><time>2026-04-11T10:22:47.984Z</time></trkpt><trkpt lat="45.565820355130505" lon="8.17213580727048"><ele>248.0</ele><time>2026-04-11T10:22:48.984Z</time></trkpt><trkpt lat="45.56578412951796" lon="8.171999672928354"><ele>248.0</ele><time>2026-04-11T10:22:49.984Z</time></trkpt><trkpt lat="45.56575190803225" lon="8.17186009187526"><ele>248.0</ele><time>2026-04-11T10:22:50.984Z</time></trkpt><trkpt lat="45.56573584139533" lon="8.171725415466987"><ele>248.0</ele><time>2026-04-11T10:22:51.984Z</time></trkpt><trkpt lat="45.56586574466096" lon="8.171615336442992"><ele>248.0</ele><time>2026-04-11T10:22:52.984Z</time></trkpt><trkpt lat="45.565718036480746" lon="8.171381696652574"><ele>248.0</ele><time>2026-04-11T10:22:54.984Z</time></trkpt><trkpt lat="45.565665481094214" lon="8.171278758142378"><ele>248.0</ele><time>2026-04-11T10:22:55.984Z</time></trkpt><trkpt lat="45.56560100609076" lon="8.171160156903559"><ele>248.0</ele><time>2026-04-11T10:22:56.984Z</time></trkpt><trkpt lat="45.565547070003525" lon="8.171013150300936"><ele>248.0</ele><time>2026-04-11T10:22:57.984Z</time></trkpt><trkpt lat="45.565509059161805" lon="8.170856145741263"><ele>248.0</ele><time>2026-04-11T10:22:58.983Z</time></trkpt><trkpt lat="45.56547415731146" lon="8.170707890578145"><ele>247.2</ele><time>2026-04-11T10:22:59.983Z</time></trkpt><trkpt lat="45.5654429908986" lon="8.17055423075024"><ele>246.4</ele><time>2026-04-11T10:23:00.983Z</time></trkpt><trkpt lat="45.56541778888661" lon="8.1703934130293"><ele>245.59999999999997</ele><time>2026-04-11T10:23:01.983Z</time></trkpt><trkpt lat="45.565387344185865" lon="8.17024219176231"><ele>244.79999999999998</ele><time>2026-04-11T10:23:02.983Z</time></trkpt><trkpt lat="45.56535821318225" lon="8.170091879255754"><ele>244.0</ele><time>2026-04-11T10:23:03.983Z</time></trkpt><trkpt lat="45.565328015556126" lon="8.16994213321578"><ele>244.25</ele><time>2026-04-11T10:23:04.983Z</time></trkpt><trkpt lat="45.56530637935007" lon="8.16977803220251"><ele>244.5</ele><time>2026-04-11T10:23:05.983Z</time></trkpt><trkpt lat="45.56528615822434" lon="8.169611254998031"><ele>244.75</ele><time>2026-04-11T10:23:06.983Z</time></trkpt><trkpt lat="45.56525810519716" lon="8.16944581071099"><ele>245.0</ele><time>2026-04-11T10:23:07.983Z</time></trkpt><trkpt lat="45.565241037175625" lon="8.169296277904863"><ele>245.00000000000003</ele><time>2026-04-11T10:23:08.983Z</time></trkpt><trkpt lat="45.565227333519374" lon="8.169168200688105"><ele>245.0</ele><time>2026-04-11T10:23:09.983Z</time></trkpt><trkpt lat="45.565231735904455" lon="8.169047025920214"><ele>245.0</ele><time>2026-04-11T10:23:10.983Z</time></trkpt><trkpt lat="45.56526111453251" lon="8.168944356093848"><ele>245.0</ele><time>2026-04-11T10:23:11.983Z</time></trkpt><trkpt lat="45.56530482709452" lon="8.168855687244053"><ele>245.00000000000003</ele><time>2026-04-11T10:23:12.983Z</time></trkpt><trkpt lat="45.56536873741324" lon="8.168798514096899"><ele>245.0</ele><time>2026-04-11T10:23:13.983Z</time></trkpt><trkpt lat="45.565452517743516" lon="8.168771109348741"><ele>244.75</ele><time>2026-04-11T10:23:14.983Z</time></trkpt><trkpt lat="45.565552532112605" lon="8.168756776818704"><ele>244.5</ele><time>2026-04-11T10:23:15.983Z</time></trkpt><trkpt lat="45.56566602775419" lon="8.168744651109558"><ele>244.25</ele><time>2026-04-11T10:23:16.983Z</time></trkpt><trkpt lat="45.56579593104366" lon="8.168733395323487"><ele>244.0</ele><time>2026-04-11T10:23:17.983Z</time></trkpt><trkpt lat="45.56593302617913" lon="8.168716778757592"><ele>244.0</ele><time>2026-04-11T10:23:18.983Z</time></trkpt><trkpt lat="45.56606989307224" lon="8.168698798784861"><ele>244.0</ele><time>2026-04-11T10:23:19.983Z</time></trkpt><trkpt lat="45.566191529720086" lon="8.168695531071219"><ele>244.0</ele><time>2026-04-11T10:23:20.983Z</time></trkpt><trkpt lat="45.566302635825586" lon="8.168725237414703"><ele>244.0</ele><time>2026-04-11T10:23:21.983Z</time></trkpt><trkpt lat="45.56639692633329" lon="8.16881026744647"><ele>244.0</ele><time>2026-04-11T10:23:22.983Z</time></trkpt><trkpt lat="45.5664744935012" lon="8.16894523895075"><ele>244.0</ele><time>2026-04-11T10:23:23.983Z</time></trkpt><trkpt lat="45.56653523061132" lon="8.169106426082775"><ele>244.0</ele><time>2026-04-11T10:23:24.983Z</time></trkpt><trkpt lat="45.56657689280054" lon="8.16928499870799"><ele>244.0</ele><time>2026-04-11T10:23:25.983Z</time></trkpt><trkpt lat="45.56658369464599" lon="8.169463032661119"><ele>244.0</ele><time>2026-04-11T10:23:26.983Z</time></trkpt><trkpt lat="45.56655903726775" lon="8.169634722770414"><ele>244.0</ele><time>2026-04-11T10:23:27.983Z</time></trkpt><trkpt lat="45.566509179142955" lon="8.16979928321107"><ele>244.0</ele><time>2026-04-11T10:23:28.983Z</time></trkpt><trkpt lat="45.5664294017761" lon="8.169947252874202"><ele>244.0</ele><time>2026-04-11T10:23:29.983Z</time></trkpt><trkpt lat="45.56632752848581" lon="8.170071608293181"><ele>244.0</ele><time>2026-04-11T10:23:30.983Z</time></trkpt><trkpt lat="45.56620914351962" lon="8.170162065249722"><ele>244.0</ele><time>2026-04-11T10:23:31.983Z</time></trkpt><trkpt lat="45.5660809562988" lon="8.170209789254166"><ele>244.0</ele><time>2026-04-11T10:23:32.983Z</time></trkpt><trkpt lat="45.565944321770345" lon="8.170255968492832"><ele>244.0</ele><time>2026-04-11T10:23:33.983Z</time></trkpt><trkpt lat="45.56578207292634" lon="8.170231598905785"><ele>244.0</ele><time>2026-04-11T10:23:34.983Z</time></trkpt><trkpt lat="45.56562243694223" lon="8.170231040193816"><ele>244.0</ele><time>2026-04-11T10:23:35.983Z</time></trkpt><trkpt lat="45.56546855153738" lon="8.170237588698305"><ele>244.0</ele><time>2026-04-11T10:23:36.983Z</time></trkpt><trkpt lat="45.565316051342506" lon="8.170241226309164"><ele>243.33333333333331</ele><time>2026-04-11T10:23:37.983Z</time></trkpt><trkpt lat="45.565149696079246" lon="8.170238315694316"><ele>242.66666666666669</ele><time>2026-04-11T10:23:38.983Z</time></trkpt><trkpt lat="45.56497061665911" lon="8.170237381469995"><ele>242.0</ele><time>2026-04-11T10:23:39.983Z</time></trkpt><trkpt lat="45.56478712496793" lon="8.170227381914874"><ele>242.0</ele><time>2026-04-11T10:23:40.983Z</time></trkpt><trkpt lat="45.5645961915156" lon="8.170200737883075"><ele>242.0</ele><time>2026-04-11T10:23:41.983Z</time></trkpt><trkpt lat="45.564409082566435" lon="8.170166594109602"><ele>242.0</ele><time>2026-04-11T10:23:42.983Z</time></trkpt><trkpt lat="45.564231136417135" lon="8.170129695317087"><ele>242.0</ele><time>2026-04-11T10:23:43.983Z</time></trkpt><trkpt lat="45.56404672830552" lon="8.170089931402073"><ele>242.0</ele><time>2026-04-11T10:23:44.982Z</time></trkpt><trkpt lat="45.56385805821306" lon="8.170040861482706"><ele>242.0</ele><time>2026-04-11T10:23:45.982Z</time></trkpt><trkpt lat="45.56366198696539" lon="8.169984386205691"><ele>242.33333333333334</ele><time>2026-04-11T10:23:46.982Z</time></trkpt><trkpt lat="45.56346321512527" lon="8.169919118468894"><ele>242.66666666666669</ele><time>2026-04-11T10:23:47.982Z</time></trkpt><trkpt lat="45.56326372201708" lon="8.1698462025389"><ele>243.0</ele><time>2026-04-11T10:23:48.982Z</time></trkpt><trkpt lat="45.56306208924091" lon="8.169769325817509"><ele>242.66666666666669</ele><time>2026-04-11T10:23:49.982Z</time></trkpt><trkpt lat="45.56286339013081" lon="8.169681511068529"><ele>242.33333333333334</ele><time>2026-04-11T10:23:50.982Z</time></trkpt><trkpt lat="45.56266753823692" lon="8.169587849307831"><ele>242.0</ele><time>2026-04-11T10:23:51.982Z</time></trkpt><trkpt lat="45.56247559428274" lon="8.169488457965395"><ele>242.0</ele><time>2026-04-11T10:23:52.982Z</time></trkpt><trkpt lat="45.562286191965526" lon="8.169383448300247"><ele>242.0</ele><time>2026-04-11T10:23:53.982Z</time></trkpt><trkpt lat="45.562100215048716" lon="8.169275264231079"><ele>242.0</ele><time>2026-04-11T10:23:54.982Z</time></trkpt><trkpt lat="45.56191741088186" lon="8.169170838628279"><ele>242.0</ele><time>2026-04-11T10:23:55.982Z</time></trkpt><trkpt lat="45.56173934816234" lon="8.169074375859866"><ele>242.0</ele><time>2026-04-11T10:23:56.982Z</time></trkpt><trkpt lat="45.56157252400308" lon="8.168975799304613"><ele>242.0</ele><time>2026-04-11T10:23:57.982Z</time></trkpt><trkpt lat="45.56141230716951" lon="8.168886082277108"><ele>242.0</ele><time>2026-04-11T10:23:58.982Z</time></trkpt><trkpt lat="45.56125953506086" lon="8.16879728113377"><ele>242.0</ele><time>2026-04-11T10:23:59.982Z</time></trkpt><trkpt lat="45.56110931292684" lon="8.168712405719235"><ele>242.0</ele><time>2026-04-11T10:24:00.982Z</time></trkpt><trkpt lat="45.56096502914654" lon="8.16863043312018"><ele>242.66666666666669</ele><time>2026-04-11T10:24:01.982Z</time></trkpt><trkpt lat="45.560823453123604" lon="8.168549164435797"><ele>243.33333333333331</ele><time>2026-04-11T10:24:02.982Z</time></trkpt><trkpt lat="45.560675282030665" lon="8.16846767366476"><ele>244.0</ele><time>2026-04-11T10:24:03.982Z</time></trkpt><trkpt lat="45.56051883540473" lon="8.16839098479596"><ele>243.66666666666666</ele><time>2026-04-11T10:24:04.982Z</time></trkpt><trkpt lat="45.56035589992563" lon="8.168316728623232"><ele>243.33333333333331</ele><time>2026-04-11T10:24:05.982Z</time></trkpt><trkpt lat="45.560190537471556" lon="8.168246691509623"><ele>243.0</ele><time>2026-04-11T10:24:06.982Z</time></trkpt><trkpt lat="45.56003216668885" lon="8.168184743857422"><ele>243.0</ele><time>2026-04-11T10:24:07.982Z</time></trkpt><trkpt lat="45.55987284580357" lon="8.168128775984025"><ele>243.0</ele><time>2026-04-11T10:24:08.982Z</time></trkpt><trkpt lat="45.55972036522469" lon="8.168079834046932"><ele>243.0</ele><time>2026-04-11T10:24:09.982Z</time></trkpt><trkpt lat="45.559579691745505" lon="8.168037579694856"><ele>243.0</ele><time>2026-04-11T10:24:10.982Z</time></trkpt><trkpt lat="45.55944620912812" lon="8.168003959601084"><ele>243.0</ele><time>2026-04-11T10:24:11.982Z</time></trkpt><trkpt lat="45.559321355817886" lon="8.167975963376632"><ele>243.0</ele><time>2026-04-11T10:24:12.982Z</time></trkpt><trkpt lat="45.55920861070068" lon="8.16795177120782"><ele>243.0</ele><time>2026-04-11T10:24:13.982Z</time></trkpt><trkpt lat="45.55911062533566" lon="8.167923951663997"><ele>243.0</ele><time>2026-04-11T10:24:14.982Z</time></trkpt><trkpt lat="45.55901999781116" lon="8.16788688248095"><ele>243.0</ele><time>2026-04-11T10:24:15.982Z</time></trkpt><trkpt lat="45.55892918816454" lon="8.1678508449359"><ele>243.0</ele><time>2026-04-11T10:24:16.982Z</time></trkpt><trkpt lat="45.55882915183243" lon="8.167834570152985"><ele>243.0</ele><time>2026-04-11T10:24:17.982Z</time></trkpt><trkpt lat="45.55871890677828" lon="8.167849314721725"><ele>243.0</ele><time>2026-04-11T10:24:18.982Z</time></trkpt><trkpt lat="45.55860493905347" lon="8.167873967757243"><ele>242.5</ele><time>2026-04-11T10:24:19.982Z</time></trkpt><trkpt lat="45.55848419885975" lon="8.167896696389636"><ele>242.0</ele><time>2026-04-11T10:24:20.982Z</time></trkpt><trkpt lat="45.558350326535745" lon="8.167904386899275"><ele>241.5</ele><time>2026-04-11T10:24:21.982Z</time></trkpt><trkpt lat="45.55821482780718" lon="8.167918686617261"><ele>241.0</ele><time>2026-04-11T10:24:22.982Z</time></trkpt><trkpt lat="45.558077700605466" lon="8.16793104461653"><ele>241.0</ele><time>2026-04-11T10:24:23.982Z</time></trkpt><trkpt lat="45.55794351052522" lon="8.167937962844453"><ele>241.0</ele><time>2026-04-11T10:24:24.982Z</time></trkpt><trkpt lat="45.55781304445399" lon="8.16794450603184"><ele>241.0</ele><time>2026-04-11T10:24:25.982Z</time></trkpt><trkpt lat="45.55767609947373" lon="8.167956423315418"><ele>241.0</ele><time>2026-04-11T10:24:26.982Z</time></trkpt><trkpt lat="45.55753299207331" lon="8.1679679567037"><ele>241.66666666666666</ele><time>2026-04-11T10:24:27.982Z</time></trkpt><trkpt lat="45.55738501682845" lon="8.16798021251593"><ele>242.33333333333331</ele><time>2026-04-11T10:24:28.982Z</time></trkpt><trkpt lat="45.55723172351696" lon="8.167992557275934"><ele>243.0</ele><time>2026-04-11T10:24:29.982Z</time></trkpt><trkpt lat="45.557074326139556" lon="8.168002305203991"><ele>243.33333333333331</ele><time>2026-04-11T10:24:30.981Z</time></trkpt><trkpt lat="45.55691581490963" lon="8.168009909836968"><ele>243.66666666666666</ele><time>2026-04-11T10:24:31.981Z</time></trkpt><trkpt lat="45.55675552407059" lon="8.168019934602746"><ele>244.0</ele><time>2026-04-11T10:24:32.981Z</time></trkpt><trkpt lat="45.55659409202707" lon="8.168032476967753"><ele>244.0</ele><time>2026-04-11T10:24:33.981Z</time></trkpt><trkpt lat="45.55643218204827" lon="8.16804669255309"><ele>244.0</ele><time>2026-04-11T10:24:34.981Z</time></trkpt><trkpt lat="45.55626768097584" lon="8.168061226932293"><ele>244.0</ele><time>2026-04-11T10:24:35.981Z</time></trkpt><trkpt lat="45.556102473180445" lon="8.168073517344913"><ele>244.0</ele><time>2026-04-11T10:24:36.981Z</time></trkpt><trkpt lat="45.555934975200074" lon="8.168084571408995"><ele>244.0</ele><time>2026-04-11T10:24:37.981Z</time></trkpt><trkpt lat="45.55576860044731" lon="8.168102714981648"><ele>244.0</ele><time>2026-04-11T10:24:38.981Z</time></trkpt><trkpt lat="45.55561060407366" lon="8.168119705940258"><ele>244.0</ele><time>2026-04-11T10:24:39.981Z</time></trkpt><trkpt lat="45.555447545834774" lon="8.168131921037746"><ele>244.0</ele><time>2026-04-11T10:24:40.981Z</time></trkpt><trkpt lat="45.555284672874414" lon="8.168145432193196"><ele>244.0</ele><time>2026-04-11T10:24:41.981Z</time></trkpt><trkpt lat="45.55512178468229" lon="8.168159626100284"><ele>244.0</ele><time>2026-04-11T10:24:42.981Z</time></trkpt><trkpt lat="45.554962419388204" lon="8.168176312396564"><ele>244.0</ele><time>2026-04-11T10:24:43.981Z</time></trkpt><trkpt lat="45.554798122086346" lon="8.168196822828758"><ele>244.0</ele><time>2026-04-11T10:24:44.981Z</time></trkpt><trkpt lat="45.55463453467797" lon="8.168212670671075"><ele>244.0</ele><time>2026-04-11T10:24:45.981Z</time></trkpt><trkpt lat="45.554464687743284" lon="8.168209402670145"><ele>244.0</ele><time>2026-04-11T10:24:46.981Z</time></trkpt><trkpt lat="45.55428439715883" lon="8.168221429998324"><ele>244.0</ele><time>2026-04-11T10:24:47.981Z</time></trkpt><trkpt lat="45.554096270591494" lon="8.168230825601364"><ele>244.0</ele><time>2026-04-11T10:24:48.981Z</time></trkpt><trkpt lat="45.553902933557644" lon="8.16824150854068"><ele>244.0</ele><time>2026-04-11T10:24:49.981Z</time></trkpt><trkpt lat="45.553706922787505" lon="8.168256705611968"><ele>244.0</ele><time>2026-04-11T10:24:50.981Z</time></trkpt><trkpt lat="45.55351461875064" lon="8.16827144541401"><ele>244.0</ele><time>2026-04-11T10:24:51.981Z</time></trkpt><trkpt lat="45.553330972919916" lon="8.168287668511567"><ele>244.0</ele><time>2026-04-11T10:24:52.981Z</time></trkpt><trkpt lat="45.55314926985159" lon="8.168301051653382"><ele>244.0</ele><time>2026-04-11T10:24:53.981Z</time></trkpt><trkpt lat="45.552959446021774" lon="8.16831294272844"><ele>243.66666666666666</ele><time>2026-04-11T10:24:54.981Z</time></trkpt><trkpt lat="45.55276407185011" lon="8.168327543239025"><ele>243.33333333333331</ele><time>2026-04-11T10:24:55.981Z</time></trkpt><trkpt lat="45.55256445654691" lon="8.168337364409165"><ele>243.0</ele><time>2026-04-11T10:24:56.981Z</time></trkpt><trkpt lat="45.55236456792276" lon="8.168349220423352"><ele>243.0</ele><time>2026-04-11T10:24:57.981Z</time></trkpt><trkpt lat="45.55217186863806" lon="8.168369081761957"><ele>243.0</ele><time>2026-04-11T10:24:58.981Z</time></trkpt><trkpt lat="45.5519769514719" lon="8.168388181685579"><ele>243.0</ele><time>2026-04-11T10:24:59.981Z</time></trkpt><trkpt lat="45.55177775165171" lon="8.16840775292505"><ele>242.33333333333331</ele><time>2026-04-11T10:25:00.981Z</time></trkpt><trkpt lat="45.55157413713127" lon="8.168431607687046"><ele>241.66666666666666</ele><time>2026-04-11T10:25:01.981Z</time></trkpt><trkpt lat="45.55136419913217" lon="8.168469852086787"><ele>241.0</ele><time>2026-04-11T10:25:02.981Z</time></trkpt><trkpt lat="45.55115512743381" lon="8.168519101024188"><ele>240.66666666666666</ele><time>2026-04-11T10:25:03.981Z</time></trkpt><trkpt lat="45.55094511424392" lon="8.16858755478721"><ele>240.33333333333331</ele><time>2026-04-11T10:25:04.981Z</time></trkpt><trkpt lat="45.550732886536444" lon="8.168670100623016"><ele>240.0</ele><time>2026-04-11T10:25:05.981Z</time></trkpt><trkpt lat="45.55052368655957" lon="8.168766629485955"><ele>240.0</ele><time>2026-04-11T10:25:06.981Z</time></trkpt><trkpt lat="45.5503194937429" lon="8.168879631390508"><ele>240.0</ele><time>2026-04-11T10:25:07.981Z</time></trkpt><trkpt lat="45.55012092713682" lon="8.169007013797215"><ele>240.0</ele><time>2026-04-11T10:25:08.981Z</time></trkpt><trkpt lat="45.54992565165629" lon="8.1691450000105"><ele>239.66666666666669</ele><time>2026-04-11T10:25:09.981Z</time></trkpt><trkpt lat="45.5497338535221" lon="8.169298707497502"><ele>239.33333333333334</ele><time>2026-04-11T10:25:10.981Z</time></trkpt><trkpt lat="45.54954748819003" lon="8.169470168849125"><ele>239.0</ele><time>2026-04-11T10:25:11.981Z</time></trkpt><trkpt lat="45.54936612484095" lon="8.169654436567116"><ele>239.0</ele><time>2026-04-11T10:25:12.981Z</time></trkpt><trkpt lat="45.54918770431143" lon="8.169851765384935"><ele>239.0</ele><time>2026-04-11T10:25:13.981Z</time></trkpt><trkpt lat="45.549017274821395" lon="8.170058545635278"><ele>239.0</ele><time>2026-04-11T10:25:14.981Z</time></trkpt><trkpt lat="45.54885571995006" lon="8.170277721679986"><ele>239.0</ele><time>2026-04-11T10:25:15.981Z</time></trkpt><trkpt lat="45.54870372695425" lon="8.170506881884657"><ele>239.0</ele><time>2026-04-11T10:25:16.981Z</time></trkpt><trkpt lat="45.54855808645018" lon="8.170745515020084"><ele>239.0</ele><time>2026-04-11T10:25:17.98Z</time></trkpt><trkpt lat="45.54842035902496" lon="8.170991856845117"><ele>239.0</ele><time>2026-04-11T10:25:18.98Z</time></trkpt><trkpt lat="45.548283378535665" lon="8.17124380585382"><ele>239.0</ele><time>2026-04-11T10:25:19.98Z</time></trkpt><trkpt lat="45.548143315443674" lon="8.171496006441334"><ele>239.0</ele><time>2026-04-11T10:25:20.98Z</time></trkpt><trkpt lat="45.54800264216609" lon="8.171750621143746"><ele>239.0</ele><time>2026-04-11T10:25:21.98Z</time></trkpt><trkpt lat="45.54786340924331" lon="8.172007525139977"><ele>239.0</ele><time>2026-04-11T10:25:22.98Z</time></trkpt><trkpt lat="45.54772679391139" lon="8.172260342393088"><ele>238.33333333333334</ele><time>2026-04-11T10:25:23.98Z</time></trkpt><trkpt lat="45.54759078122048" lon="8.172510333720506"><ele>237.66666666666669</ele><time>2026-04-11T10:25:24.98Z</time></trkpt><trkpt lat="45.54745238580229" lon="8.172762192979661"><ele>237.0</ele><time>2026-04-11T10:25:25.98Z</time></trkpt><trkpt lat="45.547313774269504" lon="8.173012605197941"><ele>236.33333333333331</ele><time>2026-04-11T10:25:26.98Z</time></trkpt><trkpt lat="45.54717717483081" lon="8.173263047515675"><ele>235.66666666666666</ele><time>2026-04-11T10:25:27.98Z</time></trkpt><trkpt lat="45.54704108460452" lon="8.173512441597927"><ele>235.0</ele><time>2026-04-11T10:25:28.98Z</time></trkpt><trkpt lat="45.54690536822304" lon="8.173760755736437"><ele>235.0</ele><time>2026-04-11T10:25:29.98Z</time></trkpt><trkpt lat="45.546771378731634" lon="8.174009824492817"><ele>235.0</ele><time>2026-04-11T10:25:30.98Z</time></trkpt><trkpt lat="45.54663584056216" lon="8.174260332093688"><ele>235.0</ele><time>2026-04-11T10:25:31.98Z</time></trkpt><trkpt lat="45.54649970714925" lon="8.174509007496683"><ele>234.66666666666666</ele><time>2026-04-11T10:25:32.98Z</time></trkpt><trkpt lat="45.54636296798611" lon="8.174757096837281"><ele>234.33333333333331</ele><time>2026-04-11T10:25:33.98Z</time></trkpt><trkpt lat="45.54622624871688" lon="8.17500612687768"><ele>234.0</ele><time>2026-04-11T10:25:34.98Z</time></trkpt><trkpt lat="45.546090840152836" lon="8.175254629508634"><ele>233.66666666666669</ele><time>2026-04-11T10:25:35.98Z</time></trkpt><trkpt lat="45.54595523142913" lon="8.17550501672389"><ele>233.33333333333334</ele><time>2026-04-11T10:25:36.98Z</time></trkpt><trkpt lat="45.54581898644702" lon="8.175755905453745"><ele>233.0</ele><time>2026-04-11T10:25:37.98Z</time></trkpt><trkpt lat="45.54568244900435" lon="8.17600646657025"><ele>233.0</ele><time>2026-04-11T10:25:38.98Z</time></trkpt><trkpt lat="45.54554733758963" lon="8.176256880638268"><ele>233.0</ele><time>2026-04-11T10:25:39.98Z</time></trkpt><trkpt lat="45.54541134465345" lon="8.176506471282202"><ele>233.0</ele><time>2026-04-11T10:25:40.98Z</time></trkpt><trkpt lat="45.54527413801782" lon="8.176756837132336"><ele>233.0</ele><time>2026-04-11T10:25:41.98Z</time></trkpt><trkpt lat="45.545135951616246" lon="8.17700692302819"><ele>233.0</ele><time>2026-04-11T10:25:42.98Z</time></trkpt><trkpt lat="45.5449973915254" lon="8.177259200047512"><ele>233.0</ele><time>2026-04-11T10:25:43.98Z</time></trkpt><trkpt lat="45.54486354370381" lon="8.17750853368327"><ele>232.0</ele><time>2026-04-11T10:25:44.98Z</time></trkpt><trkpt lat="45.54473340872775" lon="8.177753616259697"><ele>231.0</ele><time>2026-04-11T10:25:45.98Z</time></trkpt><trkpt lat="45.5446036285386" lon="8.177992613549835"><ele>230.0</ele><time>2026-04-11T10:25:46.98Z</time></trkpt><trkpt lat="45.54447309210013" lon="8.17822956744939"><ele>230.0</ele><time>2026-04-11T10:25:47.98Z</time></trkpt><trkpt lat="45.544343903433656" lon="8.178464884613755"><ele>230.0</ele><time>2026-04-11T10:25:48.98Z</time></trkpt><trkpt lat="45.54421392480673" lon="8.178701513819695"><ele>230.0</ele><time>2026-04-11T10:25:49.98Z</time></trkpt><trkpt lat="45.5440862389146" lon="8.178935999811712"><ele>229.66666666666669</ele><time>2026-04-11T10:25:50.98Z</time></trkpt><trkpt lat="45.543959056712964" lon="8.179171209194692"><ele>229.33333333333331</ele><time>2026-04-11T10:25:51.98Z</time></trkpt><trkpt lat="45.543833310364455" lon="8.179405236306984"><ele>229.0</ele><time>2026-04-11T10:25:52.98Z</time></trkpt><trkpt lat="45.5437050656211" lon="8.179637578481303"><ele>229.0</ele><time>2026-04-11T10:25:53.98Z</time></trkpt><trkpt lat="45.54357834198205" lon="8.179869165186663"><ele>229.0</ele><time>2026-04-11T10:25:54.98Z</time></trkpt><trkpt lat="45.543454868527725" lon="8.180093231305726"><ele>229.0</ele><time>2026-04-11T10:25:55.98Z</time></trkpt><trkpt lat="45.543333074117946" lon="8.180313465956104"><ele>229.0</ele><time>2026-04-11T10:25:56.98Z</time></trkpt><trkpt lat="45.54321710493091" lon="8.180529409209775"><ele>229.0</ele><time>2026-04-11T10:25:57.98Z</time></trkpt><trkpt lat="45.5431008833708" lon="8.180744657595824"><ele>229.0</ele><time>2026-04-11T10:25:58.98Z</time></trkpt><trkpt lat="45.542987071782676" lon="8.180949972315005"><ele>229.0</ele><time>2026-04-11T10:25:59.98Z</time></trkpt><trkpt lat="45.54287328119844" lon="8.181145825682016"><ele>229.0</ele><time>2026-04-11T10:26:00.98Z</time></trkpt><trkpt lat="45.54275822947481" lon="8.181346290105884"><ele>229.0</ele><time>2026-04-11T10:26:01.98Z</time></trkpt><trkpt lat="45.54264935052383" lon="8.181537785956056"><ele>228.33333333333331</ele><time>2026-04-11T10:26:02.98Z</time></trkpt><trkpt lat="45.54253483036456" lon="8.181722445118137"><ele>227.66666666666669</ele><time>2026-04-11T10:26:03.979Z</time></trkpt><trkpt lat="45.54240780311917" lon="8.18189549990276"><ele>227.0</ele><time>2026-04-11T10:26:04.979Z</time></trkpt><trkpt lat="45.54227115879806" lon="8.182052451830577"><ele>227.0</ele><time>2026-04-11T10:26:05.979Z</time></trkpt><trkpt lat="45.54211835178645" lon="8.18219544280851"><ele>227.0</ele><time>2026-04-11T10:26:06.979Z</time></trkpt><trkpt lat="45.541958092629855" lon="8.18230252721594"><ele>227.0</ele><time>2026-04-11T10:26:07.979Z</time></trkpt><trkpt lat="45.541789334613036" lon="8.1823753959205"><ele>226.0</ele><time>2026-04-11T10:26:08.979Z</time></trkpt><trkpt lat="45.541614264088366" lon="8.18242697468082"><ele>225.0</ele><time>2026-04-11T10:26:09.979Z</time></trkpt><trkpt lat="45.54143390097448" lon="8.18247734627124"><ele>224.0</ele><time>2026-04-11T10:26:10.979Z</time></trkpt><trkpt lat="45.54125637639781" lon="8.182529603317388"><ele>223.66666666666669</ele><time>2026-04-11T10:26:11.979Z</time></trkpt><trkpt lat="45.54108507406519" lon="8.182580183922077"><ele>223.33333333333331</ele><time>2026-04-11T10:26:12.979Z</time></trkpt><trkpt lat="45.54091212553464" lon="8.182630412594625"><ele>223.0</ele><time>2026-04-11T10:26:13.979Z</time></trkpt><trkpt lat="45.5407392700841" lon="8.182684119706993"><ele>223.0</ele><time>2026-04-11T10:26:14.979Z</time></trkpt><trkpt lat="45.54056458434806" lon="8.182741846616707"><ele>223.0</ele><time>2026-04-11T10:26:15.979Z</time></trkpt><trkpt lat="45.54038967681939" lon="8.182799545830662"><ele>223.0</ele><time>2026-04-11T10:26:16.979Z</time></trkpt><trkpt lat="45.54021067904755" lon="8.182839084260722"><ele>224.0</ele><time>2026-04-11T10:26:17.979Z</time></trkpt><trkpt lat="45.540031305564554" lon="8.18290695019732"><ele>225.0</ele><time>2026-04-11T10:26:18.979Z</time></trkpt><trkpt lat="45.53985286771954" lon="8.182985469260233"><ele>226.0</ele><time>2026-04-11T10:26:19.979Z</time></trkpt><trkpt lat="45.53967340046429" lon="8.183075298905937"><ele>225.66666666666666</ele><time>2026-04-11T10:26:20.979Z</time></trkpt><trkpt lat="45.53949675821104" lon="8.183171303651406"><ele>225.33333333333331</ele><time>2026-04-11T10:26:21.979Z</time></trkpt><trkpt lat="45.53932244805526" lon="8.183284190197385"><ele>225.0</ele><time>2026-04-11T10:26:22.979Z</time></trkpt><trkpt lat="45.5391468856219" lon="8.183402979012829"><ele>225.0</ele><time>2026-04-11T10:26:23.979Z</time></trkpt><trkpt lat="45.53897427802773" lon="8.183525769762182"><ele>225.0</ele><time>2026-04-11T10:26:24.979Z</time></trkpt><trkpt lat="45.538802950457956" lon="8.1836568829009"><ele>225.0</ele><time>2026-04-11T10:26:25.979Z</time></trkpt><trkpt lat="45.538631517713945" lon="8.183788812347904"><ele>224.33333333333331</ele><time>2026-04-11T10:26:26.979Z</time></trkpt><trkpt lat="45.53845624530138" lon="8.183930609086914"><ele>223.66666666666666</ele><time>2026-04-11T10:26:27.979Z</time></trkpt><trkpt lat="45.5382769790063" lon="8.18407505519076"><ele>223.0</ele><time>2026-04-11T10:26:28.979Z</time></trkpt><trkpt lat="45.538089951471484" lon="8.184223389227428"><ele>223.0</ele><time>2026-04-11T10:26:29.979Z</time></trkpt><trkpt lat="45.537886112975954" lon="8.184391094563416"><ele>223.0</ele><time>2026-04-11T10:26:30.979Z</time></trkpt><trkpt lat="45.53765525915925" lon="8.184581455792616"><ele>223.0</ele><time>2026-04-11T10:26:31.979Z</time></trkpt><trkpt lat="45.53740970003241" lon="8.184769321457203"><ele>223.0</ele><time>2026-04-11T10:26:32.979Z</time></trkpt><trkpt lat="45.53717028061757" lon="8.184939409281952"><ele>222.0</ele><time>2026-04-11T10:26:33.979Z</time></trkpt><trkpt lat="45.536943334921105" lon="8.185111668968565"><ele>221.0</ele><time>2026-04-11T10:26:34.979Z</time></trkpt><trkpt lat="45.536724660578315" lon="8.18528713547081"><ele>221.0</ele><time>2026-04-11T10:26:35.979Z</time></trkpt><trkpt lat="45.53651317825093" lon="8.185456189213474"><ele>221.0</ele><time>2026-04-11T10:26:36.979Z</time></trkpt><trkpt lat="45.536308251672146" lon="8.1856171818618"><ele>221.5</ele><time>2026-04-11T10:26:37.979Z</time></trkpt><trkpt lat="45.53610948732599" lon="8.18577415525631"><ele>222.0</ele><time>2026-04-11T10:26:38.979Z</time></trkpt><trkpt lat="45.53591251317127" lon="8.185931838100714"><ele>222.0</ele><time>2026-04-11T10:26:39.979Z</time></trkpt><trkpt lat="45.53571917111253" lon="8.186089335195541"><ele>222.0</ele><time>2026-04-11T10:26:40.979Z</time></trkpt><trkpt lat="45.53552673470244" lon="8.18624326699945"><ele>222.0</ele><time>2026-04-11T10:26:41.979Z</time></trkpt><trkpt lat="45.5353327334814" lon="8.186391012565025"><ele>222.0</ele><time>2026-04-11T10:26:42.979Z</time></trkpt><trkpt lat="45.535140599848766" lon="8.186534968552014"><ele>222.0</ele><time>2026-04-11T10:26:43.979Z</time></trkpt><trkpt lat="45.53495202113792" lon="8.186685214860091"><ele>222.0</ele><time>2026-04-11T10:26:44.979Z</time></trkpt><trkpt lat="45.5347629092345" lon="8.186832019038615"><ele>222.0</ele><time>2026-04-11T10:26:45.979Z</time></trkpt><trkpt lat="45.534572017413964" lon="8.186980417731517"><ele>222.0</ele><time>2026-04-11T10:26:46.979Z</time></trkpt><trkpt lat="45.534380502380564" lon="8.187133470259555"><ele>222.0</ele><time>2026-04-11T10:26:47.979Z</time></trkpt><trkpt lat="45.534187239226476" lon="8.187286770029077"><ele>221.0</ele><time>2026-04-11T10:26:48.979Z</time></trkpt><trkpt lat="45.53399381044285" lon="8.187439236102701"><ele>220.0</ele><time>2026-04-11T10:26:49.978Z</time></trkpt><trkpt lat="45.53379993513893" lon="8.187592196357684"><ele>219.0</ele><time>2026-04-11T10:26:50.978Z</time></trkpt><trkpt lat="45.53360287958116" lon="8.187745738844479"><ele>218.5</ele><time>2026-04-11T10:26:51.978Z</time></trkpt><trkpt lat="45.53340537735545" lon="8.187896618032388"><ele>218.0</ele><time>2026-04-11T10:26:52.978Z</time></trkpt><trkpt lat="45.533206809682376" lon="8.188049806031705"><ele>217.5</ele><time>2026-04-11T10:26:53.978Z</time></trkpt><trkpt lat="45.53300985250568" lon="8.18820740863024"><ele>217.0</ele><time>2026-04-11T10:26:54.978Z</time></trkpt><trkpt lat="45.5328110727326" lon="8.188370149632027"><ele>220.0</ele><time>2026-04-11T10:26:55.978Z</time></trkpt><trkpt lat="45.5326106785478" lon="8.188531192500925"><ele>223.0</ele><time>2026-04-11T10:26:56.978Z</time></trkpt><trkpt lat="45.53240867178938" lon="8.188694515777604"><ele>223.0</ele><time>2026-04-11T10:26:57.978Z</time></trkpt><trkpt lat="45.53220702433645" lon="8.188852752586861"><ele>223.0</ele><time>2026-04-11T10:26:58.978Z</time></trkpt><trkpt lat="45.53200598711988" lon="8.18901384749607"><ele>224.5</ele><time>2026-04-11T10:26:59.978Z</time></trkpt><trkpt lat="45.53180578604049" lon="8.189174200953326"><ele>226.0</ele><time>2026-04-11T10:27:00.978Z</time></trkpt><trkpt lat="45.53160482510174" lon="8.189335080120184"><ele>226.0</ele><time>2026-04-11T10:27:01.978Z</time></trkpt><trkpt lat="45.5314039411767" lon="8.189495487945853"><ele>226.0</ele><time>2026-04-11T10:27:02.978Z</time></trkpt><trkpt lat="45.53120377343483" lon="8.18965729645189"><ele>223.66666666666666</ele><time>2026-04-11T10:27:03.978Z</time></trkpt><trkpt lat="45.53100633220774" lon="8.189812443946233"><ele>221.33333333333331</ele><time>2026-04-11T10:27:04.978Z</time></trkpt><trkpt lat="45.53081279589041" lon="8.18996482804695"><ele>219.0</ele><time>2026-04-11T10:27:05.978Z</time></trkpt><trkpt lat="45.53062079898351" lon="8.190115974578363"><ele>219.0</ele><time>2026-04-11T10:27:06.978Z</time></trkpt><trkpt lat="45.53042804635375" lon="8.190264137857493"><ele>219.0</ele><time>2026-04-11T10:27:07.978Z</time></trkpt><trkpt lat="45.53023560867364" lon="8.190413052322036"><ele>219.0</ele><time>2026-04-11T10:27:08.978Z</time></trkpt><trkpt lat="45.53004379613111" lon="8.19055746013631"><ele>218.33333333333331</ele><time>2026-04-11T10:27:09.978Z</time></trkpt><trkpt lat="45.52985256726013" lon="8.190705430303517"><ele>217.66666666666666</ele><time>2026-04-11T10:27:10.978Z</time></trkpt><trkpt lat="45.52966320907844" lon="8.190860328832496"><ele>217.0</ele><time>2026-04-11T10:27:11.978Z</time></trkpt><trkpt lat="45.52947330170067" lon="8.19100767751093"><ele>217.0</ele><time>2026-04-11T10:27:12.978Z</time></trkpt><trkpt lat="45.5292839379682" lon="8.191157019959547"><ele>217.0</ele><time>2026-04-11T10:27:13.978Z</time></trkpt><trkpt lat="45.52909273517443" lon="8.191307761828657"><ele>217.0</ele><time>2026-04-11T10:27:14.978Z</time></trkpt><trkpt lat="45.52890199962578" lon="8.1914570924848"><ele>216.66666666666666</ele><time>2026-04-11T10:27:15.978Z</time></trkpt><trkpt lat="45.5287139716572" lon="8.191603786572232"><ele>216.33333333333331</ele><time>2026-04-11T10:27:16.978Z</time></trkpt><trkpt lat="45.5285229413423" lon="8.191754536429439"><ele>216.0</ele><time>2026-04-11T10:27:17.978Z</time></trkpt><trkpt lat="45.52833039177125" lon="8.191907494343598"><ele>216.0</ele><time>2026-04-11T10:27:18.978Z</time></trkpt><trkpt lat="45.528137573453286" lon="8.192061244410072"><ele>216.0</ele><time>2026-04-11T10:27:19.978Z</time></trkpt><trkpt lat="45.52794851070211" lon="8.192210385300095"><ele>216.0</ele><time>2026-04-11T10:27:20.978Z</time></trkpt><trkpt lat="45.52776243817899" lon="8.19235939220378"><ele>215.33333333333331</ele><time>2026-04-11T10:27:21.978Z</time></trkpt><trkpt lat="45.52758557966523" lon="8.19250100394674"><ele>214.66666666666666</ele><time>2026-04-11T10:27:22.978Z</time></trkpt><trkpt lat="45.52742302778032" lon="8.192629330782063"><ele>214.0</ele><time>2026-04-11T10:27:23.978Z</time></trkpt><trkpt lat="45.52727258712762" lon="8.192747348731002"><ele>214.0</ele><time>2026-04-11T10:27:24.978Z</time></trkpt><trkpt lat="45.52713049025036" lon="8.19285137841604"><ele>214.0</ele><time>2026-04-11T10:27:25.978Z</time></trkpt><trkpt lat="45.52699666008428" lon="8.192944207466155"><ele>214.0</ele><time>2026-04-11T10:27:26.978Z</time></trkpt><trkpt lat="45.52686756824745" lon="8.19301747977412"><ele>214.0</ele><time>2026-04-11T10:27:27.978Z</time></trkpt><trkpt lat="45.52674264449068" lon="8.193067985823966"><ele>214.25</ele><time>2026-04-11T10:27:28.978Z</time></trkpt><trkpt lat="45.52662028983363" lon="8.193089566438834"><ele>214.5</ele><time>2026-04-11T10:27:29.978Z</time></trkpt><trkpt lat="45.52651236186965" lon="8.193058877138226"><ele>214.75</ele><time>2026-04-11T10:27:30.978Z</time></trkpt><trkpt lat="45.52641351861369" lon="8.193009309381914"><ele>215.0</ele><time>2026-04-11T10:27:31.978Z</time></trkpt><trkpt lat="45.5263035996654" lon="8.19298260466989"><ele>214.75</ele><time>2026-04-11T10:27:32.978Z</time></trkpt><trkpt lat="45.52618761364662" lon="8.193006589881396"><ele>214.5</ele><time>2026-04-11T10:27:33.978Z</time></trkpt><trkpt lat="45.52608090563249" lon="8.193086776717179"><ele>214.25</ele><time>2026-04-11T10:27:34.978Z</time></trkpt><trkpt lat="45.52599908722916" lon="8.19321538181308"><ele>214.0</ele><time>2026-04-11T10:27:35.977Z</time></trkpt><trkpt lat="45.52594921834598" lon="8.193390642561617"><ele>214.0</ele><time>2026-04-11T10:27:36.977Z</time></trkpt><trkpt lat="45.52592010867474" lon="8.193596406895356"><ele>214.0</ele><time>2026-04-11T10:27:37.977Z</time></trkpt><trkpt lat="45.525855882235646" lon="8.19379090220879"><ele>214.0</ele><time>2026-04-11T10:27:38.977Z</time></trkpt><trkpt lat="45.5257666250381" lon="8.193984747631871"><ele>214.0</ele><time>2026-04-11T10:27:39.977Z</time></trkpt><trkpt lat="45.52561293334515" lon="8.194136040675785"><ele>214.0</ele><time>2026-04-11T10:27:40.977Z</time></trkpt><trkpt lat="45.525478020453036" lon="8.19431077856022"><ele>214.0</ele><time>2026-04-11T10:27:41.977Z</time></trkpt><trkpt lat="45.525324731123824" lon="8.194504776740173"><ele>214.0</ele><time>2026-04-11T10:27:42.977Z</time></trkpt><trkpt lat="45.52516435495519" lon="8.194714394297796"><ele>214.0</ele><time>2026-04-11T10:27:43.977Z</time></trkpt><trkpt lat="45.525016177782184" lon="8.194923856286753"><ele>214.0</ele><time>2026-04-11T10:27:44.977Z</time></trkpt><trkpt lat="45.52487034308562" lon="8.195133944366269"><ele>213.66666666666666</ele><time>2026-04-11T10:27:45.977Z</time></trkpt><trkpt lat="45.524718269753315" lon="8.195346575750753"><ele>213.33333333333331</ele><time>2026-04-11T10:27:46.977Z</time></trkpt><trkpt lat="45.524563583852476" lon="8.195568832856726"><ele>213.0</ele><time>2026-04-11T10:27:47.977Z</time></trkpt><trkpt lat="45.52440968934922" lon="8.195785015066834"><ele>213.0</ele><time>2026-04-11T10:27:48.977Z</time></trkpt><trkpt lat="45.52426102554861" lon="8.195993678878981"><ele>213.0</ele><time>2026-04-11T10:27:49.977Z</time></trkpt><trkpt lat="45.52411081664983" lon="8.196206206860511"><ele>213.0</ele><time>2026-04-11T10:27:50.977Z</time></trkpt><trkpt lat="45.523960334228555" lon="8.196424946625699"><ele>212.66666666666669</ele><time>2026-04-11T10:27:51.977Z</time></trkpt><trkpt lat="45.5238053771026" lon="8.196650688603162"><ele>212.33333333333334</ele><time>2026-04-11T10:27:52.977Z</time></trkpt><trkpt lat="45.52365472376174" lon="8.196866865104246"><ele>212.0</ele><time>2026-04-11T10:27:53.977Z</time></trkpt><trkpt lat="45.52351288096976" lon="8.197072516585848"><ele>212.0</ele><time>2026-04-11T10:27:54.977Z</time></trkpt><trkpt lat="45.52337659731345" lon="8.197272085389878"><ele>212.0</ele><time>2026-04-11T10:27:55.977Z</time></trkpt><trkpt lat="45.52324637611947" lon="8.197461034092763"><ele>212.0</ele><time>2026-04-11T10:27:56.977Z</time></trkpt><trkpt lat="45.5231250016942" lon="8.197636910970658"><ele>211.33333333333334</ele><time>2026-04-11T10:27:57.977Z</time></trkpt><trkpt lat="45.5230071421722" lon="8.197800732456052"><ele>210.66666666666669</ele><time>2026-04-11T10:27:58.977Z</time></trkpt><trkpt lat="45.52288366392705" lon="8.197947390133494"><ele>210.0</ele><time>2026-04-11T10:27:59.977Z</time></trkpt><trkpt lat="45.5227489081842" lon="8.198065888181175"><ele>209.66666666666669</ele><time>2026-04-11T10:28:00.977Z</time></trkpt><trkpt lat="45.52259844403516" lon="8.198167525209664"><ele>209.33333333333334</ele><time>2026-04-11T10:28:01.977Z</time></trkpt><trkpt lat="45.522443603768444" lon="8.198257539220474"><ele>209.0</ele><time>2026-04-11T10:28:02.977Z</time></trkpt><trkpt lat="45.52228645180381" lon="8.198329662343932"><ele>209.0</ele><time>2026-04-11T10:28:03.977Z</time></trkpt><trkpt lat="45.52212255157702" lon="8.198399551114292"><ele>209.0</ele><time>2026-04-11T10:28:04.977Z</time></trkpt><trkpt lat="45.52196062799328" lon="8.19847207783676"><ele>209.0</ele><time>2026-04-11T10:28:05.977Z</time></trkpt><trkpt lat="45.521802359525545" lon="8.198522577122741"><ele>210.0</ele><time>2026-04-11T10:28:06.977Z</time></trkpt><trkpt lat="45.52163766979018" lon="8.198603211578998"><ele>211.0</ele><time>2026-04-11T10:28:07.977Z</time></trkpt><trkpt lat="45.52146638258941" lon="8.198689069859205"><ele>212.0</ele><time>2026-04-11T10:28:08.977Z</time></trkpt><trkpt lat="45.521280425747314" lon="8.198746351825879"><ele>211.66666666666669</ele><time>2026-04-11T10:28:09.977Z</time></trkpt><trkpt lat="45.521092202808056" lon="8.198828517392098"><ele>211.33333333333331</ele><time>2026-04-11T10:28:10.977Z</time></trkpt><trkpt lat="45.52089244588254" lon="8.198929859239092"><ele>211.0</ele><time>2026-04-11T10:28:11.977Z</time></trkpt><trkpt lat="45.520686331307736" lon="8.199002770370445"><ele>210.33333333333331</ele><time>2026-04-11T10:28:12.977Z</time></trkpt><trkpt lat="45.52048840620118" lon="8.199085386059048"><ele>209.66666666666669</ele><time>2026-04-11T10:28:13.977Z</time></trkpt><trkpt lat="45.520288382397574" lon="8.199167398114625"><ele>209.0</ele><time>2026-04-11T10:28:14.977Z</time></trkpt><trkpt lat="45.52008241880118" lon="8.199248398536076"><ele>208.66666666666669</ele><time>2026-04-11T10:28:15.977Z</time></trkpt><trkpt lat="45.5198733817778" lon="8.199336389053025"><ele>208.33333333333331</ele><time>2026-04-11T10:28:16.977Z</time></trkpt><trkpt lat="45.519662372880745" lon="8.199433777291144"><ele>208.0</ele><time>2026-04-11T10:28:17.977Z</time></trkpt><trkpt lat="45.51944847336808" lon="8.199533160419652"><ele>208.0</ele><time>2026-04-11T10:28:18.977Z</time></trkpt><trkpt lat="45.51923329878455" lon="8.199627010022727"><ele>208.0</ele><time>2026-04-11T10:28:19.977Z</time></trkpt><trkpt lat="45.5190195984609" lon="8.199721352485314"><ele>208.0</ele><time>2026-04-11T10:28:20.977Z</time></trkpt><trkpt lat="45.518809753365126" lon="8.199819861061574"><ele>207.33333333333331</ele><time>2026-04-11T10:28:21.977Z</time></trkpt><trkpt lat="45.518598023702516" lon="8.199914383399818"><ele>206.66666666666669</ele><time>2026-04-11T10:28:22.976Z</time></trkpt><trkpt lat="45.518388228849275" lon="8.200004203149398"><ele>206.0</ele><time>2026-04-11T10:28:23.976Z</time></trkpt><trkpt lat="45.51817751377091" lon="8.200091997970704"><ele>206.0</ele><time>2026-04-11T10:28:24.976Z</time></trkpt><trkpt lat="45.51796943524837" lon="8.200184520776668"><ele>206.0</ele><time>2026-04-11T10:28:25.976Z</time></trkpt><trkpt lat="45.5177667995953" lon="8.20028978258483"><ele>206.0</ele><time>2026-04-11T10:28:26.976Z</time></trkpt><trkpt lat="45.51757095657199" lon="8.200415939133398"><ele>206.0</ele><time>2026-04-11T10:28:27.976Z</time></trkpt><trkpt lat="45.517385338989875" lon="8.200566607599916"><ele>206.0</ele><time>2026-04-11T10:28:28.976Z</time></trkpt><trkpt lat="45.517197075369154" lon="8.200727451888943"><ele>206.0</ele><time>2026-04-11T10:28:29.976Z</time></trkpt><trkpt lat="45.517007135670106" lon="8.200892360379575"><ele>206.0</ele><time>2026-04-11T10:28:30.976Z</time></trkpt><trkpt lat="45.51680510012485" lon="8.201033786650502"><ele>206.0</ele><time>2026-04-11T10:28:31.976Z</time></trkpt><trkpt lat="45.516609313395676" lon="8.201202036714959"><ele>206.0</ele><time>2026-04-11T10:28:32.976Z</time></trkpt><trkpt lat="45.51641463106296" lon="8.201361841859523"><ele>206.0</ele><time>2026-04-11T10:28:33.976Z</time></trkpt><trkpt lat="45.51620872535541" lon="8.201500492422213"><ele>205.33333333333334</ele><time>2026-04-11T10:28:34.976Z</time></trkpt><trkpt lat="45.51601400059118" lon="8.201664458962844"><ele>204.66666666666669</ele><time>2026-04-11T10:28:35.976Z</time></trkpt><trkpt lat="45.51583106401161" lon="8.20184192689063"><ele>204.0</ele><time>2026-04-11T10:28:36.976Z</time></trkpt><trkpt lat="45.5156563747664" lon="8.202039542598667"><ele>204.0</ele><time>2026-04-11T10:28:37.976Z</time></trkpt><trkpt lat="45.51547790951218" lon="8.202232111155022"><ele>204.0</ele><time>2026-04-11T10:28:38.976Z</time></trkpt><trkpt lat="45.51530594595318" lon="8.202435723769502"><ele>204.0</ele><time>2026-04-11T10:28:39.976Z</time></trkpt><trkpt lat="45.5151433249777" lon="8.202643872987435"><ele>204.5</ele><time>2026-04-11T10:28:40.976Z</time></trkpt><trkpt lat="45.5149807075965" lon="8.202865019915535"><ele>205.0</ele><time>2026-04-11T10:28:41.976Z</time></trkpt><trkpt lat="45.51481723046648" lon="8.203088491951062"><ele>204.66666666666666</ele><time>2026-04-11T10:28:42.976Z</time></trkpt><trkpt lat="45.51465655791274" lon="8.203313041112738"><ele>204.33333333333331</ele><time>2026-04-11T10:28:43.976Z</time></trkpt><trkpt lat="45.51449847179631" lon="8.203533323432348"><ele>204.0</ele><time>2026-04-11T10:28:44.976Z</time></trkpt><trkpt lat="45.51434394963657" lon="8.203758700066016"><ele>204.0</ele><time>2026-04-11T10:28:45.976Z</time></trkpt><trkpt lat="45.51418848439087" lon="8.203980565819801"><ele>204.0</ele><time>2026-04-11T10:28:46.976Z</time></trkpt><trkpt lat="45.51402984880243" lon="8.20420501278898"><ele>204.0</ele><time>2026-04-11T10:28:47.976Z</time></trkpt><trkpt lat="45.51387478345966" lon="8.204426047593708"><ele>204.0</ele><time>2026-04-11T10:28:48.976Z</time></trkpt><trkpt lat="45.51371884087495" lon="8.20464945419684"><ele>204.0</ele><time>2026-04-11T10:28:49.976Z</time></trkpt><trkpt lat="45.51356131381641" lon="8.204872664084823"><ele>204.0</ele><time>2026-04-11T10:28:50.976Z</time></trkpt><trkpt lat="45.513404697171644" lon="8.2050982625176"><ele>204.0</ele><time>2026-04-11T10:28:51.976Z</time></trkpt><trkpt lat="45.51324692888647" lon="8.205323286629342"><ele>204.0</ele><time>2026-04-11T10:28:52.976Z</time></trkpt><trkpt lat="45.51308998066617" lon="8.205545569571617"><ele>204.0</ele><time>2026-04-11T10:28:53.976Z</time></trkpt><trkpt lat="45.51293308453464" lon="8.205769719695988"><ele>203.0</ele><time>2026-04-11T10:28:54.976Z</time></trkpt><trkpt lat="45.51277565873165" lon="8.205993126300086"><ele>202.0</ele><time>2026-04-11T10:28:55.976Z</time></trkpt><trkpt lat="45.51261652402863" lon="8.20621665004413"><ele>201.0</ele><time>2026-04-11T10:28:56.976Z</time></trkpt><trkpt lat="45.512461303798496" lon="8.206438456038372"><ele>201.33333333333331</ele><time>2026-04-11T10:28:57.976Z</time></trkpt><trkpt lat="45.51230839007004" lon="8.206656664217402"><ele>201.66666666666666</ele><time>2026-04-11T10:28:58.976Z</time></trkpt><trkpt lat="45.512168353676884" lon="8.206855752241884"><ele>202.0</ele><time>2026-04-11T10:28:59.976Z</time></trkpt><trkpt lat="45.51203477755333" lon="8.207044272687643"><ele>201.33333333333331</ele><time>2026-04-11T10:29:00.976Z</time></trkpt><trkpt lat="45.51190937377315" lon="8.207222316025208"><ele>200.66666666666669</ele><time>2026-04-11T10:29:01.976Z</time></trkpt><trkpt lat="45.511786288512425" lon="8.207388673336776"><ele>200.0</ele><time>2026-04-11T10:29:02.976Z</time></trkpt><trkpt lat="45.51165930291095" lon="8.207535185362"><ele>200.0</ele><time>2026-04-11T10:29:03.976Z</time></trkpt><trkpt lat="45.51152391814102" lon="8.207646429092664"><ele>200.0</ele><time>2026-04-11T10:29:04.976Z</time></trkpt><trkpt lat="45.51137400989094" lon="8.207740816673182"><ele>200.0</ele><time>2026-04-11T10:29:05.976Z</time></trkpt><trkpt lat="45.51121325371934" lon="8.207816976650733"><ele>200.33333333333334</ele><time>2026-04-11T10:29:06.976Z</time></trkpt><trkpt lat="45.51104163769074" lon="8.207864270947502"><ele>200.66666666666669</ele><time>2026-04-11T10:29:07.976Z</time></trkpt><trkpt lat="45.51086320283296" lon="8.207879865655599"><ele>201.0</ele><time>2026-04-11T10:29:08.975Z</time></trkpt><trkpt lat="45.51067699773834" lon="8.207865496178735"><ele>201.0</ele><time>2026-04-11T10:29:09.975Z</time></trkpt><trkpt lat="45.510486497077935" lon="8.207827356784387"><ele>201.0</ele><time>2026-04-11T10:29:10.975Z</time></trkpt><trkpt lat="45.51029483331235" lon="8.207778389666597"><ele>201.0</ele><time>2026-04-11T10:29:11.975Z</time></trkpt><trkpt lat="45.51010217667205" lon="8.207730176857975"><ele>201.33333333333331</ele><time>2026-04-11T10:29:12.975Z</time></trkpt><trkpt lat="45.509911745610616" lon="8.207684327294375"><ele>201.66666666666666</ele><time>2026-04-11T10:29:13.975Z</time></trkpt><trkpt lat="45.509725837342714" lon="8.207640261803094"><ele>202.0</ele><time>2026-04-11T10:29:14.975Z</time></trkpt><trkpt lat="45.50955423498927" lon="8.207596933808425"><ele>202.0</ele><time>2026-04-11T10:29:15.975Z</time></trkpt><trkpt lat="45.50940614394217" lon="8.207555210848685"><ele>202.0</ele><time>2026-04-11T10:29:16.975Z</time></trkpt><trkpt lat="45.50926905521982" lon="8.20751761657275"><ele>202.0</ele><time>2026-04-11T10:29:17.975Z</time></trkpt><trkpt lat="45.50913510306129" lon="8.20747744959539"><ele>202.0</ele><time>2026-04-11T10:29:18.975Z</time></trkpt><trkpt lat="45.508993308564584" lon="8.207432111030151"><ele>202.0</ele><time>2026-04-11T10:29:19.975Z</time></trkpt><trkpt lat="45.508856057772284" lon="8.207387951749006"><ele>202.0</ele><time>2026-04-11T10:29:20.975Z</time></trkpt><trkpt lat="45.5087259707699" lon="8.207352877526748"><ele>202.0</ele><time>2026-04-11T10:29:21.975Z</time></trkpt><trkpt lat="45.50861715667852" lon="8.207339672654081"><ele>202.0</ele><time>2026-04-11T10:29:22.975Z</time></trkpt><trkpt lat="45.508523010142305" lon="8.207347125148406"><ele>202.2</ele><time>2026-04-11T10:29:23.975Z</time></trkpt><trkpt lat="45.50843666246477" lon="8.207359406872653"><ele>202.39999999999998</ele><time>2026-04-11T10:29:24.975Z</time></trkpt><trkpt lat="45.50833848892262" lon="8.207392990122404"><ele>202.60000000000002</ele><time>2026-04-11T10:29:25.975Z</time></trkpt><trkpt lat="45.50821621430747" lon="8.207425160001367"><ele>202.8</ele><time>2026-04-11T10:29:26.975Z</time></trkpt><trkpt lat="45.50809232525317" lon="8.20745649126024"><ele>203.0</ele><time>2026-04-11T10:29:27.975Z</time></trkpt><trkpt lat="45.507968196347136" lon="8.207489361118931"><ele>203.2</ele><time>2026-04-11T10:29:28.975Z</time></trkpt><trkpt lat="45.507864686274665" lon="8.207518950401438"><ele>203.4</ele><time>2026-04-11T10:29:29.975Z</time></trkpt><trkpt lat="45.507769983333226" lon="8.207542165860723"><ele>203.6</ele><time>2026-04-11T10:29:30.975Z</time></trkpt><trkpt lat="45.507672071093026" lon="8.207563843804962"><ele>203.79999999999998</ele><time>2026-04-11T10:29:31.975Z</time></trkpt><trkpt lat="45.50756777335897" lon="8.20758793202242"><ele>204.0</ele><time>2026-04-11T10:29:32.975Z</time></trkpt><trkpt lat="45.50745337212614" lon="8.207607721741502"><ele>204.0</ele><time>2026-04-11T10:29:33.975Z</time></trkpt><trkpt lat="45.50734446698807" lon="8.207615691669192"><ele>204.0</ele><time>2026-04-11T10:29:34.975Z</time></trkpt><trkpt lat="45.50725051492372" lon="8.207622331042367"><ele>204.0</ele><time>2026-04-11T10:29:35.975Z</time></trkpt><trkpt lat="45.50717285417237" lon="8.207628342683801"><ele>204.0</ele><time>2026-04-11T10:29:36.975Z</time></trkpt><trkpt lat="45.50710070567635" lon="8.207632025731048"><ele>204.0</ele><time>2026-04-11T10:29:37.975Z</time></trkpt><trkpt lat="45.50703449199011" lon="8.207639782325982"><ele>204.0</ele><time>2026-04-11T10:29:38.975Z</time></trkpt><trkpt lat="45.506929795558314" lon="8.207634115221413"><ele>209.0</ele><time>2026-04-11T10:29:40.975Z</time></trkpt><trkpt lat="45.50688356939981" lon="8.20750687634579"><ele>209.0</ele><time>2026-04-11T10:29:43.975Z</time></trkpt><trkpt lat="45.506872175546214" lon="8.207363712154178"><ele>209.0</ele><time>2026-04-11T10:29:45.975Z</time></trkpt><trkpt lat="45.5068619057651" lon="8.207272694998414"><ele>217.0</ele><time>2026-04-11T10:29:47.975Z</time></trkpt><trkpt lat="45.506941139461766" lon="8.207242781767453"><ele>217.0</ele><time>2026-04-11T10:29:50.975Z</time></trkpt></trkseg></trk></gpx>